<?xml version="1.0" encoding="utf-8"?><gpx version="1.1" creator="Strava GPX downloader (https://chrome.google.com/webstore/detail/strava-gpx-downloader/pnglhfabfkchkadgnkfacoakincdpeeg)" xmlns="http://www.topografix.com/GPX/1/1" xmlns:xsi="http://www.w3.org/2001/XMLSchema-instance" xsi:schemaLocation="http://www.topografix.com/GPX/1/1 http://www.topografix.com/GPX/1/1/gpx.xsd" xmlns:gpxtpx="http://www.garmin.com/xmlschemas/TrackPointExtension/v1"><metadata><time>1970-01-01T00:00:00.000Z</time><link href="https://www.strava.com/activities/2322040432/"><text>Strava</text></link></metadata><trk><name>April Hash</name><type>Ride</type><trkseg><trkpt lat="14.707962" lon="101.192311"><ele>191.8</ele><time>1970-01-01T00:00:00.000Z</time></trkpt><trkpt lat="14.707953" lon="101.192274"><ele>192.1</ele><time>1970-01-01T00:00:02.000Z</time></trkpt><trkpt lat="14.707929" lon="101.192257"><ele>192</ele><time>1970-01-01T00:00:06.000Z</time></trkpt><trkpt lat="14.707922" lon="101.192215"><ele>192.3</ele><time>1970-01-01T00:00:11.000Z</time></trkpt><trkpt lat="14.707934" lon="101.192153"><ele>192.5</ele><time>1970-01-01T00:00:13.000Z</time></trkpt><trkpt lat="14.707946" lon="101.192119"><ele>192.6</ele><time>1970-01-01T00:00:14.000Z</time></trkpt><trkpt lat="14.707943" lon="101.19208"><ele>192.7</ele><time>1970-01-01T00:00:15.000Z</time></trkpt><trkpt lat="14.707952" lon="101.192042"><ele>192.9</ele><time>1970-01-01T00:00:16.000Z</time></trkpt><trkpt lat="14.70796" lon="101.192006"><ele>193.2</ele><time>1970-01-01T00:00:17.000Z</time></trkpt><trkpt lat="14.707967" lon="101.191977"><ele>193.5</ele><time>1970-01-01T00:00:18.000Z</time></trkpt><trkpt lat="14.707973" lon="101.191943"><ele>193.5</ele><time>1970-01-01T00:00:19.000Z</time></trkpt><trkpt lat="14.707969" lon="101.191911"><ele>193.9</ele><time>1970-01-01T00:00:20.000Z</time></trkpt><trkpt lat="14.707969" lon="101.191882"><ele>194.3</ele><time>1970-01-01T00:00:21.000Z</time></trkpt><trkpt lat="14.707988" lon="101.191858"><ele>194.4</ele><time>1970-01-01T00:00:22.000Z</time></trkpt><trkpt lat="14.708022" lon="101.19184"><ele>195</ele><time>1970-01-01T00:00:23.000Z</time></trkpt><trkpt lat="14.708063" lon="101.191841"><ele>195</ele><time>1970-01-01T00:00:24.000Z</time></trkpt><trkpt lat="14.708106" lon="101.191854"><ele>194.6</ele><time>1970-01-01T00:00:25.000Z</time></trkpt><trkpt lat="14.708148" lon="101.191865"><ele>194.6</ele><time>1970-01-01T00:00:26.000Z</time></trkpt><trkpt lat="14.708188" lon="101.191872"><ele>194.6</ele><time>1970-01-01T00:00:27.000Z</time></trkpt><trkpt lat="14.70823" lon="101.191876"><ele>194.4</ele><time>1970-01-01T00:00:28.000Z</time></trkpt><trkpt lat="14.708276" lon="101.191877"><ele>194.1</ele><time>1970-01-01T00:00:29.000Z</time></trkpt><trkpt lat="14.708319" lon="101.191876"><ele>193.8</ele><time>1970-01-01T00:00:30.000Z</time></trkpt><trkpt lat="14.708363" lon="101.191873"><ele>193.5</ele><time>1970-01-01T00:00:31.000Z</time></trkpt><trkpt lat="14.70841" lon="101.19187"><ele>193.3</ele><time>1970-01-01T00:00:32.000Z</time></trkpt><trkpt lat="14.708457" lon="101.191869"><ele>193.3</ele><time>1970-01-01T00:00:33.000Z</time></trkpt><trkpt lat="14.708505" lon="101.191868"><ele>193.4</ele><time>1970-01-01T00:00:34.000Z</time></trkpt><trkpt lat="14.708548" lon="101.191868"><ele>193.4</ele><time>1970-01-01T00:00:35.000Z</time></trkpt><trkpt lat="14.708591" lon="101.191868"><ele>193.3</ele><time>1970-01-01T00:00:36.000Z</time></trkpt><trkpt lat="14.708629" lon="101.191866"><ele>193.1</ele><time>1970-01-01T00:00:37.000Z</time></trkpt><trkpt lat="14.708667" lon="101.191862"><ele>192.8</ele><time>1970-01-01T00:00:38.000Z</time></trkpt><trkpt lat="14.708705" lon="101.191851"><ele>192.5</ele><time>1970-01-01T00:00:39.000Z</time></trkpt><trkpt lat="14.708733" lon="101.191838"><ele>192.8</ele><time>1970-01-01T00:00:40.000Z</time></trkpt><trkpt lat="14.708778" lon="101.191804"><ele>193.2</ele><time>1970-01-01T00:00:42.000Z</time></trkpt><trkpt lat="14.708807" lon="101.191784"><ele>193.2</ele><time>1970-01-01T00:00:43.000Z</time></trkpt><trkpt lat="14.708839" lon="101.191768"><ele>193.1</ele><time>1970-01-01T00:00:44.000Z</time></trkpt><trkpt lat="14.708881" lon="101.191753"><ele>193.3</ele><time>1970-01-01T00:00:45.000Z</time></trkpt><trkpt lat="14.708926" lon="101.191735"><ele>192.9</ele><time>1970-01-01T00:00:46.000Z</time></trkpt><trkpt lat="14.70897" lon="101.191715"><ele>192.5</ele><time>1970-01-01T00:00:47.000Z</time></trkpt><trkpt lat="14.709011" lon="101.191692"><ele>192</ele><time>1970-01-01T00:00:48.000Z</time></trkpt><trkpt lat="14.709049" lon="101.191664"><ele>191.7</ele><time>1970-01-01T00:00:49.000Z</time></trkpt><trkpt lat="14.709085" lon="101.191636"><ele>191.3</ele><time>1970-01-01T00:00:50.000Z</time></trkpt><trkpt lat="14.709117" lon="101.191613"><ele>191.4</ele><time>1970-01-01T00:00:51.000Z</time></trkpt><trkpt lat="14.70915" lon="101.191589"><ele>191.4</ele><time>1970-01-01T00:00:52.000Z</time></trkpt><trkpt lat="14.709185" lon="101.191565"><ele>191.1</ele><time>1970-01-01T00:00:53.000Z</time></trkpt><trkpt lat="14.709238" lon="101.191521"><ele>191.2</ele><time>1970-01-01T00:00:54.000Z</time></trkpt><trkpt lat="14.709257" lon="101.191488"><ele>191.4</ele><time>1970-01-01T00:00:55.000Z</time></trkpt><trkpt lat="14.709257" lon="101.19144"><ele>191.7</ele><time>1970-01-01T00:00:56.000Z</time></trkpt><trkpt lat="14.709264" lon="101.191389"><ele>191.9</ele><time>1970-01-01T00:00:57.000Z</time></trkpt><trkpt lat="14.709273" lon="101.191322"><ele>191.7</ele><time>1970-01-01T00:00:58.000Z</time></trkpt><trkpt lat="14.709299" lon="101.191272"><ele>191.8</ele><time>1970-01-01T00:00:59.000Z</time></trkpt><trkpt lat="14.709331" lon="101.191226"><ele>191.6</ele><time>1970-01-01T00:01:00.000Z</time></trkpt><trkpt lat="14.709359" lon="101.191188"><ele>191.4</ele><time>1970-01-01T00:01:01.000Z</time></trkpt><trkpt lat="14.709396" lon="101.191141"><ele>191.2</ele><time>1970-01-01T00:01:02.000Z</time></trkpt><trkpt lat="14.709415" lon="101.191107"><ele>191.2</ele><time>1970-01-01T00:01:03.000Z</time></trkpt><trkpt lat="14.709451" lon="101.191064"><ele>191.2</ele><time>1970-01-01T00:01:04.000Z</time></trkpt><trkpt lat="14.709483" lon="101.191027"><ele>191.2</ele><time>1970-01-01T00:01:05.000Z</time></trkpt><trkpt lat="14.709521" lon="101.190996"><ele>191.2</ele><time>1970-01-01T00:01:06.000Z</time></trkpt><trkpt lat="14.709561" lon="101.190974"><ele>191.1</ele><time>1970-01-01T00:01:07.000Z</time></trkpt><trkpt lat="14.709603" lon="101.190955"><ele>191</ele><time>1970-01-01T00:01:08.000Z</time></trkpt><trkpt lat="14.709648" lon="101.190927"><ele>191</ele><time>1970-01-01T00:01:09.000Z</time></trkpt><trkpt lat="14.709684" lon="101.190891"><ele>191</ele><time>1970-01-01T00:01:10.000Z</time></trkpt><trkpt lat="14.709723" lon="101.190858"><ele>191</ele><time>1970-01-01T00:01:11.000Z</time></trkpt><trkpt lat="14.709762" lon="101.190827"><ele>191</ele><time>1970-01-01T00:01:12.000Z</time></trkpt><trkpt lat="14.709786" lon="101.190804"><ele>190.9</ele><time>1970-01-01T00:01:13.000Z</time></trkpt><trkpt lat="14.70981" lon="101.190777"><ele>190.8</ele><time>1970-01-01T00:01:14.000Z</time></trkpt><trkpt lat="14.709862" lon="101.190795"><ele>190.6</ele><time>1970-01-01T00:01:15.000Z</time></trkpt><trkpt lat="14.709898" lon="101.190805"><ele>190.4</ele><time>1970-01-01T00:01:16.000Z</time></trkpt><trkpt lat="14.709932" lon="101.190825"><ele>190.1</ele><time>1970-01-01T00:01:17.000Z</time></trkpt><trkpt lat="14.709968" lon="101.190847"><ele>189.9</ele><time>1970-01-01T00:01:18.000Z</time></trkpt><trkpt lat="14.710002" lon="101.190866"><ele>189.9</ele><time>1970-01-01T00:01:19.000Z</time></trkpt><trkpt lat="14.710031" lon="101.190885"><ele>189.8</ele><time>1970-01-01T00:01:20.000Z</time></trkpt><trkpt lat="14.710057" lon="101.190908"><ele>189.9</ele><time>1970-01-01T00:01:21.000Z</time></trkpt><trkpt lat="14.710072" lon="101.190934"><ele>190.1</ele><time>1970-01-01T00:01:22.000Z</time></trkpt><trkpt lat="14.710073" lon="101.190968"><ele>190.4</ele><time>1970-01-01T00:01:23.000Z</time></trkpt><trkpt lat="14.710061" lon="101.191006"><ele>190.7</ele><time>1970-01-01T00:01:24.000Z</time></trkpt><trkpt lat="14.710039" lon="101.191028"><ele>190.9</ele><time>1970-01-01T00:01:25.000Z</time></trkpt><trkpt lat="14.710008" lon="101.191047"><ele>191.1</ele><time>1970-01-01T00:01:26.000Z</time></trkpt><trkpt lat="14.709976" lon="101.191068"><ele>191.2</ele><time>1970-01-01T00:01:27.000Z</time></trkpt><trkpt lat="14.709943" lon="101.191092"><ele>191.2</ele><time>1970-01-01T00:01:28.000Z</time></trkpt><trkpt lat="14.709912" lon="101.19112"><ele>190.9</ele><time>1970-01-01T00:01:29.000Z</time></trkpt><trkpt lat="14.709884" lon="101.191147"><ele>190.6</ele><time>1970-01-01T00:01:30.000Z</time></trkpt><trkpt lat="14.709857" lon="101.191175"><ele>190.5</ele><time>1970-01-01T00:01:31.000Z</time></trkpt><trkpt lat="14.709827" lon="101.191205"><ele>190.4</ele><time>1970-01-01T00:01:32.000Z</time></trkpt><trkpt lat="14.709795" lon="101.19124"><ele>190.5</ele><time>1970-01-01T00:01:33.000Z</time></trkpt><trkpt lat="14.709763" lon="101.191273"><ele>190.6</ele><time>1970-01-01T00:01:34.000Z</time></trkpt><trkpt lat="14.709735" lon="101.191299"><ele>190.6</ele><time>1970-01-01T00:01:35.000Z</time></trkpt><trkpt lat="14.709706" lon="101.191327"><ele>190.6</ele><time>1970-01-01T00:01:36.000Z</time></trkpt><trkpt lat="14.709671" lon="101.191354"><ele>190.6</ele><time>1970-01-01T00:01:37.000Z</time></trkpt><trkpt lat="14.709633" lon="101.191381"><ele>190.7</ele><time>1970-01-01T00:01:38.000Z</time></trkpt><trkpt lat="14.709593" lon="101.191407"><ele>191.2</ele><time>1970-01-01T00:01:39.000Z</time></trkpt><trkpt lat="14.709527" lon="101.191449"><ele>192.1</ele><time>1970-01-01T00:01:40.000Z</time></trkpt><trkpt lat="14.709488" lon="101.191469"><ele>192.4</ele><time>1970-01-01T00:01:41.000Z</time></trkpt><trkpt lat="14.709442" lon="101.191484"><ele>192.5</ele><time>1970-01-01T00:01:42.000Z</time></trkpt><trkpt lat="14.709393" lon="101.191504"><ele>192.6</ele><time>1970-01-01T00:01:43.000Z</time></trkpt><trkpt lat="14.70935" lon="101.191521"><ele>192.4</ele><time>1970-01-01T00:01:44.000Z</time></trkpt><trkpt lat="14.709309" lon="101.191541"><ele>192.3</ele><time>1970-01-01T00:01:45.000Z</time></trkpt><trkpt lat="14.709252" lon="101.19157"><ele>192.3</ele><time>1970-01-01T00:01:46.000Z</time></trkpt><trkpt lat="14.709204" lon="101.191604"><ele>192</ele><time>1970-01-01T00:01:47.000Z</time></trkpt><trkpt lat="14.709159" lon="101.19165"><ele>191.6</ele><time>1970-01-01T00:01:48.000Z</time></trkpt><trkpt lat="14.709122" lon="101.191671"><ele>191.5</ele><time>1970-01-01T00:01:49.000Z</time></trkpt><trkpt lat="14.709087" lon="101.191687"><ele>191.4</ele><time>1970-01-01T00:01:50.000Z</time></trkpt><trkpt lat="14.709051" lon="101.191714"><ele>191.5</ele><time>1970-01-01T00:01:51.000Z</time></trkpt><trkpt lat="14.709007" lon="101.191737"><ele>191.7</ele><time>1970-01-01T00:01:52.000Z</time></trkpt><trkpt lat="14.70896" lon="101.191783"><ele>191.9</ele><time>1970-01-01T00:01:53.000Z</time></trkpt><trkpt lat="14.70891" lon="101.191846"><ele>192.1</ele><time>1970-01-01T00:01:54.000Z</time></trkpt><trkpt lat="14.708867" lon="101.191911"><ele>192</ele><time>1970-01-01T00:01:55.000Z</time></trkpt><trkpt lat="14.708834" lon="101.19197"><ele>192</ele><time>1970-01-01T00:01:56.000Z</time></trkpt><trkpt lat="14.70884" lon="101.192015"><ele>192.1</ele><time>1970-01-01T00:01:57.000Z</time></trkpt><trkpt lat="14.708843" lon="101.192068"><ele>192.4</ele><time>1970-01-01T00:01:58.000Z</time></trkpt><trkpt lat="14.708824" lon="101.192117"><ele>192.7</ele><time>1970-01-01T00:01:59.000Z</time></trkpt><trkpt lat="14.70884" lon="101.192164"><ele>192.9</ele><time>1970-01-01T00:02:00.000Z</time></trkpt><trkpt lat="14.708858" lon="101.192233"><ele>193.1</ele><time>1970-01-01T00:02:01.000Z</time></trkpt><trkpt lat="14.708872" lon="101.192327"><ele>193.2</ele><time>1970-01-01T00:02:02.000Z</time></trkpt><trkpt lat="14.708877" lon="101.192396"><ele>193</ele><time>1970-01-01T00:02:03.000Z</time></trkpt><trkpt lat="14.708878" lon="101.192451"><ele>192.9</ele><time>1970-01-01T00:02:05.000Z</time></trkpt><trkpt lat="14.708866" lon="101.19249"><ele>192.7</ele><time>1970-01-01T00:02:06.000Z</time></trkpt><trkpt lat="14.708858" lon="101.192525"><ele>192.6</ele><time>1970-01-01T00:02:07.000Z</time></trkpt><trkpt lat="14.708869" lon="101.192564"><ele>192.6</ele><time>1970-01-01T00:02:08.000Z</time></trkpt><trkpt lat="14.708868" lon="101.192605"><ele>192.5</ele><time>1970-01-01T00:02:09.000Z</time></trkpt><trkpt lat="14.708867" lon="101.192645"><ele>192.2</ele><time>1970-01-01T00:02:10.000Z</time></trkpt><trkpt lat="14.70887" lon="101.192686"><ele>192</ele><time>1970-01-01T00:02:12.000Z</time></trkpt><trkpt lat="14.708876" lon="101.192738"><ele>191.8</ele><time>1970-01-01T00:02:13.000Z</time></trkpt><trkpt lat="14.70888" lon="101.192793"><ele>191.7</ele><time>1970-01-01T00:02:14.000Z</time></trkpt><trkpt lat="14.708884" lon="101.19285"><ele>191.7</ele><time>1970-01-01T00:02:15.000Z</time></trkpt><trkpt lat="14.708886" lon="101.192908"><ele>191.7</ele><time>1970-01-01T00:02:16.000Z</time></trkpt><trkpt lat="14.708897" lon="101.19303"><ele>191.8</ele><time>1970-01-01T00:02:17.000Z</time></trkpt><trkpt lat="14.708906" lon="101.193088"><ele>192</ele><time>1970-01-01T00:02:18.000Z</time></trkpt><trkpt lat="14.708907" lon="101.193154"><ele>192.4</ele><time>1970-01-01T00:02:19.000Z</time></trkpt><trkpt lat="14.708908" lon="101.193206"><ele>192.9</ele><time>1970-01-01T00:02:20.000Z</time></trkpt><trkpt lat="14.708908" lon="101.193266"><ele>193.5</ele><time>1970-01-01T00:02:21.000Z</time></trkpt><trkpt lat="14.708923" lon="101.193305"><ele>194</ele><time>1970-01-01T00:02:22.000Z</time></trkpt><trkpt lat="14.70894" lon="101.193342"><ele>194.5</ele><time>1970-01-01T00:02:23.000Z</time></trkpt><trkpt lat="14.708953" lon="101.193377"><ele>195</ele><time>1970-01-01T00:02:24.000Z</time></trkpt><trkpt lat="14.708968" lon="101.193406"><ele>195.3</ele><time>1970-01-01T00:02:25.000Z</time></trkpt><trkpt lat="14.708989" lon="101.19347"><ele>195.7</ele><time>1970-01-01T00:02:27.000Z</time></trkpt><trkpt lat="14.708991" lon="101.193505"><ele>195.8</ele><time>1970-01-01T00:02:28.000Z</time></trkpt><trkpt lat="14.708993" lon="101.193545"><ele>196</ele><time>1970-01-01T00:02:29.000Z</time></trkpt><trkpt lat="14.708997" lon="101.193577"><ele>196.2</ele><time>1970-01-01T00:02:30.000Z</time></trkpt><trkpt lat="14.709004" lon="101.19361"><ele>196.4</ele><time>1970-01-01T00:02:31.000Z</time></trkpt><trkpt lat="14.709013" lon="101.193648"><ele>196.6</ele><time>1970-01-01T00:02:32.000Z</time></trkpt><trkpt lat="14.709022" lon="101.193686"><ele>196.8</ele><time>1970-01-01T00:02:33.000Z</time></trkpt><trkpt lat="14.709029" lon="101.193727"><ele>197.1</ele><time>1970-01-01T00:02:34.000Z</time></trkpt><trkpt lat="14.709036" lon="101.193772"><ele>197.2</ele><time>1970-01-01T00:02:35.000Z</time></trkpt><trkpt lat="14.709041" lon="101.193819"><ele>197.2</ele><time>1970-01-01T00:02:36.000Z</time></trkpt><trkpt lat="14.709059" lon="101.193888"><ele>197.1</ele><time>1970-01-01T00:02:37.000Z</time></trkpt><trkpt lat="14.709054" lon="101.193948"><ele>196.9</ele><time>1970-01-01T00:02:38.000Z</time></trkpt><trkpt lat="14.709078" lon="101.194003"><ele>196.6</ele><time>1970-01-01T00:02:39.000Z</time></trkpt><trkpt lat="14.709095" lon="101.194059"><ele>196.2</ele><time>1970-01-01T00:02:40.000Z</time></trkpt><trkpt lat="14.709106" lon="101.19412"><ele>195.8</ele><time>1970-01-01T00:02:41.000Z</time></trkpt><trkpt lat="14.709127" lon="101.194175"><ele>195.4</ele><time>1970-01-01T00:02:42.000Z</time></trkpt><trkpt lat="14.709148" lon="101.194228"><ele>195.1</ele><time>1970-01-01T00:02:43.000Z</time></trkpt><trkpt lat="14.70917" lon="101.19428"><ele>195.2</ele><time>1970-01-01T00:02:44.000Z</time></trkpt><trkpt lat="14.709184" lon="101.194334"><ele>195.5</ele><time>1970-01-01T00:02:45.000Z</time></trkpt><trkpt lat="14.709202" lon="101.194388"><ele>195.9</ele><time>1970-01-01T00:02:46.000Z</time></trkpt><trkpt lat="14.70922" lon="101.194441"><ele>196.3</ele><time>1970-01-01T00:02:47.000Z</time></trkpt><trkpt lat="14.709237" lon="101.19449"><ele>196.7</ele><time>1970-01-01T00:02:48.000Z</time></trkpt><trkpt lat="14.709253" lon="101.194542"><ele>197</ele><time>1970-01-01T00:02:49.000Z</time></trkpt><trkpt lat="14.709272" lon="101.194591"><ele>197.3</ele><time>1970-01-01T00:02:50.000Z</time></trkpt><trkpt lat="14.709288" lon="101.194639"><ele>197.6</ele><time>1970-01-01T00:02:51.000Z</time></trkpt><trkpt lat="14.709303" lon="101.194687"><ele>197.8</ele><time>1970-01-01T00:02:52.000Z</time></trkpt><trkpt lat="14.709323" lon="101.19473"><ele>197.9</ele><time>1970-01-01T00:02:53.000Z</time></trkpt><trkpt lat="14.709342" lon="101.194778"><ele>198</ele><time>1970-01-01T00:02:54.000Z</time></trkpt><trkpt lat="14.709365" lon="101.194824"><ele>198.1</ele><time>1970-01-01T00:02:55.000Z</time></trkpt><trkpt lat="14.709388" lon="101.194869"><ele>198.1</ele><time>1970-01-01T00:02:56.000Z</time></trkpt><trkpt lat="14.709408" lon="101.194912"><ele>198.1</ele><time>1970-01-01T00:02:57.000Z</time></trkpt><trkpt lat="14.709429" lon="101.19496"><ele>197.9</ele><time>1970-01-01T00:02:58.000Z</time></trkpt><trkpt lat="14.709449" lon="101.195004"><ele>197.7</ele><time>1970-01-01T00:02:59.000Z</time></trkpt><trkpt lat="14.709467" lon="101.195043"><ele>197.3</ele><time>1970-01-01T00:03:00.000Z</time></trkpt><trkpt lat="14.709489" lon="101.195087"><ele>196.8</ele><time>1970-01-01T00:03:01.000Z</time></trkpt><trkpt lat="14.709527" lon="101.195128"><ele>196.5</ele><time>1970-01-01T00:03:02.000Z</time></trkpt><trkpt lat="14.709544" lon="101.195189"><ele>196.3</ele><time>1970-01-01T00:03:03.000Z</time></trkpt><trkpt lat="14.70957" lon="101.195237"><ele>196.3</ele><time>1970-01-01T00:03:04.000Z</time></trkpt><trkpt lat="14.709598" lon="101.19528"><ele>196.3</ele><time>1970-01-01T00:03:05.000Z</time></trkpt><trkpt lat="14.709626" lon="101.195325"><ele>196.4</ele><time>1970-01-01T00:03:06.000Z</time></trkpt><trkpt lat="14.709643" lon="101.195366"><ele>196.5</ele><time>1970-01-01T00:03:07.000Z</time></trkpt><trkpt lat="14.709665" lon="101.195408"><ele>196.6</ele><time>1970-01-01T00:03:08.000Z</time></trkpt><trkpt lat="14.709688" lon="101.195452"><ele>196.7</ele><time>1970-01-01T00:03:09.000Z</time></trkpt><trkpt lat="14.709709" lon="101.195499"><ele>196.7</ele><time>1970-01-01T00:03:10.000Z</time></trkpt><trkpt lat="14.709734" lon="101.195545"><ele>197.1</ele><time>1970-01-01T00:03:11.000Z</time></trkpt><trkpt lat="14.709756" lon="101.19559"><ele>197.6</ele><time>1970-01-01T00:03:12.000Z</time></trkpt><trkpt lat="14.709775" lon="101.195636"><ele>198</ele><time>1970-01-01T00:03:13.000Z</time></trkpt><trkpt lat="14.709797" lon="101.195682"><ele>198.3</ele><time>1970-01-01T00:03:14.000Z</time></trkpt><trkpt lat="14.709817" lon="101.195728"><ele>198.3</ele><time>1970-01-01T00:03:15.000Z</time></trkpt><trkpt lat="14.709837" lon="101.195775"><ele>198.3</ele><time>1970-01-01T00:03:16.000Z</time></trkpt><trkpt lat="14.709853" lon="101.19582"><ele>198.1</ele><time>1970-01-01T00:03:17.000Z</time></trkpt><trkpt lat="14.709872" lon="101.195872"><ele>198</ele><time>1970-01-01T00:03:18.000Z</time></trkpt><trkpt lat="14.709889" lon="101.195919"><ele>197.9</ele><time>1970-01-01T00:03:19.000Z</time></trkpt><trkpt lat="14.709902" lon="101.195955"><ele>197.9</ele><time>1970-01-01T00:03:20.000Z</time></trkpt><trkpt lat="14.709895" lon="101.195997"><ele>198.1</ele><time>1970-01-01T00:03:21.000Z</time></trkpt><trkpt lat="14.709869" lon="101.196023"><ele>198.2</ele><time>1970-01-01T00:03:22.000Z</time></trkpt><trkpt lat="14.709833" lon="101.196027"><ele>197.7</ele><time>1970-01-01T00:03:23.000Z</time></trkpt><trkpt lat="14.709794" lon="101.196005"><ele>197.3</ele><time>1970-01-01T00:03:24.000Z</time></trkpt><trkpt lat="14.709739" lon="101.195982"><ele>196.8</ele><time>1970-01-01T00:03:25.000Z</time></trkpt><trkpt lat="14.709703" lon="101.195973"><ele>196.4</ele><time>1970-01-01T00:03:26.000Z</time></trkpt><trkpt lat="14.709652" lon="101.195959"><ele>196.3</ele><time>1970-01-01T00:03:27.000Z</time></trkpt><trkpt lat="14.709621" lon="101.195947"><ele>196.2</ele><time>1970-01-01T00:03:28.000Z</time></trkpt><trkpt lat="14.709575" lon="101.195937"><ele>196</ele><time>1970-01-01T00:03:29.000Z</time></trkpt><trkpt lat="14.709534" lon="101.195918"><ele>196.1</ele><time>1970-01-01T00:03:30.000Z</time></trkpt><trkpt lat="14.709474" lon="101.195904"><ele>195.6</ele><time>1970-01-01T00:03:31.000Z</time></trkpt><trkpt lat="14.709421" lon="101.195892"><ele>195.3</ele><time>1970-01-01T00:03:32.000Z</time></trkpt><trkpt lat="14.709366" lon="101.195872"><ele>195.3</ele><time>1970-01-01T00:03:33.000Z</time></trkpt><trkpt lat="14.709314" lon="101.195865"><ele>195</ele><time>1970-01-01T00:03:34.000Z</time></trkpt><trkpt lat="14.709268" lon="101.195866"><ele>194.7</ele><time>1970-01-01T00:03:35.000Z</time></trkpt><trkpt lat="14.709207" lon="101.195848"><ele>194.5</ele><time>1970-01-01T00:03:36.000Z</time></trkpt><trkpt lat="14.709155" lon="101.195838"><ele>194.4</ele><time>1970-01-01T00:03:37.000Z</time></trkpt><trkpt lat="14.709095" lon="101.195828"><ele>194.4</ele><time>1970-01-01T00:03:38.000Z</time></trkpt><trkpt lat="14.709039" lon="101.195818"><ele>194.4</ele><time>1970-01-01T00:03:39.000Z</time></trkpt><trkpt lat="14.708986" lon="101.195804"><ele>194.4</ele><time>1970-01-01T00:03:40.000Z</time></trkpt><trkpt lat="14.708933" lon="101.195791"><ele>194.1</ele><time>1970-01-01T00:03:41.000Z</time></trkpt><trkpt lat="14.708883" lon="101.195784"><ele>194.1</ele><time>1970-01-01T00:03:42.000Z</time></trkpt><trkpt lat="14.708827" lon="101.195766"><ele>194</ele><time>1970-01-01T00:03:43.000Z</time></trkpt><trkpt lat="14.708777" lon="101.19575"><ele>193.6</ele><time>1970-01-01T00:03:44.000Z</time></trkpt><trkpt lat="14.708728" lon="101.195739"><ele>193.3</ele><time>1970-01-01T00:03:45.000Z</time></trkpt><trkpt lat="14.708677" lon="101.19573"><ele>192.7</ele><time>1970-01-01T00:03:46.000Z</time></trkpt><trkpt lat="14.708631" lon="101.195722"><ele>192.4</ele><time>1970-01-01T00:03:47.000Z</time></trkpt><trkpt lat="14.708584" lon="101.195711"><ele>191.7</ele><time>1970-01-01T00:03:48.000Z</time></trkpt><trkpt lat="14.708537" lon="101.195698"><ele>191.7</ele><time>1970-01-01T00:03:49.000Z</time></trkpt><trkpt lat="14.708494" lon="101.19569"><ele>191.9</ele><time>1970-01-01T00:03:50.000Z</time></trkpt><trkpt lat="14.708447" lon="101.195676"><ele>192.2</ele><time>1970-01-01T00:03:51.000Z</time></trkpt><trkpt lat="14.708404" lon="101.195668"><ele>192.2</ele><time>1970-01-01T00:03:52.000Z</time></trkpt><trkpt lat="14.70836" lon="101.195657"><ele>192.4</ele><time>1970-01-01T00:03:53.000Z</time></trkpt><trkpt lat="14.708314" lon="101.19564"><ele>192.4</ele><time>1970-01-01T00:03:54.000Z</time></trkpt><trkpt lat="14.708264" lon="101.19563"><ele>192.3</ele><time>1970-01-01T00:03:55.000Z</time></trkpt><trkpt lat="14.708215" lon="101.195619"><ele>192.2</ele><time>1970-01-01T00:03:56.000Z</time></trkpt><trkpt lat="14.708167" lon="101.195607"><ele>192.3</ele><time>1970-01-01T00:03:57.000Z</time></trkpt><trkpt lat="14.708119" lon="101.195591"><ele>192.5</ele><time>1970-01-01T00:03:58.000Z</time></trkpt><trkpt lat="14.708076" lon="101.195581"><ele>192.5</ele><time>1970-01-01T00:03:59.000Z</time></trkpt><trkpt lat="14.708024" lon="101.195566"><ele>192.5</ele><time>1970-01-01T00:04:00.000Z</time></trkpt><trkpt lat="14.707972" lon="101.195553"><ele>192.4</ele><time>1970-01-01T00:04:01.000Z</time></trkpt><trkpt lat="14.707923" lon="101.195533"><ele>191.7</ele><time>1970-01-01T00:04:02.000Z</time></trkpt><trkpt lat="14.707872" lon="101.195512"><ele>191.7</ele><time>1970-01-01T00:04:03.000Z</time></trkpt><trkpt lat="14.707823" lon="101.195498"><ele>191.8</ele><time>1970-01-01T00:04:04.000Z</time></trkpt><trkpt lat="14.707773" lon="101.195494"><ele>191.7</ele><time>1970-01-01T00:04:05.000Z</time></trkpt><trkpt lat="14.707718" lon="101.195482"><ele>192.3</ele><time>1970-01-01T00:04:06.000Z</time></trkpt><trkpt lat="14.707665" lon="101.195464"><ele>192.5</ele><time>1970-01-01T00:04:07.000Z</time></trkpt><trkpt lat="14.707619" lon="101.195451"><ele>192.6</ele><time>1970-01-01T00:04:08.000Z</time></trkpt><trkpt lat="14.707568" lon="101.195436"><ele>192.9</ele><time>1970-01-01T00:04:09.000Z</time></trkpt><trkpt lat="14.707508" lon="101.195415"><ele>193.7</ele><time>1970-01-01T00:04:10.000Z</time></trkpt><trkpt lat="14.70746" lon="101.195401"><ele>194.4</ele><time>1970-01-01T00:04:11.000Z</time></trkpt><trkpt lat="14.707402" lon="101.195379"><ele>194.9</ele><time>1970-01-01T00:04:12.000Z</time></trkpt><trkpt lat="14.707351" lon="101.195361"><ele>195.5</ele><time>1970-01-01T00:04:13.000Z</time></trkpt><trkpt lat="14.707302" lon="101.195344"><ele>195.5</ele><time>1970-01-01T00:04:14.000Z</time></trkpt><trkpt lat="14.707252" lon="101.195334"><ele>195.4</ele><time>1970-01-01T00:04:15.000Z</time></trkpt><trkpt lat="14.707201" lon="101.195312"><ele>195</ele><time>1970-01-01T00:04:16.000Z</time></trkpt><trkpt lat="14.707149" lon="101.195292"><ele>195</ele><time>1970-01-01T00:04:17.000Z</time></trkpt><trkpt lat="14.707096" lon="101.195273"><ele>194.7</ele><time>1970-01-01T00:04:18.000Z</time></trkpt><trkpt lat="14.707044" lon="101.195252"><ele>194.6</ele><time>1970-01-01T00:04:19.000Z</time></trkpt><trkpt lat="14.706981" lon="101.195231"><ele>193.9</ele><time>1970-01-01T00:04:20.000Z</time></trkpt><trkpt lat="14.706917" lon="101.19521"><ele>193.5</ele><time>1970-01-01T00:04:21.000Z</time></trkpt><trkpt lat="14.706861" lon="101.195197"><ele>192.9</ele><time>1970-01-01T00:04:22.000Z</time></trkpt><trkpt lat="14.706819" lon="101.195191"><ele>192.5</ele><time>1970-01-01T00:04:23.000Z</time></trkpt><trkpt lat="14.706798" lon="101.195161"><ele>192.1</ele><time>1970-01-01T00:04:25.000Z</time></trkpt><trkpt lat="14.706766" lon="101.195142"><ele>192</ele><time>1970-01-01T00:04:26.000Z</time></trkpt><trkpt lat="14.706661" lon="101.195118"><ele>192.3</ele><time>1970-01-01T00:04:27.000Z</time></trkpt><trkpt lat="14.70659" lon="101.195087"><ele>193</ele><time>1970-01-01T00:04:28.000Z</time></trkpt><trkpt lat="14.70653" lon="101.195076"><ele>193.2</ele><time>1970-01-01T00:04:29.000Z</time></trkpt><trkpt lat="14.706458" lon="101.19505"><ele>193.5</ele><time>1970-01-01T00:04:30.000Z</time></trkpt><trkpt lat="14.706388" lon="101.195024"><ele>194.1</ele><time>1970-01-01T00:04:31.000Z</time></trkpt><trkpt lat="14.706313" lon="101.194996"><ele>194.7</ele><time>1970-01-01T00:04:32.000Z</time></trkpt><trkpt lat="14.706255" lon="101.194982"><ele>194.6</ele><time>1970-01-01T00:04:33.000Z</time></trkpt><trkpt lat="14.706183" lon="101.194957"><ele>194.7</ele><time>1970-01-01T00:04:34.000Z</time></trkpt><trkpt lat="14.70612" lon="101.194941"><ele>194.7</ele><time>1970-01-01T00:04:35.000Z</time></trkpt><trkpt lat="14.706072" lon="101.194953"><ele>194.7</ele><time>1970-01-01T00:04:36.000Z</time></trkpt><trkpt lat="14.706016" lon="101.194978"><ele>194.2</ele><time>1970-01-01T00:04:37.000Z</time></trkpt><trkpt lat="14.705946" lon="101.195016"><ele>194.1</ele><time>1970-01-01T00:04:38.000Z</time></trkpt><trkpt lat="14.705913" lon="101.195066"><ele>194.4</ele><time>1970-01-01T00:04:39.000Z</time></trkpt><trkpt lat="14.705867" lon="101.195105"><ele>194.7</ele><time>1970-01-01T00:04:40.000Z</time></trkpt><trkpt lat="14.705827" lon="101.195145"><ele>194.6</ele><time>1970-01-01T00:04:42.000Z</time></trkpt><trkpt lat="14.705808" lon="101.195174"><ele>194.4</ele><time>1970-01-01T00:04:43.000Z</time></trkpt><trkpt lat="14.705779" lon="101.195183"><ele>194.1</ele><time>1970-01-01T00:04:44.000Z</time></trkpt><trkpt lat="14.705753" lon="101.195192"><ele>194.1</ele><time>1970-01-01T00:04:45.000Z</time></trkpt><trkpt lat="14.705717" lon="101.195187"><ele>193.6</ele><time>1970-01-01T00:04:50.000Z</time></trkpt><trkpt lat="14.705702" lon="101.195161"><ele>193.6</ele><time>1970-01-01T00:04:57.000Z</time></trkpt><trkpt lat="14.705687" lon="101.195135"><ele>193</ele><time>1970-01-01T00:05:04.000Z</time></trkpt><trkpt lat="14.705638" lon="101.195121"><ele>192.5</ele><time>1970-01-01T00:05:50.000Z</time></trkpt><trkpt lat="14.705613" lon="101.195109"><ele>191.8</ele><time>1970-01-01T00:05:56.000Z</time></trkpt><trkpt lat="14.705585" lon="101.195029"><ele>191.4</ele><time>1970-01-01T00:07:16.000Z</time></trkpt><trkpt lat="14.705579" lon="101.195001"><ele>191.1</ele><time>1970-01-01T00:07:57.000Z</time></trkpt><trkpt lat="14.705563" lon="101.194978"><ele>190.1</ele><time>1970-01-01T00:08:02.000Z</time></trkpt><trkpt lat="14.705538" lon="101.194958"><ele>190.1</ele><time>1970-01-01T00:08:07.000Z</time></trkpt><trkpt lat="14.705506" lon="101.194947"><ele>189.5</ele><time>1970-01-01T00:08:13.000Z</time></trkpt><trkpt lat="14.70548" lon="101.194959"><ele>189</ele><time>1970-01-01T00:08:16.000Z</time></trkpt><trkpt lat="14.70545" lon="101.194969"><ele>189</ele><time>1970-01-01T00:08:25.000Z</time></trkpt><trkpt lat="14.705422" lon="101.194971"><ele>188.6</ele><time>1970-01-01T00:08:30.000Z</time></trkpt><trkpt lat="14.705392" lon="101.194975"><ele>188.3</ele><time>1970-01-01T00:08:36.000Z</time></trkpt><trkpt lat="14.705358" lon="101.19497"><ele>188.2</ele><time>1970-01-01T00:08:40.000Z</time></trkpt><trkpt lat="14.705325" lon="101.194974"><ele>188.2</ele><time>1970-01-01T00:08:43.000Z</time></trkpt><trkpt lat="14.705299" lon="101.194956"><ele>188.1</ele><time>1970-01-01T00:08:48.000Z</time></trkpt><trkpt lat="14.705264" lon="101.194937"><ele>187.6</ele><time>1970-01-01T00:08:51.000Z</time></trkpt><trkpt lat="14.705227" lon="101.194921"><ele>187.5</ele><time>1970-01-01T00:08:53.000Z</time></trkpt><trkpt lat="14.70518" lon="101.19488"><ele>187.2</ele><time>1970-01-01T00:08:55.000Z</time></trkpt><trkpt lat="14.705157" lon="101.19485"><ele>187.1</ele><time>1970-01-01T00:08:56.000Z</time></trkpt><trkpt lat="14.705135" lon="101.194821"><ele>187.1</ele><time>1970-01-01T00:08:57.000Z</time></trkpt><trkpt lat="14.705115" lon="101.194795"><ele>187.2</ele><time>1970-01-01T00:08:58.000Z</time></trkpt><trkpt lat="14.70508" lon="101.194768"><ele>187.2</ele><time>1970-01-01T00:09:00.000Z</time></trkpt><trkpt lat="14.705052" lon="101.194758"><ele>187.2</ele><time>1970-01-01T00:09:01.000Z</time></trkpt><trkpt lat="14.705024" lon="101.194742"><ele>187.5</ele><time>1970-01-01T00:09:02.000Z</time></trkpt><trkpt lat="14.704995" lon="101.194719"><ele>187.3</ele><time>1970-01-01T00:09:03.000Z</time></trkpt><trkpt lat="14.704969" lon="101.194697"><ele>187.7</ele><time>1970-01-01T00:09:04.000Z</time></trkpt><trkpt lat="14.704947" lon="101.194676"><ele>188.2</ele><time>1970-01-01T00:09:05.000Z</time></trkpt><trkpt lat="14.704923" lon="101.194655"><ele>188.2</ele><time>1970-01-01T00:09:06.000Z</time></trkpt><trkpt lat="14.704891" lon="101.19463"><ele>188.6</ele><time>1970-01-01T00:09:07.000Z</time></trkpt><trkpt lat="14.704856" lon="101.194601"><ele>189.2</ele><time>1970-01-01T00:09:08.000Z</time></trkpt><trkpt lat="14.704824" lon="101.194567"><ele>189.5</ele><time>1970-01-01T00:09:09.000Z</time></trkpt><trkpt lat="14.704794" lon="101.194527"><ele>189.1</ele><time>1970-01-01T00:09:10.000Z</time></trkpt><trkpt lat="14.704769" lon="101.194486"><ele>189.3</ele><time>1970-01-01T00:09:11.000Z</time></trkpt><trkpt lat="14.704753" lon="101.194441"><ele>188.9</ele><time>1970-01-01T00:09:12.000Z</time></trkpt><trkpt lat="14.704746" lon="101.194398"><ele>188.6</ele><time>1970-01-01T00:09:13.000Z</time></trkpt><trkpt lat="14.704749" lon="101.194358"><ele>188.3</ele><time>1970-01-01T00:09:14.000Z</time></trkpt><trkpt lat="14.704756" lon="101.194316"><ele>188.1</ele><time>1970-01-01T00:09:15.000Z</time></trkpt><trkpt lat="14.704764" lon="101.19427"><ele>188</ele><time>1970-01-01T00:09:16.000Z</time></trkpt><trkpt lat="14.704767" lon="101.194225"><ele>187.9</ele><time>1970-01-01T00:09:17.000Z</time></trkpt><trkpt lat="14.704767" lon="101.194176"><ele>188</ele><time>1970-01-01T00:09:18.000Z</time></trkpt><trkpt lat="14.704766" lon="101.194127"><ele>188</ele><time>1970-01-01T00:09:19.000Z</time></trkpt><trkpt lat="14.704764" lon="101.194077"><ele>188</ele><time>1970-01-01T00:09:20.000Z</time></trkpt><trkpt lat="14.704757" lon="101.193972"><ele>188</ele><time>1970-01-01T00:09:21.000Z</time></trkpt><trkpt lat="14.704753" lon="101.193901"><ele>188.3</ele><time>1970-01-01T00:09:22.000Z</time></trkpt><trkpt lat="14.704748" lon="101.193837"><ele>188.5</ele><time>1970-01-01T00:09:23.000Z</time></trkpt><trkpt lat="14.704746" lon="101.193764"><ele>189.2</ele><time>1970-01-01T00:09:24.000Z</time></trkpt><trkpt lat="14.704737" lon="101.193691"><ele>190.4</ele><time>1970-01-01T00:09:25.000Z</time></trkpt><trkpt lat="14.704729" lon="101.19362"><ele>190.5</ele><time>1970-01-01T00:09:26.000Z</time></trkpt><trkpt lat="14.704722" lon="101.193552"><ele>190.2</ele><time>1970-01-01T00:09:27.000Z</time></trkpt><trkpt lat="14.704721" lon="101.193486"><ele>189.9</ele><time>1970-01-01T00:09:28.000Z</time></trkpt><trkpt lat="14.704719" lon="101.193418"><ele>189.1</ele><time>1970-01-01T00:09:29.000Z</time></trkpt><trkpt lat="14.704737" lon="101.193354"><ele>188.7</ele><time>1970-01-01T00:09:30.000Z</time></trkpt><trkpt lat="14.704757" lon="101.19329"><ele>188.1</ele><time>1970-01-01T00:09:31.000Z</time></trkpt><trkpt lat="14.704771" lon="101.19323"><ele>188.2</ele><time>1970-01-01T00:09:32.000Z</time></trkpt><trkpt lat="14.70479" lon="101.19317"><ele>188.8</ele><time>1970-01-01T00:09:33.000Z</time></trkpt><trkpt lat="14.704803" lon="101.193101"><ele>189.1</ele><time>1970-01-01T00:09:34.000Z</time></trkpt><trkpt lat="14.704826" lon="101.193049"><ele>189.5</ele><time>1970-01-01T00:09:35.000Z</time></trkpt><trkpt lat="14.704839" lon="101.192991"><ele>189.5</ele><time>1970-01-01T00:09:36.000Z</time></trkpt><trkpt lat="14.704857" lon="101.192941"><ele>189.5</ele><time>1970-01-01T00:09:37.000Z</time></trkpt><trkpt lat="14.704877" lon="101.192888"><ele>189.2</ele><time>1970-01-01T00:09:38.000Z</time></trkpt><trkpt lat="14.7049" lon="101.192829"><ele>189.1</ele><time>1970-01-01T00:09:39.000Z</time></trkpt><trkpt lat="14.704903" lon="101.192778"><ele>189.1</ele><time>1970-01-01T00:09:40.000Z</time></trkpt><trkpt lat="14.704904" lon="101.192725"><ele>189.3</ele><time>1970-01-01T00:09:41.000Z</time></trkpt><trkpt lat="14.704907" lon="101.192678"><ele>189.6</ele><time>1970-01-01T00:09:42.000Z</time></trkpt><trkpt lat="14.704893" lon="101.192625"><ele>189.9</ele><time>1970-01-01T00:09:43.000Z</time></trkpt><trkpt lat="14.704861" lon="101.192574"><ele>190.1</ele><time>1970-01-01T00:09:44.000Z</time></trkpt><trkpt lat="14.70482" lon="101.192539"><ele>190.1</ele><time>1970-01-01T00:09:45.000Z</time></trkpt><trkpt lat="14.704772" lon="101.1925"><ele>190.1</ele><time>1970-01-01T00:09:46.000Z</time></trkpt><trkpt lat="14.704725" lon="101.192469"><ele>190.1</ele><time>1970-01-01T00:09:47.000Z</time></trkpt><trkpt lat="14.704675" lon="101.192436"><ele>190.1</ele><time>1970-01-01T00:09:48.000Z</time></trkpt><trkpt lat="14.704626" lon="101.192406"><ele>190.1</ele><time>1970-01-01T00:09:49.000Z</time></trkpt><trkpt lat="14.704576" lon="101.192375"><ele>190</ele><time>1970-01-01T00:09:50.000Z</time></trkpt><trkpt lat="14.704539" lon="101.19233"><ele>190.1</ele><time>1970-01-01T00:09:51.000Z</time></trkpt><trkpt lat="14.704502" lon="101.192289"><ele>190.1</ele><time>1970-01-01T00:09:52.000Z</time></trkpt><trkpt lat="14.704471" lon="101.192302"><ele>190</ele><time>1970-01-01T00:09:56.000Z</time></trkpt><trkpt lat="14.704438" lon="101.192348"><ele>190</ele><time>1970-01-01T00:09:58.000Z</time></trkpt><trkpt lat="14.704408" lon="101.192389"><ele>190</ele><time>1970-01-01T00:09:59.000Z</time></trkpt><trkpt lat="14.704385" lon="101.192433"><ele>189.9</ele><time>1970-01-01T00:10:00.000Z</time></trkpt><trkpt lat="14.704354" lon="101.192473"><ele>189.9</ele><time>1970-01-01T00:10:01.000Z</time></trkpt><trkpt lat="14.704318" lon="101.192514"><ele>189.9</ele><time>1970-01-01T00:10:02.000Z</time></trkpt><trkpt lat="14.704288" lon="101.192554"><ele>189.8</ele><time>1970-01-01T00:10:03.000Z</time></trkpt><trkpt lat="14.704271" lon="101.192578"><ele>189.8</ele><time>1970-01-01T00:10:04.000Z</time></trkpt><trkpt lat="14.704233" lon="101.192621"><ele>189.8</ele><time>1970-01-01T00:10:05.000Z</time></trkpt><trkpt lat="14.704193" lon="101.192677"><ele>189.7</ele><time>1970-01-01T00:10:06.000Z</time></trkpt><trkpt lat="14.704152" lon="101.192724"><ele>189.7</ele><time>1970-01-01T00:10:07.000Z</time></trkpt><trkpt lat="14.704111" lon="101.192777"><ele>189.6</ele><time>1970-01-01T00:10:08.000Z</time></trkpt><trkpt lat="14.70407" lon="101.192829"><ele>189.6</ele><time>1970-01-01T00:10:09.000Z</time></trkpt><trkpt lat="14.704035" lon="101.192877"><ele>189.7</ele><time>1970-01-01T00:10:10.000Z</time></trkpt><trkpt lat="14.704003" lon="101.192921"><ele>189.7</ele><time>1970-01-01T00:10:11.000Z</time></trkpt><trkpt lat="14.703958" lon="101.192963"><ele>189.8</ele><time>1970-01-01T00:10:12.000Z</time></trkpt><trkpt lat="14.703917" lon="101.193009"><ele>189.8</ele><time>1970-01-01T00:10:13.000Z</time></trkpt><trkpt lat="14.703877" lon="101.193064"><ele>189.9</ele><time>1970-01-01T00:10:14.000Z</time></trkpt><trkpt lat="14.70384" lon="101.193111"><ele>190</ele><time>1970-01-01T00:10:15.000Z</time></trkpt><trkpt lat="14.703804" lon="101.193171"><ele>190.1</ele><time>1970-01-01T00:10:16.000Z</time></trkpt><trkpt lat="14.703766" lon="101.193215"><ele>190.2</ele><time>1970-01-01T00:10:17.000Z</time></trkpt><trkpt lat="14.703729" lon="101.19326"><ele>190.3</ele><time>1970-01-01T00:10:18.000Z</time></trkpt><trkpt lat="14.703701" lon="101.193303"><ele>190.4</ele><time>1970-01-01T00:10:19.000Z</time></trkpt><trkpt lat="14.703662" lon="101.19335"><ele>190.4</ele><time>1970-01-01T00:10:20.000Z</time></trkpt><trkpt lat="14.703623" lon="101.193394"><ele>190.5</ele><time>1970-01-01T00:10:21.000Z</time></trkpt><trkpt lat="14.70359" lon="101.193437"><ele>190.6</ele><time>1970-01-01T00:10:22.000Z</time></trkpt><trkpt lat="14.703544" lon="101.19349"><ele>190.7</ele><time>1970-01-01T00:10:23.000Z</time></trkpt><trkpt lat="14.703507" lon="101.193534"><ele>190.8</ele><time>1970-01-01T00:10:24.000Z</time></trkpt><trkpt lat="14.703453" lon="101.193591"><ele>191</ele><time>1970-01-01T00:10:25.000Z</time></trkpt><trkpt lat="14.703432" lon="101.193645"><ele>191.1</ele><time>1970-01-01T00:10:26.000Z</time></trkpt><trkpt lat="14.703404" lon="101.193685"><ele>191.2</ele><time>1970-01-01T00:10:27.000Z</time></trkpt><trkpt lat="14.703376" lon="101.193734"><ele>191.3</ele><time>1970-01-01T00:10:28.000Z</time></trkpt><trkpt lat="14.703331" lon="101.19379"><ele>191.5</ele><time>1970-01-01T00:10:29.000Z</time></trkpt><trkpt lat="14.703304" lon="101.193846"><ele>191.6</ele><time>1970-01-01T00:10:30.000Z</time></trkpt><trkpt lat="14.703279" lon="101.193898"><ele>191.7</ele><time>1970-01-01T00:10:31.000Z</time></trkpt><trkpt lat="14.703249" lon="101.193955"><ele>191.8</ele><time>1970-01-01T00:10:32.000Z</time></trkpt><trkpt lat="14.703218" lon="101.194014"><ele>191.8</ele><time>1970-01-01T00:10:33.000Z</time></trkpt><trkpt lat="14.703189" lon="101.194067"><ele>191.8</ele><time>1970-01-01T00:10:34.000Z</time></trkpt><trkpt lat="14.703164" lon="101.194126"><ele>191.9</ele><time>1970-01-01T00:10:35.000Z</time></trkpt><trkpt lat="14.703133" lon="101.194177"><ele>191.9</ele><time>1970-01-01T00:10:36.000Z</time></trkpt><trkpt lat="14.703098" lon="101.194229"><ele>191.8</ele><time>1970-01-01T00:10:37.000Z</time></trkpt><trkpt lat="14.703064" lon="101.194278"><ele>191.8</ele><time>1970-01-01T00:10:38.000Z</time></trkpt><trkpt lat="14.70303" lon="101.194335"><ele>191.8</ele><time>1970-01-01T00:10:39.000Z</time></trkpt><trkpt lat="14.702992" lon="101.194383"><ele>191.8</ele><time>1970-01-01T00:10:40.000Z</time></trkpt><trkpt lat="14.702962" lon="101.19443"><ele>191.8</ele><time>1970-01-01T00:10:41.000Z</time></trkpt><trkpt lat="14.702918" lon="101.19448"><ele>191.8</ele><time>1970-01-01T00:10:42.000Z</time></trkpt><trkpt lat="14.702876" lon="101.194521"><ele>191.8</ele><time>1970-01-01T00:10:43.000Z</time></trkpt><trkpt lat="14.702828" lon="101.194553"><ele>191.8</ele><time>1970-01-01T00:10:44.000Z</time></trkpt><trkpt lat="14.702777" lon="101.194581"><ele>191.8</ele><time>1970-01-01T00:10:45.000Z</time></trkpt><trkpt lat="14.702728" lon="101.19461"><ele>191.8</ele><time>1970-01-01T00:10:46.000Z</time></trkpt><trkpt lat="14.702671" lon="101.194635"><ele>191.8</ele><time>1970-01-01T00:10:47.000Z</time></trkpt><trkpt lat="14.702614" lon="101.194657"><ele>191.8</ele><time>1970-01-01T00:10:48.000Z</time></trkpt><trkpt lat="14.702555" lon="101.194674"><ele>191.9</ele><time>1970-01-01T00:10:49.000Z</time></trkpt><trkpt lat="14.702496" lon="101.194692"><ele>191.9</ele><time>1970-01-01T00:10:50.000Z</time></trkpt><trkpt lat="14.702435" lon="101.194702"><ele>192</ele><time>1970-01-01T00:10:51.000Z</time></trkpt><trkpt lat="14.702372" lon="101.19471"><ele>192.1</ele><time>1970-01-01T00:10:52.000Z</time></trkpt><trkpt lat="14.702311" lon="101.194719"><ele>192.2</ele><time>1970-01-01T00:10:53.000Z</time></trkpt><trkpt lat="14.702248" lon="101.194729"><ele>192.4</ele><time>1970-01-01T00:10:54.000Z</time></trkpt><trkpt lat="14.702187" lon="101.194743"><ele>192.5</ele><time>1970-01-01T00:10:55.000Z</time></trkpt><trkpt lat="14.702125" lon="101.19474"><ele>192.6</ele><time>1970-01-01T00:10:56.000Z</time></trkpt><trkpt lat="14.702066" lon="101.194747"><ele>192.7</ele><time>1970-01-01T00:10:57.000Z</time></trkpt><trkpt lat="14.702004" lon="101.194772"><ele>192.8</ele><time>1970-01-01T00:10:58.000Z</time></trkpt><trkpt lat="14.701942" lon="101.194768"><ele>192.9</ele><time>1970-01-01T00:10:59.000Z</time></trkpt><trkpt lat="14.701882" lon="101.194765"><ele>193</ele><time>1970-01-01T00:11:00.000Z</time></trkpt><trkpt lat="14.701823" lon="101.194753"><ele>193.1</ele><time>1970-01-01T00:11:01.000Z</time></trkpt><trkpt lat="14.701765" lon="101.194752"><ele>193.1</ele><time>1970-01-01T00:11:02.000Z</time></trkpt><trkpt lat="14.701706" lon="101.194751"><ele>193.2</ele><time>1970-01-01T00:11:03.000Z</time></trkpt><trkpt lat="14.701648" lon="101.194752"><ele>193.3</ele><time>1970-01-01T00:11:04.000Z</time></trkpt><trkpt lat="14.701589" lon="101.194755"><ele>193.4</ele><time>1970-01-01T00:11:05.000Z</time></trkpt><trkpt lat="14.701536" lon="101.194755"><ele>193.4</ele><time>1970-01-01T00:11:06.000Z</time></trkpt><trkpt lat="14.701475" lon="101.194759"><ele>193.5</ele><time>1970-01-01T00:11:07.000Z</time></trkpt><trkpt lat="14.701419" lon="101.19476"><ele>193.5</ele><time>1970-01-01T00:11:08.000Z</time></trkpt><trkpt lat="14.701353" lon="101.194759"><ele>193.6</ele><time>1970-01-01T00:11:09.000Z</time></trkpt><trkpt lat="14.701293" lon="101.194762"><ele>193.6</ele><time>1970-01-01T00:11:10.000Z</time></trkpt><trkpt lat="14.701234" lon="101.194763"><ele>193.7</ele><time>1970-01-01T00:11:11.000Z</time></trkpt><trkpt lat="14.701173" lon="101.194768"><ele>193.8</ele><time>1970-01-01T00:11:12.000Z</time></trkpt><trkpt lat="14.701113" lon="101.194772"><ele>193.8</ele><time>1970-01-01T00:11:13.000Z</time></trkpt><trkpt lat="14.701053" lon="101.194776"><ele>193.9</ele><time>1970-01-01T00:11:14.000Z</time></trkpt><trkpt lat="14.700995" lon="101.194789"><ele>194</ele><time>1970-01-01T00:11:15.000Z</time></trkpt><trkpt lat="14.700934" lon="101.194807"><ele>194.1</ele><time>1970-01-01T00:11:16.000Z</time></trkpt><trkpt lat="14.700878" lon="101.194831"><ele>194.2</ele><time>1970-01-01T00:11:17.000Z</time></trkpt><trkpt lat="14.700824" lon="101.194858"><ele>194.2</ele><time>1970-01-01T00:11:18.000Z</time></trkpt><trkpt lat="14.700768" lon="101.194882"><ele>194.3</ele><time>1970-01-01T00:11:19.000Z</time></trkpt><trkpt lat="14.700721" lon="101.194905"><ele>194.3</ele><time>1970-01-01T00:11:20.000Z</time></trkpt><trkpt lat="14.700679" lon="101.194911"><ele>194.3</ele><time>1970-01-01T00:11:21.000Z</time></trkpt><trkpt lat="14.700647" lon="101.194923"><ele>194.4</ele><time>1970-01-01T00:11:22.000Z</time></trkpt><trkpt lat="14.700612" lon="101.19493"><ele>194.4</ele><time>1970-01-01T00:11:23.000Z</time></trkpt><trkpt lat="14.700586" lon="101.19491"><ele>195</ele><time>1970-01-01T00:11:25.000Z</time></trkpt><trkpt lat="14.700594" lon="101.194862"><ele>195.4</ele><time>1970-01-01T00:11:26.000Z</time></trkpt><trkpt lat="14.70059" lon="101.194825"><ele>195.6</ele><time>1970-01-01T00:11:27.000Z</time></trkpt><trkpt lat="14.700563" lon="101.194769"><ele>195.9</ele><time>1970-01-01T00:11:28.000Z</time></trkpt><trkpt lat="14.700542" lon="101.194726"><ele>196</ele><time>1970-01-01T00:11:29.000Z</time></trkpt><trkpt lat="14.700519" lon="101.194677"><ele>196.2</ele><time>1970-01-01T00:11:30.000Z</time></trkpt><trkpt lat="14.700489" lon="101.194623"><ele>196.6</ele><time>1970-01-01T00:11:31.000Z</time></trkpt><trkpt lat="14.700466" lon="101.19457"><ele>197.2</ele><time>1970-01-01T00:11:32.000Z</time></trkpt><trkpt lat="14.700443" lon="101.194511"><ele>198.6</ele><time>1970-01-01T00:11:33.000Z</time></trkpt><trkpt lat="14.700421" lon="101.194451"><ele>200.5</ele><time>1970-01-01T00:11:34.000Z</time></trkpt><trkpt lat="14.700404" lon="101.194397"><ele>202.4</ele><time>1970-01-01T00:11:35.000Z</time></trkpt><trkpt lat="14.700376" lon="101.19435"><ele>204.7</ele><time>1970-01-01T00:11:36.000Z</time></trkpt><trkpt lat="14.700358" lon="101.194314"><ele>206.4</ele><time>1970-01-01T00:11:37.000Z</time></trkpt><trkpt lat="14.700333" lon="101.194269"><ele>208.2</ele><time>1970-01-01T00:11:38.000Z</time></trkpt><trkpt lat="14.700318" lon="101.194237"><ele>209.4</ele><time>1970-01-01T00:11:39.000Z</time></trkpt><trkpt lat="14.700296" lon="101.194195"><ele>211</ele><time>1970-01-01T00:11:40.000Z</time></trkpt><trkpt lat="14.700279" lon="101.194161"><ele>212.3</ele><time>1970-01-01T00:11:41.000Z</time></trkpt><trkpt lat="14.700261" lon="101.194127"><ele>213.5</ele><time>1970-01-01T00:11:42.000Z</time></trkpt><trkpt lat="14.700244" lon="101.194093"><ele>214.6</ele><time>1970-01-01T00:11:43.000Z</time></trkpt><trkpt lat="14.700227" lon="101.194061"><ele>215.7</ele><time>1970-01-01T00:11:44.000Z</time></trkpt><trkpt lat="14.7002" lon="101.194028"><ele>216.9</ele><time>1970-01-01T00:11:45.000Z</time></trkpt><trkpt lat="14.700169" lon="101.194003"><ele>217.7</ele><time>1970-01-01T00:11:46.000Z</time></trkpt><trkpt lat="14.700149" lon="101.193966"><ele>218.3</ele><time>1970-01-01T00:11:47.000Z</time></trkpt><trkpt lat="14.700131" lon="101.19394"><ele>218.6</ele><time>1970-01-01T00:11:48.000Z</time></trkpt><trkpt lat="14.700114" lon="101.193915"><ele>218.6</ele><time>1970-01-01T00:11:49.000Z</time></trkpt><trkpt lat="14.700082" lon="101.193862"><ele>218.8</ele><time>1970-01-01T00:11:51.000Z</time></trkpt><trkpt lat="14.700064" lon="101.193826"><ele>218.7</ele><time>1970-01-01T00:11:52.000Z</time></trkpt><trkpt lat="14.700049" lon="101.193796"><ele>218.8</ele><time>1970-01-01T00:11:53.000Z</time></trkpt><trkpt lat="14.700036" lon="101.19377"><ele>219.2</ele><time>1970-01-01T00:11:54.000Z</time></trkpt><trkpt lat="14.700025" lon="101.193738"><ele>219.6</ele><time>1970-01-01T00:11:55.000Z</time></trkpt><trkpt lat="14.700016" lon="101.193707"><ele>220</ele><time>1970-01-01T00:11:56.000Z</time></trkpt><trkpt lat="14.700008" lon="101.193677"><ele>220.3</ele><time>1970-01-01T00:11:57.000Z</time></trkpt><trkpt lat="14.7" lon="101.193646"><ele>220.6</ele><time>1970-01-01T00:11:58.000Z</time></trkpt><trkpt lat="14.700007" lon="101.1936"><ele>220.9</ele><time>1970-01-01T00:12:00.000Z</time></trkpt><trkpt lat="14.700029" lon="101.193576"><ele>220.7</ele><time>1970-01-01T00:12:02.000Z</time></trkpt><trkpt lat="14.700043" lon="101.193524"><ele>220.7</ele><time>1970-01-01T00:12:04.000Z</time></trkpt><trkpt lat="14.700039" lon="101.19349"><ele>221</ele><time>1970-01-01T00:12:05.000Z</time></trkpt><trkpt lat="14.700033" lon="101.193457"><ele>221.2</ele><time>1970-01-01T00:12:06.000Z</time></trkpt><trkpt lat="14.700024" lon="101.193424"><ele>221.4</ele><time>1970-01-01T00:12:07.000Z</time></trkpt><trkpt lat="14.700016" lon="101.193392"><ele>221.3</ele><time>1970-01-01T00:12:08.000Z</time></trkpt><trkpt lat="14.700009" lon="101.193362"><ele>221.3</ele><time>1970-01-01T00:12:09.000Z</time></trkpt><trkpt lat="14.700003" lon="101.193333"><ele>221.5</ele><time>1970-01-01T00:12:10.000Z</time></trkpt><trkpt lat="14.7" lon="101.193304"><ele>221.8</ele><time>1970-01-01T00:12:11.000Z</time></trkpt><trkpt lat="14.699998" lon="101.193274"><ele>222.2</ele><time>1970-01-01T00:12:12.000Z</time></trkpt><trkpt lat="14.699999" lon="101.193241"><ele>222.3</ele><time>1970-01-01T00:12:13.000Z</time></trkpt><trkpt lat="14.699999" lon="101.193208"><ele>222.1</ele><time>1970-01-01T00:12:14.000Z</time></trkpt><trkpt lat="14.7" lon="101.193178"><ele>221.9</ele><time>1970-01-01T00:12:15.000Z</time></trkpt><trkpt lat="14.700002" lon="101.193145"><ele>221.9</ele><time>1970-01-01T00:12:16.000Z</time></trkpt><trkpt lat="14.700004" lon="101.193113"><ele>222.2</ele><time>1970-01-01T00:12:17.000Z</time></trkpt><trkpt lat="14.700002" lon="101.193081"><ele>222.5</ele><time>1970-01-01T00:12:18.000Z</time></trkpt><trkpt lat="14.699996" lon="101.193048"><ele>222.5</ele><time>1970-01-01T00:12:19.000Z</time></trkpt><trkpt lat="14.699989" lon="101.193014"><ele>222.1</ele><time>1970-01-01T00:12:20.000Z</time></trkpt><trkpt lat="14.699983" lon="101.192977"><ele>221.6</ele><time>1970-01-01T00:12:21.000Z</time></trkpt><trkpt lat="14.699979" lon="101.192936"><ele>221.6</ele><time>1970-01-01T00:12:22.000Z</time></trkpt><trkpt lat="14.699975" lon="101.192894"><ele>221.7</ele><time>1970-01-01T00:12:23.000Z</time></trkpt><trkpt lat="14.699969" lon="101.192852"><ele>221.1</ele><time>1970-01-01T00:12:24.000Z</time></trkpt><trkpt lat="14.699961" lon="101.192808"><ele>220.2</ele><time>1970-01-01T00:12:25.000Z</time></trkpt><trkpt lat="14.699954" lon="101.192746"><ele>219.9</ele><time>1970-01-01T00:12:26.000Z</time></trkpt><trkpt lat="14.699949" lon="101.192693"><ele>219.9</ele><time>1970-01-01T00:12:27.000Z</time></trkpt><trkpt lat="14.699942" lon="101.192641"><ele>218.9</ele><time>1970-01-01T00:12:28.000Z</time></trkpt><trkpt lat="14.699929" lon="101.19259"><ele>217.9</ele><time>1970-01-01T00:12:29.000Z</time></trkpt><trkpt lat="14.699916" lon="101.192546"><ele>217.2</ele><time>1970-01-01T00:12:30.000Z</time></trkpt><trkpt lat="14.699901" lon="101.19249"><ele>216.7</ele><time>1970-01-01T00:12:31.000Z</time></trkpt><trkpt lat="14.699884" lon="101.192438"><ele>216.9</ele><time>1970-01-01T00:12:32.000Z</time></trkpt><trkpt lat="14.699868" lon="101.192382"><ele>216.4</ele><time>1970-01-01T00:12:33.000Z</time></trkpt><trkpt lat="14.699849" lon="101.192327"><ele>215.6</ele><time>1970-01-01T00:12:34.000Z</time></trkpt><trkpt lat="14.699832" lon="101.192271"><ele>215.3</ele><time>1970-01-01T00:12:35.000Z</time></trkpt><trkpt lat="14.699814" lon="101.19221"><ele>214.5</ele><time>1970-01-01T00:12:36.000Z</time></trkpt><trkpt lat="14.699795" lon="101.192149"><ele>213.1</ele><time>1970-01-01T00:12:37.000Z</time></trkpt><trkpt lat="14.699771" lon="101.19209"><ele>212.1</ele><time>1970-01-01T00:12:38.000Z</time></trkpt><trkpt lat="14.69975" lon="101.192032"><ele>211</ele><time>1970-01-01T00:12:39.000Z</time></trkpt><trkpt lat="14.699738" lon="101.191967"><ele>209.6</ele><time>1970-01-01T00:12:40.000Z</time></trkpt><trkpt lat="14.699711" lon="101.191916"><ele>208.7</ele><time>1970-01-01T00:12:41.000Z</time></trkpt><trkpt lat="14.699682" lon="101.191861"><ele>207.8</ele><time>1970-01-01T00:12:42.000Z</time></trkpt><trkpt lat="14.699676" lon="101.191806"><ele>206.9</ele><time>1970-01-01T00:12:43.000Z</time></trkpt><trkpt lat="14.699669" lon="101.191744"><ele>206</ele><time>1970-01-01T00:12:44.000Z</time></trkpt><trkpt lat="14.699662" lon="101.191681"><ele>205.2</ele><time>1970-01-01T00:12:45.000Z</time></trkpt><trkpt lat="14.699651" lon="101.191632"><ele>204.7</ele><time>1970-01-01T00:12:46.000Z</time></trkpt><trkpt lat="14.699645" lon="101.191578"><ele>204.4</ele><time>1970-01-01T00:12:47.000Z</time></trkpt><trkpt lat="14.699637" lon="101.191522"><ele>204.2</ele><time>1970-01-01T00:12:48.000Z</time></trkpt><trkpt lat="14.699621" lon="101.191478"><ele>204.1</ele><time>1970-01-01T00:12:49.000Z</time></trkpt><trkpt lat="14.699613" lon="101.191436"><ele>204</ele><time>1970-01-01T00:12:50.000Z</time></trkpt><trkpt lat="14.69961" lon="101.1914"><ele>204</ele><time>1970-01-01T00:12:51.000Z</time></trkpt><trkpt lat="14.699607" lon="101.191366"><ele>204</ele><time>1970-01-01T00:12:52.000Z</time></trkpt><trkpt lat="14.699597" lon="101.191319"><ele>204</ele><time>1970-01-01T00:12:53.000Z</time></trkpt><trkpt lat="14.69959" lon="101.191276"><ele>204.1</ele><time>1970-01-01T00:12:54.000Z</time></trkpt><trkpt lat="14.699585" lon="101.191232"><ele>204.2</ele><time>1970-01-01T00:12:55.000Z</time></trkpt><trkpt lat="14.699578" lon="101.191187"><ele>204.5</ele><time>1970-01-01T00:12:56.000Z</time></trkpt><trkpt lat="14.699575" lon="101.191141"><ele>204.7</ele><time>1970-01-01T00:12:57.000Z</time></trkpt><trkpt lat="14.699571" lon="101.191094"><ele>205.3</ele><time>1970-01-01T00:12:58.000Z</time></trkpt><trkpt lat="14.699564" lon="101.191048"><ele>205.9</ele><time>1970-01-01T00:12:59.000Z</time></trkpt><trkpt lat="14.699556" lon="101.191005"><ele>206.7</ele><time>1970-01-01T00:13:00.000Z</time></trkpt><trkpt lat="14.69955" lon="101.190963"><ele>207.5</ele><time>1970-01-01T00:13:01.000Z</time></trkpt><trkpt lat="14.699544" lon="101.190921"><ele>208.2</ele><time>1970-01-01T00:13:02.000Z</time></trkpt><trkpt lat="14.699539" lon="101.19088"><ele>208.8</ele><time>1970-01-01T00:13:03.000Z</time></trkpt><trkpt lat="14.699533" lon="101.190838"><ele>209.3</ele><time>1970-01-01T00:13:04.000Z</time></trkpt><trkpt lat="14.699528" lon="101.190798"><ele>209.8</ele><time>1970-01-01T00:13:05.000Z</time></trkpt><trkpt lat="14.699523" lon="101.190759"><ele>210.2</ele><time>1970-01-01T00:13:06.000Z</time></trkpt><trkpt lat="14.699517" lon="101.190721"><ele>210.3</ele><time>1970-01-01T00:13:07.000Z</time></trkpt><trkpt lat="14.69951" lon="101.190683"><ele>210.4</ele><time>1970-01-01T00:13:08.000Z</time></trkpt><trkpt lat="14.699504" lon="101.190645"><ele>210.4</ele><time>1970-01-01T00:13:09.000Z</time></trkpt><trkpt lat="14.699497" lon="101.190607"><ele>210.3</ele><time>1970-01-01T00:13:10.000Z</time></trkpt><trkpt lat="14.69949" lon="101.19057"><ele>210.3</ele><time>1970-01-01T00:13:11.000Z</time></trkpt><trkpt lat="14.699484" lon="101.190533"><ele>210.3</ele><time>1970-01-01T00:13:12.000Z</time></trkpt><trkpt lat="14.699478" lon="101.190496"><ele>210.4</ele><time>1970-01-01T00:13:13.000Z</time></trkpt><trkpt lat="14.699474" lon="101.190461"><ele>210.4</ele><time>1970-01-01T00:13:14.000Z</time></trkpt><trkpt lat="14.699471" lon="101.190424"><ele>210.4</ele><time>1970-01-01T00:13:15.000Z</time></trkpt><trkpt lat="14.699468" lon="101.190387"><ele>210.4</ele><time>1970-01-01T00:13:16.000Z</time></trkpt><trkpt lat="14.699463" lon="101.190352"><ele>210.6</ele><time>1970-01-01T00:13:17.000Z</time></trkpt><trkpt lat="14.699457" lon="101.19032"><ele>210.8</ele><time>1970-01-01T00:13:18.000Z</time></trkpt><trkpt lat="14.69945" lon="101.190286"><ele>211</ele><time>1970-01-01T00:13:19.000Z</time></trkpt><trkpt lat="14.699443" lon="101.190252"><ele>211.2</ele><time>1970-01-01T00:13:20.000Z</time></trkpt><trkpt lat="14.699438" lon="101.190217"><ele>211.4</ele><time>1970-01-01T00:13:21.000Z</time></trkpt><trkpt lat="14.699432" lon="101.190181"><ele>211.6</ele><time>1970-01-01T00:13:22.000Z</time></trkpt><trkpt lat="14.699426" lon="101.190146"><ele>212</ele><time>1970-01-01T00:13:23.000Z</time></trkpt><trkpt lat="14.699421" lon="101.190111"><ele>212.4</ele><time>1970-01-01T00:13:24.000Z</time></trkpt><trkpt lat="14.699417" lon="101.190076"><ele>212.9</ele><time>1970-01-01T00:13:25.000Z</time></trkpt><trkpt lat="14.699414" lon="101.190042"><ele>213.4</ele><time>1970-01-01T00:13:26.000Z</time></trkpt><trkpt lat="14.69941" lon="101.190008"><ele>213.9</ele><time>1970-01-01T00:13:27.000Z</time></trkpt><trkpt lat="14.699406" lon="101.189972"><ele>214.7</ele><time>1970-01-01T00:13:28.000Z</time></trkpt><trkpt lat="14.6994" lon="101.189937"><ele>215.5</ele><time>1970-01-01T00:13:29.000Z</time></trkpt><trkpt lat="14.699394" lon="101.189903"><ele>216</ele><time>1970-01-01T00:13:30.000Z</time></trkpt><trkpt lat="14.699388" lon="101.189869"><ele>216.4</ele><time>1970-01-01T00:13:31.000Z</time></trkpt><trkpt lat="14.699383" lon="101.189835"><ele>216.7</ele><time>1970-01-01T00:13:32.000Z</time></trkpt><trkpt lat="14.699379" lon="101.189801"><ele>216.9</ele><time>1970-01-01T00:13:33.000Z</time></trkpt><trkpt lat="14.699375" lon="101.189767"><ele>217.1</ele><time>1970-01-01T00:13:34.000Z</time></trkpt><trkpt lat="14.69937" lon="101.189734"><ele>217.3</ele><time>1970-01-01T00:13:35.000Z</time></trkpt><trkpt lat="14.699366" lon="101.1897"><ele>217.4</ele><time>1970-01-01T00:13:36.000Z</time></trkpt><trkpt lat="14.699361" lon="101.189666"><ele>217.5</ele><time>1970-01-01T00:13:37.000Z</time></trkpt><trkpt lat="14.699354" lon="101.189631"><ele>217.7</ele><time>1970-01-01T00:13:38.000Z</time></trkpt><trkpt lat="14.699347" lon="101.189598"><ele>218.1</ele><time>1970-01-01T00:13:39.000Z</time></trkpt><trkpt lat="14.699338" lon="101.189562"><ele>218.6</ele><time>1970-01-01T00:13:40.000Z</time></trkpt><trkpt lat="14.69933" lon="101.189528"><ele>218.8</ele><time>1970-01-01T00:13:41.000Z</time></trkpt><trkpt lat="14.699324" lon="101.189494"><ele>218.9</ele><time>1970-01-01T00:13:42.000Z</time></trkpt><trkpt lat="14.699319" lon="101.189458"><ele>219</ele><time>1970-01-01T00:13:43.000Z</time></trkpt><trkpt lat="14.699314" lon="101.189423"><ele>219</ele><time>1970-01-01T00:13:44.000Z</time></trkpt><trkpt lat="14.699311" lon="101.189389"><ele>218.9</ele><time>1970-01-01T00:13:45.000Z</time></trkpt><trkpt lat="14.699306" lon="101.189354"><ele>218.9</ele><time>1970-01-01T00:13:46.000Z</time></trkpt><trkpt lat="14.699302" lon="101.18932"><ele>219</ele><time>1970-01-01T00:13:47.000Z</time></trkpt><trkpt lat="14.699297" lon="101.189288"><ele>219.1</ele><time>1970-01-01T00:13:48.000Z</time></trkpt><trkpt lat="14.699294" lon="101.189257"><ele>219.3</ele><time>1970-01-01T00:13:49.000Z</time></trkpt><trkpt lat="14.699293" lon="101.189226"><ele>220</ele><time>1970-01-01T00:13:50.000Z</time></trkpt><trkpt lat="14.699293" lon="101.189197"><ele>220.6</ele><time>1970-01-01T00:13:51.000Z</time></trkpt><trkpt lat="14.699288" lon="101.189143"><ele>221.6</ele><time>1970-01-01T00:13:53.000Z</time></trkpt><trkpt lat="14.699275" lon="101.189087"><ele>222.7</ele><time>1970-01-01T00:13:55.000Z</time></trkpt><trkpt lat="14.699268" lon="101.18906"><ele>223.1</ele><time>1970-01-01T00:13:56.000Z</time></trkpt><trkpt lat="14.699255" lon="101.18901"><ele>223.6</ele><time>1970-01-01T00:13:58.000Z</time></trkpt><trkpt lat="14.699239" lon="101.18896"><ele>224.2</ele><time>1970-01-01T00:14:00.000Z</time></trkpt><trkpt lat="14.699225" lon="101.188912"><ele>224.9</ele><time>1970-01-01T00:14:02.000Z</time></trkpt><trkpt lat="14.699211" lon="101.18886"><ele>226.5</ele><time>1970-01-01T00:14:04.000Z</time></trkpt><trkpt lat="14.699196" lon="101.188815"><ele>228.2</ele><time>1970-01-01T00:14:06.000Z</time></trkpt><trkpt lat="14.699178" lon="101.188763"><ele>229.4</ele><time>1970-01-01T00:14:08.000Z</time></trkpt><trkpt lat="14.699165" lon="101.188711"><ele>230.6</ele><time>1970-01-01T00:14:10.000Z</time></trkpt><trkpt lat="14.699159" lon="101.18868"><ele>231.7</ele><time>1970-01-01T00:14:11.000Z</time></trkpt><trkpt lat="14.699152" lon="101.188649"><ele>232.8</ele><time>1970-01-01T00:14:12.000Z</time></trkpt><trkpt lat="14.699144" lon="101.188617"><ele>233.9</ele><time>1970-01-01T00:14:13.000Z</time></trkpt><trkpt lat="14.699133" lon="101.188587"><ele>234.9</ele><time>1970-01-01T00:14:14.000Z</time></trkpt><trkpt lat="14.699112" lon="101.188541"><ele>236.4</ele><time>1970-01-01T00:14:16.000Z</time></trkpt><trkpt lat="14.699095" lon="101.188493"><ele>236.7</ele><time>1970-01-01T00:14:18.000Z</time></trkpt><trkpt lat="14.699076" lon="101.18844"><ele>236.9</ele><time>1970-01-01T00:14:20.000Z</time></trkpt><trkpt lat="14.699064" lon="101.188413"><ele>237.2</ele><time>1970-01-01T00:14:21.000Z</time></trkpt><trkpt lat="14.699049" lon="101.188384"><ele>237.5</ele><time>1970-01-01T00:14:22.000Z</time></trkpt><trkpt lat="14.699035" lon="101.188359"><ele>237.5</ele><time>1970-01-01T00:14:23.000Z</time></trkpt><trkpt lat="14.699024" lon="101.188329"><ele>237</ele><time>1970-01-01T00:14:24.000Z</time></trkpt><trkpt lat="14.699012" lon="101.188289"><ele>236.2</ele><time>1970-01-01T00:14:25.000Z</time></trkpt><trkpt lat="14.699004" lon="101.188248"><ele>236</ele><time>1970-01-01T00:14:26.000Z</time></trkpt><trkpt lat="14.698998" lon="101.188205"><ele>236.2</ele><time>1970-01-01T00:14:27.000Z</time></trkpt><trkpt lat="14.698993" lon="101.188159"><ele>236</ele><time>1970-01-01T00:14:28.000Z</time></trkpt><trkpt lat="14.698989" lon="101.188086"><ele>234.9</ele><time>1970-01-01T00:14:29.000Z</time></trkpt><trkpt lat="14.698988" lon="101.188033"><ele>235.1</ele><time>1970-01-01T00:14:30.000Z</time></trkpt><trkpt lat="14.698982" lon="101.187975"><ele>235.1</ele><time>1970-01-01T00:14:31.000Z</time></trkpt><trkpt lat="14.698986" lon="101.187903"><ele>234.2</ele><time>1970-01-01T00:14:32.000Z</time></trkpt><trkpt lat="14.698987" lon="101.187829"><ele>233.6</ele><time>1970-01-01T00:14:33.000Z</time></trkpt><trkpt lat="14.69899" lon="101.187756"><ele>232.6</ele><time>1970-01-01T00:14:34.000Z</time></trkpt><trkpt lat="14.698993" lon="101.187682"><ele>231.2</ele><time>1970-01-01T00:14:35.000Z</time></trkpt><trkpt lat="14.698997" lon="101.18761"><ele>230.2</ele><time>1970-01-01T00:14:36.000Z</time></trkpt><trkpt lat="14.698996" lon="101.187535"><ele>230.9</ele><time>1970-01-01T00:14:37.000Z</time></trkpt><trkpt lat="14.699001" lon="101.187463"><ele>231</ele><time>1970-01-01T00:14:38.000Z</time></trkpt><trkpt lat="14.698998" lon="101.187396"><ele>230.9</ele><time>1970-01-01T00:14:39.000Z</time></trkpt><trkpt lat="14.698984" lon="101.187325"><ele>230.9</ele><time>1970-01-01T00:14:40.000Z</time></trkpt><trkpt lat="14.698952" lon="101.187256"><ele>230.8</ele><time>1970-01-01T00:14:41.000Z</time></trkpt><trkpt lat="14.698911" lon="101.187203"><ele>230.7</ele><time>1970-01-01T00:14:42.000Z</time></trkpt><trkpt lat="14.698862" lon="101.187168"><ele>230.5</ele><time>1970-01-01T00:14:43.000Z</time></trkpt><trkpt lat="14.698811" lon="101.18714"><ele>230.3</ele><time>1970-01-01T00:14:44.000Z</time></trkpt><trkpt lat="14.698764" lon="101.187118"><ele>230</ele><time>1970-01-01T00:14:45.000Z</time></trkpt><trkpt lat="14.698719" lon="101.187096"><ele>230.1</ele><time>1970-01-01T00:14:46.000Z</time></trkpt><trkpt lat="14.698671" lon="101.187076"><ele>230.4</ele><time>1970-01-01T00:14:47.000Z</time></trkpt><trkpt lat="14.698628" lon="101.187064"><ele>230.5</ele><time>1970-01-01T00:14:48.000Z</time></trkpt><trkpt lat="14.698589" lon="101.187057"><ele>230.6</ele><time>1970-01-01T00:14:49.000Z</time></trkpt><trkpt lat="14.698547" lon="101.18704"><ele>230.6</ele><time>1970-01-01T00:14:50.000Z</time></trkpt><trkpt lat="14.69851" lon="101.187031"><ele>230.5</ele><time>1970-01-01T00:14:51.000Z</time></trkpt><trkpt lat="14.698477" lon="101.187035"><ele>230.5</ele><time>1970-01-01T00:14:52.000Z</time></trkpt><trkpt lat="14.698444" lon="101.187027"><ele>230.9</ele><time>1970-01-01T00:14:53.000Z</time></trkpt><trkpt lat="14.698411" lon="101.187003"><ele>231.3</ele><time>1970-01-01T00:14:54.000Z</time></trkpt><trkpt lat="14.69838" lon="101.186994"><ele>231.6</ele><time>1970-01-01T00:14:55.000Z</time></trkpt><trkpt lat="14.698353" lon="101.186972"><ele>232.1</ele><time>1970-01-01T00:14:56.000Z</time></trkpt><trkpt lat="14.698326" lon="101.186961"><ele>232.4</ele><time>1970-01-01T00:14:57.000Z</time></trkpt><trkpt lat="14.698298" lon="101.186958"><ele>232.7</ele><time>1970-01-01T00:14:58.000Z</time></trkpt><trkpt lat="14.698247" lon="101.186955"><ele>233.3</ele><time>1970-01-01T00:15:00.000Z</time></trkpt><trkpt lat="14.69822" lon="101.186949"><ele>233.6</ele><time>1970-01-01T00:15:01.000Z</time></trkpt><trkpt lat="14.698193" lon="101.186939"><ele>234</ele><time>1970-01-01T00:15:02.000Z</time></trkpt><trkpt lat="14.698166" lon="101.186927"><ele>234.5</ele><time>1970-01-01T00:15:03.000Z</time></trkpt><trkpt lat="14.69814" lon="101.186915"><ele>234.7</ele><time>1970-01-01T00:15:04.000Z</time></trkpt><trkpt lat="14.698115" lon="101.186904"><ele>234.9</ele><time>1970-01-01T00:15:05.000Z</time></trkpt><trkpt lat="14.698069" lon="101.186887"><ele>235.1</ele><time>1970-01-01T00:15:07.000Z</time></trkpt><trkpt lat="14.698025" lon="101.186869"><ele>235.1</ele><time>1970-01-01T00:15:09.000Z</time></trkpt><trkpt lat="14.697985" lon="101.18685"><ele>235.2</ele><time>1970-01-01T00:15:11.000Z</time></trkpt><trkpt lat="14.697948" lon="101.186834"><ele>235.9</ele><time>1970-01-01T00:15:13.000Z</time></trkpt><trkpt lat="14.697911" lon="101.186814"><ele>236.6</ele><time>1970-01-01T00:15:15.000Z</time></trkpt><trkpt lat="14.697875" lon="101.186791"><ele>237.2</ele><time>1970-01-01T00:15:17.000Z</time></trkpt><trkpt lat="14.697841" lon="101.186771"><ele>237.7</ele><time>1970-01-01T00:15:19.000Z</time></trkpt><trkpt lat="14.697811" lon="101.186759"><ele>238.3</ele><time>1970-01-01T00:15:21.000Z</time></trkpt><trkpt lat="14.697767" lon="101.186745"><ele>239.2</ele><time>1970-01-01T00:15:23.000Z</time></trkpt><trkpt lat="14.697729" lon="101.18673"><ele>240.1</ele><time>1970-01-01T00:15:25.000Z</time></trkpt><trkpt lat="14.69769" lon="101.186711"><ele>241.3</ele><time>1970-01-01T00:15:27.000Z</time></trkpt><trkpt lat="14.697653" lon="101.186686"><ele>242.4</ele><time>1970-01-01T00:15:29.000Z</time></trkpt><trkpt lat="14.697616" lon="101.18666"><ele>243.5</ele><time>1970-01-01T00:15:31.000Z</time></trkpt><trkpt lat="14.697583" lon="101.186635"><ele>244.6</ele><time>1970-01-01T00:15:33.000Z</time></trkpt><trkpt lat="14.697548" lon="101.186611"><ele>245.7</ele><time>1970-01-01T00:15:35.000Z</time></trkpt><trkpt lat="14.697516" lon="101.186592"><ele>246.5</ele><time>1970-01-01T00:15:37.000Z</time></trkpt><trkpt lat="14.697482" lon="101.186568"><ele>247.1</ele><time>1970-01-01T00:15:39.000Z</time></trkpt><trkpt lat="14.697454" lon="101.18654"><ele>247.6</ele><time>1970-01-01T00:15:41.000Z</time></trkpt><trkpt lat="14.697426" lon="101.186514"><ele>248.8</ele><time>1970-01-01T00:15:43.000Z</time></trkpt><trkpt lat="14.697397" lon="101.186485"><ele>250.1</ele><time>1970-01-01T00:15:45.000Z</time></trkpt><trkpt lat="14.697369" lon="101.186462"><ele>251.1</ele><time>1970-01-01T00:15:47.000Z</time></trkpt><trkpt lat="14.697341" lon="101.18644"><ele>252.1</ele><time>1970-01-01T00:15:49.000Z</time></trkpt><trkpt lat="14.697311" lon="101.186415"><ele>253.1</ele><time>1970-01-01T00:15:51.000Z</time></trkpt><trkpt lat="14.69728" lon="101.186389"><ele>253.9</ele><time>1970-01-01T00:15:53.000Z</time></trkpt><trkpt lat="14.697246" lon="101.186375"><ele>254.8</ele><time>1970-01-01T00:15:55.000Z</time></trkpt><trkpt lat="14.697215" lon="101.186361"><ele>255.7</ele><time>1970-01-01T00:15:57.000Z</time></trkpt><trkpt lat="14.69719" lon="101.186342"><ele>256.6</ele><time>1970-01-01T00:15:59.000Z</time></trkpt><trkpt lat="14.697163" lon="101.186323"><ele>257.5</ele><time>1970-01-01T00:16:02.000Z</time></trkpt><trkpt lat="14.697126" lon="101.186331"><ele>258.7</ele><time>1970-01-01T00:16:06.000Z</time></trkpt><trkpt lat="14.697096" lon="101.186331"><ele>259.6</ele><time>1970-01-01T00:16:08.000Z</time></trkpt><trkpt lat="14.697061" lon="101.186308"><ele>260.6</ele><time>1970-01-01T00:16:10.000Z</time></trkpt><trkpt lat="14.697026" lon="101.186283"><ele>261.1</ele><time>1970-01-01T00:16:12.000Z</time></trkpt><trkpt lat="14.69699" lon="101.186256"><ele>261.6</ele><time>1970-01-01T00:16:14.000Z</time></trkpt><trkpt lat="14.696963" lon="101.186233"><ele>262.3</ele><time>1970-01-01T00:16:16.000Z</time></trkpt><trkpt lat="14.696925" lon="101.186201"><ele>263.3</ele><time>1970-01-01T00:16:18.000Z</time></trkpt><trkpt lat="14.696889" lon="101.186165"><ele>264</ele><time>1970-01-01T00:16:20.000Z</time></trkpt><trkpt lat="14.696867" lon="101.186146"><ele>264.5</ele><time>1970-01-01T00:16:21.000Z</time></trkpt><trkpt lat="14.696845" lon="101.186129"><ele>264.8</ele><time>1970-01-01T00:16:22.000Z</time></trkpt><trkpt lat="14.696817" lon="101.186115"><ele>265.1</ele><time>1970-01-01T00:16:23.000Z</time></trkpt><trkpt lat="14.696784" lon="101.186099"><ele>265.4</ele><time>1970-01-01T00:16:24.000Z</time></trkpt><trkpt lat="14.696748" lon="101.186088"><ele>265.8</ele><time>1970-01-01T00:16:25.000Z</time></trkpt><trkpt lat="14.696715" lon="101.18608"><ele>266.1</ele><time>1970-01-01T00:16:26.000Z</time></trkpt><trkpt lat="14.696684" lon="101.186077"><ele>266.3</ele><time>1970-01-01T00:16:27.000Z</time></trkpt><trkpt lat="14.696657" lon="101.186086"><ele>266.5</ele><time>1970-01-01T00:16:28.000Z</time></trkpt><trkpt lat="14.696651" lon="101.186117"><ele>266.6</ele><time>1970-01-01T00:16:31.000Z</time></trkpt><trkpt lat="14.696695" lon="101.186112"><ele>266.8</ele><time>1970-01-01T00:16:33.000Z</time></trkpt><trkpt lat="14.696745" lon="101.186108"><ele>266.8</ele><time>1970-01-01T00:16:35.000Z</time></trkpt><trkpt lat="14.696794" lon="101.186118"><ele>266.6</ele><time>1970-01-01T00:16:37.000Z</time></trkpt><trkpt lat="14.69683" lon="101.186129"><ele>266.4</ele><time>1970-01-01T00:16:39.000Z</time></trkpt><trkpt lat="14.696862" lon="101.186145"><ele>266.7</ele><time>1970-01-01T00:16:41.000Z</time></trkpt><trkpt lat="14.69689" lon="101.186167"><ele>266.8</ele><time>1970-01-01T00:16:43.000Z</time></trkpt><trkpt lat="14.696918" lon="101.18618"><ele>266.8</ele><time>1970-01-01T00:16:45.000Z</time></trkpt><trkpt lat="14.696949" lon="101.186187"><ele>266.8</ele><time>1970-01-01T00:16:46.000Z</time></trkpt><trkpt lat="14.69699" lon="101.186198"><ele>266.6</ele><time>1970-01-01T00:16:47.000Z</time></trkpt><trkpt lat="14.697037" lon="101.186219"><ele>266.3</ele><time>1970-01-01T00:16:48.000Z</time></trkpt><trkpt lat="14.697101" lon="101.186271"><ele>265.6</ele><time>1970-01-01T00:16:49.000Z</time></trkpt><trkpt lat="14.697171" lon="101.186326"><ele>264.8</ele><time>1970-01-01T00:16:50.000Z</time></trkpt><trkpt lat="14.697251" lon="101.186363"><ele>263.5</ele><time>1970-01-01T00:16:51.000Z</time></trkpt><trkpt lat="14.697322" lon="101.1864"><ele>261.9</ele><time>1970-01-01T00:16:52.000Z</time></trkpt><trkpt lat="14.697389" lon="101.186431"><ele>260.9</ele><time>1970-01-01T00:16:53.000Z</time></trkpt><trkpt lat="14.697414" lon="101.186495"><ele>259.5</ele><time>1970-01-01T00:16:54.000Z</time></trkpt><trkpt lat="14.697461" lon="101.186559"><ele>257.1</ele><time>1970-01-01T00:16:55.000Z</time></trkpt><trkpt lat="14.69752" lon="101.18658"><ele>255.2</ele><time>1970-01-01T00:16:56.000Z</time></trkpt><trkpt lat="14.697589" lon="101.186625"><ele>253.3</ele><time>1970-01-01T00:16:57.000Z</time></trkpt><trkpt lat="14.697654" lon="101.186657"><ele>251.4</ele><time>1970-01-01T00:16:58.000Z</time></trkpt><trkpt lat="14.697712" lon="101.186685"><ele>249.4</ele><time>1970-01-01T00:16:59.000Z</time></trkpt><trkpt lat="14.697775" lon="101.186706"><ele>247.5</ele><time>1970-01-01T00:17:00.000Z</time></trkpt><trkpt lat="14.697829" lon="101.186719"><ele>246.7</ele><time>1970-01-01T00:17:01.000Z</time></trkpt><trkpt lat="14.697862" lon="101.186722"><ele>246.1</ele><time>1970-01-01T00:17:02.000Z</time></trkpt><trkpt lat="14.6979" lon="101.186727"><ele>245</ele><time>1970-01-01T00:17:04.000Z</time></trkpt><trkpt lat="14.697945" lon="101.186752"><ele>243.7</ele><time>1970-01-01T00:17:06.000Z</time></trkpt><trkpt lat="14.69798" lon="101.186771"><ele>242.6</ele><time>1970-01-01T00:17:07.000Z</time></trkpt><trkpt lat="14.698028" lon="101.186797"><ele>241.2</ele><time>1970-01-01T00:17:08.000Z</time></trkpt><trkpt lat="14.698087" lon="101.186829"><ele>239.4</ele><time>1970-01-01T00:17:09.000Z</time></trkpt><trkpt lat="14.698156" lon="101.186866"><ele>237.9</ele><time>1970-01-01T00:17:10.000Z</time></trkpt><trkpt lat="14.698238" lon="101.1869"><ele>236.6</ele><time>1970-01-01T00:17:11.000Z</time></trkpt><trkpt lat="14.698329" lon="101.186931"><ele>235.1</ele><time>1970-01-01T00:17:12.000Z</time></trkpt><trkpt lat="14.698418" lon="101.186968"><ele>235</ele><time>1970-01-01T00:17:13.000Z</time></trkpt><trkpt lat="14.698509" lon="101.187005"><ele>234.2</ele><time>1970-01-01T00:17:14.000Z</time></trkpt><trkpt lat="14.698606" lon="101.187046"><ele>232.8</ele><time>1970-01-01T00:17:15.000Z</time></trkpt><trkpt lat="14.6987" lon="101.187085"><ele>231.6</ele><time>1970-01-01T00:17:16.000Z</time></trkpt><trkpt lat="14.698779" lon="101.187119"><ele>230.7</ele><time>1970-01-01T00:17:17.000Z</time></trkpt><trkpt lat="14.698846" lon="101.187145"><ele>230.6</ele><time>1970-01-01T00:17:18.000Z</time></trkpt><trkpt lat="14.698897" lon="101.187175"><ele>230.4</ele><time>1970-01-01T00:17:19.000Z</time></trkpt><trkpt lat="14.698931" lon="101.18721"><ele>230.4</ele><time>1970-01-01T00:17:20.000Z</time></trkpt><trkpt lat="14.698963" lon="101.187217"><ele>230.7</ele><time>1970-01-01T00:17:21.000Z</time></trkpt><trkpt lat="14.698986" lon="101.187201"><ele>230.4</ele><time>1970-01-01T00:17:23.000Z</time></trkpt><trkpt lat="14.698987" lon="101.187163"><ele>230</ele><time>1970-01-01T00:17:24.000Z</time></trkpt><trkpt lat="14.698993" lon="101.187124"><ele>229.6</ele><time>1970-01-01T00:17:25.000Z</time></trkpt><trkpt lat="14.698988" lon="101.187085"><ele>229.4</ele><time>1970-01-01T00:17:26.000Z</time></trkpt><trkpt lat="14.698989" lon="101.187044"><ele>229.4</ele><time>1970-01-01T00:17:27.000Z</time></trkpt><trkpt lat="14.698993" lon="101.186997"><ele>229.3</ele><time>1970-01-01T00:17:28.000Z</time></trkpt><trkpt lat="14.698997" lon="101.186957"><ele>229.3</ele><time>1970-01-01T00:17:29.000Z</time></trkpt><trkpt lat="14.698997" lon="101.186911"><ele>229.4</ele><time>1970-01-01T00:17:30.000Z</time></trkpt><trkpt lat="14.698998" lon="101.186858"><ele>229.5</ele><time>1970-01-01T00:17:31.000Z</time></trkpt><trkpt lat="14.698998" lon="101.186803"><ele>229.6</ele><time>1970-01-01T00:17:32.000Z</time></trkpt><trkpt lat="14.698999" lon="101.186751"><ele>229.7</ele><time>1970-01-01T00:17:33.000Z</time></trkpt><trkpt lat="14.698998" lon="101.186703"><ele>229.7</ele><time>1970-01-01T00:17:34.000Z</time></trkpt><trkpt lat="14.698998" lon="101.186654"><ele>229.6</ele><time>1970-01-01T00:17:35.000Z</time></trkpt><trkpt lat="14.699" lon="101.186605"><ele>229.6</ele><time>1970-01-01T00:17:36.000Z</time></trkpt><trkpt lat="14.699003" lon="101.186556"><ele>229.5</ele><time>1970-01-01T00:17:37.000Z</time></trkpt><trkpt lat="14.699003" lon="101.186507"><ele>229.6</ele><time>1970-01-01T00:17:38.000Z</time></trkpt><trkpt lat="14.69901" lon="101.186467"><ele>229.7</ele><time>1970-01-01T00:17:39.000Z</time></trkpt><trkpt lat="14.69901" lon="101.18642"><ele>230</ele><time>1970-01-01T00:17:40.000Z</time></trkpt><trkpt lat="14.69901" lon="101.186374"><ele>230.4</ele><time>1970-01-01T00:17:41.000Z</time></trkpt><trkpt lat="14.699011" lon="101.186323"><ele>230.9</ele><time>1970-01-01T00:17:42.000Z</time></trkpt><trkpt lat="14.699022" lon="101.186272"><ele>231.1</ele><time>1970-01-01T00:17:43.000Z</time></trkpt><trkpt lat="14.699038" lon="101.18623"><ele>231.7</ele><time>1970-01-01T00:17:44.000Z</time></trkpt><trkpt lat="14.69906" lon="101.186201"><ele>231.9</ele><time>1970-01-01T00:17:45.000Z</time></trkpt><trkpt lat="14.699081" lon="101.186168"><ele>232.4</ele><time>1970-01-01T00:17:46.000Z</time></trkpt><trkpt lat="14.699096" lon="101.186131"><ele>232.7</ele><time>1970-01-01T00:17:47.000Z</time></trkpt><trkpt lat="14.699102" lon="101.18609"><ele>233.3</ele><time>1970-01-01T00:17:48.000Z</time></trkpt><trkpt lat="14.699104" lon="101.186049"><ele>233.8</ele><time>1970-01-01T00:17:49.000Z</time></trkpt><trkpt lat="14.699107" lon="101.186007"><ele>234.2</ele><time>1970-01-01T00:17:50.000Z</time></trkpt><trkpt lat="14.699107" lon="101.185967"><ele>234.5</ele><time>1970-01-01T00:17:51.000Z</time></trkpt><trkpt lat="14.699107" lon="101.185932"><ele>234.4</ele><time>1970-01-01T00:17:52.000Z</time></trkpt><trkpt lat="14.699109" lon="101.185898"><ele>234.6</ele><time>1970-01-01T00:17:53.000Z</time></trkpt><trkpt lat="14.699109" lon="101.185861"><ele>234.5</ele><time>1970-01-01T00:17:54.000Z</time></trkpt><trkpt lat="14.699108" lon="101.185822"><ele>234.3</ele><time>1970-01-01T00:17:55.000Z</time></trkpt><trkpt lat="14.699103" lon="101.185782"><ele>234</ele><time>1970-01-01T00:17:56.000Z</time></trkpt><trkpt lat="14.699095" lon="101.185738"><ele>233.4</ele><time>1970-01-01T00:17:57.000Z</time></trkpt><trkpt lat="14.699085" lon="101.185698"><ele>233.2</ele><time>1970-01-01T00:17:58.000Z</time></trkpt><trkpt lat="14.699075" lon="101.185665"><ele>233.1</ele><time>1970-01-01T00:17:59.000Z</time></trkpt><trkpt lat="14.699061" lon="101.18563"><ele>233.1</ele><time>1970-01-01T00:18:00.000Z</time></trkpt><trkpt lat="14.699048" lon="101.185596"><ele>232.8</ele><time>1970-01-01T00:18:01.000Z</time></trkpt><trkpt lat="14.699034" lon="101.185564"><ele>232.9</ele><time>1970-01-01T00:18:02.000Z</time></trkpt><trkpt lat="14.69902" lon="101.185531"><ele>233</ele><time>1970-01-01T00:18:03.000Z</time></trkpt><trkpt lat="14.69901" lon="101.185499"><ele>232.7</ele><time>1970-01-01T00:18:04.000Z</time></trkpt><trkpt lat="14.699002" lon="101.185468"><ele>233</ele><time>1970-01-01T00:18:05.000Z</time></trkpt><trkpt lat="14.698994" lon="101.185433"><ele>233.3</ele><time>1970-01-01T00:18:06.000Z</time></trkpt><trkpt lat="14.698986" lon="101.185398"><ele>233.6</ele><time>1970-01-01T00:18:07.000Z</time></trkpt><trkpt lat="14.69898" lon="101.185369"><ele>234</ele><time>1970-01-01T00:18:08.000Z</time></trkpt><trkpt lat="14.69897" lon="101.185313"><ele>234.7</ele><time>1970-01-01T00:18:10.000Z</time></trkpt><trkpt lat="14.698965" lon="101.18528"><ele>234.9</ele><time>1970-01-01T00:18:11.000Z</time></trkpt><trkpt lat="14.698961" lon="101.185249"><ele>234.9</ele><time>1970-01-01T00:18:12.000Z</time></trkpt><trkpt lat="14.698956" lon="101.185219"><ele>235.1</ele><time>1970-01-01T00:18:13.000Z</time></trkpt><trkpt lat="14.698952" lon="101.185188"><ele>235.3</ele><time>1970-01-01T00:18:14.000Z</time></trkpt><trkpt lat="14.698942" lon="101.185133"><ele>235.6</ele><time>1970-01-01T00:18:16.000Z</time></trkpt><trkpt lat="14.698937" lon="101.185103"><ele>235.9</ele><time>1970-01-01T00:18:17.000Z</time></trkpt><trkpt lat="14.698933" lon="101.185072"><ele>235.8</ele><time>1970-01-01T00:18:18.000Z</time></trkpt><trkpt lat="14.698929" lon="101.185042"><ele>235.9</ele><time>1970-01-01T00:18:19.000Z</time></trkpt><trkpt lat="14.698924" lon="101.18501"><ele>236.1</ele><time>1970-01-01T00:18:20.000Z</time></trkpt><trkpt lat="14.698915" lon="101.184979"><ele>236.2</ele><time>1970-01-01T00:18:21.000Z</time></trkpt><trkpt lat="14.698904" lon="101.184948"><ele>236.2</ele><time>1970-01-01T00:18:22.000Z</time></trkpt><trkpt lat="14.698892" lon="101.18492"><ele>236.3</ele><time>1970-01-01T00:18:23.000Z</time></trkpt><trkpt lat="14.698879" lon="101.184891"><ele>235.9</ele><time>1970-01-01T00:18:24.000Z</time></trkpt><trkpt lat="14.698863" lon="101.184864"><ele>235.9</ele><time>1970-01-01T00:18:25.000Z</time></trkpt><trkpt lat="14.698846" lon="101.18484"><ele>235.6</ele><time>1970-01-01T00:18:26.000Z</time></trkpt><trkpt lat="14.698826" lon="101.184816"><ele>235.5</ele><time>1970-01-01T00:18:27.000Z</time></trkpt><trkpt lat="14.698805" lon="101.184795"><ele>235.7</ele><time>1970-01-01T00:18:28.000Z</time></trkpt><trkpt lat="14.698785" lon="101.184774"><ele>235.7</ele><time>1970-01-01T00:18:29.000Z</time></trkpt><trkpt lat="14.698766" lon="101.184752"><ele>236.2</ele><time>1970-01-01T00:18:30.000Z</time></trkpt><trkpt lat="14.698746" lon="101.18473"><ele>236.1</ele><time>1970-01-01T00:18:31.000Z</time></trkpt><trkpt lat="14.698728" lon="101.184705"><ele>236.6</ele><time>1970-01-01T00:18:32.000Z</time></trkpt><trkpt lat="14.698712" lon="101.18468"><ele>237.1</ele><time>1970-01-01T00:18:33.000Z</time></trkpt><trkpt lat="14.698698" lon="101.184654"><ele>237.1</ele><time>1970-01-01T00:18:34.000Z</time></trkpt><trkpt lat="14.698679" lon="101.184604"><ele>237.8</ele><time>1970-01-01T00:18:36.000Z</time></trkpt><trkpt lat="14.698659" lon="101.184563"><ele>238.3</ele><time>1970-01-01T00:18:38.000Z</time></trkpt><trkpt lat="14.698634" lon="101.184521"><ele>239.5</ele><time>1970-01-01T00:18:40.000Z</time></trkpt><trkpt lat="14.698607" lon="101.184472"><ele>239.8</ele><time>1970-01-01T00:18:42.000Z</time></trkpt><trkpt lat="14.698587" lon="101.18443"><ele>241.1</ele><time>1970-01-01T00:18:44.000Z</time></trkpt><trkpt lat="14.69857" lon="101.184385"><ele>241.2</ele><time>1970-01-01T00:18:46.000Z</time></trkpt><trkpt lat="14.698557" lon="101.184345"><ele>242.8</ele><time>1970-01-01T00:18:48.000Z</time></trkpt><trkpt lat="14.698544" lon="101.184302"><ele>243.2</ele><time>1970-01-01T00:18:50.000Z</time></trkpt><trkpt lat="14.698526" lon="101.18426"><ele>243.8</ele><time>1970-01-01T00:18:52.000Z</time></trkpt><trkpt lat="14.69851" lon="101.184217"><ele>246</ele><time>1970-01-01T00:18:54.000Z</time></trkpt><trkpt lat="14.698503" lon="101.184172"><ele>246.7</ele><time>1970-01-01T00:18:56.000Z</time></trkpt><trkpt lat="14.698502" lon="101.18413"><ele>247.3</ele><time>1970-01-01T00:18:58.000Z</time></trkpt><trkpt lat="14.698505" lon="101.18409"><ele>247.7</ele><time>1970-01-01T00:19:00.000Z</time></trkpt><trkpt lat="14.698505" lon="101.18404"><ele>247.9</ele><time>1970-01-01T00:19:02.000Z</time></trkpt><trkpt lat="14.698506" lon="101.183993"><ele>247.8</ele><time>1970-01-01T00:19:04.000Z</time></trkpt><trkpt lat="14.698505" lon="101.183959"><ele>247.8</ele><time>1970-01-01T00:19:06.000Z</time></trkpt><trkpt lat="14.698505" lon="101.183917"><ele>247.7</ele><time>1970-01-01T00:19:08.000Z</time></trkpt><trkpt lat="14.698511" lon="101.183872"><ele>247.6</ele><time>1970-01-01T00:19:10.000Z</time></trkpt><trkpt lat="14.698519" lon="101.183832"><ele>247.2</ele><time>1970-01-01T00:19:12.000Z</time></trkpt><trkpt lat="14.698511" lon="101.183799"><ele>247.4</ele><time>1970-01-01T00:19:14.000Z</time></trkpt><trkpt lat="14.698494" lon="101.183775"><ele>247.4</ele><time>1970-01-01T00:19:16.000Z</time></trkpt><trkpt lat="14.698478" lon="101.183742"><ele>247.4</ele><time>1970-01-01T00:19:19.000Z</time></trkpt><trkpt lat="14.698497" lon="101.183707"><ele>247.4</ele><time>1970-01-01T00:19:23.000Z</time></trkpt><trkpt lat="14.69852" lon="101.18367"><ele>247.2</ele><time>1970-01-01T00:19:25.000Z</time></trkpt><trkpt lat="14.698538" lon="101.183617"><ele>247</ele><time>1970-01-01T00:19:27.000Z</time></trkpt><trkpt lat="14.698543" lon="101.183584"><ele>246.8</ele><time>1970-01-01T00:19:28.000Z</time></trkpt><trkpt lat="14.698545" lon="101.183549"><ele>246.6</ele><time>1970-01-01T00:19:29.000Z</time></trkpt><trkpt lat="14.698545" lon="101.183513"><ele>246.4</ele><time>1970-01-01T00:19:30.000Z</time></trkpt><trkpt lat="14.698545" lon="101.183475"><ele>246.4</ele><time>1970-01-01T00:19:31.000Z</time></trkpt><trkpt lat="14.698546" lon="101.183439"><ele>246.4</ele><time>1970-01-01T00:19:32.000Z</time></trkpt><trkpt lat="14.698549" lon="101.183404"><ele>246.5</ele><time>1970-01-01T00:19:33.000Z</time></trkpt><trkpt lat="14.698552" lon="101.183367"><ele>246.6</ele><time>1970-01-01T00:19:34.000Z</time></trkpt><trkpt lat="14.698556" lon="101.183333"><ele>246.8</ele><time>1970-01-01T00:19:35.000Z</time></trkpt><trkpt lat="14.698562" lon="101.183297"><ele>246.2</ele><time>1970-01-01T00:19:36.000Z</time></trkpt><trkpt lat="14.698569" lon="101.183259"><ele>246.3</ele><time>1970-01-01T00:19:37.000Z</time></trkpt><trkpt lat="14.698574" lon="101.183221"><ele>246.3</ele><time>1970-01-01T00:19:38.000Z</time></trkpt><trkpt lat="14.698577" lon="101.183188"><ele>246.3</ele><time>1970-01-01T00:19:39.000Z</time></trkpt><trkpt lat="14.698579" lon="101.183135"><ele>246.4</ele><time>1970-01-01T00:19:41.000Z</time></trkpt><trkpt lat="14.698581" lon="101.183092"><ele>246.4</ele><time>1970-01-01T00:19:43.000Z</time></trkpt><trkpt lat="14.698583" lon="101.18305"><ele>246.4</ele><time>1970-01-01T00:19:45.000Z</time></trkpt><trkpt lat="14.698586" lon="101.183011"><ele>246.4</ele><time>1970-01-01T00:19:47.000Z</time></trkpt><trkpt lat="14.698585" lon="101.182969"><ele>246.3</ele><time>1970-01-01T00:19:49.000Z</time></trkpt><trkpt lat="14.698584" lon="101.182929"><ele>246.1</ele><time>1970-01-01T00:19:51.000Z</time></trkpt><trkpt lat="14.698588" lon="101.182884"><ele>245.8</ele><time>1970-01-01T00:19:53.000Z</time></trkpt><trkpt lat="14.698591" lon="101.182836"><ele>245.4</ele><time>1970-01-01T00:19:55.000Z</time></trkpt><trkpt lat="14.698586" lon="101.18279"><ele>245.4</ele><time>1970-01-01T00:19:57.000Z</time></trkpt><trkpt lat="14.698583" lon="101.182744"><ele>245.6</ele><time>1970-01-01T00:19:59.000Z</time></trkpt><trkpt lat="14.698568" lon="101.182715"><ele>245.6</ele><time>1970-01-01T00:20:01.000Z</time></trkpt><trkpt lat="14.698534" lon="101.182716"><ele>247</ele><time>1970-01-01T00:20:03.000Z</time></trkpt><trkpt lat="14.698495" lon="101.182735"><ele>248.6</ele><time>1970-01-01T00:20:05.000Z</time></trkpt><trkpt lat="14.698449" lon="101.182746"><ele>250.2</ele><time>1970-01-01T00:20:07.000Z</time></trkpt><trkpt lat="14.698405" lon="101.182747"><ele>251.8</ele><time>1970-01-01T00:20:09.000Z</time></trkpt><trkpt lat="14.698362" lon="101.182745"><ele>253.3</ele><time>1970-01-01T00:20:11.000Z</time></trkpt><trkpt lat="14.698328" lon="101.18274"><ele>254.8</ele><time>1970-01-01T00:20:13.000Z</time></trkpt><trkpt lat="14.698296" lon="101.182713"><ele>256.3</ele><time>1970-01-01T00:20:15.000Z</time></trkpt><trkpt lat="14.698282" lon="101.182687"><ele>255.8</ele><time>1970-01-01T00:20:16.000Z</time></trkpt><trkpt lat="14.698271" lon="101.182656"><ele>255.2</ele><time>1970-01-01T00:20:17.000Z</time></trkpt><trkpt lat="14.698262" lon="101.18262"><ele>255.9</ele><time>1970-01-01T00:20:18.000Z</time></trkpt><trkpt lat="14.698257" lon="101.182582"><ele>255.9</ele><time>1970-01-01T00:20:19.000Z</time></trkpt><trkpt lat="14.698253" lon="101.182543"><ele>255.2</ele><time>1970-01-01T00:20:20.000Z</time></trkpt><trkpt lat="14.698251" lon="101.182506"><ele>254.4</ele><time>1970-01-01T00:20:21.000Z</time></trkpt><trkpt lat="14.698248" lon="101.18247"><ele>253.5</ele><time>1970-01-01T00:20:22.000Z</time></trkpt><trkpt lat="14.698243" lon="101.182434"><ele>252.4</ele><time>1970-01-01T00:20:23.000Z</time></trkpt><trkpt lat="14.698236" lon="101.182398"><ele>251.3</ele><time>1970-01-01T00:20:24.000Z</time></trkpt><trkpt lat="14.698227" lon="101.182363"><ele>250.2</ele><time>1970-01-01T00:20:25.000Z</time></trkpt><trkpt lat="14.698216" lon="101.182331"><ele>251.4</ele><time>1970-01-01T00:20:26.000Z</time></trkpt><trkpt lat="14.698202" lon="101.182299"><ele>250.5</ele><time>1970-01-01T00:20:27.000Z</time></trkpt><trkpt lat="14.698188" lon="101.182272"><ele>249.8</ele><time>1970-01-01T00:20:28.000Z</time></trkpt><trkpt lat="14.698171" lon="101.182245"><ele>251.1</ele><time>1970-01-01T00:20:29.000Z</time></trkpt><trkpt lat="14.698152" lon="101.18222"><ele>250.6</ele><time>1970-01-01T00:20:30.000Z</time></trkpt><trkpt lat="14.69813" lon="101.182195"><ele>251.8</ele><time>1970-01-01T00:20:31.000Z</time></trkpt><trkpt lat="14.698106" lon="101.182171"><ele>251.3</ele><time>1970-01-01T00:20:32.000Z</time></trkpt><trkpt lat="14.698081" lon="101.18215"><ele>251.8</ele><time>1970-01-01T00:20:33.000Z</time></trkpt><trkpt lat="14.698057" lon="101.182132"><ele>252.5</ele><time>1970-01-01T00:20:34.000Z</time></trkpt><trkpt lat="14.698033" lon="101.182115"><ele>252.4</ele><time>1970-01-01T00:20:35.000Z</time></trkpt><trkpt lat="14.698008" lon="101.1821"><ele>253</ele><time>1970-01-01T00:20:36.000Z</time></trkpt><trkpt lat="14.697965" lon="101.182074"><ele>253.8</ele><time>1970-01-01T00:20:38.000Z</time></trkpt><trkpt lat="14.69793" lon="101.182046"><ele>254.8</ele><time>1970-01-01T00:20:40.000Z</time></trkpt><trkpt lat="14.697897" lon="101.182017"><ele>254.8</ele><time>1970-01-01T00:20:42.000Z</time></trkpt><trkpt lat="14.697866" lon="101.181994"><ele>256</ele><time>1970-01-01T00:20:44.000Z</time></trkpt><trkpt lat="14.697836" lon="101.181967"><ele>257.2</ele><time>1970-01-01T00:20:46.000Z</time></trkpt><trkpt lat="14.697811" lon="101.181937"><ele>257.2</ele><time>1970-01-01T00:20:48.000Z</time></trkpt><trkpt lat="14.697787" lon="101.181908"><ele>258.3</ele><time>1970-01-01T00:20:50.000Z</time></trkpt><trkpt lat="14.697765" lon="101.181886"><ele>259.3</ele><time>1970-01-01T00:20:52.000Z</time></trkpt><trkpt lat="14.697744" lon="101.181859"><ele>259.3</ele><time>1970-01-01T00:20:54.000Z</time></trkpt><trkpt lat="14.697721" lon="101.181822"><ele>260.3</ele><time>1970-01-01T00:20:56.000Z</time></trkpt><trkpt lat="14.697696" lon="101.181774"><ele>259.6</ele><time>1970-01-01T00:20:58.000Z</time></trkpt><trkpt lat="14.697676" lon="101.181725"><ele>260.5</ele><time>1970-01-01T00:21:00.000Z</time></trkpt><trkpt lat="14.697658" lon="101.181675"><ele>259.4</ele><time>1970-01-01T00:21:02.000Z</time></trkpt><trkpt lat="14.697643" lon="101.181633"><ele>260.6</ele><time>1970-01-01T00:21:04.000Z</time></trkpt><trkpt lat="14.697631" lon="101.181595"><ele>260.6</ele><time>1970-01-01T00:21:06.000Z</time></trkpt><trkpt lat="14.697617" lon="101.181558"><ele>260.5</ele><time>1970-01-01T00:21:08.000Z</time></trkpt><trkpt lat="14.697597" lon="101.181519"><ele>262</ele><time>1970-01-01T00:21:10.000Z</time></trkpt><trkpt lat="14.697575" lon="101.181473"><ele>262</ele><time>1970-01-01T00:21:12.000Z</time></trkpt><trkpt lat="14.697555" lon="101.181427"><ele>263.1</ele><time>1970-01-01T00:21:14.000Z</time></trkpt><trkpt lat="14.697538" lon="101.181378"><ele>262.5</ele><time>1970-01-01T00:21:16.000Z</time></trkpt><trkpt lat="14.697528" lon="101.181326"><ele>262.2</ele><time>1970-01-01T00:21:18.000Z</time></trkpt><trkpt lat="14.69752" lon="101.181269"><ele>261.9</ele><time>1970-01-01T00:21:20.000Z</time></trkpt><trkpt lat="14.697515" lon="101.181239"><ele>263</ele><time>1970-01-01T00:21:21.000Z</time></trkpt><trkpt lat="14.697509" lon="101.181211"><ele>262.9</ele><time>1970-01-01T00:21:22.000Z</time></trkpt><trkpt lat="14.697492" lon="101.181164"><ele>262.9</ele><time>1970-01-01T00:21:24.000Z</time></trkpt><trkpt lat="14.697464" lon="101.181135"><ele>264.3</ele><time>1970-01-01T00:21:26.000Z</time></trkpt><trkpt lat="14.697433" lon="101.181118"><ele>266</ele><time>1970-01-01T00:21:28.000Z</time></trkpt><trkpt lat="14.6974" lon="101.181121"><ele>265.9</ele><time>1970-01-01T00:21:30.000Z</time></trkpt><trkpt lat="14.697363" lon="101.181128"><ele>267.8</ele><time>1970-01-01T00:21:32.000Z</time></trkpt><trkpt lat="14.697332" lon="101.181124"><ele>269.7</ele><time>1970-01-01T00:21:34.000Z</time></trkpt><trkpt lat="14.697293" lon="101.181122"><ele>271.4</ele><time>1970-01-01T00:21:37.000Z</time></trkpt><trkpt lat="14.697272" lon="101.181072"><ele>271.3</ele><time>1970-01-01T00:21:56.000Z</time></trkpt><trkpt lat="14.697285" lon="101.181048"><ele>271.3</ele><time>1970-01-01T00:22:00.000Z</time></trkpt><trkpt lat="14.6973" lon="101.181023"><ele>271.1</ele><time>1970-01-01T00:22:03.000Z</time></trkpt><trkpt lat="14.697322" lon="101.180996"><ele>269.5</ele><time>1970-01-01T00:22:06.000Z</time></trkpt><trkpt lat="14.697341" lon="101.18097"><ele>269.4</ele><time>1970-01-01T00:22:09.000Z</time></trkpt><trkpt lat="14.697345" lon="101.180939"><ele>269.2</ele><time>1970-01-01T00:22:12.000Z</time></trkpt><trkpt lat="14.697347" lon="101.180911"><ele>269.2</ele><time>1970-01-01T00:22:15.000Z</time></trkpt><trkpt lat="14.69735" lon="101.180877"><ele>269.1</ele><time>1970-01-01T00:22:18.000Z</time></trkpt><trkpt lat="14.697352" lon="101.180846"><ele>269</ele><time>1970-01-01T00:22:21.000Z</time></trkpt><trkpt lat="14.697352" lon="101.180811"><ele>268.9</ele><time>1970-01-01T00:22:24.000Z</time></trkpt><trkpt lat="14.697344" lon="101.18078"><ele>268.9</ele><time>1970-01-01T00:22:41.000Z</time></trkpt><trkpt lat="14.697346" lon="101.180748"><ele>268.7</ele><time>1970-01-01T00:22:43.000Z</time></trkpt><trkpt lat="14.697353" lon="101.180698"><ele>268.5</ele><time>1970-01-01T00:22:45.000Z</time></trkpt><trkpt lat="14.697355" lon="101.180669"><ele>267.3</ele><time>1970-01-01T00:22:46.000Z</time></trkpt><trkpt lat="14.697356" lon="101.180639"><ele>267.2</ele><time>1970-01-01T00:22:47.000Z</time></trkpt><trkpt lat="14.697356" lon="101.180611"><ele>267.1</ele><time>1970-01-01T00:22:48.000Z</time></trkpt><trkpt lat="14.697381" lon="101.180566"><ele>267.1</ele><time>1970-01-01T00:22:50.000Z</time></trkpt><trkpt lat="14.697421" lon="101.180553"><ele>266.4</ele><time>1970-01-01T00:22:51.000Z</time></trkpt><trkpt lat="14.6975" lon="101.180571"><ele>264.4</ele><time>1970-01-01T00:22:52.000Z</time></trkpt><trkpt lat="14.697555" lon="101.180566"><ele>263.3</ele><time>1970-01-01T00:22:53.000Z</time></trkpt><trkpt lat="14.697615" lon="101.180542"><ele>261.7</ele><time>1970-01-01T00:22:54.000Z</time></trkpt><trkpt lat="14.697675" lon="101.180527"><ele>260.6</ele><time>1970-01-01T00:22:55.000Z</time></trkpt><trkpt lat="14.697725" lon="101.180523"><ele>259.6</ele><time>1970-01-01T00:22:56.000Z</time></trkpt><trkpt lat="14.697697" lon="101.180524"><ele>259.6</ele><time>1970-01-01T00:23:06.000Z</time></trkpt><trkpt lat="14.697663" lon="101.180513"><ele>261.1</ele><time>1970-01-01T00:23:09.000Z</time></trkpt><trkpt lat="14.697634" lon="101.1805"><ele>262.1</ele><time>1970-01-01T00:23:12.000Z</time></trkpt><trkpt lat="14.697618" lon="101.180471"><ele>262.6</ele><time>1970-01-01T00:23:15.000Z</time></trkpt><trkpt lat="14.69761" lon="101.180437"><ele>262.6</ele><time>1970-01-01T00:23:18.000Z</time></trkpt><trkpt lat="14.697606" lon="101.180406"><ele>263.1</ele><time>1970-01-01T00:23:21.000Z</time></trkpt><trkpt lat="14.697611" lon="101.180374"><ele>263.6</ele><time>1970-01-01T00:23:33.000Z</time></trkpt><trkpt lat="14.69762" lon="101.180343"><ele>263.9</ele><time>1970-01-01T00:23:35.000Z</time></trkpt><trkpt lat="14.697618" lon="101.180306"><ele>263.9</ele><time>1970-01-01T00:23:37.000Z</time></trkpt><trkpt lat="14.697612" lon="101.180275"><ele>264.1</ele><time>1970-01-01T00:23:39.000Z</time></trkpt><trkpt lat="14.697608" lon="101.180234"><ele>264.2</ele><time>1970-01-01T00:23:42.000Z</time></trkpt><trkpt lat="14.697609" lon="101.180199"><ele>264.3</ele><time>1970-01-01T00:23:44.000Z</time></trkpt><trkpt lat="14.697609" lon="101.180166"><ele>264.2</ele><time>1970-01-01T00:23:46.000Z</time></trkpt><trkpt lat="14.697606" lon="101.180135"><ele>264.2</ele><time>1970-01-01T00:23:48.000Z</time></trkpt><trkpt lat="14.6976" lon="101.1801"><ele>265.1</ele><time>1970-01-01T00:23:50.000Z</time></trkpt><trkpt lat="14.69759" lon="101.180059"><ele>265.1</ele><time>1970-01-01T00:23:52.000Z</time></trkpt><trkpt lat="14.697579" lon="101.180022"><ele>265.3</ele><time>1970-01-01T00:23:54.000Z</time></trkpt><trkpt lat="14.697569" lon="101.179984"><ele>265.7</ele><time>1970-01-01T00:23:57.000Z</time></trkpt><trkpt lat="14.697567" lon="101.179952"><ele>266.2</ele><time>1970-01-01T00:23:59.000Z</time></trkpt><trkpt lat="14.697567" lon="101.17991"><ele>266.9</ele><time>1970-01-01T00:24:01.000Z</time></trkpt><trkpt lat="14.69757" lon="101.179864"><ele>267.6</ele><time>1970-01-01T00:24:03.000Z</time></trkpt><trkpt lat="14.697587" lon="101.179818"><ele>268.4</ele><time>1970-01-01T00:24:05.000Z</time></trkpt><trkpt lat="14.69762" lon="101.179789"><ele>268.1</ele><time>1970-01-01T00:24:07.000Z</time></trkpt><trkpt lat="14.697656" lon="101.179775"><ele>266.9</ele><time>1970-01-01T00:24:09.000Z</time></trkpt><trkpt lat="14.697683" lon="101.179767"><ele>266.9</ele><time>1970-01-01T00:24:10.000Z</time></trkpt><trkpt lat="14.697716" lon="101.179761"><ele>265.8</ele><time>1970-01-01T00:24:11.000Z</time></trkpt><trkpt lat="14.697754" lon="101.179757"><ele>264.6</ele><time>1970-01-01T00:24:12.000Z</time></trkpt><trkpt lat="14.697796" lon="101.179755"><ele>263.5</ele><time>1970-01-01T00:24:13.000Z</time></trkpt><trkpt lat="14.697854" lon="101.179762"><ele>261.5</ele><time>1970-01-01T00:24:14.000Z</time></trkpt><trkpt lat="14.697902" lon="101.179747"><ele>261.6</ele><time>1970-01-01T00:24:15.000Z</time></trkpt><trkpt lat="14.697945" lon="101.179721"><ele>260.8</ele><time>1970-01-01T00:24:16.000Z</time></trkpt><trkpt lat="14.69799" lon="101.179704"><ele>261</ele><time>1970-01-01T00:24:17.000Z</time></trkpt><trkpt lat="14.698036" lon="101.179683"><ele>260.5</ele><time>1970-01-01T00:24:18.000Z</time></trkpt><trkpt lat="14.698079" lon="101.179665"><ele>260.2</ele><time>1970-01-01T00:24:19.000Z</time></trkpt><trkpt lat="14.698121" lon="101.17965"><ele>261</ele><time>1970-01-01T00:24:20.000Z</time></trkpt><trkpt lat="14.698163" lon="101.179642"><ele>260.8</ele><time>1970-01-01T00:24:21.000Z</time></trkpt><trkpt lat="14.698207" lon="101.179634"><ele>260.6</ele><time>1970-01-01T00:24:22.000Z</time></trkpt><trkpt lat="14.698247" lon="101.179622"><ele>260.5</ele><time>1970-01-01T00:24:23.000Z</time></trkpt><trkpt lat="14.698285" lon="101.179608"><ele>262.1</ele><time>1970-01-01T00:24:24.000Z</time></trkpt><trkpt lat="14.698326" lon="101.179596"><ele>262.3</ele><time>1970-01-01T00:24:25.000Z</time></trkpt><trkpt lat="14.698365" lon="101.179591"><ele>262.6</ele><time>1970-01-01T00:24:26.000Z</time></trkpt><trkpt lat="14.698404" lon="101.179584"><ele>262.9</ele><time>1970-01-01T00:24:27.000Z</time></trkpt><trkpt lat="14.698447" lon="101.179574"><ele>264.7</ele><time>1970-01-01T00:24:28.000Z</time></trkpt><trkpt lat="14.698483" lon="101.179567"><ele>264.8</ele><time>1970-01-01T00:24:29.000Z</time></trkpt><trkpt lat="14.698525" lon="101.179558"><ele>264.8</ele><time>1970-01-01T00:24:30.000Z</time></trkpt><trkpt lat="14.698579" lon="101.179547"><ele>264.7</ele><time>1970-01-01T00:24:31.000Z</time></trkpt><trkpt lat="14.698638" lon="101.179536"><ele>264.6</ele><time>1970-01-01T00:24:32.000Z</time></trkpt><trkpt lat="14.6987" lon="101.179524"><ele>265.6</ele><time>1970-01-01T00:24:33.000Z</time></trkpt><trkpt lat="14.698765" lon="101.179507"><ele>264.7</ele><time>1970-01-01T00:24:34.000Z</time></trkpt><trkpt lat="14.698826" lon="101.179503"><ele>264</ele><time>1970-01-01T00:24:35.000Z</time></trkpt><trkpt lat="14.698885" lon="101.179501"><ele>263.2</ele><time>1970-01-01T00:24:36.000Z</time></trkpt><trkpt lat="14.698948" lon="101.179499"><ele>261.6</ele><time>1970-01-01T00:24:37.000Z</time></trkpt><trkpt lat="14.69901" lon="101.179502"><ele>261</ele><time>1970-01-01T00:24:38.000Z</time></trkpt><trkpt lat="14.699071" lon="101.179516"><ele>260.1</ele><time>1970-01-01T00:24:39.000Z</time></trkpt><trkpt lat="14.699143" lon="101.179543"><ele>258</ele><time>1970-01-01T00:24:40.000Z</time></trkpt><trkpt lat="14.699207" lon="101.179569"><ele>257.5</ele><time>1970-01-01T00:24:41.000Z</time></trkpt><trkpt lat="14.699287" lon="101.179601"><ele>255.9</ele><time>1970-01-01T00:24:42.000Z</time></trkpt><trkpt lat="14.699371" lon="101.179626"><ele>254.3</ele><time>1970-01-01T00:24:43.000Z</time></trkpt><trkpt lat="14.699451" lon="101.179625"><ele>253.4</ele><time>1970-01-01T00:24:44.000Z</time></trkpt><trkpt lat="14.699521" lon="101.179597"><ele>254</ele><time>1970-01-01T00:24:45.000Z</time></trkpt><trkpt lat="14.699588" lon="101.179574"><ele>254.8</ele><time>1970-01-01T00:24:46.000Z</time></trkpt><trkpt lat="14.699652" lon="101.179552"><ele>254.3</ele><time>1970-01-01T00:24:47.000Z</time></trkpt><trkpt lat="14.699711" lon="101.179531"><ele>255.1</ele><time>1970-01-01T00:24:48.000Z</time></trkpt><trkpt lat="14.69976" lon="101.179503"><ele>254.8</ele><time>1970-01-01T00:24:49.000Z</time></trkpt><trkpt lat="14.699828" lon="101.179467"><ele>254.5</ele><time>1970-01-01T00:24:50.000Z</time></trkpt><trkpt lat="14.699904" lon="101.179431"><ele>253.7</ele><time>1970-01-01T00:24:51.000Z</time></trkpt><trkpt lat="14.699974" lon="101.179403"><ele>252.8</ele><time>1970-01-01T00:24:52.000Z</time></trkpt><trkpt lat="14.700039" lon="101.179366"><ele>252.1</ele><time>1970-01-01T00:24:53.000Z</time></trkpt><trkpt lat="14.700103" lon="101.179315"><ele>251.1</ele><time>1970-01-01T00:24:54.000Z</time></trkpt><trkpt lat="14.700146" lon="101.179266"><ele>250.3</ele><time>1970-01-01T00:24:55.000Z</time></trkpt><trkpt lat="14.700209" lon="101.179214"><ele>249.4</ele><time>1970-01-01T00:24:56.000Z</time></trkpt><trkpt lat="14.700275" lon="101.179163"><ele>247.9</ele><time>1970-01-01T00:24:57.000Z</time></trkpt><trkpt lat="14.700334" lon="101.179108"><ele>247.3</ele><time>1970-01-01T00:24:58.000Z</time></trkpt><trkpt lat="14.700379" lon="101.179029"><ele>246.3</ele><time>1970-01-01T00:24:59.000Z</time></trkpt><trkpt lat="14.700406" lon="101.178951"><ele>244.5</ele><time>1970-01-01T00:25:00.000Z</time></trkpt><trkpt lat="14.700423" lon="101.178865"><ele>243.9</ele><time>1970-01-01T00:25:01.000Z</time></trkpt><trkpt lat="14.70043" lon="101.178784"><ele>242.7</ele><time>1970-01-01T00:25:02.000Z</time></trkpt><trkpt lat="14.70043" lon="101.1787"><ele>242.7</ele><time>1970-01-01T00:25:03.000Z</time></trkpt><trkpt lat="14.700423" lon="101.17863"><ele>243.3</ele><time>1970-01-01T00:25:04.000Z</time></trkpt><trkpt lat="14.700428" lon="101.178552"><ele>242.1</ele><time>1970-01-01T00:25:05.000Z</time></trkpt><trkpt lat="14.700443" lon="101.17847"><ele>241.5</ele><time>1970-01-01T00:25:06.000Z</time></trkpt><trkpt lat="14.700479" lon="101.17839"><ele>240</ele><time>1970-01-01T00:25:07.000Z</time></trkpt><trkpt lat="14.700527" lon="101.178321"><ele>237.7</ele><time>1970-01-01T00:25:08.000Z</time></trkpt><trkpt lat="14.700562" lon="101.178255"><ele>236.7</ele><time>1970-01-01T00:25:09.000Z</time></trkpt><trkpt lat="14.7006" lon="101.178184"><ele>236.2</ele><time>1970-01-01T00:25:10.000Z</time></trkpt><trkpt lat="14.700619" lon="101.178138"><ele>236.4</ele><time>1970-01-01T00:25:12.000Z</time></trkpt><trkpt lat="14.700635" lon="101.178114"><ele>236.2</ele><time>1970-01-01T00:25:16.000Z</time></trkpt><trkpt lat="14.700634" lon="101.178082"><ele>236.1</ele><time>1970-01-01T00:25:23.000Z</time></trkpt><trkpt lat="14.700629" lon="101.178054"><ele>236.9</ele><time>1970-01-01T00:25:26.000Z</time></trkpt><trkpt lat="14.700637" lon="101.178005"><ele>236.7</ele><time>1970-01-01T00:25:29.000Z</time></trkpt><trkpt lat="14.700679" lon="101.177978"><ele>236.6</ele><time>1970-01-01T00:25:31.000Z</time></trkpt><trkpt lat="14.700711" lon="101.177993"><ele>236.2</ele><time>1970-01-01T00:25:32.000Z</time></trkpt><trkpt lat="14.700743" lon="101.178027"><ele>235.6</ele><time>1970-01-01T00:25:33.000Z</time></trkpt><trkpt lat="14.700778" lon="101.178128"><ele>234.3</ele><time>1970-01-01T00:25:34.000Z</time></trkpt><trkpt lat="14.700808" lon="101.178182"><ele>233.5</ele><time>1970-01-01T00:25:35.000Z</time></trkpt><trkpt lat="14.700836" lon="101.178232"><ele>233.5</ele><time>1970-01-01T00:25:36.000Z</time></trkpt><trkpt lat="14.700864" lon="101.178285"><ele>233.1</ele><time>1970-01-01T00:25:37.000Z</time></trkpt><trkpt lat="14.700887" lon="101.178335"><ele>232.8</ele><time>1970-01-01T00:25:38.000Z</time></trkpt><trkpt lat="14.700907" lon="101.178385"><ele>232.5</ele><time>1970-01-01T00:25:39.000Z</time></trkpt><trkpt lat="14.700923" lon="101.178439"><ele>232.6</ele><time>1970-01-01T00:25:40.000Z</time></trkpt><trkpt lat="14.700933" lon="101.178493"><ele>232.9</ele><time>1970-01-01T00:25:41.000Z</time></trkpt><trkpt lat="14.700938" lon="101.178546"><ele>233.4</ele><time>1970-01-01T00:25:42.000Z</time></trkpt><trkpt lat="14.700943" lon="101.178599"><ele>234</ele><time>1970-01-01T00:25:43.000Z</time></trkpt><trkpt lat="14.700947" lon="101.178649"><ele>234.5</ele><time>1970-01-01T00:25:44.000Z</time></trkpt><trkpt lat="14.700951" lon="101.178699"><ele>235</ele><time>1970-01-01T00:25:45.000Z</time></trkpt><trkpt lat="14.700955" lon="101.178747"><ele>235.5</ele><time>1970-01-01T00:25:46.000Z</time></trkpt><trkpt lat="14.700951" lon="101.178796"><ele>235.9</ele><time>1970-01-01T00:25:47.000Z</time></trkpt><trkpt lat="14.700951" lon="101.178849"><ele>236.1</ele><time>1970-01-01T00:25:48.000Z</time></trkpt><trkpt lat="14.700945" lon="101.178896"><ele>236.2</ele><time>1970-01-01T00:25:49.000Z</time></trkpt><trkpt lat="14.700941" lon="101.178943"><ele>236.2</ele><time>1970-01-01T00:25:50.000Z</time></trkpt><trkpt lat="14.700941" lon="101.178998"><ele>236.2</ele><time>1970-01-01T00:25:51.000Z</time></trkpt><trkpt lat="14.700943" lon="101.179052"><ele>236.3</ele><time>1970-01-01T00:25:52.000Z</time></trkpt><trkpt lat="14.700942" lon="101.179103"><ele>236.5</ele><time>1970-01-01T00:25:53.000Z</time></trkpt><trkpt lat="14.700942" lon="101.179159"><ele>236.9</ele><time>1970-01-01T00:25:54.000Z</time></trkpt><trkpt lat="14.700942" lon="101.17921"><ele>237.1</ele><time>1970-01-01T00:25:55.000Z</time></trkpt><trkpt lat="14.700944" lon="101.179266"><ele>237.3</ele><time>1970-01-01T00:25:56.000Z</time></trkpt><trkpt lat="14.700948" lon="101.179312"><ele>237.3</ele><time>1970-01-01T00:25:57.000Z</time></trkpt><trkpt lat="14.700952" lon="101.179361"><ele>237.3</ele><time>1970-01-01T00:25:58.000Z</time></trkpt><trkpt lat="14.700955" lon="101.179406"><ele>237.2</ele><time>1970-01-01T00:25:59.000Z</time></trkpt><trkpt lat="14.700952" lon="101.179449"><ele>237.2</ele><time>1970-01-01T00:26:00.000Z</time></trkpt><trkpt lat="14.700949" lon="101.179485"><ele>237.3</ele><time>1970-01-01T00:26:01.000Z</time></trkpt><trkpt lat="14.700948" lon="101.179521"><ele>237.4</ele><time>1970-01-01T00:26:02.000Z</time></trkpt><trkpt lat="14.700948" lon="101.179555"><ele>237.4</ele><time>1970-01-01T00:26:03.000Z</time></trkpt><trkpt lat="14.70095" lon="101.179592"><ele>237.4</ele><time>1970-01-01T00:26:04.000Z</time></trkpt><trkpt lat="14.700952" lon="101.179632"><ele>237.3</ele><time>1970-01-01T00:26:05.000Z</time></trkpt><trkpt lat="14.70095" lon="101.179665"><ele>237.2</ele><time>1970-01-01T00:26:06.000Z</time></trkpt><trkpt lat="14.700939" lon="101.179707"><ele>237.1</ele><time>1970-01-01T00:26:07.000Z</time></trkpt><trkpt lat="14.700923" lon="101.179774"><ele>237</ele><time>1970-01-01T00:26:08.000Z</time></trkpt><trkpt lat="14.700934" lon="101.179814"><ele>236.9</ele><time>1970-01-01T00:26:09.000Z</time></trkpt><trkpt lat="14.700932" lon="101.17985"><ele>236.9</ele><time>1970-01-01T00:26:10.000Z</time></trkpt><trkpt lat="14.700929" lon="101.179889"><ele>236.9</ele><time>1970-01-01T00:26:11.000Z</time></trkpt><trkpt lat="14.700922" lon="101.179928"><ele>236.9</ele><time>1970-01-01T00:26:12.000Z</time></trkpt><trkpt lat="14.700919" lon="101.179967"><ele>236.9</ele><time>1970-01-01T00:26:13.000Z</time></trkpt><trkpt lat="14.700921" lon="101.180002"><ele>236.8</ele><time>1970-01-01T00:26:14.000Z</time></trkpt><trkpt lat="14.700921" lon="101.180045"><ele>236.7</ele><time>1970-01-01T00:26:15.000Z</time></trkpt><trkpt lat="14.700927" lon="101.180087"><ele>236.6</ele><time>1970-01-01T00:26:16.000Z</time></trkpt><trkpt lat="14.700967" lon="101.180154"><ele>236.5</ele><time>1970-01-01T00:26:17.000Z</time></trkpt><trkpt lat="14.701006" lon="101.180225"><ele>236.8</ele><time>1970-01-01T00:26:18.000Z</time></trkpt><trkpt lat="14.701046" lon="101.18029"><ele>236.9</ele><time>1970-01-01T00:26:19.000Z</time></trkpt><trkpt lat="14.701051" lon="101.180374"><ele>236.8</ele><time>1970-01-01T00:26:20.000Z</time></trkpt><trkpt lat="14.701046" lon="101.180449"><ele>236.6</ele><time>1970-01-01T00:26:21.000Z</time></trkpt><trkpt lat="14.701034" lon="101.18052"><ele>236.3</ele><time>1970-01-01T00:26:22.000Z</time></trkpt><trkpt lat="14.701032" lon="101.180575"><ele>236.2</ele><time>1970-01-01T00:26:23.000Z</time></trkpt><trkpt lat="14.701024" lon="101.180638"><ele>234.6</ele><time>1970-01-01T00:26:24.000Z</time></trkpt><trkpt lat="14.701024" lon="101.180697"><ele>234.3</ele><time>1970-01-01T00:26:25.000Z</time></trkpt><trkpt lat="14.70105" lon="101.180739"><ele>234.1</ele><time>1970-01-01T00:26:26.000Z</time></trkpt><trkpt lat="14.701114" lon="101.180763"><ele>233.9</ele><time>1970-01-01T00:26:27.000Z</time></trkpt><trkpt lat="14.701182" lon="101.18079"><ele>233.6</ele><time>1970-01-01T00:26:28.000Z</time></trkpt><trkpt lat="14.701247" lon="101.180822"><ele>233.1</ele><time>1970-01-01T00:26:29.000Z</time></trkpt><trkpt lat="14.70131" lon="101.180863"><ele>232.5</ele><time>1970-01-01T00:26:30.000Z</time></trkpt><trkpt lat="14.701379" lon="101.180899"><ele>232.3</ele><time>1970-01-01T00:26:31.000Z</time></trkpt><trkpt lat="14.701446" lon="101.180958"><ele>230.9</ele><time>1970-01-01T00:26:32.000Z</time></trkpt><trkpt lat="14.701514" lon="101.181009"><ele>230</ele><time>1970-01-01T00:26:33.000Z</time></trkpt><trkpt lat="14.70159" lon="101.181066"><ele>228.5</ele><time>1970-01-01T00:26:34.000Z</time></trkpt><trkpt lat="14.701664" lon="101.181121"><ele>227.2</ele><time>1970-01-01T00:26:35.000Z</time></trkpt><trkpt lat="14.701747" lon="101.181187"><ele>226.1</ele><time>1970-01-01T00:26:36.000Z</time></trkpt><trkpt lat="14.701821" lon="101.181255"><ele>224.8</ele><time>1970-01-01T00:26:37.000Z</time></trkpt><trkpt lat="14.701896" lon="101.181316"><ele>222.9</ele><time>1970-01-01T00:26:38.000Z</time></trkpt><trkpt lat="14.70197" lon="101.181372"><ele>221.6</ele><time>1970-01-01T00:26:39.000Z</time></trkpt><trkpt lat="14.702042" lon="101.181428"><ele>221.1</ele><time>1970-01-01T00:26:40.000Z</time></trkpt><trkpt lat="14.702106" lon="101.181497"><ele>221.3</ele><time>1970-01-01T00:26:41.000Z</time></trkpt><trkpt lat="14.702172" lon="101.181553"><ele>221.9</ele><time>1970-01-01T00:26:42.000Z</time></trkpt><trkpt lat="14.702235" lon="101.181606"><ele>222.2</ele><time>1970-01-01T00:26:43.000Z</time></trkpt><trkpt lat="14.702299" lon="101.181655"><ele>222.2</ele><time>1970-01-01T00:26:44.000Z</time></trkpt><trkpt lat="14.702358" lon="101.181699"><ele>222.1</ele><time>1970-01-01T00:26:45.000Z</time></trkpt><trkpt lat="14.702411" lon="101.181744"><ele>222.1</ele><time>1970-01-01T00:26:46.000Z</time></trkpt><trkpt lat="14.702467" lon="101.181798"><ele>222.1</ele><time>1970-01-01T00:26:47.000Z</time></trkpt><trkpt lat="14.702522" lon="101.181845"><ele>222.2</ele><time>1970-01-01T00:26:48.000Z</time></trkpt><trkpt lat="14.702576" lon="101.181896"><ele>222.1</ele><time>1970-01-01T00:26:49.000Z</time></trkpt><trkpt lat="14.702634" lon="101.181941"><ele>222</ele><time>1970-01-01T00:26:50.000Z</time></trkpt><trkpt lat="14.702691" lon="101.181989"><ele>221.9</ele><time>1970-01-01T00:26:51.000Z</time></trkpt><trkpt lat="14.702753" lon="101.18204"><ele>222.1</ele><time>1970-01-01T00:26:52.000Z</time></trkpt><trkpt lat="14.702818" lon="101.182096"><ele>222.7</ele><time>1970-01-01T00:26:53.000Z</time></trkpt><trkpt lat="14.702878" lon="101.18215"><ele>222.9</ele><time>1970-01-01T00:26:54.000Z</time></trkpt><trkpt lat="14.702939" lon="101.18221"><ele>222.4</ele><time>1970-01-01T00:26:55.000Z</time></trkpt><trkpt lat="14.703001" lon="101.182268"><ele>222.2</ele><time>1970-01-01T00:26:56.000Z</time></trkpt><trkpt lat="14.70306" lon="101.182322"><ele>221.7</ele><time>1970-01-01T00:26:57.000Z</time></trkpt><trkpt lat="14.703117" lon="101.18237"><ele>221</ele><time>1970-01-01T00:26:58.000Z</time></trkpt><trkpt lat="14.703173" lon="101.182417"><ele>220.2</ele><time>1970-01-01T00:26:59.000Z</time></trkpt><trkpt lat="14.703217" lon="101.182448"><ele>220.1</ele><time>1970-01-01T00:27:00.000Z</time></trkpt><trkpt lat="14.703263" lon="101.182495"><ele>219.8</ele><time>1970-01-01T00:27:01.000Z</time></trkpt><trkpt lat="14.70331" lon="101.182546"><ele>219.5</ele><time>1970-01-01T00:27:02.000Z</time></trkpt><trkpt lat="14.703358" lon="101.182591"><ele>219.3</ele><time>1970-01-01T00:27:03.000Z</time></trkpt><trkpt lat="14.703402" lon="101.182637"><ele>219</ele><time>1970-01-01T00:27:04.000Z</time></trkpt><trkpt lat="14.703441" lon="101.182697"><ele>218.5</ele><time>1970-01-01T00:27:05.000Z</time></trkpt><trkpt lat="14.703491" lon="101.182755"><ele>218</ele><time>1970-01-01T00:27:06.000Z</time></trkpt><trkpt lat="14.703554" lon="101.182805"><ele>217.3</ele><time>1970-01-01T00:27:07.000Z</time></trkpt><trkpt lat="14.703608" lon="101.182871"><ele>216.7</ele><time>1970-01-01T00:27:08.000Z</time></trkpt><trkpt lat="14.70366" lon="101.182926"><ele>216.4</ele><time>1970-01-01T00:27:09.000Z</time></trkpt><trkpt lat="14.703704" lon="101.182983"><ele>216.1</ele><time>1970-01-01T00:27:10.000Z</time></trkpt><trkpt lat="14.703753" lon="101.183035"><ele>215.7</ele><time>1970-01-01T00:27:11.000Z</time></trkpt><trkpt lat="14.703798" lon="101.18309"><ele>215.4</ele><time>1970-01-01T00:27:12.000Z</time></trkpt><trkpt lat="14.703843" lon="101.183143"><ele>215.2</ele><time>1970-01-01T00:27:13.000Z</time></trkpt><trkpt lat="14.703895" lon="101.183193"><ele>215</ele><time>1970-01-01T00:27:14.000Z</time></trkpt><trkpt lat="14.703946" lon="101.18324"><ele>214.8</ele><time>1970-01-01T00:27:15.000Z</time></trkpt><trkpt lat="14.704007" lon="101.183284"><ele>214.8</ele><time>1970-01-01T00:27:16.000Z</time></trkpt><trkpt lat="14.704064" lon="101.183336"><ele>214.8</ele><time>1970-01-01T00:27:17.000Z</time></trkpt><trkpt lat="14.704115" lon="101.183382"><ele>214.8</ele><time>1970-01-01T00:27:18.000Z</time></trkpt><trkpt lat="14.704162" lon="101.183432"><ele>214.7</ele><time>1970-01-01T00:27:19.000Z</time></trkpt><trkpt lat="14.70421" lon="101.183483"><ele>214.9</ele><time>1970-01-01T00:27:20.000Z</time></trkpt><trkpt lat="14.704256" lon="101.183539"><ele>215</ele><time>1970-01-01T00:27:21.000Z</time></trkpt><trkpt lat="14.704308" lon="101.183589"><ele>215.1</ele><time>1970-01-01T00:27:22.000Z</time></trkpt><trkpt lat="14.704351" lon="101.183639"><ele>215.1</ele><time>1970-01-01T00:27:23.000Z</time></trkpt><trkpt lat="14.704393" lon="101.183686"><ele>215.1</ele><time>1970-01-01T00:27:24.000Z</time></trkpt><trkpt lat="14.704434" lon="101.183731"><ele>215.1</ele><time>1970-01-01T00:27:25.000Z</time></trkpt><trkpt lat="14.704463" lon="101.183764"><ele>215.1</ele><time>1970-01-01T00:27:26.000Z</time></trkpt><trkpt lat="14.704483" lon="101.183784"><ele>215.1</ele><time>1970-01-01T00:27:27.000Z</time></trkpt><trkpt lat="14.704511" lon="101.183805"><ele>215.1</ele><time>1970-01-01T00:27:28.000Z</time></trkpt><trkpt lat="14.704537" lon="101.183832"><ele>215</ele><time>1970-01-01T00:27:29.000Z</time></trkpt><trkpt lat="14.704567" lon="101.183856"><ele>214.9</ele><time>1970-01-01T00:27:30.000Z</time></trkpt><trkpt lat="14.704585" lon="101.18388"><ele>214.8</ele><time>1970-01-01T00:27:31.000Z</time></trkpt><trkpt lat="14.704613" lon="101.183901"><ele>214.8</ele><time>1970-01-01T00:27:32.000Z</time></trkpt><trkpt lat="14.704646" lon="101.183921"><ele>214.7</ele><time>1970-01-01T00:27:33.000Z</time></trkpt><trkpt lat="14.704685" lon="101.183967"><ele>214.8</ele><time>1970-01-01T00:27:34.000Z</time></trkpt><trkpt lat="14.704723" lon="101.184002"><ele>214.9</ele><time>1970-01-01T00:27:35.000Z</time></trkpt><trkpt lat="14.704767" lon="101.184043"><ele>214.8</ele><time>1970-01-01T00:27:36.000Z</time></trkpt><trkpt lat="14.704812" lon="101.184143"><ele>213.2</ele><time>1970-01-01T00:27:37.000Z</time></trkpt><trkpt lat="14.704869" lon="101.184181"><ele>212.1</ele><time>1970-01-01T00:27:38.000Z</time></trkpt><trkpt lat="14.704912" lon="101.184227"><ele>211.5</ele><time>1970-01-01T00:27:39.000Z</time></trkpt><trkpt lat="14.704965" lon="101.184276"><ele>211</ele><time>1970-01-01T00:27:40.000Z</time></trkpt><trkpt lat="14.705017" lon="101.18432"><ele>210.3</ele><time>1970-01-01T00:27:41.000Z</time></trkpt><trkpt lat="14.705072" lon="101.18436"><ele>209.6</ele><time>1970-01-01T00:27:42.000Z</time></trkpt><trkpt lat="14.705128" lon="101.18441"><ele>208.8</ele><time>1970-01-01T00:27:43.000Z</time></trkpt><trkpt lat="14.70519" lon="101.184459"><ele>208.1</ele><time>1970-01-01T00:27:44.000Z</time></trkpt><trkpt lat="14.705253" lon="101.184503"><ele>207.5</ele><time>1970-01-01T00:27:45.000Z</time></trkpt><trkpt lat="14.705323" lon="101.184534"><ele>206.6</ele><time>1970-01-01T00:27:46.000Z</time></trkpt><trkpt lat="14.705381" lon="101.184559"><ele>206.2</ele><time>1970-01-01T00:27:47.000Z</time></trkpt><trkpt lat="14.705432" lon="101.184562"><ele>205.8</ele><time>1970-01-01T00:27:48.000Z</time></trkpt><trkpt lat="14.705473" lon="101.184528"><ele>205.4</ele><time>1970-01-01T00:27:49.000Z</time></trkpt><trkpt lat="14.705504" lon="101.18449"><ele>205.2</ele><time>1970-01-01T00:27:50.000Z</time></trkpt><trkpt lat="14.705524" lon="101.184442"><ele>205.1</ele><time>1970-01-01T00:27:51.000Z</time></trkpt><trkpt lat="14.705563" lon="101.184396"><ele>205</ele><time>1970-01-01T00:27:52.000Z</time></trkpt><trkpt lat="14.705584" lon="101.184343"><ele>205</ele><time>1970-01-01T00:27:53.000Z</time></trkpt><trkpt lat="14.705586" lon="101.18429"><ele>204.8</ele><time>1970-01-01T00:27:54.000Z</time></trkpt><trkpt lat="14.70561" lon="101.184227"><ele>204.3</ele><time>1970-01-01T00:27:55.000Z</time></trkpt><trkpt lat="14.705634" lon="101.184164"><ele>203.8</ele><time>1970-01-01T00:27:56.000Z</time></trkpt><trkpt lat="14.705668" lon="101.184114"><ele>204</ele><time>1970-01-01T00:27:57.000Z</time></trkpt><trkpt lat="14.705694" lon="101.184056"><ele>204.5</ele><time>1970-01-01T00:27:58.000Z</time></trkpt><trkpt lat="14.705724" lon="101.18399"><ele>205</ele><time>1970-01-01T00:27:59.000Z</time></trkpt><trkpt lat="14.705734" lon="101.183942"><ele>205.6</ele><time>1970-01-01T00:28:00.000Z</time></trkpt><trkpt lat="14.705751" lon="101.183876"><ele>206.4</ele><time>1970-01-01T00:28:01.000Z</time></trkpt><trkpt lat="14.705763" lon="101.183812"><ele>206.9</ele><time>1970-01-01T00:28:02.000Z</time></trkpt><trkpt lat="14.705786" lon="101.183756"><ele>206.7</ele><time>1970-01-01T00:28:03.000Z</time></trkpt><trkpt lat="14.705817" lon="101.183706"><ele>206.5</ele><time>1970-01-01T00:28:04.000Z</time></trkpt><trkpt lat="14.705841" lon="101.183652"><ele>206.3</ele><time>1970-01-01T00:28:05.000Z</time></trkpt><trkpt lat="14.705862" lon="101.183605"><ele>206.3</ele><time>1970-01-01T00:28:06.000Z</time></trkpt><trkpt lat="14.705884" lon="101.183547"><ele>206.2</ele><time>1970-01-01T00:28:07.000Z</time></trkpt><trkpt lat="14.705914" lon="101.1835"><ele>206.2</ele><time>1970-01-01T00:28:08.000Z</time></trkpt><trkpt lat="14.705934" lon="101.183469"><ele>206.3</ele><time>1970-01-01T00:28:09.000Z</time></trkpt><trkpt lat="14.705961" lon="101.183445"><ele>206.3</ele><time>1970-01-01T00:28:10.000Z</time></trkpt><trkpt lat="14.706005" lon="101.183443"><ele>206.2</ele><time>1970-01-01T00:28:12.000Z</time></trkpt><trkpt lat="14.706041" lon="101.183453"><ele>206.2</ele><time>1970-01-01T00:28:14.000Z</time></trkpt><trkpt lat="14.706088" lon="101.183474"><ele>206.2</ele><time>1970-01-01T00:28:16.000Z</time></trkpt><trkpt lat="14.706126" lon="101.183486"><ele>206.2</ele><time>1970-01-01T00:28:17.000Z</time></trkpt><trkpt lat="14.706164" lon="101.183497"><ele>206.4</ele><time>1970-01-01T00:28:18.000Z</time></trkpt><trkpt lat="14.706199" lon="101.183509"><ele>206.4</ele><time>1970-01-01T00:28:19.000Z</time></trkpt><trkpt lat="14.706234" lon="101.183526"><ele>206.5</ele><time>1970-01-01T00:28:20.000Z</time></trkpt><trkpt lat="14.706267" lon="101.183544"><ele>206.5</ele><time>1970-01-01T00:28:21.000Z</time></trkpt><trkpt lat="14.706297" lon="101.18356"><ele>206.5</ele><time>1970-01-01T00:28:22.000Z</time></trkpt><trkpt lat="14.706323" lon="101.183573"><ele>206.5</ele><time>1970-01-01T00:28:23.000Z</time></trkpt><trkpt lat="14.706368" lon="101.183595"><ele>206.6</ele><time>1970-01-01T00:28:25.000Z</time></trkpt><trkpt lat="14.706401" lon="101.183605"><ele>206.5</ele><time>1970-01-01T00:28:27.000Z</time></trkpt><trkpt lat="14.706375" lon="101.183585"><ele>206.5</ele><time>1970-01-01T00:28:31.000Z</time></trkpt><trkpt lat="14.706347" lon="101.183579"><ele>206.4</ele><time>1970-01-01T00:28:32.000Z</time></trkpt><trkpt lat="14.706315" lon="101.183566"><ele>206.4</ele><time>1970-01-01T00:28:33.000Z</time></trkpt><trkpt lat="14.706281" lon="101.183546"><ele>206.4</ele><time>1970-01-01T00:28:34.000Z</time></trkpt><trkpt lat="14.706244" lon="101.183523"><ele>206.5</ele><time>1970-01-01T00:28:35.000Z</time></trkpt><trkpt lat="14.706205" lon="101.183501"><ele>206.4</ele><time>1970-01-01T00:28:36.000Z</time></trkpt><trkpt lat="14.706166" lon="101.183481"><ele>206.4</ele><time>1970-01-01T00:28:37.000Z</time></trkpt><trkpt lat="14.706129" lon="101.183465"><ele>206.3</ele><time>1970-01-01T00:28:38.000Z</time></trkpt><trkpt lat="14.706092" lon="101.18345"><ele>206.2</ele><time>1970-01-01T00:28:39.000Z</time></trkpt><trkpt lat="14.706056" lon="101.183436"><ele>206.2</ele><time>1970-01-01T00:28:40.000Z</time></trkpt><trkpt lat="14.706022" lon="101.183422"><ele>206.2</ele><time>1970-01-01T00:28:41.000Z</time></trkpt><trkpt lat="14.705996" lon="101.183407"><ele>206.2</ele><time>1970-01-01T00:28:42.000Z</time></trkpt><trkpt lat="14.705972" lon="101.183367"><ele>206.6</ele><time>1970-01-01T00:28:44.000Z</time></trkpt><trkpt lat="14.705978" lon="101.18334"><ele>206.7</ele><time>1970-01-01T00:28:45.000Z</time></trkpt><trkpt lat="14.705995" lon="101.183312"><ele>207</ele><time>1970-01-01T00:28:46.000Z</time></trkpt><trkpt lat="14.706021" lon="101.18328"><ele>207.1</ele><time>1970-01-01T00:28:47.000Z</time></trkpt><trkpt lat="14.70605" lon="101.183249"><ele>207.2</ele><time>1970-01-01T00:28:48.000Z</time></trkpt><trkpt lat="14.706076" lon="101.183222"><ele>207.2</ele><time>1970-01-01T00:28:49.000Z</time></trkpt><trkpt lat="14.706097" lon="101.183198"><ele>207.2</ele><time>1970-01-01T00:28:50.000Z</time></trkpt><trkpt lat="14.706116" lon="101.183175"><ele>207.1</ele><time>1970-01-01T00:28:51.000Z</time></trkpt><trkpt lat="14.706136" lon="101.183151"><ele>206.9</ele><time>1970-01-01T00:28:52.000Z</time></trkpt><trkpt lat="14.706156" lon="101.183122"><ele>206.6</ele><time>1970-01-01T00:28:53.000Z</time></trkpt><trkpt lat="14.706172" lon="101.183094"><ele>206.4</ele><time>1970-01-01T00:28:54.000Z</time></trkpt><trkpt lat="14.706192" lon="101.183056"><ele>206</ele><time>1970-01-01T00:28:56.000Z</time></trkpt><trkpt lat="14.706211" lon="101.183017"><ele>205.6</ele><time>1970-01-01T00:28:58.000Z</time></trkpt><trkpt lat="14.706232" lon="101.18298"><ele>205.5</ele><time>1970-01-01T00:29:00.000Z</time></trkpt><trkpt lat="14.706255" lon="101.18293"><ele>205.3</ele><time>1970-01-01T00:29:02.000Z</time></trkpt><trkpt lat="14.706269" lon="101.182899"><ele>205.2</ele><time>1970-01-01T00:29:03.000Z</time></trkpt><trkpt lat="14.706292" lon="101.182862"><ele>205.1</ele><time>1970-01-01T00:29:04.000Z</time></trkpt><trkpt lat="14.706343" lon="101.182805"><ele>205</ele><time>1970-01-01T00:29:05.000Z</time></trkpt><trkpt lat="14.706374" lon="101.182764"><ele>204.9</ele><time>1970-01-01T00:29:06.000Z</time></trkpt><trkpt lat="14.706403" lon="101.182719"><ele>204.8</ele><time>1970-01-01T00:29:07.000Z</time></trkpt><trkpt lat="14.706432" lon="101.182667"><ele>204.7</ele><time>1970-01-01T00:29:08.000Z</time></trkpt><trkpt lat="14.70646" lon="101.182613"><ele>204.5</ele><time>1970-01-01T00:29:09.000Z</time></trkpt><trkpt lat="14.706484" lon="101.182565"><ele>204.3</ele><time>1970-01-01T00:29:10.000Z</time></trkpt><trkpt lat="14.706516" lon="101.182529"><ele>204.2</ele><time>1970-01-01T00:29:11.000Z</time></trkpt><trkpt lat="14.706544" lon="101.182505"><ele>204.2</ele><time>1970-01-01T00:29:12.000Z</time></trkpt><trkpt lat="14.706563" lon="101.182442"><ele>204.2</ele><time>1970-01-01T00:29:14.000Z</time></trkpt><trkpt lat="14.706568" lon="101.182406"><ele>204.1</ele><time>1970-01-01T00:29:15.000Z</time></trkpt><trkpt lat="14.706556" lon="101.182436"><ele>204</ele><time>1970-01-01T00:29:20.000Z</time></trkpt><trkpt lat="14.706551" lon="101.182465"><ele>203.9</ele><time>1970-01-01T00:29:21.000Z</time></trkpt><trkpt lat="14.706514" lon="101.182501"><ele>204.1</ele><time>1970-01-01T00:29:23.000Z</time></trkpt><trkpt lat="14.706496" lon="101.182526"><ele>204.2</ele><time>1970-01-01T00:29:24.000Z</time></trkpt><trkpt lat="14.706481" lon="101.182559"><ele>204.3</ele><time>1970-01-01T00:29:25.000Z</time></trkpt><trkpt lat="14.70647" lon="101.182591"><ele>204.2</ele><time>1970-01-01T00:29:26.000Z</time></trkpt><trkpt lat="14.706458" lon="101.182628"><ele>204.2</ele><time>1970-01-01T00:29:27.000Z</time></trkpt><trkpt lat="14.706441" lon="101.182667"><ele>204.4</ele><time>1970-01-01T00:29:28.000Z</time></trkpt><trkpt lat="14.706421" lon="101.182704"><ele>204.5</ele><time>1970-01-01T00:29:29.000Z</time></trkpt><trkpt lat="14.706403" lon="101.182736"><ele>204.6</ele><time>1970-01-01T00:29:30.000Z</time></trkpt><trkpt lat="14.70638" lon="101.182785"><ele>204.8</ele><time>1970-01-01T00:29:32.000Z</time></trkpt><trkpt lat="14.706362" lon="101.182817"><ele>204.9</ele><time>1970-01-01T00:29:33.000Z</time></trkpt><trkpt lat="14.706339" lon="101.182853"><ele>204.9</ele><time>1970-01-01T00:29:34.000Z</time></trkpt><trkpt lat="14.706316" lon="101.182889"><ele>205</ele><time>1970-01-01T00:29:35.000Z</time></trkpt><trkpt lat="14.706295" lon="101.182922"><ele>205</ele><time>1970-01-01T00:29:36.000Z</time></trkpt><trkpt lat="14.706274" lon="101.182952"><ele>205.1</ele><time>1970-01-01T00:29:37.000Z</time></trkpt><trkpt lat="14.706255" lon="101.182981"><ele>205.2</ele><time>1970-01-01T00:29:38.000Z</time></trkpt><trkpt lat="14.706239" lon="101.18301"><ele>205.4</ele><time>1970-01-01T00:29:39.000Z</time></trkpt><trkpt lat="14.706224" lon="101.183038"><ele>205.5</ele><time>1970-01-01T00:29:40.000Z</time></trkpt><trkpt lat="14.706209" lon="101.183068"><ele>205.7</ele><time>1970-01-01T00:29:41.000Z</time></trkpt><trkpt lat="14.706196" lon="101.183099"><ele>206</ele><time>1970-01-01T00:29:42.000Z</time></trkpt><trkpt lat="14.706181" lon="101.183132"><ele>206.3</ele><time>1970-01-01T00:29:43.000Z</time></trkpt><trkpt lat="14.706166" lon="101.183165"><ele>206.6</ele><time>1970-01-01T00:29:44.000Z</time></trkpt><trkpt lat="14.706151" lon="101.183196"><ele>206.9</ele><time>1970-01-01T00:29:45.000Z</time></trkpt><trkpt lat="14.706133" lon="101.183225"><ele>207.2</ele><time>1970-01-01T00:29:46.000Z</time></trkpt><trkpt lat="14.706109" lon="101.183251"><ele>207.2</ele><time>1970-01-01T00:29:47.000Z</time></trkpt><trkpt lat="14.706073" lon="101.183261"><ele>207.2</ele><time>1970-01-01T00:29:48.000Z</time></trkpt><trkpt lat="14.706034" lon="101.183255"><ele>207.3</ele><time>1970-01-01T00:29:49.000Z</time></trkpt><trkpt lat="14.706001" lon="101.183233"><ele>207.3</ele><time>1970-01-01T00:29:50.000Z</time></trkpt><trkpt lat="14.705977" lon="101.183205"><ele>207.3</ele><time>1970-01-01T00:29:51.000Z</time></trkpt><trkpt lat="14.705956" lon="101.183175"><ele>207.2</ele><time>1970-01-01T00:29:52.000Z</time></trkpt><trkpt lat="14.705937" lon="101.183145"><ele>207.1</ele><time>1970-01-01T00:29:53.000Z</time></trkpt><trkpt lat="14.705912" lon="101.183118"><ele>206.7</ele><time>1970-01-01T00:29:54.000Z</time></trkpt><trkpt lat="14.705887" lon="101.183093"><ele>206</ele><time>1970-01-01T00:29:55.000Z</time></trkpt><trkpt lat="14.705871" lon="101.183047"><ele>205.5</ele><time>1970-01-01T00:29:57.000Z</time></trkpt><trkpt lat="14.70588" lon="101.183017"><ele>205.5</ele><time>1970-01-01T00:29:58.000Z</time></trkpt><trkpt lat="14.705892" lon="101.182977"><ele>205</ele><time>1970-01-01T00:29:59.000Z</time></trkpt><trkpt lat="14.705902" lon="101.182934"><ele>204.7</ele><time>1970-01-01T00:30:00.000Z</time></trkpt><trkpt lat="14.705912" lon="101.182888"><ele>204.7</ele><time>1970-01-01T00:30:01.000Z</time></trkpt><trkpt lat="14.705939" lon="101.18282"><ele>204.9</ele><time>1970-01-01T00:30:02.000Z</time></trkpt><trkpt lat="14.705952" lon="101.182782"><ele>205.2</ele><time>1970-01-01T00:30:03.000Z</time></trkpt><trkpt lat="14.705967" lon="101.182742"><ele>205.4</ele><time>1970-01-01T00:30:04.000Z</time></trkpt><trkpt lat="14.705975" lon="101.182699"><ele>205.8</ele><time>1970-01-01T00:30:05.000Z</time></trkpt><trkpt lat="14.705991" lon="101.182656"><ele>206</ele><time>1970-01-01T00:30:06.000Z</time></trkpt><trkpt lat="14.706013" lon="101.182626"><ele>206</ele><time>1970-01-01T00:30:07.000Z</time></trkpt><trkpt lat="14.706027" lon="101.182591"><ele>206.8</ele><time>1970-01-01T00:30:08.000Z</time></trkpt><trkpt lat="14.706048" lon="101.18255"><ele>207.4</ele><time>1970-01-01T00:30:09.000Z</time></trkpt><trkpt lat="14.706062" lon="101.182505"><ele>208.2</ele><time>1970-01-01T00:30:10.000Z</time></trkpt><trkpt lat="14.706073" lon="101.182456"><ele>208.6</ele><time>1970-01-01T00:30:11.000Z</time></trkpt><trkpt lat="14.706081" lon="101.182421"><ele>209.1</ele><time>1970-01-01T00:30:12.000Z</time></trkpt><trkpt lat="14.706094" lon="101.182385"><ele>209.6</ele><time>1970-01-01T00:30:13.000Z</time></trkpt><trkpt lat="14.706114" lon="101.182333"><ele>209.3</ele><time>1970-01-01T00:30:15.000Z</time></trkpt><trkpt lat="14.706125" lon="101.182305"><ele>209.7</ele><time>1970-01-01T00:30:16.000Z</time></trkpt><trkpt lat="14.706132" lon="101.182273"><ele>210.2</ele><time>1970-01-01T00:30:17.000Z</time></trkpt><trkpt lat="14.706137" lon="101.182239"><ele>210.2</ele><time>1970-01-01T00:30:18.000Z</time></trkpt><trkpt lat="14.706146" lon="101.182209"><ele>210.9</ele><time>1970-01-01T00:30:19.000Z</time></trkpt><trkpt lat="14.706146" lon="101.182179"><ele>211.5</ele><time>1970-01-01T00:30:20.000Z</time></trkpt><trkpt lat="14.706146" lon="101.182137"><ele>212.1</ele><time>1970-01-01T00:30:22.000Z</time></trkpt><trkpt lat="14.706148" lon="101.182094"><ele>212.6</ele><time>1970-01-01T00:30:24.000Z</time></trkpt><trkpt lat="14.70615" lon="101.182047"><ele>212.9</ele><time>1970-01-01T00:30:26.000Z</time></trkpt><trkpt lat="14.706147" lon="101.181994"><ele>213.1</ele><time>1970-01-01T00:30:28.000Z</time></trkpt><trkpt lat="14.706145" lon="101.181963"><ele>213.2</ele><time>1970-01-01T00:30:29.000Z</time></trkpt><trkpt lat="14.706143" lon="101.181926"><ele>213.3</ele><time>1970-01-01T00:30:30.000Z</time></trkpt><trkpt lat="14.706143" lon="101.181892"><ele>213.3</ele><time>1970-01-01T00:30:31.000Z</time></trkpt><trkpt lat="14.706143" lon="101.181858"><ele>213.3</ele><time>1970-01-01T00:30:32.000Z</time></trkpt><trkpt lat="14.706143" lon="101.181825"><ele>213.2</ele><time>1970-01-01T00:30:33.000Z</time></trkpt><trkpt lat="14.706141" lon="101.181792"><ele>213.1</ele><time>1970-01-01T00:30:34.000Z</time></trkpt><trkpt lat="14.706135" lon="101.181756"><ele>213</ele><time>1970-01-01T00:30:35.000Z</time></trkpt><trkpt lat="14.70613" lon="101.181717"><ele>212.9</ele><time>1970-01-01T00:30:36.000Z</time></trkpt><trkpt lat="14.706156" lon="101.181662"><ele>211.7</ele><time>1970-01-01T00:30:37.000Z</time></trkpt><trkpt lat="14.706197" lon="101.18162"><ele>210.7</ele><time>1970-01-01T00:30:38.000Z</time></trkpt><trkpt lat="14.706245" lon="101.18159"><ele>209.4</ele><time>1970-01-01T00:30:39.000Z</time></trkpt><trkpt lat="14.706314" lon="101.181614"><ele>208.5</ele><time>1970-01-01T00:30:40.000Z</time></trkpt><trkpt lat="14.706372" lon="101.181604"><ele>206.6</ele><time>1970-01-01T00:30:41.000Z</time></trkpt><trkpt lat="14.706413" lon="101.181576"><ele>205.7</ele><time>1970-01-01T00:30:42.000Z</time></trkpt><trkpt lat="14.706431" lon="101.181526"><ele>205.6</ele><time>1970-01-01T00:30:43.000Z</time></trkpt><trkpt lat="14.706433" lon="101.181485"><ele>205.9</ele><time>1970-01-01T00:30:44.000Z</time></trkpt><trkpt lat="14.706426" lon="101.181446"><ele>206.2</ele><time>1970-01-01T00:30:45.000Z</time></trkpt><trkpt lat="14.706426" lon="101.181405"><ele>206.4</ele><time>1970-01-01T00:30:46.000Z</time></trkpt><trkpt lat="14.70642" lon="101.181368"><ele>206.5</ele><time>1970-01-01T00:30:47.000Z</time></trkpt><trkpt lat="14.706417" lon="101.181337"><ele>206.7</ele><time>1970-01-01T00:30:48.000Z</time></trkpt><trkpt lat="14.706415" lon="101.181307"><ele>206.9</ele><time>1970-01-01T00:30:49.000Z</time></trkpt><trkpt lat="14.706402" lon="101.181267"><ele>207.1</ele><time>1970-01-01T00:30:51.000Z</time></trkpt><trkpt lat="14.706399" lon="101.181231"><ele>207.9</ele><time>1970-01-01T00:30:52.000Z</time></trkpt><trkpt lat="14.706399" lon="101.181191"><ele>208.8</ele><time>1970-01-01T00:30:53.000Z</time></trkpt><trkpt lat="14.706398" lon="101.181153"><ele>209.5</ele><time>1970-01-01T00:30:54.000Z</time></trkpt><trkpt lat="14.706391" lon="101.181123"><ele>209.8</ele><time>1970-01-01T00:30:55.000Z</time></trkpt><trkpt lat="14.706378" lon="101.181064"><ele>210.3</ele><time>1970-01-01T00:30:57.000Z</time></trkpt><trkpt lat="14.706371" lon="101.181026"><ele>210.4</ele><time>1970-01-01T00:30:58.000Z</time></trkpt><trkpt lat="14.706368" lon="101.180987"><ele>210.5</ele><time>1970-01-01T00:30:59.000Z</time></trkpt><trkpt lat="14.706364" lon="101.180949"><ele>211</ele><time>1970-01-01T00:31:00.000Z</time></trkpt><trkpt lat="14.70636" lon="101.180909"><ele>211.5</ele><time>1970-01-01T00:31:01.000Z</time></trkpt><trkpt lat="14.706353" lon="101.180865"><ele>212.1</ele><time>1970-01-01T00:31:02.000Z</time></trkpt><trkpt lat="14.70635" lon="101.180808"><ele>212.6</ele><time>1970-01-01T00:31:03.000Z</time></trkpt><trkpt lat="14.706343" lon="101.18075"><ele>212.6</ele><time>1970-01-01T00:31:04.000Z</time></trkpt><trkpt lat="14.706341" lon="101.180687"><ele>212.9</ele><time>1970-01-01T00:31:05.000Z</time></trkpt><trkpt lat="14.706345" lon="101.180626"><ele>213.3</ele><time>1970-01-01T00:31:06.000Z</time></trkpt><trkpt lat="14.706359" lon="101.180567"><ele>213.7</ele><time>1970-01-01T00:31:07.000Z</time></trkpt><trkpt lat="14.706366" lon="101.180504"><ele>214</ele><time>1970-01-01T00:31:08.000Z</time></trkpt><trkpt lat="14.706376" lon="101.180449"><ele>214.1</ele><time>1970-01-01T00:31:09.000Z</time></trkpt><trkpt lat="14.706385" lon="101.180399"><ele>214.2</ele><time>1970-01-01T00:31:10.000Z</time></trkpt><trkpt lat="14.706375" lon="101.180337"><ele>214.2</ele><time>1970-01-01T00:31:11.000Z</time></trkpt><trkpt lat="14.706377" lon="101.180285"><ele>213.7</ele><time>1970-01-01T00:31:12.000Z</time></trkpt><trkpt lat="14.706389" lon="101.180253"><ele>213.5</ele><time>1970-01-01T00:31:13.000Z</time></trkpt><trkpt lat="14.706391" lon="101.180215"><ele>213.5</ele><time>1970-01-01T00:31:14.000Z</time></trkpt><trkpt lat="14.706411" lon="101.180151"><ele>213.5</ele><time>1970-01-01T00:31:15.000Z</time></trkpt><trkpt lat="14.706416" lon="101.180089"><ele>213.4</ele><time>1970-01-01T00:31:16.000Z</time></trkpt><trkpt lat="14.706418" lon="101.180044"><ele>213.4</ele><time>1970-01-01T00:31:17.000Z</time></trkpt><trkpt lat="14.706417" lon="101.180011"><ele>213.4</ele><time>1970-01-01T00:31:18.000Z</time></trkpt><trkpt lat="14.706421" lon="101.179973"><ele>213</ele><time>1970-01-01T00:31:19.000Z</time></trkpt><trkpt lat="14.706427" lon="101.17993"><ele>212.6</ele><time>1970-01-01T00:31:20.000Z</time></trkpt><trkpt lat="14.706431" lon="101.179896"><ele>212.6</ele><time>1970-01-01T00:31:21.000Z</time></trkpt><trkpt lat="14.706433" lon="101.17986"><ele>212.6</ele><time>1970-01-01T00:31:22.000Z</time></trkpt><trkpt lat="14.706437" lon="101.179829"><ele>212.6</ele><time>1970-01-01T00:31:23.000Z</time></trkpt><trkpt lat="14.706438" lon="101.179798"><ele>212.6</ele><time>1970-01-01T00:31:24.000Z</time></trkpt><trkpt lat="14.706442" lon="101.179758"><ele>212.6</ele><time>1970-01-01T00:31:25.000Z</time></trkpt><trkpt lat="14.706447" lon="101.179725"><ele>212.6</ele><time>1970-01-01T00:31:26.000Z</time></trkpt><trkpt lat="14.706454" lon="101.179678"><ele>212.9</ele><time>1970-01-01T00:31:27.000Z</time></trkpt><trkpt lat="14.706453" lon="101.179639"><ele>213.1</ele><time>1970-01-01T00:31:28.000Z</time></trkpt><trkpt lat="14.706457" lon="101.179595"><ele>213.3</ele><time>1970-01-01T00:31:29.000Z</time></trkpt><trkpt lat="14.706469" lon="101.179537"><ele>213.8</ele><time>1970-01-01T00:31:30.000Z</time></trkpt><trkpt lat="14.706476" lon="101.179482"><ele>214.4</ele><time>1970-01-01T00:31:31.000Z</time></trkpt><trkpt lat="14.706481" lon="101.179439"><ele>214.9</ele><time>1970-01-01T00:31:32.000Z</time></trkpt><trkpt lat="14.706488" lon="101.179384"><ele>215.5</ele><time>1970-01-01T00:31:33.000Z</time></trkpt><trkpt lat="14.706484" lon="101.179343"><ele>216.2</ele><time>1970-01-01T00:31:34.000Z</time></trkpt><trkpt lat="14.706491" lon="101.179285"><ele>216.7</ele><time>1970-01-01T00:31:35.000Z</time></trkpt><trkpt lat="14.70651" lon="101.179224"><ele>217.1</ele><time>1970-01-01T00:31:36.000Z</time></trkpt><trkpt lat="14.706534" lon="101.179176"><ele>217.5</ele><time>1970-01-01T00:31:37.000Z</time></trkpt><trkpt lat="14.70656" lon="101.17914"><ele>217.4</ele><time>1970-01-01T00:31:38.000Z</time></trkpt><trkpt lat="14.706592" lon="101.179121"><ele>217.2</ele><time>1970-01-01T00:31:39.000Z</time></trkpt><trkpt lat="14.706627" lon="101.179109"><ele>217.1</ele><time>1970-01-01T00:31:40.000Z</time></trkpt><trkpt lat="14.706674" lon="101.179123"><ele>217.1</ele><time>1970-01-01T00:31:41.000Z</time></trkpt><trkpt lat="14.706705" lon="101.179128"><ele>217.1</ele><time>1970-01-01T00:31:42.000Z</time></trkpt><trkpt lat="14.706725" lon="101.179079"><ele>217.1</ele><time>1970-01-01T00:31:44.000Z</time></trkpt><trkpt lat="14.706727" lon="101.179044"><ele>217.3</ele><time>1970-01-01T00:31:46.000Z</time></trkpt><trkpt lat="14.706726" lon="101.178995"><ele>217.7</ele><time>1970-01-01T00:31:48.000Z</time></trkpt><trkpt lat="14.706721" lon="101.178944"><ele>218.3</ele><time>1970-01-01T00:31:50.000Z</time></trkpt><trkpt lat="14.706713" lon="101.178893"><ele>218.8</ele><time>1970-01-01T00:31:52.000Z</time></trkpt><trkpt lat="14.706703" lon="101.178844"><ele>219.3</ele><time>1970-01-01T00:31:54.000Z</time></trkpt><trkpt lat="14.706696" lon="101.1788"><ele>219.7</ele><time>1970-01-01T00:31:56.000Z</time></trkpt><trkpt lat="14.70669" lon="101.178749"><ele>220</ele><time>1970-01-01T00:31:58.000Z</time></trkpt><trkpt lat="14.706685" lon="101.178695"><ele>220.3</ele><time>1970-01-01T00:32:00.000Z</time></trkpt><trkpt lat="14.706684" lon="101.178666"><ele>220.4</ele><time>1970-01-01T00:32:01.000Z</time></trkpt><trkpt lat="14.706682" lon="101.178638"><ele>220.4</ele><time>1970-01-01T00:32:02.000Z</time></trkpt><trkpt lat="14.706674" lon="101.178588"><ele>220.2</ele><time>1970-01-01T00:32:04.000Z</time></trkpt><trkpt lat="14.706671" lon="101.178557"><ele>220.1</ele><time>1970-01-01T00:32:05.000Z</time></trkpt><trkpt lat="14.70667" lon="101.178524"><ele>220</ele><time>1970-01-01T00:32:06.000Z</time></trkpt><trkpt lat="14.706671" lon="101.178491"><ele>219.9</ele><time>1970-01-01T00:32:07.000Z</time></trkpt><trkpt lat="14.706672" lon="101.17846"><ele>219.7</ele><time>1970-01-01T00:32:08.000Z</time></trkpt><trkpt lat="14.706674" lon="101.178428"><ele>219.5</ele><time>1970-01-01T00:32:09.000Z</time></trkpt><trkpt lat="14.706678" lon="101.178401"><ele>219.3</ele><time>1970-01-01T00:32:10.000Z</time></trkpt><trkpt lat="14.706692" lon="101.178352"><ele>219.2</ele><time>1970-01-01T00:32:12.000Z</time></trkpt><trkpt lat="14.706709" lon="101.17832"><ele>219.2</ele><time>1970-01-01T00:32:13.000Z</time></trkpt><trkpt lat="14.706732" lon="101.17829"><ele>219.2</ele><time>1970-01-01T00:32:14.000Z</time></trkpt><trkpt lat="14.706758" lon="101.178269"><ele>218.9</ele><time>1970-01-01T00:32:15.000Z</time></trkpt><trkpt lat="14.706782" lon="101.178249"><ele>218.7</ele><time>1970-01-01T00:32:16.000Z</time></trkpt><trkpt lat="14.706806" lon="101.17823"><ele>218.4</ele><time>1970-01-01T00:32:17.000Z</time></trkpt><trkpt lat="14.70683" lon="101.178212"><ele>218</ele><time>1970-01-01T00:32:18.000Z</time></trkpt><trkpt lat="14.706855" lon="101.178196"><ele>217.5</ele><time>1970-01-01T00:32:19.000Z</time></trkpt><trkpt lat="14.70688" lon="101.178179"><ele>217.2</ele><time>1970-01-01T00:32:20.000Z</time></trkpt><trkpt lat="14.706906" lon="101.178158"><ele>217</ele><time>1970-01-01T00:32:21.000Z</time></trkpt><trkpt lat="14.70693" lon="101.178134"><ele>216.9</ele><time>1970-01-01T00:32:22.000Z</time></trkpt><trkpt lat="14.706952" lon="101.178108"><ele>216.9</ele><time>1970-01-01T00:32:23.000Z</time></trkpt><trkpt lat="14.706973" lon="101.178082"><ele>216.9</ele><time>1970-01-01T00:32:24.000Z</time></trkpt><trkpt lat="14.706991" lon="101.178059"><ele>216.9</ele><time>1970-01-01T00:32:25.000Z</time></trkpt><trkpt lat="14.707027" lon="101.178023"><ele>217.3</ele><time>1970-01-01T00:32:27.000Z</time></trkpt><trkpt lat="14.707062" lon="101.177987"><ele>217.7</ele><time>1970-01-01T00:32:29.000Z</time></trkpt><trkpt lat="14.707096" lon="101.177949"><ele>218.1</ele><time>1970-01-01T00:32:31.000Z</time></trkpt><trkpt lat="14.70712" lon="101.177929"><ele>218.2</ele><time>1970-01-01T00:32:32.000Z</time></trkpt><trkpt lat="14.707147" lon="101.177916"><ele>218.3</ele><time>1970-01-01T00:32:33.000Z</time></trkpt><trkpt lat="14.707176" lon="101.177912"><ele>218.4</ele><time>1970-01-01T00:32:34.000Z</time></trkpt><trkpt lat="14.707209" lon="101.177915"><ele>218.6</ele><time>1970-01-01T00:32:35.000Z</time></trkpt><trkpt lat="14.707244" lon="101.177924"><ele>218.8</ele><time>1970-01-01T00:32:36.000Z</time></trkpt><trkpt lat="14.707278" lon="101.177937"><ele>218.9</ele><time>1970-01-01T00:32:37.000Z</time></trkpt><trkpt lat="14.707312" lon="101.17795"><ele>219.2</ele><time>1970-01-01T00:32:38.000Z</time></trkpt><trkpt lat="14.707346" lon="101.177961"><ele>219.6</ele><time>1970-01-01T00:32:39.000Z</time></trkpt><trkpt lat="14.707381" lon="101.177969"><ele>219.8</ele><time>1970-01-01T00:32:40.000Z</time></trkpt><trkpt lat="14.707418" lon="101.177973"><ele>220</ele><time>1970-01-01T00:32:41.000Z</time></trkpt><trkpt lat="14.707445" lon="101.177959"><ele>220</ele><time>1970-01-01T00:32:43.000Z</time></trkpt><trkpt lat="14.70744" lon="101.177919"><ele>219.9</ele><time>1970-01-01T00:32:45.000Z</time></trkpt><trkpt lat="14.707436" lon="101.177888"><ele>219.9</ele><time>1970-01-01T00:32:46.000Z</time></trkpt><trkpt lat="14.707435" lon="101.177849"><ele>219.8</ele><time>1970-01-01T00:32:47.000Z</time></trkpt><trkpt lat="14.707436" lon="101.177809"><ele>219.7</ele><time>1970-01-01T00:32:48.000Z</time></trkpt><trkpt lat="14.70744" lon="101.177768"><ele>219.7</ele><time>1970-01-01T00:32:49.000Z</time></trkpt><trkpt lat="14.707447" lon="101.17773"><ele>219.8</ele><time>1970-01-01T00:32:50.000Z</time></trkpt><trkpt lat="14.707456" lon="101.177701"><ele>219.8</ele><time>1970-01-01T00:32:51.000Z</time></trkpt><trkpt lat="14.707466" lon="101.177673"><ele>219.9</ele><time>1970-01-01T00:32:52.000Z</time></trkpt><trkpt lat="14.707473" lon="101.177645"><ele>219.9</ele><time>1970-01-01T00:32:53.000Z</time></trkpt><trkpt lat="14.707481" lon="101.177618"><ele>220.1</ele><time>1970-01-01T00:32:54.000Z</time></trkpt><trkpt lat="14.707488" lon="101.17759"><ele>220.4</ele><time>1970-01-01T00:32:55.000Z</time></trkpt><trkpt lat="14.707505" lon="101.177547"><ele>220.5</ele><time>1970-01-01T00:32:57.000Z</time></trkpt><trkpt lat="14.707517" lon="101.177517"><ele>220.5</ele><time>1970-01-01T00:32:58.000Z</time></trkpt><trkpt lat="14.70753" lon="101.177484"><ele>220.6</ele><time>1970-01-01T00:32:59.000Z</time></trkpt><trkpt lat="14.707542" lon="101.177449"><ele>220.8</ele><time>1970-01-01T00:33:00.000Z</time></trkpt><trkpt lat="14.707557" lon="101.177411"><ele>221.1</ele><time>1970-01-01T00:33:01.000Z</time></trkpt><trkpt lat="14.707572" lon="101.177373"><ele>221.3</ele><time>1970-01-01T00:33:02.000Z</time></trkpt><trkpt lat="14.70758" lon="101.177338"><ele>221.5</ele><time>1970-01-01T00:33:03.000Z</time></trkpt><trkpt lat="14.707575" lon="101.177302"><ele>221.5</ele><time>1970-01-01T00:33:04.000Z</time></trkpt><trkpt lat="14.707551" lon="101.177271"><ele>221.8</ele><time>1970-01-01T00:33:05.000Z</time></trkpt><trkpt lat="14.707513" lon="101.177248"><ele>222</ele><time>1970-01-01T00:33:06.000Z</time></trkpt><trkpt lat="14.707469" lon="101.177231"><ele>222</ele><time>1970-01-01T00:33:07.000Z</time></trkpt><trkpt lat="14.707424" lon="101.177213"><ele>222.2</ele><time>1970-01-01T00:33:08.000Z</time></trkpt><trkpt lat="14.70736" lon="101.177189"><ele>222.2</ele><time>1970-01-01T00:33:09.000Z</time></trkpt><trkpt lat="14.707319" lon="101.177168"><ele>222.5</ele><time>1970-01-01T00:33:10.000Z</time></trkpt><trkpt lat="14.70728" lon="101.177143"><ele>222.5</ele><time>1970-01-01T00:33:11.000Z</time></trkpt><trkpt lat="14.707246" lon="101.177122"><ele>222.8</ele><time>1970-01-01T00:33:12.000Z</time></trkpt><trkpt lat="14.707213" lon="101.177098"><ele>222.9</ele><time>1970-01-01T00:33:13.000Z</time></trkpt><trkpt lat="14.707191" lon="101.17707"><ele>223.2</ele><time>1970-01-01T00:33:14.000Z</time></trkpt><trkpt lat="14.707183" lon="101.177035"><ele>223.5</ele><time>1970-01-01T00:33:15.000Z</time></trkpt><trkpt lat="14.707177" lon="101.176998"><ele>223.6</ele><time>1970-01-01T00:33:16.000Z</time></trkpt><trkpt lat="14.707169" lon="101.176963"><ele>223.6</ele><time>1970-01-01T00:33:17.000Z</time></trkpt><trkpt lat="14.70715" lon="101.176928"><ele>223.7</ele><time>1970-01-01T00:33:18.000Z</time></trkpt><trkpt lat="14.707133" lon="101.176884"><ele>223.9</ele><time>1970-01-01T00:33:19.000Z</time></trkpt><trkpt lat="14.707116" lon="101.176848"><ele>223.9</ele><time>1970-01-01T00:33:20.000Z</time></trkpt><trkpt lat="14.707102" lon="101.176811"><ele>223.8</ele><time>1970-01-01T00:33:21.000Z</time></trkpt><trkpt lat="14.707099" lon="101.176777"><ele>223.6</ele><time>1970-01-01T00:33:22.000Z</time></trkpt><trkpt lat="14.707105" lon="101.176745"><ele>223.6</ele><time>1970-01-01T00:33:23.000Z</time></trkpt><trkpt lat="14.707118" lon="101.176716"><ele>223.2</ele><time>1970-01-01T00:33:24.000Z</time></trkpt><trkpt lat="14.707139" lon="101.176693"><ele>222.8</ele><time>1970-01-01T00:33:25.000Z</time></trkpt><trkpt lat="14.70716" lon="101.17667"><ele>223</ele><time>1970-01-01T00:33:26.000Z</time></trkpt><trkpt lat="14.707172" lon="101.176643"><ele>222.6</ele><time>1970-01-01T00:33:27.000Z</time></trkpt><trkpt lat="14.707174" lon="101.17661"><ele>222.1</ele><time>1970-01-01T00:33:28.000Z</time></trkpt><trkpt lat="14.70717" lon="101.176575"><ele>222.1</ele><time>1970-01-01T00:33:29.000Z</time></trkpt><trkpt lat="14.707168" lon="101.176543"><ele>221.7</ele><time>1970-01-01T00:33:30.000Z</time></trkpt><trkpt lat="14.707178" lon="101.176503"><ele>221.4</ele><time>1970-01-01T00:33:32.000Z</time></trkpt><trkpt lat="14.707226" lon="101.176479"><ele>221</ele><time>1970-01-01T00:33:34.000Z</time></trkpt><trkpt lat="14.707268" lon="101.176484"><ele>220.8</ele><time>1970-01-01T00:33:35.000Z</time></trkpt><trkpt lat="14.707332" lon="101.176542"><ele>221.4</ele><time>1970-01-01T00:33:36.000Z</time></trkpt><trkpt lat="14.707384" lon="101.17656"><ele>221.1</ele><time>1970-01-01T00:33:37.000Z</time></trkpt><trkpt lat="14.707446" lon="101.176567"><ele>220.6</ele><time>1970-01-01T00:33:38.000Z</time></trkpt><trkpt lat="14.7075" lon="101.176556"><ele>220.5</ele><time>1970-01-01T00:33:39.000Z</time></trkpt><trkpt lat="14.707546" lon="101.176524"><ele>220</ele><time>1970-01-01T00:33:40.000Z</time></trkpt><trkpt lat="14.707563" lon="101.176483"><ele>219.8</ele><time>1970-01-01T00:33:41.000Z</time></trkpt><trkpt lat="14.707572" lon="101.176451"><ele>219.7</ele><time>1970-01-01T00:33:42.000Z</time></trkpt><trkpt lat="14.707582" lon="101.176422"><ele>219.6</ele><time>1970-01-01T00:33:43.000Z</time></trkpt><trkpt lat="14.707605" lon="101.176383"><ele>219.5</ele><time>1970-01-01T00:33:45.000Z</time></trkpt><trkpt lat="14.707655" lon="101.176377"><ele>219.8</ele><time>1970-01-01T00:33:47.000Z</time></trkpt><trkpt lat="14.707684" lon="101.176376"><ele>219.8</ele><time>1970-01-01T00:33:48.000Z</time></trkpt><trkpt lat="14.707717" lon="101.17638"><ele>219.9</ele><time>1970-01-01T00:33:49.000Z</time></trkpt><trkpt lat="14.707748" lon="101.176388"><ele>220</ele><time>1970-01-01T00:33:50.000Z</time></trkpt><trkpt lat="14.70778" lon="101.176397"><ele>220</ele><time>1970-01-01T00:33:51.000Z</time></trkpt><trkpt lat="14.707813" lon="101.176405"><ele>219.8</ele><time>1970-01-01T00:33:52.000Z</time></trkpt><trkpt lat="14.707845" lon="101.176412"><ele>219.8</ele><time>1970-01-01T00:33:53.000Z</time></trkpt><trkpt lat="14.707877" lon="101.176418"><ele>219.7</ele><time>1970-01-01T00:33:54.000Z</time></trkpt><trkpt lat="14.707908" lon="101.176421"><ele>219.6</ele><time>1970-01-01T00:33:55.000Z</time></trkpt><trkpt lat="14.707942" lon="101.176419"><ele>219.4</ele><time>1970-01-01T00:33:56.000Z</time></trkpt><trkpt lat="14.70797" lon="101.176407"><ele>219.4</ele><time>1970-01-01T00:33:57.000Z</time></trkpt><trkpt lat="14.707992" lon="101.176367"><ele>219.2</ele><time>1970-01-01T00:33:59.000Z</time></trkpt><trkpt lat="14.707992" lon="101.176339"><ele>219.1</ele><time>1970-01-01T00:34:00.000Z</time></trkpt><trkpt lat="14.707987" lon="101.176309"><ele>219.1</ele><time>1970-01-01T00:34:01.000Z</time></trkpt><trkpt lat="14.707978" lon="101.17628"><ele>219.3</ele><time>1970-01-01T00:34:02.000Z</time></trkpt><trkpt lat="14.707965" lon="101.176252"><ele>219.2</ele><time>1970-01-01T00:34:03.000Z</time></trkpt><trkpt lat="14.707951" lon="101.176226"><ele>219.1</ele><time>1970-01-01T00:34:04.000Z</time></trkpt><trkpt lat="14.707934" lon="101.176196"><ele>219.5</ele><time>1970-01-01T00:34:05.000Z</time></trkpt><trkpt lat="14.707914" lon="101.176159"><ele>219.5</ele><time>1970-01-01T00:34:06.000Z</time></trkpt><trkpt lat="14.707885" lon="101.176099"><ele>219.8</ele><time>1970-01-01T00:34:07.000Z</time></trkpt><trkpt lat="14.707886" lon="101.176045"><ele>219.6</ele><time>1970-01-01T00:34:08.000Z</time></trkpt><trkpt lat="14.707882" lon="101.175989"><ele>219.3</ele><time>1970-01-01T00:34:09.000Z</time></trkpt><trkpt lat="14.707869" lon="101.175932"><ele>219</ele><time>1970-01-01T00:34:10.000Z</time></trkpt><trkpt lat="14.707854" lon="101.175879"><ele>219.2</ele><time>1970-01-01T00:34:11.000Z</time></trkpt><trkpt lat="14.707847" lon="101.175843"><ele>219.2</ele><time>1970-01-01T00:34:12.000Z</time></trkpt><trkpt lat="14.707858" lon="101.175804"><ele>218.7</ele><time>1970-01-01T00:34:13.000Z</time></trkpt><trkpt lat="14.707869" lon="101.175766"><ele>218.7</ele><time>1970-01-01T00:34:14.000Z</time></trkpt><trkpt lat="14.707876" lon="101.175721"><ele>218.7</ele><time>1970-01-01T00:34:15.000Z</time></trkpt><trkpt lat="14.707883" lon="101.175678"><ele>218.7</ele><time>1970-01-01T00:34:16.000Z</time></trkpt><trkpt lat="14.707886" lon="101.175634"><ele>218.6</ele><time>1970-01-01T00:34:17.000Z</time></trkpt><trkpt lat="14.707892" lon="101.175601"><ele>218.6</ele><time>1970-01-01T00:34:18.000Z</time></trkpt><trkpt lat="14.7079" lon="101.175567"><ele>218.6</ele><time>1970-01-01T00:34:19.000Z</time></trkpt><trkpt lat="14.707905" lon="101.175521"><ele>218.8</ele><time>1970-01-01T00:34:21.000Z</time></trkpt><trkpt lat="14.707909" lon="101.175476"><ele>219</ele><time>1970-01-01T00:34:23.000Z</time></trkpt><trkpt lat="14.707916" lon="101.175429"><ele>219.3</ele><time>1970-01-01T00:34:25.000Z</time></trkpt><trkpt lat="14.707916" lon="101.175373"><ele>219.6</ele><time>1970-01-01T00:34:27.000Z</time></trkpt><trkpt lat="14.707921" lon="101.175328"><ele>220</ele><time>1970-01-01T00:34:29.000Z</time></trkpt><trkpt lat="14.707944" lon="101.17529"><ele>220.2</ele><time>1970-01-01T00:34:31.000Z</time></trkpt><trkpt lat="14.707961" lon="101.175254"><ele>220.5</ele><time>1970-01-01T00:34:33.000Z</time></trkpt><trkpt lat="14.707977" lon="101.175213"><ele>220.6</ele><time>1970-01-01T00:34:35.000Z</time></trkpt><trkpt lat="14.707992" lon="101.175164"><ele>220.9</ele><time>1970-01-01T00:34:37.000Z</time></trkpt><trkpt lat="14.707986" lon="101.175126"><ele>221</ele><time>1970-01-01T00:34:39.000Z</time></trkpt><trkpt lat="14.707935" lon="101.175113"><ele>220.6</ele><time>1970-01-01T00:34:41.000Z</time></trkpt><trkpt lat="14.707906" lon="101.175118"><ele>220.6</ele><time>1970-01-01T00:34:42.000Z</time></trkpt><trkpt lat="14.707877" lon="101.175128"><ele>220.5</ele><time>1970-01-01T00:34:43.000Z</time></trkpt><trkpt lat="14.707843" lon="101.175137"><ele>220.4</ele><time>1970-01-01T00:34:44.000Z</time></trkpt><trkpt lat="14.707802" lon="101.175144"><ele>220.5</ele><time>1970-01-01T00:34:45.000Z</time></trkpt><trkpt lat="14.707738" lon="101.175151"><ele>220.5</ele><time>1970-01-01T00:34:46.000Z</time></trkpt><trkpt lat="14.707671" lon="101.175149"><ele>220.9</ele><time>1970-01-01T00:34:47.000Z</time></trkpt><trkpt lat="14.70761" lon="101.175133"><ele>221.2</ele><time>1970-01-01T00:34:48.000Z</time></trkpt><trkpt lat="14.707566" lon="101.175122"><ele>221.4</ele><time>1970-01-01T00:34:49.000Z</time></trkpt><trkpt lat="14.707534" lon="101.175119"><ele>221.7</ele><time>1970-01-01T00:34:50.000Z</time></trkpt><trkpt lat="14.707511" lon="101.1751"><ele>222</ele><time>1970-01-01T00:34:51.000Z</time></trkpt><trkpt lat="14.707466" lon="101.175072"><ele>222.3</ele><time>1970-01-01T00:34:53.000Z</time></trkpt><trkpt lat="14.707431" lon="101.175051"><ele>222.4</ele><time>1970-01-01T00:34:55.000Z</time></trkpt><trkpt lat="14.707399" lon="101.175023"><ele>222.1</ele><time>1970-01-01T00:34:57.000Z</time></trkpt><trkpt lat="14.707364" lon="101.174992"><ele>222.3</ele><time>1970-01-01T00:34:59.000Z</time></trkpt><trkpt lat="14.707332" lon="101.17497"><ele>222.3</ele><time>1970-01-01T00:35:01.000Z</time></trkpt><trkpt lat="14.707294" lon="101.174953"><ele>222.7</ele><time>1970-01-01T00:35:03.000Z</time></trkpt><trkpt lat="14.707249" lon="101.174937"><ele>223.2</ele><time>1970-01-01T00:35:05.000Z</time></trkpt><trkpt lat="14.707206" lon="101.174919"><ele>223.8</ele><time>1970-01-01T00:35:07.000Z</time></trkpt><trkpt lat="14.707171" lon="101.174902"><ele>224.3</ele><time>1970-01-01T00:35:09.000Z</time></trkpt><trkpt lat="14.707144" lon="101.174887"><ele>225</ele><time>1970-01-01T00:35:11.000Z</time></trkpt><trkpt lat="14.707153" lon="101.17486"><ele>224.5</ele><time>1970-01-01T00:35:22.000Z</time></trkpt><trkpt lat="14.707185" lon="101.174842"><ele>224.8</ele><time>1970-01-01T00:35:25.000Z</time></trkpt><trkpt lat="14.707217" lon="101.174838"><ele>224.2</ele><time>1970-01-01T00:35:28.000Z</time></trkpt><trkpt lat="14.707244" lon="101.17483"><ele>223.6</ele><time>1970-01-01T00:35:31.000Z</time></trkpt><trkpt lat="14.70721" lon="101.174843"><ele>224.2</ele><time>1970-01-01T00:35:34.000Z</time></trkpt><trkpt lat="14.707193" lon="101.174873"><ele>223.9</ele><time>1970-01-01T00:35:36.000Z</time></trkpt><trkpt lat="14.707197" lon="101.174906"><ele>223.8</ele><time>1970-01-01T00:35:39.000Z</time></trkpt><trkpt lat="14.70722" lon="101.174928"><ele>223.8</ele><time>1970-01-01T00:35:41.000Z</time></trkpt><trkpt lat="14.707268" lon="101.174946"><ele>223.1</ele><time>1970-01-01T00:35:43.000Z</time></trkpt><trkpt lat="14.707298" lon="101.174955"><ele>222.6</ele><time>1970-01-01T00:35:44.000Z</time></trkpt><trkpt lat="14.707329" lon="101.174966"><ele>222.2</ele><time>1970-01-01T00:35:45.000Z</time></trkpt><trkpt lat="14.707361" lon="101.174982"><ele>221.9</ele><time>1970-01-01T00:35:46.000Z</time></trkpt><trkpt lat="14.707392" lon="101.175003"><ele>222.3</ele><time>1970-01-01T00:35:47.000Z</time></trkpt><trkpt lat="14.707421" lon="101.175026"><ele>222.1</ele><time>1970-01-01T00:35:48.000Z</time></trkpt><trkpt lat="14.707452" lon="101.175051"><ele>222.2</ele><time>1970-01-01T00:35:49.000Z</time></trkpt><trkpt lat="14.707486" lon="101.175077"><ele>222</ele><time>1970-01-01T00:35:50.000Z</time></trkpt><trkpt lat="14.707519" lon="101.175102"><ele>222</ele><time>1970-01-01T00:35:51.000Z</time></trkpt><trkpt lat="14.707552" lon="101.175126"><ele>221.7</ele><time>1970-01-01T00:35:52.000Z</time></trkpt><trkpt lat="14.707584" lon="101.175144"><ele>221.4</ele><time>1970-01-01T00:35:53.000Z</time></trkpt><trkpt lat="14.70761" lon="101.175153"><ele>221.1</ele><time>1970-01-01T00:35:54.000Z</time></trkpt><trkpt lat="14.707583" lon="101.175141"><ele>221.4</ele><time>1970-01-01T00:36:04.000Z</time></trkpt><trkpt lat="14.707575" lon="101.175107"><ele>221.4</ele><time>1970-01-01T00:36:09.000Z</time></trkpt><trkpt lat="14.70759" lon="101.175079"><ele>221.4</ele><time>1970-01-01T00:36:12.000Z</time></trkpt><trkpt lat="14.707601" lon="101.175052"><ele>221.4</ele><time>1970-01-01T00:36:15.000Z</time></trkpt><trkpt lat="14.707614" lon="101.175027"><ele>221.1</ele><time>1970-01-01T00:36:21.000Z</time></trkpt><trkpt lat="14.70763" lon="101.174992"><ele>221.1</ele><time>1970-01-01T00:36:23.000Z</time></trkpt><trkpt lat="14.707644" lon="101.174945"><ele>221.1</ele><time>1970-01-01T00:36:25.000Z</time></trkpt><trkpt lat="14.707655" lon="101.174903"><ele>220.7</ele><time>1970-01-01T00:36:27.000Z</time></trkpt><trkpt lat="14.707662" lon="101.174871"><ele>220.9</ele><time>1970-01-01T00:36:29.000Z</time></trkpt><trkpt lat="14.707671" lon="101.174834"><ele>221.1</ele><time>1970-01-01T00:36:31.000Z</time></trkpt><trkpt lat="14.707683" lon="101.174792"><ele>221.4</ele><time>1970-01-01T00:36:33.000Z</time></trkpt><trkpt lat="14.707693" lon="101.174746"><ele>222</ele><time>1970-01-01T00:36:35.000Z</time></trkpt><trkpt lat="14.707702" lon="101.174707"><ele>222.4</ele><time>1970-01-01T00:36:37.000Z</time></trkpt><trkpt lat="14.707711" lon="101.174659"><ele>222.6</ele><time>1970-01-01T00:36:39.000Z</time></trkpt><trkpt lat="14.70772" lon="101.17461"><ele>222.7</ele><time>1970-01-01T00:36:41.000Z</time></trkpt><trkpt lat="14.707733" lon="101.174561"><ele>223.4</ele><time>1970-01-01T00:36:43.000Z</time></trkpt><trkpt lat="14.707747" lon="101.174512"><ele>223.8</ele><time>1970-01-01T00:36:45.000Z</time></trkpt><trkpt lat="14.707757" lon="101.174463"><ele>225.2</ele><time>1970-01-01T00:36:47.000Z</time></trkpt><trkpt lat="14.707765" lon="101.17441"><ele>226</ele><time>1970-01-01T00:36:49.000Z</time></trkpt><trkpt lat="14.707769" lon="101.174382"><ele>226.7</ele><time>1970-01-01T00:36:50.000Z</time></trkpt><trkpt lat="14.707773" lon="101.174354"><ele>226.7</ele><time>1970-01-01T00:36:51.000Z</time></trkpt><trkpt lat="14.707777" lon="101.174325"><ele>227.2</ele><time>1970-01-01T00:36:52.000Z</time></trkpt><trkpt lat="14.70778" lon="101.174296"><ele>227.6</ele><time>1970-01-01T00:36:53.000Z</time></trkpt><trkpt lat="14.707784" lon="101.174266"><ele>227.6</ele><time>1970-01-01T00:36:54.000Z</time></trkpt><trkpt lat="14.707788" lon="101.174235"><ele>227.9</ele><time>1970-01-01T00:36:55.000Z</time></trkpt><trkpt lat="14.707792" lon="101.174202"><ele>228.2</ele><time>1970-01-01T00:36:56.000Z</time></trkpt><trkpt lat="14.707793" lon="101.174167"><ele>228.4</ele><time>1970-01-01T00:36:57.000Z</time></trkpt><trkpt lat="14.707794" lon="101.174128"><ele>228.4</ele><time>1970-01-01T00:36:58.000Z</time></trkpt><trkpt lat="14.707795" lon="101.174089"><ele>228.5</ele><time>1970-01-01T00:36:59.000Z</time></trkpt><trkpt lat="14.707797" lon="101.174046"><ele>228.6</ele><time>1970-01-01T00:37:00.000Z</time></trkpt><trkpt lat="14.707792" lon="101.17398"><ele>228.8</ele><time>1970-01-01T00:37:01.000Z</time></trkpt><trkpt lat="14.70779" lon="101.17394"><ele>228.9</ele><time>1970-01-01T00:37:02.000Z</time></trkpt><trkpt lat="14.707797" lon="101.17388"><ele>228.9</ele><time>1970-01-01T00:37:04.000Z</time></trkpt><trkpt lat="14.707798" lon="101.173844"><ele>228.9</ele><time>1970-01-01T00:37:05.000Z</time></trkpt><trkpt lat="14.707793" lon="101.173815"><ele>228.8</ele><time>1970-01-01T00:37:06.000Z</time></trkpt><trkpt lat="14.707799" lon="101.173779"><ele>228.7</ele><time>1970-01-01T00:37:07.000Z</time></trkpt><trkpt lat="14.707799" lon="101.173747"><ele>228.7</ele><time>1970-01-01T00:37:08.000Z</time></trkpt><trkpt lat="14.707778" lon="101.1737"><ele>228.6</ele><time>1970-01-01T00:37:10.000Z</time></trkpt><trkpt lat="14.707765" lon="101.173665"><ele>229.1</ele><time>1970-01-01T00:37:11.000Z</time></trkpt><trkpt lat="14.707748" lon="101.173633"><ele>228.9</ele><time>1970-01-01T00:37:12.000Z</time></trkpt><trkpt lat="14.707739" lon="101.1736"><ele>228.6</ele><time>1970-01-01T00:37:13.000Z</time></trkpt><trkpt lat="14.707738" lon="101.17357"><ele>228.6</ele><time>1970-01-01T00:37:14.000Z</time></trkpt><trkpt lat="14.707739" lon="101.173542"><ele>228.4</ele><time>1970-01-01T00:37:15.000Z</time></trkpt><trkpt lat="14.707729" lon="101.173497"><ele>228.7</ele><time>1970-01-01T00:37:17.000Z</time></trkpt><trkpt lat="14.707704" lon="101.173483"><ele>228.7</ele><time>1970-01-01T00:37:22.000Z</time></trkpt><trkpt lat="14.707701" lon="101.173447"><ele>228.7</ele><time>1970-01-01T00:37:26.000Z</time></trkpt><trkpt lat="14.707705" lon="101.173418"><ele>228.7</ele><time>1970-01-01T00:37:29.000Z</time></trkpt><trkpt lat="14.707703" lon="101.173383"><ele>228.7</ele><time>1970-01-01T00:37:33.000Z</time></trkpt><trkpt lat="14.707696" lon="101.173353"><ele>228.7</ele><time>1970-01-01T00:37:38.000Z</time></trkpt><trkpt lat="14.707694" lon="101.173319"><ele>228.7</ele><time>1970-01-01T00:37:41.000Z</time></trkpt><trkpt lat="14.707696" lon="101.173281"><ele>228.4</ele><time>1970-01-01T00:37:44.000Z</time></trkpt><trkpt lat="14.707675" lon="101.173253"><ele>228.6</ele><time>1970-01-01T00:37:47.000Z</time></trkpt><trkpt lat="14.707643" lon="101.173238"><ele>228.9</ele><time>1970-01-01T00:37:50.000Z</time></trkpt><trkpt lat="14.707623" lon="101.173219"><ele>228.8</ele><time>1970-01-01T00:37:53.000Z</time></trkpt><trkpt lat="14.707598" lon="101.173206"><ele>229.2</ele><time>1970-01-01T00:37:59.000Z</time></trkpt><trkpt lat="14.707568" lon="101.173186"><ele>229.2</ele><time>1970-01-01T00:38:01.000Z</time></trkpt><trkpt lat="14.707527" lon="101.173156"><ele>229.6</ele><time>1970-01-01T00:38:03.000Z</time></trkpt><trkpt lat="14.707483" lon="101.17314"><ele>229.8</ele><time>1970-01-01T00:38:05.000Z</time></trkpt><trkpt lat="14.707433" lon="101.173139"><ele>230.2</ele><time>1970-01-01T00:38:07.000Z</time></trkpt><trkpt lat="14.707384" lon="101.173134"><ele>230.3</ele><time>1970-01-01T00:38:09.000Z</time></trkpt><trkpt lat="14.707337" lon="101.173128"><ele>230.6</ele><time>1970-01-01T00:38:11.000Z</time></trkpt><trkpt lat="14.707289" lon="101.17313"><ele>231.1</ele><time>1970-01-01T00:38:13.000Z</time></trkpt><trkpt lat="14.707239" lon="101.173138"><ele>231.6</ele><time>1970-01-01T00:38:15.000Z</time></trkpt><trkpt lat="14.707191" lon="101.173151"><ele>233.2</ele><time>1970-01-01T00:38:17.000Z</time></trkpt><trkpt lat="14.707143" lon="101.173162"><ele>233.7</ele><time>1970-01-01T00:38:19.000Z</time></trkpt><trkpt lat="14.707116" lon="101.173166"><ele>233.7</ele><time>1970-01-01T00:38:20.000Z</time></trkpt><trkpt lat="14.707088" lon="101.173168"><ele>234.2</ele><time>1970-01-01T00:38:21.000Z</time></trkpt><trkpt lat="14.70706" lon="101.173171"><ele>234.5</ele><time>1970-01-01T00:38:22.000Z</time></trkpt><trkpt lat="14.707033" lon="101.173175"><ele>234.5</ele><time>1970-01-01T00:38:23.000Z</time></trkpt><trkpt lat="14.706984" lon="101.173195"><ele>235</ele><time>1970-01-01T00:38:25.000Z</time></trkpt><trkpt lat="14.706955" lon="101.173207"><ele>235.2</ele><time>1970-01-01T00:38:26.000Z</time></trkpt><trkpt lat="14.706925" lon="101.173217"><ele>235.4</ele><time>1970-01-01T00:38:27.000Z</time></trkpt><trkpt lat="14.706898" lon="101.173224"><ele>235.6</ele><time>1970-01-01T00:38:28.000Z</time></trkpt><trkpt lat="14.706852" lon="101.173227"><ele>236</ele><time>1970-01-01T00:38:30.000Z</time></trkpt><trkpt lat="14.706808" lon="101.173217"><ele>236.2</ele><time>1970-01-01T00:38:32.000Z</time></trkpt><trkpt lat="14.706763" lon="101.173205"><ele>236.3</ele><time>1970-01-01T00:38:34.000Z</time></trkpt><trkpt lat="14.706726" lon="101.173188"><ele>236.4</ele><time>1970-01-01T00:38:36.000Z</time></trkpt><trkpt lat="14.706681" lon="101.173156"><ele>236.4</ele><time>1970-01-01T00:38:38.000Z</time></trkpt><trkpt lat="14.706643" lon="101.173134"><ele>236.4</ele><time>1970-01-01T00:38:40.000Z</time></trkpt><trkpt lat="14.706605" lon="101.17313"><ele>236.4</ele><time>1970-01-01T00:38:42.000Z</time></trkpt><trkpt lat="14.706566" lon="101.173139"><ele>236.4</ele><time>1970-01-01T00:38:44.000Z</time></trkpt><trkpt lat="14.706535" lon="101.173157"><ele>236.4</ele><time>1970-01-01T00:38:46.000Z</time></trkpt><trkpt lat="14.706509" lon="101.173176"><ele>236.7</ele><time>1970-01-01T00:38:48.000Z</time></trkpt><trkpt lat="14.706487" lon="101.173197"><ele>236.6</ele><time>1970-01-01T00:38:50.000Z</time></trkpt><trkpt lat="14.706464" lon="101.173238"><ele>236.9</ele><time>1970-01-01T00:38:52.000Z</time></trkpt><trkpt lat="14.706442" lon="101.173278"><ele>237.2</ele><time>1970-01-01T00:38:54.000Z</time></trkpt><trkpt lat="14.706403" lon="101.173311"><ele>237.2</ele><time>1970-01-01T00:38:56.000Z</time></trkpt><trkpt lat="14.706378" lon="101.173322"><ele>237.5</ele><time>1970-01-01T00:38:57.000Z</time></trkpt><trkpt lat="14.706353" lon="101.173333"><ele>237.9</ele><time>1970-01-01T00:38:58.000Z</time></trkpt><trkpt lat="14.706303" lon="101.173354"><ele>238</ele><time>1970-01-01T00:39:00.000Z</time></trkpt><trkpt lat="14.706275" lon="101.173364"><ele>238.2</ele><time>1970-01-01T00:39:01.000Z</time></trkpt><trkpt lat="14.706247" lon="101.173371"><ele>238.2</ele><time>1970-01-01T00:39:02.000Z</time></trkpt><trkpt lat="14.706218" lon="101.173375"><ele>238.2</ele><time>1970-01-01T00:39:03.000Z</time></trkpt><trkpt lat="14.706187" lon="101.173379"><ele>238.1</ele><time>1970-01-01T00:39:04.000Z</time></trkpt><trkpt lat="14.706157" lon="101.173381"><ele>238.1</ele><time>1970-01-01T00:39:05.000Z</time></trkpt><trkpt lat="14.706129" lon="101.173389"><ele>238</ele><time>1970-01-01T00:39:06.000Z</time></trkpt><trkpt lat="14.706102" lon="101.1734"><ele>237.7</ele><time>1970-01-01T00:39:07.000Z</time></trkpt><trkpt lat="14.706076" lon="101.17341"><ele>237.7</ele><time>1970-01-01T00:39:08.000Z</time></trkpt><trkpt lat="14.70605" lon="101.173418"><ele>237.9</ele><time>1970-01-01T00:39:09.000Z</time></trkpt><trkpt lat="14.706023" lon="101.173424"><ele>238.2</ele><time>1970-01-01T00:39:10.000Z</time></trkpt><trkpt lat="14.705995" lon="101.173428"><ele>238.2</ele><time>1970-01-01T00:39:11.000Z</time></trkpt><trkpt lat="14.705945" lon="101.173433"><ele>238.9</ele><time>1970-01-01T00:39:13.000Z</time></trkpt><trkpt lat="14.705901" lon="101.173442"><ele>238.8</ele><time>1970-01-01T00:39:15.000Z</time></trkpt><trkpt lat="14.705865" lon="101.173463"><ele>238.8</ele><time>1970-01-01T00:39:17.000Z</time></trkpt><trkpt lat="14.705838" lon="101.173477"><ele>239</ele><time>1970-01-01T00:39:19.000Z</time></trkpt><trkpt lat="14.705808" lon="101.173479"><ele>239.1</ele><time>1970-01-01T00:39:21.000Z</time></trkpt><trkpt lat="14.705775" lon="101.173483"><ele>239.2</ele><time>1970-01-01T00:39:23.000Z</time></trkpt><trkpt lat="14.70574" lon="101.173496"><ele>239.2</ele><time>1970-01-01T00:39:25.000Z</time></trkpt><trkpt lat="14.705717" lon="101.173522"><ele>239.4</ele><time>1970-01-01T00:39:27.000Z</time></trkpt><trkpt lat="14.705703" lon="101.173561"><ele>239.5</ele><time>1970-01-01T00:39:29.000Z</time></trkpt><trkpt lat="14.705688" lon="101.173604"><ele>239.8</ele><time>1970-01-01T00:39:31.000Z</time></trkpt><trkpt lat="14.705671" lon="101.173643"><ele>239.8</ele><time>1970-01-01T00:39:33.000Z</time></trkpt><trkpt lat="14.705641" lon="101.173633"><ele>240</ele><time>1970-01-01T00:39:46.000Z</time></trkpt><trkpt lat="14.705653" lon="101.173588"><ele>240</ele><time>1970-01-01T00:39:48.000Z</time></trkpt><trkpt lat="14.705666" lon="101.173563"><ele>239.7</ele><time>1970-01-01T00:39:49.000Z</time></trkpt><trkpt lat="14.705679" lon="101.173536"><ele>239.7</ele><time>1970-01-01T00:39:50.000Z</time></trkpt><trkpt lat="14.705693" lon="101.173508"><ele>239.7</ele><time>1970-01-01T00:39:51.000Z</time></trkpt><trkpt lat="14.705704" lon="101.173478"><ele>239.4</ele><time>1970-01-01T00:39:52.000Z</time></trkpt><trkpt lat="14.705712" lon="101.173449"><ele>239.4</ele><time>1970-01-01T00:39:53.000Z</time></trkpt><trkpt lat="14.705714" lon="101.173419"><ele>239.3</ele><time>1970-01-01T00:39:54.000Z</time></trkpt><trkpt lat="14.705713" lon="101.17339"><ele>239.3</ele><time>1970-01-01T00:39:55.000Z</time></trkpt><trkpt lat="14.705711" lon="101.173345"><ele>239.4</ele><time>1970-01-01T00:39:57.000Z</time></trkpt><trkpt lat="14.705713" lon="101.173307"><ele>239.6</ele><time>1970-01-01T00:39:59.000Z</time></trkpt><trkpt lat="14.705727" lon="101.173274"><ele>239.6</ele><time>1970-01-01T00:40:01.000Z</time></trkpt><trkpt lat="14.70575" lon="101.173261"><ele>239.8</ele><time>1970-01-01T00:40:03.000Z</time></trkpt><trkpt lat="14.705724" lon="101.173268"><ele>239.6</ele><time>1970-01-01T00:40:10.000Z</time></trkpt><trkpt lat="14.705674" lon="101.173271"><ele>239.7</ele><time>1970-01-01T00:43:35.000Z</time></trkpt><trkpt lat="14.705662" lon="101.173231"><ele>239.9</ele><time>1970-01-01T00:43:37.000Z</time></trkpt><trkpt lat="14.705665" lon="101.173179"><ele>240.4</ele><time>1970-01-01T00:43:39.000Z</time></trkpt><trkpt lat="14.705669" lon="101.173132"><ele>240.6</ele><time>1970-01-01T00:43:41.000Z</time></trkpt><trkpt lat="14.705669" lon="101.173083"><ele>241</ele><time>1970-01-01T00:43:43.000Z</time></trkpt><trkpt lat="14.705668" lon="101.173055"><ele>241</ele><time>1970-01-01T00:43:44.000Z</time></trkpt><trkpt lat="14.705668" lon="101.173"><ele>241.7</ele><time>1970-01-01T00:43:46.000Z</time></trkpt><trkpt lat="14.705667" lon="101.172968"><ele>241.7</ele><time>1970-01-01T00:43:47.000Z</time></trkpt><trkpt lat="14.705664" lon="101.172938"><ele>242.2</ele><time>1970-01-01T00:43:48.000Z</time></trkpt><trkpt lat="14.70566" lon="101.172909"><ele>242.7</ele><time>1970-01-01T00:43:49.000Z</time></trkpt><trkpt lat="14.705653" lon="101.172881"><ele>242.7</ele><time>1970-01-01T00:43:50.000Z</time></trkpt><trkpt lat="14.705648" lon="101.172835"><ele>242.8</ele><time>1970-01-01T00:43:52.000Z</time></trkpt><trkpt lat="14.705642" lon="101.172779"><ele>242.8</ele><time>1970-01-01T00:43:54.000Z</time></trkpt><trkpt lat="14.70564" lon="101.172747"><ele>242.8</ele><time>1970-01-01T00:43:55.000Z</time></trkpt><trkpt lat="14.705636" lon="101.172715"><ele>242.8</ele><time>1970-01-01T00:43:56.000Z</time></trkpt><trkpt lat="14.705631" lon="101.172684"><ele>242.7</ele><time>1970-01-01T00:43:57.000Z</time></trkpt><trkpt lat="14.705621" lon="101.172653"><ele>242.7</ele><time>1970-01-01T00:43:58.000Z</time></trkpt><trkpt lat="14.705611" lon="101.172623"><ele>242.4</ele><time>1970-01-01T00:43:59.000Z</time></trkpt><trkpt lat="14.705604" lon="101.172592"><ele>242.4</ele><time>1970-01-01T00:44:00.000Z</time></trkpt><trkpt lat="14.705599" lon="101.172559"><ele>242.4</ele><time>1970-01-01T00:44:01.000Z</time></trkpt><trkpt lat="14.705596" lon="101.172524"><ele>242.4</ele><time>1970-01-01T00:44:02.000Z</time></trkpt><trkpt lat="14.705593" lon="101.172488"><ele>242.4</ele><time>1970-01-01T00:44:03.000Z</time></trkpt><trkpt lat="14.705589" lon="101.172451"><ele>242.4</ele><time>1970-01-01T00:44:04.000Z</time></trkpt><trkpt lat="14.705585" lon="101.172422"><ele>242.4</ele><time>1970-01-01T00:44:05.000Z</time></trkpt><trkpt lat="14.705568" lon="101.172399"><ele>242.2</ele><time>1970-01-01T00:44:07.000Z</time></trkpt><trkpt lat="14.705534" lon="101.172411"><ele>242.2</ele><time>1970-01-01T00:44:09.000Z</time></trkpt><trkpt lat="14.705497" lon="101.172433"><ele>242</ele><time>1970-01-01T00:44:11.000Z</time></trkpt><trkpt lat="14.705449" lon="101.172439"><ele>241.8</ele><time>1970-01-01T00:44:13.000Z</time></trkpt><trkpt lat="14.705399" lon="101.172442"><ele>241.7</ele><time>1970-01-01T00:44:15.000Z</time></trkpt><trkpt lat="14.705348" lon="101.172455"><ele>241.4</ele><time>1970-01-01T00:44:17.000Z</time></trkpt><trkpt lat="14.705301" lon="101.172445"><ele>241.8</ele><time>1970-01-01T00:44:19.000Z</time></trkpt><trkpt lat="14.705256" lon="101.172425"><ele>241.8</ele><time>1970-01-01T00:44:21.000Z</time></trkpt><trkpt lat="14.705222" lon="101.172407"><ele>242</ele><time>1970-01-01T00:44:23.000Z</time></trkpt><trkpt lat="14.705206" lon="101.172376"><ele>242</ele><time>1970-01-01T00:44:25.000Z</time></trkpt><trkpt lat="14.705199" lon="101.172332"><ele>242.1</ele><time>1970-01-01T00:44:27.000Z</time></trkpt><trkpt lat="14.705198" lon="101.172287"><ele>242.1</ele><time>1970-01-01T00:44:29.000Z</time></trkpt><trkpt lat="14.705194" lon="101.172256"><ele>242.1</ele><time>1970-01-01T00:44:31.000Z</time></trkpt><trkpt lat="14.705181" lon="101.172229"><ele>242</ele><time>1970-01-01T00:44:33.000Z</time></trkpt><trkpt lat="14.705176" lon="101.172198"><ele>242</ele><time>1970-01-01T00:44:35.000Z</time></trkpt><trkpt lat="14.705172" lon="101.172156"><ele>241.9</ele><time>1970-01-01T00:44:37.000Z</time></trkpt><trkpt lat="14.705174" lon="101.172109"><ele>241.8</ele><time>1970-01-01T00:44:39.000Z</time></trkpt><trkpt lat="14.705181" lon="101.172056"><ele>241.4</ele><time>1970-01-01T00:44:41.000Z</time></trkpt><trkpt lat="14.705184" lon="101.172027"><ele>241.4</ele><time>1970-01-01T00:44:42.000Z</time></trkpt><trkpt lat="14.705186" lon="101.171998"><ele>241.2</ele><time>1970-01-01T00:44:43.000Z</time></trkpt><trkpt lat="14.705191" lon="101.17197"><ele>240.9</ele><time>1970-01-01T00:44:44.000Z</time></trkpt><trkpt lat="14.705197" lon="101.171942"><ele>240.9</ele><time>1970-01-01T00:44:45.000Z</time></trkpt><trkpt lat="14.705204" lon="101.171912"><ele>240.7</ele><time>1970-01-01T00:44:46.000Z</time></trkpt><trkpt lat="14.705215" lon="101.171884"><ele>240.5</ele><time>1970-01-01T00:44:47.000Z</time></trkpt><trkpt lat="14.705232" lon="101.171862"><ele>240.5</ele><time>1970-01-01T00:44:48.000Z</time></trkpt><trkpt lat="14.705258" lon="101.171846"><ele>240.4</ele><time>1970-01-01T00:44:49.000Z</time></trkpt><trkpt lat="14.70529" lon="101.171836"><ele>240.6</ele><time>1970-01-01T00:44:50.000Z</time></trkpt><trkpt lat="14.705324" lon="101.17183"><ele>240.9</ele><time>1970-01-01T00:44:51.000Z</time></trkpt><trkpt lat="14.705359" lon="101.171826"><ele>240.9</ele><time>1970-01-01T00:44:52.000Z</time></trkpt><trkpt lat="14.705392" lon="101.171825"><ele>241.2</ele><time>1970-01-01T00:44:53.000Z</time></trkpt><trkpt lat="14.705425" lon="101.171824"><ele>241.5</ele><time>1970-01-01T00:44:54.000Z</time></trkpt><trkpt lat="14.70546" lon="101.171822"><ele>241.7</ele><time>1970-01-01T00:44:55.000Z</time></trkpt><trkpt lat="14.705495" lon="101.171819"><ele>241.9</ele><time>1970-01-01T00:44:56.000Z</time></trkpt><trkpt lat="14.705529" lon="101.171814"><ele>241.9</ele><time>1970-01-01T00:44:57.000Z</time></trkpt><trkpt lat="14.705563" lon="101.171809"><ele>242.1</ele><time>1970-01-01T00:44:58.000Z</time></trkpt><trkpt lat="14.705597" lon="101.171799"><ele>242.3</ele><time>1970-01-01T00:44:59.000Z</time></trkpt><trkpt lat="14.705626" lon="101.171784"><ele>242.7</ele><time>1970-01-01T00:45:00.000Z</time></trkpt><trkpt lat="14.705652" lon="101.171749"><ele>242.6</ele><time>1970-01-01T00:45:02.000Z</time></trkpt><trkpt lat="14.705631" lon="101.171714"><ele>242.5</ele><time>1970-01-01T00:45:05.000Z</time></trkpt><trkpt lat="14.705597" lon="101.171695"><ele>241.9</ele><time>1970-01-01T00:45:07.000Z</time></trkpt><trkpt lat="14.705563" lon="101.171664"><ele>241</ele><time>1970-01-01T00:45:09.000Z</time></trkpt><trkpt lat="14.705541" lon="101.17162"><ele>240.7</ele><time>1970-01-01T00:45:11.000Z</time></trkpt><trkpt lat="14.705534" lon="101.171568"><ele>240.4</ele><time>1970-01-01T00:45:13.000Z</time></trkpt><trkpt lat="14.70553" lon="101.171518"><ele>239.9</ele><time>1970-01-01T00:45:15.000Z</time></trkpt><trkpt lat="14.70551" lon="101.17147"><ele>239.8</ele><time>1970-01-01T00:45:17.000Z</time></trkpt><trkpt lat="14.705495" lon="101.171446"><ele>239.9</ele><time>1970-01-01T00:45:18.000Z</time></trkpt><trkpt lat="14.705479" lon="101.171422"><ele>239.7</ele><time>1970-01-01T00:45:19.000Z</time></trkpt><trkpt lat="14.705463" lon="101.171395"><ele>239.7</ele><time>1970-01-01T00:45:20.000Z</time></trkpt><trkpt lat="14.705446" lon="101.171365"><ele>239.4</ele><time>1970-01-01T00:45:21.000Z</time></trkpt><trkpt lat="14.705432" lon="101.171337"><ele>239.4</ele><time>1970-01-01T00:45:22.000Z</time></trkpt><trkpt lat="14.705412" lon="101.171286"><ele>239.4</ele><time>1970-01-01T00:45:24.000Z</time></trkpt><trkpt lat="14.705392" lon="101.171235"><ele>239.2</ele><time>1970-01-01T00:45:26.000Z</time></trkpt><trkpt lat="14.705374" lon="101.171185"><ele>239.2</ele><time>1970-01-01T00:45:28.000Z</time></trkpt><trkpt lat="14.705356" lon="101.171132"><ele>238.9</ele><time>1970-01-01T00:45:30.000Z</time></trkpt><trkpt lat="14.70534" lon="101.171084"><ele>238.7</ele><time>1970-01-01T00:45:32.000Z</time></trkpt><trkpt lat="14.705324" lon="101.171034"><ele>238</ele><time>1970-01-01T00:45:34.000Z</time></trkpt><trkpt lat="14.705313" lon="101.170987"><ele>237.5</ele><time>1970-01-01T00:45:36.000Z</time></trkpt><trkpt lat="14.705306" lon="101.170957"><ele>237.5</ele><time>1970-01-01T00:45:37.000Z</time></trkpt><trkpt lat="14.7053" lon="101.170926"><ele>237.4</ele><time>1970-01-01T00:45:38.000Z</time></trkpt><trkpt lat="14.705294" lon="101.170898"><ele>237.4</ele><time>1970-01-01T00:45:39.000Z</time></trkpt><trkpt lat="14.705281" lon="101.170845"><ele>237.2</ele><time>1970-01-01T00:45:41.000Z</time></trkpt><trkpt lat="14.705272" lon="101.170817"><ele>237.3</ele><time>1970-01-01T00:45:42.000Z</time></trkpt><trkpt lat="14.70525" lon="101.170769"><ele>237.4</ele><time>1970-01-01T00:45:44.000Z</time></trkpt><trkpt lat="14.705223" lon="101.170732"><ele>237.1</ele><time>1970-01-01T00:45:46.000Z</time></trkpt><trkpt lat="14.705196" lon="101.17069"><ele>236.9</ele><time>1970-01-01T00:45:48.000Z</time></trkpt><trkpt lat="14.705165" lon="101.17065"><ele>236.9</ele><time>1970-01-01T00:45:50.000Z</time></trkpt><trkpt lat="14.705139" lon="101.170619"><ele>236.6</ele><time>1970-01-01T00:45:52.000Z</time></trkpt><trkpt lat="14.705108" lon="101.170584"><ele>236.2</ele><time>1970-01-01T00:45:54.000Z</time></trkpt><trkpt lat="14.705069" lon="101.170545"><ele>235.8</ele><time>1970-01-01T00:45:56.000Z</time></trkpt><trkpt lat="14.705047" lon="101.170517"><ele>235.5</ele><time>1970-01-01T00:45:57.000Z</time></trkpt><trkpt lat="14.705017" lon="101.170493"><ele>235.5</ele><time>1970-01-01T00:46:05.000Z</time></trkpt><trkpt lat="14.704986" lon="101.170464"><ele>235.2</ele><time>1970-01-01T00:46:07.000Z</time></trkpt><trkpt lat="14.704948" lon="101.170465"><ele>235.2</ele><time>1970-01-01T00:46:11.000Z</time></trkpt><trkpt lat="14.70492" lon="101.170493"><ele>235.5</ele><time>1970-01-01T00:46:14.000Z</time></trkpt><trkpt lat="14.704913" lon="101.170524"><ele>235.7</ele><time>1970-01-01T00:46:18.000Z</time></trkpt><trkpt lat="14.704907" lon="101.170559"><ele>235.8</ele><time>1970-01-01T00:46:20.000Z</time></trkpt><trkpt lat="14.704897" lon="101.170594"><ele>236</ele><time>1970-01-01T00:46:22.000Z</time></trkpt><trkpt lat="14.704889" lon="101.170629"><ele>236.3</ele><time>1970-01-01T00:46:24.000Z</time></trkpt><trkpt lat="14.704877" lon="101.170672"><ele>236.6</ele><time>1970-01-01T00:46:26.000Z</time></trkpt><trkpt lat="14.704858" lon="101.170712"><ele>237.4</ele><time>1970-01-01T00:46:28.000Z</time></trkpt><trkpt lat="14.704841" lon="101.17074"><ele>237.8</ele><time>1970-01-01T00:46:31.000Z</time></trkpt><trkpt lat="14.704813" lon="101.170757"><ele>238.3</ele><time>1970-01-01T00:46:44.000Z</time></trkpt><trkpt lat="14.704808" lon="101.170787"><ele>238.6</ele><time>1970-01-01T00:46:47.000Z</time></trkpt><trkpt lat="14.704798" lon="101.17082"><ele>238.6</ele><time>1970-01-01T00:46:50.000Z</time></trkpt><trkpt lat="14.704787" lon="101.170849"><ele>238.7</ele><time>1970-01-01T00:46:53.000Z</time></trkpt><trkpt lat="14.704776" lon="101.170881"><ele>239</ele><time>1970-01-01T00:46:56.000Z</time></trkpt><trkpt lat="14.704761" lon="101.170914"><ele>239</ele><time>1970-01-01T00:46:59.000Z</time></trkpt><trkpt lat="14.704738" lon="101.170937"><ele>239.2</ele><time>1970-01-01T00:47:02.000Z</time></trkpt><trkpt lat="14.704731" lon="101.170969"><ele>239.3</ele><time>1970-01-01T00:47:06.000Z</time></trkpt><trkpt lat="14.704733" lon="101.170999"><ele>239.4</ele><time>1970-01-01T00:47:09.000Z</time></trkpt><trkpt lat="14.704732" lon="101.171031"><ele>239.4</ele><time>1970-01-01T00:47:12.000Z</time></trkpt><trkpt lat="14.704729" lon="101.171063"><ele>239.7</ele><time>1970-01-01T00:47:15.000Z</time></trkpt><trkpt lat="14.704727" lon="101.171095"><ele>240</ele><time>1970-01-01T00:47:18.000Z</time></trkpt><trkpt lat="14.704726" lon="101.171127"><ele>240.3</ele><time>1970-01-01T00:47:21.000Z</time></trkpt><trkpt lat="14.704725" lon="101.171163"><ele>240.3</ele><time>1970-01-01T00:47:24.000Z</time></trkpt><trkpt lat="14.704723" lon="101.171194"><ele>240.7</ele><time>1970-01-01T00:47:27.000Z</time></trkpt><trkpt lat="14.704719" lon="101.171228"><ele>241</ele><time>1970-01-01T00:47:30.000Z</time></trkpt><trkpt lat="14.704715" lon="101.17126"><ele>241.2</ele><time>1970-01-01T00:47:33.000Z</time></trkpt><trkpt lat="14.7047" lon="101.171293"><ele>241.5</ele><time>1970-01-01T00:47:36.000Z</time></trkpt><trkpt lat="14.7047" lon="101.171333"><ele>241.6</ele><time>1970-01-01T00:47:39.000Z</time></trkpt><trkpt lat="14.704701" lon="101.171371"><ele>241.4</ele><time>1970-01-01T00:47:42.000Z</time></trkpt><trkpt lat="14.704701" lon="101.171401"><ele>241.4</ele><time>1970-01-01T00:47:45.000Z</time></trkpt><trkpt lat="14.704693" lon="101.171436"><ele>241.7</ele><time>1970-01-01T00:47:48.000Z</time></trkpt><trkpt lat="14.704691" lon="101.171468"><ele>241.6</ele><time>1970-01-01T00:47:50.000Z</time></trkpt><trkpt lat="14.704689" lon="101.171503"><ele>241.6</ele><time>1970-01-01T00:47:53.000Z</time></trkpt><trkpt lat="14.704688" lon="101.171537"><ele>241.5</ele><time>1970-01-01T00:47:56.000Z</time></trkpt><trkpt lat="14.704681" lon="101.171571"><ele>241.4</ele><time>1970-01-01T00:47:59.000Z</time></trkpt><trkpt lat="14.704678" lon="101.171613"><ele>241.2</ele><time>1970-01-01T00:48:02.000Z</time></trkpt><trkpt lat="14.704675" lon="101.171645"><ele>241.1</ele><time>1970-01-01T00:48:05.000Z</time></trkpt><trkpt lat="14.70467" lon="101.171677"><ele>241.1</ele><time>1970-01-01T00:48:08.000Z</time></trkpt><trkpt lat="14.704665" lon="101.171709"><ele>241.1</ele><time>1970-01-01T00:48:11.000Z</time></trkpt><trkpt lat="14.704663" lon="101.171747"><ele>241</ele><time>1970-01-01T00:48:14.000Z</time></trkpt><trkpt lat="14.704659" lon="101.171783"><ele>241</ele><time>1970-01-01T00:48:17.000Z</time></trkpt><trkpt lat="14.70466" lon="101.171812"><ele>241.1</ele><time>1970-01-01T00:48:24.000Z</time></trkpt><trkpt lat="14.704657" lon="101.171843"><ele>241.1</ele><time>1970-01-01T00:48:26.000Z</time></trkpt><trkpt lat="14.704656" lon="101.171886"><ele>241.2</ele><time>1970-01-01T00:48:28.000Z</time></trkpt><trkpt lat="14.704652" lon="101.171929"><ele>241.2</ele><time>1970-01-01T00:48:30.000Z</time></trkpt><trkpt lat="14.704648" lon="101.171973"><ele>241.2</ele><time>1970-01-01T00:48:32.000Z</time></trkpt><trkpt lat="14.704642" lon="101.172017"><ele>241.1</ele><time>1970-01-01T00:48:34.000Z</time></trkpt><trkpt lat="14.704629" lon="101.172059"><ele>240.8</ele><time>1970-01-01T00:48:36.000Z</time></trkpt><trkpt lat="14.70462" lon="101.172098"><ele>240.4</ele><time>1970-01-01T00:48:38.000Z</time></trkpt><trkpt lat="14.704615" lon="101.172142"><ele>240.2</ele><time>1970-01-01T00:48:40.000Z</time></trkpt><trkpt lat="14.704609" lon="101.172195"><ele>239.8</ele><time>1970-01-01T00:48:42.000Z</time></trkpt><trkpt lat="14.704604" lon="101.172245"><ele>239.8</ele><time>1970-01-01T00:48:44.000Z</time></trkpt><trkpt lat="14.704602" lon="101.172292"><ele>239.9</ele><time>1970-01-01T00:48:46.000Z</time></trkpt><trkpt lat="14.704597" lon="101.172337"><ele>240.1</ele><time>1970-01-01T00:48:48.000Z</time></trkpt><trkpt lat="14.704591" lon="101.172381"><ele>240.4</ele><time>1970-01-01T00:48:50.000Z</time></trkpt><trkpt lat="14.704582" lon="101.172414"><ele>240.7</ele><time>1970-01-01T00:48:52.000Z</time></trkpt><trkpt lat="14.704569" lon="101.172446"><ele>240.7</ele><time>1970-01-01T00:48:54.000Z</time></trkpt><trkpt lat="14.704563" lon="101.172483"><ele>240.9</ele><time>1970-01-01T00:48:56.000Z</time></trkpt><trkpt lat="14.704557" lon="101.172522"><ele>241</ele><time>1970-01-01T00:48:58.000Z</time></trkpt><trkpt lat="14.704551" lon="101.172555"><ele>241</ele><time>1970-01-01T00:49:00.000Z</time></trkpt><trkpt lat="14.704549" lon="101.172597"><ele>241</ele><time>1970-01-01T00:49:02.000Z</time></trkpt><trkpt lat="14.704548" lon="101.172641"><ele>241</ele><time>1970-01-01T00:49:04.000Z</time></trkpt><trkpt lat="14.704544" lon="101.172687"><ele>241.1</ele><time>1970-01-01T00:49:06.000Z</time></trkpt><trkpt lat="14.704538" lon="101.172735"><ele>241.3</ele><time>1970-01-01T00:49:08.000Z</time></trkpt><trkpt lat="14.70453" lon="101.172785"><ele>241.8</ele><time>1970-01-01T00:49:10.000Z</time></trkpt><trkpt lat="14.704519" lon="101.172837"><ele>242.1</ele><time>1970-01-01T00:49:12.000Z</time></trkpt><trkpt lat="14.704515" lon="101.172866"><ele>242.4</ele><time>1970-01-01T00:49:13.000Z</time></trkpt><trkpt lat="14.704511" lon="101.172913"><ele>242.7</ele><time>1970-01-01T00:49:15.000Z</time></trkpt><trkpt lat="14.704507" lon="101.172953"><ele>242.9</ele><time>1970-01-01T00:49:17.000Z</time></trkpt><trkpt lat="14.704497" lon="101.172993"><ele>243.1</ele><time>1970-01-01T00:49:19.000Z</time></trkpt><trkpt lat="14.704489" lon="101.173037"><ele>243.6</ele><time>1970-01-01T00:49:21.000Z</time></trkpt><trkpt lat="14.704484" lon="101.17308"><ele>243.9</ele><time>1970-01-01T00:49:23.000Z</time></trkpt><trkpt lat="14.70447" lon="101.173119"><ele>244.4</ele><time>1970-01-01T00:49:25.000Z</time></trkpt><trkpt lat="14.704437" lon="101.173146"><ele>244.9</ele><time>1970-01-01T00:49:27.000Z</time></trkpt><trkpt lat="14.704388" lon="101.173154"><ele>245</ele><time>1970-01-01T00:49:29.000Z</time></trkpt><trkpt lat="14.704343" lon="101.173156"><ele>245.3</ele><time>1970-01-01T00:49:31.000Z</time></trkpt><trkpt lat="14.704314" lon="101.173156"><ele>245.4</ele><time>1970-01-01T00:49:32.000Z</time></trkpt><trkpt lat="14.704288" lon="101.173152"><ele>245.6</ele><time>1970-01-01T00:49:33.000Z</time></trkpt><trkpt lat="14.704233" lon="101.173143"><ele>245.8</ele><time>1970-01-01T00:49:35.000Z</time></trkpt><trkpt lat="14.704204" lon="101.173138"><ele>245.9</ele><time>1970-01-01T00:49:36.000Z</time></trkpt><trkpt lat="14.704174" lon="101.173133"><ele>246</ele><time>1970-01-01T00:49:37.000Z</time></trkpt><trkpt lat="14.704143" lon="101.173128"><ele>246.2</ele><time>1970-01-01T00:49:38.000Z</time></trkpt><trkpt lat="14.704114" lon="101.173122"><ele>246.3</ele><time>1970-01-01T00:49:39.000Z</time></trkpt><trkpt lat="14.704086" lon="101.173118"><ele>246.5</ele><time>1970-01-01T00:49:40.000Z</time></trkpt><trkpt lat="14.704058" lon="101.173115"><ele>246.6</ele><time>1970-01-01T00:49:41.000Z</time></trkpt><trkpt lat="14.704031" lon="101.173111"><ele>246.8</ele><time>1970-01-01T00:49:42.000Z</time></trkpt><trkpt lat="14.704" lon="101.173107"><ele>247</ele><time>1970-01-01T00:49:43.000Z</time></trkpt><trkpt lat="14.703966" lon="101.173102"><ele>247.2</ele><time>1970-01-01T00:49:44.000Z</time></trkpt><trkpt lat="14.70393" lon="101.173098"><ele>247.4</ele><time>1970-01-01T00:49:45.000Z</time></trkpt><trkpt lat="14.703889" lon="101.173092"><ele>247.6</ele><time>1970-01-01T00:49:46.000Z</time></trkpt><trkpt lat="14.703846" lon="101.173087"><ele>247.7</ele><time>1970-01-01T00:49:47.000Z</time></trkpt><trkpt lat="14.703802" lon="101.173084"><ele>247.7</ele><time>1970-01-01T00:49:48.000Z</time></trkpt><trkpt lat="14.703756" lon="101.173081"><ele>247.7</ele><time>1970-01-01T00:49:49.000Z</time></trkpt><trkpt lat="14.70371" lon="101.173076"><ele>247.5</ele><time>1970-01-01T00:49:50.000Z</time></trkpt><trkpt lat="14.703656" lon="101.173055"><ele>247.3</ele><time>1970-01-01T00:49:51.000Z</time></trkpt><trkpt lat="14.703615" lon="101.173051"><ele>247.2</ele><time>1970-01-01T00:49:52.000Z</time></trkpt><trkpt lat="14.70357" lon="101.173051"><ele>246.9</ele><time>1970-01-01T00:49:53.000Z</time></trkpt><trkpt lat="14.703526" lon="101.173052"><ele>246.4</ele><time>1970-01-01T00:49:54.000Z</time></trkpt><trkpt lat="14.703481" lon="101.173055"><ele>245.9</ele><time>1970-01-01T00:49:55.000Z</time></trkpt><trkpt lat="14.703435" lon="101.173046"><ele>245.4</ele><time>1970-01-01T00:49:56.000Z</time></trkpt><trkpt lat="14.703388" lon="101.17304"><ele>244.9</ele><time>1970-01-01T00:49:57.000Z</time></trkpt><trkpt lat="14.703339" lon="101.173036"><ele>244.3</ele><time>1970-01-01T00:49:58.000Z</time></trkpt><trkpt lat="14.703295" lon="101.173028"><ele>244</ele><time>1970-01-01T00:49:59.000Z</time></trkpt><trkpt lat="14.703263" lon="101.173029"><ele>243.8</ele><time>1970-01-01T00:50:00.000Z</time></trkpt><trkpt lat="14.703232" lon="101.173022"><ele>243.5</ele><time>1970-01-01T00:50:01.000Z</time></trkpt><trkpt lat="14.703197" lon="101.173013"><ele>243.1</ele><time>1970-01-01T00:50:02.000Z</time></trkpt><trkpt lat="14.703164" lon="101.173011"><ele>242.7</ele><time>1970-01-01T00:50:03.000Z</time></trkpt><trkpt lat="14.703125" lon="101.173007"><ele>242.3</ele><time>1970-01-01T00:50:04.000Z</time></trkpt><trkpt lat="14.703079" lon="101.172997"><ele>241.7</ele><time>1970-01-01T00:50:05.000Z</time></trkpt><trkpt lat="14.703032" lon="101.172984"><ele>241.1</ele><time>1970-01-01T00:50:06.000Z</time></trkpt><trkpt lat="14.70298" lon="101.172977"><ele>240.5</ele><time>1970-01-01T00:50:07.000Z</time></trkpt><trkpt lat="14.702926" lon="101.172969"><ele>240</ele><time>1970-01-01T00:50:08.000Z</time></trkpt><trkpt lat="14.702869" lon="101.172961"><ele>239.9</ele><time>1970-01-01T00:50:09.000Z</time></trkpt><trkpt lat="14.702815" lon="101.172953"><ele>240.1</ele><time>1970-01-01T00:50:10.000Z</time></trkpt><trkpt lat="14.70276" lon="101.172944"><ele>240.2</ele><time>1970-01-01T00:50:11.000Z</time></trkpt><trkpt lat="14.702706" lon="101.172939"><ele>240.2</ele><time>1970-01-01T00:50:12.000Z</time></trkpt><trkpt lat="14.702648" lon="101.172929"><ele>240.3</ele><time>1970-01-01T00:50:13.000Z</time></trkpt><trkpt lat="14.702592" lon="101.172923"><ele>240.3</ele><time>1970-01-01T00:50:14.000Z</time></trkpt><trkpt lat="14.702539" lon="101.172919"><ele>240.3</ele><time>1970-01-01T00:50:15.000Z</time></trkpt><trkpt lat="14.702484" lon="101.172916"><ele>240.5</ele><time>1970-01-01T00:50:16.000Z</time></trkpt><trkpt lat="14.702426" lon="101.172908"><ele>240.7</ele><time>1970-01-01T00:50:17.000Z</time></trkpt><trkpt lat="14.702373" lon="101.172901"><ele>240.7</ele><time>1970-01-01T00:50:18.000Z</time></trkpt><trkpt lat="14.702318" lon="101.17289"><ele>240.7</ele><time>1970-01-01T00:50:19.000Z</time></trkpt><trkpt lat="14.702268" lon="101.172886"><ele>240.7</ele><time>1970-01-01T00:50:20.000Z</time></trkpt><trkpt lat="14.702222" lon="101.17289"><ele>240.7</ele><time>1970-01-01T00:50:21.000Z</time></trkpt><trkpt lat="14.702176" lon="101.172888"><ele>240.7</ele><time>1970-01-01T00:50:22.000Z</time></trkpt><trkpt lat="14.702127" lon="101.172892"><ele>240.7</ele><time>1970-01-01T00:50:23.000Z</time></trkpt><trkpt lat="14.702067" lon="101.172879"><ele>240.7</ele><time>1970-01-01T00:50:24.000Z</time></trkpt><trkpt lat="14.70202" lon="101.172881"><ele>240.7</ele><time>1970-01-01T00:50:25.000Z</time></trkpt><trkpt lat="14.701974" lon="101.172876"><ele>240.7</ele><time>1970-01-01T00:50:26.000Z</time></trkpt><trkpt lat="14.701924" lon="101.172882"><ele>240.8</ele><time>1970-01-01T00:50:27.000Z</time></trkpt><trkpt lat="14.701873" lon="101.172874"><ele>240.8</ele><time>1970-01-01T00:50:28.000Z</time></trkpt><trkpt lat="14.701819" lon="101.172869"><ele>240.6</ele><time>1970-01-01T00:50:29.000Z</time></trkpt><trkpt lat="14.701773" lon="101.172872"><ele>240.4</ele><time>1970-01-01T00:50:30.000Z</time></trkpt><trkpt lat="14.70172" lon="101.17287"><ele>240.1</ele><time>1970-01-01T00:50:31.000Z</time></trkpt><trkpt lat="14.701668" lon="101.172878"><ele>239.8</ele><time>1970-01-01T00:50:32.000Z</time></trkpt><trkpt lat="14.701614" lon="101.172875"><ele>239.5</ele><time>1970-01-01T00:50:33.000Z</time></trkpt><trkpt lat="14.701559" lon="101.172876"><ele>239.1</ele><time>1970-01-01T00:50:34.000Z</time></trkpt><trkpt lat="14.701501" lon="101.172877"><ele>238.8</ele><time>1970-01-01T00:50:35.000Z</time></trkpt><trkpt lat="14.701435" lon="101.172869"><ele>238.3</ele><time>1970-01-01T00:50:36.000Z</time></trkpt><trkpt lat="14.701375" lon="101.172862"><ele>238</ele><time>1970-01-01T00:50:37.000Z</time></trkpt><trkpt lat="14.701315" lon="101.172846"><ele>237.8</ele><time>1970-01-01T00:50:38.000Z</time></trkpt><trkpt lat="14.701256" lon="101.172817"><ele>237.6</ele><time>1970-01-01T00:50:39.000Z</time></trkpt><trkpt lat="14.701202" lon="101.172787"><ele>237.4</ele><time>1970-01-01T00:50:40.000Z</time></trkpt><trkpt lat="14.70116" lon="101.172789"><ele>237.3</ele><time>1970-01-01T00:50:41.000Z</time></trkpt><trkpt lat="14.701105" lon="101.172788"><ele>237.1</ele><time>1970-01-01T00:50:42.000Z</time></trkpt><trkpt lat="14.701047" lon="101.17276"><ele>236.8</ele><time>1970-01-01T00:50:43.000Z</time></trkpt><trkpt lat="14.700999" lon="101.172728"><ele>236.8</ele><time>1970-01-01T00:50:44.000Z</time></trkpt><trkpt lat="14.700962" lon="101.172694"><ele>236.9</ele><time>1970-01-01T00:50:45.000Z</time></trkpt><trkpt lat="14.700939" lon="101.172656"><ele>236.9</ele><time>1970-01-01T00:50:46.000Z</time></trkpt><trkpt lat="14.700921" lon="101.172615"><ele>236.9</ele><time>1970-01-01T00:50:47.000Z</time></trkpt><trkpt lat="14.700904" lon="101.172573"><ele>236.9</ele><time>1970-01-01T00:50:48.000Z</time></trkpt><trkpt lat="14.700891" lon="101.172538"><ele>236.9</ele><time>1970-01-01T00:50:49.000Z</time></trkpt><trkpt lat="14.700873" lon="101.172501"><ele>236.9</ele><time>1970-01-01T00:50:50.000Z</time></trkpt><trkpt lat="14.700861" lon="101.172466"><ele>236.9</ele><time>1970-01-01T00:50:51.000Z</time></trkpt><trkpt lat="14.700845" lon="101.17243"><ele>236.9</ele><time>1970-01-01T00:50:52.000Z</time></trkpt><trkpt lat="14.700828" lon="101.17239"><ele>237</ele><time>1970-01-01T00:50:53.000Z</time></trkpt><trkpt lat="14.700813" lon="101.17235"><ele>237.1</ele><time>1970-01-01T00:50:54.000Z</time></trkpt><trkpt lat="14.700795" lon="101.172313"><ele>237.3</ele><time>1970-01-01T00:50:55.000Z</time></trkpt><trkpt lat="14.700778" lon="101.172273"><ele>237.5</ele><time>1970-01-01T00:50:56.000Z</time></trkpt><trkpt lat="14.700761" lon="101.172237"><ele>237.6</ele><time>1970-01-01T00:50:57.000Z</time></trkpt><trkpt lat="14.700742" lon="101.172202"><ele>237.9</ele><time>1970-01-01T00:50:58.000Z</time></trkpt><trkpt lat="14.700721" lon="101.172166"><ele>238.1</ele><time>1970-01-01T00:50:59.000Z</time></trkpt><trkpt lat="14.700698" lon="101.172129"><ele>238.5</ele><time>1970-01-01T00:51:00.000Z</time></trkpt><trkpt lat="14.700672" lon="101.172093"><ele>238.9</ele><time>1970-01-01T00:51:01.000Z</time></trkpt><trkpt lat="14.700645" lon="101.172058"><ele>239.3</ele><time>1970-01-01T00:51:02.000Z</time></trkpt><trkpt lat="14.700615" lon="101.172026"><ele>239.7</ele><time>1970-01-01T00:51:03.000Z</time></trkpt><trkpt lat="14.700581" lon="101.171999"><ele>240.1</ele><time>1970-01-01T00:51:04.000Z</time></trkpt><trkpt lat="14.700542" lon="101.171976"><ele>240.9</ele><time>1970-01-01T00:51:05.000Z</time></trkpt><trkpt lat="14.700502" lon="101.171961"><ele>241.8</ele><time>1970-01-01T00:51:06.000Z</time></trkpt><trkpt lat="14.700462" lon="101.171952"><ele>242.6</ele><time>1970-01-01T00:51:07.000Z</time></trkpt><trkpt lat="14.700419" lon="101.171949"><ele>243.4</ele><time>1970-01-01T00:51:08.000Z</time></trkpt><trkpt lat="14.700377" lon="101.171955"><ele>243.9</ele><time>1970-01-01T00:51:09.000Z</time></trkpt><trkpt lat="14.700336" lon="101.171968"><ele>244.4</ele><time>1970-01-01T00:51:10.000Z</time></trkpt><trkpt lat="14.700295" lon="101.171984"><ele>244.6</ele><time>1970-01-01T00:51:11.000Z</time></trkpt><trkpt lat="14.700256" lon="101.172"><ele>244.7</ele><time>1970-01-01T00:51:12.000Z</time></trkpt><trkpt lat="14.700218" lon="101.172017"><ele>244.8</ele><time>1970-01-01T00:51:13.000Z</time></trkpt><trkpt lat="14.70018" lon="101.172036"><ele>244.9</ele><time>1970-01-01T00:51:14.000Z</time></trkpt><trkpt lat="14.700142" lon="101.172057"><ele>244.7</ele><time>1970-01-01T00:51:15.000Z</time></trkpt><trkpt lat="14.700105" lon="101.172076"><ele>244.4</ele><time>1970-01-01T00:51:16.000Z</time></trkpt><trkpt lat="14.700067" lon="101.172093"><ele>244.3</ele><time>1970-01-01T00:51:17.000Z</time></trkpt><trkpt lat="14.700029" lon="101.172108"><ele>244.3</ele><time>1970-01-01T00:51:18.000Z</time></trkpt><trkpt lat="14.699992" lon="101.172123"><ele>244.3</ele><time>1970-01-01T00:51:19.000Z</time></trkpt><trkpt lat="14.699955" lon="101.172136"><ele>244.4</ele><time>1970-01-01T00:51:20.000Z</time></trkpt><trkpt lat="14.69992" lon="101.172146"><ele>244.5</ele><time>1970-01-01T00:51:21.000Z</time></trkpt><trkpt lat="14.699886" lon="101.172148"><ele>244.7</ele><time>1970-01-01T00:51:22.000Z</time></trkpt><trkpt lat="14.69985" lon="101.172144"><ele>244.8</ele><time>1970-01-01T00:51:23.000Z</time></trkpt><trkpt lat="14.699816" lon="101.172136"><ele>244.9</ele><time>1970-01-01T00:51:24.000Z</time></trkpt><trkpt lat="14.699784" lon="101.172125"><ele>245</ele><time>1970-01-01T00:51:25.000Z</time></trkpt><trkpt lat="14.699752" lon="101.172112"><ele>245.1</ele><time>1970-01-01T00:51:26.000Z</time></trkpt><trkpt lat="14.699718" lon="101.1721"><ele>245.3</ele><time>1970-01-01T00:51:27.000Z</time></trkpt><trkpt lat="14.699685" lon="101.172088"><ele>245.4</ele><time>1970-01-01T00:51:28.000Z</time></trkpt><trkpt lat="14.699654" lon="101.172079"><ele>245.5</ele><time>1970-01-01T00:51:29.000Z</time></trkpt><trkpt lat="14.699621" lon="101.172072"><ele>245.6</ele><time>1970-01-01T00:51:30.000Z</time></trkpt><trkpt lat="14.699586" lon="101.172067"><ele>245.7</ele><time>1970-01-01T00:51:31.000Z</time></trkpt><trkpt lat="14.699551" lon="101.172065"><ele>245.7</ele><time>1970-01-01T00:51:32.000Z</time></trkpt><trkpt lat="14.699514" lon="101.172066"><ele>245.7</ele><time>1970-01-01T00:51:33.000Z</time></trkpt><trkpt lat="14.699479" lon="101.172068"><ele>245.7</ele><time>1970-01-01T00:51:34.000Z</time></trkpt><trkpt lat="14.699438" lon="101.17207"><ele>245.8</ele><time>1970-01-01T00:51:35.000Z</time></trkpt><trkpt lat="14.699398" lon="101.17207"><ele>245.9</ele><time>1970-01-01T00:51:36.000Z</time></trkpt><trkpt lat="14.699363" lon="101.172068"><ele>245.9</ele><time>1970-01-01T00:51:37.000Z</time></trkpt><trkpt lat="14.69933" lon="101.172061"><ele>245.9</ele><time>1970-01-01T00:51:38.000Z</time></trkpt><trkpt lat="14.699297" lon="101.172049"><ele>245.9</ele><time>1970-01-01T00:51:39.000Z</time></trkpt><trkpt lat="14.699267" lon="101.172037"><ele>245.9</ele><time>1970-01-01T00:51:40.000Z</time></trkpt><trkpt lat="14.699235" lon="101.172023"><ele>246</ele><time>1970-01-01T00:51:41.000Z</time></trkpt><trkpt lat="14.699201" lon="101.17201"><ele>246.1</ele><time>1970-01-01T00:51:42.000Z</time></trkpt><trkpt lat="14.699165" lon="101.171997"><ele>246.1</ele><time>1970-01-01T00:51:43.000Z</time></trkpt><trkpt lat="14.699126" lon="101.171982"><ele>246.2</ele><time>1970-01-01T00:51:44.000Z</time></trkpt><trkpt lat="14.699086" lon="101.171965"><ele>246.3</ele><time>1970-01-01T00:51:45.000Z</time></trkpt><trkpt lat="14.699047" lon="101.171947"><ele>246.4</ele><time>1970-01-01T00:51:46.000Z</time></trkpt><trkpt lat="14.699009" lon="101.171928"><ele>246.6</ele><time>1970-01-01T00:51:47.000Z</time></trkpt><trkpt lat="14.698972" lon="101.171908"><ele>247</ele><time>1970-01-01T00:51:48.000Z</time></trkpt><trkpt lat="14.698934" lon="101.17189"><ele>247.4</ele><time>1970-01-01T00:51:49.000Z</time></trkpt><trkpt lat="14.698894" lon="101.171871"><ele>247.7</ele><time>1970-01-01T00:51:50.000Z</time></trkpt><trkpt lat="14.698852" lon="101.171853"><ele>247.9</ele><time>1970-01-01T00:51:51.000Z</time></trkpt><trkpt lat="14.69881" lon="101.171836"><ele>247.8</ele><time>1970-01-01T00:51:52.000Z</time></trkpt><trkpt lat="14.698769" lon="101.171819"><ele>247.6</ele><time>1970-01-01T00:51:53.000Z</time></trkpt><trkpt lat="14.69873" lon="101.171801"><ele>247.4</ele><time>1970-01-01T00:51:54.000Z</time></trkpt><trkpt lat="14.698696" lon="101.171786"><ele>247.2</ele><time>1970-01-01T00:51:55.000Z</time></trkpt><trkpt lat="14.698671" lon="101.171772"><ele>247.1</ele><time>1970-01-01T00:51:56.000Z</time></trkpt><trkpt lat="14.698646" lon="101.171747"><ele>247.1</ele><time>1970-01-01T00:51:58.000Z</time></trkpt><trkpt lat="14.69864" lon="101.171697"><ele>247.1</ele><time>1970-01-01T00:52:00.000Z</time></trkpt><trkpt lat="14.698648" lon="101.171658"><ele>247.1</ele><time>1970-01-01T00:52:01.000Z</time></trkpt><trkpt lat="14.698667" lon="101.171616"><ele>247.6</ele><time>1970-01-01T00:52:02.000Z</time></trkpt><trkpt lat="14.698695" lon="101.171579"><ele>248.2</ele><time>1970-01-01T00:52:03.000Z</time></trkpt><trkpt lat="14.698728" lon="101.171543"><ele>248.7</ele><time>1970-01-01T00:52:04.000Z</time></trkpt><trkpt lat="14.698762" lon="101.171509"><ele>249.3</ele><time>1970-01-01T00:52:05.000Z</time></trkpt><trkpt lat="14.698794" lon="101.171479"><ele>249.8</ele><time>1970-01-01T00:52:06.000Z</time></trkpt><trkpt lat="14.698827" lon="101.171448"><ele>250</ele><time>1970-01-01T00:52:07.000Z</time></trkpt><trkpt lat="14.69886" lon="101.171416"><ele>250.1</ele><time>1970-01-01T00:52:08.000Z</time></trkpt><trkpt lat="14.698891" lon="101.171384"><ele>250.2</ele><time>1970-01-01T00:52:09.000Z</time></trkpt><trkpt lat="14.698922" lon="101.171353"><ele>250.4</ele><time>1970-01-01T00:52:10.000Z</time></trkpt><trkpt lat="14.698953" lon="101.171318"><ele>250.5</ele><time>1970-01-01T00:52:11.000Z</time></trkpt><trkpt lat="14.698982" lon="101.171281"><ele>250.7</ele><time>1970-01-01T00:52:12.000Z</time></trkpt><trkpt lat="14.699011" lon="101.171243"><ele>250.9</ele><time>1970-01-01T00:52:13.000Z</time></trkpt><trkpt lat="14.699041" lon="101.171207"><ele>251.1</ele><time>1970-01-01T00:52:14.000Z</time></trkpt><trkpt lat="14.699075" lon="101.171165"><ele>251.3</ele><time>1970-01-01T00:52:15.000Z</time></trkpt><trkpt lat="14.699103" lon="101.171136"><ele>251.4</ele><time>1970-01-01T00:52:16.000Z</time></trkpt><trkpt lat="14.699129" lon="101.171104"><ele>251.6</ele><time>1970-01-01T00:52:17.000Z</time></trkpt><trkpt lat="14.69916" lon="101.171071"><ele>251.7</ele><time>1970-01-01T00:52:18.000Z</time></trkpt><trkpt lat="14.699184" lon="101.171026"><ele>251.8</ele><time>1970-01-01T00:52:19.000Z</time></trkpt><trkpt lat="14.699214" lon="101.170992"><ele>251.8</ele><time>1970-01-01T00:52:20.000Z</time></trkpt><trkpt lat="14.699245" lon="101.170959"><ele>251.9</ele><time>1970-01-01T00:52:21.000Z</time></trkpt><trkpt lat="14.699272" lon="101.17092"><ele>251.9</ele><time>1970-01-01T00:52:22.000Z</time></trkpt><trkpt lat="14.699301" lon="101.170897"><ele>251.9</ele><time>1970-01-01T00:52:23.000Z</time></trkpt><trkpt lat="14.699334" lon="101.170861"><ele>252</ele><time>1970-01-01T00:52:24.000Z</time></trkpt><trkpt lat="14.699369" lon="101.170826"><ele>252</ele><time>1970-01-01T00:52:25.000Z</time></trkpt><trkpt lat="14.699399" lon="101.170801"><ele>252</ele><time>1970-01-01T00:52:26.000Z</time></trkpt><trkpt lat="14.699427" lon="101.170765"><ele>252</ele><time>1970-01-01T00:52:27.000Z</time></trkpt><trkpt lat="14.699465" lon="101.170734"><ele>252</ele><time>1970-01-01T00:52:28.000Z</time></trkpt><trkpt lat="14.699497" lon="101.170701"><ele>252</ele><time>1970-01-01T00:52:29.000Z</time></trkpt><trkpt lat="14.699527" lon="101.170667"><ele>252</ele><time>1970-01-01T00:52:30.000Z</time></trkpt><trkpt lat="14.699557" lon="101.170627"><ele>252</ele><time>1970-01-01T00:52:31.000Z</time></trkpt><trkpt lat="14.699581" lon="101.170588"><ele>252</ele><time>1970-01-01T00:52:32.000Z</time></trkpt><trkpt lat="14.699614" lon="101.170554"><ele>252</ele><time>1970-01-01T00:52:33.000Z</time></trkpt><trkpt lat="14.699646" lon="101.170511"><ele>252</ele><time>1970-01-01T00:52:34.000Z</time></trkpt><trkpt lat="14.699682" lon="101.170471"><ele>252</ele><time>1970-01-01T00:52:35.000Z</time></trkpt><trkpt lat="14.699717" lon="101.170444"><ele>252</ele><time>1970-01-01T00:52:36.000Z</time></trkpt><trkpt lat="14.69975" lon="101.170407"><ele>252</ele><time>1970-01-01T00:52:37.000Z</time></trkpt><trkpt lat="14.699787" lon="101.17038"><ele>252</ele><time>1970-01-01T00:52:38.000Z</time></trkpt><trkpt lat="14.69982" lon="101.170341"><ele>251.9</ele><time>1970-01-01T00:52:39.000Z</time></trkpt><trkpt lat="14.699857" lon="101.170299"><ele>251.9</ele><time>1970-01-01T00:52:40.000Z</time></trkpt><trkpt lat="14.699895" lon="101.170262"><ele>251.8</ele><time>1970-01-01T00:52:41.000Z</time></trkpt><trkpt lat="14.699932" lon="101.170216"><ele>251.7</ele><time>1970-01-01T00:52:42.000Z</time></trkpt><trkpt lat="14.699971" lon="101.170172"><ele>251.5</ele><time>1970-01-01T00:52:43.000Z</time></trkpt><trkpt lat="14.70001" lon="101.170132"><ele>251.4</ele><time>1970-01-01T00:52:44.000Z</time></trkpt><trkpt lat="14.70005" lon="101.170086"><ele>251.2</ele><time>1970-01-01T00:52:45.000Z</time></trkpt><trkpt lat="14.700086" lon="101.17004"><ele>251</ele><time>1970-01-01T00:52:46.000Z</time></trkpt><trkpt lat="14.700127" lon="101.169997"><ele>250.8</ele><time>1970-01-01T00:52:47.000Z</time></trkpt><trkpt lat="14.700166" lon="101.169951"><ele>250.6</ele><time>1970-01-01T00:52:48.000Z</time></trkpt><trkpt lat="14.700206" lon="101.169908"><ele>250.4</ele><time>1970-01-01T00:52:49.000Z</time></trkpt><trkpt lat="14.700248" lon="101.169862"><ele>250.1</ele><time>1970-01-01T00:52:50.000Z</time></trkpt><trkpt lat="14.700287" lon="101.169818"><ele>249.9</ele><time>1970-01-01T00:52:51.000Z</time></trkpt><trkpt lat="14.700326" lon="101.169759"><ele>249.6</ele><time>1970-01-01T00:52:52.000Z</time></trkpt><trkpt lat="14.70037" lon="101.169714"><ele>249.4</ele><time>1970-01-01T00:52:53.000Z</time></trkpt><trkpt lat="14.700416" lon="101.169667"><ele>249.1</ele><time>1970-01-01T00:52:54.000Z</time></trkpt><trkpt lat="14.700467" lon="101.169625"><ele>248.8</ele><time>1970-01-01T00:52:55.000Z</time></trkpt><trkpt lat="14.700515" lon="101.169578"><ele>248.6</ele><time>1970-01-01T00:52:56.000Z</time></trkpt><trkpt lat="14.700565" lon="101.169537"><ele>248.4</ele><time>1970-01-01T00:52:57.000Z</time></trkpt><trkpt lat="14.700605" lon="101.169485"><ele>248.2</ele><time>1970-01-01T00:52:58.000Z</time></trkpt><trkpt lat="14.700662" lon="101.169439"><ele>248</ele><time>1970-01-01T00:52:59.000Z</time></trkpt><trkpt lat="14.700719" lon="101.16938"><ele>247.8</ele><time>1970-01-01T00:53:00.000Z</time></trkpt><trkpt lat="14.700773" lon="101.169332"><ele>247.6</ele><time>1970-01-01T00:53:01.000Z</time></trkpt><trkpt lat="14.700828" lon="101.169283"><ele>247.4</ele><time>1970-01-01T00:53:02.000Z</time></trkpt><trkpt lat="14.700891" lon="101.169237"><ele>247.1</ele><time>1970-01-01T00:53:03.000Z</time></trkpt><trkpt lat="14.700953" lon="101.169189"><ele>246.9</ele><time>1970-01-01T00:53:04.000Z</time></trkpt><trkpt lat="14.701018" lon="101.169132"><ele>246.5</ele><time>1970-01-01T00:53:05.000Z</time></trkpt><trkpt lat="14.70107" lon="101.169078"><ele>246.3</ele><time>1970-01-01T00:53:06.000Z</time></trkpt><trkpt lat="14.70113" lon="101.169023"><ele>246</ele><time>1970-01-01T00:53:07.000Z</time></trkpt><trkpt lat="14.701194" lon="101.168973"><ele>245.8</ele><time>1970-01-01T00:53:08.000Z</time></trkpt><trkpt lat="14.701254" lon="101.16892"><ele>245.5</ele><time>1970-01-01T00:53:09.000Z</time></trkpt><trkpt lat="14.701316" lon="101.168863"><ele>245.3</ele><time>1970-01-01T00:53:10.000Z</time></trkpt><trkpt lat="14.701378" lon="101.168807"><ele>245</ele><time>1970-01-01T00:53:11.000Z</time></trkpt><trkpt lat="14.701444" lon="101.168766"><ele>244.7</ele><time>1970-01-01T00:53:12.000Z</time></trkpt><trkpt lat="14.70151" lon="101.168723"><ele>244.5</ele><time>1970-01-01T00:53:13.000Z</time></trkpt><trkpt lat="14.701573" lon="101.168684"><ele>244.3</ele><time>1970-01-01T00:53:14.000Z</time></trkpt><trkpt lat="14.701638" lon="101.168638"><ele>244.1</ele><time>1970-01-01T00:53:15.000Z</time></trkpt><trkpt lat="14.701696" lon="101.168608"><ele>244</ele><time>1970-01-01T00:53:16.000Z</time></trkpt><trkpt lat="14.701752" lon="101.168564"><ele>243.9</ele><time>1970-01-01T00:53:17.000Z</time></trkpt><trkpt lat="14.701813" lon="101.168526"><ele>243.8</ele><time>1970-01-01T00:53:18.000Z</time></trkpt><trkpt lat="14.701881" lon="101.16849"><ele>243.7</ele><time>1970-01-01T00:53:19.000Z</time></trkpt><trkpt lat="14.701937" lon="101.168447"><ele>243.6</ele><time>1970-01-01T00:53:20.000Z</time></trkpt><trkpt lat="14.702013" lon="101.168402"><ele>243.5</ele><time>1970-01-01T00:53:21.000Z</time></trkpt><trkpt lat="14.70209" lon="101.16836"><ele>243.5</ele><time>1970-01-01T00:53:22.000Z</time></trkpt><trkpt lat="14.702168" lon="101.168328"><ele>243.4</ele><time>1970-01-01T00:53:23.000Z</time></trkpt><trkpt lat="14.702243" lon="101.168301"><ele>243.4</ele><time>1970-01-01T00:53:24.000Z</time></trkpt><trkpt lat="14.702311" lon="101.168269"><ele>243.4</ele><time>1970-01-01T00:53:25.000Z</time></trkpt><trkpt lat="14.702378" lon="101.168241"><ele>243.3</ele><time>1970-01-01T00:53:26.000Z</time></trkpt><trkpt lat="14.702448" lon="101.168207"><ele>243.3</ele><time>1970-01-01T00:53:27.000Z</time></trkpt><trkpt lat="14.702507" lon="101.168181"><ele>243.3</ele><time>1970-01-01T00:53:28.000Z</time></trkpt><trkpt lat="14.702565" lon="101.168161"><ele>243.3</ele><time>1970-01-01T00:53:29.000Z</time></trkpt><trkpt lat="14.702621" lon="101.168135"><ele>243.3</ele><time>1970-01-01T00:53:30.000Z</time></trkpt><trkpt lat="14.702688" lon="101.168107"><ele>243.3</ele><time>1970-01-01T00:53:31.000Z</time></trkpt><trkpt lat="14.702752" lon="101.16808"><ele>243.3</ele><time>1970-01-01T00:53:32.000Z</time></trkpt><trkpt lat="14.702827" lon="101.168053"><ele>243.3</ele><time>1970-01-01T00:53:33.000Z</time></trkpt><trkpt lat="14.702878" lon="101.168041"><ele>243.2</ele><time>1970-01-01T00:53:34.000Z</time></trkpt><trkpt lat="14.702935" lon="101.168027"><ele>243.2</ele><time>1970-01-01T00:53:35.000Z</time></trkpt><trkpt lat="14.70299" lon="101.168015"><ele>243.2</ele><time>1970-01-01T00:53:36.000Z</time></trkpt><trkpt lat="14.70304" lon="101.167994"><ele>243.2</ele><time>1970-01-01T00:53:37.000Z</time></trkpt><trkpt lat="14.703109" lon="101.167965"><ele>243.2</ele><time>1970-01-01T00:53:38.000Z</time></trkpt><trkpt lat="14.703192" lon="101.167923"><ele>243.2</ele><time>1970-01-01T00:53:39.000Z</time></trkpt><trkpt lat="14.703268" lon="101.16789"><ele>243.2</ele><time>1970-01-01T00:53:40.000Z</time></trkpt><trkpt lat="14.703328" lon="101.167844"><ele>243.2</ele><time>1970-01-01T00:53:41.000Z</time></trkpt><trkpt lat="14.70339" lon="101.167808"><ele>243.2</ele><time>1970-01-01T00:53:42.000Z</time></trkpt><trkpt lat="14.703461" lon="101.167789"><ele>243.2</ele><time>1970-01-01T00:53:43.000Z</time></trkpt><trkpt lat="14.703526" lon="101.16777"><ele>243.2</ele><time>1970-01-01T00:53:44.000Z</time></trkpt><trkpt lat="14.703582" lon="101.167745"><ele>243.1</ele><time>1970-01-01T00:53:45.000Z</time></trkpt><trkpt lat="14.703631" lon="101.167731"><ele>243.1</ele><time>1970-01-01T00:53:46.000Z</time></trkpt><trkpt lat="14.703696" lon="101.167699"><ele>243.1</ele><time>1970-01-01T00:53:47.000Z</time></trkpt><trkpt lat="14.703756" lon="101.167669"><ele>243.1</ele><time>1970-01-01T00:53:48.000Z</time></trkpt><trkpt lat="14.703811" lon="101.167646"><ele>243.1</ele><time>1970-01-01T00:53:49.000Z</time></trkpt><trkpt lat="14.70386" lon="101.167629"><ele>243.1</ele><time>1970-01-01T00:53:50.000Z</time></trkpt><trkpt lat="14.70391" lon="101.16761"><ele>243.1</ele><time>1970-01-01T00:53:51.000Z</time></trkpt><trkpt lat="14.703959" lon="101.167595"><ele>243.1</ele><time>1970-01-01T00:53:52.000Z</time></trkpt><trkpt lat="14.704028" lon="101.167563"><ele>243.1</ele><time>1970-01-01T00:53:53.000Z</time></trkpt><trkpt lat="14.704076" lon="101.167542"><ele>243.1</ele><time>1970-01-01T00:53:54.000Z</time></trkpt><trkpt lat="14.704136" lon="101.167513"><ele>243.1</ele><time>1970-01-01T00:53:55.000Z</time></trkpt><trkpt lat="14.704204" lon="101.16747"><ele>243.1</ele><time>1970-01-01T00:53:56.000Z</time></trkpt><trkpt lat="14.704287" lon="101.167409"><ele>243.1</ele><time>1970-01-01T00:53:57.000Z</time></trkpt><trkpt lat="14.704357" lon="101.167351"><ele>243.1</ele><time>1970-01-01T00:53:58.000Z</time></trkpt><trkpt lat="14.704408" lon="101.167346"><ele>243.1</ele><time>1970-01-01T00:53:59.000Z</time></trkpt><trkpt lat="14.704458" lon="101.167326"><ele>243.1</ele><time>1970-01-01T00:54:00.000Z</time></trkpt><trkpt lat="14.704519" lon="101.167305"><ele>243.1</ele><time>1970-01-01T00:54:01.000Z</time></trkpt><trkpt lat="14.704593" lon="101.167266"><ele>243.1</ele><time>1970-01-01T00:54:02.000Z</time></trkpt><trkpt lat="14.704643" lon="101.167247"><ele>243.1</ele><time>1970-01-01T00:54:03.000Z</time></trkpt><trkpt lat="14.704711" lon="101.167215"><ele>243.1</ele><time>1970-01-01T00:54:04.000Z</time></trkpt><trkpt lat="14.704773" lon="101.167185"><ele>243.1</ele><time>1970-01-01T00:54:05.000Z</time></trkpt><trkpt lat="14.704825" lon="101.167158"><ele>243.2</ele><time>1970-01-01T00:54:06.000Z</time></trkpt><trkpt lat="14.704877" lon="101.167148"><ele>243.2</ele><time>1970-01-01T00:54:07.000Z</time></trkpt><trkpt lat="14.704933" lon="101.167144"><ele>243.2</ele><time>1970-01-01T00:54:08.000Z</time></trkpt><trkpt lat="14.704996" lon="101.167138"><ele>243.1</ele><time>1970-01-01T00:54:09.000Z</time></trkpt><trkpt lat="14.705055" lon="101.167126"><ele>243.1</ele><time>1970-01-01T00:54:10.000Z</time></trkpt><trkpt lat="14.705095" lon="101.167086"><ele>243.1</ele><time>1970-01-01T00:54:11.000Z</time></trkpt><trkpt lat="14.705105" lon="101.167041"><ele>243.5</ele><time>1970-01-01T00:54:12.000Z</time></trkpt><trkpt lat="14.705101" lon="101.166999"><ele>243.6</ele><time>1970-01-01T00:54:13.000Z</time></trkpt><trkpt lat="14.705082" lon="101.166954"><ele>243.7</ele><time>1970-01-01T00:54:14.000Z</time></trkpt><trkpt lat="14.70506" lon="101.166918"><ele>243.8</ele><time>1970-01-01T00:54:15.000Z</time></trkpt><trkpt lat="14.70505" lon="101.166874"><ele>243.9</ele><time>1970-01-01T00:54:16.000Z</time></trkpt><trkpt lat="14.70505" lon="101.166825"><ele>244</ele><time>1970-01-01T00:54:17.000Z</time></trkpt><trkpt lat="14.705039" lon="101.16678"><ele>244</ele><time>1970-01-01T00:54:18.000Z</time></trkpt><trkpt lat="14.705034" lon="101.166752"><ele>243.9</ele><time>1970-01-01T00:54:19.000Z</time></trkpt><trkpt lat="14.705029" lon="101.166712"><ele>243.9</ele><time>1970-01-01T00:54:20.000Z</time></trkpt><trkpt lat="14.705031" lon="101.166671"><ele>244</ele><time>1970-01-01T00:54:21.000Z</time></trkpt><trkpt lat="14.705038" lon="101.16663"><ele>244.3</ele><time>1970-01-01T00:54:22.000Z</time></trkpt><trkpt lat="14.705048" lon="101.166596"><ele>244.6</ele><time>1970-01-01T00:54:23.000Z</time></trkpt><trkpt lat="14.705038" lon="101.166532"><ele>244.9</ele><time>1970-01-01T00:54:24.000Z</time></trkpt><trkpt lat="14.705034" lon="101.166483"><ele>245.1</ele><time>1970-01-01T00:54:25.000Z</time></trkpt><trkpt lat="14.705031" lon="101.166436"><ele>245.2</ele><time>1970-01-01T00:54:26.000Z</time></trkpt><trkpt lat="14.705028" lon="101.166388"><ele>245.2</ele><time>1970-01-01T00:54:27.000Z</time></trkpt><trkpt lat="14.705028" lon="101.166322"><ele>245.1</ele><time>1970-01-01T00:54:28.000Z</time></trkpt><trkpt lat="14.705029" lon="101.166265"><ele>245.1</ele><time>1970-01-01T00:54:29.000Z</time></trkpt><trkpt lat="14.705026" lon="101.166211"><ele>245</ele><time>1970-01-01T00:54:30.000Z</time></trkpt><trkpt lat="14.705023" lon="101.166162"><ele>245</ele><time>1970-01-01T00:54:31.000Z</time></trkpt><trkpt lat="14.705029" lon="101.166118"><ele>245.1</ele><time>1970-01-01T00:54:32.000Z</time></trkpt><trkpt lat="14.705028" lon="101.166069"><ele>245.3</ele><time>1970-01-01T00:54:33.000Z</time></trkpt><trkpt lat="14.705021" lon="101.166028"><ele>245.5</ele><time>1970-01-01T00:54:34.000Z</time></trkpt><trkpt lat="14.705015" lon="101.165986"><ele>245.6</ele><time>1970-01-01T00:54:35.000Z</time></trkpt><trkpt lat="14.705002" lon="101.165951"><ele>245.7</ele><time>1970-01-01T00:54:36.000Z</time></trkpt><trkpt lat="14.70499" lon="101.165909"><ele>245.9</ele><time>1970-01-01T00:54:37.000Z</time></trkpt><trkpt lat="14.70498" lon="101.165867"><ele>246.2</ele><time>1970-01-01T00:54:38.000Z</time></trkpt><trkpt lat="14.704961" lon="101.165826"><ele>246.3</ele><time>1970-01-01T00:54:39.000Z</time></trkpt><trkpt lat="14.704944" lon="101.165787"><ele>246.2</ele><time>1970-01-01T00:54:40.000Z</time></trkpt><trkpt lat="14.704935" lon="101.165748"><ele>246.2</ele><time>1970-01-01T00:54:41.000Z</time></trkpt><trkpt lat="14.70492" lon="101.165714"><ele>246.3</ele><time>1970-01-01T00:54:42.000Z</time></trkpt><trkpt lat="14.704904" lon="101.165679"><ele>246.4</ele><time>1970-01-01T00:54:43.000Z</time></trkpt><trkpt lat="14.704888" lon="101.165641"><ele>246.7</ele><time>1970-01-01T00:54:44.000Z</time></trkpt><trkpt lat="14.704873" lon="101.165602"><ele>246.9</ele><time>1970-01-01T00:54:45.000Z</time></trkpt><trkpt lat="14.704859" lon="101.165564"><ele>247</ele><time>1970-01-01T00:54:46.000Z</time></trkpt><trkpt lat="14.704845" lon="101.165525"><ele>247.2</ele><time>1970-01-01T00:54:47.000Z</time></trkpt><trkpt lat="14.70483" lon="101.165485"><ele>247.3</ele><time>1970-01-01T00:54:48.000Z</time></trkpt><trkpt lat="14.704813" lon="101.165446"><ele>247.3</ele><time>1970-01-01T00:54:49.000Z</time></trkpt><trkpt lat="14.704796" lon="101.165407"><ele>247.3</ele><time>1970-01-01T00:54:50.000Z</time></trkpt><trkpt lat="14.704779" lon="101.165369"><ele>247.4</ele><time>1970-01-01T00:54:51.000Z</time></trkpt><trkpt lat="14.704761" lon="101.165329"><ele>247.6</ele><time>1970-01-01T00:54:52.000Z</time></trkpt><trkpt lat="14.704744" lon="101.165289"><ele>247.9</ele><time>1970-01-01T00:54:53.000Z</time></trkpt><trkpt lat="14.704728" lon="101.16525"><ele>248.1</ele><time>1970-01-01T00:54:54.000Z</time></trkpt><trkpt lat="14.704712" lon="101.165212"><ele>248.4</ele><time>1970-01-01T00:54:55.000Z</time></trkpt><trkpt lat="14.704695" lon="101.165174"><ele>248.8</ele><time>1970-01-01T00:54:56.000Z</time></trkpt><trkpt lat="14.704676" lon="101.165137"><ele>249.2</ele><time>1970-01-01T00:54:57.000Z</time></trkpt><trkpt lat="14.704658" lon="101.165104"><ele>249.6</ele><time>1970-01-01T00:54:58.000Z</time></trkpt><trkpt lat="14.704639" lon="101.165073"><ele>250</ele><time>1970-01-01T00:54:59.000Z</time></trkpt><trkpt lat="14.704619" lon="101.165042"><ele>250.1</ele><time>1970-01-01T00:55:00.000Z</time></trkpt><trkpt lat="14.704601" lon="101.165012"><ele>250.2</ele><time>1970-01-01T00:55:01.000Z</time></trkpt><trkpt lat="14.704581" lon="101.164978"><ele>250.3</ele><time>1970-01-01T00:55:02.000Z</time></trkpt><trkpt lat="14.704559" lon="101.164946"><ele>250.4</ele><time>1970-01-01T00:55:03.000Z</time></trkpt><trkpt lat="14.704535" lon="101.164915"><ele>250.5</ele><time>1970-01-01T00:55:04.000Z</time></trkpt><trkpt lat="14.704508" lon="101.164881"><ele>250.8</ele><time>1970-01-01T00:55:05.000Z</time></trkpt><trkpt lat="14.704484" lon="101.16485"><ele>251.1</ele><time>1970-01-01T00:55:06.000Z</time></trkpt><trkpt lat="14.704461" lon="101.164817"><ele>251.3</ele><time>1970-01-01T00:55:07.000Z</time></trkpt><trkpt lat="14.704435" lon="101.164782"><ele>251.5</ele><time>1970-01-01T00:55:08.000Z</time></trkpt><trkpt lat="14.704408" lon="101.164745"><ele>251.9</ele><time>1970-01-01T00:55:09.000Z</time></trkpt><trkpt lat="14.704382" lon="101.164711"><ele>252.2</ele><time>1970-01-01T00:55:10.000Z</time></trkpt><trkpt lat="14.704355" lon="101.164678"><ele>252.3</ele><time>1970-01-01T00:55:11.000Z</time></trkpt><trkpt lat="14.704329" lon="101.164642"><ele>252.4</ele><time>1970-01-01T00:55:12.000Z</time></trkpt><trkpt lat="14.704303" lon="101.164606"><ele>252.2</ele><time>1970-01-01T00:55:13.000Z</time></trkpt><trkpt lat="14.704276" lon="101.16457"><ele>252</ele><time>1970-01-01T00:55:14.000Z</time></trkpt><trkpt lat="14.704249" lon="101.164534"><ele>251.8</ele><time>1970-01-01T00:55:15.000Z</time></trkpt><trkpt lat="14.704221" lon="101.164498"><ele>251.6</ele><time>1970-01-01T00:55:16.000Z</time></trkpt><trkpt lat="14.704192" lon="101.164462"><ele>251.7</ele><time>1970-01-01T00:55:17.000Z</time></trkpt><trkpt lat="14.704166" lon="101.164428"><ele>251.8</ele><time>1970-01-01T00:55:18.000Z</time></trkpt><trkpt lat="14.704142" lon="101.164395"><ele>251.9</ele><time>1970-01-01T00:55:19.000Z</time></trkpt><trkpt lat="14.704117" lon="101.164362"><ele>252.1</ele><time>1970-01-01T00:55:20.000Z</time></trkpt><trkpt lat="14.704091" lon="101.16433"><ele>252.3</ele><time>1970-01-01T00:55:21.000Z</time></trkpt><trkpt lat="14.704065" lon="101.164297"><ele>252.5</ele><time>1970-01-01T00:55:22.000Z</time></trkpt><trkpt lat="14.704038" lon="101.164264"><ele>252.7</ele><time>1970-01-01T00:55:23.000Z</time></trkpt><trkpt lat="14.704012" lon="101.164231"><ele>253</ele><time>1970-01-01T00:55:24.000Z</time></trkpt><trkpt lat="14.703988" lon="101.164198"><ele>253.2</ele><time>1970-01-01T00:55:25.000Z</time></trkpt><trkpt lat="14.703963" lon="101.164165"><ele>253.3</ele><time>1970-01-01T00:55:26.000Z</time></trkpt><trkpt lat="14.703939" lon="101.164133"><ele>253.5</ele><time>1970-01-01T00:55:27.000Z</time></trkpt><trkpt lat="14.703917" lon="101.164103"><ele>253.7</ele><time>1970-01-01T00:55:28.000Z</time></trkpt><trkpt lat="14.703895" lon="101.164075"><ele>253.8</ele><time>1970-01-01T00:55:29.000Z</time></trkpt><trkpt lat="14.703871" lon="101.164045"><ele>253.9</ele><time>1970-01-01T00:55:30.000Z</time></trkpt><trkpt lat="14.703847" lon="101.164013"><ele>254</ele><time>1970-01-01T00:55:31.000Z</time></trkpt><trkpt lat="14.703822" lon="101.163981"><ele>254.3</ele><time>1970-01-01T00:55:32.000Z</time></trkpt><trkpt lat="14.7038" lon="101.163952"><ele>254.5</ele><time>1970-01-01T00:55:33.000Z</time></trkpt><trkpt lat="14.703779" lon="101.163923"><ele>254.7</ele><time>1970-01-01T00:55:34.000Z</time></trkpt><trkpt lat="14.703755" lon="101.163892"><ele>255</ele><time>1970-01-01T00:55:35.000Z</time></trkpt><trkpt lat="14.703733" lon="101.163863"><ele>255.2</ele><time>1970-01-01T00:55:36.000Z</time></trkpt><trkpt lat="14.703711" lon="101.163832"><ele>255.3</ele><time>1970-01-01T00:55:37.000Z</time></trkpt><trkpt lat="14.703688" lon="101.163804"><ele>255.3</ele><time>1970-01-01T00:55:38.000Z</time></trkpt><trkpt lat="14.703666" lon="101.163777"><ele>255.3</ele><time>1970-01-01T00:55:39.000Z</time></trkpt><trkpt lat="14.703642" lon="101.16375"><ele>255.4</ele><time>1970-01-01T00:55:40.000Z</time></trkpt><trkpt lat="14.703621" lon="101.163728"><ele>255.3</ele><time>1970-01-01T00:55:41.000Z</time></trkpt><trkpt lat="14.703601" lon="101.163708"><ele>255.3</ele><time>1970-01-01T00:55:42.000Z</time></trkpt><trkpt lat="14.703579" lon="101.163684"><ele>255.2</ele><time>1970-01-01T00:55:43.000Z</time></trkpt><trkpt lat="14.703555" lon="101.163659"><ele>255.3</ele><time>1970-01-01T00:55:44.000Z</time></trkpt><trkpt lat="14.703528" lon="101.163633"><ele>255.4</ele><time>1970-01-01T00:55:45.000Z</time></trkpt><trkpt lat="14.703501" lon="101.163606"><ele>255.5</ele><time>1970-01-01T00:55:46.000Z</time></trkpt><trkpt lat="14.703479" lon="101.163577"><ele>255.8</ele><time>1970-01-01T00:55:47.000Z</time></trkpt><trkpt lat="14.70346" lon="101.163548"><ele>256.1</ele><time>1970-01-01T00:55:48.000Z</time></trkpt><trkpt lat="14.703441" lon="101.163518"><ele>256.3</ele><time>1970-01-01T00:55:49.000Z</time></trkpt><trkpt lat="14.703421" lon="101.163488"><ele>256.5</ele><time>1970-01-01T00:55:50.000Z</time></trkpt><trkpt lat="14.703402" lon="101.16346"><ele>256.6</ele><time>1970-01-01T00:55:51.000Z</time></trkpt><trkpt lat="14.703382" lon="101.163429"><ele>256.6</ele><time>1970-01-01T00:55:52.000Z</time></trkpt><trkpt lat="14.703359" lon="101.163391"><ele>256.7</ele><time>1970-01-01T00:55:53.000Z</time></trkpt><trkpt lat="14.703333" lon="101.163352"><ele>256.8</ele><time>1970-01-01T00:55:54.000Z</time></trkpt><trkpt lat="14.703303" lon="101.163298"><ele>256.4</ele><time>1970-01-01T00:55:55.000Z</time></trkpt><trkpt lat="14.703277" lon="101.163259"><ele>256</ele><time>1970-01-01T00:55:56.000Z</time></trkpt><trkpt lat="14.703247" lon="101.163221"><ele>256</ele><time>1970-01-01T00:55:57.000Z</time></trkpt><trkpt lat="14.703221" lon="101.163175"><ele>256</ele><time>1970-01-01T00:55:58.000Z</time></trkpt><trkpt lat="14.703199" lon="101.16313"><ele>256</ele><time>1970-01-01T00:55:59.000Z</time></trkpt><trkpt lat="14.703171" lon="101.163088"><ele>256</ele><time>1970-01-01T00:56:00.000Z</time></trkpt><trkpt lat="14.703155" lon="101.163041"><ele>256</ele><time>1970-01-01T00:56:01.000Z</time></trkpt><trkpt lat="14.703157" lon="101.162992"><ele>256.1</ele><time>1970-01-01T00:56:02.000Z</time></trkpt><trkpt lat="14.703162" lon="101.16294"><ele>256.1</ele><time>1970-01-01T00:56:03.000Z</time></trkpt><trkpt lat="14.703172" lon="101.162889"><ele>256</ele><time>1970-01-01T00:56:04.000Z</time></trkpt><trkpt lat="14.703167" lon="101.162836"><ele>256</ele><time>1970-01-01T00:56:05.000Z</time></trkpt><trkpt lat="14.703152" lon="101.162795"><ele>255.9</ele><time>1970-01-01T00:56:06.000Z</time></trkpt><trkpt lat="14.70312" lon="101.162754"><ele>255.9</ele><time>1970-01-01T00:56:08.000Z</time></trkpt><trkpt lat="14.703086" lon="101.162705"><ele>256.1</ele><time>1970-01-01T00:56:10.000Z</time></trkpt><trkpt lat="14.703057" lon="101.162668"><ele>256.4</ele><time>1970-01-01T00:56:12.000Z</time></trkpt><trkpt lat="14.703045" lon="101.162637"><ele>256.7</ele><time>1970-01-01T00:56:13.000Z</time></trkpt><trkpt lat="14.703029" lon="101.162611"><ele>257</ele><time>1970-01-01T00:56:14.000Z</time></trkpt><trkpt lat="14.703011" lon="101.162575"><ele>257.4</ele><time>1970-01-01T00:56:16.000Z</time></trkpt><trkpt lat="14.703015" lon="101.162536"><ele>257.7</ele><time>1970-01-01T00:56:18.000Z</time></trkpt><trkpt lat="14.703027" lon="101.162489"><ele>258</ele><time>1970-01-01T00:56:20.000Z</time></trkpt><trkpt lat="14.703028" lon="101.162455"><ele>258.1</ele><time>1970-01-01T00:56:27.000Z</time></trkpt><trkpt lat="14.703013" lon="101.162426"><ele>258.1</ele><time>1970-01-01T00:56:30.000Z</time></trkpt><trkpt lat="14.703006" lon="101.162387"><ele>258.3</ele><time>1970-01-01T00:56:33.000Z</time></trkpt><trkpt lat="14.703002" lon="101.162359"><ele>258.5</ele><time>1970-01-01T00:56:35.000Z</time></trkpt><trkpt lat="14.702997" lon="101.162327"><ele>258.6</ele><time>1970-01-01T00:56:37.000Z</time></trkpt><trkpt lat="14.70299" lon="101.162298"><ele>258.9</ele><time>1970-01-01T00:56:39.000Z</time></trkpt><trkpt lat="14.702977" lon="101.162264"><ele>259.1</ele><time>1970-01-01T00:56:42.000Z</time></trkpt><trkpt lat="14.702958" lon="101.16224"><ele>259.4</ele><time>1970-01-01T00:56:45.000Z</time></trkpt><trkpt lat="14.702958" lon="101.16221"><ele>259.5</ele><time>1970-01-01T00:56:51.000Z</time></trkpt><trkpt lat="14.702958" lon="101.162177"><ele>259.6</ele><time>1970-01-01T00:56:54.000Z</time></trkpt><trkpt lat="14.702948" lon="101.162143"><ele>259.8</ele><time>1970-01-01T00:56:56.000Z</time></trkpt><trkpt lat="14.70294" lon="101.162109"><ele>260</ele><time>1970-01-01T00:56:58.000Z</time></trkpt><trkpt lat="14.70293" lon="101.162061"><ele>260.8</ele><time>1970-01-01T00:57:00.000Z</time></trkpt><trkpt lat="14.702912" lon="101.16201"><ele>262.1</ele><time>1970-01-01T00:57:02.000Z</time></trkpt><trkpt lat="14.70289" lon="101.161967"><ele>262.8</ele><time>1970-01-01T00:57:04.000Z</time></trkpt><trkpt lat="14.702871" lon="101.161925"><ele>263.4</ele><time>1970-01-01T00:57:06.000Z</time></trkpt><trkpt lat="14.702851" lon="101.161879"><ele>263.5</ele><time>1970-01-01T00:57:08.000Z</time></trkpt><trkpt lat="14.702835" lon="101.161854"><ele>263.5</ele><time>1970-01-01T00:57:09.000Z</time></trkpt><trkpt lat="14.702813" lon="101.161834"><ele>263.5</ele><time>1970-01-01T00:57:10.000Z</time></trkpt><trkpt lat="14.702788" lon="101.16182"><ele>263.6</ele><time>1970-01-01T00:57:11.000Z</time></trkpt><trkpt lat="14.702759" lon="101.16181"><ele>263.6</ele><time>1970-01-01T00:57:12.000Z</time></trkpt><trkpt lat="14.702728" lon="101.161804"><ele>263.5</ele><time>1970-01-01T00:57:13.000Z</time></trkpt><trkpt lat="14.702699" lon="101.161797"><ele>263.4</ele><time>1970-01-01T00:57:14.000Z</time></trkpt><trkpt lat="14.70266" lon="101.161783"><ele>263.5</ele><time>1970-01-01T00:57:16.000Z</time></trkpt><trkpt lat="14.702626" lon="101.161756"><ele>263.8</ele><time>1970-01-01T00:57:19.000Z</time></trkpt><trkpt lat="14.7026" lon="101.161712"><ele>264.1</ele><time>1970-01-01T00:57:21.000Z</time></trkpt><trkpt lat="14.702588" lon="101.161681"><ele>264.3</ele><time>1970-01-01T00:57:22.000Z</time></trkpt><trkpt lat="14.702573" lon="101.161644"><ele>264.5</ele><time>1970-01-01T00:57:23.000Z</time></trkpt><trkpt lat="14.702551" lon="101.16159"><ele>264.6</ele><time>1970-01-01T00:57:24.000Z</time></trkpt><trkpt lat="14.702525" lon="101.161544"><ele>264.3</ele><time>1970-01-01T00:57:25.000Z</time></trkpt><trkpt lat="14.702497" lon="101.161499"><ele>264.3</ele><time>1970-01-01T00:57:26.000Z</time></trkpt><trkpt lat="14.702462" lon="101.161455"><ele>264.4</ele><time>1970-01-01T00:57:27.000Z</time></trkpt><trkpt lat="14.702422" lon="101.161405"><ele>264.7</ele><time>1970-01-01T00:57:28.000Z</time></trkpt><trkpt lat="14.702385" lon="101.161356"><ele>265.1</ele><time>1970-01-01T00:57:29.000Z</time></trkpt><trkpt lat="14.70236" lon="101.161322"><ele>265.2</ele><time>1970-01-01T00:57:30.000Z</time></trkpt><trkpt lat="14.702336" lon="101.161274"><ele>265.1</ele><time>1970-01-01T00:57:31.000Z</time></trkpt><trkpt lat="14.702322" lon="101.161216"><ele>264.8</ele><time>1970-01-01T00:57:32.000Z</time></trkpt><trkpt lat="14.702316" lon="101.161161"><ele>264.9</ele><time>1970-01-01T00:57:33.000Z</time></trkpt><trkpt lat="14.702309" lon="101.161109"><ele>265.1</ele><time>1970-01-01T00:57:34.000Z</time></trkpt><trkpt lat="14.702305" lon="101.161057"><ele>265.4</ele><time>1970-01-01T00:57:35.000Z</time></trkpt><trkpt lat="14.702298" lon="101.16102"><ele>265.5</ele><time>1970-01-01T00:57:36.000Z</time></trkpt><trkpt lat="14.702294" lon="101.160975"><ele>265.6</ele><time>1970-01-01T00:57:37.000Z</time></trkpt><trkpt lat="14.702288" lon="101.160943"><ele>265.7</ele><time>1970-01-01T00:57:38.000Z</time></trkpt><trkpt lat="14.702282" lon="101.160912"><ele>265.9</ele><time>1970-01-01T00:57:39.000Z</time></trkpt><trkpt lat="14.702277" lon="101.16088"><ele>266.2</ele><time>1970-01-01T00:57:40.000Z</time></trkpt><trkpt lat="14.702261" lon="101.160847"><ele>266.4</ele><time>1970-01-01T00:57:41.000Z</time></trkpt><trkpt lat="14.702262" lon="101.160801"><ele>266.8</ele><time>1970-01-01T00:57:43.000Z</time></trkpt><trkpt lat="14.702263" lon="101.160772"><ele>267</ele><time>1970-01-01T00:57:44.000Z</time></trkpt><trkpt lat="14.702261" lon="101.160723"><ele>267.4</ele><time>1970-01-01T00:57:46.000Z</time></trkpt><trkpt lat="14.70226" lon="101.160673"><ele>267.6</ele><time>1970-01-01T00:57:48.000Z</time></trkpt><trkpt lat="14.702256" lon="101.160616"><ele>268</ele><time>1970-01-01T00:57:50.000Z</time></trkpt><trkpt lat="14.702255" lon="101.16058"><ele>268.2</ele><time>1970-01-01T00:57:51.000Z</time></trkpt><trkpt lat="14.702256" lon="101.160543"><ele>268.4</ele><time>1970-01-01T00:57:52.000Z</time></trkpt><trkpt lat="14.702257" lon="101.160505"><ele>268.6</ele><time>1970-01-01T00:57:53.000Z</time></trkpt><trkpt lat="14.702256" lon="101.160473"><ele>268.9</ele><time>1970-01-01T00:57:54.000Z</time></trkpt><trkpt lat="14.702255" lon="101.160418"><ele>269.2</ele><time>1970-01-01T00:57:56.000Z</time></trkpt><trkpt lat="14.702256" lon="101.160381"><ele>269.5</ele><time>1970-01-01T00:57:57.000Z</time></trkpt><trkpt lat="14.702259" lon="101.160341"><ele>269.5</ele><time>1970-01-01T00:57:58.000Z</time></trkpt><trkpt lat="14.702262" lon="101.160302"><ele>269.6</ele><time>1970-01-01T00:57:59.000Z</time></trkpt><trkpt lat="14.702263" lon="101.160265"><ele>269.6</ele><time>1970-01-01T00:58:00.000Z</time></trkpt><trkpt lat="14.702264" lon="101.160227"><ele>269.5</ele><time>1970-01-01T00:58:01.000Z</time></trkpt><trkpt lat="14.702265" lon="101.160187"><ele>269.4</ele><time>1970-01-01T00:58:02.000Z</time></trkpt><trkpt lat="14.702267" lon="101.160144"><ele>269.3</ele><time>1970-01-01T00:58:03.000Z</time></trkpt><trkpt lat="14.702269" lon="101.160101"><ele>269.3</ele><time>1970-01-01T00:58:04.000Z</time></trkpt><trkpt lat="14.70227" lon="101.160059"><ele>269.3</ele><time>1970-01-01T00:58:05.000Z</time></trkpt><trkpt lat="14.702274" lon="101.159986"><ele>269.7</ele><time>1970-01-01T00:58:06.000Z</time></trkpt><trkpt lat="14.702278" lon="101.159943"><ele>270</ele><time>1970-01-01T00:58:07.000Z</time></trkpt><trkpt lat="14.70228" lon="101.1599"><ele>270.2</ele><time>1970-01-01T00:58:08.000Z</time></trkpt><trkpt lat="14.702282" lon="101.159866"><ele>270.3</ele><time>1970-01-01T00:58:09.000Z</time></trkpt><trkpt lat="14.702285" lon="101.159828"><ele>270.3</ele><time>1970-01-01T00:58:10.000Z</time></trkpt><trkpt lat="14.70229" lon="101.159786"><ele>270.2</ele><time>1970-01-01T00:58:11.000Z</time></trkpt><trkpt lat="14.702292" lon="101.159746"><ele>270.1</ele><time>1970-01-01T00:58:12.000Z</time></trkpt><trkpt lat="14.702298" lon="101.159707"><ele>270</ele><time>1970-01-01T00:58:13.000Z</time></trkpt><trkpt lat="14.702295" lon="101.159666"><ele>269.9</ele><time>1970-01-01T00:58:14.000Z</time></trkpt><trkpt lat="14.702304" lon="101.159615"><ele>269.8</ele><time>1970-01-01T00:58:15.000Z</time></trkpt><trkpt lat="14.702308" lon="101.159563"><ele>270</ele><time>1970-01-01T00:58:16.000Z</time></trkpt><trkpt lat="14.702308" lon="101.159519"><ele>270.1</ele><time>1970-01-01T00:58:17.000Z</time></trkpt><trkpt lat="14.702307" lon="101.15948"><ele>270.3</ele><time>1970-01-01T00:58:18.000Z</time></trkpt><trkpt lat="14.702307" lon="101.159441"><ele>270.4</ele><time>1970-01-01T00:58:19.000Z</time></trkpt><trkpt lat="14.702307" lon="101.1594"><ele>270.7</ele><time>1970-01-01T00:58:20.000Z</time></trkpt><trkpt lat="14.702307" lon="101.159363"><ele>270.9</ele><time>1970-01-01T00:58:21.000Z</time></trkpt><trkpt lat="14.702308" lon="101.159322"><ele>271.3</ele><time>1970-01-01T00:58:22.000Z</time></trkpt><trkpt lat="14.702311" lon="101.15928"><ele>271.7</ele><time>1970-01-01T00:58:23.000Z</time></trkpt><trkpt lat="14.702314" lon="101.159241"><ele>272.2</ele><time>1970-01-01T00:58:24.000Z</time></trkpt><trkpt lat="14.702316" lon="101.159204"><ele>272.6</ele><time>1970-01-01T00:58:25.000Z</time></trkpt><trkpt lat="14.702319" lon="101.159164"><ele>273.1</ele><time>1970-01-01T00:58:26.000Z</time></trkpt><trkpt lat="14.702321" lon="101.159124"><ele>273.5</ele><time>1970-01-01T00:58:27.000Z</time></trkpt><trkpt lat="14.702324" lon="101.159083"><ele>273.8</ele><time>1970-01-01T00:58:28.000Z</time></trkpt><trkpt lat="14.702328" lon="101.15904"><ele>274.1</ele><time>1970-01-01T00:58:29.000Z</time></trkpt><trkpt lat="14.702332" lon="101.158997"><ele>274.2</ele><time>1970-01-01T00:58:30.000Z</time></trkpt><trkpt lat="14.702333" lon="101.158955"><ele>274.4</ele><time>1970-01-01T00:58:31.000Z</time></trkpt><trkpt lat="14.702333" lon="101.158915"><ele>274.4</ele><time>1970-01-01T00:58:32.000Z</time></trkpt><trkpt lat="14.702333" lon="101.158875"><ele>274.5</ele><time>1970-01-01T00:58:33.000Z</time></trkpt><trkpt lat="14.702332" lon="101.158835"><ele>274.5</ele><time>1970-01-01T00:58:34.000Z</time></trkpt><trkpt lat="14.702334" lon="101.158791"><ele>274.4</ele><time>1970-01-01T00:58:35.000Z</time></trkpt><trkpt lat="14.702335" lon="101.158744"><ele>274.3</ele><time>1970-01-01T00:58:36.000Z</time></trkpt><trkpt lat="14.702338" lon="101.158701"><ele>274</ele><time>1970-01-01T00:58:37.000Z</time></trkpt><trkpt lat="14.702339" lon="101.158664"><ele>273.9</ele><time>1970-01-01T00:58:38.000Z</time></trkpt><trkpt lat="14.702344" lon="101.158606"><ele>274</ele><time>1970-01-01T00:58:39.000Z</time></trkpt><trkpt lat="14.702339" lon="101.158564"><ele>274.2</ele><time>1970-01-01T00:58:40.000Z</time></trkpt><trkpt lat="14.702337" lon="101.158517"><ele>274.7</ele><time>1970-01-01T00:58:41.000Z</time></trkpt><trkpt lat="14.702326" lon="101.158487"><ele>275</ele><time>1970-01-01T00:58:42.000Z</time></trkpt><trkpt lat="14.702326" lon="101.158432"><ele>275.7</ele><time>1970-01-01T00:58:43.000Z</time></trkpt><trkpt lat="14.702333" lon="101.158388"><ele>276.2</ele><time>1970-01-01T00:58:44.000Z</time></trkpt><trkpt lat="14.70233" lon="101.158347"><ele>276.6</ele><time>1970-01-01T00:58:45.000Z</time></trkpt><trkpt lat="14.702333" lon="101.158303"><ele>276.9</ele><time>1970-01-01T00:58:46.000Z</time></trkpt><trkpt lat="14.702336" lon="101.158263"><ele>277.1</ele><time>1970-01-01T00:58:47.000Z</time></trkpt><trkpt lat="14.702321" lon="101.158227"><ele>277.3</ele><time>1970-01-01T00:58:48.000Z</time></trkpt><trkpt lat="14.702314" lon="101.158198"><ele>277.3</ele><time>1970-01-01T00:58:49.000Z</time></trkpt><trkpt lat="14.702308" lon="101.158164"><ele>277.4</ele><time>1970-01-01T00:58:50.000Z</time></trkpt><trkpt lat="14.702303" lon="101.158129"><ele>277.4</ele><time>1970-01-01T00:58:51.000Z</time></trkpt><trkpt lat="14.702299" lon="101.158091"><ele>277.4</ele><time>1970-01-01T00:58:52.000Z</time></trkpt><trkpt lat="14.702297" lon="101.158056"><ele>277.5</ele><time>1970-01-01T00:58:53.000Z</time></trkpt><trkpt lat="14.702297" lon="101.158021"><ele>277.6</ele><time>1970-01-01T00:58:54.000Z</time></trkpt><trkpt lat="14.702302" lon="101.157988"><ele>277.7</ele><time>1970-01-01T00:58:55.000Z</time></trkpt><trkpt lat="14.702314" lon="101.157956"><ele>277.8</ele><time>1970-01-01T00:58:56.000Z</time></trkpt><trkpt lat="14.702337" lon="101.157929"><ele>277.8</ele><time>1970-01-01T00:58:57.000Z</time></trkpt><trkpt lat="14.702368" lon="101.157914"><ele>278</ele><time>1970-01-01T00:58:58.000Z</time></trkpt><trkpt lat="14.702405" lon="101.157908"><ele>278.3</ele><time>1970-01-01T00:58:59.000Z</time></trkpt><trkpt lat="14.702448" lon="101.15791"><ele>278.6</ele><time>1970-01-01T00:59:00.000Z</time></trkpt><trkpt lat="14.702516" lon="101.157932"><ele>279.3</ele><time>1970-01-01T00:59:01.000Z</time></trkpt><trkpt lat="14.702564" lon="101.157908"><ele>279.6</ele><time>1970-01-01T00:59:02.000Z</time></trkpt><trkpt lat="14.702609" lon="101.157895"><ele>279.9</ele><time>1970-01-01T00:59:03.000Z</time></trkpt><trkpt lat="14.702647" lon="101.157886"><ele>280.2</ele><time>1970-01-01T00:59:04.000Z</time></trkpt><trkpt lat="14.702684" lon="101.15789"><ele>280.5</ele><time>1970-01-01T00:59:05.000Z</time></trkpt><trkpt lat="14.702732" lon="101.157883"><ele>280.8</ele><time>1970-01-01T00:59:06.000Z</time></trkpt><trkpt lat="14.702806" lon="101.157855"><ele>281.3</ele><time>1970-01-01T00:59:07.000Z</time></trkpt><trkpt lat="14.702878" lon="101.157838"><ele>281.7</ele><time>1970-01-01T00:59:08.000Z</time></trkpt><trkpt lat="14.702942" lon="101.157817"><ele>281.7</ele><time>1970-01-01T00:59:09.000Z</time></trkpt><trkpt lat="14.703006" lon="101.157801"><ele>281.3</ele><time>1970-01-01T00:59:10.000Z</time></trkpt><trkpt lat="14.703069" lon="101.157795"><ele>281</ele><time>1970-01-01T00:59:11.000Z</time></trkpt><trkpt lat="14.703134" lon="101.157779"><ele>280.6</ele><time>1970-01-01T00:59:12.000Z</time></trkpt><trkpt lat="14.703198" lon="101.15776"><ele>280.2</ele><time>1970-01-01T00:59:13.000Z</time></trkpt><trkpt lat="14.703259" lon="101.157742"><ele>279.9</ele><time>1970-01-01T00:59:14.000Z</time></trkpt><trkpt lat="14.703316" lon="101.157736"><ele>279.6</ele><time>1970-01-01T00:59:15.000Z</time></trkpt><trkpt lat="14.70336" lon="101.157724"><ele>279.3</ele><time>1970-01-01T00:59:16.000Z</time></trkpt><trkpt lat="14.703413" lon="101.157716"><ele>278.9</ele><time>1970-01-01T00:59:17.000Z</time></trkpt><trkpt lat="14.703467" lon="101.157698"><ele>278.6</ele><time>1970-01-01T00:59:18.000Z</time></trkpt><trkpt lat="14.703521" lon="101.15768"><ele>278.2</ele><time>1970-01-01T00:59:19.000Z</time></trkpt><trkpt lat="14.703568" lon="101.157664"><ele>277.8</ele><time>1970-01-01T00:59:20.000Z</time></trkpt><trkpt lat="14.703617" lon="101.157649"><ele>277.7</ele><time>1970-01-01T00:59:21.000Z</time></trkpt><trkpt lat="14.703659" lon="101.157634"><ele>277.4</ele><time>1970-01-01T00:59:22.000Z</time></trkpt><trkpt lat="14.703701" lon="101.157622"><ele>277</ele><time>1970-01-01T00:59:23.000Z</time></trkpt><trkpt lat="14.703752" lon="101.15762"><ele>276.8</ele><time>1970-01-01T00:59:24.000Z</time></trkpt><trkpt lat="14.703797" lon="101.157604"><ele>276.6</ele><time>1970-01-01T00:59:25.000Z</time></trkpt><trkpt lat="14.703832" lon="101.157597"><ele>276.4</ele><time>1970-01-01T00:59:26.000Z</time></trkpt><trkpt lat="14.703871" lon="101.157588"><ele>276.2</ele><time>1970-01-01T00:59:27.000Z</time></trkpt><trkpt lat="14.703915" lon="101.157575"><ele>276.4</ele><time>1970-01-01T00:59:28.000Z</time></trkpt><trkpt lat="14.703957" lon="101.157564"><ele>276.5</ele><time>1970-01-01T00:59:29.000Z</time></trkpt><trkpt lat="14.704001" lon="101.157542"><ele>276.5</ele><time>1970-01-01T00:59:30.000Z</time></trkpt><trkpt lat="14.704045" lon="101.157529"><ele>276.6</ele><time>1970-01-01T00:59:31.000Z</time></trkpt><trkpt lat="14.704089" lon="101.157515"><ele>276.6</ele><time>1970-01-01T00:59:32.000Z</time></trkpt><trkpt lat="14.704129" lon="101.157503"><ele>277</ele><time>1970-01-01T00:59:33.000Z</time></trkpt><trkpt lat="14.704166" lon="101.157479"><ele>277.4</ele><time>1970-01-01T00:59:34.000Z</time></trkpt><trkpt lat="14.704199" lon="101.157464"><ele>278.2</ele><time>1970-01-01T00:59:35.000Z</time></trkpt><trkpt lat="14.704233" lon="101.157439"><ele>279</ele><time>1970-01-01T00:59:36.000Z</time></trkpt><trkpt lat="14.704266" lon="101.157421"><ele>279.7</ele><time>1970-01-01T00:59:37.000Z</time></trkpt><trkpt lat="14.704299" lon="101.157408"><ele>280.2</ele><time>1970-01-01T00:59:38.000Z</time></trkpt><trkpt lat="14.704327" lon="101.157402"><ele>280.6</ele><time>1970-01-01T00:59:39.000Z</time></trkpt><trkpt lat="14.704353" lon="101.157389"><ele>281.1</ele><time>1970-01-01T00:59:40.000Z</time></trkpt><trkpt lat="14.704389" lon="101.15737"><ele>281.7</ele><time>1970-01-01T00:59:41.000Z</time></trkpt><trkpt lat="14.704425" lon="101.157351"><ele>282.6</ele><time>1970-01-01T00:59:42.000Z</time></trkpt><trkpt lat="14.704459" lon="101.157335"><ele>283.4</ele><time>1970-01-01T00:59:43.000Z</time></trkpt><trkpt lat="14.70449" lon="101.157323"><ele>284</ele><time>1970-01-01T00:59:44.000Z</time></trkpt><trkpt lat="14.704523" lon="101.157311"><ele>284.5</ele><time>1970-01-01T00:59:45.000Z</time></trkpt><trkpt lat="14.704558" lon="101.1573"><ele>285.1</ele><time>1970-01-01T00:59:46.000Z</time></trkpt><trkpt lat="14.704597" lon="101.157291"><ele>285.7</ele><time>1970-01-01T00:59:47.000Z</time></trkpt><trkpt lat="14.704636" lon="101.157289"><ele>286.4</ele><time>1970-01-01T00:59:48.000Z</time></trkpt><trkpt lat="14.704673" lon="101.157295"><ele>287.1</ele><time>1970-01-01T00:59:49.000Z</time></trkpt><trkpt lat="14.704703" lon="101.157306"><ele>287.6</ele><time>1970-01-01T00:59:50.000Z</time></trkpt><trkpt lat="14.704729" lon="101.157324"><ele>288</ele><time>1970-01-01T00:59:51.000Z</time></trkpt><trkpt lat="14.704748" lon="101.157349"><ele>288.4</ele><time>1970-01-01T00:59:52.000Z</time></trkpt><trkpt lat="14.704761" lon="101.15738"><ele>288.9</ele><time>1970-01-01T00:59:53.000Z</time></trkpt><trkpt lat="14.704766" lon="101.157412"><ele>289.4</ele><time>1970-01-01T00:59:54.000Z</time></trkpt><trkpt lat="14.704768" lon="101.157442"><ele>289.9</ele><time>1970-01-01T00:59:55.000Z</time></trkpt><trkpt lat="14.704771" lon="101.157472"><ele>290.2</ele><time>1970-01-01T00:59:56.000Z</time></trkpt><trkpt lat="14.704774" lon="101.157504"><ele>290.3</ele><time>1970-01-01T00:59:57.000Z</time></trkpt><trkpt lat="14.704777" lon="101.157533"><ele>290.4</ele><time>1970-01-01T00:59:58.000Z</time></trkpt><trkpt lat="14.704795" lon="101.157581"><ele>290.5</ele><time>1970-01-01T01:00:00.000Z</time></trkpt><trkpt lat="14.704837" lon="101.157614"><ele>290.6</ele><time>1970-01-01T01:00:02.000Z</time></trkpt><trkpt lat="14.704882" lon="101.157632"><ele>290.7</ele><time>1970-01-01T01:00:04.000Z</time></trkpt><trkpt lat="14.704927" lon="101.157649"><ele>290.9</ele><time>1970-01-01T01:00:06.000Z</time></trkpt><trkpt lat="14.704975" lon="101.157666"><ele>291</ele><time>1970-01-01T01:00:08.000Z</time></trkpt><trkpt lat="14.705004" lon="101.157676"><ele>291.2</ele><time>1970-01-01T01:00:09.000Z</time></trkpt><trkpt lat="14.705034" lon="101.157687"><ele>291.3</ele><time>1970-01-01T01:00:10.000Z</time></trkpt><trkpt lat="14.705062" lon="101.157698"><ele>291.2</ele><time>1970-01-01T01:00:11.000Z</time></trkpt><trkpt lat="14.705104" lon="101.157727"><ele>291.1</ele><time>1970-01-01T01:00:13.000Z</time></trkpt><trkpt lat="14.705118" lon="101.15776"><ele>291</ele><time>1970-01-01T01:00:14.000Z</time></trkpt><trkpt lat="14.705112" lon="101.157856"><ele>290.4</ele><time>1970-01-01T01:00:15.000Z</time></trkpt><trkpt lat="14.705119" lon="101.157897"><ele>289.9</ele><time>1970-01-01T01:00:16.000Z</time></trkpt><trkpt lat="14.705143" lon="101.157934"><ele>289.4</ele><time>1970-01-01T01:00:17.000Z</time></trkpt><trkpt lat="14.705162" lon="101.157969"><ele>289.2</ele><time>1970-01-01T01:00:18.000Z</time></trkpt><trkpt lat="14.705189" lon="101.158006"><ele>289.3</ele><time>1970-01-01T01:00:19.000Z</time></trkpt><trkpt lat="14.705212" lon="101.158025"><ele>289.4</ele><time>1970-01-01T01:00:20.000Z</time></trkpt><trkpt lat="14.705244" lon="101.158045"><ele>289.4</ele><time>1970-01-01T01:00:21.000Z</time></trkpt><trkpt lat="14.705276" lon="101.15806"><ele>289.6</ele><time>1970-01-01T01:00:22.000Z</time></trkpt><trkpt lat="14.70531" lon="101.15807"><ele>289.8</ele><time>1970-01-01T01:00:23.000Z</time></trkpt><trkpt lat="14.70534" lon="101.158077"><ele>290</ele><time>1970-01-01T01:00:24.000Z</time></trkpt><trkpt lat="14.705395" lon="101.158084"><ele>290.2</ele><time>1970-01-01T01:00:26.000Z</time></trkpt><trkpt lat="14.705426" lon="101.158084"><ele>290.3</ele><time>1970-01-01T01:00:27.000Z</time></trkpt><trkpt lat="14.705457" lon="101.158079"><ele>290.4</ele><time>1970-01-01T01:00:28.000Z</time></trkpt><trkpt lat="14.705488" lon="101.158081"><ele>290.6</ele><time>1970-01-01T01:00:29.000Z</time></trkpt><trkpt lat="14.705515" lon="101.158082"><ele>290.9</ele><time>1970-01-01T01:00:30.000Z</time></trkpt><trkpt lat="14.705544" lon="101.158079"><ele>291.3</ele><time>1970-01-01T01:00:31.000Z</time></trkpt><trkpt lat="14.705571" lon="101.158075"><ele>291.5</ele><time>1970-01-01T01:00:32.000Z</time></trkpt><trkpt lat="14.705615" lon="101.158064"><ele>291.8</ele><time>1970-01-01T01:00:34.000Z</time></trkpt><trkpt lat="14.705658" lon="101.158053"><ele>292.1</ele><time>1970-01-01T01:00:36.000Z</time></trkpt><trkpt lat="14.705686" lon="101.158049"><ele>292.3</ele><time>1970-01-01T01:00:37.000Z</time></trkpt><trkpt lat="14.705717" lon="101.15804"><ele>292.5</ele><time>1970-01-01T01:00:38.000Z</time></trkpt><trkpt lat="14.705747" lon="101.158029"><ele>292.6</ele><time>1970-01-01T01:00:39.000Z</time></trkpt><trkpt lat="14.705779" lon="101.158021"><ele>292.7</ele><time>1970-01-01T01:00:40.000Z</time></trkpt><trkpt lat="14.70581" lon="101.158017"><ele>292.8</ele><time>1970-01-01T01:00:41.000Z</time></trkpt><trkpt lat="14.705847" lon="101.158016"><ele>292.9</ele><time>1970-01-01T01:00:42.000Z</time></trkpt><trkpt lat="14.705882" lon="101.158014"><ele>293</ele><time>1970-01-01T01:00:43.000Z</time></trkpt><trkpt lat="14.705916" lon="101.158012"><ele>293.1</ele><time>1970-01-01T01:00:44.000Z</time></trkpt><trkpt lat="14.705952" lon="101.15801"><ele>293.3</ele><time>1970-01-01T01:00:45.000Z</time></trkpt><trkpt lat="14.705988" lon="101.15801"><ele>293.5</ele><time>1970-01-01T01:00:46.000Z</time></trkpt><trkpt lat="14.706025" lon="101.158013"><ele>293.8</ele><time>1970-01-01T01:00:47.000Z</time></trkpt><trkpt lat="14.70606" lon="101.158016"><ele>293.9</ele><time>1970-01-01T01:00:48.000Z</time></trkpt><trkpt lat="14.706096" lon="101.158018"><ele>294.1</ele><time>1970-01-01T01:00:49.000Z</time></trkpt><trkpt lat="14.706131" lon="101.15802"><ele>294</ele><time>1970-01-01T01:00:50.000Z</time></trkpt><trkpt lat="14.706164" lon="101.158022"><ele>294</ele><time>1970-01-01T01:00:51.000Z</time></trkpt><trkpt lat="14.706196" lon="101.158025"><ele>294</ele><time>1970-01-01T01:00:52.000Z</time></trkpt><trkpt lat="14.706228" lon="101.158026"><ele>294</ele><time>1970-01-01T01:00:53.000Z</time></trkpt><trkpt lat="14.706258" lon="101.158026"><ele>294</ele><time>1970-01-01T01:00:54.000Z</time></trkpt><trkpt lat="14.706288" lon="101.158027"><ele>294.2</ele><time>1970-01-01T01:00:55.000Z</time></trkpt><trkpt lat="14.706319" lon="101.158027"><ele>294.3</ele><time>1970-01-01T01:00:56.000Z</time></trkpt><trkpt lat="14.706351" lon="101.158028"><ele>294.6</ele><time>1970-01-01T01:00:57.000Z</time></trkpt><trkpt lat="14.706381" lon="101.158028"><ele>294.8</ele><time>1970-01-01T01:00:58.000Z</time></trkpt><trkpt lat="14.70641" lon="101.158028"><ele>295.1</ele><time>1970-01-01T01:00:59.000Z</time></trkpt><trkpt lat="14.706441" lon="101.158028"><ele>295.3</ele><time>1970-01-01T01:01:00.000Z</time></trkpt><trkpt lat="14.706473" lon="101.158028"><ele>295.6</ele><time>1970-01-01T01:01:01.000Z</time></trkpt><trkpt lat="14.706505" lon="101.158027"><ele>295.8</ele><time>1970-01-01T01:01:02.000Z</time></trkpt><trkpt lat="14.706535" lon="101.158026"><ele>296</ele><time>1970-01-01T01:01:03.000Z</time></trkpt><trkpt lat="14.706563" lon="101.158027"><ele>296.1</ele><time>1970-01-01T01:01:04.000Z</time></trkpt><trkpt lat="14.706594" lon="101.158027"><ele>296.2</ele><time>1970-01-01T01:01:05.000Z</time></trkpt><trkpt lat="14.706625" lon="101.158027"><ele>296.3</ele><time>1970-01-01T01:01:06.000Z</time></trkpt><trkpt lat="14.706655" lon="101.158027"><ele>296.3</ele><time>1970-01-01T01:01:07.000Z</time></trkpt><trkpt lat="14.706684" lon="101.158027"><ele>296.3</ele><time>1970-01-01T01:01:08.000Z</time></trkpt><trkpt lat="14.706713" lon="101.158027"><ele>296.4</ele><time>1970-01-01T01:01:09.000Z</time></trkpt><trkpt lat="14.706742" lon="101.158025"><ele>296.5</ele><time>1970-01-01T01:01:10.000Z</time></trkpt><trkpt lat="14.706771" lon="101.158025"><ele>296.6</ele><time>1970-01-01T01:01:11.000Z</time></trkpt><trkpt lat="14.706824" lon="101.158024"><ele>296.9</ele><time>1970-01-01T01:01:13.000Z</time></trkpt><trkpt lat="14.706876" lon="101.158023"><ele>297.1</ele><time>1970-01-01T01:01:15.000Z</time></trkpt><trkpt lat="14.706929" lon="101.158024"><ele>297.3</ele><time>1970-01-01T01:01:17.000Z</time></trkpt><trkpt lat="14.706976" lon="101.158025"><ele>297.3</ele><time>1970-01-01T01:01:19.000Z</time></trkpt><trkpt lat="14.707018" lon="101.158025"><ele>297.3</ele><time>1970-01-01T01:01:21.000Z</time></trkpt><trkpt lat="14.707066" lon="101.158027"><ele>297.2</ele><time>1970-01-01T01:01:23.000Z</time></trkpt><trkpt lat="14.707094" lon="101.158029"><ele>297.1</ele><time>1970-01-01T01:01:24.000Z</time></trkpt><trkpt lat="14.707125" lon="101.158033"><ele>297.1</ele><time>1970-01-01T01:01:25.000Z</time></trkpt><trkpt lat="14.707154" lon="101.158039"><ele>297.1</ele><time>1970-01-01T01:01:26.000Z</time></trkpt><trkpt lat="14.707184" lon="101.158044"><ele>297.1</ele><time>1970-01-01T01:01:27.000Z</time></trkpt><trkpt lat="14.707213" lon="101.158048"><ele>297.1</ele><time>1970-01-01T01:01:28.000Z</time></trkpt><trkpt lat="14.707241" lon="101.158052"><ele>297.1</ele><time>1970-01-01T01:01:29.000Z</time></trkpt><trkpt lat="14.70727" lon="101.158055"><ele>297.1</ele><time>1970-01-01T01:01:30.000Z</time></trkpt><trkpt lat="14.707299" lon="101.158058"><ele>297.1</ele><time>1970-01-01T01:01:31.000Z</time></trkpt><trkpt lat="14.707326" lon="101.158061"><ele>297.1</ele><time>1970-01-01T01:01:32.000Z</time></trkpt><trkpt lat="14.707354" lon="101.158064"><ele>297.1</ele><time>1970-01-01T01:01:33.000Z</time></trkpt><trkpt lat="14.707385" lon="101.158067"><ele>297.1</ele><time>1970-01-01T01:01:34.000Z</time></trkpt><trkpt lat="14.707417" lon="101.158071"><ele>297.1</ele><time>1970-01-01T01:01:35.000Z</time></trkpt><trkpt lat="14.707449" lon="101.158075"><ele>297.1</ele><time>1970-01-01T01:01:36.000Z</time></trkpt><trkpt lat="14.707481" lon="101.158079"><ele>297.1</ele><time>1970-01-01T01:01:37.000Z</time></trkpt><trkpt lat="14.707511" lon="101.158082"><ele>297.1</ele><time>1970-01-01T01:01:38.000Z</time></trkpt><trkpt lat="14.70754" lon="101.158085"><ele>297.1</ele><time>1970-01-01T01:01:39.000Z</time></trkpt><trkpt lat="14.707573" lon="101.158088"><ele>297.1</ele><time>1970-01-01T01:01:40.000Z</time></trkpt><trkpt lat="14.707607" lon="101.158091"><ele>297.1</ele><time>1970-01-01T01:01:41.000Z</time></trkpt><trkpt lat="14.707643" lon="101.158095"><ele>297.1</ele><time>1970-01-01T01:01:42.000Z</time></trkpt><trkpt lat="14.70768" lon="101.1581"><ele>297.1</ele><time>1970-01-01T01:01:43.000Z</time></trkpt><trkpt lat="14.707716" lon="101.158105"><ele>297.1</ele><time>1970-01-01T01:01:44.000Z</time></trkpt><trkpt lat="14.707752" lon="101.158109"><ele>297.1</ele><time>1970-01-01T01:01:45.000Z</time></trkpt><trkpt lat="14.707789" lon="101.158114"><ele>297.1</ele><time>1970-01-01T01:01:46.000Z</time></trkpt><trkpt lat="14.707824" lon="101.158119"><ele>297.1</ele><time>1970-01-01T01:01:47.000Z</time></trkpt><trkpt lat="14.707854" lon="101.158124"><ele>297.2</ele><time>1970-01-01T01:01:48.000Z</time></trkpt><trkpt lat="14.707893" lon="101.158131"><ele>297</ele><time>1970-01-01T01:01:50.000Z</time></trkpt><trkpt lat="14.707936" lon="101.158134"><ele>296.8</ele><time>1970-01-01T01:02:02.000Z</time></trkpt><trkpt lat="14.707981" lon="101.15815"><ele>296.5</ele><time>1970-01-01T01:02:05.000Z</time></trkpt><trkpt lat="14.708008" lon="101.158154"><ele>296.3</ele><time>1970-01-01T01:02:06.000Z</time></trkpt><trkpt lat="14.708039" lon="101.158156"><ele>296.1</ele><time>1970-01-01T01:02:07.000Z</time></trkpt><trkpt lat="14.708069" lon="101.15816"><ele>296</ele><time>1970-01-01T01:02:08.000Z</time></trkpt><trkpt lat="14.708104" lon="101.158164"><ele>295.8</ele><time>1970-01-01T01:02:09.000Z</time></trkpt><trkpt lat="14.708142" lon="101.158166"><ele>295.5</ele><time>1970-01-01T01:02:10.000Z</time></trkpt><trkpt lat="14.708181" lon="101.158167"><ele>295.3</ele><time>1970-01-01T01:02:11.000Z</time></trkpt><trkpt lat="14.708222" lon="101.158166"><ele>295</ele><time>1970-01-01T01:02:12.000Z</time></trkpt><trkpt lat="14.708264" lon="101.158165"><ele>294.8</ele><time>1970-01-01T01:02:13.000Z</time></trkpt><trkpt lat="14.708305" lon="101.158167"><ele>294.5</ele><time>1970-01-01T01:02:14.000Z</time></trkpt><trkpt lat="14.708349" lon="101.15817"><ele>294</ele><time>1970-01-01T01:02:15.000Z</time></trkpt><trkpt lat="14.708401" lon="101.158174"><ele>293.6</ele><time>1970-01-01T01:02:16.000Z</time></trkpt><trkpt lat="14.708446" lon="101.158177"><ele>293.5</ele><time>1970-01-01T01:02:17.000Z</time></trkpt><trkpt lat="14.708496" lon="101.15818"><ele>293.4</ele><time>1970-01-01T01:02:18.000Z</time></trkpt><trkpt lat="14.708548" lon="101.158181"><ele>293.5</ele><time>1970-01-01T01:02:19.000Z</time></trkpt><trkpt lat="14.708601" lon="101.158183"><ele>293.8</ele><time>1970-01-01T01:02:20.000Z</time></trkpt><trkpt lat="14.708643" lon="101.158189"><ele>294</ele><time>1970-01-01T01:02:21.000Z</time></trkpt><trkpt lat="14.708692" lon="101.158194"><ele>294.3</ele><time>1970-01-01T01:02:22.000Z</time></trkpt><trkpt lat="14.708741" lon="101.158203"><ele>294.6</ele><time>1970-01-01T01:02:23.000Z</time></trkpt><trkpt lat="14.708785" lon="101.158208"><ele>294.9</ele><time>1970-01-01T01:02:24.000Z</time></trkpt><trkpt lat="14.70882" lon="101.15822"><ele>295.2</ele><time>1970-01-01T01:02:25.000Z</time></trkpt><trkpt lat="14.708866" lon="101.158219"><ele>295.5</ele><time>1970-01-01T01:02:26.000Z</time></trkpt><trkpt lat="14.708906" lon="101.158225"><ele>295.8</ele><time>1970-01-01T01:02:27.000Z</time></trkpt><trkpt lat="14.708952" lon="101.158236"><ele>296</ele><time>1970-01-01T01:02:28.000Z</time></trkpt><trkpt lat="14.708991" lon="101.158253"><ele>296.2</ele><time>1970-01-01T01:02:29.000Z</time></trkpt><trkpt lat="14.709032" lon="101.15826"><ele>296.3</ele><time>1970-01-01T01:02:30.000Z</time></trkpt><trkpt lat="14.709077" lon="101.158264"><ele>296.3</ele><time>1970-01-01T01:02:31.000Z</time></trkpt><trkpt lat="14.709115" lon="101.158273"><ele>296.3</ele><time>1970-01-01T01:02:32.000Z</time></trkpt><trkpt lat="14.709157" lon="101.158278"><ele>296.3</ele><time>1970-01-01T01:02:33.000Z</time></trkpt><trkpt lat="14.709202" lon="101.158289"><ele>296.2</ele><time>1970-01-01T01:02:34.000Z</time></trkpt><trkpt lat="14.709246" lon="101.158295"><ele>296.1</ele><time>1970-01-01T01:02:35.000Z</time></trkpt><trkpt lat="14.709288" lon="101.158303"><ele>295.8</ele><time>1970-01-01T01:02:36.000Z</time></trkpt><trkpt lat="14.709335" lon="101.158305"><ele>295.5</ele><time>1970-01-01T01:02:37.000Z</time></trkpt><trkpt lat="14.709388" lon="101.158304"><ele>295.1</ele><time>1970-01-01T01:02:38.000Z</time></trkpt><trkpt lat="14.709446" lon="101.15831"><ele>294.7</ele><time>1970-01-01T01:02:39.000Z</time></trkpt><trkpt lat="14.709507" lon="101.158322"><ele>294.4</ele><time>1970-01-01T01:02:40.000Z</time></trkpt><trkpt lat="14.70957" lon="101.158332"><ele>294</ele><time>1970-01-01T01:02:41.000Z</time></trkpt><trkpt lat="14.709633" lon="101.158345"><ele>293.5</ele><time>1970-01-01T01:02:42.000Z</time></trkpt><trkpt lat="14.709698" lon="101.158345"><ele>293.2</ele><time>1970-01-01T01:02:43.000Z</time></trkpt><trkpt lat="14.709765" lon="101.158346"><ele>293</ele><time>1970-01-01T01:02:44.000Z</time></trkpt><trkpt lat="14.709829" lon="101.158363"><ele>292.8</ele><time>1970-01-01T01:02:45.000Z</time></trkpt><trkpt lat="14.709882" lon="101.158392"><ele>292.5</ele><time>1970-01-01T01:02:46.000Z</time></trkpt><trkpt lat="14.709945" lon="101.158416"><ele>292.2</ele><time>1970-01-01T01:02:47.000Z</time></trkpt><trkpt lat="14.710006" lon="101.158433"><ele>291.9</ele><time>1970-01-01T01:02:48.000Z</time></trkpt><trkpt lat="14.710056" lon="101.158402"><ele>291.6</ele><time>1970-01-01T01:02:49.000Z</time></trkpt><trkpt lat="14.710088" lon="101.158375"><ele>291.4</ele><time>1970-01-01T01:02:50.000Z</time></trkpt><trkpt lat="14.710107" lon="101.158349"><ele>291.3</ele><time>1970-01-01T01:02:51.000Z</time></trkpt><trkpt lat="14.710129" lon="101.158322"><ele>291.3</ele><time>1970-01-01T01:02:52.000Z</time></trkpt><trkpt lat="14.710162" lon="101.158288"><ele>291.6</ele><time>1970-01-01T01:02:54.000Z</time></trkpt><trkpt lat="14.710189" lon="101.158254"><ele>292</ele><time>1970-01-01T01:02:55.000Z</time></trkpt><trkpt lat="14.710212" lon="101.158233"><ele>292.5</ele><time>1970-01-01T01:02:56.000Z</time></trkpt><trkpt lat="14.71024" lon="101.158202"><ele>292.6</ele><time>1970-01-01T01:02:57.000Z</time></trkpt><trkpt lat="14.710263" lon="101.158179"><ele>292.7</ele><time>1970-01-01T01:02:58.000Z</time></trkpt><trkpt lat="14.710297" lon="101.158174"><ele>292.7</ele><time>1970-01-01T01:02:59.000Z</time></trkpt><trkpt lat="14.710334" lon="101.158169"><ele>292.8</ele><time>1970-01-01T01:03:00.000Z</time></trkpt><trkpt lat="14.710367" lon="101.15817"><ele>292.8</ele><time>1970-01-01T01:03:01.000Z</time></trkpt><trkpt lat="14.710394" lon="101.158171"><ele>292.9</ele><time>1970-01-01T01:03:02.000Z</time></trkpt><trkpt lat="14.710435" lon="101.158169"><ele>292.9</ele><time>1970-01-01T01:03:04.000Z</time></trkpt><trkpt lat="14.710464" lon="101.158166"><ele>293</ele><time>1970-01-01T01:03:08.000Z</time></trkpt><trkpt lat="14.710496" lon="101.158161"><ele>293.1</ele><time>1970-01-01T01:03:13.000Z</time></trkpt><trkpt lat="14.710523" lon="101.158154"><ele>293</ele><time>1970-01-01T01:03:16.000Z</time></trkpt><trkpt lat="14.71056" lon="101.158167"><ele>292.8</ele><time>1970-01-01T01:03:20.000Z</time></trkpt><trkpt lat="14.710589" lon="101.158202"><ele>292.6</ele><time>1970-01-01T01:03:22.000Z</time></trkpt><trkpt lat="14.710606" lon="101.158224"><ele>292.5</ele><time>1970-01-01T01:03:23.000Z</time></trkpt><trkpt lat="14.710625" lon="101.158246"><ele>292.4</ele><time>1970-01-01T01:03:24.000Z</time></trkpt><trkpt lat="14.710648" lon="101.158268"><ele>292.3</ele><time>1970-01-01T01:03:25.000Z</time></trkpt><trkpt lat="14.710673" lon="101.158291"><ele>292.2</ele><time>1970-01-01T01:03:26.000Z</time></trkpt><trkpt lat="14.710698" lon="101.158315"><ele>292.2</ele><time>1970-01-01T01:03:27.000Z</time></trkpt><trkpt lat="14.710723" lon="101.158339"><ele>292.2</ele><time>1970-01-01T01:03:28.000Z</time></trkpt><trkpt lat="14.71075" lon="101.158362"><ele>292.1</ele><time>1970-01-01T01:03:29.000Z</time></trkpt><trkpt lat="14.710778" lon="101.158384"><ele>292</ele><time>1970-01-01T01:03:30.000Z</time></trkpt><trkpt lat="14.710808" lon="101.158409"><ele>291.9</ele><time>1970-01-01T01:03:31.000Z</time></trkpt><trkpt lat="14.710838" lon="101.158432"><ele>291.8</ele><time>1970-01-01T01:03:32.000Z</time></trkpt><trkpt lat="14.710867" lon="101.158455"><ele>291.6</ele><time>1970-01-01T01:03:33.000Z</time></trkpt><trkpt lat="14.710897" lon="101.158478"><ele>291.6</ele><time>1970-01-01T01:03:34.000Z</time></trkpt><trkpt lat="14.710927" lon="101.158501"><ele>291.7</ele><time>1970-01-01T01:03:35.000Z</time></trkpt><trkpt lat="14.710958" lon="101.158523"><ele>291.9</ele><time>1970-01-01T01:03:36.000Z</time></trkpt><trkpt lat="14.710991" lon="101.158543"><ele>292.3</ele><time>1970-01-01T01:03:37.000Z</time></trkpt><trkpt lat="14.711025" lon="101.158564"><ele>292.7</ele><time>1970-01-01T01:03:38.000Z</time></trkpt><trkpt lat="14.71106" lon="101.158588"><ele>292.9</ele><time>1970-01-01T01:03:39.000Z</time></trkpt><trkpt lat="14.711096" lon="101.158611"><ele>293.2</ele><time>1970-01-01T01:03:40.000Z</time></trkpt><trkpt lat="14.711133" lon="101.158635"><ele>293.3</ele><time>1970-01-01T01:03:41.000Z</time></trkpt><trkpt lat="14.711172" lon="101.158657"><ele>293.4</ele><time>1970-01-01T01:03:42.000Z</time></trkpt><trkpt lat="14.711213" lon="101.158675"><ele>294</ele><time>1970-01-01T01:03:43.000Z</time></trkpt><trkpt lat="14.711253" lon="101.158691"><ele>294.5</ele><time>1970-01-01T01:03:44.000Z</time></trkpt><trkpt lat="14.711294" lon="101.158707"><ele>294.9</ele><time>1970-01-01T01:03:45.000Z</time></trkpt><trkpt lat="14.711335" lon="101.158723"><ele>295.4</ele><time>1970-01-01T01:03:46.000Z</time></trkpt><trkpt lat="14.711375" lon="101.158738"><ele>295.8</ele><time>1970-01-01T01:03:47.000Z</time></trkpt><trkpt lat="14.711415" lon="101.158753"><ele>296.2</ele><time>1970-01-01T01:03:48.000Z</time></trkpt><trkpt lat="14.711453" lon="101.158768"><ele>296.3</ele><time>1970-01-01T01:03:49.000Z</time></trkpt><trkpt lat="14.711489" lon="101.158786"><ele>296.4</ele><time>1970-01-01T01:03:50.000Z</time></trkpt><trkpt lat="14.711522" lon="101.158805"><ele>296.5</ele><time>1970-01-01T01:03:51.000Z</time></trkpt><trkpt lat="14.711552" lon="101.158826"><ele>296.6</ele><time>1970-01-01T01:03:52.000Z</time></trkpt><trkpt lat="14.711581" lon="101.158846"><ele>296.7</ele><time>1970-01-01T01:03:53.000Z</time></trkpt><trkpt lat="14.71161" lon="101.158867"><ele>296.7</ele><time>1970-01-01T01:03:54.000Z</time></trkpt><trkpt lat="14.711638" lon="101.158891"><ele>296.7</ele><time>1970-01-01T01:03:55.000Z</time></trkpt><trkpt lat="14.711666" lon="101.158917"><ele>296.9</ele><time>1970-01-01T01:03:56.000Z</time></trkpt><trkpt lat="14.711695" lon="101.158948"><ele>297</ele><time>1970-01-01T01:03:57.000Z</time></trkpt><trkpt lat="14.711723" lon="101.158984"><ele>297.3</ele><time>1970-01-01T01:03:58.000Z</time></trkpt><trkpt lat="14.711746" lon="101.15902"><ele>297.5</ele><time>1970-01-01T01:03:59.000Z</time></trkpt><trkpt lat="14.711759" lon="101.159045"><ele>297.3</ele><time>1970-01-01T01:04:01.000Z</time></trkpt><trkpt lat="14.711734" lon="101.159013"><ele>297.1</ele><time>1970-01-01T01:04:04.000Z</time></trkpt><trkpt lat="14.711711" lon="101.158993"><ele>296.9</ele><time>1970-01-01T01:04:05.000Z</time></trkpt><trkpt lat="14.711686" lon="101.158968"><ele>296.8</ele><time>1970-01-01T01:04:06.000Z</time></trkpt><trkpt lat="14.711659" lon="101.158939"><ele>296.7</ele><time>1970-01-01T01:04:07.000Z</time></trkpt><trkpt lat="14.711632" lon="101.158909"><ele>296.7</ele><time>1970-01-01T01:04:08.000Z</time></trkpt><trkpt lat="14.711602" lon="101.158883"><ele>296.6</ele><time>1970-01-01T01:04:09.000Z</time></trkpt><trkpt lat="14.711568" lon="101.158856"><ele>296.5</ele><time>1970-01-01T01:04:10.000Z</time></trkpt><trkpt lat="14.711531" lon="101.158831"><ele>296.4</ele><time>1970-01-01T01:04:11.000Z</time></trkpt><trkpt lat="14.711493" lon="101.158807"><ele>296.3</ele><time>1970-01-01T01:04:12.000Z</time></trkpt><trkpt lat="14.711452" lon="101.158783"><ele>296.2</ele><time>1970-01-01T01:04:13.000Z</time></trkpt><trkpt lat="14.711395" lon="101.158754"><ele>295.6</ele><time>1970-01-01T01:04:14.000Z</time></trkpt><trkpt lat="14.711354" lon="101.158736"><ele>295.1</ele><time>1970-01-01T01:04:15.000Z</time></trkpt><trkpt lat="14.711311" lon="101.158718"><ele>294.6</ele><time>1970-01-01T01:04:16.000Z</time></trkpt><trkpt lat="14.711265" lon="101.158701"><ele>294.1</ele><time>1970-01-01T01:04:17.000Z</time></trkpt><trkpt lat="14.711224" lon="101.158682"><ele>293.5</ele><time>1970-01-01T01:04:18.000Z</time></trkpt><trkpt lat="14.711178" lon="101.158662"><ele>293.3</ele><time>1970-01-01T01:04:19.000Z</time></trkpt><trkpt lat="14.711134" lon="101.158644"><ele>293.2</ele><time>1970-01-01T01:04:20.000Z</time></trkpt><trkpt lat="14.71109" lon="101.15862"><ele>292.9</ele><time>1970-01-01T01:04:21.000Z</time></trkpt><trkpt lat="14.711052" lon="101.158593"><ele>292.6</ele><time>1970-01-01T01:04:22.000Z</time></trkpt><trkpt lat="14.711014" lon="101.158566"><ele>292.1</ele><time>1970-01-01T01:04:23.000Z</time></trkpt><trkpt lat="14.710974" lon="101.158539"><ele>291.7</ele><time>1970-01-01T01:04:24.000Z</time></trkpt><trkpt lat="14.710937" lon="101.158509"><ele>291.6</ele><time>1970-01-01T01:04:25.000Z</time></trkpt><trkpt lat="14.710901" lon="101.158482"><ele>291.7</ele><time>1970-01-01T01:04:26.000Z</time></trkpt><trkpt lat="14.710863" lon="101.158463"><ele>291.8</ele><time>1970-01-01T01:04:27.000Z</time></trkpt><trkpt lat="14.710827" lon="101.158434"><ele>292</ele><time>1970-01-01T01:04:28.000Z</time></trkpt><trkpt lat="14.710789" lon="101.158408"><ele>292.1</ele><time>1970-01-01T01:04:29.000Z</time></trkpt><trkpt lat="14.710752" lon="101.158383"><ele>292.2</ele><time>1970-01-01T01:04:30.000Z</time></trkpt><trkpt lat="14.710719" lon="101.158353"><ele>292.2</ele><time>1970-01-01T01:04:31.000Z</time></trkpt><trkpt lat="14.710686" lon="101.158324"><ele>292.3</ele><time>1970-01-01T01:04:32.000Z</time></trkpt><trkpt lat="14.710653" lon="101.1583"><ele>292.4</ele><time>1970-01-01T01:04:33.000Z</time></trkpt><trkpt lat="14.710623" lon="101.158267"><ele>292.6</ele><time>1970-01-01T01:04:34.000Z</time></trkpt><trkpt lat="14.710594" lon="101.158233"><ele>292.8</ele><time>1970-01-01T01:04:35.000Z</time></trkpt><trkpt lat="14.710568" lon="101.158197"><ele>292.9</ele><time>1970-01-01T01:04:36.000Z</time></trkpt><trkpt lat="14.710543" lon="101.15816"><ele>293.1</ele><time>1970-01-01T01:04:37.000Z</time></trkpt><trkpt lat="14.710519" lon="101.158124"><ele>293.1</ele><time>1970-01-01T01:04:38.000Z</time></trkpt><trkpt lat="14.710499" lon="101.15809"><ele>293.1</ele><time>1970-01-01T01:04:39.000Z</time></trkpt><trkpt lat="14.710486" lon="101.158058"><ele>293</ele><time>1970-01-01T01:04:40.000Z</time></trkpt><trkpt lat="14.710476" lon="101.158024"><ele>293</ele><time>1970-01-01T01:04:41.000Z</time></trkpt><trkpt lat="14.710467" lon="101.157988"><ele>293</ele><time>1970-01-01T01:04:42.000Z</time></trkpt><trkpt lat="14.710458" lon="101.157953"><ele>293</ele><time>1970-01-01T01:04:43.000Z</time></trkpt><trkpt lat="14.71045" lon="101.157918"><ele>293</ele><time>1970-01-01T01:04:44.000Z</time></trkpt><trkpt lat="14.710445" lon="101.157884"><ele>293.1</ele><time>1970-01-01T01:04:45.000Z</time></trkpt><trkpt lat="14.710443" lon="101.157851"><ele>293.1</ele><time>1970-01-01T01:04:46.000Z</time></trkpt><trkpt lat="14.710444" lon="101.157815"><ele>293.2</ele><time>1970-01-01T01:04:47.000Z</time></trkpt><trkpt lat="14.710447" lon="101.157776"><ele>293.2</ele><time>1970-01-01T01:04:48.000Z</time></trkpt><trkpt lat="14.710467" lon="101.157726"><ele>293</ele><time>1970-01-01T01:04:49.000Z</time></trkpt><trkpt lat="14.710476" lon="101.157679"><ele>293</ele><time>1970-01-01T01:04:50.000Z</time></trkpt><trkpt lat="14.710478" lon="101.157645"><ele>292.9</ele><time>1970-01-01T01:04:51.000Z</time></trkpt><trkpt lat="14.71048" lon="101.1576"><ele>292.8</ele><time>1970-01-01T01:04:52.000Z</time></trkpt><trkpt lat="14.710478" lon="101.157555"><ele>292.8</ele><time>1970-01-01T01:04:53.000Z</time></trkpt><trkpt lat="14.710481" lon="101.157505"><ele>292.8</ele><time>1970-01-01T01:04:54.000Z</time></trkpt><trkpt lat="14.710484" lon="101.157462"><ele>292.9</ele><time>1970-01-01T01:04:55.000Z</time></trkpt><trkpt lat="14.710486" lon="101.157417"><ele>293.1</ele><time>1970-01-01T01:04:56.000Z</time></trkpt><trkpt lat="14.710487" lon="101.157371"><ele>293.4</ele><time>1970-01-01T01:04:57.000Z</time></trkpt><trkpt lat="14.710495" lon="101.157335"><ele>293.7</ele><time>1970-01-01T01:04:58.000Z</time></trkpt><trkpt lat="14.7105" lon="101.157286"><ele>294.1</ele><time>1970-01-01T01:04:59.000Z</time></trkpt><trkpt lat="14.710508" lon="101.157237"><ele>294.6</ele><time>1970-01-01T01:05:00.000Z</time></trkpt><trkpt lat="14.710514" lon="101.157195"><ele>294.9</ele><time>1970-01-01T01:05:01.000Z</time></trkpt><trkpt lat="14.710516" lon="101.157157"><ele>295.4</ele><time>1970-01-01T01:05:02.000Z</time></trkpt><trkpt lat="14.710538" lon="101.157098"><ele>296</ele><time>1970-01-01T01:05:04.000Z</time></trkpt><trkpt lat="14.710545" lon="101.157054"><ele>296.5</ele><time>1970-01-01T01:05:05.000Z</time></trkpt><trkpt lat="14.710544" lon="101.15701"><ele>296.9</ele><time>1970-01-01T01:05:06.000Z</time></trkpt><trkpt lat="14.710549" lon="101.156971"><ele>297.2</ele><time>1970-01-01T01:05:07.000Z</time></trkpt><trkpt lat="14.710557" lon="101.156926"><ele>297.2</ele><time>1970-01-01T01:05:08.000Z</time></trkpt><trkpt lat="14.710569" lon="101.156882"><ele>297.4</ele><time>1970-01-01T01:05:09.000Z</time></trkpt><trkpt lat="14.710595" lon="101.156896"><ele>297.5</ele><time>1970-01-01T01:05:10.000Z</time></trkpt><trkpt lat="14.71063" lon="101.156899"><ele>297.5</ele><time>1970-01-01T01:05:11.000Z</time></trkpt><trkpt lat="14.710674" lon="101.156915"><ele>297.5</ele><time>1970-01-01T01:05:12.000Z</time></trkpt><trkpt lat="14.710709" lon="101.156936"><ele>297.1</ele><time>1970-01-01T01:05:13.000Z</time></trkpt><trkpt lat="14.710748" lon="101.156951"><ele>297.1</ele><time>1970-01-01T01:05:14.000Z</time></trkpt><trkpt lat="14.7108" lon="101.156959"><ele>296.9</ele><time>1970-01-01T01:05:15.000Z</time></trkpt><trkpt lat="14.710853" lon="101.156951"><ele>296.6</ele><time>1970-01-01T01:05:16.000Z</time></trkpt><trkpt lat="14.710909" lon="101.156937"><ele>296.4</ele><time>1970-01-01T01:05:17.000Z</time></trkpt><trkpt lat="14.710956" lon="101.156913"><ele>296.4</ele><time>1970-01-01T01:05:18.000Z</time></trkpt><trkpt lat="14.710995" lon="101.156892"><ele>296.5</ele><time>1970-01-01T01:05:19.000Z</time></trkpt><trkpt lat="14.711036" lon="101.156865"><ele>296.7</ele><time>1970-01-01T01:05:20.000Z</time></trkpt><trkpt lat="14.711071" lon="101.156842"><ele>296.8</ele><time>1970-01-01T01:05:21.000Z</time></trkpt><trkpt lat="14.711111" lon="101.156812"><ele>297</ele><time>1970-01-01T01:05:22.000Z</time></trkpt><trkpt lat="14.711151" lon="101.156774"><ele>297.1</ele><time>1970-01-01T01:05:23.000Z</time></trkpt><trkpt lat="14.711191" lon="101.15676"><ele>297.1</ele><time>1970-01-01T01:05:24.000Z</time></trkpt><trkpt lat="14.711229" lon="101.156748"><ele>297.1</ele><time>1970-01-01T01:05:25.000Z</time></trkpt><trkpt lat="14.711272" lon="101.156739"><ele>297.1</ele><time>1970-01-01T01:05:26.000Z</time></trkpt><trkpt lat="14.711314" lon="101.156721"><ele>297.1</ele><time>1970-01-01T01:05:27.000Z</time></trkpt><trkpt lat="14.711354" lon="101.156706"><ele>297</ele><time>1970-01-01T01:05:28.000Z</time></trkpt><trkpt lat="14.711396" lon="101.156686"><ele>297.1</ele><time>1970-01-01T01:05:29.000Z</time></trkpt><trkpt lat="14.711442" lon="101.156662"><ele>297.2</ele><time>1970-01-01T01:05:30.000Z</time></trkpt><trkpt lat="14.711482" lon="101.156627"><ele>297.4</ele><time>1970-01-01T01:05:31.000Z</time></trkpt><trkpt lat="14.711506" lon="101.156587"><ele>297.6</ele><time>1970-01-01T01:05:32.000Z</time></trkpt><trkpt lat="14.711531" lon="101.156547"><ele>297.8</ele><time>1970-01-01T01:05:33.000Z</time></trkpt><trkpt lat="14.711558" lon="101.156512"><ele>298</ele><time>1970-01-01T01:05:34.000Z</time></trkpt><trkpt lat="14.711587" lon="101.156477"><ele>298.3</ele><time>1970-01-01T01:05:35.000Z</time></trkpt><trkpt lat="14.711625" lon="101.156448"><ele>298.5</ele><time>1970-01-01T01:05:36.000Z</time></trkpt><trkpt lat="14.711653" lon="101.156437"><ele>298.6</ele><time>1970-01-01T01:05:37.000Z</time></trkpt><trkpt lat="14.7117" lon="101.156427"><ele>298.9</ele><time>1970-01-01T01:05:38.000Z</time></trkpt><trkpt lat="14.711747" lon="101.156423"><ele>299.2</ele><time>1970-01-01T01:05:39.000Z</time></trkpt><trkpt lat="14.711794" lon="101.156411"><ele>299.5</ele><time>1970-01-01T01:05:40.000Z</time></trkpt><trkpt lat="14.711842" lon="101.156432"><ele>299.7</ele><time>1970-01-01T01:05:41.000Z</time></trkpt><trkpt lat="14.711909" lon="101.156427"><ele>299.8</ele><time>1970-01-01T01:05:42.000Z</time></trkpt><trkpt lat="14.71197" lon="101.156433"><ele>300</ele><time>1970-01-01T01:05:43.000Z</time></trkpt><trkpt lat="14.712026" lon="101.156444"><ele>300.1</ele><time>1970-01-01T01:05:44.000Z</time></trkpt><trkpt lat="14.712078" lon="101.156455"><ele>300.1</ele><time>1970-01-01T01:05:45.000Z</time></trkpt><trkpt lat="14.712134" lon="101.156475"><ele>300</ele><time>1970-01-01T01:05:46.000Z</time></trkpt><trkpt lat="14.712177" lon="101.156501"><ele>300</ele><time>1970-01-01T01:05:47.000Z</time></trkpt><trkpt lat="14.712214" lon="101.156524"><ele>299.9</ele><time>1970-01-01T01:05:48.000Z</time></trkpt><trkpt lat="14.712253" lon="101.156551"><ele>299.7</ele><time>1970-01-01T01:05:49.000Z</time></trkpt><trkpt lat="14.712289" lon="101.156565"><ele>299.5</ele><time>1970-01-01T01:05:50.000Z</time></trkpt><trkpt lat="14.712322" lon="101.156578"><ele>299.4</ele><time>1970-01-01T01:05:51.000Z</time></trkpt><trkpt lat="14.712356" lon="101.1566"><ele>299.4</ele><time>1970-01-01T01:05:52.000Z</time></trkpt><trkpt lat="14.712381" lon="101.156613"><ele>299.4</ele><time>1970-01-01T01:05:53.000Z</time></trkpt><trkpt lat="14.712409" lon="101.156623"><ele>299.2</ele><time>1970-01-01T01:05:54.000Z</time></trkpt><trkpt lat="14.71244" lon="101.156626"><ele>299.1</ele><time>1970-01-01T01:05:55.000Z</time></trkpt><trkpt lat="14.712488" lon="101.156632"><ele>299</ele><time>1970-01-01T01:05:57.000Z</time></trkpt><trkpt lat="14.712519" lon="101.156636"><ele>298.9</ele><time>1970-01-01T01:05:58.000Z</time></trkpt><trkpt lat="14.71255" lon="101.156642"><ele>298.9</ele><time>1970-01-01T01:05:59.000Z</time></trkpt><trkpt lat="14.712584" lon="101.156644"><ele>298.9</ele><time>1970-01-01T01:06:00.000Z</time></trkpt><trkpt lat="14.712614" lon="101.156643"><ele>298.9</ele><time>1970-01-01T01:06:01.000Z</time></trkpt><trkpt lat="14.712642" lon="101.156642"><ele>298.9</ele><time>1970-01-01T01:06:02.000Z</time></trkpt><trkpt lat="14.712677" lon="101.156638"><ele>298.9</ele><time>1970-01-01T01:06:03.000Z</time></trkpt><trkpt lat="14.712715" lon="101.156636"><ele>298.9</ele><time>1970-01-01T01:06:04.000Z</time></trkpt><trkpt lat="14.712753" lon="101.15664"><ele>298.8</ele><time>1970-01-01T01:06:05.000Z</time></trkpt><trkpt lat="14.712792" lon="101.156643"><ele>298.8</ele><time>1970-01-01T01:06:06.000Z</time></trkpt><trkpt lat="14.712831" lon="101.156647"><ele>298.8</ele><time>1970-01-01T01:06:07.000Z</time></trkpt><trkpt lat="14.712868" lon="101.156647"><ele>298.9</ele><time>1970-01-01T01:06:08.000Z</time></trkpt><trkpt lat="14.712905" lon="101.156646"><ele>299</ele><time>1970-01-01T01:06:09.000Z</time></trkpt><trkpt lat="14.71294" lon="101.156646"><ele>299.2</ele><time>1970-01-01T01:06:10.000Z</time></trkpt><trkpt lat="14.712975" lon="101.156647"><ele>299.4</ele><time>1970-01-01T01:06:11.000Z</time></trkpt><trkpt lat="14.713008" lon="101.156649"><ele>299.7</ele><time>1970-01-01T01:06:12.000Z</time></trkpt><trkpt lat="14.713039" lon="101.15665"><ele>299.9</ele><time>1970-01-01T01:06:13.000Z</time></trkpt><trkpt lat="14.713069" lon="101.156653"><ele>300.1</ele><time>1970-01-01T01:06:14.000Z</time></trkpt><trkpt lat="14.713099" lon="101.156656"><ele>300.3</ele><time>1970-01-01T01:06:15.000Z</time></trkpt><trkpt lat="14.713127" lon="101.156661"><ele>300.5</ele><time>1970-01-01T01:06:16.000Z</time></trkpt><trkpt lat="14.713158" lon="101.156667"><ele>300.7</ele><time>1970-01-01T01:06:17.000Z</time></trkpt><trkpt lat="14.71319" lon="101.156673"><ele>300.9</ele><time>1970-01-01T01:06:18.000Z</time></trkpt><trkpt lat="14.713224" lon="101.156676"><ele>301</ele><time>1970-01-01T01:06:19.000Z</time></trkpt><trkpt lat="14.713258" lon="101.156681"><ele>301.2</ele><time>1970-01-01T01:06:20.000Z</time></trkpt><trkpt lat="14.713291" lon="101.156686"><ele>301.3</ele><time>1970-01-01T01:06:21.000Z</time></trkpt><trkpt lat="14.713325" lon="101.156694"><ele>301.6</ele><time>1970-01-01T01:06:22.000Z</time></trkpt><trkpt lat="14.71336" lon="101.156699"><ele>301.8</ele><time>1970-01-01T01:06:23.000Z</time></trkpt><trkpt lat="14.713394" lon="101.156704"><ele>302.3</ele><time>1970-01-01T01:06:24.000Z</time></trkpt><trkpt lat="14.713424" lon="101.156709"><ele>302.8</ele><time>1970-01-01T01:06:25.000Z</time></trkpt><trkpt lat="14.713453" lon="101.156716"><ele>303.4</ele><time>1970-01-01T01:06:26.000Z</time></trkpt><trkpt lat="14.713487" lon="101.156722"><ele>303.7</ele><time>1970-01-01T01:06:27.000Z</time></trkpt><trkpt lat="14.713521" lon="101.15673"><ele>303.9</ele><time>1970-01-01T01:06:28.000Z</time></trkpt><trkpt lat="14.713555" lon="101.156738"><ele>304.1</ele><time>1970-01-01T01:06:29.000Z</time></trkpt><trkpt lat="14.713589" lon="101.156746"><ele>304.1</ele><time>1970-01-01T01:06:30.000Z</time></trkpt><trkpt lat="14.713624" lon="101.156752"><ele>304</ele><time>1970-01-01T01:06:31.000Z</time></trkpt><trkpt lat="14.713661" lon="101.156756"><ele>304</ele><time>1970-01-01T01:06:32.000Z</time></trkpt><trkpt lat="14.713696" lon="101.15676"><ele>304</ele><time>1970-01-01T01:06:33.000Z</time></trkpt><trkpt lat="14.713733" lon="101.156763"><ele>304.1</ele><time>1970-01-01T01:06:34.000Z</time></trkpt><trkpt lat="14.713768" lon="101.156766"><ele>304.3</ele><time>1970-01-01T01:06:35.000Z</time></trkpt><trkpt lat="14.713803" lon="101.15677"><ele>304.5</ele><time>1970-01-01T01:06:36.000Z</time></trkpt><trkpt lat="14.71384" lon="101.156775"><ele>304.8</ele><time>1970-01-01T01:06:37.000Z</time></trkpt><trkpt lat="14.713876" lon="101.15678"><ele>305</ele><time>1970-01-01T01:06:38.000Z</time></trkpt><trkpt lat="14.713911" lon="101.156785"><ele>305.3</ele><time>1970-01-01T01:06:39.000Z</time></trkpt><trkpt lat="14.713947" lon="101.156789"><ele>305.5</ele><time>1970-01-01T01:06:40.000Z</time></trkpt><trkpt lat="14.713982" lon="101.156795"><ele>305.7</ele><time>1970-01-01T01:06:41.000Z</time></trkpt><trkpt lat="14.714018" lon="101.156801"><ele>305.9</ele><time>1970-01-01T01:06:42.000Z</time></trkpt><trkpt lat="14.714053" lon="101.156807"><ele>306.1</ele><time>1970-01-01T01:06:43.000Z</time></trkpt><trkpt lat="14.714087" lon="101.156814"><ele>306.2</ele><time>1970-01-01T01:06:44.000Z</time></trkpt><trkpt lat="14.714122" lon="101.156819"><ele>306.4</ele><time>1970-01-01T01:06:45.000Z</time></trkpt><trkpt lat="14.714157" lon="101.156823"><ele>306.5</ele><time>1970-01-01T01:06:46.000Z</time></trkpt><trkpt lat="14.714192" lon="101.156826"><ele>306.9</ele><time>1970-01-01T01:06:47.000Z</time></trkpt><trkpt lat="14.714226" lon="101.156827"><ele>307.3</ele><time>1970-01-01T01:06:48.000Z</time></trkpt><trkpt lat="14.714257" lon="101.156828"><ele>307.6</ele><time>1970-01-01T01:06:49.000Z</time></trkpt><trkpt lat="14.714287" lon="101.156832"><ele>307.8</ele><time>1970-01-01T01:06:50.000Z</time></trkpt><trkpt lat="14.714317" lon="101.156836"><ele>308.1</ele><time>1970-01-01T01:06:51.000Z</time></trkpt><trkpt lat="14.714347" lon="101.156838"><ele>308.5</ele><time>1970-01-01T01:06:52.000Z</time></trkpt><trkpt lat="14.714378" lon="101.156837"><ele>308.8</ele><time>1970-01-01T01:06:53.000Z</time></trkpt><trkpt lat="14.714406" lon="101.156826"><ele>308.9</ele><time>1970-01-01T01:06:54.000Z</time></trkpt><trkpt lat="14.714434" lon="101.156807"><ele>308.9</ele><time>1970-01-01T01:06:55.000Z</time></trkpt><trkpt lat="14.714464" lon="101.156779"><ele>309</ele><time>1970-01-01T01:06:56.000Z</time></trkpt><trkpt lat="14.714495" lon="101.156722"><ele>309.1</ele><time>1970-01-01T01:06:57.000Z</time></trkpt><trkpt lat="14.714501" lon="101.156694"><ele>309.1</ele><time>1970-01-01T01:06:58.000Z</time></trkpt><trkpt lat="14.714523" lon="101.156667"><ele>309.2</ele><time>1970-01-01T01:06:59.000Z</time></trkpt><trkpt lat="14.714543" lon="101.156637"><ele>309.2</ele><time>1970-01-01T01:07:00.000Z</time></trkpt><trkpt lat="14.714563" lon="101.156604"><ele>309.3</ele><time>1970-01-01T01:07:01.000Z</time></trkpt><trkpt lat="14.714569" lon="101.156572"><ele>309.3</ele><time>1970-01-01T01:07:02.000Z</time></trkpt><trkpt lat="14.714593" lon="101.156548"><ele>309.4</ele><time>1970-01-01T01:07:03.000Z</time></trkpt><trkpt lat="14.714613" lon="101.156518"><ele>309.3</ele><time>1970-01-01T01:07:04.000Z</time></trkpt><trkpt lat="14.71463" lon="101.156486"><ele>309.3</ele><time>1970-01-01T01:07:05.000Z</time></trkpt><trkpt lat="14.714642" lon="101.156452"><ele>309.3</ele><time>1970-01-01T01:07:06.000Z</time></trkpt><trkpt lat="14.714666" lon="101.156409"><ele>309.2</ele><time>1970-01-01T01:07:07.000Z</time></trkpt><trkpt lat="14.714683" lon="101.156376"><ele>309.2</ele><time>1970-01-01T01:07:08.000Z</time></trkpt><trkpt lat="14.714697" lon="101.156342"><ele>309.1</ele><time>1970-01-01T01:07:09.000Z</time></trkpt><trkpt lat="14.714712" lon="101.156307"><ele>309.1</ele><time>1970-01-01T01:07:10.000Z</time></trkpt><trkpt lat="14.714729" lon="101.156271"><ele>309</ele><time>1970-01-01T01:07:11.000Z</time></trkpt><trkpt lat="14.714745" lon="101.156236"><ele>309</ele><time>1970-01-01T01:07:12.000Z</time></trkpt><trkpt lat="14.71476" lon="101.156204"><ele>309</ele><time>1970-01-01T01:07:13.000Z</time></trkpt><trkpt lat="14.714775" lon="101.156174"><ele>309.1</ele><time>1970-01-01T01:07:14.000Z</time></trkpt><trkpt lat="14.714793" lon="101.156142"><ele>309.1</ele><time>1970-01-01T01:07:15.000Z</time></trkpt><trkpt lat="14.71481" lon="101.156109"><ele>309.2</ele><time>1970-01-01T01:07:16.000Z</time></trkpt><trkpt lat="14.714827" lon="101.156079"><ele>309.2</ele><time>1970-01-01T01:07:17.000Z</time></trkpt><trkpt lat="14.714842" lon="101.156047"><ele>309.1</ele><time>1970-01-01T01:07:18.000Z</time></trkpt><trkpt lat="14.714858" lon="101.156014"><ele>309.1</ele><time>1970-01-01T01:07:19.000Z</time></trkpt><trkpt lat="14.714873" lon="101.155981"><ele>309</ele><time>1970-01-01T01:07:20.000Z</time></trkpt><trkpt lat="14.714889" lon="101.155946"><ele>308.8</ele><time>1970-01-01T01:07:21.000Z</time></trkpt><trkpt lat="14.714904" lon="101.155907"><ele>308.6</ele><time>1970-01-01T01:07:22.000Z</time></trkpt><trkpt lat="14.714917" lon="101.155872"><ele>308.5</ele><time>1970-01-01T01:07:23.000Z</time></trkpt><trkpt lat="14.71493" lon="101.155837"><ele>308.4</ele><time>1970-01-01T01:07:24.000Z</time></trkpt><trkpt lat="14.714941" lon="101.155802"><ele>308.4</ele><time>1970-01-01T01:07:25.000Z</time></trkpt><trkpt lat="14.714954" lon="101.155765"><ele>308.6</ele><time>1970-01-01T01:07:26.000Z</time></trkpt><trkpt lat="14.714969" lon="101.155728"><ele>308.8</ele><time>1970-01-01T01:07:27.000Z</time></trkpt><trkpt lat="14.714985" lon="101.155691"><ele>309</ele><time>1970-01-01T01:07:28.000Z</time></trkpt><trkpt lat="14.715005" lon="101.155653"><ele>309.2</ele><time>1970-01-01T01:07:29.000Z</time></trkpt><trkpt lat="14.715026" lon="101.155613"><ele>309.3</ele><time>1970-01-01T01:07:30.000Z</time></trkpt><trkpt lat="14.715046" lon="101.155577"><ele>309.4</ele><time>1970-01-01T01:07:31.000Z</time></trkpt><trkpt lat="14.715065" lon="101.155541"><ele>309.5</ele><time>1970-01-01T01:07:32.000Z</time></trkpt><trkpt lat="14.715083" lon="101.155505"><ele>309.6</ele><time>1970-01-01T01:07:33.000Z</time></trkpt><trkpt lat="14.715101" lon="101.155469"><ele>309.7</ele><time>1970-01-01T01:07:34.000Z</time></trkpt><trkpt lat="14.715119" lon="101.155432"><ele>309.8</ele><time>1970-01-01T01:07:35.000Z</time></trkpt><trkpt lat="14.715137" lon="101.155397"><ele>309.9</ele><time>1970-01-01T01:07:36.000Z</time></trkpt><trkpt lat="14.715154" lon="101.155364"><ele>309.9</ele><time>1970-01-01T01:07:37.000Z</time></trkpt><trkpt lat="14.715171" lon="101.155328"><ele>309.9</ele><time>1970-01-01T01:07:38.000Z</time></trkpt><trkpt lat="14.715189" lon="101.155289"><ele>309.9</ele><time>1970-01-01T01:07:39.000Z</time></trkpt><trkpt lat="14.715208" lon="101.155253"><ele>309.9</ele><time>1970-01-01T01:07:40.000Z</time></trkpt><trkpt lat="14.715229" lon="101.155218"><ele>310.1</ele><time>1970-01-01T01:07:41.000Z</time></trkpt><trkpt lat="14.715252" lon="101.155182"><ele>310.3</ele><time>1970-01-01T01:07:42.000Z</time></trkpt><trkpt lat="14.715274" lon="101.155148"><ele>310.5</ele><time>1970-01-01T01:07:43.000Z</time></trkpt><trkpt lat="14.715298" lon="101.155114"><ele>310.8</ele><time>1970-01-01T01:07:44.000Z</time></trkpt><trkpt lat="14.71532" lon="101.15508"><ele>311.2</ele><time>1970-01-01T01:07:45.000Z</time></trkpt><trkpt lat="14.715339" lon="101.155046"><ele>311.6</ele><time>1970-01-01T01:07:46.000Z</time></trkpt><trkpt lat="14.715357" lon="101.155008"><ele>312.2</ele><time>1970-01-01T01:07:47.000Z</time></trkpt><trkpt lat="14.715375" lon="101.154968"><ele>312.9</ele><time>1970-01-01T01:07:48.000Z</time></trkpt><trkpt lat="14.715394" lon="101.154928"><ele>313.4</ele><time>1970-01-01T01:07:49.000Z</time></trkpt><trkpt lat="14.715412" lon="101.154886"><ele>313.9</ele><time>1970-01-01T01:07:50.000Z</time></trkpt><trkpt lat="14.71543" lon="101.154844"><ele>314.2</ele><time>1970-01-01T01:07:51.000Z</time></trkpt><trkpt lat="14.715447" lon="101.154802"><ele>314.2</ele><time>1970-01-01T01:07:52.000Z</time></trkpt><trkpt lat="14.715465" lon="101.154759"><ele>314.4</ele><time>1970-01-01T01:07:53.000Z</time></trkpt><trkpt lat="14.715476" lon="101.154713"><ele>314.7</ele><time>1970-01-01T01:07:54.000Z</time></trkpt><trkpt lat="14.715491" lon="101.154664"><ele>314.8</ele><time>1970-01-01T01:07:55.000Z</time></trkpt><trkpt lat="14.715507" lon="101.154627"><ele>314.8</ele><time>1970-01-01T01:07:56.000Z</time></trkpt><trkpt lat="14.715527" lon="101.154588"><ele>314.7</ele><time>1970-01-01T01:07:57.000Z</time></trkpt><trkpt lat="14.715534" lon="101.154541"><ele>314.5</ele><time>1970-01-01T01:07:58.000Z</time></trkpt><trkpt lat="14.715541" lon="101.154499"><ele>314.2</ele><time>1970-01-01T01:07:59.000Z</time></trkpt><trkpt lat="14.715548" lon="101.154447"><ele>313.9</ele><time>1970-01-01T01:08:00.000Z</time></trkpt><trkpt lat="14.715554" lon="101.154397"><ele>313.8</ele><time>1970-01-01T01:08:01.000Z</time></trkpt><trkpt lat="14.715556" lon="101.154349"><ele>313.5</ele><time>1970-01-01T01:08:02.000Z</time></trkpt><trkpt lat="14.715547" lon="101.154299"><ele>313.2</ele><time>1970-01-01T01:08:03.000Z</time></trkpt><trkpt lat="14.71555" lon="101.154246"><ele>313.1</ele><time>1970-01-01T01:08:04.000Z</time></trkpt><trkpt lat="14.715556" lon="101.154193"><ele>313</ele><time>1970-01-01T01:08:05.000Z</time></trkpt><trkpt lat="14.715561" lon="101.154144"><ele>312.9</ele><time>1970-01-01T01:08:06.000Z</time></trkpt><trkpt lat="14.715565" lon="101.154097"><ele>312.9</ele><time>1970-01-01T01:08:07.000Z</time></trkpt><trkpt lat="14.715571" lon="101.154034"><ele>312.8</ele><time>1970-01-01T01:08:08.000Z</time></trkpt><trkpt lat="14.715573" lon="101.153987"><ele>312.8</ele><time>1970-01-01T01:08:09.000Z</time></trkpt><trkpt lat="14.715581" lon="101.153944"><ele>312.8</ele><time>1970-01-01T01:08:10.000Z</time></trkpt><trkpt lat="14.715595" lon="101.1539"><ele>312.8</ele><time>1970-01-01T01:08:11.000Z</time></trkpt><trkpt lat="14.715617" lon="101.153845"><ele>312.8</ele><time>1970-01-01T01:08:12.000Z</time></trkpt><trkpt lat="14.715633" lon="101.153798"><ele>312.9</ele><time>1970-01-01T01:08:13.000Z</time></trkpt><trkpt lat="14.715657" lon="101.153766"><ele>313</ele><time>1970-01-01T01:08:14.000Z</time></trkpt><trkpt lat="14.715676" lon="101.153746"><ele>313</ele><time>1970-01-01T01:08:15.000Z</time></trkpt><trkpt lat="14.715703" lon="101.15372"><ele>313</ele><time>1970-01-01T01:08:17.000Z</time></trkpt><trkpt lat="14.715738" lon="101.153708"><ele>313</ele><time>1970-01-01T01:08:20.000Z</time></trkpt><trkpt lat="14.71576" lon="101.153676"><ele>313</ele><time>1970-01-01T01:08:22.000Z</time></trkpt><trkpt lat="14.715776" lon="101.153652"><ele>312.9</ele><time>1970-01-01T01:08:23.000Z</time></trkpt><trkpt lat="14.715791" lon="101.153627"><ele>312.9</ele><time>1970-01-01T01:08:24.000Z</time></trkpt><trkpt lat="14.715809" lon="101.153599"><ele>313</ele><time>1970-01-01T01:08:25.000Z</time></trkpt><trkpt lat="14.715829" lon="101.15357"><ele>313.1</ele><time>1970-01-01T01:08:26.000Z</time></trkpt><trkpt lat="14.715851" lon="101.15354"><ele>313.3</ele><time>1970-01-01T01:08:27.000Z</time></trkpt><trkpt lat="14.715872" lon="101.153511"><ele>313.4</ele><time>1970-01-01T01:08:28.000Z</time></trkpt><trkpt lat="14.715896" lon="101.15348"><ele>313.6</ele><time>1970-01-01T01:08:29.000Z</time></trkpt><trkpt lat="14.715922" lon="101.153449"><ele>313.9</ele><time>1970-01-01T01:08:30.000Z</time></trkpt><trkpt lat="14.715951" lon="101.153415"><ele>314.3</ele><time>1970-01-01T01:08:31.000Z</time></trkpt><trkpt lat="14.715977" lon="101.153384"><ele>314.7</ele><time>1970-01-01T01:08:32.000Z</time></trkpt><trkpt lat="14.715997" lon="101.153357"><ele>315</ele><time>1970-01-01T01:08:33.000Z</time></trkpt><trkpt lat="14.716013" lon="101.153328"><ele>315.3</ele><time>1970-01-01T01:08:34.000Z</time></trkpt><trkpt lat="14.716028" lon="101.153297"><ele>315.6</ele><time>1970-01-01T01:08:35.000Z</time></trkpt><trkpt lat="14.716043" lon="101.153263"><ele>316</ele><time>1970-01-01T01:08:36.000Z</time></trkpt><trkpt lat="14.716061" lon="101.153227"><ele>316.5</ele><time>1970-01-01T01:08:37.000Z</time></trkpt><trkpt lat="14.716079" lon="101.153191"><ele>317.1</ele><time>1970-01-01T01:08:38.000Z</time></trkpt><trkpt lat="14.716096" lon="101.153159"><ele>317.6</ele><time>1970-01-01T01:08:39.000Z</time></trkpt><trkpt lat="14.716116" lon="101.153124"><ele>318.1</ele><time>1970-01-01T01:08:40.000Z</time></trkpt><trkpt lat="14.716137" lon="101.153092"><ele>318.6</ele><time>1970-01-01T01:08:41.000Z</time></trkpt><trkpt lat="14.71616" lon="101.153061"><ele>319.2</ele><time>1970-01-01T01:08:42.000Z</time></trkpt><trkpt lat="14.716184" lon="101.153029"><ele>319.8</ele><time>1970-01-01T01:08:43.000Z</time></trkpt><trkpt lat="14.716207" lon="101.152996"><ele>320.3</ele><time>1970-01-01T01:08:44.000Z</time></trkpt><trkpt lat="14.716229" lon="101.152963"><ele>320.6</ele><time>1970-01-01T01:08:45.000Z</time></trkpt><trkpt lat="14.716251" lon="101.152935"><ele>320.8</ele><time>1970-01-01T01:08:46.000Z</time></trkpt><trkpt lat="14.716275" lon="101.152906"><ele>321.1</ele><time>1970-01-01T01:08:47.000Z</time></trkpt><trkpt lat="14.7163" lon="101.152876"><ele>321.4</ele><time>1970-01-01T01:08:48.000Z</time></trkpt><trkpt lat="14.71632" lon="101.152845"><ele>321.6</ele><time>1970-01-01T01:08:49.000Z</time></trkpt><trkpt lat="14.716332" lon="101.152817"><ele>321.7</ele><time>1970-01-01T01:08:50.000Z</time></trkpt><trkpt lat="14.716347" lon="101.152762"><ele>322</ele><time>1970-01-01T01:08:52.000Z</time></trkpt><trkpt lat="14.716359" lon="101.15273"><ele>322.2</ele><time>1970-01-01T01:08:53.000Z</time></trkpt><trkpt lat="14.716373" lon="101.152703"><ele>322.4</ele><time>1970-01-01T01:08:54.000Z</time></trkpt><trkpt lat="14.71639" lon="101.152675"><ele>322.5</ele><time>1970-01-01T01:08:55.000Z</time></trkpt><trkpt lat="14.716408" lon="101.152647"><ele>322.7</ele><time>1970-01-01T01:08:56.000Z</time></trkpt><trkpt lat="14.716425" lon="101.152618"><ele>322.9</ele><time>1970-01-01T01:08:57.000Z</time></trkpt><trkpt lat="14.71644" lon="101.15259"><ele>323</ele><time>1970-01-01T01:08:58.000Z</time></trkpt><trkpt lat="14.716459" lon="101.15256"><ele>323.2</ele><time>1970-01-01T01:08:59.000Z</time></trkpt><trkpt lat="14.716478" lon="101.152531"><ele>323.4</ele><time>1970-01-01T01:09:00.000Z</time></trkpt><trkpt lat="14.716497" lon="101.152502"><ele>323.5</ele><time>1970-01-01T01:09:01.000Z</time></trkpt><trkpt lat="14.716519" lon="101.152475"><ele>323.6</ele><time>1970-01-01T01:09:02.000Z</time></trkpt><trkpt lat="14.71654" lon="101.152452"><ele>323.5</ele><time>1970-01-01T01:09:03.000Z</time></trkpt><trkpt lat="14.716562" lon="101.152429"><ele>321.1</ele><time>1970-01-01T01:09:04.000Z</time></trkpt><trkpt lat="14.716583" lon="101.152409"><ele>321</ele><time>1970-01-01T01:09:05.000Z</time></trkpt><trkpt lat="14.716623" lon="101.152378"><ele>320.6</ele><time>1970-01-01T01:09:07.000Z</time></trkpt><trkpt lat="14.716674" lon="101.152372"><ele>320.3</ele><time>1970-01-01T01:09:09.000Z</time></trkpt><trkpt lat="14.716701" lon="101.152381"><ele>320.1</ele><time>1970-01-01T01:09:10.000Z</time></trkpt><trkpt lat="14.716726" lon="101.152392"><ele>320</ele><time>1970-01-01T01:09:11.000Z</time></trkpt><trkpt lat="14.716752" lon="101.152405"><ele>319.9</ele><time>1970-01-01T01:09:12.000Z</time></trkpt><trkpt lat="14.71678" lon="101.152418"><ele>319.8</ele><time>1970-01-01T01:09:13.000Z</time></trkpt><trkpt lat="14.716809" lon="101.152431"><ele>319.7</ele><time>1970-01-01T01:09:14.000Z</time></trkpt><trkpt lat="14.716838" lon="101.152444"><ele>319.6</ele><time>1970-01-01T01:09:15.000Z</time></trkpt><trkpt lat="14.716863" lon="101.152457"><ele>319.6</ele><time>1970-01-01T01:09:16.000Z</time></trkpt><trkpt lat="14.716888" lon="101.15247"><ele>319.7</ele><time>1970-01-01T01:09:17.000Z</time></trkpt><trkpt lat="14.716914" lon="101.152483"><ele>319.7</ele><time>1970-01-01T01:09:18.000Z</time></trkpt><trkpt lat="14.716941" lon="101.152497"><ele>319.9</ele><time>1970-01-01T01:09:19.000Z</time></trkpt><trkpt lat="14.716966" lon="101.152509"><ele>320</ele><time>1970-01-01T01:09:20.000Z</time></trkpt><trkpt lat="14.716991" lon="101.152521"><ele>320.2</ele><time>1970-01-01T01:09:21.000Z</time></trkpt><trkpt lat="14.717018" lon="101.152533"><ele>320.4</ele><time>1970-01-01T01:09:22.000Z</time></trkpt><trkpt lat="14.717047" lon="101.152541"><ele>320.6</ele><time>1970-01-01T01:09:23.000Z</time></trkpt><trkpt lat="14.717076" lon="101.15254"><ele>320.7</ele><time>1970-01-01T01:09:24.000Z</time></trkpt><trkpt lat="14.717101" lon="101.152532"><ele>320.8</ele><time>1970-01-01T01:09:25.000Z</time></trkpt><trkpt lat="14.717127" lon="101.152515"><ele>320.9</ele><time>1970-01-01T01:09:26.000Z</time></trkpt><trkpt lat="14.717153" lon="101.152493"><ele>321.1</ele><time>1970-01-01T01:09:27.000Z</time></trkpt><trkpt lat="14.717176" lon="101.152471"><ele>321.3</ele><time>1970-01-01T01:09:28.000Z</time></trkpt><trkpt lat="14.717202" lon="101.152449"><ele>321.6</ele><time>1970-01-01T01:09:29.000Z</time></trkpt><trkpt lat="14.71723" lon="101.152426"><ele>322.1</ele><time>1970-01-01T01:09:30.000Z</time></trkpt><trkpt lat="14.717259" lon="101.152405"><ele>322.6</ele><time>1970-01-01T01:09:31.000Z</time></trkpt><trkpt lat="14.717292" lon="101.152385"><ele>323.1</ele><time>1970-01-01T01:09:32.000Z</time></trkpt><trkpt lat="14.717325" lon="101.152367"><ele>323.5</ele><time>1970-01-01T01:09:33.000Z</time></trkpt><trkpt lat="14.717358" lon="101.152351"><ele>323.9</ele><time>1970-01-01T01:09:34.000Z</time></trkpt><trkpt lat="14.717393" lon="101.152333"><ele>324.4</ele><time>1970-01-01T01:09:35.000Z</time></trkpt><trkpt lat="14.717425" lon="101.152319"><ele>324.9</ele><time>1970-01-01T01:09:36.000Z</time></trkpt><trkpt lat="14.717458" lon="101.152304"><ele>325.4</ele><time>1970-01-01T01:09:37.000Z</time></trkpt><trkpt lat="14.717493" lon="101.152288"><ele>326.1</ele><time>1970-01-01T01:09:38.000Z</time></trkpt><trkpt lat="14.717524" lon="101.152271"><ele>326.7</ele><time>1970-01-01T01:09:39.000Z</time></trkpt><trkpt lat="14.717554" lon="101.152255"><ele>327.1</ele><time>1970-01-01T01:09:40.000Z</time></trkpt><trkpt lat="14.717582" lon="101.152244"><ele>327.5</ele><time>1970-01-01T01:09:41.000Z</time></trkpt><trkpt lat="14.717619" lon="101.152248"><ele>328.2</ele><time>1970-01-01T01:09:43.000Z</time></trkpt><trkpt lat="14.717645" lon="101.15227"><ele>328.9</ele><time>1970-01-01T01:09:45.000Z</time></trkpt><trkpt lat="14.717678" lon="101.152302"><ele>328.9</ele><time>1970-01-01T01:09:47.000Z</time></trkpt><trkpt lat="14.717712" lon="101.152332"><ele>329</ele><time>1970-01-01T01:09:49.000Z</time></trkpt><trkpt lat="14.71775" lon="101.152359"><ele>329.2</ele><time>1970-01-01T01:09:51.000Z</time></trkpt><trkpt lat="14.717788" lon="101.152384"><ele>329.3</ele><time>1970-01-01T01:09:53.000Z</time></trkpt><trkpt lat="14.717824" lon="101.152412"><ele>329.5</ele><time>1970-01-01T01:09:55.000Z</time></trkpt><trkpt lat="14.717863" lon="101.15244"><ele>329.9</ele><time>1970-01-01T01:09:57.000Z</time></trkpt><trkpt lat="14.717904" lon="101.152468"><ele>330.4</ele><time>1970-01-01T01:09:59.000Z</time></trkpt><trkpt lat="14.717944" lon="101.152494"><ele>331.1</ele><time>1970-01-01T01:10:01.000Z</time></trkpt><trkpt lat="14.717972" lon="101.152508"><ele>331.5</ele><time>1970-01-01T01:10:03.000Z</time></trkpt><trkpt lat="14.71801" lon="101.152519"><ele>332.3</ele><time>1970-01-01T01:10:05.000Z</time></trkpt><trkpt lat="14.718053" lon="101.152537"><ele>333.3</ele><time>1970-01-01T01:10:07.000Z</time></trkpt><trkpt lat="14.718092" lon="101.152549"><ele>334</ele><time>1970-01-01T01:10:09.000Z</time></trkpt><trkpt lat="14.71813" lon="101.152544"><ele>334.6</ele><time>1970-01-01T01:10:11.000Z</time></trkpt><trkpt lat="14.718172" lon="101.152529"><ele>334.6</ele><time>1970-01-01T01:10:13.000Z</time></trkpt><trkpt lat="14.718208" lon="101.152511"><ele>335</ele><time>1970-01-01T01:10:15.000Z</time></trkpt><trkpt lat="14.718243" lon="101.152494"><ele>335.8</ele><time>1970-01-01T01:10:17.000Z</time></trkpt><trkpt lat="14.718274" lon="101.152507"><ele>336.4</ele><time>1970-01-01T01:10:19.000Z</time></trkpt><trkpt lat="14.718308" lon="101.15253"><ele>337.3</ele><time>1970-01-01T01:10:21.000Z</time></trkpt><trkpt lat="14.718335" lon="101.152543"><ele>337.3</ele><time>1970-01-01T01:10:23.000Z</time></trkpt><trkpt lat="14.718358" lon="101.152562"><ele>337</ele><time>1970-01-01T01:10:27.000Z</time></trkpt><trkpt lat="14.718383" lon="101.152575"><ele>337.1</ele><time>1970-01-01T01:10:33.000Z</time></trkpt><trkpt lat="14.718414" lon="101.152565"><ele>337.3</ele><time>1970-01-01T01:10:36.000Z</time></trkpt><trkpt lat="14.718444" lon="101.152559"><ele>337.6</ele><time>1970-01-01T01:10:39.000Z</time></trkpt><trkpt lat="14.718472" lon="101.152559"><ele>337.9</ele><time>1970-01-01T01:10:41.000Z</time></trkpt><trkpt lat="14.718504" lon="101.152569"><ele>338.3</ele><time>1970-01-01T01:10:44.000Z</time></trkpt><trkpt lat="14.718536" lon="101.152575"><ele>338.5</ele><time>1970-01-01T01:10:46.000Z</time></trkpt><trkpt lat="14.718565" lon="101.152574"><ele>338.8</ele><time>1970-01-01T01:10:48.000Z</time></trkpt><trkpt lat="14.718592" lon="101.152571"><ele>338.8</ele><time>1970-01-01T01:10:51.000Z</time></trkpt><trkpt lat="14.718621" lon="101.152565"><ele>338.9</ele><time>1970-01-01T01:10:54.000Z</time></trkpt><trkpt lat="14.718649" lon="101.152559"><ele>338.9</ele><time>1970-01-01T01:10:57.000Z</time></trkpt><trkpt lat="14.718687" lon="101.152554"><ele>338.8</ele><time>1970-01-01T01:11:00.000Z</time></trkpt><trkpt lat="14.718721" lon="101.152552"><ele>338.6</ele><time>1970-01-01T01:11:03.000Z</time></trkpt><trkpt lat="14.718755" lon="101.152555"><ele>338.3</ele><time>1970-01-01T01:11:06.000Z</time></trkpt><trkpt lat="14.718782" lon="101.152559"><ele>338</ele><time>1970-01-01T01:11:08.000Z</time></trkpt><trkpt lat="14.718817" lon="101.152564"><ele>337.7</ele><time>1970-01-01T01:11:11.000Z</time></trkpt><trkpt lat="14.718856" lon="101.152567"><ele>337.3</ele><time>1970-01-01T01:11:14.000Z</time></trkpt><trkpt lat="14.718888" lon="101.152574"><ele>337.6</ele><time>1970-01-01T01:11:17.000Z</time></trkpt><trkpt lat="14.718915" lon="101.15258"><ele>337.9</ele><time>1970-01-01T01:11:20.000Z</time></trkpt><trkpt lat="14.718965" lon="101.152601"><ele>338.1</ele><time>1970-01-01T01:11:58.000Z</time></trkpt><trkpt lat="14.719001" lon="101.152624"><ele>338.7</ele><time>1970-01-01T01:12:00.000Z</time></trkpt><trkpt lat="14.719041" lon="101.152642"><ele>339.2</ele><time>1970-01-01T01:12:02.000Z</time></trkpt><trkpt lat="14.71907" lon="101.152654"><ele>339.3</ele><time>1970-01-01T01:12:03.000Z</time></trkpt><trkpt lat="14.719099" lon="101.152665"><ele>339.3</ele><time>1970-01-01T01:12:04.000Z</time></trkpt><trkpt lat="14.719127" lon="101.152674"><ele>339.1</ele><time>1970-01-01T01:12:05.000Z</time></trkpt><trkpt lat="14.719154" lon="101.152683"><ele>338.9</ele><time>1970-01-01T01:12:06.000Z</time></trkpt><trkpt lat="14.719179" lon="101.152691"><ele>339</ele><time>1970-01-01T01:12:07.000Z</time></trkpt><trkpt lat="14.71921" lon="101.152701"><ele>339.4</ele><time>1970-01-01T01:12:08.000Z</time></trkpt><trkpt lat="14.719242" lon="101.152711"><ele>339.7</ele><time>1970-01-01T01:12:09.000Z</time></trkpt><trkpt lat="14.719269" lon="101.152717"><ele>339.9</ele><time>1970-01-01T01:12:10.000Z</time></trkpt><trkpt lat="14.719311" lon="101.152732"><ele>340.2</ele><time>1970-01-01T01:12:12.000Z</time></trkpt><trkpt lat="14.719348" lon="101.152753"><ele>340.2</ele><time>1970-01-01T01:12:14.000Z</time></trkpt><trkpt lat="14.719384" lon="101.152754"><ele>340.1</ele><time>1970-01-01T01:12:17.000Z</time></trkpt><trkpt lat="14.719416" lon="101.152741"><ele>340.2</ele><time>1970-01-01T01:12:19.000Z</time></trkpt><trkpt lat="14.71946" lon="101.15274"><ele>340.3</ele><time>1970-01-01T01:12:21.000Z</time></trkpt><trkpt lat="14.719503" lon="101.152734"><ele>340.3</ele><time>1970-01-01T01:12:23.000Z</time></trkpt><trkpt lat="14.719553" lon="101.15272"><ele>340.4</ele><time>1970-01-01T01:12:25.000Z</time></trkpt><trkpt lat="14.71958" lon="101.152714"><ele>340.4</ele><time>1970-01-01T01:12:26.000Z</time></trkpt><trkpt lat="14.719628" lon="101.152708"><ele>340.4</ele><time>1970-01-01T01:12:28.000Z</time></trkpt><trkpt lat="14.719665" lon="101.152705"><ele>340.2</ele><time>1970-01-01T01:12:30.000Z</time></trkpt><trkpt lat="14.719716" lon="101.152706"><ele>340.1</ele><time>1970-01-01T01:12:32.000Z</time></trkpt><trkpt lat="14.719745" lon="101.152705"><ele>340.2</ele><time>1970-01-01T01:12:33.000Z</time></trkpt><trkpt lat="14.719773" lon="101.152704"><ele>340.2</ele><time>1970-01-01T01:12:34.000Z</time></trkpt><trkpt lat="14.719802" lon="101.152704"><ele>340.3</ele><time>1970-01-01T01:12:35.000Z</time></trkpt><trkpt lat="14.719846" lon="101.152712"><ele>340.5</ele><time>1970-01-01T01:12:37.000Z</time></trkpt><trkpt lat="14.719894" lon="101.15273"><ele>340.9</ele><time>1970-01-01T01:12:39.000Z</time></trkpt><trkpt lat="14.719941" lon="101.152745"><ele>341.3</ele><time>1970-01-01T01:12:41.000Z</time></trkpt><trkpt lat="14.719978" lon="101.152751"><ele>341.5</ele><time>1970-01-01T01:12:43.000Z</time></trkpt><trkpt lat="14.720019" lon="101.152757"><ele>341.7</ele><time>1970-01-01T01:12:45.000Z</time></trkpt><trkpt lat="14.720063" lon="101.152764"><ele>341.8</ele><time>1970-01-01T01:12:47.000Z</time></trkpt><trkpt lat="14.720109" lon="101.152778"><ele>341.8</ele><time>1970-01-01T01:12:49.000Z</time></trkpt><trkpt lat="14.720144" lon="101.1528"><ele>341.7</ele><time>1970-01-01T01:12:51.000Z</time></trkpt><trkpt lat="14.72018" lon="101.152836"><ele>341.7</ele><time>1970-01-01T01:12:53.000Z</time></trkpt><trkpt lat="14.720208" lon="101.152871"><ele>341.7</ele><time>1970-01-01T01:12:55.000Z</time></trkpt><trkpt lat="14.720235" lon="101.152891"><ele>341.7</ele><time>1970-01-01T01:12:57.000Z</time></trkpt><trkpt lat="14.720257" lon="101.152912"><ele>341.8</ele><time>1970-01-01T01:12:59.000Z</time></trkpt><trkpt lat="14.720289" lon="101.152936"><ele>341.8</ele><time>1970-01-01T01:13:01.000Z</time></trkpt><trkpt lat="14.720324" lon="101.152962"><ele>341.8</ele><time>1970-01-01T01:13:03.000Z</time></trkpt><trkpt lat="14.720364" lon="101.152994"><ele>341.7</ele><time>1970-01-01T01:13:05.000Z</time></trkpt><trkpt lat="14.720399" lon="101.153026"><ele>341.5</ele><time>1970-01-01T01:13:07.000Z</time></trkpt><trkpt lat="14.720433" lon="101.153057"><ele>341.2</ele><time>1970-01-01T01:13:09.000Z</time></trkpt><trkpt lat="14.720475" lon="101.153083"><ele>340.9</ele><time>1970-01-01T01:13:11.000Z</time></trkpt><trkpt lat="14.720511" lon="101.153109"><ele>340.8</ele><time>1970-01-01T01:13:13.000Z</time></trkpt><trkpt lat="14.720541" lon="101.153146"><ele>340.9</ele><time>1970-01-01T01:13:15.000Z</time></trkpt><trkpt lat="14.720555" lon="101.153195"><ele>341.7</ele><time>1970-01-01T01:13:17.000Z</time></trkpt><trkpt lat="14.720552" lon="101.153238"><ele>341.7</ele><time>1970-01-01T01:13:19.000Z</time></trkpt><trkpt lat="14.720542" lon="101.153285"><ele>341.7</ele><time>1970-01-01T01:13:21.000Z</time></trkpt><trkpt lat="14.720519" lon="101.153331"><ele>341.8</ele><time>1970-01-01T01:13:23.000Z</time></trkpt><trkpt lat="14.720501" lon="101.153379"><ele>342.1</ele><time>1970-01-01T01:13:25.000Z</time></trkpt><trkpt lat="14.720494" lon="101.153423"><ele>342.3</ele><time>1970-01-01T01:13:27.000Z</time></trkpt><trkpt lat="14.720488" lon="101.153461"><ele>342.5</ele><time>1970-01-01T01:13:29.000Z</time></trkpt><trkpt lat="14.720489" lon="101.153504"><ele>342.6</ele><time>1970-01-01T01:13:31.000Z</time></trkpt><trkpt lat="14.720484" lon="101.153552"><ele>342.7</ele><time>1970-01-01T01:13:33.000Z</time></trkpt><trkpt lat="14.720474" lon="101.153603"><ele>342.8</ele><time>1970-01-01T01:13:35.000Z</time></trkpt><trkpt lat="14.72046" lon="101.153649"><ele>342.8</ele><time>1970-01-01T01:13:37.000Z</time></trkpt><trkpt lat="14.720433" lon="101.153694"><ele>342.9</ele><time>1970-01-01T01:13:39.000Z</time></trkpt><trkpt lat="14.720417" lon="101.153721"><ele>342.9</ele><time>1970-01-01T01:13:40.000Z</time></trkpt><trkpt lat="14.720405" lon="101.153749"><ele>342.9</ele><time>1970-01-01T01:13:41.000Z</time></trkpt><trkpt lat="14.720397" lon="101.15378"><ele>342.9</ele><time>1970-01-01T01:13:42.000Z</time></trkpt><trkpt lat="14.720389" lon="101.153816"><ele>342.9</ele><time>1970-01-01T01:13:43.000Z</time></trkpt><trkpt lat="14.720382" lon="101.153853"><ele>342.2</ele><time>1970-01-01T01:13:44.000Z</time></trkpt><trkpt lat="14.720374" lon="101.15389"><ele>342.1</ele><time>1970-01-01T01:13:45.000Z</time></trkpt><trkpt lat="14.720365" lon="101.153928"><ele>341.9</ele><time>1970-01-01T01:13:46.000Z</time></trkpt><trkpt lat="14.720358" lon="101.153965"><ele>341.8</ele><time>1970-01-01T01:13:47.000Z</time></trkpt><trkpt lat="14.72035" lon="101.154003"><ele>341.6</ele><time>1970-01-01T01:13:48.000Z</time></trkpt><trkpt lat="14.720341" lon="101.154039"><ele>341.4</ele><time>1970-01-01T01:13:49.000Z</time></trkpt><trkpt lat="14.720332" lon="101.154071"><ele>341.3</ele><time>1970-01-01T01:13:50.000Z</time></trkpt><trkpt lat="14.720324" lon="101.154104"><ele>341.1</ele><time>1970-01-01T01:13:51.000Z</time></trkpt><trkpt lat="14.720319" lon="101.15414"><ele>340.9</ele><time>1970-01-01T01:13:52.000Z</time></trkpt><trkpt lat="14.720313" lon="101.154176"><ele>340.7</ele><time>1970-01-01T01:13:53.000Z</time></trkpt><trkpt lat="14.720305" lon="101.154205"><ele>340.6</ele><time>1970-01-01T01:13:54.000Z</time></trkpt><trkpt lat="14.720293" lon="101.15423"><ele>340.4</ele><time>1970-01-01T01:13:55.000Z</time></trkpt><trkpt lat="14.720282" lon="101.15427"><ele>340.2</ele><time>1970-01-01T01:13:57.000Z</time></trkpt><trkpt lat="14.720315" lon="101.154267"><ele>340</ele><time>1970-01-01T01:13:59.000Z</time></trkpt><trkpt lat="14.720325" lon="101.154219"><ele>339.8</ele><time>1970-01-01T01:14:01.000Z</time></trkpt><trkpt lat="14.720323" lon="101.154169"><ele>339.6</ele><time>1970-01-01T01:14:03.000Z</time></trkpt><trkpt lat="14.720336" lon="101.154121"><ele>339.4</ele><time>1970-01-01T01:14:05.000Z</time></trkpt><trkpt lat="14.720366" lon="101.154095"><ele>339.2</ele><time>1970-01-01T01:14:07.000Z</time></trkpt><trkpt lat="14.720405" lon="101.154092"><ele>339</ele><time>1970-01-01T01:14:09.000Z</time></trkpt><trkpt lat="14.720433" lon="101.154091"><ele>338.8</ele><time>1970-01-01T01:14:10.000Z</time></trkpt><trkpt lat="14.720456" lon="101.154106"><ele>338.6</ele><time>1970-01-01T01:14:11.000Z</time></trkpt><trkpt lat="14.720466" lon="101.154133"><ele>338.4</ele><time>1970-01-01T01:14:12.000Z</time></trkpt><trkpt lat="14.720463" lon="101.154166"><ele>338.2</ele><time>1970-01-01T01:14:13.000Z</time></trkpt><trkpt lat="14.720454" lon="101.154202"><ele>337.9</ele><time>1970-01-01T01:14:14.000Z</time></trkpt><trkpt lat="14.720442" lon="101.154242"><ele>337.7</ele><time>1970-01-01T01:14:15.000Z</time></trkpt><trkpt lat="14.720431" lon="101.154285"><ele>337.7</ele><time>1970-01-01T01:14:16.000Z</time></trkpt><trkpt lat="14.720417" lon="101.15433"><ele>337.7</ele><time>1970-01-01T01:14:17.000Z</time></trkpt><trkpt lat="14.720403" lon="101.154374"><ele>337.7</ele><time>1970-01-01T01:14:18.000Z</time></trkpt><trkpt lat="14.720389" lon="101.15442"><ele>337.7</ele><time>1970-01-01T01:14:19.000Z</time></trkpt><trkpt lat="14.720374" lon="101.154476"><ele>337</ele><time>1970-01-01T01:14:20.000Z</time></trkpt><trkpt lat="14.720365" lon="101.154523"><ele>337</ele><time>1970-01-01T01:14:21.000Z</time></trkpt><trkpt lat="14.720354" lon="101.154569"><ele>337.1</ele><time>1970-01-01T01:14:22.000Z</time></trkpt><trkpt lat="14.720347" lon="101.154614"><ele>336.8</ele><time>1970-01-01T01:14:23.000Z</time></trkpt><trkpt lat="14.720335" lon="101.154662"><ele>336.7</ele><time>1970-01-01T01:14:24.000Z</time></trkpt><trkpt lat="14.720329" lon="101.154714"><ele>336.5</ele><time>1970-01-01T01:14:25.000Z</time></trkpt><trkpt lat="14.72033" lon="101.154761"><ele>336.2</ele><time>1970-01-01T01:14:26.000Z</time></trkpt><trkpt lat="14.720333" lon="101.154805"><ele>335.9</ele><time>1970-01-01T01:14:27.000Z</time></trkpt><trkpt lat="14.720334" lon="101.154844"><ele>335.8</ele><time>1970-01-01T01:14:28.000Z</time></trkpt><trkpt lat="14.720328" lon="101.15488"><ele>335.7</ele><time>1970-01-01T01:14:29.000Z</time></trkpt><trkpt lat="14.720354" lon="101.154926"><ele>335.8</ele><time>1970-01-01T01:14:31.000Z</time></trkpt><trkpt lat="14.720365" lon="101.155017"><ele>335.9</ele><time>1970-01-01T01:14:33.000Z</time></trkpt><trkpt lat="14.720375" lon="101.155055"><ele>335.9</ele><time>1970-01-01T01:14:34.000Z</time></trkpt><trkpt lat="14.720376" lon="101.155089"><ele>335.9</ele><time>1970-01-01T01:14:35.000Z</time></trkpt><trkpt lat="14.720378" lon="101.155126"><ele>335.9</ele><time>1970-01-01T01:14:36.000Z</time></trkpt><trkpt lat="14.720385" lon="101.155155"><ele>335.8</ele><time>1970-01-01T01:14:37.000Z</time></trkpt><trkpt lat="14.720392" lon="101.155186"><ele>336</ele><time>1970-01-01T01:14:38.000Z</time></trkpt><trkpt lat="14.720397" lon="101.155217"><ele>336</ele><time>1970-01-01T01:14:39.000Z</time></trkpt><trkpt lat="14.720403" lon="101.155246"><ele>336</ele><time>1970-01-01T01:14:40.000Z</time></trkpt><trkpt lat="14.720408" lon="101.155274"><ele>336</ele><time>1970-01-01T01:14:41.000Z</time></trkpt><trkpt lat="14.720415" lon="101.155303"><ele>336.1</ele><time>1970-01-01T01:14:42.000Z</time></trkpt><trkpt lat="14.720424" lon="101.155334"><ele>336.4</ele><time>1970-01-01T01:14:43.000Z</time></trkpt><trkpt lat="14.720433" lon="101.155367"><ele>336.9</ele><time>1970-01-01T01:14:44.000Z</time></trkpt><trkpt lat="14.720443" lon="101.155397"><ele>337.2</ele><time>1970-01-01T01:14:45.000Z</time></trkpt><trkpt lat="14.720453" lon="101.155424"><ele>337.5</ele><time>1970-01-01T01:14:46.000Z</time></trkpt><trkpt lat="14.720466" lon="101.15545"><ele>337.5</ele><time>1970-01-01T01:14:47.000Z</time></trkpt><trkpt lat="14.720484" lon="101.155475"><ele>338.3</ele><time>1970-01-01T01:14:48.000Z</time></trkpt><trkpt lat="14.720504" lon="101.1555"><ele>338.3</ele><time>1970-01-01T01:14:49.000Z</time></trkpt><trkpt lat="14.720526" lon="101.155524"><ele>338.7</ele><time>1970-01-01T01:14:50.000Z</time></trkpt><trkpt lat="14.720548" lon="101.155549"><ele>338.6</ele><time>1970-01-01T01:14:51.000Z</time></trkpt><trkpt lat="14.720569" lon="101.155574"><ele>338.8</ele><time>1970-01-01T01:14:52.000Z</time></trkpt><trkpt lat="14.720589" lon="101.155598"><ele>338.8</ele><time>1970-01-01T01:14:53.000Z</time></trkpt><trkpt lat="14.720608" lon="101.155621"><ele>339</ele><time>1970-01-01T01:14:54.000Z</time></trkpt><trkpt lat="14.72063" lon="101.155645"><ele>339.1</ele><time>1970-01-01T01:14:55.000Z</time></trkpt><trkpt lat="14.720652" lon="101.155667"><ele>339.3</ele><time>1970-01-01T01:14:56.000Z</time></trkpt><trkpt lat="14.720674" lon="101.155687"><ele>339.4</ele><time>1970-01-01T01:14:57.000Z</time></trkpt><trkpt lat="14.720697" lon="101.155705"><ele>339.5</ele><time>1970-01-01T01:14:58.000Z</time></trkpt><trkpt lat="14.720721" lon="101.155723"><ele>339.5</ele><time>1970-01-01T01:14:59.000Z</time></trkpt><trkpt lat="14.720743" lon="101.155742"><ele>339.5</ele><time>1970-01-01T01:15:00.000Z</time></trkpt><trkpt lat="14.720781" lon="101.155778"><ele>339.6</ele><time>1970-01-01T01:15:02.000Z</time></trkpt><trkpt lat="14.720819" lon="101.155815"><ele>340</ele><time>1970-01-01T01:15:04.000Z</time></trkpt><trkpt lat="14.720857" lon="101.155852"><ele>340.6</ele><time>1970-01-01T01:15:06.000Z</time></trkpt><trkpt lat="14.720888" lon="101.155896"><ele>340.8</ele><time>1970-01-01T01:15:08.000Z</time></trkpt><trkpt lat="14.720925" lon="101.155935"><ele>341.2</ele><time>1970-01-01T01:15:10.000Z</time></trkpt><trkpt lat="14.720948" lon="101.155952"><ele>341.2</ele><time>1970-01-01T01:15:11.000Z</time></trkpt><trkpt lat="14.72099" lon="101.155981"><ele>341.2</ele><time>1970-01-01T01:15:13.000Z</time></trkpt><trkpt lat="14.721026" lon="101.156009"><ele>341.3</ele><time>1970-01-01T01:15:15.000Z</time></trkpt><trkpt lat="14.721061" lon="101.156044"><ele>341.6</ele><time>1970-01-01T01:15:17.000Z</time></trkpt><trkpt lat="14.721096" lon="101.156074"><ele>341.7</ele><time>1970-01-01T01:15:19.000Z</time></trkpt><trkpt lat="14.721139" lon="101.156095"><ele>342.3</ele><time>1970-01-01T01:15:21.000Z</time></trkpt><trkpt lat="14.721165" lon="101.156109"><ele>342.6</ele><time>1970-01-01T01:15:22.000Z</time></trkpt><trkpt lat="14.721189" lon="101.156126"><ele>342.8</ele><time>1970-01-01T01:15:23.000Z</time></trkpt><trkpt lat="14.721223" lon="101.156152"><ele>343.3</ele><time>1970-01-01T01:15:25.000Z</time></trkpt><trkpt lat="14.721264" lon="101.156191"><ele>343.8</ele><time>1970-01-01T01:15:27.000Z</time></trkpt><trkpt lat="14.721285" lon="101.156212"><ele>343.8</ele><time>1970-01-01T01:15:28.000Z</time></trkpt><trkpt lat="14.721308" lon="101.156235"><ele>344.3</ele><time>1970-01-01T01:15:29.000Z</time></trkpt><trkpt lat="14.721332" lon="101.156259"><ele>344.3</ele><time>1970-01-01T01:15:30.000Z</time></trkpt><trkpt lat="14.721354" lon="101.156281"><ele>344.9</ele><time>1970-01-01T01:15:31.000Z</time></trkpt><trkpt lat="14.721376" lon="101.156303"><ele>344.8</ele><time>1970-01-01T01:15:32.000Z</time></trkpt><trkpt lat="14.721398" lon="101.156323"><ele>345.4</ele><time>1970-01-01T01:15:33.000Z</time></trkpt><trkpt lat="14.72142" lon="101.156343"><ele>345.4</ele><time>1970-01-01T01:15:34.000Z</time></trkpt><trkpt lat="14.721444" lon="101.156363"><ele>346.1</ele><time>1970-01-01T01:15:35.000Z</time></trkpt><trkpt lat="14.721465" lon="101.156381"><ele>346.1</ele><time>1970-01-01T01:15:36.000Z</time></trkpt><trkpt lat="14.721486" lon="101.1564"><ele>346.6</ele><time>1970-01-01T01:15:37.000Z</time></trkpt><trkpt lat="14.721508" lon="101.156419"><ele>346.9</ele><time>1970-01-01T01:15:38.000Z</time></trkpt><trkpt lat="14.721546" lon="101.156456"><ele>347.8</ele><time>1970-01-01T01:15:40.000Z</time></trkpt><trkpt lat="14.721565" lon="101.156476"><ele>348.5</ele><time>1970-01-01T01:15:41.000Z</time></trkpt><trkpt lat="14.721601" lon="101.156505"><ele>349.4</ele><time>1970-01-01T01:15:43.000Z</time></trkpt><trkpt lat="14.721639" lon="101.156536"><ele>350.3</ele><time>1970-01-01T01:15:45.000Z</time></trkpt><trkpt lat="14.721674" lon="101.156572"><ele>350.3</ele><time>1970-01-01T01:15:47.000Z</time></trkpt><trkpt lat="14.721706" lon="101.156605"><ele>351.3</ele><time>1970-01-01T01:15:49.000Z</time></trkpt><trkpt lat="14.72174" lon="101.156634"><ele>352.4</ele><time>1970-01-01T01:15:51.000Z</time></trkpt><trkpt lat="14.721778" lon="101.156657"><ele>353.7</ele><time>1970-01-01T01:15:53.000Z</time></trkpt><trkpt lat="14.721812" lon="101.156685"><ele>354.6</ele><time>1970-01-01T01:15:55.000Z</time></trkpt><trkpt lat="14.721846" lon="101.156715"><ele>355.4</ele><time>1970-01-01T01:15:57.000Z</time></trkpt><trkpt lat="14.721883" lon="101.156742"><ele>355.4</ele><time>1970-01-01T01:15:59.000Z</time></trkpt><trkpt lat="14.721918" lon="101.156767"><ele>356.2</ele><time>1970-01-01T01:16:01.000Z</time></trkpt><trkpt lat="14.721953" lon="101.156802"><ele>357</ele><time>1970-01-01T01:16:03.000Z</time></trkpt><trkpt lat="14.721985" lon="101.156832"><ele>357.6</ele><time>1970-01-01T01:16:05.000Z</time></trkpt><trkpt lat="14.722018" lon="101.156858"><ele>358.3</ele><time>1970-01-01T01:16:07.000Z</time></trkpt><trkpt lat="14.722054" lon="101.156893"><ele>359</ele><time>1970-01-01T01:16:09.000Z</time></trkpt><trkpt lat="14.722092" lon="101.156929"><ele>358.8</ele><time>1970-01-01T01:16:11.000Z</time></trkpt><trkpt lat="14.722132" lon="101.156962"><ele>359.5</ele><time>1970-01-01T01:16:13.000Z</time></trkpt><trkpt lat="14.722157" lon="101.156977"><ele>360.4</ele><time>1970-01-01T01:16:14.000Z</time></trkpt><trkpt lat="14.722183" lon="101.156993"><ele>361.4</ele><time>1970-01-01T01:16:15.000Z</time></trkpt><trkpt lat="14.722207" lon="101.157007"><ele>361.5</ele><time>1970-01-01T01:16:16.000Z</time></trkpt><trkpt lat="14.722247" lon="101.157036"><ele>362.7</ele><time>1970-01-01T01:16:18.000Z</time></trkpt><trkpt lat="14.722279" lon="101.157067"><ele>364.3</ele><time>1970-01-01T01:16:20.000Z</time></trkpt><trkpt lat="14.722309" lon="101.157095"><ele>365.8</ele><time>1970-01-01T01:16:22.000Z</time></trkpt><trkpt lat="14.722334" lon="101.157116"><ele>365.8</ele><time>1970-01-01T01:16:24.000Z</time></trkpt><trkpt lat="14.722364" lon="101.157139"><ele>367.2</ele><time>1970-01-01T01:16:26.000Z</time></trkpt><trkpt lat="14.722396" lon="101.157167"><ele>368.2</ele><time>1970-01-01T01:16:28.000Z</time></trkpt><trkpt lat="14.722419" lon="101.157183"><ele>368.5</ele><time>1970-01-01T01:16:30.000Z</time></trkpt><trkpt lat="14.722439" lon="101.157206"><ele>369.7</ele><time>1970-01-01T01:16:32.000Z</time></trkpt><trkpt lat="14.722451" lon="101.157248"><ele>370.2</ele><time>1970-01-01T01:16:34.000Z</time></trkpt><trkpt lat="14.722455" lon="101.157296"><ele>370.7</ele><time>1970-01-01T01:16:36.000Z</time></trkpt><trkpt lat="14.722454" lon="101.157324"><ele>371.1</ele><time>1970-01-01T01:16:37.000Z</time></trkpt><trkpt lat="14.722452" lon="101.15736"><ele>371.5</ele><time>1970-01-01T01:16:38.000Z</time></trkpt><trkpt lat="14.722448" lon="101.157406"><ele>371.7</ele><time>1970-01-01T01:16:39.000Z</time></trkpt><trkpt lat="14.722443" lon="101.157452"><ele>371.8</ele><time>1970-01-01T01:16:40.000Z</time></trkpt><trkpt lat="14.722437" lon="101.1575"><ele>371.7</ele><time>1970-01-01T01:16:41.000Z</time></trkpt><trkpt lat="14.722432" lon="101.157536"><ele>371.7</ele><time>1970-01-01T01:16:42.000Z</time></trkpt><trkpt lat="14.722426" lon="101.157564"><ele>371.8</ele><time>1970-01-01T01:16:43.000Z</time></trkpt><trkpt lat="14.722412" lon="101.157613"><ele>370.7</ele><time>1970-01-01T01:16:45.000Z</time></trkpt><trkpt lat="14.722408" lon="101.157644"><ele>370.7</ele><time>1970-01-01T01:16:46.000Z</time></trkpt><trkpt lat="14.72241" lon="101.157679"><ele>370.9</ele><time>1970-01-01T01:16:47.000Z</time></trkpt><trkpt lat="14.722409" lon="101.157722"><ele>371</ele><time>1970-01-01T01:16:49.000Z</time></trkpt><trkpt lat="14.72238" lon="101.157776"><ele>370.2</ele><time>1970-01-01T01:16:51.000Z</time></trkpt><trkpt lat="14.722366" lon="101.157807"><ele>370.2</ele><time>1970-01-01T01:16:52.000Z</time></trkpt><trkpt lat="14.722361" lon="101.157837"><ele>370.2</ele><time>1970-01-01T01:16:53.000Z</time></trkpt><trkpt lat="14.722373" lon="101.157866"><ele>370.4</ele><time>1970-01-01T01:16:55.000Z</time></trkpt><trkpt lat="14.722396" lon="101.157892"><ele>370.8</ele><time>1970-01-01T01:16:57.000Z</time></trkpt><trkpt lat="14.722419" lon="101.157923"><ele>371.3</ele><time>1970-01-01T01:16:59.000Z</time></trkpt><trkpt lat="14.722441" lon="101.157952"><ele>371.8</ele><time>1970-01-01T01:17:01.000Z</time></trkpt><trkpt lat="14.72247" lon="101.157976"><ele>372.3</ele><time>1970-01-01T01:17:04.000Z</time></trkpt><trkpt lat="14.722496" lon="101.157988"><ele>372.6</ele><time>1970-01-01T01:17:06.000Z</time></trkpt><trkpt lat="14.722521" lon="101.158015"><ele>372.4</ele><time>1970-01-01T01:17:08.000Z</time></trkpt><trkpt lat="14.722534" lon="101.158041"><ele>372.4</ele><time>1970-01-01T01:17:09.000Z</time></trkpt><trkpt lat="14.722552" lon="101.158079"><ele>372.3</ele><time>1970-01-01T01:17:10.000Z</time></trkpt><trkpt lat="14.722574" lon="101.158121"><ele>372.1</ele><time>1970-01-01T01:17:11.000Z</time></trkpt><trkpt lat="14.722601" lon="101.158162"><ele>371.7</ele><time>1970-01-01T01:17:12.000Z</time></trkpt><trkpt lat="14.722666" lon="101.158229"><ele>371.4</ele><time>1970-01-01T01:17:13.000Z</time></trkpt><trkpt lat="14.722754" lon="101.158235"><ele>371.1</ele><time>1970-01-01T01:17:14.000Z</time></trkpt><trkpt lat="14.722809" lon="101.158247"><ele>370.7</ele><time>1970-01-01T01:17:15.000Z</time></trkpt><trkpt lat="14.722863" lon="101.158243"><ele>371.4</ele><time>1970-01-01T01:17:16.000Z</time></trkpt><trkpt lat="14.72294" lon="101.158241"><ele>371.7</ele><time>1970-01-01T01:17:17.000Z</time></trkpt><trkpt lat="14.722998" lon="101.158237"><ele>371.8</ele><time>1970-01-01T01:17:18.000Z</time></trkpt><trkpt lat="14.723056" lon="101.158198"><ele>372.8</ele><time>1970-01-01T01:17:19.000Z</time></trkpt><trkpt lat="14.723097" lon="101.158161"><ele>373.4</ele><time>1970-01-01T01:17:20.000Z</time></trkpt><trkpt lat="14.723139" lon="101.158134"><ele>373.6</ele><time>1970-01-01T01:17:21.000Z</time></trkpt><trkpt lat="14.723242" lon="101.158103"><ele>372.8</ele><time>1970-01-01T01:17:22.000Z</time></trkpt><trkpt lat="14.723309" lon="101.158123"><ele>373.8</ele><time>1970-01-01T01:17:23.000Z</time></trkpt><trkpt lat="14.723351" lon="101.158129"><ele>373.1</ele><time>1970-01-01T01:17:24.000Z</time></trkpt><trkpt lat="14.723401" lon="101.158088"><ele>372.2</ele><time>1970-01-01T01:17:25.000Z</time></trkpt><trkpt lat="14.72345" lon="101.158073"><ele>371.3</ele><time>1970-01-01T01:17:26.000Z</time></trkpt><trkpt lat="14.723485" lon="101.158095"><ele>370.7</ele><time>1970-01-01T01:17:27.000Z</time></trkpt><trkpt lat="14.72353" lon="101.158097"><ele>370.2</ele><time>1970-01-01T01:17:28.000Z</time></trkpt><trkpt lat="14.723579" lon="101.158093"><ele>370.1</ele><time>1970-01-01T01:17:29.000Z</time></trkpt><trkpt lat="14.723637" lon="101.158114"><ele>370.2</ele><time>1970-01-01T01:17:30.000Z</time></trkpt><trkpt lat="14.723694" lon="101.158112"><ele>370.3</ele><time>1970-01-01T01:17:31.000Z</time></trkpt><trkpt lat="14.723754" lon="101.15811"><ele>370.7</ele><time>1970-01-01T01:17:32.000Z</time></trkpt><trkpt lat="14.723809" lon="101.158125"><ele>371.1</ele><time>1970-01-01T01:17:33.000Z</time></trkpt><trkpt lat="14.723872" lon="101.15812"><ele>371.5</ele><time>1970-01-01T01:17:34.000Z</time></trkpt><trkpt lat="14.723928" lon="101.158118"><ele>372.7</ele><time>1970-01-01T01:17:35.000Z</time></trkpt><trkpt lat="14.723988" lon="101.158101"><ele>373.8</ele><time>1970-01-01T01:17:36.000Z</time></trkpt><trkpt lat="14.724045" lon="101.158111"><ele>373.6</ele><time>1970-01-01T01:17:37.000Z</time></trkpt><trkpt lat="14.7241" lon="101.158092"><ele>373</ele><time>1970-01-01T01:17:38.000Z</time></trkpt><trkpt lat="14.724156" lon="101.158083"><ele>372.2</ele><time>1970-01-01T01:17:39.000Z</time></trkpt><trkpt lat="14.724209" lon="101.158074"><ele>371.5</ele><time>1970-01-01T01:17:40.000Z</time></trkpt><trkpt lat="14.724265" lon="101.15811"><ele>370.8</ele><time>1970-01-01T01:17:41.000Z</time></trkpt><trkpt lat="14.72432" lon="101.158097"><ele>370.3</ele><time>1970-01-01T01:17:42.000Z</time></trkpt><trkpt lat="14.724372" lon="101.158089"><ele>369.9</ele><time>1970-01-01T01:17:43.000Z</time></trkpt><trkpt lat="14.724436" lon="101.15811"><ele>369.5</ele><time>1970-01-01T01:17:44.000Z</time></trkpt><trkpt lat="14.724486" lon="101.158118"><ele>369.8</ele><time>1970-01-01T01:17:45.000Z</time></trkpt><trkpt lat="14.724545" lon="101.158104"><ele>369.7</ele><time>1970-01-01T01:17:46.000Z</time></trkpt><trkpt lat="14.724597" lon="101.158108"><ele>369.1</ele><time>1970-01-01T01:17:47.000Z</time></trkpt><trkpt lat="14.724658" lon="101.158105"><ele>368.4</ele><time>1970-01-01T01:17:48.000Z</time></trkpt><trkpt lat="14.724708" lon="101.158113"><ele>367.9</ele><time>1970-01-01T01:17:49.000Z</time></trkpt><trkpt lat="14.724765" lon="101.158098"><ele>367.2</ele><time>1970-01-01T01:17:50.000Z</time></trkpt><trkpt lat="14.724833" lon="101.158087"><ele>366.3</ele><time>1970-01-01T01:17:51.000Z</time></trkpt><trkpt lat="14.724904" lon="101.158072"><ele>365.4</ele><time>1970-01-01T01:17:52.000Z</time></trkpt><trkpt lat="14.724973" lon="101.158051"><ele>365.8</ele><time>1970-01-01T01:17:53.000Z</time></trkpt><trkpt lat="14.725022" lon="101.158055"><ele>366.1</ele><time>1970-01-01T01:17:54.000Z</time></trkpt><trkpt lat="14.725081" lon="101.158039"><ele>366.5</ele><time>1970-01-01T01:17:55.000Z</time></trkpt><trkpt lat="14.725103" lon="101.157973"><ele>365.4</ele><time>1970-01-01T01:17:56.000Z</time></trkpt><trkpt lat="14.725149" lon="101.15792"><ele>365</ele><time>1970-01-01T01:17:57.000Z</time></trkpt><trkpt lat="14.725237" lon="101.157888"><ele>365.1</ele><time>1970-01-01T01:17:58.000Z</time></trkpt><trkpt lat="14.725337" lon="101.157824"><ele>365.3</ele><time>1970-01-01T01:17:59.000Z</time></trkpt><trkpt lat="14.725391" lon="101.157767"><ele>365.6</ele><time>1970-01-01T01:18:00.000Z</time></trkpt><trkpt lat="14.725398" lon="101.157731"><ele>365.8</ele><time>1970-01-01T01:18:01.000Z</time></trkpt><trkpt lat="14.725406" lon="101.157693"><ele>365.9</ele><time>1970-01-01T01:18:02.000Z</time></trkpt><trkpt lat="14.725424" lon="101.157661"><ele>366</ele><time>1970-01-01T01:18:03.000Z</time></trkpt><trkpt lat="14.725444" lon="101.157617"><ele>366</ele><time>1970-01-01T01:18:04.000Z</time></trkpt><trkpt lat="14.725481" lon="101.157544"><ele>365.7</ele><time>1970-01-01T01:18:05.000Z</time></trkpt><trkpt lat="14.725474" lon="101.157511"><ele>365.7</ele><time>1970-01-01T01:18:06.000Z</time></trkpt><trkpt lat="14.725473" lon="101.157474"><ele>366.6</ele><time>1970-01-01T01:18:07.000Z</time></trkpt><trkpt lat="14.725481" lon="101.15744"><ele>367.4</ele><time>1970-01-01T01:18:08.000Z</time></trkpt><trkpt lat="14.725504" lon="101.15739"><ele>367</ele><time>1970-01-01T01:18:09.000Z</time></trkpt><trkpt lat="14.725537" lon="101.157345"><ele>366.8</ele><time>1970-01-01T01:18:10.000Z</time></trkpt><trkpt lat="14.725554" lon="101.15731"><ele>366.8</ele><time>1970-01-01T01:18:11.000Z</time></trkpt><trkpt lat="14.725591" lon="101.157271"><ele>366.9</ele><time>1970-01-01T01:18:12.000Z</time></trkpt><trkpt lat="14.725634" lon="101.157249"><ele>366.9</ele><time>1970-01-01T01:18:13.000Z</time></trkpt><trkpt lat="14.725705" lon="101.157234"><ele>364.8</ele><time>1970-01-01T01:18:14.000Z</time></trkpt><trkpt lat="14.725784" lon="101.157208"><ele>361.2</ele><time>1970-01-01T01:18:15.000Z</time></trkpt><trkpt lat="14.725825" lon="101.157238"><ele>359.7</ele><time>1970-01-01T01:18:16.000Z</time></trkpt><trkpt lat="14.725861" lon="101.157294"><ele>358.2</ele><time>1970-01-01T01:18:17.000Z</time></trkpt><trkpt lat="14.725902" lon="101.157311"><ele>355.8</ele><time>1970-01-01T01:18:18.000Z</time></trkpt><trkpt lat="14.725968" lon="101.157329"><ele>356</ele><time>1970-01-01T01:18:19.000Z</time></trkpt><trkpt lat="14.726026" lon="101.157287"><ele>356.1</ele><time>1970-01-01T01:18:21.000Z</time></trkpt><trkpt lat="14.726082" lon="101.157272"><ele>356.3</ele><time>1970-01-01T01:18:23.000Z</time></trkpt><trkpt lat="14.72613" lon="101.157263"><ele>356.4</ele><time>1970-01-01T01:18:24.000Z</time></trkpt><trkpt lat="14.726174" lon="101.157263"><ele>356.5</ele><time>1970-01-01T01:18:25.000Z</time></trkpt><trkpt lat="14.726212" lon="101.157253"><ele>356.6</ele><time>1970-01-01T01:18:26.000Z</time></trkpt><trkpt lat="14.726245" lon="101.157222"><ele>356.7</ele><time>1970-01-01T01:18:27.000Z</time></trkpt><trkpt lat="14.726303" lon="101.157188"><ele>356.9</ele><time>1970-01-01T01:18:28.000Z</time></trkpt><trkpt lat="14.726357" lon="101.157187"><ele>357</ele><time>1970-01-01T01:18:29.000Z</time></trkpt><trkpt lat="14.726389" lon="101.157171"><ele>357.1</ele><time>1970-01-01T01:18:30.000Z</time></trkpt><trkpt lat="14.726443" lon="101.157165"><ele>357.2</ele><time>1970-01-01T01:18:31.000Z</time></trkpt><trkpt lat="14.72649" lon="101.157168"><ele>357.3</ele><time>1970-01-01T01:18:32.000Z</time></trkpt><trkpt lat="14.726524" lon="101.15718"><ele>357.4</ele><time>1970-01-01T01:18:33.000Z</time></trkpt><trkpt lat="14.726565" lon="101.157194"><ele>357.5</ele><time>1970-01-01T01:18:34.000Z</time></trkpt><trkpt lat="14.726598" lon="101.157219"><ele>357.6</ele><time>1970-01-01T01:18:35.000Z</time></trkpt><trkpt lat="14.72663" lon="101.157239"><ele>357.7</ele><time>1970-01-01T01:18:36.000Z</time></trkpt><trkpt lat="14.726642" lon="101.157266"><ele>357.8</ele><time>1970-01-01T01:18:37.000Z</time></trkpt><trkpt lat="14.726653" lon="101.157298"><ele>357.9</ele><time>1970-01-01T01:18:39.000Z</time></trkpt><trkpt lat="14.726626" lon="101.157301"><ele>358</ele><time>1970-01-01T01:18:52.000Z</time></trkpt><trkpt lat="14.726634" lon="101.157357"><ele>358.1</ele><time>1970-01-01T01:19:25.000Z</time></trkpt><trkpt lat="14.72664" lon="101.157387"><ele>358.2</ele><time>1970-01-01T01:19:26.000Z</time></trkpt><trkpt lat="14.726598" lon="101.157368"><ele>358.4</ele><time>1970-01-01T01:44:08.000Z</time></trkpt><trkpt lat="14.726619" lon="101.157338"><ele>358.4</ele><time>1970-01-01T01:44:11.000Z</time></trkpt><trkpt lat="14.72663" lon="101.157302"><ele>358.5</ele><time>1970-01-01T01:44:13.000Z</time></trkpt><trkpt lat="14.726656" lon="101.157254"><ele>358.7</ele><time>1970-01-01T01:44:15.000Z</time></trkpt><trkpt lat="14.726695" lon="101.157222"><ele>358.7</ele><time>1970-01-01T01:44:17.000Z</time></trkpt><trkpt lat="14.72675" lon="101.157218"><ele>358.8</ele><time>1970-01-01T01:44:19.000Z</time></trkpt><trkpt lat="14.726808" lon="101.15721"><ele>358.9</ele><time>1970-01-01T01:44:21.000Z</time></trkpt><trkpt lat="14.726844" lon="101.157198"><ele>358.9</ele><time>1970-01-01T01:44:22.000Z</time></trkpt><trkpt lat="14.726882" lon="101.157183"><ele>359</ele><time>1970-01-01T01:44:23.000Z</time></trkpt><trkpt lat="14.726921" lon="101.157164"><ele>359.1</ele><time>1970-01-01T01:44:24.000Z</time></trkpt><trkpt lat="14.726964" lon="101.15715"><ele>359.1</ele><time>1970-01-01T01:44:25.000Z</time></trkpt><trkpt lat="14.727005" lon="101.157142"><ele>359.2</ele><time>1970-01-01T01:44:26.000Z</time></trkpt><trkpt lat="14.727041" lon="101.157138"><ele>359.3</ele><time>1970-01-01T01:44:27.000Z</time></trkpt><trkpt lat="14.727077" lon="101.157133"><ele>359.4</ele><time>1970-01-01T01:44:28.000Z</time></trkpt><trkpt lat="14.727116" lon="101.157125"><ele>359.4</ele><time>1970-01-01T01:44:29.000Z</time></trkpt><trkpt lat="14.727154" lon="101.157121"><ele>359.5</ele><time>1970-01-01T01:44:30.000Z</time></trkpt><trkpt lat="14.727197" lon="101.157121"><ele>359.6</ele><time>1970-01-01T01:44:31.000Z</time></trkpt><trkpt lat="14.727238" lon="101.157119"><ele>359.6</ele><time>1970-01-01T01:44:32.000Z</time></trkpt><trkpt lat="14.727275" lon="101.157115"><ele>359.6</ele><time>1970-01-01T01:44:33.000Z</time></trkpt><trkpt lat="14.727312" lon="101.15711"><ele>359.6</ele><time>1970-01-01T01:44:34.000Z</time></trkpt><trkpt lat="14.727347" lon="101.157104"><ele>359.6</ele><time>1970-01-01T01:44:35.000Z</time></trkpt><trkpt lat="14.727384" lon="101.157101"><ele>359.5</ele><time>1970-01-01T01:44:36.000Z</time></trkpt><trkpt lat="14.727422" lon="101.157098"><ele>359.5</ele><time>1970-01-01T01:44:37.000Z</time></trkpt><trkpt lat="14.727479" lon="101.157092"><ele>359.3</ele><time>1970-01-01T01:44:39.000Z</time></trkpt><trkpt lat="14.72752" lon="101.15709"><ele>359.2</ele><time>1970-01-01T01:44:40.000Z</time></trkpt><trkpt lat="14.727564" lon="101.157085"><ele>359.1</ele><time>1970-01-01T01:44:41.000Z</time></trkpt><trkpt lat="14.727612" lon="101.15708"><ele>359</ele><time>1970-01-01T01:44:42.000Z</time></trkpt><trkpt lat="14.727661" lon="101.157083"><ele>358.8</ele><time>1970-01-01T01:44:43.000Z</time></trkpt><trkpt lat="14.727716" lon="101.157077"><ele>358.7</ele><time>1970-01-01T01:44:44.000Z</time></trkpt><trkpt lat="14.727769" lon="101.157073"><ele>358.5</ele><time>1970-01-01T01:44:45.000Z</time></trkpt><trkpt lat="14.727823" lon="101.157073"><ele>358.3</ele><time>1970-01-01T01:44:46.000Z</time></trkpt><trkpt lat="14.727883" lon="101.157072"><ele>358.2</ele><time>1970-01-01T01:44:47.000Z</time></trkpt><trkpt lat="14.727949" lon="101.157067"><ele>357.9</ele><time>1970-01-01T01:44:48.000Z</time></trkpt><trkpt lat="14.728008" lon="101.157064"><ele>357.7</ele><time>1970-01-01T01:44:49.000Z</time></trkpt><trkpt lat="14.72807" lon="101.157065"><ele>357.5</ele><time>1970-01-01T01:44:50.000Z</time></trkpt><trkpt lat="14.728143" lon="101.157069"><ele>357.1</ele><time>1970-01-01T01:44:51.000Z</time></trkpt><trkpt lat="14.728216" lon="101.157076"><ele>356.7</ele><time>1970-01-01T01:44:52.000Z</time></trkpt><trkpt lat="14.72829" lon="101.157084"><ele>356.2</ele><time>1970-01-01T01:44:53.000Z</time></trkpt><trkpt lat="14.728365" lon="101.157087"><ele>355.8</ele><time>1970-01-01T01:44:54.000Z</time></trkpt><trkpt lat="14.728444" lon="101.157093"><ele>355</ele><time>1970-01-01T01:44:55.000Z</time></trkpt><trkpt lat="14.728519" lon="101.157095"><ele>354.4</ele><time>1970-01-01T01:44:56.000Z</time></trkpt><trkpt lat="14.728599" lon="101.157102"><ele>353.8</ele><time>1970-01-01T01:44:57.000Z</time></trkpt><trkpt lat="14.728685" lon="101.157105"><ele>353.3</ele><time>1970-01-01T01:44:58.000Z</time></trkpt><trkpt lat="14.728768" lon="101.157101"><ele>352.7</ele><time>1970-01-01T01:44:59.000Z</time></trkpt><trkpt lat="14.728854" lon="101.157098"><ele>352.3</ele><time>1970-01-01T01:45:00.000Z</time></trkpt><trkpt lat="14.728939" lon="101.157103"><ele>351.9</ele><time>1970-01-01T01:45:01.000Z</time></trkpt><trkpt lat="14.729022" lon="101.15711"><ele>351.7</ele><time>1970-01-01T01:45:02.000Z</time></trkpt><trkpt lat="14.729111" lon="101.157114"><ele>351.4</ele><time>1970-01-01T01:45:03.000Z</time></trkpt><trkpt lat="14.729199" lon="101.157103"><ele>350.8</ele><time>1970-01-01T01:45:04.000Z</time></trkpt><trkpt lat="14.729289" lon="101.157099"><ele>350.1</ele><time>1970-01-01T01:45:05.000Z</time></trkpt><trkpt lat="14.729386" lon="101.157098"><ele>349.4</ele><time>1970-01-01T01:45:06.000Z</time></trkpt><trkpt lat="14.72947" lon="101.157102"><ele>348.8</ele><time>1970-01-01T01:45:07.000Z</time></trkpt><trkpt lat="14.729546" lon="101.157112"><ele>348.3</ele><time>1970-01-01T01:45:08.000Z</time></trkpt><trkpt lat="14.729632" lon="101.157119"><ele>347.6</ele><time>1970-01-01T01:45:09.000Z</time></trkpt><trkpt lat="14.72971" lon="101.157126"><ele>347.9</ele><time>1970-01-01T01:45:10.000Z</time></trkpt><trkpt lat="14.729795" lon="101.157129"><ele>348.2</ele><time>1970-01-01T01:45:11.000Z</time></trkpt><trkpt lat="14.729883" lon="101.157135"><ele>348.5</ele><time>1970-01-01T01:45:12.000Z</time></trkpt><trkpt lat="14.729972" lon="101.157132"><ele>348.9</ele><time>1970-01-01T01:45:13.000Z</time></trkpt><trkpt lat="14.730037" lon="101.157155"><ele>349.2</ele><time>1970-01-01T01:45:14.000Z</time></trkpt><trkpt lat="14.7301" lon="101.157172"><ele>349.5</ele><time>1970-01-01T01:45:15.000Z</time></trkpt><trkpt lat="14.730125" lon="101.157235"><ele>349.9</ele><time>1970-01-01T01:45:16.000Z</time></trkpt><trkpt lat="14.730161" lon="101.157282"><ele>349.5</ele><time>1970-01-01T01:45:17.000Z</time></trkpt><trkpt lat="14.730178" lon="101.15734"><ele>349.1</ele><time>1970-01-01T01:45:18.000Z</time></trkpt><trkpt lat="14.730181" lon="101.15739"><ele>349</ele><time>1970-01-01T01:45:19.000Z</time></trkpt><trkpt lat="14.73016" lon="101.15745"><ele>348.9</ele><time>1970-01-01T01:45:20.000Z</time></trkpt><trkpt lat="14.73015" lon="101.157504"><ele>349</ele><time>1970-01-01T01:45:21.000Z</time></trkpt><trkpt lat="14.730142" lon="101.15755"><ele>349</ele><time>1970-01-01T01:45:22.000Z</time></trkpt><trkpt lat="14.730139" lon="101.157613"><ele>349.1</ele><time>1970-01-01T01:45:23.000Z</time></trkpt><trkpt lat="14.730138" lon="101.157664"><ele>349.1</ele><time>1970-01-01T01:45:24.000Z</time></trkpt><trkpt lat="14.730122" lon="101.157716"><ele>349.1</ele><time>1970-01-01T01:45:25.000Z</time></trkpt><trkpt lat="14.730123" lon="101.157762"><ele>349.1</ele><time>1970-01-01T01:45:26.000Z</time></trkpt><trkpt lat="14.730119" lon="101.157805"><ele>349</ele><time>1970-01-01T01:45:27.000Z</time></trkpt><trkpt lat="14.730107" lon="101.157844"><ele>349.1</ele><time>1970-01-01T01:45:28.000Z</time></trkpt><trkpt lat="14.730105" lon="101.157892"><ele>349.2</ele><time>1970-01-01T01:45:29.000Z</time></trkpt><trkpt lat="14.730106" lon="101.157924"><ele>349.3</ele><time>1970-01-01T01:45:30.000Z</time></trkpt><trkpt lat="14.730092" lon="101.157962"><ele>349.5</ele><time>1970-01-01T01:45:31.000Z</time></trkpt><trkpt lat="14.730094" lon="101.158015"><ele>349.8</ele><time>1970-01-01T01:45:32.000Z</time></trkpt><trkpt lat="14.730084" lon="101.158055"><ele>350.1</ele><time>1970-01-01T01:45:33.000Z</time></trkpt><trkpt lat="14.730083" lon="101.158091"><ele>350.3</ele><time>1970-01-01T01:45:34.000Z</time></trkpt><trkpt lat="14.730082" lon="101.158127"><ele>350.5</ele><time>1970-01-01T01:45:35.000Z</time></trkpt><trkpt lat="14.73009" lon="101.158159"><ele>350.6</ele><time>1970-01-01T01:45:36.000Z</time></trkpt><trkpt lat="14.730085" lon="101.158197"><ele>350.8</ele><time>1970-01-01T01:45:37.000Z</time></trkpt><trkpt lat="14.730101" lon="101.158254"><ele>351.2</ele><time>1970-01-01T01:45:39.000Z</time></trkpt><trkpt lat="14.730097" lon="101.158285"><ele>351.5</ele><time>1970-01-01T01:45:40.000Z</time></trkpt><trkpt lat="14.730092" lon="101.158333"><ele>352</ele><time>1970-01-01T01:45:41.000Z</time></trkpt><trkpt lat="14.730089" lon="101.158376"><ele>352.6</ele><time>1970-01-01T01:45:42.000Z</time></trkpt><trkpt lat="14.730085" lon="101.158422"><ele>353.5</ele><time>1970-01-01T01:45:43.000Z</time></trkpt><trkpt lat="14.73008" lon="101.158468"><ele>354.2</ele><time>1970-01-01T01:45:44.000Z</time></trkpt><trkpt lat="14.730074" lon="101.158508"><ele>354.6</ele><time>1970-01-01T01:45:45.000Z</time></trkpt><trkpt lat="14.730065" lon="101.158542"><ele>354.8</ele><time>1970-01-01T01:45:46.000Z</time></trkpt><trkpt lat="14.730056" lon="101.158574"><ele>354.6</ele><time>1970-01-01T01:45:47.000Z</time></trkpt><trkpt lat="14.730049" lon="101.158606"><ele>354.4</ele><time>1970-01-01T01:45:48.000Z</time></trkpt><trkpt lat="14.730046" lon="101.158639"><ele>354.2</ele><time>1970-01-01T01:45:49.000Z</time></trkpt><trkpt lat="14.730042" lon="101.158672"><ele>353.9</ele><time>1970-01-01T01:45:50.000Z</time></trkpt><trkpt lat="14.73004" lon="101.158706"><ele>353.7</ele><time>1970-01-01T01:45:51.000Z</time></trkpt><trkpt lat="14.730039" lon="101.158738"><ele>353.4</ele><time>1970-01-01T01:45:52.000Z</time></trkpt><trkpt lat="14.730039" lon="101.158771"><ele>353.1</ele><time>1970-01-01T01:45:53.000Z</time></trkpt><trkpt lat="14.73004" lon="101.158809"><ele>352.8</ele><time>1970-01-01T01:45:54.000Z</time></trkpt><trkpt lat="14.73004" lon="101.158848"><ele>352.5</ele><time>1970-01-01T01:45:55.000Z</time></trkpt><trkpt lat="14.730035" lon="101.158886"><ele>352.3</ele><time>1970-01-01T01:45:56.000Z</time></trkpt><trkpt lat="14.730029" lon="101.158923"><ele>352.2</ele><time>1970-01-01T01:45:57.000Z</time></trkpt><trkpt lat="14.730023" lon="101.158963"><ele>352.3</ele><time>1970-01-01T01:45:58.000Z</time></trkpt><trkpt lat="14.73002" lon="101.158996"><ele>352.4</ele><time>1970-01-01T01:45:59.000Z</time></trkpt><trkpt lat="14.730028" lon="101.159054"><ele>353.2</ele><time>1970-01-01T01:46:01.000Z</time></trkpt><trkpt lat="14.730044" lon="101.159084"><ele>353.7</ele><time>1970-01-01T01:46:02.000Z</time></trkpt><trkpt lat="14.730062" lon="101.159106"><ele>353.8</ele><time>1970-01-01T01:46:03.000Z</time></trkpt><trkpt lat="14.730108" lon="101.159144"><ele>354</ele><time>1970-01-01T01:46:05.000Z</time></trkpt><trkpt lat="14.730133" lon="101.159175"><ele>354</ele><time>1970-01-01T01:46:06.000Z</time></trkpt><trkpt lat="14.730153" lon="101.159212"><ele>354</ele><time>1970-01-01T01:46:07.000Z</time></trkpt><trkpt lat="14.730168" lon="101.159254"><ele>354.3</ele><time>1970-01-01T01:46:08.000Z</time></trkpt><trkpt lat="14.730179" lon="101.159296"><ele>354.6</ele><time>1970-01-01T01:46:09.000Z</time></trkpt><trkpt lat="14.730176" lon="101.15935"><ele>355</ele><time>1970-01-01T01:46:10.000Z</time></trkpt><trkpt lat="14.73018" lon="101.159394"><ele>355.3</ele><time>1970-01-01T01:46:11.000Z</time></trkpt><trkpt lat="14.730188" lon="101.159439"><ele>355.8</ele><time>1970-01-01T01:46:12.000Z</time></trkpt><trkpt lat="14.730195" lon="101.159482"><ele>356.3</ele><time>1970-01-01T01:46:13.000Z</time></trkpt><trkpt lat="14.730202" lon="101.159529"><ele>356.6</ele><time>1970-01-01T01:46:14.000Z</time></trkpt><trkpt lat="14.730211" lon="101.159574"><ele>356.9</ele><time>1970-01-01T01:46:15.000Z</time></trkpt><trkpt lat="14.730218" lon="101.159618"><ele>357.1</ele><time>1970-01-01T01:46:16.000Z</time></trkpt><trkpt lat="14.730229" lon="101.159661"><ele>357.3</ele><time>1970-01-01T01:46:17.000Z</time></trkpt><trkpt lat="14.730239" lon="101.159707"><ele>357.6</ele><time>1970-01-01T01:46:18.000Z</time></trkpt><trkpt lat="14.730251" lon="101.159747"><ele>357.9</ele><time>1970-01-01T01:46:19.000Z</time></trkpt><trkpt lat="14.730266" lon="101.159791"><ele>358.1</ele><time>1970-01-01T01:46:20.000Z</time></trkpt><trkpt lat="14.73027" lon="101.159832"><ele>358.2</ele><time>1970-01-01T01:46:21.000Z</time></trkpt><trkpt lat="14.730286" lon="101.159866"><ele>358.5</ele><time>1970-01-01T01:46:22.000Z</time></trkpt><trkpt lat="14.730298" lon="101.159898"><ele>358.7</ele><time>1970-01-01T01:46:23.000Z</time></trkpt><trkpt lat="14.730305" lon="101.159925"><ele>358.9</ele><time>1970-01-01T01:46:24.000Z</time></trkpt><trkpt lat="14.730315" lon="101.159971"><ele>359.3</ele><time>1970-01-01T01:46:25.000Z</time></trkpt><trkpt lat="14.730328" lon="101.160007"><ele>359.5</ele><time>1970-01-01T01:46:26.000Z</time></trkpt><trkpt lat="14.73034" lon="101.16005"><ele>359.5</ele><time>1970-01-01T01:46:27.000Z</time></trkpt><trkpt lat="14.730351" lon="101.160092"><ele>359.6</ele><time>1970-01-01T01:46:28.000Z</time></trkpt><trkpt lat="14.730357" lon="101.160137"><ele>359.4</ele><time>1970-01-01T01:46:29.000Z</time></trkpt><trkpt lat="14.730361" lon="101.160182"><ele>359.3</ele><time>1970-01-01T01:46:30.000Z</time></trkpt><trkpt lat="14.730366" lon="101.160223"><ele>359.3</ele><time>1970-01-01T01:46:31.000Z</time></trkpt><trkpt lat="14.730373" lon="101.160262"><ele>359.3</ele><time>1970-01-01T01:46:32.000Z</time></trkpt><trkpt lat="14.730383" lon="101.160303"><ele>359.4</ele><time>1970-01-01T01:46:33.000Z</time></trkpt><trkpt lat="14.730395" lon="101.160341"><ele>359.6</ele><time>1970-01-01T01:46:34.000Z</time></trkpt><trkpt lat="14.730407" lon="101.160373"><ele>359.8</ele><time>1970-01-01T01:46:35.000Z</time></trkpt><trkpt lat="14.730419" lon="101.160404"><ele>360</ele><time>1970-01-01T01:46:36.000Z</time></trkpt><trkpt lat="14.730429" lon="101.160438"><ele>360.3</ele><time>1970-01-01T01:46:37.000Z</time></trkpt><trkpt lat="14.730438" lon="101.160472"><ele>360.5</ele><time>1970-01-01T01:46:38.000Z</time></trkpt><trkpt lat="14.730447" lon="101.160504"><ele>360.8</ele><time>1970-01-01T01:46:39.000Z</time></trkpt><trkpt lat="14.730455" lon="101.160536"><ele>361</ele><time>1970-01-01T01:46:40.000Z</time></trkpt><trkpt lat="14.730462" lon="101.160566"><ele>361.1</ele><time>1970-01-01T01:46:41.000Z</time></trkpt><trkpt lat="14.730465" lon="101.160595"><ele>361.3</ele><time>1970-01-01T01:46:42.000Z</time></trkpt><trkpt lat="14.730468" lon="101.160649"><ele>361.6</ele><time>1970-01-01T01:46:44.000Z</time></trkpt><trkpt lat="14.730479" lon="101.160702"><ele>361.9</ele><time>1970-01-01T01:46:46.000Z</time></trkpt><trkpt lat="14.730488" lon="101.160734"><ele>362</ele><time>1970-01-01T01:46:47.000Z</time></trkpt><trkpt lat="14.730497" lon="101.160766"><ele>362.2</ele><time>1970-01-01T01:46:48.000Z</time></trkpt><trkpt lat="14.730507" lon="101.1608"><ele>362.4</ele><time>1970-01-01T01:46:49.000Z</time></trkpt><trkpt lat="14.730516" lon="101.160837"><ele>362.7</ele><time>1970-01-01T01:46:50.000Z</time></trkpt><trkpt lat="14.730525" lon="101.160873"><ele>362.9</ele><time>1970-01-01T01:46:51.000Z</time></trkpt><trkpt lat="14.730534" lon="101.160911"><ele>363.2</ele><time>1970-01-01T01:46:52.000Z</time></trkpt><trkpt lat="14.730541" lon="101.160949"><ele>363.4</ele><time>1970-01-01T01:46:53.000Z</time></trkpt><trkpt lat="14.730546" lon="101.160993"><ele>363.6</ele><time>1970-01-01T01:46:54.000Z</time></trkpt><trkpt lat="14.730549" lon="101.161036"><ele>363.7</ele><time>1970-01-01T01:46:55.000Z</time></trkpt><trkpt lat="14.730554" lon="101.161076"><ele>363.8</ele><time>1970-01-01T01:46:56.000Z</time></trkpt><trkpt lat="14.730562" lon="101.161115"><ele>363.7</ele><time>1970-01-01T01:46:57.000Z</time></trkpt><trkpt lat="14.730572" lon="101.161152"><ele>363.7</ele><time>1970-01-01T01:46:58.000Z</time></trkpt><trkpt lat="14.730583" lon="101.161187"><ele>363.8</ele><time>1970-01-01T01:46:59.000Z</time></trkpt><trkpt lat="14.730596" lon="101.161223"><ele>363.9</ele><time>1970-01-01T01:47:00.000Z</time></trkpt><trkpt lat="14.730608" lon="101.161259"><ele>364.1</ele><time>1970-01-01T01:47:01.000Z</time></trkpt><trkpt lat="14.730618" lon="101.161296"><ele>364.4</ele><time>1970-01-01T01:47:02.000Z</time></trkpt><trkpt lat="14.730627" lon="101.161333"><ele>364.5</ele><time>1970-01-01T01:47:03.000Z</time></trkpt><trkpt lat="14.730637" lon="101.161368"><ele>364.2</ele><time>1970-01-01T01:47:04.000Z</time></trkpt><trkpt lat="14.730649" lon="101.161402"><ele>364</ele><time>1970-01-01T01:47:05.000Z</time></trkpt><trkpt lat="14.73066" lon="101.161435"><ele>363.9</ele><time>1970-01-01T01:47:06.000Z</time></trkpt><trkpt lat="14.730668" lon="101.161471"><ele>363.8</ele><time>1970-01-01T01:47:07.000Z</time></trkpt><trkpt lat="14.730675" lon="101.161507"><ele>363.8</ele><time>1970-01-01T01:47:08.000Z</time></trkpt><trkpt lat="14.730682" lon="101.161544"><ele>363.9</ele><time>1970-01-01T01:47:09.000Z</time></trkpt><trkpt lat="14.730691" lon="101.161579"><ele>364.1</ele><time>1970-01-01T01:47:10.000Z</time></trkpt><trkpt lat="14.7307" lon="101.161613"><ele>364.3</ele><time>1970-01-01T01:47:11.000Z</time></trkpt><trkpt lat="14.730709" lon="101.161646"><ele>364.6</ele><time>1970-01-01T01:47:12.000Z</time></trkpt><trkpt lat="14.730719" lon="101.161678"><ele>364.8</ele><time>1970-01-01T01:47:13.000Z</time></trkpt><trkpt lat="14.730729" lon="101.161706"><ele>365</ele><time>1970-01-01T01:47:14.000Z</time></trkpt><trkpt lat="14.730735" lon="101.161733"><ele>365.1</ele><time>1970-01-01T01:47:15.000Z</time></trkpt><trkpt lat="14.730739" lon="101.161766"><ele>365.3</ele><time>1970-01-01T01:47:16.000Z</time></trkpt><trkpt lat="14.730743" lon="101.161802"><ele>365.5</ele><time>1970-01-01T01:47:17.000Z</time></trkpt><trkpt lat="14.730762" lon="101.161847"><ele>365.7</ele><time>1970-01-01T01:47:19.000Z</time></trkpt><trkpt lat="14.730792" lon="101.161878"><ele>365.7</ele><time>1970-01-01T01:47:21.000Z</time></trkpt><trkpt lat="14.73082" lon="101.161892"><ele>365.6</ele><time>1970-01-01T01:47:23.000Z</time></trkpt><trkpt lat="14.730858" lon="101.161907"><ele>365.6</ele><time>1970-01-01T01:47:25.000Z</time></trkpt><trkpt lat="14.730879" lon="101.161949"><ele>365.7</ele><time>1970-01-01T01:47:27.000Z</time></trkpt><trkpt lat="14.730878" lon="101.161979"><ele>365.8</ele><time>1970-01-01T01:47:28.000Z</time></trkpt><trkpt lat="14.730878" lon="101.162012"><ele>365.9</ele><time>1970-01-01T01:47:29.000Z</time></trkpt><trkpt lat="14.730883" lon="101.162042"><ele>366.3</ele><time>1970-01-01T01:47:30.000Z</time></trkpt><trkpt lat="14.730891" lon="101.16207"><ele>366.6</ele><time>1970-01-01T01:47:31.000Z</time></trkpt><trkpt lat="14.730904" lon="101.162096"><ele>367</ele><time>1970-01-01T01:47:32.000Z</time></trkpt><trkpt lat="14.73092" lon="101.162121"><ele>367.1</ele><time>1970-01-01T01:47:33.000Z</time></trkpt><trkpt lat="14.730938" lon="101.162147"><ele>367.1</ele><time>1970-01-01T01:47:34.000Z</time></trkpt><trkpt lat="14.730958" lon="101.162175"><ele>367.1</ele><time>1970-01-01T01:47:35.000Z</time></trkpt><trkpt lat="14.730981" lon="101.162208"><ele>366.9</ele><time>1970-01-01T01:47:36.000Z</time></trkpt><trkpt lat="14.731005" lon="101.162234"><ele>366.7</ele><time>1970-01-01T01:47:37.000Z</time></trkpt><trkpt lat="14.731031" lon="101.162256"><ele>366.6</ele><time>1970-01-01T01:47:38.000Z</time></trkpt><trkpt lat="14.731056" lon="101.162275"><ele>366.5</ele><time>1970-01-01T01:47:39.000Z</time></trkpt><trkpt lat="14.73108" lon="101.162293"><ele>366.6</ele><time>1970-01-01T01:47:40.000Z</time></trkpt><trkpt lat="14.7311" lon="101.162314"><ele>366.6</ele><time>1970-01-01T01:47:41.000Z</time></trkpt><trkpt lat="14.731119" lon="101.162336"><ele>366.7</ele><time>1970-01-01T01:47:42.000Z</time></trkpt><trkpt lat="14.73114" lon="101.162359"><ele>367</ele><time>1970-01-01T01:47:43.000Z</time></trkpt><trkpt lat="14.73116" lon="101.162378"><ele>367.2</ele><time>1970-01-01T01:47:44.000Z</time></trkpt><trkpt lat="14.731193" lon="101.162409"><ele>367.7</ele><time>1970-01-01T01:47:46.000Z</time></trkpt><trkpt lat="14.731218" lon="101.162442"><ele>368.3</ele><time>1970-01-01T01:47:48.000Z</time></trkpt><trkpt lat="14.731242" lon="101.162474"><ele>369</ele><time>1970-01-01T01:47:50.000Z</time></trkpt><trkpt lat="14.73126" lon="101.162507"><ele>369.7</ele><time>1970-01-01T01:47:52.000Z</time></trkpt><trkpt lat="14.731268" lon="101.162541"><ele>370.3</ele><time>1970-01-01T01:47:54.000Z</time></trkpt><trkpt lat="14.731288" lon="101.162563"><ele>370.6</ele><time>1970-01-01T01:47:56.000Z</time></trkpt><trkpt lat="14.731314" lon="101.162584"><ele>371</ele><time>1970-01-01T01:47:58.000Z</time></trkpt><trkpt lat="14.731334" lon="101.162609"><ele>371.5</ele><time>1970-01-01T01:48:00.000Z</time></trkpt><trkpt lat="14.73136" lon="101.162632"><ele>372.1</ele><time>1970-01-01T01:48:02.000Z</time></trkpt><trkpt lat="14.731412" lon="101.162646"><ele>373.5</ele><time>1970-01-01T01:48:04.000Z</time></trkpt><trkpt lat="14.731439" lon="101.162648"><ele>374.3</ele><time>1970-01-01T01:48:05.000Z</time></trkpt><trkpt lat="14.731485" lon="101.16264"><ele>374.2</ele><time>1970-01-01T01:48:07.000Z</time></trkpt><trkpt lat="14.731515" lon="101.162632"><ele>374.2</ele><time>1970-01-01T01:48:08.000Z</time></trkpt><trkpt lat="14.731548" lon="101.162621"><ele>374.3</ele><time>1970-01-01T01:48:09.000Z</time></trkpt><trkpt lat="14.731586" lon="101.162608"><ele>374.6</ele><time>1970-01-01T01:48:10.000Z</time></trkpt><trkpt lat="14.731624" lon="101.162596"><ele>374.6</ele><time>1970-01-01T01:48:11.000Z</time></trkpt><trkpt lat="14.731666" lon="101.162584"><ele>374.5</ele><time>1970-01-01T01:48:12.000Z</time></trkpt><trkpt lat="14.731708" lon="101.162572"><ele>374.8</ele><time>1970-01-01T01:48:13.000Z</time></trkpt><trkpt lat="14.731751" lon="101.16256"><ele>375.3</ele><time>1970-01-01T01:48:14.000Z</time></trkpt><trkpt lat="14.731795" lon="101.162548"><ele>376.1</ele><time>1970-01-01T01:48:15.000Z</time></trkpt><trkpt lat="14.731838" lon="101.162535"><ele>376.8</ele><time>1970-01-01T01:48:16.000Z</time></trkpt><trkpt lat="14.73188" lon="101.162524"><ele>377.1</ele><time>1970-01-01T01:48:17.000Z</time></trkpt><trkpt lat="14.73192" lon="101.162514"><ele>377.3</ele><time>1970-01-01T01:48:18.000Z</time></trkpt><trkpt lat="14.731963" lon="101.162505"><ele>378.2</ele><time>1970-01-01T01:48:19.000Z</time></trkpt><trkpt lat="14.732019" lon="101.162486"><ele>379.6</ele><time>1970-01-01T01:48:20.000Z</time></trkpt><trkpt lat="14.732059" lon="101.162468"><ele>379.7</ele><time>1970-01-01T01:48:21.000Z</time></trkpt><trkpt lat="14.732106" lon="101.162461"><ele>379.9</ele><time>1970-01-01T01:48:22.000Z</time></trkpt><trkpt lat="14.732145" lon="101.162444"><ele>380.4</ele><time>1970-01-01T01:48:23.000Z</time></trkpt><trkpt lat="14.73219" lon="101.162434"><ele>380.2</ele><time>1970-01-01T01:48:24.000Z</time></trkpt><trkpt lat="14.732228" lon="101.162423"><ele>379.2</ele><time>1970-01-01T01:48:25.000Z</time></trkpt><trkpt lat="14.732259" lon="101.162405"><ele>378.6</ele><time>1970-01-01T01:48:26.000Z</time></trkpt><trkpt lat="14.732292" lon="101.162386"><ele>378.5</ele><time>1970-01-01T01:48:27.000Z</time></trkpt><trkpt lat="14.732334" lon="101.162378"><ele>377.9</ele><time>1970-01-01T01:48:28.000Z</time></trkpt><trkpt lat="14.732382" lon="101.162359"><ele>376.2</ele><time>1970-01-01T01:48:29.000Z</time></trkpt><trkpt lat="14.732434" lon="101.162346"><ele>375.3</ele><time>1970-01-01T01:48:30.000Z</time></trkpt><trkpt lat="14.732488" lon="101.162341"><ele>374.8</ele><time>1970-01-01T01:48:31.000Z</time></trkpt><trkpt lat="14.73253" lon="101.162329"><ele>374.8</ele><time>1970-01-01T01:48:32.000Z</time></trkpt><trkpt lat="14.732563" lon="101.162316"><ele>374.9</ele><time>1970-01-01T01:48:33.000Z</time></trkpt><trkpt lat="14.732591" lon="101.162318"><ele>374.9</ele><time>1970-01-01T01:48:34.000Z</time></trkpt><trkpt lat="14.732622" lon="101.162328"><ele>375</ele><time>1970-01-01T01:48:35.000Z</time></trkpt><trkpt lat="14.732655" lon="101.162342"><ele>375.2</ele><time>1970-01-01T01:48:36.000Z</time></trkpt><trkpt lat="14.732684" lon="101.162359"><ele>375.3</ele><time>1970-01-01T01:48:37.000Z</time></trkpt><trkpt lat="14.732681" lon="101.1624"><ele>375.4</ele><time>1970-01-01T01:48:38.000Z</time></trkpt><trkpt lat="14.732683" lon="101.162436"><ele>375.9</ele><time>1970-01-01T01:48:39.000Z</time></trkpt><trkpt lat="14.732688" lon="101.162469"><ele>376.6</ele><time>1970-01-01T01:48:40.000Z</time></trkpt><trkpt lat="14.732695" lon="101.162503"><ele>377.3</ele><time>1970-01-01T01:48:41.000Z</time></trkpt><trkpt lat="14.732686" lon="101.162536"><ele>377.8</ele><time>1970-01-01T01:48:42.000Z</time></trkpt><trkpt lat="14.73268" lon="101.162566"><ele>378.2</ele><time>1970-01-01T01:48:43.000Z</time></trkpt><trkpt lat="14.73268" lon="101.162595"><ele>378.6</ele><time>1970-01-01T01:48:44.000Z</time></trkpt><trkpt lat="14.732686" lon="101.162628"><ele>379.2</ele><time>1970-01-01T01:48:45.000Z</time></trkpt><trkpt lat="14.732693" lon="101.162662"><ele>379.9</ele><time>1970-01-01T01:48:46.000Z</time></trkpt><trkpt lat="14.732702" lon="101.162698"><ele>380.2</ele><time>1970-01-01T01:48:47.000Z</time></trkpt><trkpt lat="14.73271" lon="101.162733"><ele>380.1</ele><time>1970-01-01T01:48:48.000Z</time></trkpt><trkpt lat="14.732719" lon="101.162765"><ele>379.9</ele><time>1970-01-01T01:48:49.000Z</time></trkpt><trkpt lat="14.732729" lon="101.162799"><ele>380.1</ele><time>1970-01-01T01:48:50.000Z</time></trkpt><trkpt lat="14.732741" lon="101.162834"><ele>380.3</ele><time>1970-01-01T01:48:51.000Z</time></trkpt><trkpt lat="14.732753" lon="101.162869"><ele>380.3</ele><time>1970-01-01T01:48:52.000Z</time></trkpt><trkpt lat="14.732767" lon="101.162905"><ele>379.6</ele><time>1970-01-01T01:48:53.000Z</time></trkpt><trkpt lat="14.732779" lon="101.162937"><ele>379.1</ele><time>1970-01-01T01:48:54.000Z</time></trkpt><trkpt lat="14.732786" lon="101.162967"><ele>378.9</ele><time>1970-01-01T01:48:55.000Z</time></trkpt><trkpt lat="14.7328" lon="101.163024"><ele>378.7</ele><time>1970-01-01T01:48:57.000Z</time></trkpt><trkpt lat="14.732808" lon="101.163057"><ele>378.7</ele><time>1970-01-01T01:48:58.000Z</time></trkpt><trkpt lat="14.732817" lon="101.16309"><ele>378.6</ele><time>1970-01-01T01:48:59.000Z</time></trkpt><trkpt lat="14.732825" lon="101.163122"><ele>378.6</ele><time>1970-01-01T01:49:00.000Z</time></trkpt><trkpt lat="14.732831" lon="101.163158"><ele>378.6</ele><time>1970-01-01T01:49:01.000Z</time></trkpt><trkpt lat="14.732839" lon="101.163194"><ele>378.7</ele><time>1970-01-01T01:49:02.000Z</time></trkpt><trkpt lat="14.732847" lon="101.163227"><ele>378.7</ele><time>1970-01-01T01:49:03.000Z</time></trkpt><trkpt lat="14.732851" lon="101.163265"><ele>378.9</ele><time>1970-01-01T01:49:04.000Z</time></trkpt><trkpt lat="14.732854" lon="101.163306"><ele>379.2</ele><time>1970-01-01T01:49:05.000Z</time></trkpt><trkpt lat="14.732855" lon="101.163348"><ele>379.6</ele><time>1970-01-01T01:49:06.000Z</time></trkpt><trkpt lat="14.732854" lon="101.163389"><ele>380.1</ele><time>1970-01-01T01:49:07.000Z</time></trkpt><trkpt lat="14.732853" lon="101.163427"><ele>380.6</ele><time>1970-01-01T01:49:08.000Z</time></trkpt><trkpt lat="14.732854" lon="101.163465"><ele>381.1</ele><time>1970-01-01T01:49:09.000Z</time></trkpt><trkpt lat="14.732858" lon="101.163501"><ele>381.5</ele><time>1970-01-01T01:49:10.000Z</time></trkpt><trkpt lat="14.732862" lon="101.163532"><ele>381.6</ele><time>1970-01-01T01:49:11.000Z</time></trkpt><trkpt lat="14.732864" lon="101.163564"><ele>381.7</ele><time>1970-01-01T01:49:12.000Z</time></trkpt><trkpt lat="14.732862" lon="101.163597"><ele>382</ele><time>1970-01-01T01:49:13.000Z</time></trkpt><trkpt lat="14.732858" lon="101.163632"><ele>382.7</ele><time>1970-01-01T01:49:14.000Z</time></trkpt><trkpt lat="14.732854" lon="101.163667"><ele>383.4</ele><time>1970-01-01T01:49:15.000Z</time></trkpt><trkpt lat="14.732847" lon="101.163702"><ele>383.4</ele><time>1970-01-01T01:49:16.000Z</time></trkpt><trkpt lat="14.732835" lon="101.163738"><ele>383.3</ele><time>1970-01-01T01:49:17.000Z</time></trkpt><trkpt lat="14.73282" lon="101.16377"><ele>383.8</ele><time>1970-01-01T01:49:18.000Z</time></trkpt><trkpt lat="14.732804" lon="101.1638"><ele>384.4</ele><time>1970-01-01T01:49:19.000Z</time></trkpt><trkpt lat="14.732787" lon="101.163833"><ele>384.8</ele><time>1970-01-01T01:49:20.000Z</time></trkpt><trkpt lat="14.73277" lon="101.163871"><ele>385</ele><time>1970-01-01T01:49:21.000Z</time></trkpt><trkpt lat="14.732753" lon="101.163907"><ele>384.9</ele><time>1970-01-01T01:49:22.000Z</time></trkpt><trkpt lat="14.732733" lon="101.163941"><ele>384.6</ele><time>1970-01-01T01:49:23.000Z</time></trkpt><trkpt lat="14.732709" lon="101.163979"><ele>384</ele><time>1970-01-01T01:49:24.000Z</time></trkpt><trkpt lat="14.732679" lon="101.164034"><ele>382.8</ele><time>1970-01-01T01:49:25.000Z</time></trkpt><trkpt lat="14.732654" lon="101.164078"><ele>382.2</ele><time>1970-01-01T01:49:26.000Z</time></trkpt><trkpt lat="14.732622" lon="101.164122"><ele>381.8</ele><time>1970-01-01T01:49:27.000Z</time></trkpt><trkpt lat="14.732628" lon="101.164173"><ele>381.6</ele><time>1970-01-01T01:49:28.000Z</time></trkpt><trkpt lat="14.732697" lon="101.164231"><ele>380</ele><time>1970-01-01T01:49:29.000Z</time></trkpt><trkpt lat="14.732748" lon="101.164267"><ele>379.1</ele><time>1970-01-01T01:49:30.000Z</time></trkpt><trkpt lat="14.732772" lon="101.164321"><ele>378.8</ele><time>1970-01-01T01:49:31.000Z</time></trkpt><trkpt lat="14.732796" lon="101.164371"><ele>378.6</ele><time>1970-01-01T01:49:32.000Z</time></trkpt><trkpt lat="14.732819" lon="101.164421"><ele>378.4</ele><time>1970-01-01T01:49:33.000Z</time></trkpt><trkpt lat="14.732818" lon="101.164463"><ele>378.3</ele><time>1970-01-01T01:49:34.000Z</time></trkpt><trkpt lat="14.732825" lon="101.164511"><ele>378</ele><time>1970-01-01T01:49:35.000Z</time></trkpt><trkpt lat="14.732835" lon="101.164565"><ele>377.8</ele><time>1970-01-01T01:49:36.000Z</time></trkpt><trkpt lat="14.73284" lon="101.164618"><ele>377.4</ele><time>1970-01-01T01:49:37.000Z</time></trkpt><trkpt lat="14.732855" lon="101.164678"><ele>376.4</ele><time>1970-01-01T01:49:38.000Z</time></trkpt><trkpt lat="14.732872" lon="101.164717"><ele>375.9</ele><time>1970-01-01T01:49:39.000Z</time></trkpt><trkpt lat="14.732872" lon="101.164783"><ele>375.5</ele><time>1970-01-01T01:49:40.000Z</time></trkpt><trkpt lat="14.732882" lon="101.164836"><ele>375.2</ele><time>1970-01-01T01:49:41.000Z</time></trkpt><trkpt lat="14.732865" lon="101.164882"><ele>374.8</ele><time>1970-01-01T01:49:42.000Z</time></trkpt><trkpt lat="14.732892" lon="101.164921"><ele>374.1</ele><time>1970-01-01T01:49:43.000Z</time></trkpt><trkpt lat="14.732882" lon="101.164974"><ele>373.8</ele><time>1970-01-01T01:49:44.000Z</time></trkpt><trkpt lat="14.732897" lon="101.165021"><ele>374</ele><time>1970-01-01T01:49:45.000Z</time></trkpt><trkpt lat="14.7329" lon="101.165075"><ele>374.3</ele><time>1970-01-01T01:49:46.000Z</time></trkpt><trkpt lat="14.73291" lon="101.165131"><ele>374.3</ele><time>1970-01-01T01:49:47.000Z</time></trkpt><trkpt lat="14.732928" lon="101.165178"><ele>373.4</ele><time>1970-01-01T01:49:48.000Z</time></trkpt><trkpt lat="14.732939" lon="101.165233"><ele>373.4</ele><time>1970-01-01T01:49:49.000Z</time></trkpt><trkpt lat="14.732948" lon="101.165288"><ele>372.7</ele><time>1970-01-01T01:49:50.000Z</time></trkpt><trkpt lat="14.732961" lon="101.165349"><ele>371.6</ele><time>1970-01-01T01:49:51.000Z</time></trkpt><trkpt lat="14.732958" lon="101.165395"><ele>370.1</ele><time>1970-01-01T01:49:52.000Z</time></trkpt><trkpt lat="14.732964" lon="101.165432"><ele>368.8</ele><time>1970-01-01T01:49:53.000Z</time></trkpt><trkpt lat="14.733016" lon="101.16549"><ele>367.3</ele><time>1970-01-01T01:49:54.000Z</time></trkpt><trkpt lat="14.733038" lon="101.165528"><ele>366</ele><time>1970-01-01T01:49:55.000Z</time></trkpt><trkpt lat="14.733081" lon="101.165547"><ele>364.8</ele><time>1970-01-01T01:49:56.000Z</time></trkpt><trkpt lat="14.733124" lon="101.165573"><ele>364.2</ele><time>1970-01-01T01:49:57.000Z</time></trkpt><trkpt lat="14.73315" lon="101.165596"><ele>363.7</ele><time>1970-01-01T01:49:58.000Z</time></trkpt><trkpt lat="14.733206" lon="101.16562"><ele>362.6</ele><time>1970-01-01T01:49:59.000Z</time></trkpt><trkpt lat="14.73325" lon="101.165645"><ele>362.1</ele><time>1970-01-01T01:50:00.000Z</time></trkpt><trkpt lat="14.73331" lon="101.165662"><ele>361.7</ele><time>1970-01-01T01:50:01.000Z</time></trkpt><trkpt lat="14.733341" lon="101.165686"><ele>361.6</ele><time>1970-01-01T01:50:02.000Z</time></trkpt><trkpt lat="14.733385" lon="101.165714"><ele>361.5</ele><time>1970-01-01T01:50:03.000Z</time></trkpt><trkpt lat="14.73342" lon="101.165736"><ele>361.5</ele><time>1970-01-01T01:50:04.000Z</time></trkpt><trkpt lat="14.733476" lon="101.165754"><ele>361.3</ele><time>1970-01-01T01:50:05.000Z</time></trkpt><trkpt lat="14.733519" lon="101.165755"><ele>361.1</ele><time>1970-01-01T01:50:06.000Z</time></trkpt><trkpt lat="14.733543" lon="101.165772"><ele>361</ele><time>1970-01-01T01:50:07.000Z</time></trkpt><trkpt lat="14.733594" lon="101.165768"><ele>360.8</ele><time>1970-01-01T01:50:08.000Z</time></trkpt><trkpt lat="14.733635" lon="101.16578"><ele>360.6</ele><time>1970-01-01T01:50:09.000Z</time></trkpt><trkpt lat="14.733675" lon="101.165801"><ele>360</ele><time>1970-01-01T01:50:10.000Z</time></trkpt><trkpt lat="14.733733" lon="101.165802"><ele>359.3</ele><time>1970-01-01T01:50:11.000Z</time></trkpt><trkpt lat="14.733781" lon="101.165805"><ele>358.8</ele><time>1970-01-01T01:50:12.000Z</time></trkpt><trkpt lat="14.733824" lon="101.165805"><ele>358.4</ele><time>1970-01-01T01:50:13.000Z</time></trkpt><trkpt lat="14.733868" lon="101.165803"><ele>358.1</ele><time>1970-01-01T01:50:14.000Z</time></trkpt><trkpt lat="14.73392" lon="101.165807"><ele>358.2</ele><time>1970-01-01T01:50:15.000Z</time></trkpt><trkpt lat="14.733966" lon="101.16581"><ele>358.5</ele><time>1970-01-01T01:50:16.000Z</time></trkpt><trkpt lat="14.734007" lon="101.165821"><ele>359</ele><time>1970-01-01T01:50:17.000Z</time></trkpt><trkpt lat="14.734055" lon="101.165816"><ele>359.6</ele><time>1970-01-01T01:50:18.000Z</time></trkpt><trkpt lat="14.734102" lon="101.165814"><ele>360</ele><time>1970-01-01T01:50:19.000Z</time></trkpt><trkpt lat="14.734152" lon="101.165814"><ele>360.4</ele><time>1970-01-01T01:50:20.000Z</time></trkpt><trkpt lat="14.734196" lon="101.165819"><ele>360.6</ele><time>1970-01-01T01:50:21.000Z</time></trkpt><trkpt lat="14.734257" lon="101.165821"><ele>360.8</ele><time>1970-01-01T01:50:22.000Z</time></trkpt><trkpt lat="14.734305" lon="101.165841"><ele>361.1</ele><time>1970-01-01T01:50:23.000Z</time></trkpt><trkpt lat="14.73435" lon="101.165854"><ele>361.4</ele><time>1970-01-01T01:50:24.000Z</time></trkpt><trkpt lat="14.734399" lon="101.165869"><ele>361.8</ele><time>1970-01-01T01:50:25.000Z</time></trkpt><trkpt lat="14.734441" lon="101.165891"><ele>362</ele><time>1970-01-01T01:50:26.000Z</time></trkpt><trkpt lat="14.734476" lon="101.165893"><ele>362.2</ele><time>1970-01-01T01:50:27.000Z</time></trkpt><trkpt lat="14.734509" lon="101.16587"><ele>362.5</ele><time>1970-01-01T01:50:29.000Z</time></trkpt><trkpt lat="14.734537" lon="101.165851"><ele>362.5</ele><time>1970-01-01T01:50:30.000Z</time></trkpt><trkpt lat="14.734565" lon="101.165828"><ele>362.6</ele><time>1970-01-01T01:50:31.000Z</time></trkpt><trkpt lat="14.734578" lon="101.165803"><ele>362.6</ele><time>1970-01-01T01:50:32.000Z</time></trkpt><trkpt lat="14.734613" lon="101.165762"><ele>362.7</ele><time>1970-01-01T01:50:34.000Z</time></trkpt><trkpt lat="14.734632" lon="101.16573"><ele>362.9</ele><time>1970-01-01T01:50:35.000Z</time></trkpt><trkpt lat="14.734645" lon="101.165699"><ele>362.6</ele><time>1970-01-01T01:50:36.000Z</time></trkpt><trkpt lat="14.734651" lon="101.165671"><ele>362.3</ele><time>1970-01-01T01:50:37.000Z</time></trkpt><trkpt lat="14.734661" lon="101.165642"><ele>362.3</ele><time>1970-01-01T01:50:38.000Z</time></trkpt><trkpt lat="14.734677" lon="101.165611"><ele>362.2</ele><time>1970-01-01T01:50:39.000Z</time></trkpt><trkpt lat="14.7347" lon="101.165577"><ele>361.9</ele><time>1970-01-01T01:50:40.000Z</time></trkpt><trkpt lat="14.734725" lon="101.165544"><ele>362</ele><time>1970-01-01T01:50:41.000Z</time></trkpt><trkpt lat="14.734752" lon="101.165515"><ele>361.7</ele><time>1970-01-01T01:50:42.000Z</time></trkpt><trkpt lat="14.734781" lon="101.165485"><ele>361.3</ele><time>1970-01-01T01:50:43.000Z</time></trkpt><trkpt lat="14.734812" lon="101.165457"><ele>361.5</ele><time>1970-01-01T01:50:44.000Z</time></trkpt><trkpt lat="14.734846" lon="101.165433"><ele>361.2</ele><time>1970-01-01T01:50:45.000Z</time></trkpt><trkpt lat="14.734882" lon="101.165416"><ele>361.5</ele><time>1970-01-01T01:50:46.000Z</time></trkpt><trkpt lat="14.734912" lon="101.165418"><ele>361.5</ele><time>1970-01-01T01:50:47.000Z</time></trkpt><trkpt lat="14.734939" lon="101.165437"><ele>361.7</ele><time>1970-01-01T01:50:48.000Z</time></trkpt><trkpt lat="14.734967" lon="101.165463"><ele>362.7</ele><time>1970-01-01T01:50:49.000Z</time></trkpt><trkpt lat="14.734996" lon="101.165487"><ele>362.7</ele><time>1970-01-01T01:50:50.000Z</time></trkpt><trkpt lat="14.735027" lon="101.165499"><ele>362.7</ele><time>1970-01-01T01:50:51.000Z</time></trkpt><trkpt lat="14.735054" lon="101.165503"><ele>363.7</ele><time>1970-01-01T01:50:52.000Z</time></trkpt><trkpt lat="14.735081" lon="101.165506"><ele>363.7</ele><time>1970-01-01T01:50:53.000Z</time></trkpt><trkpt lat="14.735116" lon="101.165509"><ele>363.7</ele><time>1970-01-01T01:50:54.000Z</time></trkpt><trkpt lat="14.735147" lon="101.165516"><ele>363.8</ele><time>1970-01-01T01:50:55.000Z</time></trkpt><trkpt lat="14.735176" lon="101.165524"><ele>363.8</ele><time>1970-01-01T01:50:56.000Z</time></trkpt><trkpt lat="14.735206" lon="101.165532"><ele>363.8</ele><time>1970-01-01T01:50:57.000Z</time></trkpt><trkpt lat="14.735236" lon="101.165537"><ele>363.8</ele><time>1970-01-01T01:50:58.000Z</time></trkpt><trkpt lat="14.73527" lon="101.165527"><ele>363.7</ele><time>1970-01-01T01:50:59.000Z</time></trkpt><trkpt lat="14.735308" lon="101.165505"><ele>363.6</ele><time>1970-01-01T01:51:00.000Z</time></trkpt><trkpt lat="14.735353" lon="101.165438"><ele>361.9</ele><time>1970-01-01T01:51:01.000Z</time></trkpt><trkpt lat="14.735395" lon="101.165424"><ele>361.9</ele><time>1970-01-01T01:51:02.000Z</time></trkpt><trkpt lat="14.73544" lon="101.165418"><ele>362</ele><time>1970-01-01T01:51:03.000Z</time></trkpt><trkpt lat="14.735473" lon="101.165386"><ele>361.8</ele><time>1970-01-01T01:51:04.000Z</time></trkpt><trkpt lat="14.735495" lon="101.165351"><ele>361.5</ele><time>1970-01-01T01:51:05.000Z</time></trkpt><trkpt lat="14.735521" lon="101.165315"><ele>361.3</ele><time>1970-01-01T01:51:06.000Z</time></trkpt><trkpt lat="14.735544" lon="101.165288"><ele>361.3</ele><time>1970-01-01T01:51:07.000Z</time></trkpt><trkpt lat="14.735587" lon="101.165256"><ele>361.1</ele><time>1970-01-01T01:51:08.000Z</time></trkpt><trkpt lat="14.735633" lon="101.165228"><ele>361.2</ele><time>1970-01-01T01:51:09.000Z</time></trkpt><trkpt lat="14.735686" lon="101.165197"><ele>361.4</ele><time>1970-01-01T01:51:10.000Z</time></trkpt><trkpt lat="14.735738" lon="101.16518"><ele>361.5</ele><time>1970-01-01T01:51:11.000Z</time></trkpt><trkpt lat="14.735785" lon="101.165174"><ele>361.6</ele><time>1970-01-01T01:51:12.000Z</time></trkpt><trkpt lat="14.735836" lon="101.165186"><ele>361.4</ele><time>1970-01-01T01:51:13.000Z</time></trkpt><trkpt lat="14.735864" lon="101.165215"><ele>361.7</ele><time>1970-01-01T01:51:14.000Z</time></trkpt><trkpt lat="14.735871" lon="101.165243"><ele>362</ele><time>1970-01-01T01:51:15.000Z</time></trkpt><trkpt lat="14.735874" lon="101.165277"><ele>361.7</ele><time>1970-01-01T01:51:16.000Z</time></trkpt><trkpt lat="14.735873" lon="101.165314"><ele>362</ele><time>1970-01-01T01:51:17.000Z</time></trkpt><trkpt lat="14.735882" lon="101.16535"><ele>362.3</ele><time>1970-01-01T01:51:18.000Z</time></trkpt><trkpt lat="14.735899" lon="101.165387"><ele>362.5</ele><time>1970-01-01T01:51:19.000Z</time></trkpt><trkpt lat="14.735926" lon="101.16541"><ele>362.2</ele><time>1970-01-01T01:51:20.000Z</time></trkpt><trkpt lat="14.73596" lon="101.165434"><ele>362</ele><time>1970-01-01T01:51:21.000Z</time></trkpt><trkpt lat="14.735994" lon="101.165462"><ele>362.1</ele><time>1970-01-01T01:51:22.000Z</time></trkpt><trkpt lat="14.736032" lon="101.165485"><ele>361.7</ele><time>1970-01-01T01:51:23.000Z</time></trkpt><trkpt lat="14.736075" lon="101.16551"><ele>361.2</ele><time>1970-01-01T01:51:24.000Z</time></trkpt><trkpt lat="14.736123" lon="101.165535"><ele>360</ele><time>1970-01-01T01:51:25.000Z</time></trkpt><trkpt lat="14.736165" lon="101.165559"><ele>359.4</ele><time>1970-01-01T01:51:26.000Z</time></trkpt><trkpt lat="14.736205" lon="101.165581"><ele>358.7</ele><time>1970-01-01T01:51:27.000Z</time></trkpt><trkpt lat="14.736251" lon="101.165591"><ele>358.4</ele><time>1970-01-01T01:51:28.000Z</time></trkpt><trkpt lat="14.736298" lon="101.165583"><ele>357.7</ele><time>1970-01-01T01:51:29.000Z</time></trkpt><trkpt lat="14.736339" lon="101.165593"><ele>357.7</ele><time>1970-01-01T01:51:30.000Z</time></trkpt><trkpt lat="14.736387" lon="101.165599"><ele>357.5</ele><time>1970-01-01T01:51:31.000Z</time></trkpt><trkpt lat="14.736425" lon="101.165622"><ele>357.3</ele><time>1970-01-01T01:51:32.000Z</time></trkpt><trkpt lat="14.736473" lon="101.16563"><ele>357.4</ele><time>1970-01-01T01:51:33.000Z</time></trkpt><trkpt lat="14.736521" lon="101.165635"><ele>357.4</ele><time>1970-01-01T01:51:34.000Z</time></trkpt><trkpt lat="14.736572" lon="101.165635"><ele>357.4</ele><time>1970-01-01T01:51:35.000Z</time></trkpt><trkpt lat="14.736623" lon="101.165639"><ele>357.5</ele><time>1970-01-01T01:51:36.000Z</time></trkpt><trkpt lat="14.73668" lon="101.165637"><ele>357.6</ele><time>1970-01-01T01:51:37.000Z</time></trkpt><trkpt lat="14.736738" lon="101.165629"><ele>357.6</ele><time>1970-01-01T01:51:38.000Z</time></trkpt><trkpt lat="14.736796" lon="101.165621"><ele>357.3</ele><time>1970-01-01T01:51:39.000Z</time></trkpt><trkpt lat="14.736857" lon="101.165613"><ele>357.1</ele><time>1970-01-01T01:51:40.000Z</time></trkpt><trkpt lat="14.736918" lon="101.165622"><ele>356.6</ele><time>1970-01-01T01:51:41.000Z</time></trkpt><trkpt lat="14.736976" lon="101.165639"><ele>356.2</ele><time>1970-01-01T01:51:42.000Z</time></trkpt><trkpt lat="14.737017" lon="101.165652"><ele>356.2</ele><time>1970-01-01T01:51:43.000Z</time></trkpt><trkpt lat="14.737055" lon="101.165635"><ele>356.1</ele><time>1970-01-01T01:51:44.000Z</time></trkpt><trkpt lat="14.737083" lon="101.165614"><ele>356.1</ele><time>1970-01-01T01:51:45.000Z</time></trkpt><trkpt lat="14.737108" lon="101.165602"><ele>356</ele><time>1970-01-01T01:51:46.000Z</time></trkpt><trkpt lat="14.73714" lon="101.165579"><ele>355.8</ele><time>1970-01-01T01:51:47.000Z</time></trkpt><trkpt lat="14.737174" lon="101.165556"><ele>355.7</ele><time>1970-01-01T01:51:48.000Z</time></trkpt><trkpt lat="14.737206" lon="101.165533"><ele>355.6</ele><time>1970-01-01T01:51:49.000Z</time></trkpt><trkpt lat="14.737241" lon="101.165508"><ele>355.5</ele><time>1970-01-01T01:51:50.000Z</time></trkpt><trkpt lat="14.737273" lon="101.165482"><ele>355.5</ele><time>1970-01-01T01:51:51.000Z</time></trkpt><trkpt lat="14.737309" lon="101.165457"><ele>355.5</ele><time>1970-01-01T01:51:52.000Z</time></trkpt><trkpt lat="14.737347" lon="101.16543"><ele>355.7</ele><time>1970-01-01T01:51:53.000Z</time></trkpt><trkpt lat="14.737383" lon="101.165407"><ele>355.9</ele><time>1970-01-01T01:51:54.000Z</time></trkpt><trkpt lat="14.73742" lon="101.165381"><ele>355.8</ele><time>1970-01-01T01:51:55.000Z</time></trkpt><trkpt lat="14.737456" lon="101.165356"><ele>355.7</ele><time>1970-01-01T01:51:56.000Z</time></trkpt><trkpt lat="14.737491" lon="101.165335"><ele>355.7</ele><time>1970-01-01T01:51:57.000Z</time></trkpt><trkpt lat="14.737525" lon="101.165313"><ele>355.7</ele><time>1970-01-01T01:51:58.000Z</time></trkpt><trkpt lat="14.737558" lon="101.165291"><ele>355.8</ele><time>1970-01-01T01:51:59.000Z</time></trkpt><trkpt lat="14.737596" lon="101.165266"><ele>355.9</ele><time>1970-01-01T01:52:00.000Z</time></trkpt><trkpt lat="14.737632" lon="101.165236"><ele>355.8</ele><time>1970-01-01T01:52:01.000Z</time></trkpt><trkpt lat="14.737675" lon="101.165209"><ele>355.8</ele><time>1970-01-01T01:52:02.000Z</time></trkpt><trkpt lat="14.737718" lon="101.165179"><ele>355.7</ele><time>1970-01-01T01:52:04.000Z</time></trkpt><trkpt lat="14.737754" lon="101.165141"><ele>355.7</ele><time>1970-01-01T01:52:05.000Z</time></trkpt><trkpt lat="14.737793" lon="101.165117"><ele>355.8</ele><time>1970-01-01T01:52:06.000Z</time></trkpt><trkpt lat="14.737831" lon="101.165095"><ele>356</ele><time>1970-01-01T01:52:07.000Z</time></trkpt><trkpt lat="14.737875" lon="101.165073"><ele>356.2</ele><time>1970-01-01T01:52:08.000Z</time></trkpt><trkpt lat="14.737906" lon="101.165055"><ele>356.4</ele><time>1970-01-01T01:52:09.000Z</time></trkpt><trkpt lat="14.73794" lon="101.165029"><ele>356.7</ele><time>1970-01-01T01:52:10.000Z</time></trkpt><trkpt lat="14.737967" lon="101.165008"><ele>357</ele><time>1970-01-01T01:52:11.000Z</time></trkpt><trkpt lat="14.738" lon="101.16499"><ele>357.3</ele><time>1970-01-01T01:52:12.000Z</time></trkpt><trkpt lat="14.738032" lon="101.164968"><ele>357.6</ele><time>1970-01-01T01:52:13.000Z</time></trkpt><trkpt lat="14.738063" lon="101.164946"><ele>357.9</ele><time>1970-01-01T01:52:14.000Z</time></trkpt><trkpt lat="14.738093" lon="101.164924"><ele>358.1</ele><time>1970-01-01T01:52:15.000Z</time></trkpt><trkpt lat="14.738125" lon="101.164904"><ele>358.2</ele><time>1970-01-01T01:52:16.000Z</time></trkpt><trkpt lat="14.738157" lon="101.164883"><ele>358.3</ele><time>1970-01-01T01:52:17.000Z</time></trkpt><trkpt lat="14.738188" lon="101.164862"><ele>358.4</ele><time>1970-01-01T01:52:18.000Z</time></trkpt><trkpt lat="14.738219" lon="101.164842"><ele>358.4</ele><time>1970-01-01T01:52:19.000Z</time></trkpt><trkpt lat="14.738251" lon="101.16482"><ele>358.6</ele><time>1970-01-01T01:52:20.000Z</time></trkpt><trkpt lat="14.738282" lon="101.164798"><ele>358.8</ele><time>1970-01-01T01:52:21.000Z</time></trkpt><trkpt lat="14.738314" lon="101.164777"><ele>359</ele><time>1970-01-01T01:52:22.000Z</time></trkpt><trkpt lat="14.738345" lon="101.164757"><ele>359.2</ele><time>1970-01-01T01:52:23.000Z</time></trkpt><trkpt lat="14.738377" lon="101.164738"><ele>359.3</ele><time>1970-01-01T01:52:24.000Z</time></trkpt><trkpt lat="14.738409" lon="101.164718"><ele>359.4</ele><time>1970-01-01T01:52:25.000Z</time></trkpt><trkpt lat="14.738441" lon="101.164698"><ele>359.7</ele><time>1970-01-01T01:52:26.000Z</time></trkpt><trkpt lat="14.738474" lon="101.16468"><ele>360.1</ele><time>1970-01-01T01:52:27.000Z</time></trkpt><trkpt lat="14.738505" lon="101.164664"><ele>360.4</ele><time>1970-01-01T01:52:28.000Z</time></trkpt><trkpt lat="14.738531" lon="101.164648"><ele>360.7</ele><time>1970-01-01T01:52:29.000Z</time></trkpt><trkpt lat="14.738556" lon="101.16463"><ele>360.9</ele><time>1970-01-01T01:52:30.000Z</time></trkpt><trkpt lat="14.73858" lon="101.16461"><ele>361.1</ele><time>1970-01-01T01:52:31.000Z</time></trkpt><trkpt lat="14.738605" lon="101.164589"><ele>361.3</ele><time>1970-01-01T01:52:32.000Z</time></trkpt><trkpt lat="14.738631" lon="101.164566"><ele>361.5</ele><time>1970-01-01T01:52:33.000Z</time></trkpt><trkpt lat="14.738656" lon="101.164544"><ele>361.7</ele><time>1970-01-01T01:52:34.000Z</time></trkpt><trkpt lat="14.738683" lon="101.164522"><ele>362</ele><time>1970-01-01T01:52:35.000Z</time></trkpt><trkpt lat="14.73871" lon="101.164501"><ele>362.3</ele><time>1970-01-01T01:52:36.000Z</time></trkpt><trkpt lat="14.738737" lon="101.164478"><ele>362.5</ele><time>1970-01-01T01:52:37.000Z</time></trkpt><trkpt lat="14.738765" lon="101.164455"><ele>362.9</ele><time>1970-01-01T01:52:38.000Z</time></trkpt><trkpt lat="14.738792" lon="101.164433"><ele>363.2</ele><time>1970-01-01T01:52:39.000Z</time></trkpt><trkpt lat="14.738819" lon="101.164412"><ele>363.5</ele><time>1970-01-01T01:52:40.000Z</time></trkpt><trkpt lat="14.738845" lon="101.164395"><ele>363.6</ele><time>1970-01-01T01:52:41.000Z</time></trkpt><trkpt lat="14.738872" lon="101.164379"><ele>363.8</ele><time>1970-01-01T01:52:42.000Z</time></trkpt><trkpt lat="14.738902" lon="101.164361"><ele>363.8</ele><time>1970-01-01T01:52:43.000Z</time></trkpt><trkpt lat="14.738932" lon="101.164341"><ele>363.9</ele><time>1970-01-01T01:52:44.000Z</time></trkpt><trkpt lat="14.738962" lon="101.16432"><ele>363.9</ele><time>1970-01-01T01:52:45.000Z</time></trkpt><trkpt lat="14.738993" lon="101.1643"><ele>364</ele><time>1970-01-01T01:52:46.000Z</time></trkpt><trkpt lat="14.739022" lon="101.164279"><ele>364.1</ele><time>1970-01-01T01:52:47.000Z</time></trkpt><trkpt lat="14.73905" lon="101.164257"><ele>364.2</ele><time>1970-01-01T01:52:48.000Z</time></trkpt><trkpt lat="14.739078" lon="101.164233"><ele>364.4</ele><time>1970-01-01T01:52:49.000Z</time></trkpt><trkpt lat="14.739105" lon="101.164209"><ele>364.8</ele><time>1970-01-01T01:52:50.000Z</time></trkpt><trkpt lat="14.739132" lon="101.164187"><ele>365.3</ele><time>1970-01-01T01:52:51.000Z</time></trkpt><trkpt lat="14.739158" lon="101.164167"><ele>365.4</ele><time>1970-01-01T01:52:52.000Z</time></trkpt><trkpt lat="14.739184" lon="101.164148"><ele>365.4</ele><time>1970-01-01T01:52:53.000Z</time></trkpt><trkpt lat="14.739207" lon="101.16413"><ele>365.7</ele><time>1970-01-01T01:52:54.000Z</time></trkpt><trkpt lat="14.739246" lon="101.164101"><ele>365.9</ele><time>1970-01-01T01:52:56.000Z</time></trkpt><trkpt lat="14.739261" lon="101.16406"><ele>365.8</ele><time>1970-01-01T01:52:58.000Z</time></trkpt><trkpt lat="14.73922" lon="101.164026"><ele>365.9</ele><time>1970-01-01T01:53:00.000Z</time></trkpt><trkpt lat="14.739178" lon="101.16401"><ele>366.1</ele><time>1970-01-01T01:53:01.000Z</time></trkpt><trkpt lat="14.739104" lon="101.163995"><ele>366</ele><time>1970-01-01T01:53:02.000Z</time></trkpt><trkpt lat="14.739072" lon="101.163961"><ele>365.9</ele><time>1970-01-01T01:53:03.000Z</time></trkpt><trkpt lat="14.739036" lon="101.163908"><ele>365.6</ele><time>1970-01-01T01:53:04.000Z</time></trkpt><trkpt lat="14.739003" lon="101.163849"><ele>364.9</ele><time>1970-01-01T01:53:05.000Z</time></trkpt><trkpt lat="14.738958" lon="101.163793"><ele>363.9</ele><time>1970-01-01T01:53:06.000Z</time></trkpt><trkpt lat="14.738893" lon="101.163751"><ele>363</ele><time>1970-01-01T01:53:07.000Z</time></trkpt><trkpt lat="14.738882" lon="101.163661"><ele>362.1</ele><time>1970-01-01T01:53:08.000Z</time></trkpt><trkpt lat="14.738903" lon="101.163542"><ele>361.5</ele><time>1970-01-01T01:53:09.000Z</time></trkpt><trkpt lat="14.738903" lon="101.163441"><ele>362.1</ele><time>1970-01-01T01:53:10.000Z</time></trkpt><trkpt lat="14.738941" lon="101.163363"><ele>362.6</ele><time>1970-01-01T01:53:11.000Z</time></trkpt><trkpt lat="14.738974" lon="101.163271"><ele>362.9</ele><time>1970-01-01T01:53:12.000Z</time></trkpt><trkpt lat="14.739016" lon="101.16319"><ele>363.5</ele><time>1970-01-01T01:53:13.000Z</time></trkpt><trkpt lat="14.739057" lon="101.163117"><ele>364</ele><time>1970-01-01T01:53:14.000Z</time></trkpt><trkpt lat="14.739087" lon="101.16304"><ele>364.1</ele><time>1970-01-01T01:53:15.000Z</time></trkpt><trkpt lat="14.739131" lon="101.162968"><ele>363.8</ele><time>1970-01-01T01:53:16.000Z</time></trkpt><trkpt lat="14.739165" lon="101.162907"><ele>363.4</ele><time>1970-01-01T01:53:17.000Z</time></trkpt><trkpt lat="14.739213" lon="101.162827"><ele>363.3</ele><time>1970-01-01T01:53:18.000Z</time></trkpt><trkpt lat="14.739247" lon="101.162733"><ele>361.5</ele><time>1970-01-01T01:53:19.000Z</time></trkpt><trkpt lat="14.739309" lon="101.162649"><ele>358.9</ele><time>1970-01-01T01:53:20.000Z</time></trkpt><trkpt lat="14.739365" lon="101.162563"><ele>356.1</ele><time>1970-01-01T01:53:21.000Z</time></trkpt><trkpt lat="14.739446" lon="101.162485"><ele>355</ele><time>1970-01-01T01:53:22.000Z</time></trkpt><trkpt lat="14.739489" lon="101.162423"><ele>355</ele><time>1970-01-01T01:53:23.000Z</time></trkpt><trkpt lat="14.739527" lon="101.162379"><ele>355</ele><time>1970-01-01T01:53:24.000Z</time></trkpt><trkpt lat="14.739518" lon="101.162421"><ele>355</ele><time>1970-01-01T01:53:30.000Z</time></trkpt><trkpt lat="14.739505" lon="101.162454"><ele>355</ele><time>1970-01-01T01:53:32.000Z</time></trkpt><trkpt lat="14.739487" lon="101.162496"><ele>355</ele><time>1970-01-01T01:53:35.000Z</time></trkpt><trkpt lat="14.739513" lon="101.162515"><ele>355</ele><time>1970-01-01T01:53:37.000Z</time></trkpt><trkpt lat="14.73955" lon="101.162516"><ele>355</ele><time>1970-01-01T01:53:39.000Z</time></trkpt><trkpt lat="14.739591" lon="101.162507"><ele>355</ele><time>1970-01-01T01:53:41.000Z</time></trkpt><trkpt lat="14.739623" lon="101.162505"><ele>355.2</ele><time>1970-01-01T01:53:42.000Z</time></trkpt><trkpt lat="14.73966" lon="101.162501"><ele>355.6</ele><time>1970-01-01T01:53:43.000Z</time></trkpt><trkpt lat="14.739696" lon="101.162501"><ele>355.7</ele><time>1970-01-01T01:53:44.000Z</time></trkpt><trkpt lat="14.739729" lon="101.162503"><ele>355.6</ele><time>1970-01-01T01:53:45.000Z</time></trkpt><trkpt lat="14.739766" lon="101.162507"><ele>355.4</ele><time>1970-01-01T01:53:46.000Z</time></trkpt><trkpt lat="14.739804" lon="101.162512"><ele>355.6</ele><time>1970-01-01T01:53:47.000Z</time></trkpt><trkpt lat="14.739841" lon="101.16252"><ele>355.9</ele><time>1970-01-01T01:53:48.000Z</time></trkpt><trkpt lat="14.739877" lon="101.162527"><ele>356</ele><time>1970-01-01T01:53:49.000Z</time></trkpt><trkpt lat="14.739916" lon="101.162537"><ele>356.1</ele><time>1970-01-01T01:53:50.000Z</time></trkpt><trkpt lat="14.739953" lon="101.162546"><ele>356.5</ele><time>1970-01-01T01:53:51.000Z</time></trkpt><trkpt lat="14.739986" lon="101.162554"><ele>356.9</ele><time>1970-01-01T01:53:52.000Z</time></trkpt><trkpt lat="14.740021" lon="101.162562"><ele>356.9</ele><time>1970-01-01T01:53:53.000Z</time></trkpt><trkpt lat="14.740051" lon="101.16257"><ele>356.7</ele><time>1970-01-01T01:53:54.000Z</time></trkpt><trkpt lat="14.740089" lon="101.162587"><ele>356.5</ele><time>1970-01-01T01:53:56.000Z</time></trkpt><trkpt lat="14.740125" lon="101.162612"><ele>356.4</ele><time>1970-01-01T01:53:58.000Z</time></trkpt><trkpt lat="14.740151" lon="101.162623"><ele>356.1</ele><time>1970-01-01T01:53:59.000Z</time></trkpt><trkpt lat="14.740181" lon="101.162632"><ele>355.7</ele><time>1970-01-01T01:54:00.000Z</time></trkpt><trkpt lat="14.740213" lon="101.16264"><ele>355.3</ele><time>1970-01-01T01:54:01.000Z</time></trkpt><trkpt lat="14.74025" lon="101.162649"><ele>355.1</ele><time>1970-01-01T01:54:02.000Z</time></trkpt><trkpt lat="14.740289" lon="101.162659"><ele>355</ele><time>1970-01-01T01:54:03.000Z</time></trkpt><trkpt lat="14.74032" lon="101.162668"><ele>355.1</ele><time>1970-01-01T01:54:04.000Z</time></trkpt><trkpt lat="14.740349" lon="101.162678"><ele>355.2</ele><time>1970-01-01T01:54:05.000Z</time></trkpt><trkpt lat="14.740379" lon="101.162693"><ele>355.7</ele><time>1970-01-01T01:54:06.000Z</time></trkpt><trkpt lat="14.740418" lon="101.162719"><ele>356.6</ele><time>1970-01-01T01:54:07.000Z</time></trkpt><trkpt lat="14.740455" lon="101.162747"><ele>358.4</ele><time>1970-01-01T01:54:08.000Z</time></trkpt><trkpt lat="14.740484" lon="101.162771"><ele>360.1</ele><time>1970-01-01T01:54:09.000Z</time></trkpt><trkpt lat="14.740506" lon="101.162791"><ele>361.3</ele><time>1970-01-01T01:54:10.000Z</time></trkpt><trkpt lat="14.740527" lon="101.162812"><ele>362</ele><time>1970-01-01T01:54:11.000Z</time></trkpt><trkpt lat="14.740546" lon="101.162833"><ele>362.8</ele><time>1970-01-01T01:54:12.000Z</time></trkpt><trkpt lat="14.740574" lon="101.162875"><ele>363.8</ele><time>1970-01-01T01:54:14.000Z</time></trkpt><trkpt lat="14.740603" lon="101.162913"><ele>364.5</ele><time>1970-01-01T01:54:16.000Z</time></trkpt><trkpt lat="14.740649" lon="101.162942"><ele>365</ele><time>1970-01-01T01:54:18.000Z</time></trkpt><trkpt lat="14.740685" lon="101.162951"><ele>365.2</ele><time>1970-01-01T01:54:19.000Z</time></trkpt><trkpt lat="14.740724" lon="101.162958"><ele>366.1</ele><time>1970-01-01T01:54:20.000Z</time></trkpt><trkpt lat="14.740753" lon="101.162967"><ele>367</ele><time>1970-01-01T01:54:21.000Z</time></trkpt><trkpt lat="14.740781" lon="101.162979"><ele>367.6</ele><time>1970-01-01T01:54:22.000Z</time></trkpt><trkpt lat="14.740807" lon="101.162996"><ele>367.1</ele><time>1970-01-01T01:54:23.000Z</time></trkpt><trkpt lat="14.74083" lon="101.163011"><ele>366.7</ele><time>1970-01-01T01:54:24.000Z</time></trkpt><trkpt lat="14.740865" lon="101.163045"><ele>366.5</ele><time>1970-01-01T01:54:26.000Z</time></trkpt><trkpt lat="14.740899" lon="101.163072"><ele>366.8</ele><time>1970-01-01T01:54:28.000Z</time></trkpt><trkpt lat="14.740918" lon="101.163092"><ele>366.8</ele><time>1970-01-01T01:54:30.000Z</time></trkpt><trkpt lat="14.740937" lon="101.163125"><ele>366.6</ele><time>1970-01-01T01:54:32.000Z</time></trkpt><trkpt lat="14.740978" lon="101.16316"><ele>367</ele><time>1970-01-01T01:54:34.000Z</time></trkpt><trkpt lat="14.741017" lon="101.163186"><ele>367.4</ele><time>1970-01-01T01:54:36.000Z</time></trkpt><trkpt lat="14.741056" lon="101.163205"><ele>366.2</ele><time>1970-01-01T01:54:38.000Z</time></trkpt><trkpt lat="14.741101" lon="101.163226"><ele>365.6</ele><time>1970-01-01T01:54:40.000Z</time></trkpt><trkpt lat="14.741149" lon="101.163243"><ele>366</ele><time>1970-01-01T01:54:42.000Z</time></trkpt><trkpt lat="14.741175" lon="101.163255"><ele>366</ele><time>1970-01-01T01:54:43.000Z</time></trkpt><trkpt lat="14.741208" lon="101.163268"><ele>365.9</ele><time>1970-01-01T01:54:44.000Z</time></trkpt><trkpt lat="14.741244" lon="101.163279"><ele>365.8</ele><time>1970-01-01T01:54:45.000Z</time></trkpt><trkpt lat="14.741282" lon="101.163288"><ele>365.9</ele><time>1970-01-01T01:54:46.000Z</time></trkpt><trkpt lat="14.741324" lon="101.163297"><ele>365.9</ele><time>1970-01-01T01:54:47.000Z</time></trkpt><trkpt lat="14.741363" lon="101.163308"><ele>365.9</ele><time>1970-01-01T01:54:48.000Z</time></trkpt><trkpt lat="14.741406" lon="101.163317"><ele>365.8</ele><time>1970-01-01T01:54:49.000Z</time></trkpt><trkpt lat="14.741452" lon="101.163324"><ele>365.2</ele><time>1970-01-01T01:54:50.000Z</time></trkpt><trkpt lat="14.741486" lon="101.163328"><ele>364.8</ele><time>1970-01-01T01:54:51.000Z</time></trkpt><trkpt lat="14.741521" lon="101.163327"><ele>365</ele><time>1970-01-01T01:54:52.000Z</time></trkpt><trkpt lat="14.741561" lon="101.163326"><ele>365.7</ele><time>1970-01-01T01:54:53.000Z</time></trkpt><trkpt lat="14.741601" lon="101.163325"><ele>366</ele><time>1970-01-01T01:54:54.000Z</time></trkpt><trkpt lat="14.741642" lon="101.16333"><ele>365.9</ele><time>1970-01-01T01:54:55.000Z</time></trkpt><trkpt lat="14.741685" lon="101.163339"><ele>365.7</ele><time>1970-01-01T01:54:56.000Z</time></trkpt><trkpt lat="14.741724" lon="101.163355"><ele>365.7</ele><time>1970-01-01T01:54:57.000Z</time></trkpt><trkpt lat="14.74176" lon="101.163374"><ele>365.8</ele><time>1970-01-01T01:54:58.000Z</time></trkpt><trkpt lat="14.741797" lon="101.163394"><ele>367.3</ele><time>1970-01-01T01:54:59.000Z</time></trkpt><trkpt lat="14.741833" lon="101.163411"><ele>367.9</ele><time>1970-01-01T01:55:00.000Z</time></trkpt><trkpt lat="14.741867" lon="101.163425"><ele>367.8</ele><time>1970-01-01T01:55:01.000Z</time></trkpt><trkpt lat="14.741897" lon="101.16344"><ele>368.2</ele><time>1970-01-01T01:55:02.000Z</time></trkpt><trkpt lat="14.741924" lon="101.163455"><ele>368.7</ele><time>1970-01-01T01:55:03.000Z</time></trkpt><trkpt lat="14.741952" lon="101.163472"><ele>368.9</ele><time>1970-01-01T01:55:04.000Z</time></trkpt><trkpt lat="14.741982" lon="101.16349"><ele>368.6</ele><time>1970-01-01T01:55:05.000Z</time></trkpt><trkpt lat="14.742014" lon="101.163505"><ele>368.6</ele><time>1970-01-01T01:55:06.000Z</time></trkpt><trkpt lat="14.742045" lon="101.163519"><ele>369.1</ele><time>1970-01-01T01:55:07.000Z</time></trkpt><trkpt lat="14.742079" lon="101.163532"><ele>369.8</ele><time>1970-01-01T01:55:08.000Z</time></trkpt><trkpt lat="14.742114" lon="101.163547"><ele>370.7</ele><time>1970-01-01T01:55:09.000Z</time></trkpt><trkpt lat="14.742148" lon="101.163562"><ele>371.4</ele><time>1970-01-01T01:55:10.000Z</time></trkpt><trkpt lat="14.742181" lon="101.163576"><ele>371.7</ele><time>1970-01-01T01:55:11.000Z</time></trkpt><trkpt lat="14.742214" lon="101.163592"><ele>372</ele><time>1970-01-01T01:55:12.000Z</time></trkpt><trkpt lat="14.742246" lon="101.163612"><ele>372.3</ele><time>1970-01-01T01:55:13.000Z</time></trkpt><trkpt lat="14.742279" lon="101.163635"><ele>372.6</ele><time>1970-01-01T01:55:14.000Z</time></trkpt><trkpt lat="14.742312" lon="101.163664"><ele>372.6</ele><time>1970-01-01T01:55:15.000Z</time></trkpt><trkpt lat="14.742342" lon="101.163694"><ele>372.7</ele><time>1970-01-01T01:55:16.000Z</time></trkpt><trkpt lat="14.742371" lon="101.163721"><ele>373.2</ele><time>1970-01-01T01:55:17.000Z</time></trkpt><trkpt lat="14.742391" lon="101.163745"><ele>373.6</ele><time>1970-01-01T01:55:18.000Z</time></trkpt><trkpt lat="14.742411" lon="101.163767"><ele>374.4</ele><time>1970-01-01T01:55:19.000Z</time></trkpt><trkpt lat="14.742433" lon="101.163791"><ele>375.3</ele><time>1970-01-01T01:55:20.000Z</time></trkpt><trkpt lat="14.742458" lon="101.163819"><ele>376.2</ele><time>1970-01-01T01:55:21.000Z</time></trkpt><trkpt lat="14.742488" lon="101.163848"><ele>376.8</ele><time>1970-01-01T01:55:22.000Z</time></trkpt><trkpt lat="14.742516" lon="101.163874"><ele>377.2</ele><time>1970-01-01T01:55:23.000Z</time></trkpt><trkpt lat="14.742544" lon="101.163897"><ele>377.3</ele><time>1970-01-01T01:55:24.000Z</time></trkpt><trkpt lat="14.742576" lon="101.163926"><ele>377.5</ele><time>1970-01-01T01:55:25.000Z</time></trkpt><trkpt lat="14.742608" lon="101.163961"><ele>378.2</ele><time>1970-01-01T01:55:26.000Z</time></trkpt><trkpt lat="14.742638" lon="101.163996"><ele>379</ele><time>1970-01-01T01:55:27.000Z</time></trkpt><trkpt lat="14.742656" lon="101.164034"><ele>378.5</ele><time>1970-01-01T01:55:28.000Z</time></trkpt><trkpt lat="14.742669" lon="101.164074"><ele>378.1</ele><time>1970-01-01T01:55:29.000Z</time></trkpt><trkpt lat="14.74268" lon="101.164115"><ele>377.5</ele><time>1970-01-01T01:55:30.000Z</time></trkpt><trkpt lat="14.742693" lon="101.164155"><ele>377</ele><time>1970-01-01T01:55:31.000Z</time></trkpt><trkpt lat="14.742713" lon="101.164192"><ele>376.3</ele><time>1970-01-01T01:55:32.000Z</time></trkpt><trkpt lat="14.742738" lon="101.164229"><ele>375.6</ele><time>1970-01-01T01:55:33.000Z</time></trkpt><trkpt lat="14.742766" lon="101.164268"><ele>374.9</ele><time>1970-01-01T01:55:34.000Z</time></trkpt><trkpt lat="14.74279" lon="101.164306"><ele>374.3</ele><time>1970-01-01T01:55:35.000Z</time></trkpt><trkpt lat="14.742811" lon="101.164345"><ele>373.7</ele><time>1970-01-01T01:55:36.000Z</time></trkpt><trkpt lat="14.742822" lon="101.164384"><ele>373.2</ele><time>1970-01-01T01:55:37.000Z</time></trkpt><trkpt lat="14.742831" lon="101.164428"><ele>373.1</ele><time>1970-01-01T01:55:38.000Z</time></trkpt><trkpt lat="14.742838" lon="101.164475"><ele>373.3</ele><time>1970-01-01T01:55:39.000Z</time></trkpt><trkpt lat="14.742842" lon="101.164518"><ele>373</ele><time>1970-01-01T01:55:40.000Z</time></trkpt><trkpt lat="14.742843" lon="101.164563"><ele>372.5</ele><time>1970-01-01T01:55:41.000Z</time></trkpt><trkpt lat="14.74284" lon="101.16461"><ele>372.1</ele><time>1970-01-01T01:55:42.000Z</time></trkpt><trkpt lat="14.742823" lon="101.164688"><ele>371.8</ele><time>1970-01-01T01:55:43.000Z</time></trkpt><trkpt lat="14.742813" lon="101.164736"><ele>372.3</ele><time>1970-01-01T01:55:44.000Z</time></trkpt><trkpt lat="14.742808" lon="101.164796"><ele>372.2</ele><time>1970-01-01T01:55:45.000Z</time></trkpt><trkpt lat="14.742787" lon="101.16486"><ele>372.2</ele><time>1970-01-01T01:55:46.000Z</time></trkpt><trkpt lat="14.742769" lon="101.164899"><ele>372.5</ele><time>1970-01-01T01:55:47.000Z</time></trkpt><trkpt lat="14.74274" lon="101.164901"><ele>372.7</ele><time>1970-01-01T01:55:49.000Z</time></trkpt><trkpt lat="14.742761" lon="101.164875"><ele>372.8</ele><time>1970-01-01T01:55:55.000Z</time></trkpt><trkpt lat="14.742806" lon="101.164878"><ele>372.8</ele><time>1970-01-01T01:55:58.000Z</time></trkpt><trkpt lat="14.742872" lon="101.164876"><ele>372.2</ele><time>1970-01-01T01:56:00.000Z</time></trkpt><trkpt lat="14.7429" lon="101.164876"><ele>372.4</ele><time>1970-01-01T01:56:01.000Z</time></trkpt><trkpt lat="14.742945" lon="101.164872"><ele>372.8</ele><time>1970-01-01T01:56:03.000Z</time></trkpt><trkpt lat="14.742978" lon="101.164866"><ele>373.2</ele><time>1970-01-01T01:56:04.000Z</time></trkpt><trkpt lat="14.743007" lon="101.16486"><ele>373.6</ele><time>1970-01-01T01:56:05.000Z</time></trkpt><trkpt lat="14.743053" lon="101.164855"><ele>374.2</ele><time>1970-01-01T01:56:07.000Z</time></trkpt><trkpt lat="14.743104" lon="101.164852"><ele>374.9</ele><time>1970-01-01T01:56:09.000Z</time></trkpt><trkpt lat="14.743139" lon="101.16486"><ele>375.3</ele><time>1970-01-01T01:56:12.000Z</time></trkpt><trkpt lat="14.743171" lon="101.164858"><ele>375.7</ele><time>1970-01-01T01:56:15.000Z</time></trkpt><trkpt lat="14.743213" lon="101.164851"><ele>376.1</ele><time>1970-01-01T01:56:17.000Z</time></trkpt><trkpt lat="14.743241" lon="101.164844"><ele>376.4</ele><time>1970-01-01T01:56:18.000Z</time></trkpt><trkpt lat="14.743271" lon="101.164838"><ele>376.7</ele><time>1970-01-01T01:56:19.000Z</time></trkpt><trkpt lat="14.743299" lon="101.164832"><ele>376.7</ele><time>1970-01-01T01:56:20.000Z</time></trkpt><trkpt lat="14.743329" lon="101.164827"><ele>376.6</ele><time>1970-01-01T01:56:21.000Z</time></trkpt><trkpt lat="14.74336" lon="101.164823"><ele>376.6</ele><time>1970-01-01T01:56:22.000Z</time></trkpt><trkpt lat="14.743389" lon="101.164818"><ele>377</ele><time>1970-01-01T01:56:23.000Z</time></trkpt><trkpt lat="14.743418" lon="101.164813"><ele>377.4</ele><time>1970-01-01T01:56:24.000Z</time></trkpt><trkpt lat="14.743446" lon="101.164805"><ele>377.8</ele><time>1970-01-01T01:56:25.000Z</time></trkpt><trkpt lat="14.743474" lon="101.164797"><ele>378.2</ele><time>1970-01-01T01:56:26.000Z</time></trkpt><trkpt lat="14.7435" lon="101.164789"><ele>378.5</ele><time>1970-01-01T01:56:27.000Z</time></trkpt><trkpt lat="14.743527" lon="101.164782"><ele>378.9</ele><time>1970-01-01T01:56:28.000Z</time></trkpt><trkpt lat="14.743554" lon="101.164774"><ele>379.3</ele><time>1970-01-01T01:56:29.000Z</time></trkpt><trkpt lat="14.743585" lon="101.164766"><ele>379.7</ele><time>1970-01-01T01:56:30.000Z</time></trkpt><trkpt lat="14.743616" lon="101.164761"><ele>379.6</ele><time>1970-01-01T01:56:31.000Z</time></trkpt><trkpt lat="14.743667" lon="101.164758"><ele>379.2</ele><time>1970-01-01T01:56:33.000Z</time></trkpt><trkpt lat="14.743697" lon="101.164757"><ele>379.8</ele><time>1970-01-01T01:56:34.000Z</time></trkpt><trkpt lat="14.743727" lon="101.164756"><ele>380.4</ele><time>1970-01-01T01:56:35.000Z</time></trkpt><trkpt lat="14.74377" lon="101.164763"><ele>381</ele><time>1970-01-01T01:56:37.000Z</time></trkpt><trkpt lat="14.743809" lon="101.164763"><ele>381.4</ele><time>1970-01-01T01:56:39.000Z</time></trkpt><trkpt lat="14.74386" lon="101.164751"><ele>382.5</ele><time>1970-01-01T01:56:41.000Z</time></trkpt><trkpt lat="14.743893" lon="101.164745"><ele>383.3</ele><time>1970-01-01T01:56:42.000Z</time></trkpt><trkpt lat="14.743926" lon="101.164742"><ele>384.2</ele><time>1970-01-01T01:56:43.000Z</time></trkpt><trkpt lat="14.743962" lon="101.164739"><ele>385.1</ele><time>1970-01-01T01:56:44.000Z</time></trkpt><trkpt lat="14.743995" lon="101.164736"><ele>386</ele><time>1970-01-01T01:56:45.000Z</time></trkpt><trkpt lat="14.744031" lon="101.164734"><ele>387</ele><time>1970-01-01T01:56:46.000Z</time></trkpt><trkpt lat="14.744071" lon="101.164729"><ele>388.8</ele><time>1970-01-01T01:56:47.000Z</time></trkpt><trkpt lat="14.744101" lon="101.164727"><ele>390.2</ele><time>1970-01-01T01:56:48.000Z</time></trkpt><trkpt lat="14.744148" lon="101.164728"><ele>389.9</ele><time>1970-01-01T01:56:50.000Z</time></trkpt><trkpt lat="14.744198" lon="101.164734"><ele>390</ele><time>1970-01-01T01:56:52.000Z</time></trkpt><trkpt lat="14.744225" lon="101.164738"><ele>390.4</ele><time>1970-01-01T01:56:53.000Z</time></trkpt><trkpt lat="14.744268" lon="101.164743"><ele>390.1</ele><time>1970-01-01T01:56:55.000Z</time></trkpt><trkpt lat="14.744318" lon="101.164739"><ele>388.7</ele><time>1970-01-01T01:56:57.000Z</time></trkpt><trkpt lat="14.744347" lon="101.164733"><ele>387.6</ele><time>1970-01-01T01:56:58.000Z</time></trkpt><trkpt lat="14.744373" lon="101.164717"><ele>386.5</ele><time>1970-01-01T01:56:59.000Z</time></trkpt><trkpt lat="14.744393" lon="101.164692"><ele>385.7</ele><time>1970-01-01T01:57:00.000Z</time></trkpt><trkpt lat="14.744409" lon="101.164657"><ele>385.3</ele><time>1970-01-01T01:57:01.000Z</time></trkpt><trkpt lat="14.744426" lon="101.164622"><ele>384.8</ele><time>1970-01-01T01:57:02.000Z</time></trkpt><trkpt lat="14.744446" lon="101.164594"><ele>384.3</ele><time>1970-01-01T01:57:03.000Z</time></trkpt><trkpt lat="14.744485" lon="101.164564"><ele>383.6</ele><time>1970-01-01T01:57:05.000Z</time></trkpt><trkpt lat="14.744524" lon="101.164551"><ele>384.2</ele><time>1970-01-01T01:57:07.000Z</time></trkpt><trkpt lat="14.744564" lon="101.164529"><ele>384.7</ele><time>1970-01-01T01:57:09.000Z</time></trkpt><trkpt lat="14.744599" lon="101.164494"><ele>384.4</ele><time>1970-01-01T01:57:11.000Z</time></trkpt><trkpt lat="14.744631" lon="101.164454"><ele>384.7</ele><time>1970-01-01T01:57:13.000Z</time></trkpt><trkpt lat="14.744658" lon="101.164426"><ele>384.9</ele><time>1970-01-01T01:57:15.000Z</time></trkpt><trkpt lat="14.744689" lon="101.164395"><ele>384.9</ele><time>1970-01-01T01:57:17.000Z</time></trkpt><trkpt lat="14.74473" lon="101.164365"><ele>385.3</ele><time>1970-01-01T01:57:19.000Z</time></trkpt><trkpt lat="14.744763" lon="101.164352"><ele>385.4</ele><time>1970-01-01T01:57:21.000Z</time></trkpt><trkpt lat="14.744792" lon="101.164335"><ele>385.4</ele><time>1970-01-01T01:57:23.000Z</time></trkpt><trkpt lat="14.744832" lon="101.164308"><ele>385.3</ele><time>1970-01-01T01:57:25.000Z</time></trkpt><trkpt lat="14.744874" lon="101.164283"><ele>385.1</ele><time>1970-01-01T01:57:27.000Z</time></trkpt><trkpt lat="14.7449" lon="101.164271"><ele>385.1</ele><time>1970-01-01T01:57:28.000Z</time></trkpt><trkpt lat="14.74493" lon="101.16426"><ele>385.2</ele><time>1970-01-01T01:57:29.000Z</time></trkpt><trkpt lat="14.744959" lon="101.16425"><ele>385.3</ele><time>1970-01-01T01:57:30.000Z</time></trkpt><trkpt lat="14.74499" lon="101.16424"><ele>385.5</ele><time>1970-01-01T01:57:31.000Z</time></trkpt><trkpt lat="14.745023" lon="101.164232"><ele>385.6</ele><time>1970-01-01T01:57:32.000Z</time></trkpt><trkpt lat="14.745058" lon="101.164231"><ele>385.6</ele><time>1970-01-01T01:57:34.000Z</time></trkpt><trkpt lat="14.745105" lon="101.164254"><ele>385.3</ele><time>1970-01-01T01:57:36.000Z</time></trkpt><trkpt lat="14.745139" lon="101.164274"><ele>384.7</ele><time>1970-01-01T01:57:37.000Z</time></trkpt><trkpt lat="14.74522" lon="101.164312"><ele>383.7</ele><time>1970-01-01T01:57:38.000Z</time></trkpt><trkpt lat="14.74527" lon="101.164342"><ele>383.5</ele><time>1970-01-01T01:57:39.000Z</time></trkpt><trkpt lat="14.745309" lon="101.164379"><ele>383</ele><time>1970-01-01T01:57:40.000Z</time></trkpt><trkpt lat="14.745353" lon="101.164415"><ele>383.1</ele><time>1970-01-01T01:57:41.000Z</time></trkpt><trkpt lat="14.745377" lon="101.164443"><ele>383.2</ele><time>1970-01-01T01:57:42.000Z</time></trkpt><trkpt lat="14.745409" lon="101.164482"><ele>383.8</ele><time>1970-01-01T01:57:43.000Z</time></trkpt><trkpt lat="14.745423" lon="101.164515"><ele>383.8</ele><time>1970-01-01T01:57:44.000Z</time></trkpt><trkpt lat="14.745455" lon="101.164536"><ele>383.8</ele><time>1970-01-01T01:57:45.000Z</time></trkpt><trkpt lat="14.745491" lon="101.164548"><ele>383.3</ele><time>1970-01-01T01:57:46.000Z</time></trkpt><trkpt lat="14.745545" lon="101.16457"><ele>383.3</ele><time>1970-01-01T01:57:48.000Z</time></trkpt><trkpt lat="14.745589" lon="101.164572"><ele>382.9</ele><time>1970-01-01T01:57:49.000Z</time></trkpt><trkpt lat="14.745654" lon="101.164551"><ele>381.3</ele><time>1970-01-01T01:57:50.000Z</time></trkpt><trkpt lat="14.745694" lon="101.164527"><ele>380.9</ele><time>1970-01-01T01:57:51.000Z</time></trkpt><trkpt lat="14.745746" lon="101.164506"><ele>379.8</ele><time>1970-01-01T01:57:52.000Z</time></trkpt><trkpt lat="14.745815" lon="101.164484"><ele>379.3</ele><time>1970-01-01T01:57:53.000Z</time></trkpt><trkpt lat="14.745901" lon="101.164477"><ele>378.5</ele><time>1970-01-01T01:57:54.000Z</time></trkpt><trkpt lat="14.745974" lon="101.164482"><ele>377.1</ele><time>1970-01-01T01:57:55.000Z</time></trkpt><trkpt lat="14.746053" lon="101.164517"><ele>376.9</ele><time>1970-01-01T01:57:56.000Z</time></trkpt><trkpt lat="14.746127" lon="101.164539"><ele>376.3</ele><time>1970-01-01T01:57:57.000Z</time></trkpt><trkpt lat="14.746183" lon="101.164568"><ele>377.6</ele><time>1970-01-01T01:57:58.000Z</time></trkpt><trkpt lat="14.746234" lon="101.164586"><ele>377.4</ele><time>1970-01-01T01:57:59.000Z</time></trkpt><trkpt lat="14.746287" lon="101.164618"><ele>378.4</ele><time>1970-01-01T01:58:00.000Z</time></trkpt><trkpt lat="14.746342" lon="101.164633"><ele>376.9</ele><time>1970-01-01T01:58:01.000Z</time></trkpt><trkpt lat="14.746408" lon="101.164645"><ele>376.9</ele><time>1970-01-01T01:58:02.000Z</time></trkpt><trkpt lat="14.746468" lon="101.16464"><ele>373.5</ele><time>1970-01-01T01:58:03.000Z</time></trkpt><trkpt lat="14.746565" lon="101.164626"><ele>370.8</ele><time>1970-01-01T01:58:04.000Z</time></trkpt><trkpt lat="14.746636" lon="101.164609"><ele>368.1</ele><time>1970-01-01T01:58:05.000Z</time></trkpt><trkpt lat="14.746675" lon="101.164565"><ele>366.4</ele><time>1970-01-01T01:58:06.000Z</time></trkpt><trkpt lat="14.746732" lon="101.164544"><ele>364.9</ele><time>1970-01-01T01:58:07.000Z</time></trkpt><trkpt lat="14.746789" lon="101.164539"><ele>363</ele><time>1970-01-01T01:58:08.000Z</time></trkpt><trkpt lat="14.746861" lon="101.164538"><ele>362.2</ele><time>1970-01-01T01:58:09.000Z</time></trkpt><trkpt lat="14.746918" lon="101.164496"><ele>360.4</ele><time>1970-01-01T01:58:10.000Z</time></trkpt><trkpt lat="14.746913" lon="101.164439"><ele>359.9</ele><time>1970-01-01T01:58:11.000Z</time></trkpt><trkpt lat="14.746931" lon="101.16438"><ele>359.1</ele><time>1970-01-01T01:58:12.000Z</time></trkpt><trkpt lat="14.746956" lon="101.16433"><ele>358.2</ele><time>1970-01-01T01:58:13.000Z</time></trkpt><trkpt lat="14.746978" lon="101.164274"><ele>357.9</ele><time>1970-01-01T01:58:14.000Z</time></trkpt><trkpt lat="14.747014" lon="101.164213"><ele>357.5</ele><time>1970-01-01T01:58:15.000Z</time></trkpt><trkpt lat="14.747043" lon="101.164166"><ele>357.1</ele><time>1970-01-01T01:58:16.000Z</time></trkpt><trkpt lat="14.747062" lon="101.164105"><ele>356.7</ele><time>1970-01-01T01:58:17.000Z</time></trkpt><trkpt lat="14.747081" lon="101.164043"><ele>356.6</ele><time>1970-01-01T01:58:18.000Z</time></trkpt><trkpt lat="14.747109" lon="101.163993"><ele>356.4</ele><time>1970-01-01T01:58:19.000Z</time></trkpt><trkpt lat="14.747131" lon="101.163938"><ele>356.2</ele><time>1970-01-01T01:58:20.000Z</time></trkpt><trkpt lat="14.747157" lon="101.163881"><ele>355.9</ele><time>1970-01-01T01:58:21.000Z</time></trkpt><trkpt lat="14.74719" lon="101.163831"><ele>355.6</ele><time>1970-01-01T01:58:22.000Z</time></trkpt><trkpt lat="14.747229" lon="101.16376"><ele>355.3</ele><time>1970-01-01T01:58:23.000Z</time></trkpt><trkpt lat="14.747254" lon="101.163697"><ele>355</ele><time>1970-01-01T01:58:24.000Z</time></trkpt><trkpt lat="14.747274" lon="101.163638"><ele>354.6</ele><time>1970-01-01T01:58:25.000Z</time></trkpt><trkpt lat="14.747298" lon="101.163584"><ele>354.2</ele><time>1970-01-01T01:58:26.000Z</time></trkpt><trkpt lat="14.747329" lon="101.163537"><ele>354.2</ele><time>1970-01-01T01:58:27.000Z</time></trkpt><trkpt lat="14.747353" lon="101.163509"><ele>354.2</ele><time>1970-01-01T01:58:28.000Z</time></trkpt><trkpt lat="14.747382" lon="101.163487"><ele>354.1</ele><time>1970-01-01T01:58:30.000Z</time></trkpt><trkpt lat="14.747361" lon="101.163451"><ele>354.1</ele><time>1970-01-01T01:58:39.000Z</time></trkpt><trkpt lat="14.747317" lon="101.163422"><ele>354.2</ele><time>1970-01-01T01:58:41.000Z</time></trkpt><trkpt lat="14.747296" lon="101.163402"><ele>354.2</ele><time>1970-01-01T01:58:42.000Z</time></trkpt><trkpt lat="14.747275" lon="101.163375"><ele>354.2</ele><time>1970-01-01T01:58:43.000Z</time></trkpt><trkpt lat="14.747255" lon="101.163342"><ele>354.3</ele><time>1970-01-01T01:58:44.000Z</time></trkpt><trkpt lat="14.747236" lon="101.163308"><ele>354.3</ele><time>1970-01-01T01:58:45.000Z</time></trkpt><trkpt lat="14.747218" lon="101.163274"><ele>354.6</ele><time>1970-01-01T01:58:46.000Z</time></trkpt><trkpt lat="14.747197" lon="101.163236"><ele>354.8</ele><time>1970-01-01T01:58:47.000Z</time></trkpt><trkpt lat="14.747176" lon="101.163197"><ele>355.1</ele><time>1970-01-01T01:58:48.000Z</time></trkpt><trkpt lat="14.747152" lon="101.163158"><ele>355.3</ele><time>1970-01-01T01:58:49.000Z</time></trkpt><trkpt lat="14.74712" lon="101.163119"><ele>355.4</ele><time>1970-01-01T01:58:50.000Z</time></trkpt><trkpt lat="14.747092" lon="101.163079"><ele>355.4</ele><time>1970-01-01T01:58:51.000Z</time></trkpt><trkpt lat="14.747067" lon="101.163038"><ele>355.2</ele><time>1970-01-01T01:58:52.000Z</time></trkpt><trkpt lat="14.74704" lon="101.162995"><ele>355</ele><time>1970-01-01T01:58:53.000Z</time></trkpt><trkpt lat="14.747014" lon="101.162958"><ele>354.7</ele><time>1970-01-01T01:58:54.000Z</time></trkpt><trkpt lat="14.746984" lon="101.16292"><ele>354.5</ele><time>1970-01-01T01:58:55.000Z</time></trkpt><trkpt lat="14.746954" lon="101.162893"><ele>354.3</ele><time>1970-01-01T01:58:56.000Z</time></trkpt><trkpt lat="14.746923" lon="101.162858"><ele>354.2</ele><time>1970-01-01T01:58:57.000Z</time></trkpt><trkpt lat="14.746897" lon="101.162817"><ele>353.9</ele><time>1970-01-01T01:58:58.000Z</time></trkpt><trkpt lat="14.746867" lon="101.162785"><ele>353.7</ele><time>1970-01-01T01:58:59.000Z</time></trkpt><trkpt lat="14.74684" lon="101.162751"><ele>353.5</ele><time>1970-01-01T01:59:00.000Z</time></trkpt><trkpt lat="14.746813" lon="101.162717"><ele>353.4</ele><time>1970-01-01T01:59:01.000Z</time></trkpt><trkpt lat="14.746789" lon="101.162682"><ele>353.1</ele><time>1970-01-01T01:59:02.000Z</time></trkpt><trkpt lat="14.746763" lon="101.162647"><ele>352.9</ele><time>1970-01-01T01:59:03.000Z</time></trkpt><trkpt lat="14.746732" lon="101.162612"><ele>352.6</ele><time>1970-01-01T01:59:04.000Z</time></trkpt><trkpt lat="14.746704" lon="101.162574"><ele>352.4</ele><time>1970-01-01T01:59:05.000Z</time></trkpt><trkpt lat="14.74668" lon="101.162534"><ele>352.9</ele><time>1970-01-01T01:59:06.000Z</time></trkpt><trkpt lat="14.746664" lon="101.162487"><ele>353</ele><time>1970-01-01T01:59:07.000Z</time></trkpt><trkpt lat="14.746665" lon="101.162431"><ele>353.1</ele><time>1970-01-01T01:59:08.000Z</time></trkpt><trkpt lat="14.746687" lon="101.162375"><ele>353.2</ele><time>1970-01-01T01:59:09.000Z</time></trkpt><trkpt lat="14.746715" lon="101.162326"><ele>353.2</ele><time>1970-01-01T01:59:10.000Z</time></trkpt><trkpt lat="14.746765" lon="101.162285"><ele>353</ele><time>1970-01-01T01:59:11.000Z</time></trkpt><trkpt lat="14.746814" lon="101.16224"><ele>352.5</ele><time>1970-01-01T01:59:12.000Z</time></trkpt><trkpt lat="14.746867" lon="101.162186"><ele>352.1</ele><time>1970-01-01T01:59:13.000Z</time></trkpt><trkpt lat="14.746925" lon="101.162136"><ele>351.9</ele><time>1970-01-01T01:59:14.000Z</time></trkpt><trkpt lat="14.746984" lon="101.162086"><ele>352</ele><time>1970-01-01T01:59:15.000Z</time></trkpt><trkpt lat="14.747049" lon="101.162032"><ele>352.1</ele><time>1970-01-01T01:59:16.000Z</time></trkpt><trkpt lat="14.747112" lon="101.161974"><ele>352.1</ele><time>1970-01-01T01:59:17.000Z</time></trkpt><trkpt lat="14.747177" lon="101.161917"><ele>351.5</ele><time>1970-01-01T01:59:18.000Z</time></trkpt><trkpt lat="14.747246" lon="101.161858"><ele>350.6</ele><time>1970-01-01T01:59:19.000Z</time></trkpt><trkpt lat="14.747314" lon="101.161798"><ele>350.2</ele><time>1970-01-01T01:59:20.000Z</time></trkpt><trkpt lat="14.747381" lon="101.161736"><ele>350.2</ele><time>1970-01-01T01:59:21.000Z</time></trkpt><trkpt lat="14.747452" lon="101.161674"><ele>350.5</ele><time>1970-01-01T01:59:22.000Z</time></trkpt><trkpt lat="14.747526" lon="101.161614"><ele>350.8</ele><time>1970-01-01T01:59:23.000Z</time></trkpt><trkpt lat="14.747596" lon="101.161555"><ele>350.7</ele><time>1970-01-01T01:59:24.000Z</time></trkpt><trkpt lat="14.747668" lon="101.161498"><ele>350.7</ele><time>1970-01-01T01:59:25.000Z</time></trkpt><trkpt lat="14.747731" lon="101.161442"><ele>350.6</ele><time>1970-01-01T01:59:26.000Z</time></trkpt><trkpt lat="14.747799" lon="101.161378"><ele>350.1</ele><time>1970-01-01T01:59:27.000Z</time></trkpt><trkpt lat="14.747865" lon="101.161318"><ele>349.9</ele><time>1970-01-01T01:59:28.000Z</time></trkpt><trkpt lat="14.747932" lon="101.161236"><ele>350</ele><time>1970-01-01T01:59:29.000Z</time></trkpt><trkpt lat="14.747983" lon="101.161167"><ele>350.1</ele><time>1970-01-01T01:59:30.000Z</time></trkpt><trkpt lat="14.748039" lon="101.161087"><ele>349.9</ele><time>1970-01-01T01:59:31.000Z</time></trkpt><trkpt lat="14.748095" lon="101.161009"><ele>349.6</ele><time>1970-01-01T01:59:32.000Z</time></trkpt><trkpt lat="14.74815" lon="101.160927"><ele>349.3</ele><time>1970-01-01T01:59:33.000Z</time></trkpt><trkpt lat="14.748208" lon="101.160843"><ele>347.9</ele><time>1970-01-01T01:59:34.000Z</time></trkpt><trkpt lat="14.748262" lon="101.160742"><ele>346.6</ele><time>1970-01-01T01:59:35.000Z</time></trkpt><trkpt lat="14.748322" lon="101.160647"><ele>345.8</ele><time>1970-01-01T01:59:36.000Z</time></trkpt><trkpt lat="14.748371" lon="101.160551"><ele>345</ele><time>1970-01-01T01:59:37.000Z</time></trkpt><trkpt lat="14.748425" lon="101.160461"><ele>344.5</ele><time>1970-01-01T01:59:38.000Z</time></trkpt><trkpt lat="14.748489" lon="101.160364"><ele>343.6</ele><time>1970-01-01T01:59:39.000Z</time></trkpt><trkpt lat="14.748568" lon="101.160285"><ele>343.9</ele><time>1970-01-01T01:59:40.000Z</time></trkpt><trkpt lat="14.74865" lon="101.160244"><ele>343.8</ele><time>1970-01-01T01:59:41.000Z</time></trkpt><trkpt lat="14.74875" lon="101.160248"><ele>343.3</ele><time>1970-01-01T01:59:42.000Z</time></trkpt><trkpt lat="14.74886" lon="101.160232"><ele>341.8</ele><time>1970-01-01T01:59:43.000Z</time></trkpt><trkpt lat="14.748961" lon="101.160224"><ele>341</ele><time>1970-01-01T01:59:44.000Z</time></trkpt><trkpt lat="14.74907" lon="101.160211"><ele>339.8</ele><time>1970-01-01T01:59:45.000Z</time></trkpt><trkpt lat="14.74918" lon="101.160194"><ele>338.3</ele><time>1970-01-01T01:59:46.000Z</time></trkpt><trkpt lat="14.749289" lon="101.160178"><ele>337.3</ele><time>1970-01-01T01:59:47.000Z</time></trkpt><trkpt lat="14.749395" lon="101.160166"><ele>337.1</ele><time>1970-01-01T01:59:48.000Z</time></trkpt><trkpt lat="14.749498" lon="101.160154"><ele>336.8</ele><time>1970-01-01T01:59:49.000Z</time></trkpt><trkpt lat="14.749597" lon="101.160134"><ele>336.8</ele><time>1970-01-01T01:59:50.000Z</time></trkpt><trkpt lat="14.749701" lon="101.160117"><ele>336.8</ele><time>1970-01-01T01:59:51.000Z</time></trkpt><trkpt lat="14.749808" lon="101.160107"><ele>336.7</ele><time>1970-01-01T01:59:52.000Z</time></trkpt><trkpt lat="14.74993" lon="101.160097"><ele>336.7</ele><time>1970-01-01T01:59:53.000Z</time></trkpt><trkpt lat="14.750037" lon="101.160116"><ele>336.4</ele><time>1970-01-01T01:59:54.000Z</time></trkpt><trkpt lat="14.750144" lon="101.160134"><ele>335.9</ele><time>1970-01-01T01:59:55.000Z</time></trkpt><trkpt lat="14.750239" lon="101.160152"><ele>335.5</ele><time>1970-01-01T01:59:56.000Z</time></trkpt><trkpt lat="14.750347" lon="101.160171"><ele>334.9</ele><time>1970-01-01T01:59:57.000Z</time></trkpt><trkpt lat="14.750471" lon="101.160182"><ele>333.8</ele><time>1970-01-01T01:59:58.000Z</time></trkpt><trkpt lat="14.750584" lon="101.160183"><ele>332.5</ele><time>1970-01-01T01:59:59.000Z</time></trkpt><trkpt lat="14.750688" lon="101.160195"><ele>330.7</ele><time>1970-01-01T02:00:00.000Z</time></trkpt><trkpt lat="14.750794" lon="101.160206"><ele>328.5</ele><time>1970-01-01T02:00:01.000Z</time></trkpt><trkpt lat="14.750904" lon="101.160219"><ele>326.5</ele><time>1970-01-01T02:00:02.000Z</time></trkpt><trkpt lat="14.751001" lon="101.160237"><ele>325.8</ele><time>1970-01-01T02:00:03.000Z</time></trkpt><trkpt lat="14.751094" lon="101.160248"><ele>325.2</ele><time>1970-01-01T02:00:04.000Z</time></trkpt><trkpt lat="14.75119" lon="101.160255"><ele>324.9</ele><time>1970-01-01T02:00:05.000Z</time></trkpt><trkpt lat="14.751288" lon="101.160272"><ele>324.9</ele><time>1970-01-01T02:00:06.000Z</time></trkpt><trkpt lat="14.751382" lon="101.160271"><ele>325.2</ele><time>1970-01-01T02:00:07.000Z</time></trkpt><trkpt lat="14.75152" lon="101.160268"><ele>325.8</ele><time>1970-01-01T02:00:08.000Z</time></trkpt><trkpt lat="14.751626" lon="101.160274"><ele>327.1</ele><time>1970-01-01T02:00:09.000Z</time></trkpt><trkpt lat="14.751721" lon="101.16027"><ele>329.2</ele><time>1970-01-01T02:00:10.000Z</time></trkpt><trkpt lat="14.751824" lon="101.160277"><ele>331.1</ele><time>1970-01-01T02:00:11.000Z</time></trkpt><trkpt lat="14.751912" lon="101.160294"><ele>332.1</ele><time>1970-01-01T02:00:12.000Z</time></trkpt><trkpt lat="14.752013" lon="101.160308"><ele>332.7</ele><time>1970-01-01T02:00:13.000Z</time></trkpt><trkpt lat="14.75209" lon="101.160307"><ele>332.9</ele><time>1970-01-01T02:00:14.000Z</time></trkpt><trkpt lat="14.752173" lon="101.160314"><ele>334.8</ele><time>1970-01-01T02:00:15.000Z</time></trkpt><trkpt lat="14.75226" lon="101.16032"><ele>335.5</ele><time>1970-01-01T02:00:16.000Z</time></trkpt><trkpt lat="14.752353" lon="101.160333"><ele>335.6</ele><time>1970-01-01T02:00:17.000Z</time></trkpt><trkpt lat="14.752452" lon="101.160346"><ele>336</ele><time>1970-01-01T02:00:18.000Z</time></trkpt><trkpt lat="14.752549" lon="101.160357"><ele>335.7</ele><time>1970-01-01T02:00:19.000Z</time></trkpt><trkpt lat="14.75262" lon="101.160356"><ele>335.9</ele><time>1970-01-01T02:00:20.000Z</time></trkpt><trkpt lat="14.752714" lon="101.160378"><ele>336</ele><time>1970-01-01T02:00:21.000Z</time></trkpt><trkpt lat="14.752781" lon="101.16045"><ele>336.1</ele><time>1970-01-01T02:00:22.000Z</time></trkpt><trkpt lat="14.752847" lon="101.160487"><ele>336.4</ele><time>1970-01-01T02:00:23.000Z</time></trkpt><trkpt lat="14.752911" lon="101.160541"><ele>336.2</ele><time>1970-01-01T02:00:24.000Z</time></trkpt><trkpt lat="14.752974" lon="101.160601"><ele>335</ele><time>1970-01-01T02:00:25.000Z</time></trkpt><trkpt lat="14.753044" lon="101.160647"><ele>334.5</ele><time>1970-01-01T02:00:26.000Z</time></trkpt><trkpt lat="14.753094" lon="101.160713"><ele>333.3</ele><time>1970-01-01T02:00:27.000Z</time></trkpt><trkpt lat="14.753162" lon="101.16076"><ele>331.9</ele><time>1970-01-01T02:00:28.000Z</time></trkpt><trkpt lat="14.753219" lon="101.160819"><ele>330.6</ele><time>1970-01-01T02:00:29.000Z</time></trkpt><trkpt lat="14.753285" lon="101.160879"><ele>329.5</ele><time>1970-01-01T02:00:30.000Z</time></trkpt><trkpt lat="14.753338" lon="101.16094"><ele>328.3</ele><time>1970-01-01T02:00:31.000Z</time></trkpt><trkpt lat="14.7534" lon="101.160999"><ele>326.9</ele><time>1970-01-01T02:00:32.000Z</time></trkpt><trkpt lat="14.75347" lon="101.161022"><ele>326.4</ele><time>1970-01-01T02:00:33.000Z</time></trkpt><trkpt lat="14.753539" lon="101.161028"><ele>326.9</ele><time>1970-01-01T02:00:34.000Z</time></trkpt><trkpt lat="14.753608" lon="101.16103"><ele>326.4</ele><time>1970-01-01T02:00:35.000Z</time></trkpt><trkpt lat="14.75366" lon="101.161026"><ele>326.2</ele><time>1970-01-01T02:00:36.000Z</time></trkpt><trkpt lat="14.753728" lon="101.160975"><ele>325.7</ele><time>1970-01-01T02:00:37.000Z</time></trkpt><trkpt lat="14.753712" lon="101.160852"><ele>324.7</ele><time>1970-01-01T02:00:38.000Z</time></trkpt><trkpt lat="14.753738" lon="101.16075"><ele>324</ele><time>1970-01-01T02:00:39.000Z</time></trkpt><trkpt lat="14.753768" lon="101.160673"><ele>323.4</ele><time>1970-01-01T02:00:40.000Z</time></trkpt><trkpt lat="14.753807" lon="101.160603"><ele>322.9</ele><time>1970-01-01T02:00:41.000Z</time></trkpt><trkpt lat="14.753848" lon="101.160537"><ele>322.7</ele><time>1970-01-01T02:00:42.000Z</time></trkpt><trkpt lat="14.753893" lon="101.160451"><ele>322.4</ele><time>1970-01-01T02:00:43.000Z</time></trkpt><trkpt lat="14.753947" lon="101.160388"><ele>322.1</ele><time>1970-01-01T02:00:44.000Z</time></trkpt><trkpt lat="14.754002" lon="101.160326"><ele>322.1</ele><time>1970-01-01T02:00:45.000Z</time></trkpt><trkpt lat="14.754062" lon="101.160273"><ele>322.3</ele><time>1970-01-01T02:00:46.000Z</time></trkpt><trkpt lat="14.754111" lon="101.160219"><ele>322.5</ele><time>1970-01-01T02:00:47.000Z</time></trkpt><trkpt lat="14.754167" lon="101.160172"><ele>322.3</ele><time>1970-01-01T02:00:48.000Z</time></trkpt><trkpt lat="14.754188" lon="101.160112"><ele>321.8</ele><time>1970-01-01T02:00:49.000Z</time></trkpt><trkpt lat="14.754185" lon="101.160039"><ele>321.1</ele><time>1970-01-01T02:00:50.000Z</time></trkpt><trkpt lat="14.754177" lon="101.159969"><ele>320.2</ele><time>1970-01-01T02:00:51.000Z</time></trkpt><trkpt lat="14.754169" lon="101.159896"><ele>319.5</ele><time>1970-01-01T02:00:52.000Z</time></trkpt><trkpt lat="14.754155" lon="101.159821"><ele>319.2</ele><time>1970-01-01T02:00:53.000Z</time></trkpt><trkpt lat="14.754143" lon="101.159736"><ele>319.4</ele><time>1970-01-01T02:00:54.000Z</time></trkpt><trkpt lat="14.754138" lon="101.159657"><ele>319.8</ele><time>1970-01-01T02:00:55.000Z</time></trkpt><trkpt lat="14.75413" lon="101.159588"><ele>320.1</ele><time>1970-01-01T02:00:56.000Z</time></trkpt><trkpt lat="14.754133" lon="101.159522"><ele>320.2</ele><time>1970-01-01T02:00:57.000Z</time></trkpt><trkpt lat="14.754162" lon="101.159462"><ele>320.1</ele><time>1970-01-01T02:00:58.000Z</time></trkpt><trkpt lat="14.754214" lon="101.159412"><ele>319.8</ele><time>1970-01-01T02:00:59.000Z</time></trkpt><trkpt lat="14.754289" lon="101.159385"><ele>319.3</ele><time>1970-01-01T02:01:00.000Z</time></trkpt><trkpt lat="14.754375" lon="101.159357"><ele>318.5</ele><time>1970-01-01T02:01:01.000Z</time></trkpt><trkpt lat="14.754461" lon="101.15932"><ele>317.4</ele><time>1970-01-01T02:01:02.000Z</time></trkpt><trkpt lat="14.754549" lon="101.159287"><ele>316.4</ele><time>1970-01-01T02:01:03.000Z</time></trkpt><trkpt lat="14.754621" lon="101.159255"><ele>315.7</ele><time>1970-01-01T02:01:04.000Z</time></trkpt><trkpt lat="14.754708" lon="101.159236"><ele>315.3</ele><time>1970-01-01T02:01:05.000Z</time></trkpt><trkpt lat="14.754795" lon="101.159201"><ele>314.5</ele><time>1970-01-01T02:01:06.000Z</time></trkpt><trkpt lat="14.754895" lon="101.159164"><ele>313.9</ele><time>1970-01-01T02:01:07.000Z</time></trkpt><trkpt lat="14.755008" lon="101.159126"><ele>313</ele><time>1970-01-01T02:01:08.000Z</time></trkpt><trkpt lat="14.755104" lon="101.159098"><ele>312.7</ele><time>1970-01-01T02:01:09.000Z</time></trkpt><trkpt lat="14.755206" lon="101.159051"><ele>312.6</ele><time>1970-01-01T02:01:10.000Z</time></trkpt><trkpt lat="14.755291" lon="101.158988"><ele>312.4</ele><time>1970-01-01T02:01:11.000Z</time></trkpt><trkpt lat="14.755397" lon="101.158954"><ele>312.5</ele><time>1970-01-01T02:01:12.000Z</time></trkpt><trkpt lat="14.755531" lon="101.158929"><ele>312.8</ele><time>1970-01-01T02:01:13.000Z</time></trkpt><trkpt lat="14.755654" lon="101.158905"><ele>312.4</ele><time>1970-01-01T02:01:14.000Z</time></trkpt><trkpt lat="14.755776" lon="101.158893"><ele>311.5</ele><time>1970-01-01T02:01:15.000Z</time></trkpt><trkpt lat="14.755882" lon="101.158873"><ele>310.8</ele><time>1970-01-01T02:01:16.000Z</time></trkpt><trkpt lat="14.755986" lon="101.158851"><ele>310.2</ele><time>1970-01-01T02:01:17.000Z</time></trkpt><trkpt lat="14.756072" lon="101.158827"><ele>309.4</ele><time>1970-01-01T02:01:18.000Z</time></trkpt><trkpt lat="14.756159" lon="101.158806"><ele>308.5</ele><time>1970-01-01T02:01:19.000Z</time></trkpt><trkpt lat="14.756253" lon="101.158763"><ele>307.1</ele><time>1970-01-01T02:01:20.000Z</time></trkpt><trkpt lat="14.756378" lon="101.158706"><ele>304.5</ele><time>1970-01-01T02:01:21.000Z</time></trkpt><trkpt lat="14.756486" lon="101.158627"><ele>303.1</ele><time>1970-01-01T02:01:22.000Z</time></trkpt><trkpt lat="14.75659" lon="101.158561"><ele>301.7</ele><time>1970-01-01T02:01:23.000Z</time></trkpt><trkpt lat="14.756689" lon="101.158503"><ele>301.1</ele><time>1970-01-01T02:01:24.000Z</time></trkpt><trkpt lat="14.756789" lon="101.158445"><ele>301.1</ele><time>1970-01-01T02:01:25.000Z</time></trkpt><trkpt lat="14.75688" lon="101.158393"><ele>301.4</ele><time>1970-01-01T02:01:26.000Z</time></trkpt><trkpt lat="14.756986" lon="101.158342"><ele>301.5</ele><time>1970-01-01T02:01:27.000Z</time></trkpt><trkpt lat="14.757073" lon="101.158317"><ele>301.2</ele><time>1970-01-01T02:01:28.000Z</time></trkpt><trkpt lat="14.75714" lon="101.158286"><ele>300.9</ele><time>1970-01-01T02:01:29.000Z</time></trkpt><trkpt lat="14.757191" lon="101.158272"><ele>300.6</ele><time>1970-01-01T02:01:30.000Z</time></trkpt><trkpt lat="14.757241" lon="101.158254"><ele>300.3</ele><time>1970-01-01T02:01:31.000Z</time></trkpt><trkpt lat="14.757277" lon="101.158203"><ele>299.8</ele><time>1970-01-01T02:01:33.000Z</time></trkpt><trkpt lat="14.757297" lon="101.158135"><ele>299</ele><time>1970-01-01T02:01:35.000Z</time></trkpt><trkpt lat="14.757306" lon="101.158096"><ele>298.7</ele><time>1970-01-01T02:01:36.000Z</time></trkpt><trkpt lat="14.757313" lon="101.158065"><ele>298.5</ele><time>1970-01-01T02:01:37.000Z</time></trkpt><trkpt lat="14.75731" lon="101.158033"><ele>298.2</ele><time>1970-01-01T02:01:38.000Z</time></trkpt><trkpt lat="14.757316" lon="101.157993"><ele>298.2</ele><time>1970-01-01T02:01:39.000Z</time></trkpt><trkpt lat="14.757325" lon="101.157932"><ele>298.2</ele><time>1970-01-01T02:01:40.000Z</time></trkpt><trkpt lat="14.757336" lon="101.157869"><ele>298.2</ele><time>1970-01-01T02:01:41.000Z</time></trkpt><trkpt lat="14.757341" lon="101.157828"><ele>298.1</ele><time>1970-01-01T02:01:42.000Z</time></trkpt><trkpt lat="14.757353" lon="101.157796"><ele>298.1</ele><time>1970-01-01T02:01:43.000Z</time></trkpt><trkpt lat="14.757367" lon="101.15775"><ele>297.9</ele><time>1970-01-01T02:01:45.000Z</time></trkpt><trkpt lat="14.757342" lon="101.157762"><ele>297.9</ele><time>1970-01-01T02:01:48.000Z</time></trkpt><trkpt lat="14.757343" lon="101.157794"><ele>297.7</ele><time>1970-01-01T02:01:49.000Z</time></trkpt><trkpt lat="14.757349" lon="101.157827"><ele>297.6</ele><time>1970-01-01T02:01:50.000Z</time></trkpt><trkpt lat="14.757355" lon="101.157862"><ele>297.4</ele><time>1970-01-01T02:01:51.000Z</time></trkpt><trkpt lat="14.757356" lon="101.157896"><ele>297.2</ele><time>1970-01-01T02:01:52.000Z</time></trkpt><trkpt lat="14.757355" lon="101.15793"><ele>297</ele><time>1970-01-01T02:01:53.000Z</time></trkpt><trkpt lat="14.757358" lon="101.157967"><ele>296.8</ele><time>1970-01-01T02:01:54.000Z</time></trkpt><trkpt lat="14.757368" lon="101.15801"><ele>296.7</ele><time>1970-01-01T02:01:55.000Z</time></trkpt><trkpt lat="14.757386" lon="101.158049"><ele>296.5</ele><time>1970-01-01T02:01:56.000Z</time></trkpt><trkpt lat="14.757397" lon="101.158088"><ele>296.4</ele><time>1970-01-01T02:01:57.000Z</time></trkpt><trkpt lat="14.7574" lon="101.158132"><ele>296.2</ele><time>1970-01-01T02:01:59.000Z</time></trkpt><trkpt lat="14.757387" lon="101.158165"><ele>296.2</ele><time>1970-01-01T02:02:01.000Z</time></trkpt><trkpt lat="14.757372" lon="101.158202"><ele>296.2</ele><time>1970-01-01T02:02:03.000Z</time></trkpt><trkpt lat="14.757357" lon="101.15823"><ele>296.2</ele><time>1970-01-01T02:02:05.000Z</time></trkpt><trkpt lat="14.757328" lon="101.158256"><ele>296.2</ele><time>1970-01-01T02:02:07.000Z</time></trkpt><trkpt lat="14.757295" lon="101.158272"><ele>296.2</ele><time>1970-01-01T02:02:09.000Z</time></trkpt><trkpt lat="14.757319" lon="101.158289"><ele>296.3</ele><time>1970-01-01T02:02:15.000Z</time></trkpt><trkpt lat="14.757345" lon="101.158259"><ele>296.1</ele><time>1970-01-01T02:02:18.000Z</time></trkpt><trkpt lat="14.757369" lon="101.158274"><ele>296.1</ele><time>1970-01-01T02:02:33.000Z</time></trkpt><trkpt lat="14.757397" lon="101.158284"><ele>296</ele><time>1970-01-01T02:02:37.000Z</time></trkpt><trkpt lat="14.757428" lon="101.158277"><ele>295.9</ele><time>1970-01-01T02:02:40.000Z</time></trkpt><trkpt lat="14.757458" lon="101.158271"><ele>295.7</ele><time>1970-01-01T02:02:43.000Z</time></trkpt><trkpt lat="14.757492" lon="101.158254"><ele>295.6</ele><time>1970-01-01T02:02:46.000Z</time></trkpt><trkpt lat="14.757525" lon="101.158234"><ele>295.4</ele><time>1970-01-01T02:02:49.000Z</time></trkpt><trkpt lat="14.757556" lon="101.158218"><ele>295.3</ele><time>1970-01-01T02:02:52.000Z</time></trkpt><trkpt lat="14.757585" lon="101.158205"><ele>295.2</ele><time>1970-01-01T02:02:55.000Z</time></trkpt><trkpt lat="14.757612" lon="101.158195"><ele>295.2</ele><time>1970-01-01T02:02:58.000Z</time></trkpt><trkpt lat="14.757644" lon="101.158193"><ele>295.2</ele><time>1970-01-01T02:03:02.000Z</time></trkpt><trkpt lat="14.757672" lon="101.158174"><ele>295.2</ele><time>1970-01-01T02:03:05.000Z</time></trkpt><trkpt lat="14.757695" lon="101.158152"><ele>295.2</ele><time>1970-01-01T02:03:07.000Z</time></trkpt><trkpt lat="14.757833" lon="101.158101"><ele>295.2</ele><time>1970-01-01T02:03:09.000Z</time></trkpt><trkpt lat="14.757894" lon="101.158063"><ele>294.9</ele><time>1970-01-01T02:03:10.000Z</time></trkpt><trkpt lat="14.757952" lon="101.158029"><ele>294.5</ele><time>1970-01-01T02:03:11.000Z</time></trkpt><trkpt lat="14.758021" lon="101.158008"><ele>293.9</ele><time>1970-01-01T02:03:12.000Z</time></trkpt><trkpt lat="14.758047" lon="101.157995"><ele>293.6</ele><time>1970-01-01T02:03:13.000Z</time></trkpt><trkpt lat="14.758094" lon="101.157993"><ele>293.1</ele><time>1970-01-01T02:03:14.000Z</time></trkpt><trkpt lat="14.75812" lon="101.157982"><ele>292.9</ele><time>1970-01-01T02:03:15.000Z</time></trkpt><trkpt lat="14.758177" lon="101.157962"><ele>292.5</ele><time>1970-01-01T02:03:16.000Z</time></trkpt><trkpt lat="14.758218" lon="101.157938"><ele>292</ele><time>1970-01-01T02:03:17.000Z</time></trkpt><trkpt lat="14.758262" lon="101.157908"><ele>291.4</ele><time>1970-01-01T02:03:18.000Z</time></trkpt><trkpt lat="14.758315" lon="101.157904"><ele>290.6</ele><time>1970-01-01T02:03:19.000Z</time></trkpt><trkpt lat="14.758346" lon="101.157899"><ele>290.2</ele><time>1970-01-01T02:03:20.000Z</time></trkpt><trkpt lat="14.758394" lon="101.157892"><ele>289.3</ele><time>1970-01-01T02:03:21.000Z</time></trkpt><trkpt lat="14.758466" lon="101.157877"><ele>287.9</ele><time>1970-01-01T02:03:22.000Z</time></trkpt><trkpt lat="14.758535" lon="101.157866"><ele>286.7</ele><time>1970-01-01T02:03:23.000Z</time></trkpt><trkpt lat="14.758582" lon="101.157847"><ele>285.9</ele><time>1970-01-01T02:03:24.000Z</time></trkpt><trkpt lat="14.758668" lon="101.157836"><ele>284.9</ele><time>1970-01-01T02:03:25.000Z</time></trkpt><trkpt lat="14.758729" lon="101.157824"><ele>283.6</ele><time>1970-01-01T02:03:26.000Z</time></trkpt><trkpt lat="14.758772" lon="101.157823"><ele>282.7</ele><time>1970-01-01T02:03:27.000Z</time></trkpt><trkpt lat="14.758822" lon="101.157802"><ele>281.8</ele><time>1970-01-01T02:03:28.000Z</time></trkpt><trkpt lat="14.758884" lon="101.157774"><ele>281.3</ele><time>1970-01-01T02:03:29.000Z</time></trkpt><trkpt lat="14.758946" lon="101.15775"><ele>280.6</ele><time>1970-01-01T02:03:30.000Z</time></trkpt><trkpt lat="14.758999" lon="101.157725"><ele>279.8</ele><time>1970-01-01T02:03:31.000Z</time></trkpt><trkpt lat="14.759047" lon="101.157715"><ele>278.8</ele><time>1970-01-01T02:03:32.000Z</time></trkpt><trkpt lat="14.75907" lon="101.157699"><ele>278.3</ele><time>1970-01-01T02:03:36.000Z</time></trkpt><trkpt lat="14.759106" lon="101.157684"><ele>277.5</ele><time>1970-01-01T02:03:39.000Z</time></trkpt><trkpt lat="14.759133" lon="101.157674"><ele>276.8</ele><time>1970-01-01T02:03:43.000Z</time></trkpt><trkpt lat="14.759157" lon="101.15766"><ele>276.2</ele><time>1970-01-01T02:03:53.000Z</time></trkpt><trkpt lat="14.759185" lon="101.157637"><ele>275.5</ele><time>1970-01-01T02:04:00.000Z</time></trkpt><trkpt lat="14.759224" lon="101.157621"><ele>274.6</ele><time>1970-01-01T02:04:02.000Z</time></trkpt><trkpt lat="14.759275" lon="101.157595"><ele>273.9</ele><time>1970-01-01T02:04:04.000Z</time></trkpt><trkpt lat="14.759307" lon="101.157582"><ele>273.6</ele><time>1970-01-01T02:04:05.000Z</time></trkpt><trkpt lat="14.759346" lon="101.157568"><ele>272.7</ele><time>1970-01-01T02:04:06.000Z</time></trkpt><trkpt lat="14.75944" lon="101.157532"><ele>271.6</ele><time>1970-01-01T02:04:07.000Z</time></trkpt><trkpt lat="14.7595" lon="101.157521"><ele>270.9</ele><time>1970-01-01T02:04:08.000Z</time></trkpt><trkpt lat="14.759561" lon="101.15752"><ele>269.5</ele><time>1970-01-01T02:04:09.000Z</time></trkpt><trkpt lat="14.759602" lon="101.157555"><ele>268.5</ele><time>1970-01-01T02:04:10.000Z</time></trkpt><trkpt lat="14.759656" lon="101.157577"><ele>267.6</ele><time>1970-01-01T02:04:11.000Z</time></trkpt><trkpt lat="14.759703" lon="101.157589"><ele>266.9</ele><time>1970-01-01T02:04:13.000Z</time></trkpt><trkpt lat="14.75973" lon="101.157622"><ele>266.5</ele><time>1970-01-01T02:04:14.000Z</time></trkpt><trkpt lat="14.759739" lon="101.157649"><ele>266.2</ele><time>1970-01-01T02:04:15.000Z</time></trkpt><trkpt lat="14.759764" lon="101.157671"><ele>266</ele><time>1970-01-01T02:04:16.000Z</time></trkpt><trkpt lat="14.759833" lon="101.157696"><ele>266.1</ele><time>1970-01-01T02:04:17.000Z</time></trkpt><trkpt lat="14.75989" lon="101.157707"><ele>266.3</ele><time>1970-01-01T02:04:18.000Z</time></trkpt><trkpt lat="14.75998" lon="101.157707"><ele>267.1</ele><time>1970-01-01T02:04:19.000Z</time></trkpt><trkpt lat="14.760037" lon="101.157706"><ele>267.7</ele><time>1970-01-01T02:04:20.000Z</time></trkpt><trkpt lat="14.760095" lon="101.157714"><ele>268.2</ele><time>1970-01-01T02:04:21.000Z</time></trkpt><trkpt lat="14.760135" lon="101.157728"><ele>268.4</ele><time>1970-01-01T02:04:22.000Z</time></trkpt><trkpt lat="14.760174" lon="101.157743"><ele>268.6</ele><time>1970-01-01T02:04:23.000Z</time></trkpt><trkpt lat="14.760215" lon="101.157756"><ele>268.6</ele><time>1970-01-01T02:04:24.000Z</time></trkpt><trkpt lat="14.760295" lon="101.157752"><ele>268.8</ele><time>1970-01-01T02:04:25.000Z</time></trkpt><trkpt lat="14.760359" lon="101.157755"><ele>268.9</ele><time>1970-01-01T02:04:26.000Z</time></trkpt><trkpt lat="14.760407" lon="101.157787"><ele>267.9</ele><time>1970-01-01T02:04:27.000Z</time></trkpt><trkpt lat="14.760482" lon="101.157819"><ele>267</ele><time>1970-01-01T02:04:28.000Z</time></trkpt><trkpt lat="14.760533" lon="101.157792"><ele>266.7</ele><time>1970-01-01T02:04:29.000Z</time></trkpt><trkpt lat="14.76058" lon="101.157781"><ele>266.4</ele><time>1970-01-01T02:04:30.000Z</time></trkpt><trkpt lat="14.76066" lon="101.157802"><ele>266.1</ele><time>1970-01-01T02:04:31.000Z</time></trkpt><trkpt lat="14.760628" lon="101.157842"><ele>266.1</ele><time>1970-01-01T02:04:32.000Z</time></trkpt><trkpt lat="14.76071" lon="101.157858"><ele>266.2</ele><time>1970-01-01T02:04:33.000Z</time></trkpt><trkpt lat="14.760781" lon="101.157879"><ele>266.5</ele><time>1970-01-01T02:04:34.000Z</time></trkpt><trkpt lat="14.760853" lon="101.157889"><ele>266.9</ele><time>1970-01-01T02:04:35.000Z</time></trkpt><trkpt lat="14.760899" lon="101.157896"><ele>267.2</ele><time>1970-01-01T02:04:36.000Z</time></trkpt><trkpt lat="14.760959" lon="101.157873"><ele>267.6</ele><time>1970-01-01T02:04:37.000Z</time></trkpt><trkpt lat="14.761045" lon="101.157898"><ele>268</ele><time>1970-01-01T02:04:38.000Z</time></trkpt><trkpt lat="14.761133" lon="101.157878"><ele>269.2</ele><time>1970-01-01T02:04:39.000Z</time></trkpt><trkpt lat="14.761218" lon="101.157884"><ele>267.7</ele><time>1970-01-01T02:04:40.000Z</time></trkpt><trkpt lat="14.761328" lon="101.157873"><ele>265.9</ele><time>1970-01-01T02:04:41.000Z</time></trkpt><trkpt lat="14.761414" lon="101.157869"><ele>264.5</ele><time>1970-01-01T02:04:42.000Z</time></trkpt><trkpt lat="14.76148" lon="101.157852"><ele>264.1</ele><time>1970-01-01T02:04:43.000Z</time></trkpt><trkpt lat="14.761552" lon="101.157841"><ele>262.2</ele><time>1970-01-01T02:04:44.000Z</time></trkpt><trkpt lat="14.761605" lon="101.157837"><ele>260.8</ele><time>1970-01-01T02:04:45.000Z</time></trkpt><trkpt lat="14.761637" lon="101.157815"><ele>259.8</ele><time>1970-01-01T02:04:46.000Z</time></trkpt><trkpt lat="14.761675" lon="101.157806"><ele>258.9</ele><time>1970-01-01T02:04:47.000Z</time></trkpt><trkpt lat="14.76171" lon="101.157797"><ele>258</ele><time>1970-01-01T02:04:48.000Z</time></trkpt><trkpt lat="14.761762" lon="101.157802"><ele>256.9</ele><time>1970-01-01T02:04:49.000Z</time></trkpt><trkpt lat="14.7618" lon="101.157819"><ele>256.2</ele><time>1970-01-01T02:04:50.000Z</time></trkpt><trkpt lat="14.761857" lon="101.157841"><ele>256.2</ele><time>1970-01-01T02:04:51.000Z</time></trkpt><trkpt lat="14.761894" lon="101.157852"><ele>255.6</ele><time>1970-01-01T02:04:52.000Z</time></trkpt><trkpt lat="14.761954" lon="101.157876"><ele>253.7</ele><time>1970-01-01T02:04:53.000Z</time></trkpt><trkpt lat="14.762024" lon="101.15788"><ele>252.9</ele><time>1970-01-01T02:04:54.000Z</time></trkpt><trkpt lat="14.762057" lon="101.157906"><ele>252.4</ele><time>1970-01-01T02:04:55.000Z</time></trkpt><trkpt lat="14.762086" lon="101.15792"><ele>251.8</ele><time>1970-01-01T02:04:56.000Z</time></trkpt><trkpt lat="14.762114" lon="101.15793"><ele>251.2</ele><time>1970-01-01T02:04:57.000Z</time></trkpt><trkpt lat="14.762147" lon="101.157935"><ele>250.9</ele><time>1970-01-01T02:04:58.000Z</time></trkpt><trkpt lat="14.762181" lon="101.157939"><ele>250.9</ele><time>1970-01-01T02:04:59.000Z</time></trkpt><trkpt lat="14.762218" lon="101.157942"><ele>251</ele><time>1970-01-01T02:05:00.000Z</time></trkpt><trkpt lat="14.762255" lon="101.157946"><ele>251</ele><time>1970-01-01T02:05:01.000Z</time></trkpt><trkpt lat="14.76229" lon="101.157945"><ele>251.1</ele><time>1970-01-01T02:05:02.000Z</time></trkpt><trkpt lat="14.762333" lon="101.157942"><ele>251.1</ele><time>1970-01-01T02:05:03.000Z</time></trkpt><trkpt lat="14.762378" lon="101.157941"><ele>251.1</ele><time>1970-01-01T02:05:04.000Z</time></trkpt><trkpt lat="14.762423" lon="101.15794"><ele>251</ele><time>1970-01-01T02:05:05.000Z</time></trkpt><trkpt lat="14.76247" lon="101.157941"><ele>251</ele><time>1970-01-01T02:05:06.000Z</time></trkpt><trkpt lat="14.762519" lon="101.15794"><ele>250.9</ele><time>1970-01-01T02:05:07.000Z</time></trkpt><trkpt lat="14.762635" lon="101.157904"><ele>249.8</ele><time>1970-01-01T02:05:08.000Z</time></trkpt><trkpt lat="14.762709" lon="101.157868"><ele>248.9</ele><time>1970-01-01T02:05:09.000Z</time></trkpt><trkpt lat="14.76275" lon="101.157838"><ele>248.9</ele><time>1970-01-01T02:05:10.000Z</time></trkpt><trkpt lat="14.762805" lon="101.157827"><ele>248.9</ele><time>1970-01-01T02:05:11.000Z</time></trkpt><trkpt lat="14.762848" lon="101.157802"><ele>248.9</ele><time>1970-01-01T02:05:12.000Z</time></trkpt><trkpt lat="14.762919" lon="101.157783"><ele>249</ele><time>1970-01-01T02:05:13.000Z</time></trkpt><trkpt lat="14.762996" lon="101.157744"><ele>249.8</ele><time>1970-01-01T02:05:14.000Z</time></trkpt><trkpt lat="14.7631" lon="101.157695"><ele>250.8</ele><time>1970-01-01T02:05:15.000Z</time></trkpt><trkpt lat="14.76317" lon="101.15766"><ele>251.3</ele><time>1970-01-01T02:05:16.000Z</time></trkpt><trkpt lat="14.76325" lon="101.157649"><ele>252.2</ele><time>1970-01-01T02:05:17.000Z</time></trkpt><trkpt lat="14.763322" lon="101.157635"><ele>252.8</ele><time>1970-01-01T02:05:18.000Z</time></trkpt><trkpt lat="14.763415" lon="101.15764"><ele>253.1</ele><time>1970-01-01T02:05:19.000Z</time></trkpt><trkpt lat="14.76349" lon="101.157604"><ele>250.7</ele><time>1970-01-01T02:05:20.000Z</time></trkpt><trkpt lat="14.763553" lon="101.157602"><ele>249.1</ele><time>1970-01-01T02:05:21.000Z</time></trkpt><trkpt lat="14.763625" lon="101.157603"><ele>246.6</ele><time>1970-01-01T02:05:22.000Z</time></trkpt><trkpt lat="14.763671" lon="101.157597"><ele>244.9</ele><time>1970-01-01T02:05:23.000Z</time></trkpt><trkpt lat="14.763725" lon="101.157605"><ele>243.1</ele><time>1970-01-01T02:05:24.000Z</time></trkpt><trkpt lat="14.763792" lon="101.157616"><ele>240.8</ele><time>1970-01-01T02:05:25.000Z</time></trkpt><trkpt lat="14.763839" lon="101.157639"><ele>239</ele><time>1970-01-01T02:05:26.000Z</time></trkpt><trkpt lat="14.763917" lon="101.157637"><ele>236.4</ele><time>1970-01-01T02:05:27.000Z</time></trkpt><trkpt lat="14.76399" lon="101.157641"><ele>233.9</ele><time>1970-01-01T02:05:28.000Z</time></trkpt><trkpt lat="14.764014" lon="101.157663"><ele>232.9</ele><time>1970-01-01T02:05:29.000Z</time></trkpt><trkpt lat="14.764069" lon="101.157667"><ele>231.5</ele><time>1970-01-01T02:05:30.000Z</time></trkpt><trkpt lat="14.764112" lon="101.157651"><ele>231.1</ele><time>1970-01-01T02:05:31.000Z</time></trkpt><trkpt lat="14.764174" lon="101.157629"><ele>230.8</ele><time>1970-01-01T02:05:32.000Z</time></trkpt><trkpt lat="14.764259" lon="101.157616"><ele>230.8</ele><time>1970-01-01T02:05:33.000Z</time></trkpt><trkpt lat="14.764303" lon="101.157596"><ele>231</ele><time>1970-01-01T02:05:34.000Z</time></trkpt><trkpt lat="14.764352" lon="101.15762"><ele>232.3</ele><time>1970-01-01T02:05:36.000Z</time></trkpt><trkpt lat="14.764404" lon="101.157616"><ele>233.7</ele><time>1970-01-01T02:05:37.000Z</time></trkpt><trkpt lat="14.764451" lon="101.157575"><ele>235.4</ele><time>1970-01-01T02:05:38.000Z</time></trkpt><trkpt lat="14.764492" lon="101.157534"><ele>236.5</ele><time>1970-01-01T02:05:39.000Z</time></trkpt><trkpt lat="14.764535" lon="101.157499"><ele>237.1</ele><time>1970-01-01T02:05:40.000Z</time></trkpt><trkpt lat="14.764609" lon="101.157442"><ele>236.9</ele><time>1970-01-01T02:05:41.000Z</time></trkpt><trkpt lat="14.764683" lon="101.15741"><ele>236.2</ele><time>1970-01-01T02:05:42.000Z</time></trkpt><trkpt lat="14.764753" lon="101.157415"><ele>236</ele><time>1970-01-01T02:05:43.000Z</time></trkpt><trkpt lat="14.76481" lon="101.157416"><ele>235.1</ele><time>1970-01-01T02:05:44.000Z</time></trkpt><trkpt lat="14.764901" lon="101.157399"><ele>231.2</ele><time>1970-01-01T02:05:45.000Z</time></trkpt><trkpt lat="14.764974" lon="101.157409"><ele>228.6</ele><time>1970-01-01T02:05:46.000Z</time></trkpt><trkpt lat="14.765023" lon="101.157428"><ele>227</ele><time>1970-01-01T02:05:47.000Z</time></trkpt><trkpt lat="14.765057" lon="101.157426"><ele>226</ele><time>1970-01-01T02:05:48.000Z</time></trkpt><trkpt lat="14.765106" lon="101.157413"><ele>224.1</ele><time>1970-01-01T02:05:49.000Z</time></trkpt><trkpt lat="14.765176" lon="101.157383"><ele>221.9</ele><time>1970-01-01T02:05:50.000Z</time></trkpt><trkpt lat="14.765211" lon="101.157376"><ele>221.6</ele><time>1970-01-01T02:05:51.000Z</time></trkpt><trkpt lat="14.765256" lon="101.157366"><ele>221.2</ele><time>1970-01-01T02:05:52.000Z</time></trkpt><trkpt lat="14.765296" lon="101.157348"><ele>221</ele><time>1970-01-01T02:05:53.000Z</time></trkpt><trkpt lat="14.765347" lon="101.157329"><ele>221.3</ele><time>1970-01-01T02:05:54.000Z</time></trkpt><trkpt lat="14.765399" lon="101.157303"><ele>221</ele><time>1970-01-01T02:05:55.000Z</time></trkpt><trkpt lat="14.765443" lon="101.157275"><ele>220.7</ele><time>1970-01-01T02:05:56.000Z</time></trkpt><trkpt lat="14.765498" lon="101.157239"><ele>220.1</ele><time>1970-01-01T02:05:57.000Z</time></trkpt><trkpt lat="14.765576" lon="101.157181"><ele>218.5</ele><time>1970-01-01T02:05:58.000Z</time></trkpt><trkpt lat="14.765661" lon="101.157125"><ele>215.9</ele><time>1970-01-01T02:05:59.000Z</time></trkpt><trkpt lat="14.765726" lon="101.157095"><ele>213.6</ele><time>1970-01-01T02:06:00.000Z</time></trkpt><trkpt lat="14.765808" lon="101.157087"><ele>210.7</ele><time>1970-01-01T02:06:01.000Z</time></trkpt><trkpt lat="14.765876" lon="101.157064"><ele>208.2</ele><time>1970-01-01T02:06:02.000Z</time></trkpt><trkpt lat="14.765924" lon="101.157012"><ele>205.6</ele><time>1970-01-01T02:06:03.000Z</time></trkpt><trkpt lat="14.765956" lon="101.156974"><ele>204.3</ele><time>1970-01-01T02:06:04.000Z</time></trkpt><trkpt lat="14.765963" lon="101.156922"><ele>203.2</ele><time>1970-01-01T02:06:05.000Z</time></trkpt><trkpt lat="14.766005" lon="101.156851"><ele>202</ele><time>1970-01-01T02:06:06.000Z</time></trkpt><trkpt lat="14.766026" lon="101.156787"><ele>201.9</ele><time>1970-01-01T02:06:07.000Z</time></trkpt><trkpt lat="14.766041" lon="101.156717"><ele>202.8</ele><time>1970-01-01T02:06:08.000Z</time></trkpt><trkpt lat="14.766075" lon="101.156673"><ele>202.1</ele><time>1970-01-01T02:06:09.000Z</time></trkpt><trkpt lat="14.766094" lon="101.156622"><ele>202.3</ele><time>1970-01-01T02:06:10.000Z</time></trkpt><trkpt lat="14.766163" lon="101.156549"><ele>201.8</ele><time>1970-01-01T02:06:12.000Z</time></trkpt><trkpt lat="14.766196" lon="101.156516"><ele>200.9</ele><time>1970-01-01T02:06:13.000Z</time></trkpt><trkpt lat="14.766252" lon="101.156461"><ele>201</ele><time>1970-01-01T02:06:14.000Z</time></trkpt><trkpt lat="14.766284" lon="101.15646"><ele>201.1</ele><time>1970-01-01T02:06:15.000Z</time></trkpt><trkpt lat="14.766334" lon="101.15642"><ele>201.4</ele><time>1970-01-01T02:06:16.000Z</time></trkpt><trkpt lat="14.766386" lon="101.156381"><ele>201.3</ele><time>1970-01-01T02:06:17.000Z</time></trkpt><trkpt lat="14.76643" lon="101.156351"><ele>201.3</ele><time>1970-01-01T02:06:18.000Z</time></trkpt><trkpt lat="14.766474" lon="101.156289"><ele>202</ele><time>1970-01-01T02:06:19.000Z</time></trkpt><trkpt lat="14.766504" lon="101.156225"><ele>202.2</ele><time>1970-01-01T02:06:20.000Z</time></trkpt><trkpt lat="14.76654" lon="101.156165"><ele>201.7</ele><time>1970-01-01T02:06:21.000Z</time></trkpt><trkpt lat="14.766583" lon="101.15611"><ele>201</ele><time>1970-01-01T02:06:22.000Z</time></trkpt><trkpt lat="14.766621" lon="101.156053"><ele>200.2</ele><time>1970-01-01T02:06:23.000Z</time></trkpt><trkpt lat="14.766669" lon="101.15601"><ele>199.7</ele><time>1970-01-01T02:06:24.000Z</time></trkpt><trkpt lat="14.766713" lon="101.155945"><ele>198.9</ele><time>1970-01-01T02:06:25.000Z</time></trkpt><trkpt lat="14.766778" lon="101.155889"><ele>198.5</ele><time>1970-01-01T02:06:26.000Z</time></trkpt><trkpt lat="14.76684" lon="101.155854"><ele>198.4</ele><time>1970-01-01T02:06:27.000Z</time></trkpt><trkpt lat="14.766911" lon="101.155808"><ele>198</ele><time>1970-01-01T02:06:28.000Z</time></trkpt><trkpt lat="14.766959" lon="101.155744"><ele>197.6</ele><time>1970-01-01T02:06:29.000Z</time></trkpt><trkpt lat="14.766991" lon="101.155704"><ele>197.3</ele><time>1970-01-01T02:06:30.000Z</time></trkpt><trkpt lat="14.767026" lon="101.155675"><ele>196.8</ele><time>1970-01-01T02:06:31.000Z</time></trkpt><trkpt lat="14.767076" lon="101.155654"><ele>196.3</ele><time>1970-01-01T02:06:32.000Z</time></trkpt><trkpt lat="14.767122" lon="101.155643"><ele>195.9</ele><time>1970-01-01T02:06:33.000Z</time></trkpt><trkpt lat="14.767164" lon="101.155614"><ele>195.6</ele><time>1970-01-01T02:06:34.000Z</time></trkpt><trkpt lat="14.767186" lon="101.155573"><ele>195.6</ele><time>1970-01-01T02:06:35.000Z</time></trkpt><trkpt lat="14.767237" lon="101.155536"><ele>195.9</ele><time>1970-01-01T02:06:36.000Z</time></trkpt><trkpt lat="14.76729" lon="101.155495"><ele>196.7</ele><time>1970-01-01T02:06:37.000Z</time></trkpt><trkpt lat="14.767305" lon="101.15546"><ele>197</ele><time>1970-01-01T02:06:38.000Z</time></trkpt><trkpt lat="14.767333" lon="101.155433"><ele>196.8</ele><time>1970-01-01T02:06:39.000Z</time></trkpt><trkpt lat="14.767359" lon="101.155386"><ele>196.6</ele><time>1970-01-01T02:06:40.000Z</time></trkpt><trkpt lat="14.767401" lon="101.155334"><ele>196.2</ele><time>1970-01-01T02:06:41.000Z</time></trkpt><trkpt lat="14.76747" lon="101.155281"><ele>194.3</ele><time>1970-01-01T02:06:42.000Z</time></trkpt><trkpt lat="14.767511" lon="101.155265"><ele>193.1</ele><time>1970-01-01T02:06:43.000Z</time></trkpt><trkpt lat="14.767565" lon="101.155243"><ele>191.6</ele><time>1970-01-01T02:06:44.000Z</time></trkpt><trkpt lat="14.767635" lon="101.155214"><ele>190.1</ele><time>1970-01-01T02:06:45.000Z</time></trkpt><trkpt lat="14.767711" lon="101.15518"><ele>188.3</ele><time>1970-01-01T02:06:46.000Z</time></trkpt><trkpt lat="14.767776" lon="101.155138"><ele>186.9</ele><time>1970-01-01T02:06:47.000Z</time></trkpt><trkpt lat="14.767844" lon="101.155114"><ele>185.6</ele><time>1970-01-01T02:06:49.000Z</time></trkpt><trkpt lat="14.767912" lon="101.155092"><ele>184.5</ele><time>1970-01-01T02:06:50.000Z</time></trkpt><trkpt lat="14.767972" lon="101.155057"><ele>183.7</ele><time>1970-01-01T02:06:51.000Z</time></trkpt><trkpt lat="14.768023" lon="101.155039"><ele>183.2</ele><time>1970-01-01T02:06:52.000Z</time></trkpt><trkpt lat="14.768065" lon="101.155021"><ele>183.1</ele><time>1970-01-01T02:06:53.000Z</time></trkpt><trkpt lat="14.76813" lon="101.15501"><ele>183.1</ele><time>1970-01-01T02:06:54.000Z</time></trkpt><trkpt lat="14.768179" lon="101.154991"><ele>183.3</ele><time>1970-01-01T02:06:55.000Z</time></trkpt><trkpt lat="14.76823" lon="101.154976"><ele>183.6</ele><time>1970-01-01T02:06:56.000Z</time></trkpt><trkpt lat="14.768318" lon="101.154992"><ele>184.2</ele><time>1970-01-01T02:06:57.000Z</time></trkpt><trkpt lat="14.768385" lon="101.155001"><ele>184.6</ele><time>1970-01-01T02:06:58.000Z</time></trkpt><trkpt lat="14.768458" lon="101.155014"><ele>185.1</ele><time>1970-01-01T02:06:59.000Z</time></trkpt><trkpt lat="14.768545" lon="101.155036"><ele>185.1</ele><time>1970-01-01T02:07:00.000Z</time></trkpt><trkpt lat="14.768627" lon="101.15505"><ele>184.7</ele><time>1970-01-01T02:07:01.000Z</time></trkpt><trkpt lat="14.768716" lon="101.15506"><ele>184</ele><time>1970-01-01T02:07:02.000Z</time></trkpt><trkpt lat="14.768794" lon="101.155066"><ele>183.3</ele><time>1970-01-01T02:07:03.000Z</time></trkpt><trkpt lat="14.768871" lon="101.155085"><ele>183.2</ele><time>1970-01-01T02:07:04.000Z</time></trkpt><trkpt lat="14.768963" lon="101.155062"><ele>182.4</ele><time>1970-01-01T02:07:06.000Z</time></trkpt><trkpt lat="14.768996" lon="101.155045"><ele>182</ele><time>1970-01-01T02:07:07.000Z</time></trkpt><trkpt lat="14.769053" lon="101.155021"><ele>181.3</ele><time>1970-01-01T02:07:08.000Z</time></trkpt><trkpt lat="14.769121" lon="101.154971"><ele>180.7</ele><time>1970-01-01T02:07:09.000Z</time></trkpt><trkpt lat="14.769189" lon="101.154942"><ele>180.7</ele><time>1970-01-01T02:07:10.000Z</time></trkpt><trkpt lat="14.769251" lon="101.154972"><ele>181</ele><time>1970-01-01T02:07:11.000Z</time></trkpt><trkpt lat="14.769269" lon="101.154995"><ele>181.3</ele><time>1970-01-01T02:07:12.000Z</time></trkpt><trkpt lat="14.769231" lon="101.154998"><ele>181.6</ele><time>1970-01-01T02:07:13.000Z</time></trkpt><trkpt lat="14.769251" lon="101.155018"><ele>181.6</ele><time>1970-01-01T02:07:17.000Z</time></trkpt><trkpt lat="14.769246" lon="101.15505"><ele>181.6</ele><time>1970-01-01T02:07:21.000Z</time></trkpt><trkpt lat="14.769278" lon="101.15506"><ele>181.7</ele><time>1970-01-01T02:07:27.000Z</time></trkpt><trkpt lat="14.769313" lon="101.155074"><ele>181.9</ele><time>1970-01-01T02:07:31.000Z</time></trkpt><trkpt lat="14.769343" lon="101.155074"><ele>181.9</ele><time>1970-01-01T02:07:34.000Z</time></trkpt><trkpt lat="14.769369" lon="101.155091"><ele>181.9</ele><time>1970-01-01T02:07:38.000Z</time></trkpt><trkpt lat="14.769393" lon="101.155118"><ele>181.9</ele><time>1970-01-01T02:07:43.000Z</time></trkpt><trkpt lat="14.769425" lon="101.155125"><ele>182</ele><time>1970-01-01T02:07:46.000Z</time></trkpt><trkpt lat="14.76945" lon="101.155136"><ele>182</ele><time>1970-01-01T02:07:49.000Z</time></trkpt><trkpt lat="14.769475" lon="101.155157"><ele>182.1</ele><time>1970-01-01T02:07:52.000Z</time></trkpt><trkpt lat="14.769485" lon="101.155184"><ele>182.2</ele><time>1970-01-01T02:08:15.000Z</time></trkpt><trkpt lat="14.76952" lon="101.1552"><ele>182.4</ele><time>1970-01-01T02:08:18.000Z</time></trkpt><trkpt lat="14.769556" lon="101.155211"><ele>182.7</ele><time>1970-01-01T02:08:21.000Z</time></trkpt><trkpt lat="14.769584" lon="101.155208"><ele>183</ele><time>1970-01-01T02:08:26.000Z</time></trkpt><trkpt lat="14.769611" lon="101.155219"><ele>182.9</ele><time>1970-01-01T02:08:37.000Z</time></trkpt><trkpt lat="14.769644" lon="101.155218"><ele>182.6</ele><time>1970-01-01T02:08:40.000Z</time></trkpt><trkpt lat="14.76968" lon="101.155213"><ele>182.4</ele><time>1970-01-01T02:08:44.000Z</time></trkpt><trkpt lat="14.769726" lon="101.155196"><ele>182.3</ele><time>1970-01-01T02:08:46.000Z</time></trkpt><trkpt lat="14.769763" lon="101.155186"><ele>182.2</ele><time>1970-01-01T02:08:47.000Z</time></trkpt><trkpt lat="14.769803" lon="101.155175"><ele>182.1</ele><time>1970-01-01T02:08:48.000Z</time></trkpt><trkpt lat="14.769838" lon="101.155161"><ele>181.9</ele><time>1970-01-01T02:08:49.000Z</time></trkpt><trkpt lat="14.769873" lon="101.155145"><ele>181.9</ele><time>1970-01-01T02:08:50.000Z</time></trkpt><trkpt lat="14.769906" lon="101.155128"><ele>182</ele><time>1970-01-01T02:08:51.000Z</time></trkpt><trkpt lat="14.769935" lon="101.155111"><ele>182.4</ele><time>1970-01-01T02:08:52.000Z</time></trkpt><trkpt lat="14.769959" lon="101.155097"><ele>182.8</ele><time>1970-01-01T02:08:53.000Z</time></trkpt><trkpt lat="14.770002" lon="101.155076"><ele>183.5</ele><time>1970-01-01T02:08:55.000Z</time></trkpt><trkpt lat="14.770055" lon="101.155058"><ele>184.3</ele><time>1970-01-01T02:08:57.000Z</time></trkpt><trkpt lat="14.770094" lon="101.155046"><ele>184.6</ele><time>1970-01-01T02:08:58.000Z</time></trkpt><trkpt lat="14.770132" lon="101.155034"><ele>184.9</ele><time>1970-01-01T02:08:59.000Z</time></trkpt><trkpt lat="14.770168" lon="101.155022"><ele>185.3</ele><time>1970-01-01T02:09:01.000Z</time></trkpt><trkpt lat="14.770213" lon="101.154994"><ele>185.9</ele><time>1970-01-01T02:09:03.000Z</time></trkpt><trkpt lat="14.77025" lon="101.15497"><ele>185.9</ele><time>1970-01-01T02:09:04.000Z</time></trkpt><trkpt lat="14.770294" lon="101.154947"><ele>185.6</ele><time>1970-01-01T02:09:05.000Z</time></trkpt><trkpt lat="14.770345" lon="101.154926"><ele>185.1</ele><time>1970-01-01T02:09:06.000Z</time></trkpt><trkpt lat="14.770389" lon="101.154903"><ele>184.6</ele><time>1970-01-01T02:09:07.000Z</time></trkpt><trkpt lat="14.770434" lon="101.154877"><ele>184.1</ele><time>1970-01-01T02:09:08.000Z</time></trkpt><trkpt lat="14.770476" lon="101.154849"><ele>183.9</ele><time>1970-01-01T02:09:09.000Z</time></trkpt><trkpt lat="14.770513" lon="101.154826"><ele>183.8</ele><time>1970-01-01T02:09:10.000Z</time></trkpt><trkpt lat="14.770544" lon="101.154803"><ele>183.7</ele><time>1970-01-01T02:09:11.000Z</time></trkpt><trkpt lat="14.770573" lon="101.154782"><ele>183.7</ele><time>1970-01-01T02:09:12.000Z</time></trkpt><trkpt lat="14.770607" lon="101.15476"><ele>183.3</ele><time>1970-01-01T02:09:13.000Z</time></trkpt><trkpt lat="14.77064" lon="101.154742"><ele>183</ele><time>1970-01-01T02:09:14.000Z</time></trkpt><trkpt lat="14.770675" lon="101.154717"><ele>182.4</ele><time>1970-01-01T02:09:15.000Z</time></trkpt><trkpt lat="14.770716" lon="101.154687"><ele>181.6</ele><time>1970-01-01T02:09:16.000Z</time></trkpt><trkpt lat="14.770755" lon="101.154659"><ele>180.9</ele><time>1970-01-01T02:09:17.000Z</time></trkpt><trkpt lat="14.770796" lon="101.154632"><ele>180.3</ele><time>1970-01-01T02:09:18.000Z</time></trkpt><trkpt lat="14.770877" lon="101.154567"><ele>178.7</ele><time>1970-01-01T02:09:19.000Z</time></trkpt><trkpt lat="14.770944" lon="101.154497"><ele>178.1</ele><time>1970-01-01T02:09:20.000Z</time></trkpt><trkpt lat="14.771001" lon="101.154432"><ele>178.4</ele><time>1970-01-01T02:09:21.000Z</time></trkpt><trkpt lat="14.771075" lon="101.154396"><ele>178.5</ele><time>1970-01-01T02:09:22.000Z</time></trkpt><trkpt lat="14.771147" lon="101.154332"><ele>177.7</ele><time>1970-01-01T02:09:23.000Z</time></trkpt><trkpt lat="14.771213" lon="101.154249"><ele>177</ele><time>1970-01-01T02:09:24.000Z</time></trkpt><trkpt lat="14.771258" lon="101.154215"><ele>176.9</ele><time>1970-01-01T02:09:25.000Z</time></trkpt><trkpt lat="14.771345" lon="101.154183"><ele>176.1</ele><time>1970-01-01T02:09:26.000Z</time></trkpt><trkpt lat="14.771409" lon="101.154129"><ele>175.6</ele><time>1970-01-01T02:09:27.000Z</time></trkpt><trkpt lat="14.771481" lon="101.154106"><ele>175.2</ele><time>1970-01-01T02:09:28.000Z</time></trkpt><trkpt lat="14.77151" lon="101.154159"><ele>175</ele><time>1970-01-01T02:09:29.000Z</time></trkpt><trkpt lat="14.771568" lon="101.154177"><ele>174.6</ele><time>1970-01-01T02:09:30.000Z</time></trkpt><trkpt lat="14.771612" lon="101.154193"><ele>174.2</ele><time>1970-01-01T02:09:31.000Z</time></trkpt><trkpt lat="14.771669" lon="101.154201"><ele>173.6</ele><time>1970-01-01T02:09:32.000Z</time></trkpt><trkpt lat="14.771704" lon="101.154207"><ele>173.1</ele><time>1970-01-01T02:09:33.000Z</time></trkpt><trkpt lat="14.771735" lon="101.154223"><ele>172.6</ele><time>1970-01-01T02:09:35.000Z</time></trkpt><trkpt lat="14.771767" lon="101.154217"><ele>172.3</ele><time>1970-01-01T02:09:36.000Z</time></trkpt><trkpt lat="14.771815" lon="101.154199"><ele>171.8</ele><time>1970-01-01T02:09:37.000Z</time></trkpt><trkpt lat="14.77185" lon="101.154196"><ele>171.6</ele><time>1970-01-01T02:09:38.000Z</time></trkpt><trkpt lat="14.77189" lon="101.154173"><ele>171.4</ele><time>1970-01-01T02:09:40.000Z</time></trkpt><trkpt lat="14.771937" lon="101.154145"><ele>171.2</ele><time>1970-01-01T02:09:42.000Z</time></trkpt><trkpt lat="14.771979" lon="101.15412"><ele>171.6</ele><time>1970-01-01T02:09:44.000Z</time></trkpt><trkpt lat="14.77202" lon="101.154092"><ele>171.9</ele><time>1970-01-01T02:09:46.000Z</time></trkpt><trkpt lat="14.772047" lon="101.154074"><ele>172.1</ele><time>1970-01-01T02:09:47.000Z</time></trkpt><trkpt lat="14.772076" lon="101.154051"><ele>172.2</ele><time>1970-01-01T02:09:48.000Z</time></trkpt><trkpt lat="14.772105" lon="101.154025"><ele>172.4</ele><time>1970-01-01T02:09:49.000Z</time></trkpt><trkpt lat="14.772134" lon="101.153995"><ele>172.5</ele><time>1970-01-01T02:09:50.000Z</time></trkpt><trkpt lat="14.772156" lon="101.153964"><ele>172.5</ele><time>1970-01-01T02:09:51.000Z</time></trkpt><trkpt lat="14.772172" lon="101.153936"><ele>172.5</ele><time>1970-01-01T02:09:52.000Z</time></trkpt><trkpt lat="14.772185" lon="101.15391"><ele>172.5</ele><time>1970-01-01T02:09:53.000Z</time></trkpt><trkpt lat="14.772197" lon="101.153884"><ele>172.4</ele><time>1970-01-01T02:09:54.000Z</time></trkpt><trkpt lat="14.772216" lon="101.153849"><ele>172.4</ele><time>1970-01-01T02:09:55.000Z</time></trkpt><trkpt lat="14.77224" lon="101.153812"><ele>172.4</ele><time>1970-01-01T02:09:56.000Z</time></trkpt><trkpt lat="14.772265" lon="101.153777"><ele>172.4</ele><time>1970-01-01T02:09:57.000Z</time></trkpt><trkpt lat="14.772292" lon="101.153744"><ele>172.4</ele><time>1970-01-01T02:09:58.000Z</time></trkpt><trkpt lat="14.772321" lon="101.153716"><ele>172.4</ele><time>1970-01-01T02:09:59.000Z</time></trkpt><trkpt lat="14.77235" lon="101.15369"><ele>172.3</ele><time>1970-01-01T02:10:00.000Z</time></trkpt><trkpt lat="14.772378" lon="101.153663"><ele>172.2</ele><time>1970-01-01T02:10:01.000Z</time></trkpt><trkpt lat="14.772405" lon="101.153629"><ele>172.1</ele><time>1970-01-01T02:10:02.000Z</time></trkpt><trkpt lat="14.772427" lon="101.153586"><ele>172</ele><time>1970-01-01T02:10:03.000Z</time></trkpt><trkpt lat="14.772445" lon="101.153539"><ele>171.9</ele><time>1970-01-01T02:10:04.000Z</time></trkpt><trkpt lat="14.772465" lon="101.153491"><ele>171.7</ele><time>1970-01-01T02:10:05.000Z</time></trkpt><trkpt lat="14.772489" lon="101.15345"><ele>171.6</ele><time>1970-01-01T02:10:06.000Z</time></trkpt><trkpt lat="14.772513" lon="101.153427"><ele>171.5</ele><time>1970-01-01T02:10:07.000Z</time></trkpt><trkpt lat="14.772542" lon="101.153415"><ele>171.4</ele><time>1970-01-01T02:10:08.000Z</time></trkpt><trkpt lat="14.772592" lon="101.153418"><ele>171.2</ele><time>1970-01-01T02:10:10.000Z</time></trkpt><trkpt lat="14.772637" lon="101.153409"><ele>170.9</ele><time>1970-01-01T02:10:12.000Z</time></trkpt><trkpt lat="14.772661" lon="101.15339"><ele>170.6</ele><time>1970-01-01T02:10:13.000Z</time></trkpt><trkpt lat="14.772691" lon="101.153346"><ele>170.2</ele><time>1970-01-01T02:10:15.000Z</time></trkpt><trkpt lat="14.772699" lon="101.153318"><ele>170.1</ele><time>1970-01-01T02:10:16.000Z</time></trkpt><trkpt lat="14.772703" lon="101.15329"><ele>170</ele><time>1970-01-01T02:10:17.000Z</time></trkpt><trkpt lat="14.772712" lon="101.153228"><ele>169.8</ele><time>1970-01-01T02:10:19.000Z</time></trkpt><trkpt lat="14.772727" lon="101.15319"><ele>169.8</ele><time>1970-01-01T02:10:20.000Z</time></trkpt><trkpt lat="14.772746" lon="101.15316"><ele>169.9</ele><time>1970-01-01T02:10:21.000Z</time></trkpt><trkpt lat="14.772766" lon="101.153137"><ele>170</ele><time>1970-01-01T02:10:22.000Z</time></trkpt><trkpt lat="14.772799" lon="101.15311"><ele>170.4</ele><time>1970-01-01T02:10:24.000Z</time></trkpt><trkpt lat="14.772828" lon="101.153101"><ele>170.7</ele><time>1970-01-01T02:10:26.000Z</time></trkpt><trkpt lat="14.772858" lon="101.153083"><ele>170.9</ele><time>1970-01-01T02:10:28.000Z</time></trkpt><trkpt lat="14.772894" lon="101.153069"><ele>171.2</ele><time>1970-01-01T02:10:30.000Z</time></trkpt><trkpt lat="14.772921" lon="101.153065"><ele>171.3</ele><time>1970-01-01T02:10:31.000Z</time></trkpt><trkpt lat="14.772953" lon="101.153064"><ele>171.5</ele><time>1970-01-01T02:10:32.000Z</time></trkpt><trkpt lat="14.772993" lon="101.153066"><ele>171.7</ele><time>1970-01-01T02:10:33.000Z</time></trkpt><trkpt lat="14.773038" lon="101.153071"><ele>172.2</ele><time>1970-01-01T02:10:34.000Z</time></trkpt><trkpt lat="14.773084" lon="101.153078"><ele>172.6</ele><time>1970-01-01T02:10:35.000Z</time></trkpt><trkpt lat="14.773132" lon="101.153091"><ele>172.5</ele><time>1970-01-01T02:10:36.000Z</time></trkpt><trkpt lat="14.773183" lon="101.153104"><ele>172.7</ele><time>1970-01-01T02:10:37.000Z</time></trkpt><trkpt lat="14.773228" lon="101.153111"><ele>173</ele><time>1970-01-01T02:10:38.000Z</time></trkpt><trkpt lat="14.773269" lon="101.153117"><ele>173.2</ele><time>1970-01-01T02:10:39.000Z</time></trkpt><trkpt lat="14.773315" lon="101.153121"><ele>173.3</ele><time>1970-01-01T02:10:40.000Z</time></trkpt><trkpt lat="14.773359" lon="101.153124"><ele>173.2</ele><time>1970-01-01T02:10:41.000Z</time></trkpt><trkpt lat="14.773404" lon="101.153127"><ele>172.9</ele><time>1970-01-01T02:10:42.000Z</time></trkpt><trkpt lat="14.77345" lon="101.153129"><ele>172.6</ele><time>1970-01-01T02:10:43.000Z</time></trkpt><trkpt lat="14.773498" lon="101.153132"><ele>172.5</ele><time>1970-01-01T02:10:44.000Z</time></trkpt><trkpt lat="14.773546" lon="101.153132"><ele>171.8</ele><time>1970-01-01T02:10:45.000Z</time></trkpt><trkpt lat="14.773594" lon="101.153131"><ele>170.9</ele><time>1970-01-01T02:10:46.000Z</time></trkpt><trkpt lat="14.773639" lon="101.153124"><ele>170.3</ele><time>1970-01-01T02:10:47.000Z</time></trkpt><trkpt lat="14.773686" lon="101.153113"><ele>169.7</ele><time>1970-01-01T02:10:48.000Z</time></trkpt><trkpt lat="14.773734" lon="101.153099"><ele>169.2</ele><time>1970-01-01T02:10:49.000Z</time></trkpt><trkpt lat="14.773823" lon="101.153069"><ele>168.3</ele><time>1970-01-01T02:10:50.000Z</time></trkpt><trkpt lat="14.773886" lon="101.153074"><ele>166.8</ele><time>1970-01-01T02:10:51.000Z</time></trkpt><trkpt lat="14.773934" lon="101.153081"><ele>165.3</ele><time>1970-01-01T02:10:52.000Z</time></trkpt><trkpt lat="14.773974" lon="101.153094"><ele>164.5</ele><time>1970-01-01T02:10:53.000Z</time></trkpt><trkpt lat="14.774028" lon="101.153083"><ele>163.9</ele><time>1970-01-01T02:10:54.000Z</time></trkpt><trkpt lat="14.774071" lon="101.153074"><ele>163.4</ele><time>1970-01-01T02:10:55.000Z</time></trkpt><trkpt lat="14.774127" lon="101.153061"><ele>162.8</ele><time>1970-01-01T02:10:56.000Z</time></trkpt><trkpt lat="14.774186" lon="101.153037"><ele>162.1</ele><time>1970-01-01T02:10:57.000Z</time></trkpt><trkpt lat="14.774215" lon="101.153025"><ele>161.9</ele><time>1970-01-01T02:10:58.000Z</time></trkpt><trkpt lat="14.774256" lon="101.15301"><ele>161.6</ele><time>1970-01-01T02:10:59.000Z</time></trkpt><trkpt lat="14.774306" lon="101.152997"><ele>161.7</ele><time>1970-01-01T02:11:00.000Z</time></trkpt><trkpt lat="14.774349" lon="101.152976"><ele>162</ele><time>1970-01-01T02:11:01.000Z</time></trkpt><trkpt lat="14.77438" lon="101.152968"><ele>162.4</ele><time>1970-01-01T02:11:02.000Z</time></trkpt><trkpt lat="14.774463" lon="101.152921"><ele>163.6</ele><time>1970-01-01T02:11:03.000Z</time></trkpt><trkpt lat="14.774515" lon="101.152884"><ele>164.3</ele><time>1970-01-01T02:11:04.000Z</time></trkpt><trkpt lat="14.774548" lon="101.152859"><ele>164.6</ele><time>1970-01-01T02:11:05.000Z</time></trkpt><trkpt lat="14.774589" lon="101.152837"><ele>164.8</ele><time>1970-01-01T02:11:06.000Z</time></trkpt><trkpt lat="14.774643" lon="101.152807"><ele>164.9</ele><time>1970-01-01T02:11:07.000Z</time></trkpt><trkpt lat="14.774674" lon="101.15278"><ele>164.9</ele><time>1970-01-01T02:11:08.000Z</time></trkpt><trkpt lat="14.774707" lon="101.152762"><ele>164.6</ele><time>1970-01-01T02:11:09.000Z</time></trkpt><trkpt lat="14.774755" lon="101.152768"><ele>164.3</ele><time>1970-01-01T02:11:10.000Z</time></trkpt><trkpt lat="14.774795" lon="101.152733"><ele>163.9</ele><time>1970-01-01T02:11:11.000Z</time></trkpt><trkpt lat="14.774834" lon="101.152733"><ele>163.6</ele><time>1970-01-01T02:11:12.000Z</time></trkpt><trkpt lat="14.774879" lon="101.152752"><ele>163.3</ele><time>1970-01-01T02:11:13.000Z</time></trkpt><trkpt lat="14.774931" lon="101.152761"><ele>162.9</ele><time>1970-01-01T02:11:14.000Z</time></trkpt><trkpt lat="14.774968" lon="101.15277"><ele>162.9</ele><time>1970-01-01T02:11:15.000Z</time></trkpt><trkpt lat="14.775014" lon="101.152762"><ele>162.8</ele><time>1970-01-01T02:11:17.000Z</time></trkpt><trkpt lat="14.775049" lon="101.152762"><ele>162.5</ele><time>1970-01-01T02:11:19.000Z</time></trkpt><trkpt lat="14.7751" lon="101.152768"><ele>162.1</ele><time>1970-01-01T02:11:23.000Z</time></trkpt><trkpt lat="14.775142" lon="101.152785"><ele>161.8</ele><time>1970-01-01T02:11:24.000Z</time></trkpt><trkpt lat="14.775187" lon="101.152809"><ele>161.5</ele><time>1970-01-01T02:11:25.000Z</time></trkpt><trkpt lat="14.775234" lon="101.152837"><ele>161.3</ele><time>1970-01-01T02:11:26.000Z</time></trkpt><trkpt lat="14.775278" lon="101.152859"><ele>161.1</ele><time>1970-01-01T02:11:27.000Z</time></trkpt><trkpt lat="14.775317" lon="101.152876"><ele>161</ele><time>1970-01-01T02:11:28.000Z</time></trkpt><trkpt lat="14.775361" lon="101.15289"><ele>160.7</ele><time>1970-01-01T02:11:29.000Z</time></trkpt><trkpt lat="14.775411" lon="101.152904"><ele>160.4</ele><time>1970-01-01T02:11:30.000Z</time></trkpt><trkpt lat="14.775463" lon="101.152918"><ele>160.2</ele><time>1970-01-01T02:11:31.000Z</time></trkpt><trkpt lat="14.775517" lon="101.152932"><ele>160.1</ele><time>1970-01-01T02:11:32.000Z</time></trkpt><trkpt lat="14.775571" lon="101.152945"><ele>160.1</ele><time>1970-01-01T02:11:33.000Z</time></trkpt><trkpt lat="14.775623" lon="101.152952"><ele>160.2</ele><time>1970-01-01T02:11:34.000Z</time></trkpt><trkpt lat="14.775675" lon="101.15295"><ele>160.3</ele><time>1970-01-01T02:11:35.000Z</time></trkpt><trkpt lat="14.775728" lon="101.152941"><ele>160.5</ele><time>1970-01-01T02:11:36.000Z</time></trkpt><trkpt lat="14.775772" lon="101.152935"><ele>160.7</ele><time>1970-01-01T02:11:37.000Z</time></trkpt><trkpt lat="14.775806" lon="101.152935"><ele>160.9</ele><time>1970-01-01T02:11:38.000Z</time></trkpt><trkpt lat="14.775845" lon="101.152942"><ele>161</ele><time>1970-01-01T02:11:40.000Z</time></trkpt><trkpt lat="14.775866" lon="101.15297"><ele>161.2</ele><time>1970-01-01T02:11:42.000Z</time></trkpt><trkpt lat="14.775883" lon="101.153005"><ele>161.3</ele><time>1970-01-01T02:11:44.000Z</time></trkpt><trkpt lat="14.775893" lon="101.153034"><ele>161.4</ele><time>1970-01-01T02:11:46.000Z</time></trkpt><trkpt lat="14.775915" lon="101.15307"><ele>161.6</ele><time>1970-01-01T02:11:48.000Z</time></trkpt><trkpt lat="14.775958" lon="101.153108"><ele>161.8</ele><time>1970-01-01T02:11:50.000Z</time></trkpt><trkpt lat="14.77598" lon="101.153129"><ele>161.8</ele><time>1970-01-01T02:11:51.000Z</time></trkpt><trkpt lat="14.776" lon="101.15315"><ele>161.7</ele><time>1970-01-01T02:11:52.000Z</time></trkpt><trkpt lat="14.776029" lon="101.153174"><ele>161.7</ele><time>1970-01-01T02:11:53.000Z</time></trkpt><trkpt lat="14.776065" lon="101.153202"><ele>161.5</ele><time>1970-01-01T02:11:54.000Z</time></trkpt><trkpt lat="14.776105" lon="101.153232"><ele>161.2</ele><time>1970-01-01T02:11:55.000Z</time></trkpt><trkpt lat="14.776145" lon="101.153264"><ele>160.6</ele><time>1970-01-01T02:11:56.000Z</time></trkpt><trkpt lat="14.776204" lon="101.153319"><ele>159.9</ele><time>1970-01-01T02:11:57.000Z</time></trkpt><trkpt lat="14.776262" lon="101.153328"><ele>159.5</ele><time>1970-01-01T02:11:58.000Z</time></trkpt><trkpt lat="14.776296" lon="101.153327"><ele>159.3</ele><time>1970-01-01T02:11:59.000Z</time></trkpt><trkpt lat="14.776338" lon="101.153347"><ele>159</ele><time>1970-01-01T02:12:01.000Z</time></trkpt><trkpt lat="14.776383" lon="101.153343"><ele>158.9</ele><time>1970-01-01T02:12:03.000Z</time></trkpt><trkpt lat="14.776409" lon="101.153326"><ele>158.8</ele><time>1970-01-01T02:12:05.000Z</time></trkpt><trkpt lat="14.776453" lon="101.15333"><ele>158.5</ele><time>1970-01-01T02:12:07.000Z</time></trkpt><trkpt lat="14.776496" lon="101.153329"><ele>158.1</ele><time>1970-01-01T02:12:09.000Z</time></trkpt><trkpt lat="14.776539" lon="101.153339"><ele>158.1</ele><time>1970-01-01T02:12:11.000Z</time></trkpt><trkpt lat="14.776569" lon="101.153366"><ele>158.3</ele><time>1970-01-01T02:12:13.000Z</time></trkpt><trkpt lat="14.776596" lon="101.153397"><ele>158.8</ele><time>1970-01-01T02:12:15.000Z</time></trkpt><trkpt lat="14.776627" lon="101.153429"><ele>159.5</ele><time>1970-01-01T02:12:17.000Z</time></trkpt><trkpt lat="14.776666" lon="101.153451"><ele>159.6</ele><time>1970-01-01T02:12:19.000Z</time></trkpt><trkpt lat="14.776703" lon="101.15346"><ele>159.3</ele><time>1970-01-01T02:12:21.000Z</time></trkpt><trkpt lat="14.776744" lon="101.153461"><ele>158.7</ele><time>1970-01-01T02:12:23.000Z</time></trkpt><trkpt lat="14.776779" lon="101.153473"><ele>158.2</ele><time>1970-01-01T02:12:25.000Z</time></trkpt><trkpt lat="14.776805" lon="101.153491"><ele>157.9</ele><time>1970-01-01T02:12:27.000Z</time></trkpt><trkpt lat="14.77683" lon="101.153504"><ele>157.6</ele><time>1970-01-01T02:12:29.000Z</time></trkpt><trkpt lat="14.776876" lon="101.153518"><ele>157.7</ele><time>1970-01-01T02:12:31.000Z</time></trkpt><trkpt lat="14.776921" lon="101.15353"><ele>157.4</ele><time>1970-01-01T02:12:33.000Z</time></trkpt><trkpt lat="14.776951" lon="101.153534"><ele>157.1</ele><time>1970-01-01T02:12:34.000Z</time></trkpt><trkpt lat="14.776981" lon="101.153535"><ele>156.9</ele><time>1970-01-01T02:12:35.000Z</time></trkpt><trkpt lat="14.777027" lon="101.153539"><ele>156.6</ele><time>1970-01-01T02:12:37.000Z</time></trkpt><trkpt lat="14.777058" lon="101.153541"><ele>156.5</ele><time>1970-01-01T02:12:39.000Z</time></trkpt><trkpt lat="14.77708" lon="101.153559"><ele>156.6</ele><time>1970-01-01T02:12:44.000Z</time></trkpt><trkpt lat="14.777152" lon="101.15356"><ele>155.5</ele><time>1970-01-01T02:13:28.000Z</time></trkpt><trkpt lat="14.777181" lon="101.153545"><ele>155.1</ele><time>1970-01-01T02:13:29.000Z</time></trkpt><trkpt lat="14.777217" lon="101.15353"><ele>155</ele><time>1970-01-01T02:13:30.000Z</time></trkpt><trkpt lat="14.777257" lon="101.153509"><ele>155</ele><time>1970-01-01T02:13:31.000Z</time></trkpt><trkpt lat="14.777345" lon="101.153456"><ele>155.2</ele><time>1970-01-01T02:13:32.000Z</time></trkpt><trkpt lat="14.777397" lon="101.153433"><ele>155.6</ele><time>1970-01-01T02:13:33.000Z</time></trkpt><trkpt lat="14.777444" lon="101.15342"><ele>156.1</ele><time>1970-01-01T02:13:34.000Z</time></trkpt><trkpt lat="14.777485" lon="101.153418"><ele>156.7</ele><time>1970-01-01T02:13:35.000Z</time></trkpt><trkpt lat="14.777519" lon="101.153408"><ele>157.2</ele><time>1970-01-01T02:13:36.000Z</time></trkpt><trkpt lat="14.777565" lon="101.153395"><ele>157.6</ele><time>1970-01-01T02:13:37.000Z</time></trkpt><trkpt lat="14.777596" lon="101.153389"><ele>157.7</ele><time>1970-01-01T02:13:38.000Z</time></trkpt><trkpt lat="14.777631" lon="101.153381"><ele>157.9</ele><time>1970-01-01T02:13:41.000Z</time></trkpt><trkpt lat="14.777658" lon="101.153397"><ele>158.1</ele><time>1970-01-01T02:13:46.000Z</time></trkpt><trkpt lat="14.777694" lon="101.153397"><ele>158.3</ele><time>1970-01-01T02:13:49.000Z</time></trkpt><trkpt lat="14.777739" lon="101.153393"><ele>158.7</ele><time>1970-01-01T02:13:51.000Z</time></trkpt><trkpt lat="14.77778" lon="101.153393"><ele>158.8</ele><time>1970-01-01T02:13:53.000Z</time></trkpt><trkpt lat="14.777843" lon="101.153406"><ele>158.7</ele><time>1970-01-01T02:13:55.000Z</time></trkpt><trkpt lat="14.777891" lon="101.153426"><ele>158.4</ele><time>1970-01-01T02:13:56.000Z</time></trkpt><trkpt lat="14.777942" lon="101.153446"><ele>158.4</ele><time>1970-01-01T02:13:57.000Z</time></trkpt><trkpt lat="14.777988" lon="101.153461"><ele>158.7</ele><time>1970-01-01T02:13:58.000Z</time></trkpt><trkpt lat="14.778027" lon="101.153472"><ele>158.4</ele><time>1970-01-01T02:13:59.000Z</time></trkpt><trkpt lat="14.778066" lon="101.153476"><ele>158.1</ele><time>1970-01-01T02:14:00.000Z</time></trkpt><trkpt lat="14.778101" lon="101.153474"><ele>157.8</ele><time>1970-01-01T02:14:01.000Z</time></trkpt><trkpt lat="14.778129" lon="101.153467"><ele>157.5</ele><time>1970-01-01T02:14:02.000Z</time></trkpt><trkpt lat="14.778156" lon="101.153457"><ele>157.2</ele><time>1970-01-01T02:14:03.000Z</time></trkpt><trkpt lat="14.778182" lon="101.153443"><ele>157.1</ele><time>1970-01-01T02:14:04.000Z</time></trkpt><trkpt lat="14.77821" lon="101.153429"><ele>156.9</ele><time>1970-01-01T02:14:05.000Z</time></trkpt><trkpt lat="14.778247" lon="101.15342"><ele>156.7</ele><time>1970-01-01T02:14:06.000Z</time></trkpt><trkpt lat="14.778295" lon="101.153422"><ele>156.3</ele><time>1970-01-01T02:14:07.000Z</time></trkpt><trkpt lat="14.778437" lon="101.153448"><ele>156.8</ele><time>1970-01-01T02:14:08.000Z</time></trkpt><trkpt lat="14.778509" lon="101.153461"><ele>157.3</ele><time>1970-01-01T02:14:09.000Z</time></trkpt><trkpt lat="14.77853" lon="101.153477"><ele>157.4</ele><time>1970-01-01T02:14:10.000Z</time></trkpt><trkpt lat="14.778597" lon="101.153508"><ele>157.6</ele><time>1970-01-01T02:14:11.000Z</time></trkpt><trkpt lat="14.778651" lon="101.153523"><ele>157.4</ele><time>1970-01-01T02:14:12.000Z</time></trkpt><trkpt lat="14.778721" lon="101.153533"><ele>156.7</ele><time>1970-01-01T02:14:13.000Z</time></trkpt><trkpt lat="14.778811" lon="101.15352"><ele>154.8</ele><time>1970-01-01T02:14:14.000Z</time></trkpt><trkpt lat="14.77884" lon="101.153531"><ele>154.2</ele><time>1970-01-01T02:14:15.000Z</time></trkpt><trkpt lat="14.778861" lon="101.153549"><ele>153.7</ele><time>1970-01-01T02:14:16.000Z</time></trkpt><trkpt lat="14.778906" lon="101.153539"><ele>153</ele><time>1970-01-01T02:14:17.000Z</time></trkpt><trkpt lat="14.778952" lon="101.153522"><ele>152.4</ele><time>1970-01-01T02:14:18.000Z</time></trkpt><trkpt lat="14.778997" lon="101.153538"><ele>152.1</ele><time>1970-01-01T02:14:20.000Z</time></trkpt><trkpt lat="14.779037" lon="101.15353"><ele>151.9</ele><time>1970-01-01T02:14:21.000Z</time></trkpt><trkpt lat="14.77908" lon="101.153518"><ele>151.8</ele><time>1970-01-01T02:14:22.000Z</time></trkpt><trkpt lat="14.779126" lon="101.153519"><ele>151.5</ele><time>1970-01-01T02:14:23.000Z</time></trkpt><trkpt lat="14.779179" lon="101.153536"><ele>151</ele><time>1970-01-01T02:14:24.000Z</time></trkpt><trkpt lat="14.779223" lon="101.153536"><ele>151</ele><time>1970-01-01T02:14:25.000Z</time></trkpt><trkpt lat="14.779268" lon="101.153537"><ele>150.8</ele><time>1970-01-01T02:14:26.000Z</time></trkpt><trkpt lat="14.779371" lon="101.153512"><ele>149.5</ele><time>1970-01-01T02:14:27.000Z</time></trkpt><trkpt lat="14.779428" lon="101.153503"><ele>148.6</ele><time>1970-01-01T02:14:28.000Z</time></trkpt><trkpt lat="14.779513" lon="101.153516"><ele>148</ele><time>1970-01-01T02:14:29.000Z</time></trkpt><trkpt lat="14.779558" lon="101.15352"><ele>148.1</ele><time>1970-01-01T02:14:30.000Z</time></trkpt><trkpt lat="14.77963" lon="101.153511"><ele>148.9</ele><time>1970-01-01T02:14:31.000Z</time></trkpt><trkpt lat="14.779685" lon="101.153495"><ele>149.3</ele><time>1970-01-01T02:14:32.000Z</time></trkpt><trkpt lat="14.779673" lon="101.153525"><ele>149.5</ele><time>1970-01-01T02:14:33.000Z</time></trkpt><trkpt lat="14.779732" lon="101.153537"><ele>150.1</ele><time>1970-01-01T02:14:35.000Z</time></trkpt><trkpt lat="14.779777" lon="101.153537"><ele>150.2</ele><time>1970-01-01T02:14:37.000Z</time></trkpt><trkpt lat="14.779804" lon="101.15353"><ele>150.3</ele><time>1970-01-01T02:14:38.000Z</time></trkpt><trkpt lat="14.779831" lon="101.153523"><ele>150.5</ele><time>1970-01-01T02:14:43.000Z</time></trkpt><trkpt lat="14.779867" lon="101.153536"><ele>150.9</ele><time>1970-01-01T02:14:47.000Z</time></trkpt><trkpt lat="14.779908" lon="101.153553"><ele>151.5</ele><time>1970-01-01T02:14:50.000Z</time></trkpt><trkpt lat="14.779948" lon="101.153563"><ele>152.1</ele><time>1970-01-01T02:14:52.000Z</time></trkpt><trkpt lat="14.779986" lon="101.153565"><ele>152.5</ele><time>1970-01-01T02:14:54.000Z</time></trkpt><trkpt lat="14.780022" lon="101.15357"><ele>152.4</ele><time>1970-01-01T02:14:56.000Z</time></trkpt><trkpt lat="14.780055" lon="101.153591"><ele>152.3</ele><time>1970-01-01T02:14:59.000Z</time></trkpt><trkpt lat="14.780091" lon="101.153604"><ele>152.4</ele><time>1970-01-01T02:15:01.000Z</time></trkpt><trkpt lat="14.780135" lon="101.153614"><ele>152.6</ele><time>1970-01-01T02:15:03.000Z</time></trkpt><trkpt lat="14.780169" lon="101.153625"><ele>152.4</ele><time>1970-01-01T02:15:05.000Z</time></trkpt><trkpt lat="14.780198" lon="101.153634"><ele>151.8</ele><time>1970-01-01T02:15:07.000Z</time></trkpt><trkpt lat="14.780229" lon="101.153654"><ele>151.2</ele><time>1970-01-01T02:15:10.000Z</time></trkpt><trkpt lat="14.780257" lon="101.153672"><ele>150.8</ele><time>1970-01-01T02:15:12.000Z</time></trkpt><trkpt lat="14.780298" lon="101.153684"><ele>150.6</ele><time>1970-01-01T02:15:14.000Z</time></trkpt><trkpt lat="14.780327" lon="101.15369"><ele>150.4</ele><time>1970-01-01T02:15:16.000Z</time></trkpt><trkpt lat="14.780353" lon="101.1537"><ele>150.4</ele><time>1970-01-01T02:15:18.000Z</time></trkpt><trkpt lat="14.780383" lon="101.153704"><ele>150.3</ele><time>1970-01-01T02:15:21.000Z</time></trkpt><trkpt lat="14.780407" lon="101.153729"><ele>150.3</ele><time>1970-01-01T02:15:24.000Z</time></trkpt><trkpt lat="14.780433" lon="101.153746"><ele>150.1</ele><time>1970-01-01T02:15:28.000Z</time></trkpt><trkpt lat="14.780454" lon="101.15377"><ele>149.9</ele><time>1970-01-01T02:15:36.000Z</time></trkpt><trkpt lat="14.780478" lon="101.153788"><ele>149.7</ele><time>1970-01-01T02:15:40.000Z</time></trkpt><trkpt lat="14.780506" lon="101.153808"><ele>149.8</ele><time>1970-01-01T02:15:43.000Z</time></trkpt><trkpt lat="14.780528" lon="101.153825"><ele>149.8</ele><time>1970-01-01T02:15:45.000Z</time></trkpt><trkpt lat="14.780552" lon="101.153844"><ele>149.8</ele><time>1970-01-01T02:15:47.000Z</time></trkpt><trkpt lat="14.780574" lon="101.153865"><ele>149.6</ele><time>1970-01-01T02:15:49.000Z</time></trkpt><trkpt lat="14.7806" lon="101.153887"><ele>149.2</ele><time>1970-01-01T02:15:51.000Z</time></trkpt><trkpt lat="14.78064" lon="101.153908"><ele>148.8</ele><time>1970-01-01T02:15:53.000Z</time></trkpt><trkpt lat="14.780673" lon="101.153929"><ele>148.5</ele><time>1970-01-01T02:15:54.000Z</time></trkpt><trkpt lat="14.78071" lon="101.153949"><ele>148</ele><time>1970-01-01T02:15:55.000Z</time></trkpt><trkpt lat="14.780753" lon="101.153965"><ele>147.3</ele><time>1970-01-01T02:15:56.000Z</time></trkpt><trkpt lat="14.780804" lon="101.153979"><ele>145.6</ele><time>1970-01-01T02:15:57.000Z</time></trkpt><trkpt lat="14.780853" lon="101.153993"><ele>144.8</ele><time>1970-01-01T02:15:58.000Z</time></trkpt><trkpt lat="14.780899" lon="101.154001"><ele>144.4</ele><time>1970-01-01T02:15:59.000Z</time></trkpt><trkpt lat="14.780937" lon="101.153998"><ele>144.3</ele><time>1970-01-01T02:16:00.000Z</time></trkpt><trkpt lat="14.780971" lon="101.153984"><ele>144</ele><time>1970-01-01T02:16:01.000Z</time></trkpt><trkpt lat="14.781005" lon="101.153959"><ele>143.6</ele><time>1970-01-01T02:16:02.000Z</time></trkpt><trkpt lat="14.781036" lon="101.15393"><ele>143.4</ele><time>1970-01-01T02:16:03.000Z</time></trkpt><trkpt lat="14.781065" lon="101.153899"><ele>143.2</ele><time>1970-01-01T02:16:04.000Z</time></trkpt><trkpt lat="14.781096" lon="101.153868"><ele>143</ele><time>1970-01-01T02:16:05.000Z</time></trkpt><trkpt lat="14.781129" lon="101.153839"><ele>142.9</ele><time>1970-01-01T02:16:06.000Z</time></trkpt><trkpt lat="14.781219" lon="101.153784"><ele>142.4</ele><time>1970-01-01T02:16:07.000Z</time></trkpt><trkpt lat="14.781276" lon="101.153755"><ele>141.7</ele><time>1970-01-01T02:16:08.000Z</time></trkpt><trkpt lat="14.78136" lon="101.153719"><ele>140.1</ele><time>1970-01-01T02:16:09.000Z</time></trkpt><trkpt lat="14.781445" lon="101.153681"><ele>138.2</ele><time>1970-01-01T02:16:10.000Z</time></trkpt><trkpt lat="14.781529" lon="101.153639"><ele>136.7</ele><time>1970-01-01T02:16:11.000Z</time></trkpt><trkpt lat="14.781627" lon="101.153599"><ele>135.7</ele><time>1970-01-01T02:16:12.000Z</time></trkpt><trkpt lat="14.781702" lon="101.153558"><ele>134.1</ele><time>1970-01-01T02:16:13.000Z</time></trkpt><trkpt lat="14.781791" lon="101.1535"><ele>132.7</ele><time>1970-01-01T02:16:14.000Z</time></trkpt><trkpt lat="14.781878" lon="101.153464"><ele>132.2</ele><time>1970-01-01T02:16:15.000Z</time></trkpt><trkpt lat="14.781951" lon="101.153424"><ele>132.2</ele><time>1970-01-01T02:16:16.000Z</time></trkpt><trkpt lat="14.782003" lon="101.153393"><ele>132.1</ele><time>1970-01-01T02:16:17.000Z</time></trkpt><trkpt lat="14.782025" lon="101.153357"><ele>132.4</ele><time>1970-01-01T02:16:18.000Z</time></trkpt><trkpt lat="14.782073" lon="101.153328"><ele>132.9</ele><time>1970-01-01T02:16:19.000Z</time></trkpt><trkpt lat="14.782115" lon="101.153278"><ele>133.9</ele><time>1970-01-01T02:16:20.000Z</time></trkpt><trkpt lat="14.78216" lon="101.153249"><ele>134.7</ele><time>1970-01-01T02:16:21.000Z</time></trkpt><trkpt lat="14.782228" lon="101.153226"><ele>135.7</ele><time>1970-01-01T02:16:22.000Z</time></trkpt><trkpt lat="14.782262" lon="101.153177"><ele>135.9</ele><time>1970-01-01T02:16:23.000Z</time></trkpt><trkpt lat="14.782343" lon="101.15315"><ele>136.1</ele><time>1970-01-01T02:16:24.000Z</time></trkpt><trkpt lat="14.782424" lon="101.15314"><ele>136.1</ele><time>1970-01-01T02:16:26.000Z</time></trkpt><trkpt lat="14.782472" lon="101.153136"><ele>136.1</ele><time>1970-01-01T02:16:27.000Z</time></trkpt><trkpt lat="14.782513" lon="101.153126"><ele>136.1</ele><time>1970-01-01T02:16:28.000Z</time></trkpt><trkpt lat="14.782555" lon="101.153119"><ele>135.9</ele><time>1970-01-01T02:16:29.000Z</time></trkpt><trkpt lat="14.782589" lon="101.15311"><ele>135.7</ele><time>1970-01-01T02:16:30.000Z</time></trkpt><trkpt lat="14.782618" lon="101.153101"><ele>135.6</ele><time>1970-01-01T02:16:31.000Z</time></trkpt><trkpt lat="14.782657" lon="101.153088"><ele>135.3</ele><time>1970-01-01T02:16:32.000Z</time></trkpt><trkpt lat="14.782761" lon="101.153079"><ele>134.7</ele><time>1970-01-01T02:16:33.000Z</time></trkpt><trkpt lat="14.782824" lon="101.153081"><ele>134.5</ele><time>1970-01-01T02:16:34.000Z</time></trkpt><trkpt lat="14.782878" lon="101.15308"><ele>134.4</ele><time>1970-01-01T02:16:35.000Z</time></trkpt><trkpt lat="14.782914" lon="101.153083"><ele>134.3</ele><time>1970-01-01T02:16:36.000Z</time></trkpt><trkpt lat="14.782923" lon="101.153049"><ele>134.2</ele><time>1970-01-01T02:16:37.000Z</time></trkpt><trkpt lat="14.78297" lon="101.153026"><ele>134</ele><time>1970-01-01T02:16:38.000Z</time></trkpt><trkpt lat="14.782999" lon="101.152981"><ele>133.6</ele><time>1970-01-01T02:16:39.000Z</time></trkpt><trkpt lat="14.783033" lon="101.152953"><ele>133.1</ele><time>1970-01-01T02:16:44.000Z</time></trkpt><trkpt lat="14.783081" lon="101.152934"><ele>132.3</ele><time>1970-01-01T02:16:46.000Z</time></trkpt><trkpt lat="14.783132" lon="101.152943"><ele>131.3</ele><time>1970-01-01T02:16:48.000Z</time></trkpt><trkpt lat="14.783165" lon="101.152945"><ele>130.7</ele><time>1970-01-01T02:16:49.000Z</time></trkpt><trkpt lat="14.783202" lon="101.15295"><ele>130.2</ele><time>1970-01-01T02:16:50.000Z</time></trkpt><trkpt lat="14.783238" lon="101.152955"><ele>129.8</ele><time>1970-01-01T02:16:51.000Z</time></trkpt><trkpt lat="14.783276" lon="101.152963"><ele>129.4</ele><time>1970-01-01T02:16:52.000Z</time></trkpt><trkpt lat="14.783318" lon="101.152981"><ele>128.7</ele><time>1970-01-01T02:16:53.000Z</time></trkpt><trkpt lat="14.783358" lon="101.153004"><ele>127.9</ele><time>1970-01-01T02:16:54.000Z</time></trkpt><trkpt lat="14.783394" lon="101.153029"><ele>127</ele><time>1970-01-01T02:16:55.000Z</time></trkpt><trkpt lat="14.783432" lon="101.153052"><ele>126.3</ele><time>1970-01-01T02:16:56.000Z</time></trkpt><trkpt lat="14.783473" lon="101.15307"><ele>125.8</ele><time>1970-01-01T02:16:57.000Z</time></trkpt><trkpt lat="14.783519" lon="101.153086"><ele>125.8</ele><time>1970-01-01T02:16:58.000Z</time></trkpt><trkpt lat="14.783624" lon="101.153141"><ele>128</ele><time>1970-01-01T02:16:59.000Z</time></trkpt><trkpt lat="14.783667" lon="101.153143"><ele>128.6</ele><time>1970-01-01T02:17:00.000Z</time></trkpt><trkpt lat="14.783698" lon="101.153167"><ele>128.9</ele><time>1970-01-01T02:17:01.000Z</time></trkpt><trkpt lat="14.783737" lon="101.153171"><ele>129.3</ele><time>1970-01-01T02:17:02.000Z</time></trkpt><trkpt lat="14.783745" lon="101.153135"><ele>129.6</ele><time>1970-01-01T02:17:04.000Z</time></trkpt><trkpt lat="14.783779" lon="101.153121"><ele>130</ele><time>1970-01-01T02:17:05.000Z</time></trkpt><trkpt lat="14.783802" lon="101.153095"><ele>130.4</ele><time>1970-01-01T02:17:06.000Z</time></trkpt><trkpt lat="14.783827" lon="101.15308"><ele>130.7</ele><time>1970-01-01T02:17:07.000Z</time></trkpt><trkpt lat="14.78387" lon="101.153065"><ele>131.1</ele><time>1970-01-01T02:17:09.000Z</time></trkpt><trkpt lat="14.783899" lon="101.153054"><ele>131.4</ele><time>1970-01-01T02:17:11.000Z</time></trkpt><trkpt lat="14.783932" lon="101.153046"><ele>131.6</ele><time>1970-01-01T02:17:14.000Z</time></trkpt><trkpt lat="14.783959" lon="101.153029"><ele>131.7</ele><time>1970-01-01T02:17:16.000Z</time></trkpt><trkpt lat="14.783988" lon="101.15301"><ele>131.6</ele><time>1970-01-01T02:17:18.000Z</time></trkpt><trkpt lat="14.784027" lon="101.152995"><ele>131.1</ele><time>1970-01-01T02:17:20.000Z</time></trkpt><trkpt lat="14.784054" lon="101.152993"><ele>130.9</ele><time>1970-01-01T02:17:21.000Z</time></trkpt><trkpt lat="14.784081" lon="101.152993"><ele>130.6</ele><time>1970-01-01T02:17:22.000Z</time></trkpt><trkpt lat="14.784111" lon="101.152991"><ele>130.4</ele><time>1970-01-01T02:17:23.000Z</time></trkpt><trkpt lat="14.784141" lon="101.152988"><ele>130.3</ele><time>1970-01-01T02:17:24.000Z</time></trkpt><trkpt lat="14.784169" lon="101.152985"><ele>130.4</ele><time>1970-01-01T02:17:25.000Z</time></trkpt><trkpt lat="14.784202" lon="101.15298"><ele>130.5</ele><time>1970-01-01T02:17:26.000Z</time></trkpt><trkpt lat="14.784241" lon="101.152971"><ele>130.4</ele><time>1970-01-01T02:17:27.000Z</time></trkpt><trkpt lat="14.784285" lon="101.152963"><ele>130.2</ele><time>1970-01-01T02:17:28.000Z</time></trkpt><trkpt lat="14.784331" lon="101.152956"><ele>129.9</ele><time>1970-01-01T02:17:29.000Z</time></trkpt><trkpt lat="14.784438" lon="101.152953"><ele>129.2</ele><time>1970-01-01T02:17:30.000Z</time></trkpt><trkpt lat="14.784505" lon="101.152962"><ele>128.8</ele><time>1970-01-01T02:17:31.000Z</time></trkpt><trkpt lat="14.784556" lon="101.152972"><ele>128.6</ele><time>1970-01-01T02:17:33.000Z</time></trkpt><trkpt lat="14.784612" lon="101.152971"><ele>128.4</ele><time>1970-01-01T02:17:34.000Z</time></trkpt><trkpt lat="14.784636" lon="101.152954"><ele>128.4</ele><time>1970-01-01T02:17:35.000Z</time></trkpt><trkpt lat="14.784672" lon="101.152948"><ele>128.8</ele><time>1970-01-01T02:17:36.000Z</time></trkpt><trkpt lat="14.784721" lon="101.15294"><ele>129.3</ele><time>1970-01-01T02:17:37.000Z</time></trkpt><trkpt lat="14.784795" lon="101.152912"><ele>129.5</ele><time>1970-01-01T02:17:38.000Z</time></trkpt><trkpt lat="14.784868" lon="101.152906"><ele>130.2</ele><time>1970-01-01T02:17:39.000Z</time></trkpt><trkpt lat="14.784947" lon="101.152899"><ele>130.3</ele><time>1970-01-01T02:17:41.000Z</time></trkpt><trkpt lat="14.785038" lon="101.152877"><ele>130.4</ele><time>1970-01-01T02:17:42.000Z</time></trkpt><trkpt lat="14.785119" lon="101.152852"><ele>130.3</ele><time>1970-01-01T02:17:43.000Z</time></trkpt><trkpt lat="14.785186" lon="101.152812"><ele>130</ele><time>1970-01-01T02:17:44.000Z</time></trkpt><trkpt lat="14.785275" lon="101.152807"><ele>129.5</ele><time>1970-01-01T02:17:45.000Z</time></trkpt><trkpt lat="14.785381" lon="101.152782"><ele>128.2</ele><time>1970-01-01T02:17:46.000Z</time></trkpt><trkpt lat="14.785447" lon="101.152759"><ele>127.4</ele><time>1970-01-01T02:17:47.000Z</time></trkpt><trkpt lat="14.785503" lon="101.152734"><ele>126.6</ele><time>1970-01-01T02:17:48.000Z</time></trkpt><trkpt lat="14.785588" lon="101.152713"><ele>127.2</ele><time>1970-01-01T02:17:49.000Z</time></trkpt><trkpt lat="14.785666" lon="101.15267"><ele>127.4</ele><time>1970-01-01T02:17:50.000Z</time></trkpt><trkpt lat="14.785741" lon="101.152649"><ele>128.9</ele><time>1970-01-01T02:17:51.000Z</time></trkpt><trkpt lat="14.785815" lon="101.152644"><ele>129.9</ele><time>1970-01-01T02:17:52.000Z</time></trkpt><trkpt lat="14.785881" lon="101.152619"><ele>130.7</ele><time>1970-01-01T02:17:53.000Z</time></trkpt><trkpt lat="14.785939" lon="101.152621"><ele>131.7</ele><time>1970-01-01T02:17:54.000Z</time></trkpt><trkpt lat="14.786027" lon="101.152634"><ele>131.5</ele><time>1970-01-01T02:17:55.000Z</time></trkpt><trkpt lat="14.786122" lon="101.152637"><ele>129.2</ele><time>1970-01-01T02:17:56.000Z</time></trkpt><trkpt lat="14.786203" lon="101.152611"><ele>128.6</ele><time>1970-01-01T02:17:57.000Z</time></trkpt><trkpt lat="14.786283" lon="101.1526"><ele>128.1</ele><time>1970-01-01T02:17:58.000Z</time></trkpt><trkpt lat="14.786356" lon="101.152586"><ele>128.4</ele><time>1970-01-01T02:17:59.000Z</time></trkpt><trkpt lat="14.786424" lon="101.152581"><ele>127.5</ele><time>1970-01-01T02:18:00.000Z</time></trkpt><trkpt lat="14.786475" lon="101.152529"><ele>126.1</ele><time>1970-01-01T02:18:01.000Z</time></trkpt><trkpt lat="14.786568" lon="101.152503"><ele>124.4</ele><time>1970-01-01T02:18:02.000Z</time></trkpt><trkpt lat="14.786651" lon="101.152491"><ele>123.4</ele><time>1970-01-01T02:18:03.000Z</time></trkpt><trkpt lat="14.786701" lon="101.15249"><ele>123.3</ele><time>1970-01-01T02:18:04.000Z</time></trkpt><trkpt lat="14.78675" lon="101.152483"><ele>123.7</ele><time>1970-01-01T02:18:05.000Z</time></trkpt><trkpt lat="14.786805" lon="101.152461"><ele>123.4</ele><time>1970-01-01T02:18:06.000Z</time></trkpt><trkpt lat="14.786842" lon="101.152448"><ele>123.2</ele><time>1970-01-01T02:18:07.000Z</time></trkpt><trkpt lat="14.786886" lon="101.152421"><ele>123.6</ele><time>1970-01-01T02:18:08.000Z</time></trkpt><trkpt lat="14.786951" lon="101.152387"><ele>123.3</ele><time>1970-01-01T02:18:09.000Z</time></trkpt><trkpt lat="14.787002" lon="101.152367"><ele>122.6</ele><time>1970-01-01T02:18:10.000Z</time></trkpt><trkpt lat="14.787056" lon="101.152352"><ele>122</ele><time>1970-01-01T02:18:11.000Z</time></trkpt><trkpt lat="14.787113" lon="101.152352"><ele>121.8</ele><time>1970-01-01T02:18:12.000Z</time></trkpt><trkpt lat="14.787179" lon="101.152308"><ele>121.2</ele><time>1970-01-01T02:18:13.000Z</time></trkpt><trkpt lat="14.787255" lon="101.152316"><ele>119.8</ele><time>1970-01-01T02:18:14.000Z</time></trkpt><trkpt lat="14.787315" lon="101.152317"><ele>118.9</ele><time>1970-01-01T02:18:15.000Z</time></trkpt><trkpt lat="14.787374" lon="101.152311"><ele>118.2</ele><time>1970-01-01T02:18:16.000Z</time></trkpt><trkpt lat="14.787447" lon="101.152324"><ele>117.3</ele><time>1970-01-01T02:18:17.000Z</time></trkpt><trkpt lat="14.787497" lon="101.152322"><ele>116.7</ele><time>1970-01-01T02:18:18.000Z</time></trkpt><trkpt lat="14.78756" lon="101.152316"><ele>116.3</ele><time>1970-01-01T02:18:19.000Z</time></trkpt><trkpt lat="14.787619" lon="101.152311"><ele>115.5</ele><time>1970-01-01T02:18:20.000Z</time></trkpt><trkpt lat="14.787678" lon="101.152277"><ele>114.7</ele><time>1970-01-01T02:18:21.000Z</time></trkpt><trkpt lat="14.787736" lon="101.152294"><ele>114</ele><time>1970-01-01T02:18:22.000Z</time></trkpt><trkpt lat="14.787802" lon="101.152285"><ele>113.4</ele><time>1970-01-01T02:18:23.000Z</time></trkpt><trkpt lat="14.787852" lon="101.152283"><ele>112.9</ele><time>1970-01-01T02:18:24.000Z</time></trkpt><trkpt lat="14.787858" lon="101.152317"><ele>112.4</ele><time>1970-01-01T02:18:26.000Z</time></trkpt><trkpt lat="14.787833" lon="101.152353"><ele>112.4</ele><time>1970-01-01T02:18:27.000Z</time></trkpt><trkpt lat="14.787802" lon="101.1524"><ele>112.4</ele><time>1970-01-01T02:18:28.000Z</time></trkpt><trkpt lat="14.78778" lon="101.152461"><ele>112.2</ele><time>1970-01-01T02:18:29.000Z</time></trkpt><trkpt lat="14.787772" lon="101.152522"><ele>112.1</ele><time>1970-01-01T02:18:30.000Z</time></trkpt><trkpt lat="14.787771" lon="101.15257"><ele>112.1</ele><time>1970-01-01T02:18:31.000Z</time></trkpt><trkpt lat="14.787802" lon="101.152601"><ele>112.3</ele><time>1970-01-01T02:18:32.000Z</time></trkpt><trkpt lat="14.7879" lon="101.152615"><ele>112.8</ele><time>1970-01-01T02:18:34.000Z</time></trkpt><trkpt lat="14.787963" lon="101.152605"><ele>112.9</ele><time>1970-01-01T02:18:35.000Z</time></trkpt><trkpt lat="14.788008" lon="101.152627"><ele>113.4</ele><time>1970-01-01T02:18:36.000Z</time></trkpt><trkpt lat="14.788055" lon="101.152634"><ele>113.8</ele><time>1970-01-01T02:18:37.000Z</time></trkpt><trkpt lat="14.788083" lon="101.152669"><ele>114.3</ele><time>1970-01-01T02:18:39.000Z</time></trkpt><trkpt lat="14.788081" lon="101.152696"><ele>114.6</ele><time>1970-01-01T02:18:40.000Z</time></trkpt><trkpt lat="14.788081" lon="101.15275"><ele>115</ele><time>1970-01-01T02:18:42.000Z</time></trkpt><trkpt lat="14.788071" lon="101.152779"><ele>115.1</ele><time>1970-01-01T02:18:43.000Z</time></trkpt><trkpt lat="14.788059" lon="101.152805"><ele>115.2</ele><time>1970-01-01T02:18:44.000Z</time></trkpt><trkpt lat="14.78804" lon="101.152831"><ele>115.4</ele><time>1970-01-01T02:18:45.000Z</time></trkpt><trkpt lat="14.788015" lon="101.152859"><ele>115.5</ele><time>1970-01-01T02:18:46.000Z</time></trkpt><trkpt lat="14.787995" lon="101.152883"><ele>115.5</ele><time>1970-01-01T02:18:47.000Z</time></trkpt><trkpt lat="14.787969" lon="101.152931"><ele>115.6</ele><time>1970-01-01T02:18:49.000Z</time></trkpt><trkpt lat="14.787953" lon="101.152961"><ele>115.6</ele><time>1970-01-01T02:18:50.000Z</time></trkpt><trkpt lat="14.787934" lon="101.152992"><ele>115.5</ele><time>1970-01-01T02:18:51.000Z</time></trkpt><trkpt lat="14.787914" lon="101.153019"><ele>115.5</ele><time>1970-01-01T02:18:52.000Z</time></trkpt><trkpt lat="14.787897" lon="101.153042"><ele>115.4</ele><time>1970-01-01T02:18:53.000Z</time></trkpt><trkpt lat="14.787879" lon="101.153083"><ele>115.4</ele><time>1970-01-01T02:18:55.000Z</time></trkpt><trkpt lat="14.787869" lon="101.153113"><ele>115.4</ele><time>1970-01-01T02:18:56.000Z</time></trkpt><trkpt lat="14.787855" lon="101.153153"><ele>115.4</ele><time>1970-01-01T02:18:57.000Z</time></trkpt><trkpt lat="14.787839" lon="101.153195"><ele>115.5</ele><time>1970-01-01T02:18:58.000Z</time></trkpt><trkpt lat="14.787821" lon="101.153235"><ele>115.6</ele><time>1970-01-01T02:18:59.000Z</time></trkpt><trkpt lat="14.787803" lon="101.153269"><ele>115.8</ele><time>1970-01-01T02:19:00.000Z</time></trkpt><trkpt lat="14.787784" lon="101.1533"><ele>116</ele><time>1970-01-01T02:19:01.000Z</time></trkpt><trkpt lat="14.787762" lon="101.153337"><ele>116.1</ele><time>1970-01-01T02:19:02.000Z</time></trkpt><trkpt lat="14.787742" lon="101.153374"><ele>116.2</ele><time>1970-01-01T02:19:03.000Z</time></trkpt><trkpt lat="14.78772" lon="101.15341"><ele>116.3</ele><time>1970-01-01T02:19:04.000Z</time></trkpt><trkpt lat="14.787705" lon="101.153442"><ele>116.4</ele><time>1970-01-01T02:19:05.000Z</time></trkpt><trkpt lat="14.787689" lon="101.153473"><ele>116.4</ele><time>1970-01-01T02:19:06.000Z</time></trkpt><trkpt lat="14.787673" lon="101.153504"><ele>116.5</ele><time>1970-01-01T02:19:07.000Z</time></trkpt><trkpt lat="14.787658" lon="101.153536"><ele>116.5</ele><time>1970-01-01T02:19:08.000Z</time></trkpt><trkpt lat="14.787642" lon="101.153569"><ele>116.7</ele><time>1970-01-01T02:19:09.000Z</time></trkpt><trkpt lat="14.787623" lon="101.153601"><ele>117</ele><time>1970-01-01T02:19:10.000Z</time></trkpt><trkpt lat="14.787605" lon="101.153631"><ele>117.2</ele><time>1970-01-01T02:19:11.000Z</time></trkpt><trkpt lat="14.787589" lon="101.153658"><ele>117.3</ele><time>1970-01-01T02:19:12.000Z</time></trkpt><trkpt lat="14.787574" lon="101.153685"><ele>117.4</ele><time>1970-01-01T02:19:13.000Z</time></trkpt><trkpt lat="14.787557" lon="101.153728"><ele>117.3</ele><time>1970-01-01T02:19:15.000Z</time></trkpt><trkpt lat="14.787527" lon="101.153772"><ele>117</ele><time>1970-01-01T02:19:17.000Z</time></trkpt><trkpt lat="14.787509" lon="101.1538"><ele>116.8</ele><time>1970-01-01T02:19:18.000Z</time></trkpt><trkpt lat="14.787495" lon="101.153826"><ele>116.6</ele><time>1970-01-01T02:19:19.000Z</time></trkpt><trkpt lat="14.787471" lon="101.153874"><ele>116.4</ele><time>1970-01-01T02:19:21.000Z</time></trkpt><trkpt lat="14.787454" lon="101.153897"><ele>116.3</ele><time>1970-01-01T02:19:22.000Z</time></trkpt><trkpt lat="14.787424" lon="101.153936"><ele>116.2</ele><time>1970-01-01T02:19:24.000Z</time></trkpt><trkpt lat="14.7874" lon="101.153971"><ele>116</ele><time>1970-01-01T02:19:26.000Z</time></trkpt><trkpt lat="14.787383" lon="101.153993"><ele>115.9</ele><time>1970-01-01T02:19:27.000Z</time></trkpt><trkpt lat="14.787367" lon="101.154018"><ele>115.8</ele><time>1970-01-01T02:19:28.000Z</time></trkpt><trkpt lat="14.787342" lon="101.154063"><ele>115.6</ele><time>1970-01-01T02:19:30.000Z</time></trkpt><trkpt lat="14.787324" lon="101.154109"><ele>115.9</ele><time>1970-01-01T02:19:32.000Z</time></trkpt><trkpt lat="14.787307" lon="101.154149"><ele>116.1</ele><time>1970-01-01T02:19:34.000Z</time></trkpt><trkpt lat="14.787295" lon="101.154175"><ele>116.3</ele><time>1970-01-01T02:19:35.000Z</time></trkpt><trkpt lat="14.787268" lon="101.154223"><ele>116.5</ele><time>1970-01-01T02:19:37.000Z</time></trkpt><trkpt lat="14.78725" lon="101.154252"><ele>116.6</ele><time>1970-01-01T02:19:38.000Z</time></trkpt><trkpt lat="14.787234" lon="101.154281"><ele>116.7</ele><time>1970-01-01T02:19:39.000Z</time></trkpt><trkpt lat="14.787213" lon="101.154328"><ele>116.7</ele><time>1970-01-01T02:19:41.000Z</time></trkpt><trkpt lat="14.787192" lon="101.154369"><ele>116.6</ele><time>1970-01-01T02:19:43.000Z</time></trkpt><trkpt lat="14.787173" lon="101.154406"><ele>116.4</ele><time>1970-01-01T02:19:45.000Z</time></trkpt><trkpt lat="14.787152" lon="101.154448"><ele>116</ele><time>1970-01-01T02:19:47.000Z</time></trkpt><trkpt lat="14.787144" lon="101.154481"><ele>115.8</ele><time>1970-01-01T02:19:49.000Z</time></trkpt><trkpt lat="14.787135" lon="101.154522"><ele>115.4</ele><time>1970-01-01T02:19:51.000Z</time></trkpt><trkpt lat="14.787107" lon="101.154567"><ele>115.4</ele><time>1970-01-01T02:19:53.000Z</time></trkpt><trkpt lat="14.78709" lon="101.154589"><ele>115.6</ele><time>1970-01-01T02:19:54.000Z</time></trkpt><trkpt lat="14.787059" lon="101.154626"><ele>115.9</ele><time>1970-01-01T02:19:56.000Z</time></trkpt><trkpt lat="14.787042" lon="101.154666"><ele>116.5</ele><time>1970-01-01T02:19:58.000Z</time></trkpt><trkpt lat="14.787033" lon="101.15471"><ele>117.1</ele><time>1970-01-01T02:20:00.000Z</time></trkpt><trkpt lat="14.787012" lon="101.154753"><ele>117.9</ele><time>1970-01-01T02:20:02.000Z</time></trkpt><trkpt lat="14.786997" lon="101.154778"><ele>118.4</ele><time>1970-01-01T02:20:03.000Z</time></trkpt><trkpt lat="14.786984" lon="101.154802"><ele>118.7</ele><time>1970-01-01T02:20:04.000Z</time></trkpt><trkpt lat="14.786971" lon="101.154828"><ele>119.1</ele><time>1970-01-01T02:20:05.000Z</time></trkpt><trkpt lat="14.786954" lon="101.154864"><ele>119.7</ele><time>1970-01-01T02:20:07.000Z</time></trkpt><trkpt lat="14.786933" lon="101.154886"><ele>120.1</ele><time>1970-01-01T02:20:09.000Z</time></trkpt><trkpt lat="14.786909" lon="101.154908"><ele>120.6</ele><time>1970-01-01T02:20:11.000Z</time></trkpt><trkpt lat="14.78688" lon="101.154944"><ele>121.5</ele><time>1970-01-01T02:20:13.000Z</time></trkpt><trkpt lat="14.786856" lon="101.154986"><ele>122.7</ele><time>1970-01-01T02:20:15.000Z</time></trkpt><trkpt lat="14.786835" lon="101.155029"><ele>123.5</ele><time>1970-01-01T02:20:17.000Z</time></trkpt><trkpt lat="14.786814" lon="101.155079"><ele>124.3</ele><time>1970-01-01T02:20:19.000Z</time></trkpt><trkpt lat="14.786797" lon="101.155111"><ele>125.2</ele><time>1970-01-01T02:20:20.000Z</time></trkpt><trkpt lat="14.786779" lon="101.155141"><ele>125.8</ele><time>1970-01-01T02:20:21.000Z</time></trkpt><trkpt lat="14.786763" lon="101.155166"><ele>126</ele><time>1970-01-01T02:20:22.000Z</time></trkpt><trkpt lat="14.786741" lon="101.155207"><ele>126.6</ele><time>1970-01-01T02:20:24.000Z</time></trkpt><trkpt lat="14.786723" lon="101.155248"><ele>127.6</ele><time>1970-01-01T02:20:26.000Z</time></trkpt><trkpt lat="14.786713" lon="101.155275"><ele>127.9</ele><time>1970-01-01T02:20:27.000Z</time></trkpt><trkpt lat="14.786706" lon="101.155306"><ele>128.1</ele><time>1970-01-01T02:20:28.000Z</time></trkpt><trkpt lat="14.786703" lon="101.155345"><ele>128.3</ele><time>1970-01-01T02:20:29.000Z</time></trkpt><trkpt lat="14.786704" lon="101.155386"><ele>128.6</ele><time>1970-01-01T02:20:30.000Z</time></trkpt><trkpt lat="14.786705" lon="101.155426"><ele>129</ele><time>1970-01-01T02:20:31.000Z</time></trkpt><trkpt lat="14.786707" lon="101.155464"><ele>129.5</ele><time>1970-01-01T02:20:32.000Z</time></trkpt><trkpt lat="14.786709" lon="101.155502"><ele>130</ele><time>1970-01-01T02:20:33.000Z</time></trkpt><trkpt lat="14.786709" lon="101.155541"><ele>130.4</ele><time>1970-01-01T02:20:34.000Z</time></trkpt><trkpt lat="14.786709" lon="101.155578"><ele>130.8</ele><time>1970-01-01T02:20:35.000Z</time></trkpt><trkpt lat="14.78671" lon="101.15561"><ele>131.1</ele><time>1970-01-01T02:20:36.000Z</time></trkpt><trkpt lat="14.786712" lon="101.155646"><ele>131.3</ele><time>1970-01-01T02:20:37.000Z</time></trkpt><trkpt lat="14.786715" lon="101.155687"><ele>131.5</ele><time>1970-01-01T02:20:38.000Z</time></trkpt><trkpt lat="14.786711" lon="101.155733"><ele>131.8</ele><time>1970-01-01T02:20:39.000Z</time></trkpt><trkpt lat="14.786704" lon="101.155782"><ele>132</ele><time>1970-01-01T02:20:40.000Z</time></trkpt><trkpt lat="14.786698" lon="101.155834"><ele>132.4</ele><time>1970-01-01T02:20:41.000Z</time></trkpt><trkpt lat="14.786695" lon="101.155885"><ele>132.6</ele><time>1970-01-01T02:20:42.000Z</time></trkpt><trkpt lat="14.786691" lon="101.155933"><ele>132.6</ele><time>1970-01-01T02:20:43.000Z</time></trkpt><trkpt lat="14.78669" lon="101.155978"><ele>132.3</ele><time>1970-01-01T02:20:44.000Z</time></trkpt><trkpt lat="14.78669" lon="101.156026"><ele>131.7</ele><time>1970-01-01T02:20:45.000Z</time></trkpt><trkpt lat="14.786696" lon="101.15607"><ele>131.2</ele><time>1970-01-01T02:20:46.000Z</time></trkpt><trkpt lat="14.786702" lon="101.156104"><ele>130.8</ele><time>1970-01-01T02:20:47.000Z</time></trkpt><trkpt lat="14.786712" lon="101.156141"><ele>130.5</ele><time>1970-01-01T02:20:48.000Z</time></trkpt><trkpt lat="14.786723" lon="101.156186"><ele>130.8</ele><time>1970-01-01T02:20:49.000Z</time></trkpt><trkpt lat="14.786728" lon="101.156233"><ele>131</ele><time>1970-01-01T02:20:50.000Z</time></trkpt><trkpt lat="14.786728" lon="101.156267"><ele>130.7</ele><time>1970-01-01T02:20:51.000Z</time></trkpt><trkpt lat="14.786723" lon="101.156296"><ele>130.4</ele><time>1970-01-01T02:20:52.000Z</time></trkpt><trkpt lat="14.786718" lon="101.156328"><ele>130.2</ele><time>1970-01-01T02:20:53.000Z</time></trkpt><trkpt lat="14.78671" lon="101.156363"><ele>130</ele><time>1970-01-01T02:20:54.000Z</time></trkpt><trkpt lat="14.786696" lon="101.156402"><ele>129.9</ele><time>1970-01-01T02:20:55.000Z</time></trkpt><trkpt lat="14.786681" lon="101.15644"><ele>129.8</ele><time>1970-01-01T02:20:56.000Z</time></trkpt><trkpt lat="14.786668" lon="101.15648"><ele>129.6</ele><time>1970-01-01T02:20:57.000Z</time></trkpt><trkpt lat="14.78666" lon="101.15652"><ele>130</ele><time>1970-01-01T02:20:58.000Z</time></trkpt><trkpt lat="14.786658" lon="101.156561"><ele>130.6</ele><time>1970-01-01T02:20:59.000Z</time></trkpt><trkpt lat="14.786665" lon="101.156607"><ele>130.4</ele><time>1970-01-01T02:21:00.000Z</time></trkpt><trkpt lat="14.786677" lon="101.156655"><ele>129.4</ele><time>1970-01-01T02:21:01.000Z</time></trkpt><trkpt lat="14.786695" lon="101.1567"><ele>128</ele><time>1970-01-01T02:21:02.000Z</time></trkpt><trkpt lat="14.786719" lon="101.156743"><ele>127.2</ele><time>1970-01-01T02:21:03.000Z</time></trkpt><trkpt lat="14.786752" lon="101.15678"><ele>126.3</ele><time>1970-01-01T02:21:04.000Z</time></trkpt><trkpt lat="14.786796" lon="101.156814"><ele>125</ele><time>1970-01-01T02:21:05.000Z</time></trkpt><trkpt lat="14.786841" lon="101.15684"><ele>124.5</ele><time>1970-01-01T02:21:06.000Z</time></trkpt><trkpt lat="14.786945" lon="101.15686"><ele>124</ele><time>1970-01-01T02:21:07.000Z</time></trkpt><trkpt lat="14.787026" lon="101.156904"><ele>125.3</ele><time>1970-01-01T02:21:08.000Z</time></trkpt><trkpt lat="14.787105" lon="101.156945"><ele>125.9</ele><time>1970-01-01T02:21:09.000Z</time></trkpt><trkpt lat="14.787152" lon="101.15699"><ele>126.5</ele><time>1970-01-01T02:21:10.000Z</time></trkpt><trkpt lat="14.787205" lon="101.157009"><ele>127</ele><time>1970-01-01T02:21:11.000Z</time></trkpt><trkpt lat="14.787255" lon="101.157061"><ele>127.7</ele><time>1970-01-01T02:21:13.000Z</time></trkpt><trkpt lat="14.787282" lon="101.157116"><ele>128.3</ele><time>1970-01-01T02:21:15.000Z</time></trkpt><trkpt lat="14.787301" lon="101.157141"><ele>128.5</ele><time>1970-01-01T02:21:16.000Z</time></trkpt><trkpt lat="14.787303" lon="101.157175"><ele>128.5</ele><time>1970-01-01T02:21:17.000Z</time></trkpt><trkpt lat="14.7873" lon="101.157206"><ele>128.6</ele><time>1970-01-01T02:21:18.000Z</time></trkpt><trkpt lat="14.787296" lon="101.157252"><ele>128.5</ele><time>1970-01-01T02:21:20.000Z</time></trkpt><trkpt lat="14.787277" lon="101.157279"><ele>128.5</ele><time>1970-01-01T02:21:21.000Z</time></trkpt><trkpt lat="14.787252" lon="101.157321"><ele>128.5</ele><time>1970-01-01T02:21:23.000Z</time></trkpt><trkpt lat="14.787238" lon="101.157372"><ele>128.4</ele><time>1970-01-01T02:21:25.000Z</time></trkpt><trkpt lat="14.787235" lon="101.157402"><ele>128.3</ele><time>1970-01-01T02:21:26.000Z</time></trkpt><trkpt lat="14.787224" lon="101.157437"><ele>128.1</ele><time>1970-01-01T02:21:27.000Z</time></trkpt><trkpt lat="14.787207" lon="101.157473"><ele>127.9</ele><time>1970-01-01T02:21:28.000Z</time></trkpt><trkpt lat="14.787184" lon="101.157507"><ele>127.7</ele><time>1970-01-01T02:21:29.000Z</time></trkpt><trkpt lat="14.787158" lon="101.157541"><ele>127.4</ele><time>1970-01-01T02:21:30.000Z</time></trkpt><trkpt lat="14.78715" lon="101.157569"><ele>127.2</ele><time>1970-01-01T02:21:31.000Z</time></trkpt><trkpt lat="14.787148" lon="101.157597"><ele>127</ele><time>1970-01-01T02:21:32.000Z</time></trkpt><trkpt lat="14.787151" lon="101.157627"><ele>126.9</ele><time>1970-01-01T02:21:33.000Z</time></trkpt><trkpt lat="14.787148" lon="101.157662"><ele>127</ele><time>1970-01-01T02:21:34.000Z</time></trkpt><trkpt lat="14.787139" lon="101.1577"><ele>126.9</ele><time>1970-01-01T02:21:35.000Z</time></trkpt><trkpt lat="14.787127" lon="101.157737"><ele>126.7</ele><time>1970-01-01T02:21:36.000Z</time></trkpt><trkpt lat="14.78712" lon="101.15777"><ele>126.5</ele><time>1970-01-01T02:21:37.000Z</time></trkpt><trkpt lat="14.787109" lon="101.157801"><ele>126.3</ele><time>1970-01-01T02:21:38.000Z</time></trkpt><trkpt lat="14.7871" lon="101.157834"><ele>126.2</ele><time>1970-01-01T02:21:39.000Z</time></trkpt><trkpt lat="14.787091" lon="101.15787"><ele>126.1</ele><time>1970-01-01T02:21:40.000Z</time></trkpt><trkpt lat="14.787081" lon="101.157899"><ele>126.2</ele><time>1970-01-01T02:21:41.000Z</time></trkpt><trkpt lat="14.787061" lon="101.157935"><ele>126.1</ele><time>1970-01-01T02:21:42.000Z</time></trkpt><trkpt lat="14.787037" lon="101.157976"><ele>125.6</ele><time>1970-01-01T02:21:43.000Z</time></trkpt><trkpt lat="14.787015" lon="101.15801"><ele>125.3</ele><time>1970-01-01T02:21:44.000Z</time></trkpt><trkpt lat="14.78699" lon="101.158047"><ele>125.3</ele><time>1970-01-01T02:21:45.000Z</time></trkpt><trkpt lat="14.786965" lon="101.158086"><ele>125.2</ele><time>1970-01-01T02:21:46.000Z</time></trkpt><trkpt lat="14.786937" lon="101.158125"><ele>125.2</ele><time>1970-01-01T02:21:47.000Z</time></trkpt><trkpt lat="14.786911" lon="101.158159"><ele>126.1</ele><time>1970-01-01T02:21:48.000Z</time></trkpt><trkpt lat="14.786883" lon="101.158192"><ele>127.2</ele><time>1970-01-01T02:21:49.000Z</time></trkpt><trkpt lat="14.786857" lon="101.158221"><ele>127.8</ele><time>1970-01-01T02:21:50.000Z</time></trkpt><trkpt lat="14.786833" lon="101.158252"><ele>128.5</ele><time>1970-01-01T02:21:51.000Z</time></trkpt><trkpt lat="14.786809" lon="101.158292"><ele>129.4</ele><time>1970-01-01T02:21:52.000Z</time></trkpt><trkpt lat="14.786789" lon="101.15834"><ele>129.9</ele><time>1970-01-01T02:21:53.000Z</time></trkpt><trkpt lat="14.786724" lon="101.158434"><ele>129.9</ele><time>1970-01-01T02:21:54.000Z</time></trkpt><trkpt lat="14.786716" lon="101.158471"><ele>129.5</ele><time>1970-01-01T02:21:55.000Z</time></trkpt><trkpt lat="14.786707" lon="101.158523"><ele>128.9</ele><time>1970-01-01T02:21:56.000Z</time></trkpt><trkpt lat="14.786688" lon="101.158569"><ele>128.4</ele><time>1970-01-01T02:21:57.000Z</time></trkpt><trkpt lat="14.786677" lon="101.158603"><ele>128</ele><time>1970-01-01T02:21:59.000Z</time></trkpt><trkpt lat="14.786668" lon="101.158636"><ele>127.8</ele><time>1970-01-01T02:22:01.000Z</time></trkpt><trkpt lat="14.786651" lon="101.158664"><ele>127.7</ele><time>1970-01-01T02:22:02.000Z</time></trkpt><trkpt lat="14.786627" lon="101.158683"><ele>127.5</ele><time>1970-01-01T02:22:03.000Z</time></trkpt><trkpt lat="14.786605" lon="101.158704"><ele>127.4</ele><time>1970-01-01T02:22:04.000Z</time></trkpt><trkpt lat="14.786582" lon="101.158732"><ele>127.1</ele><time>1970-01-01T02:22:05.000Z</time></trkpt><trkpt lat="14.786559" lon="101.15876"><ele>126.8</ele><time>1970-01-01T02:22:06.000Z</time></trkpt><trkpt lat="14.786537" lon="101.158787"><ele>126.2</ele><time>1970-01-01T02:22:07.000Z</time></trkpt><trkpt lat="14.786509" lon="101.158822"><ele>125.6</ele><time>1970-01-01T02:22:08.000Z</time></trkpt><trkpt lat="14.78648" lon="101.158856"><ele>125.5</ele><time>1970-01-01T02:22:09.000Z</time></trkpt><trkpt lat="14.786456" lon="101.158885"><ele>125.4</ele><time>1970-01-01T02:22:10.000Z</time></trkpt><trkpt lat="14.786428" lon="101.158911"><ele>125.4</ele><time>1970-01-01T02:22:11.000Z</time></trkpt><trkpt lat="14.786398" lon="101.158936"><ele>125.4</ele><time>1970-01-01T02:22:12.000Z</time></trkpt><trkpt lat="14.786372" lon="101.15896"><ele>125.7</ele><time>1970-01-01T02:22:13.000Z</time></trkpt><trkpt lat="14.786347" lon="101.158983"><ele>126</ele><time>1970-01-01T02:22:14.000Z</time></trkpt><trkpt lat="14.786321" lon="101.159003"><ele>126.3</ele><time>1970-01-01T02:22:15.000Z</time></trkpt><trkpt lat="14.786291" lon="101.15902"><ele>126.9</ele><time>1970-01-01T02:22:16.000Z</time></trkpt><trkpt lat="14.786262" lon="101.159035"><ele>127.4</ele><time>1970-01-01T02:22:17.000Z</time></trkpt><trkpt lat="14.786236" lon="101.159047"><ele>127.8</ele><time>1970-01-01T02:22:18.000Z</time></trkpt><trkpt lat="14.786207" lon="101.159061"><ele>128.3</ele><time>1970-01-01T02:22:19.000Z</time></trkpt><trkpt lat="14.786173" lon="101.159077"><ele>128.8</ele><time>1970-01-01T02:22:20.000Z</time></trkpt><trkpt lat="14.786138" lon="101.159094"><ele>129.4</ele><time>1970-01-01T02:22:21.000Z</time></trkpt><trkpt lat="14.786103" lon="101.159115"><ele>129.9</ele><time>1970-01-01T02:22:22.000Z</time></trkpt><trkpt lat="14.78607" lon="101.159134"><ele>130.3</ele><time>1970-01-01T02:22:23.000Z</time></trkpt><trkpt lat="14.786039" lon="101.159151"><ele>130.6</ele><time>1970-01-01T02:22:24.000Z</time></trkpt><trkpt lat="14.786002" lon="101.159167"><ele>131</ele><time>1970-01-01T02:22:25.000Z</time></trkpt><trkpt lat="14.785966" lon="101.159181"><ele>131.1</ele><time>1970-01-01T02:22:26.000Z</time></trkpt><trkpt lat="14.785929" lon="101.159193"><ele>131.1</ele><time>1970-01-01T02:22:27.000Z</time></trkpt><trkpt lat="14.785899" lon="101.159204"><ele>131.1</ele><time>1970-01-01T02:22:28.000Z</time></trkpt><trkpt lat="14.785873" lon="101.159214"><ele>131.1</ele><time>1970-01-01T02:22:29.000Z</time></trkpt><trkpt lat="14.785846" lon="101.159224"><ele>131</ele><time>1970-01-01T02:22:30.000Z</time></trkpt><trkpt lat="14.785818" lon="101.159234"><ele>131</ele><time>1970-01-01T02:22:31.000Z</time></trkpt><trkpt lat="14.78577" lon="101.159256"><ele>131.1</ele><time>1970-01-01T02:22:33.000Z</time></trkpt><trkpt lat="14.785742" lon="101.159274"><ele>131.2</ele><time>1970-01-01T02:22:34.000Z</time></trkpt><trkpt lat="14.785713" lon="101.159293"><ele>131.4</ele><time>1970-01-01T02:22:35.000Z</time></trkpt><trkpt lat="14.785683" lon="101.159313"><ele>131.6</ele><time>1970-01-01T02:22:36.000Z</time></trkpt><trkpt lat="14.785658" lon="101.159329"><ele>131.8</ele><time>1970-01-01T02:22:37.000Z</time></trkpt><trkpt lat="14.785615" lon="101.159352"><ele>132.2</ele><time>1970-01-01T02:22:39.000Z</time></trkpt><trkpt lat="14.785581" lon="101.15937"><ele>132.6</ele><time>1970-01-01T02:22:41.000Z</time></trkpt><trkpt lat="14.785547" lon="101.159399"><ele>133.2</ele><time>1970-01-01T02:22:43.000Z</time></trkpt><trkpt lat="14.785529" lon="101.159419"><ele>133.5</ele><time>1970-01-01T02:22:44.000Z</time></trkpt><trkpt lat="14.785503" lon="101.159462"><ele>133.9</ele><time>1970-01-01T02:22:46.000Z</time></trkpt><trkpt lat="14.785487" lon="101.159503"><ele>134.1</ele><time>1970-01-01T02:22:48.000Z</time></trkpt><trkpt lat="14.785469" lon="101.159547"><ele>134.3</ele><time>1970-01-01T02:22:50.000Z</time></trkpt><trkpt lat="14.785453" lon="101.159573"><ele>134.4</ele><time>1970-01-01T02:22:51.000Z</time></trkpt><trkpt lat="14.785436" lon="101.159596"><ele>134.5</ele><time>1970-01-01T02:22:52.000Z</time></trkpt><trkpt lat="14.7854" lon="101.159633"><ele>134.7</ele><time>1970-01-01T02:22:54.000Z</time></trkpt><trkpt lat="14.785377" lon="101.159652"><ele>134.6</ele><time>1970-01-01T02:22:55.000Z</time></trkpt><trkpt lat="14.78535" lon="101.159672"><ele>134.5</ele><time>1970-01-01T02:22:56.000Z</time></trkpt><trkpt lat="14.785318" lon="101.159692"><ele>134.3</ele><time>1970-01-01T02:22:57.000Z</time></trkpt><trkpt lat="14.785281" lon="101.159715"><ele>134.2</ele><time>1970-01-01T02:22:58.000Z</time></trkpt><trkpt lat="14.785249" lon="101.159738"><ele>134</ele><time>1970-01-01T02:22:59.000Z</time></trkpt><trkpt lat="14.785225" lon="101.159758"><ele>133.9</ele><time>1970-01-01T02:23:00.000Z</time></trkpt><trkpt lat="14.785207" lon="101.159781"><ele>133.7</ele><time>1970-01-01T02:23:01.000Z</time></trkpt><trkpt lat="14.785186" lon="101.159808"><ele>133.6</ele><time>1970-01-01T02:23:02.000Z</time></trkpt><trkpt lat="14.785162" lon="101.159838"><ele>133.5</ele><time>1970-01-01T02:23:03.000Z</time></trkpt><trkpt lat="14.785139" lon="101.159865"><ele>133.3</ele><time>1970-01-01T02:23:04.000Z</time></trkpt><trkpt lat="14.785117" lon="101.159892"><ele>133.2</ele><time>1970-01-01T02:23:05.000Z</time></trkpt><trkpt lat="14.785088" lon="101.159923"><ele>132.9</ele><time>1970-01-01T02:23:06.000Z</time></trkpt><trkpt lat="14.785051" lon="101.159956"><ele>132.8</ele><time>1970-01-01T02:23:07.000Z</time></trkpt><trkpt lat="14.785007" lon="101.159987"><ele>132.9</ele><time>1970-01-01T02:23:08.000Z</time></trkpt><trkpt lat="14.784967" lon="101.160011"><ele>133</ele><time>1970-01-01T02:23:09.000Z</time></trkpt><trkpt lat="14.784931" lon="101.160032"><ele>133.1</ele><time>1970-01-01T02:23:10.000Z</time></trkpt><trkpt lat="14.78489" lon="101.160055"><ele>133.2</ele><time>1970-01-01T02:23:11.000Z</time></trkpt><trkpt lat="14.78485" lon="101.160082"><ele>133.2</ele><time>1970-01-01T02:23:12.000Z</time></trkpt><trkpt lat="14.784815" lon="101.160109"><ele>133.5</ele><time>1970-01-01T02:23:13.000Z</time></trkpt><trkpt lat="14.784778" lon="101.160136"><ele>133.9</ele><time>1970-01-01T02:23:14.000Z</time></trkpt><trkpt lat="14.784743" lon="101.160159"><ele>134.7</ele><time>1970-01-01T02:23:15.000Z</time></trkpt><trkpt lat="14.784714" lon="101.160181"><ele>135.4</ele><time>1970-01-01T02:23:16.000Z</time></trkpt><trkpt lat="14.784686" lon="101.160203"><ele>135.9</ele><time>1970-01-01T02:23:17.000Z</time></trkpt><trkpt lat="14.784662" lon="101.160229"><ele>136.1</ele><time>1970-01-01T02:23:18.000Z</time></trkpt><trkpt lat="14.784633" lon="101.160267"><ele>136.4</ele><time>1970-01-01T02:23:20.000Z</time></trkpt><trkpt lat="14.784608" lon="101.160311"><ele>136.5</ele><time>1970-01-01T02:23:22.000Z</time></trkpt><trkpt lat="14.784594" lon="101.160354"><ele>136.1</ele><time>1970-01-01T02:23:24.000Z</time></trkpt><trkpt lat="14.784575" lon="101.160404"><ele>136.1</ele><time>1970-01-01T02:23:26.000Z</time></trkpt><trkpt lat="14.784569" lon="101.160439"><ele>136.4</ele><time>1970-01-01T02:23:28.000Z</time></trkpt><trkpt lat="14.784566" lon="101.160472"><ele>136.7</ele><time>1970-01-01T02:23:30.000Z</time></trkpt><trkpt lat="14.784561" lon="101.160522"><ele>137.2</ele><time>1970-01-01T02:23:33.000Z</time></trkpt><trkpt lat="14.784558" lon="101.160565"><ele>137.5</ele><time>1970-01-01T02:23:35.000Z</time></trkpt><trkpt lat="14.784555" lon="101.160603"><ele>137.9</ele><time>1970-01-01T02:23:38.000Z</time></trkpt><trkpt lat="14.784544" lon="101.16063"><ele>138.1</ele><time>1970-01-01T02:23:40.000Z</time></trkpt><trkpt lat="14.784532" lon="101.160667"><ele>138.2</ele><time>1970-01-01T02:23:43.000Z</time></trkpt><trkpt lat="14.784502" lon="101.160706"><ele>138.3</ele><time>1970-01-01T02:23:45.000Z</time></trkpt><trkpt lat="14.784464" lon="101.160724"><ele>138.7</ele><time>1970-01-01T02:23:46.000Z</time></trkpt><trkpt lat="14.784423" lon="101.160735"><ele>139.1</ele><time>1970-01-01T02:23:47.000Z</time></trkpt><trkpt lat="14.784383" lon="101.160742"><ele>139.2</ele><time>1970-01-01T02:23:48.000Z</time></trkpt><trkpt lat="14.784334" lon="101.160749"><ele>139.2</ele><time>1970-01-01T02:23:49.000Z</time></trkpt><trkpt lat="14.784222" lon="101.16076"><ele>139</ele><time>1970-01-01T02:23:50.000Z</time></trkpt><trkpt lat="14.784166" lon="101.16077"><ele>138.5</ele><time>1970-01-01T02:23:51.000Z</time></trkpt><trkpt lat="14.78412" lon="101.160778"><ele>138.2</ele><time>1970-01-01T02:23:52.000Z</time></trkpt><trkpt lat="14.784051" lon="101.160829"><ele>138.1</ele><time>1970-01-01T02:23:53.000Z</time></trkpt><trkpt lat="14.78399" lon="101.160894"><ele>138.2</ele><time>1970-01-01T02:23:54.000Z</time></trkpt><trkpt lat="14.783979" lon="101.160928"><ele>138.4</ele><time>1970-01-01T02:23:55.000Z</time></trkpt><trkpt lat="14.783942" lon="101.160967"><ele>138.6</ele><time>1970-01-01T02:23:56.000Z</time></trkpt><trkpt lat="14.783905" lon="101.160994"><ele>138.9</ele><time>1970-01-01T02:23:57.000Z</time></trkpt><trkpt lat="14.783858" lon="101.161033"><ele>139.4</ele><time>1970-01-01T02:23:58.000Z</time></trkpt><trkpt lat="14.783822" lon="101.161056"><ele>139.8</ele><time>1970-01-01T02:23:59.000Z</time></trkpt><trkpt lat="14.783766" lon="101.161086"><ele>140.3</ele><time>1970-01-01T02:24:00.000Z</time></trkpt><trkpt lat="14.783752" lon="101.161116"><ele>140.5</ele><time>1970-01-01T02:24:01.000Z</time></trkpt><trkpt lat="14.783719" lon="101.161135"><ele>141</ele><time>1970-01-01T02:24:02.000Z</time></trkpt><trkpt lat="14.783705" lon="101.16116"><ele>141.5</ele><time>1970-01-01T02:24:03.000Z</time></trkpt><trkpt lat="14.783677" lon="101.161186"><ele>142.1</ele><time>1970-01-01T02:24:04.000Z</time></trkpt><trkpt lat="14.783649" lon="101.161209"><ele>142.5</ele><time>1970-01-01T02:24:05.000Z</time></trkpt><trkpt lat="14.7836" lon="101.161227"><ele>143.1</ele><time>1970-01-01T02:24:07.000Z</time></trkpt><trkpt lat="14.783575" lon="101.16124"><ele>143.7</ele><time>1970-01-01T02:24:08.000Z</time></trkpt><trkpt lat="14.78355" lon="101.161254"><ele>144.2</ele><time>1970-01-01T02:24:09.000Z</time></trkpt><trkpt lat="14.783524" lon="101.161268"><ele>144.8</ele><time>1970-01-01T02:24:10.000Z</time></trkpt><trkpt lat="14.783496" lon="101.16128"><ele>145.3</ele><time>1970-01-01T02:24:11.000Z</time></trkpt><trkpt lat="14.783466" lon="101.161289"><ele>145.8</ele><time>1970-01-01T02:24:12.000Z</time></trkpt><trkpt lat="14.783433" lon="101.161298"><ele>146</ele><time>1970-01-01T02:24:13.000Z</time></trkpt><trkpt lat="14.783406" lon="101.161306"><ele>146.2</ele><time>1970-01-01T02:24:14.000Z</time></trkpt><trkpt lat="14.78336" lon="101.161318"><ele>146.3</ele><time>1970-01-01T02:24:16.000Z</time></trkpt><trkpt lat="14.783317" lon="101.161321"><ele>146.3</ele><time>1970-01-01T02:24:18.000Z</time></trkpt><trkpt lat="14.783264" lon="101.161315"><ele>146.1</ele><time>1970-01-01T02:24:20.000Z</time></trkpt><trkpt lat="14.783231" lon="101.161313"><ele>145.9</ele><time>1970-01-01T02:24:21.000Z</time></trkpt><trkpt lat="14.783191" lon="101.161315"><ele>145.8</ele><time>1970-01-01T02:24:22.000Z</time></trkpt><trkpt lat="14.783152" lon="101.161321"><ele>145.7</ele><time>1970-01-01T02:24:23.000Z</time></trkpt><trkpt lat="14.783117" lon="101.16133"><ele>145.4</ele><time>1970-01-01T02:24:24.000Z</time></trkpt><trkpt lat="14.783085" lon="101.161342"><ele>145.1</ele><time>1970-01-01T02:24:25.000Z</time></trkpt><trkpt lat="14.783054" lon="101.161357"><ele>145</ele><time>1970-01-01T02:24:26.000Z</time></trkpt><trkpt lat="14.783026" lon="101.161373"><ele>144.8</ele><time>1970-01-01T02:24:27.000Z</time></trkpt><trkpt lat="14.782998" lon="101.161393"><ele>144.2</ele><time>1970-01-01T02:24:28.000Z</time></trkpt><trkpt lat="14.782968" lon="101.161413"><ele>143.6</ele><time>1970-01-01T02:24:29.000Z</time></trkpt><trkpt lat="14.782939" lon="101.161433"><ele>143.2</ele><time>1970-01-01T02:24:30.000Z</time></trkpt><trkpt lat="14.782912" lon="101.161449"><ele>143</ele><time>1970-01-01T02:24:31.000Z</time></trkpt><trkpt lat="14.782886" lon="101.161469"><ele>142.7</ele><time>1970-01-01T02:24:32.000Z</time></trkpt><trkpt lat="14.782851" lon="101.1615"><ele>142.5</ele><time>1970-01-01T02:24:34.000Z</time></trkpt><trkpt lat="14.782821" lon="101.161535"><ele>142.7</ele><time>1970-01-01T02:24:36.000Z</time></trkpt><trkpt lat="14.7828" lon="101.161561"><ele>143.1</ele><time>1970-01-01T02:24:37.000Z</time></trkpt><trkpt lat="14.782778" lon="101.161587"><ele>143.5</ele><time>1970-01-01T02:24:38.000Z</time></trkpt><trkpt lat="14.782755" lon="101.161613"><ele>143.8</ele><time>1970-01-01T02:24:39.000Z</time></trkpt><trkpt lat="14.782731" lon="101.161639"><ele>144.2</ele><time>1970-01-01T02:24:40.000Z</time></trkpt><trkpt lat="14.782711" lon="101.161662"><ele>145.3</ele><time>1970-01-01T02:24:41.000Z</time></trkpt><trkpt lat="14.78269" lon="101.161684"><ele>146.3</ele><time>1970-01-01T02:24:42.000Z</time></trkpt><trkpt lat="14.782669" lon="101.161706"><ele>147.4</ele><time>1970-01-01T02:24:43.000Z</time></trkpt><trkpt lat="14.782646" lon="101.161733"><ele>148.5</ele><time>1970-01-01T02:24:44.000Z</time></trkpt><trkpt lat="14.782623" lon="101.161762"><ele>149.4</ele><time>1970-01-01T02:24:45.000Z</time></trkpt><trkpt lat="14.782599" lon="101.161791"><ele>150</ele><time>1970-01-01T02:24:46.000Z</time></trkpt><trkpt lat="14.782575" lon="101.161817"><ele>150.8</ele><time>1970-01-01T02:24:47.000Z</time></trkpt><trkpt lat="14.782551" lon="101.161842"><ele>151.6</ele><time>1970-01-01T02:24:48.000Z</time></trkpt><trkpt lat="14.782531" lon="101.161868"><ele>151.7</ele><time>1970-01-01T02:24:49.000Z</time></trkpt><trkpt lat="14.782513" lon="101.161894"><ele>151.7</ele><time>1970-01-01T02:24:50.000Z</time></trkpt><trkpt lat="14.782494" lon="101.161924"><ele>151.6</ele><time>1970-01-01T02:24:51.000Z</time></trkpt><trkpt lat="14.782472" lon="101.161953"><ele>151.4</ele><time>1970-01-01T02:24:52.000Z</time></trkpt><trkpt lat="14.782448" lon="101.16198"><ele>151.2</ele><time>1970-01-01T02:24:53.000Z</time></trkpt><trkpt lat="14.782426" lon="101.162002"><ele>151.1</ele><time>1970-01-01T02:24:54.000Z</time></trkpt><trkpt lat="14.782404" lon="101.162022"><ele>150.9</ele><time>1970-01-01T02:24:55.000Z</time></trkpt><trkpt lat="14.782382" lon="101.162047"><ele>150.8</ele><time>1970-01-01T02:24:56.000Z</time></trkpt><trkpt lat="14.782363" lon="101.162074"><ele>150.6</ele><time>1970-01-01T02:24:57.000Z</time></trkpt><trkpt lat="14.782348" lon="101.162104"><ele>150.4</ele><time>1970-01-01T02:24:58.000Z</time></trkpt><trkpt lat="14.782334" lon="101.162131"><ele>150.3</ele><time>1970-01-01T02:24:59.000Z</time></trkpt><trkpt lat="14.78232" lon="101.162155"><ele>150</ele><time>1970-01-01T02:25:00.000Z</time></trkpt><trkpt lat="14.782303" lon="101.162179"><ele>149.7</ele><time>1970-01-01T02:25:01.000Z</time></trkpt><trkpt lat="14.782288" lon="101.162204"><ele>149.4</ele><time>1970-01-01T02:25:02.000Z</time></trkpt><trkpt lat="14.782266" lon="101.162239"><ele>149</ele><time>1970-01-01T02:25:04.000Z</time></trkpt><trkpt lat="14.782249" lon="101.162273"><ele>148.7</ele><time>1970-01-01T02:25:06.000Z</time></trkpt><trkpt lat="14.78223" lon="101.162312"><ele>148.3</ele><time>1970-01-01T02:25:08.000Z</time></trkpt><trkpt lat="14.782214" lon="101.162338"><ele>148.1</ele><time>1970-01-01T02:25:09.000Z</time></trkpt><trkpt lat="14.7822" lon="101.162364"><ele>147.9</ele><time>1970-01-01T02:25:10.000Z</time></trkpt><trkpt lat="14.782185" lon="101.162391"><ele>147.8</ele><time>1970-01-01T02:25:11.000Z</time></trkpt><trkpt lat="14.782161" lon="101.162436"><ele>147.8</ele><time>1970-01-01T02:25:13.000Z</time></trkpt><trkpt lat="14.782138" lon="101.162479"><ele>147.8</ele><time>1970-01-01T02:25:15.000Z</time></trkpt><trkpt lat="14.782107" lon="101.162517"><ele>147.9</ele><time>1970-01-01T02:25:17.000Z</time></trkpt><trkpt lat="14.782084" lon="101.162543"><ele>147.9</ele><time>1970-01-01T02:25:18.000Z</time></trkpt><trkpt lat="14.782066" lon="101.16258"><ele>147.9</ele><time>1970-01-01T02:25:19.000Z</time></trkpt><trkpt lat="14.782049" lon="101.162622"><ele>147.9</ele><time>1970-01-01T02:25:20.000Z</time></trkpt><trkpt lat="14.782031" lon="101.162672"><ele>147.9</ele><time>1970-01-01T02:25:21.000Z</time></trkpt><trkpt lat="14.782014" lon="101.162717"><ele>147.9</ele><time>1970-01-01T02:25:22.000Z</time></trkpt><trkpt lat="14.782002" lon="101.162763"><ele>147.8</ele><time>1970-01-01T02:25:23.000Z</time></trkpt><trkpt lat="14.781991" lon="101.162802"><ele>147.6</ele><time>1970-01-01T02:25:24.000Z</time></trkpt><trkpt lat="14.781983" lon="101.162834"><ele>147.5</ele><time>1970-01-01T02:25:25.000Z</time></trkpt><trkpt lat="14.781974" lon="101.162862"><ele>147.3</ele><time>1970-01-01T02:25:26.000Z</time></trkpt><trkpt lat="14.78196" lon="101.162906"><ele>147</ele><time>1970-01-01T02:25:28.000Z</time></trkpt><trkpt lat="14.781957" lon="101.162947"><ele>146.8</ele><time>1970-01-01T02:25:30.000Z</time></trkpt><trkpt lat="14.781959" lon="101.162978"><ele>146.6</ele><time>1970-01-01T02:25:32.000Z</time></trkpt><trkpt lat="14.78196" lon="101.163011"><ele>146.4</ele><time>1970-01-01T02:25:34.000Z</time></trkpt><trkpt lat="14.781962" lon="101.163061"><ele>146.2</ele><time>1970-01-01T02:25:36.000Z</time></trkpt><trkpt lat="14.781962" lon="101.163092"><ele>146</ele><time>1970-01-01T02:25:37.000Z</time></trkpt><trkpt lat="14.781946" lon="101.163141"><ele>146.1</ele><time>1970-01-01T02:25:39.000Z</time></trkpt><trkpt lat="14.78193" lon="101.163166"><ele>146.3</ele><time>1970-01-01T02:25:41.000Z</time></trkpt><trkpt lat="14.7819" lon="101.163167"><ele>146.5</ele><time>1970-01-01T02:25:44.000Z</time></trkpt><trkpt lat="14.781863" lon="101.163183"><ele>146.9</ele><time>1970-01-01T02:25:46.000Z</time></trkpt><trkpt lat="14.781834" lon="101.163197"><ele>147.2</ele><time>1970-01-01T02:25:47.000Z</time></trkpt><trkpt lat="14.781792" lon="101.163222"><ele>147.6</ele><time>1970-01-01T02:25:48.000Z</time></trkpt><trkpt lat="14.781747" lon="101.16325"><ele>147.9</ele><time>1970-01-01T02:25:49.000Z</time></trkpt><trkpt lat="14.78171" lon="101.16327"><ele>147.9</ele><time>1970-01-01T02:25:50.000Z</time></trkpt><trkpt lat="14.781681" lon="101.16328"><ele>148</ele><time>1970-01-01T02:25:51.000Z</time></trkpt><trkpt lat="14.781652" lon="101.163285"><ele>148.3</ele><time>1970-01-01T02:25:52.000Z</time></trkpt><trkpt lat="14.781622" lon="101.163287"><ele>148.7</ele><time>1970-01-01T02:25:53.000Z</time></trkpt><trkpt lat="14.781595" lon="101.163295"><ele>149</ele><time>1970-01-01T02:25:54.000Z</time></trkpt><trkpt lat="14.781567" lon="101.163311"><ele>149.4</ele><time>1970-01-01T02:25:55.000Z</time></trkpt><trkpt lat="14.781534" lon="101.163331"><ele>149.9</ele><time>1970-01-01T02:25:56.000Z</time></trkpt><trkpt lat="14.781502" lon="101.163351"><ele>150.1</ele><time>1970-01-01T02:25:57.000Z</time></trkpt><trkpt lat="14.781473" lon="101.163367"><ele>150.3</ele><time>1970-01-01T02:25:58.000Z</time></trkpt><trkpt lat="14.781447" lon="101.163379"><ele>150.5</ele><time>1970-01-01T02:25:59.000Z</time></trkpt><trkpt lat="14.78142" lon="101.163392"><ele>150.8</ele><time>1970-01-01T02:26:00.000Z</time></trkpt><trkpt lat="14.781396" lon="101.163406"><ele>151.1</ele><time>1970-01-01T02:26:01.000Z</time></trkpt><trkpt lat="14.781364" lon="101.163423"><ele>151.4</ele><time>1970-01-01T02:26:03.000Z</time></trkpt><trkpt lat="14.781324" lon="101.163439"><ele>151.7</ele><time>1970-01-01T02:26:05.000Z</time></trkpt><trkpt lat="14.781275" lon="101.163464"><ele>152.1</ele><time>1970-01-01T02:26:07.000Z</time></trkpt><trkpt lat="14.781236" lon="101.163479"><ele>152.4</ele><time>1970-01-01T02:26:09.000Z</time></trkpt><trkpt lat="14.7812" lon="101.163499"><ele>152.9</ele><time>1970-01-01T02:26:11.000Z</time></trkpt><trkpt lat="14.781173" lon="101.163511"><ele>153.2</ele><time>1970-01-01T02:26:13.000Z</time></trkpt><trkpt lat="14.781134" lon="101.163522"><ele>153.7</ele><time>1970-01-01T02:26:16.000Z</time></trkpt><trkpt lat="14.781092" lon="101.163554"><ele>154.3</ele><time>1970-01-01T02:26:18.000Z</time></trkpt><trkpt lat="14.78107" lon="101.163574"><ele>154.4</ele><time>1970-01-01T02:26:19.000Z</time></trkpt><trkpt lat="14.781044" lon="101.163601"><ele>154.5</ele><time>1970-01-01T02:26:20.000Z</time></trkpt><trkpt lat="14.781015" lon="101.16363"><ele>154.5</ele><time>1970-01-01T02:26:21.000Z</time></trkpt><trkpt lat="14.780985" lon="101.163653"><ele>154.4</ele><time>1970-01-01T02:26:22.000Z</time></trkpt><trkpt lat="14.780956" lon="101.163679"><ele>153.9</ele><time>1970-01-01T02:26:23.000Z</time></trkpt><trkpt lat="14.780932" lon="101.163694"><ele>153.6</ele><time>1970-01-01T02:26:24.000Z</time></trkpt><trkpt lat="14.780891" lon="101.163713"><ele>153.1</ele><time>1970-01-01T02:26:26.000Z</time></trkpt><trkpt lat="14.780865" lon="101.163727"><ele>152.7</ele><time>1970-01-01T02:26:27.000Z</time></trkpt><trkpt lat="14.780837" lon="101.163746"><ele>152.3</ele><time>1970-01-01T02:26:28.000Z</time></trkpt><trkpt lat="14.780813" lon="101.163763"><ele>151.8</ele><time>1970-01-01T02:26:29.000Z</time></trkpt><trkpt lat="14.780786" lon="101.16378"><ele>151.5</ele><time>1970-01-01T02:26:30.000Z</time></trkpt><trkpt lat="14.780757" lon="101.163796"><ele>151.3</ele><time>1970-01-01T02:26:31.000Z</time></trkpt><trkpt lat="14.780726" lon="101.163811"><ele>151.1</ele><time>1970-01-01T02:26:32.000Z</time></trkpt><trkpt lat="14.780693" lon="101.163825"><ele>150.9</ele><time>1970-01-01T02:26:33.000Z</time></trkpt><trkpt lat="14.780648" lon="101.163838"><ele>150.6</ele><time>1970-01-01T02:26:34.000Z</time></trkpt><trkpt lat="14.780598" lon="101.163847"><ele>150.5</ele><time>1970-01-01T02:26:35.000Z</time></trkpt><trkpt lat="14.780553" lon="101.163854"><ele>150.5</ele><time>1970-01-01T02:26:36.000Z</time></trkpt><trkpt lat="14.780511" lon="101.163861"><ele>150.6</ele><time>1970-01-01T02:26:37.000Z</time></trkpt><trkpt lat="14.780466" lon="101.163868"><ele>150.8</ele><time>1970-01-01T02:26:38.000Z</time></trkpt><trkpt lat="14.780418" lon="101.163879"><ele>151.2</ele><time>1970-01-01T02:26:39.000Z</time></trkpt><trkpt lat="14.780367" lon="101.163898"><ele>151.8</ele><time>1970-01-01T02:26:40.000Z</time></trkpt><trkpt lat="14.780325" lon="101.163918"><ele>152.4</ele><time>1970-01-01T02:26:41.000Z</time></trkpt><trkpt lat="14.780287" lon="101.163942"><ele>153.2</ele><time>1970-01-01T02:26:42.000Z</time></trkpt><trkpt lat="14.780257" lon="101.163965"><ele>153.8</ele><time>1970-01-01T02:26:43.000Z</time></trkpt><trkpt lat="14.78023" lon="101.163984"><ele>154.4</ele><time>1970-01-01T02:26:44.000Z</time></trkpt><trkpt lat="14.780207" lon="101.164002"><ele>154.8</ele><time>1970-01-01T02:26:45.000Z</time></trkpt><trkpt lat="14.780165" lon="101.164034"><ele>155.6</ele><time>1970-01-01T02:26:47.000Z</time></trkpt><trkpt lat="14.78012" lon="101.164066"><ele>156.6</ele><time>1970-01-01T02:26:49.000Z</time></trkpt><trkpt lat="14.780073" lon="101.16409"><ele>157.3</ele><time>1970-01-01T02:26:51.000Z</time></trkpt><trkpt lat="14.780046" lon="101.164103"><ele>157.6</ele><time>1970-01-01T02:26:52.000Z</time></trkpt><trkpt lat="14.780019" lon="101.164115"><ele>157.9</ele><time>1970-01-01T02:26:53.000Z</time></trkpt><trkpt lat="14.779989" lon="101.164127"><ele>158.2</ele><time>1970-01-01T02:26:54.000Z</time></trkpt><trkpt lat="14.779956" lon="101.16414"><ele>158.5</ele><time>1970-01-01T02:26:55.000Z</time></trkpt><trkpt lat="14.779923" lon="101.16414"><ele>158.5</ele><time>1970-01-01T02:26:56.000Z</time></trkpt><trkpt lat="14.779883" lon="101.164135"><ele>158.3</ele><time>1970-01-01T02:26:57.000Z</time></trkpt><trkpt lat="14.779845" lon="101.164135"><ele>158</ele><time>1970-01-01T02:26:58.000Z</time></trkpt><trkpt lat="14.779816" lon="101.164139"><ele>157.8</ele><time>1970-01-01T02:26:59.000Z</time></trkpt><trkpt lat="14.779788" lon="101.164147"><ele>157.6</ele><time>1970-01-01T02:27:00.000Z</time></trkpt><trkpt lat="14.779744" lon="101.164161"><ele>157.1</ele><time>1970-01-01T02:27:02.000Z</time></trkpt><trkpt lat="14.779711" lon="101.164172"><ele>156.7</ele><time>1970-01-01T02:27:05.000Z</time></trkpt><trkpt lat="14.77967" lon="101.164162"><ele>156.2</ele><time>1970-01-01T02:27:07.000Z</time></trkpt><trkpt lat="14.779643" lon="101.164158"><ele>155.9</ele><time>1970-01-01T02:27:08.000Z</time></trkpt><trkpt lat="14.779607" lon="101.164158"><ele>155.7</ele><time>1970-01-01T02:27:09.000Z</time></trkpt><trkpt lat="14.77957" lon="101.164159"><ele>155.6</ele><time>1970-01-01T02:27:10.000Z</time></trkpt><trkpt lat="14.779543" lon="101.16416"><ele>155.6</ele><time>1970-01-01T02:27:11.000Z</time></trkpt><trkpt lat="14.779515" lon="101.164166"><ele>155.7</ele><time>1970-01-01T02:27:12.000Z</time></trkpt><trkpt lat="14.779457" lon="101.164179"><ele>156.1</ele><time>1970-01-01T02:27:14.000Z</time></trkpt><trkpt lat="14.779421" lon="101.164184"><ele>156.4</ele><time>1970-01-01T02:27:15.000Z</time></trkpt><trkpt lat="14.779391" lon="101.164189"><ele>156.8</ele><time>1970-01-01T02:27:16.000Z</time></trkpt><trkpt lat="14.779352" lon="101.16419"><ele>157.7</ele><time>1970-01-01T02:27:18.000Z</time></trkpt><trkpt lat="14.779322" lon="101.164188"><ele>158.4</ele><time>1970-01-01T02:27:20.000Z</time></trkpt><trkpt lat="14.779276" lon="101.164176"><ele>159.6</ele><time>1970-01-01T02:27:22.000Z</time></trkpt><trkpt lat="14.779229" lon="101.164176"><ele>160</ele><time>1970-01-01T02:27:24.000Z</time></trkpt><trkpt lat="14.779187" lon="101.164201"><ele>160.4</ele><time>1970-01-01T02:27:26.000Z</time></trkpt><trkpt lat="14.779162" lon="101.164222"><ele>160.7</ele><time>1970-01-01T02:27:28.000Z</time></trkpt><trkpt lat="14.779132" lon="101.164246"><ele>161.1</ele><time>1970-01-01T02:27:30.000Z</time></trkpt><trkpt lat="14.779103" lon="101.164264"><ele>161.2</ele><time>1970-01-01T02:27:32.000Z</time></trkpt><trkpt lat="14.779076" lon="101.164289"><ele>161.1</ele><time>1970-01-01T02:27:34.000Z</time></trkpt><trkpt lat="14.779049" lon="101.164317"><ele>161.1</ele><time>1970-01-01T02:27:36.000Z</time></trkpt><trkpt lat="14.77902" lon="101.164353"><ele>161.6</ele><time>1970-01-01T02:27:38.000Z</time></trkpt><trkpt lat="14.779002" lon="101.164379"><ele>161.9</ele><time>1970-01-01T02:27:40.000Z</time></trkpt><trkpt lat="14.778976" lon="101.164411"><ele>162.2</ele><time>1970-01-01T02:27:42.000Z</time></trkpt><trkpt lat="14.778941" lon="101.16445"><ele>162.4</ele><time>1970-01-01T02:27:44.000Z</time></trkpt><trkpt lat="14.778916" lon="101.164479"><ele>162</ele><time>1970-01-01T02:27:45.000Z</time></trkpt><trkpt lat="14.778891" lon="101.164507"><ele>161.6</ele><time>1970-01-01T02:27:46.000Z</time></trkpt><trkpt lat="14.778863" lon="101.164534"><ele>161.7</ele><time>1970-01-01T02:27:47.000Z</time></trkpt><trkpt lat="14.778832" lon="101.164561"><ele>161.5</ele><time>1970-01-01T02:27:48.000Z</time></trkpt><trkpt lat="14.778802" lon="101.16459"><ele>161.1</ele><time>1970-01-01T02:27:49.000Z</time></trkpt><trkpt lat="14.778775" lon="101.164616"><ele>160.8</ele><time>1970-01-01T02:27:50.000Z</time></trkpt><trkpt lat="14.77875" lon="101.164641"><ele>160.5</ele><time>1970-01-01T02:27:51.000Z</time></trkpt><trkpt lat="14.778726" lon="101.164663"><ele>160.3</ele><time>1970-01-01T02:27:52.000Z</time></trkpt><trkpt lat="14.778698" lon="101.164695"><ele>160.2</ele><time>1970-01-01T02:27:53.000Z</time></trkpt><trkpt lat="14.778668" lon="101.16473"><ele>160.1</ele><time>1970-01-01T02:27:54.000Z</time></trkpt><trkpt lat="14.778643" lon="101.164761"><ele>160.1</ele><time>1970-01-01T02:27:55.000Z</time></trkpt><trkpt lat="14.778618" lon="101.16479"><ele>160.3</ele><time>1970-01-01T02:27:56.000Z</time></trkpt><trkpt lat="14.778598" lon="101.164816"><ele>160.4</ele><time>1970-01-01T02:27:57.000Z</time></trkpt><trkpt lat="14.77858" lon="101.16484"><ele>160.2</ele><time>1970-01-01T02:27:58.000Z</time></trkpt><trkpt lat="14.778565" lon="101.164865"><ele>160</ele><time>1970-01-01T02:27:59.000Z</time></trkpt><trkpt lat="14.77855" lon="101.164896"><ele>159.9</ele><time>1970-01-01T02:28:00.000Z</time></trkpt><trkpt lat="14.778532" lon="101.164933"><ele>159.6</ele><time>1970-01-01T02:28:01.000Z</time></trkpt><trkpt lat="14.778513" lon="101.164966"><ele>159.1</ele><time>1970-01-01T02:28:02.000Z</time></trkpt><trkpt lat="14.778491" lon="101.164997"><ele>158.4</ele><time>1970-01-01T02:28:03.000Z</time></trkpt><trkpt lat="14.77847" lon="101.165023"><ele>158.1</ele><time>1970-01-01T02:28:04.000Z</time></trkpt><trkpt lat="14.778445" lon="101.165053"><ele>158</ele><time>1970-01-01T02:28:06.000Z</time></trkpt><trkpt lat="14.778423" lon="101.165074"><ele>157.9</ele><time>1970-01-01T02:28:09.000Z</time></trkpt><trkpt lat="14.778398" lon="101.165097"><ele>158.3</ele><time>1970-01-01T02:28:13.000Z</time></trkpt><trkpt lat="14.778373" lon="101.165118"><ele>158.8</ele><time>1970-01-01T02:28:17.000Z</time></trkpt><trkpt lat="14.77837" lon="101.165154"><ele>159.4</ele><time>1970-01-01T02:28:21.000Z</time></trkpt><trkpt lat="14.778373" lon="101.165202"><ele>159.9</ele><time>1970-01-01T02:28:24.000Z</time></trkpt><trkpt lat="14.778367" lon="101.165248"><ele>160.4</ele><time>1970-01-01T02:28:26.000Z</time></trkpt><trkpt lat="14.778361" lon="101.165278"><ele>160.8</ele><time>1970-01-01T02:28:27.000Z</time></trkpt><trkpt lat="14.77835" lon="101.16531"><ele>161.1</ele><time>1970-01-01T02:28:28.000Z</time></trkpt><trkpt lat="14.778335" lon="101.16534"><ele>161.5</ele><time>1970-01-01T02:28:29.000Z</time></trkpt><trkpt lat="14.77832" lon="101.16537"><ele>161.9</ele><time>1970-01-01T02:28:30.000Z</time></trkpt><trkpt lat="14.778305" lon="101.165401"><ele>162.3</ele><time>1970-01-01T02:28:31.000Z</time></trkpt><trkpt lat="14.778291" lon="101.165434"><ele>162.6</ele><time>1970-01-01T02:28:32.000Z</time></trkpt><trkpt lat="14.778277" lon="101.165476"><ele>162.9</ele><time>1970-01-01T02:28:33.000Z</time></trkpt><trkpt lat="14.778266" lon="101.16552"><ele>163.2</ele><time>1970-01-01T02:28:34.000Z</time></trkpt><trkpt lat="14.778259" lon="101.165562"><ele>163.5</ele><time>1970-01-01T02:28:35.000Z</time></trkpt><trkpt lat="14.778255" lon="101.1656"><ele>163.8</ele><time>1970-01-01T02:28:36.000Z</time></trkpt><trkpt lat="14.778248" lon="101.165638"><ele>163.8</ele><time>1970-01-01T02:28:37.000Z</time></trkpt><trkpt lat="14.778236" lon="101.16568"><ele>163.9</ele><time>1970-01-01T02:28:38.000Z</time></trkpt><trkpt lat="14.77822" lon="101.165721"><ele>163.4</ele><time>1970-01-01T02:28:39.000Z</time></trkpt><trkpt lat="14.778204" lon="101.165761"><ele>162.8</ele><time>1970-01-01T02:28:40.000Z</time></trkpt><trkpt lat="14.778188" lon="101.165803"><ele>161.9</ele><time>1970-01-01T02:28:41.000Z</time></trkpt><trkpt lat="14.77817" lon="101.165847"><ele>160.8</ele><time>1970-01-01T02:28:42.000Z</time></trkpt><trkpt lat="14.778148" lon="101.165893"><ele>159.9</ele><time>1970-01-01T02:28:43.000Z</time></trkpt><trkpt lat="14.778121" lon="101.165938"><ele>159.1</ele><time>1970-01-01T02:28:44.000Z</time></trkpt><trkpt lat="14.778065" lon="101.166016"><ele>158.6</ele><time>1970-01-01T02:28:45.000Z</time></trkpt><trkpt lat="14.77806" lon="101.166072"><ele>158.6</ele><time>1970-01-01T02:28:46.000Z</time></trkpt><trkpt lat="14.778002" lon="101.166094"><ele>158.9</ele><time>1970-01-01T02:28:48.000Z</time></trkpt><trkpt lat="14.777948" lon="101.166122"><ele>159.5</ele><time>1970-01-01T02:28:50.000Z</time></trkpt><trkpt lat="14.77791" lon="101.166131"><ele>159.7</ele><time>1970-01-01T02:28:52.000Z</time></trkpt><trkpt lat="14.777886" lon="101.166153"><ele>159.9</ele><time>1970-01-01T02:28:54.000Z</time></trkpt><trkpt lat="14.777858" lon="101.166173"><ele>160.1</ele><time>1970-01-01T02:28:55.000Z</time></trkpt><trkpt lat="14.777821" lon="101.1662"><ele>160.3</ele><time>1970-01-01T02:28:57.000Z</time></trkpt><trkpt lat="14.777796" lon="101.166221"><ele>160.5</ele><time>1970-01-01T02:28:59.000Z</time></trkpt><trkpt lat="14.777774" lon="101.166248"><ele>160.6</ele><time>1970-01-01T02:29:01.000Z</time></trkpt><trkpt lat="14.777746" lon="101.166283"><ele>160.9</ele><time>1970-01-01T02:29:03.000Z</time></trkpt><trkpt lat="14.777714" lon="101.166317"><ele>161.4</ele><time>1970-01-01T02:29:05.000Z</time></trkpt><trkpt lat="14.777693" lon="101.166348"><ele>161.9</ele><time>1970-01-01T02:29:07.000Z</time></trkpt><trkpt lat="14.777684" lon="101.166377"><ele>162.7</ele><time>1970-01-01T02:29:09.000Z</time></trkpt><trkpt lat="14.777664" lon="101.166414"><ele>163.8</ele><time>1970-01-01T02:29:11.000Z</time></trkpt><trkpt lat="14.777633" lon="101.166445"><ele>164.2</ele><time>1970-01-01T02:29:13.000Z</time></trkpt><trkpt lat="14.777601" lon="101.166474"><ele>164.5</ele><time>1970-01-01T02:29:15.000Z</time></trkpt><trkpt lat="14.777585" lon="101.166497"><ele>164.5</ele><time>1970-01-01T02:29:16.000Z</time></trkpt><trkpt lat="14.777571" lon="101.16652"><ele>164.6</ele><time>1970-01-01T02:29:17.000Z</time></trkpt><trkpt lat="14.777554" lon="101.166546"><ele>164.6</ele><time>1970-01-01T02:29:18.000Z</time></trkpt><trkpt lat="14.777526" lon="101.166584"><ele>164.3</ele><time>1970-01-01T02:29:20.000Z</time></trkpt><trkpt lat="14.777508" lon="101.166616"><ele>164.1</ele><time>1970-01-01T02:29:22.000Z</time></trkpt><trkpt lat="14.777479" lon="101.166666"><ele>164</ele><time>1970-01-01T02:29:24.000Z</time></trkpt><trkpt lat="14.777461" lon="101.16669"><ele>163.9</ele><time>1970-01-01T02:29:25.000Z</time></trkpt><trkpt lat="14.777444" lon="101.166714"><ele>163.7</ele><time>1970-01-01T02:29:26.000Z</time></trkpt><trkpt lat="14.777424" lon="101.166757"><ele>163.3</ele><time>1970-01-01T02:29:28.000Z</time></trkpt><trkpt lat="14.777412" lon="101.166807"><ele>163.2</ele><time>1970-01-01T02:29:30.000Z</time></trkpt><trkpt lat="14.777394" lon="101.166856"><ele>162.9</ele><time>1970-01-01T02:29:32.000Z</time></trkpt><trkpt lat="14.777384" lon="101.166887"><ele>162.7</ele><time>1970-01-01T02:29:33.000Z</time></trkpt><trkpt lat="14.777375" lon="101.166922"><ele>162.5</ele><time>1970-01-01T02:29:34.000Z</time></trkpt><trkpt lat="14.777361" lon="101.16695"><ele>162.3</ele><time>1970-01-01T02:29:35.000Z</time></trkpt><trkpt lat="14.777331" lon="101.166992"><ele>162.1</ele><time>1970-01-01T02:29:37.000Z</time></trkpt><trkpt lat="14.777304" lon="101.167011"><ele>162</ele><time>1970-01-01T02:29:38.000Z</time></trkpt><trkpt lat="14.777267" lon="101.16703"><ele>161.9</ele><time>1970-01-01T02:29:39.000Z</time></trkpt><trkpt lat="14.77723" lon="101.167044"><ele>161.8</ele><time>1970-01-01T02:29:40.000Z</time></trkpt><trkpt lat="14.777194" lon="101.167057"><ele>162</ele><time>1970-01-01T02:29:41.000Z</time></trkpt><trkpt lat="14.777156" lon="101.167071"><ele>162.3</ele><time>1970-01-01T02:29:42.000Z</time></trkpt><trkpt lat="14.777125" lon="101.167081"><ele>162.6</ele><time>1970-01-01T02:29:43.000Z</time></trkpt><trkpt lat="14.777073" lon="101.167091"><ele>163.1</ele><time>1970-01-01T02:29:45.000Z</time></trkpt><trkpt lat="14.777043" lon="101.167095"><ele>163.7</ele><time>1970-01-01T02:29:46.000Z</time></trkpt><trkpt lat="14.777008" lon="101.167102"><ele>164.5</ele><time>1970-01-01T02:29:47.000Z</time></trkpt><trkpt lat="14.776975" lon="101.167112"><ele>165.3</ele><time>1970-01-01T02:29:48.000Z</time></trkpt><trkpt lat="14.77694" lon="101.16713"><ele>166.4</ele><time>1970-01-01T02:29:50.000Z</time></trkpt><trkpt lat="14.77691" lon="101.167147"><ele>167.3</ele><time>1970-01-01T02:29:52.000Z</time></trkpt><trkpt lat="14.776864" lon="101.167167"><ele>168.4</ele><time>1970-01-01T02:29:54.000Z</time></trkpt><trkpt lat="14.776827" lon="101.167189"><ele>169.1</ele><time>1970-01-01T02:29:56.000Z</time></trkpt><trkpt lat="14.776804" lon="101.167206"><ele>169.2</ele><time>1970-01-01T02:29:58.000Z</time></trkpt><trkpt lat="14.776768" lon="101.167228"><ele>169.3</ele><time>1970-01-01T02:30:01.000Z</time></trkpt><trkpt lat="14.776738" lon="101.167244"><ele>169.6</ele><time>1970-01-01T02:30:04.000Z</time></trkpt><trkpt lat="14.776713" lon="101.167262"><ele>169.9</ele><time>1970-01-01T02:30:06.000Z</time></trkpt><trkpt lat="14.776682" lon="101.167293"><ele>170</ele><time>1970-01-01T02:30:08.000Z</time></trkpt><trkpt lat="14.776664" lon="101.167316"><ele>169.9</ele><time>1970-01-01T02:30:09.000Z</time></trkpt><trkpt lat="14.776648" lon="101.16734"><ele>169.8</ele><time>1970-01-01T02:30:10.000Z</time></trkpt><trkpt lat="14.77661" lon="101.167377"><ele>169.6</ele><time>1970-01-01T02:30:12.000Z</time></trkpt><trkpt lat="14.776566" lon="101.1674"><ele>169.4</ele><time>1970-01-01T02:30:14.000Z</time></trkpt><trkpt lat="14.776525" lon="101.16741"><ele>169.5</ele><time>1970-01-01T02:30:16.000Z</time></trkpt><trkpt lat="14.77648" lon="101.167424"><ele>169.5</ele><time>1970-01-01T02:30:18.000Z</time></trkpt><trkpt lat="14.776434" lon="101.167443"><ele>169.7</ele><time>1970-01-01T02:30:20.000Z</time></trkpt><trkpt lat="14.776406" lon="101.167454"><ele>169.8</ele><time>1970-01-01T02:30:21.000Z</time></trkpt><trkpt lat="14.776381" lon="101.167465"><ele>169.8</ele><time>1970-01-01T02:30:22.000Z</time></trkpt><trkpt lat="14.776337" lon="101.167488"><ele>169.9</ele><time>1970-01-01T02:30:24.000Z</time></trkpt><trkpt lat="14.776287" lon="101.167512"><ele>170.3</ele><time>1970-01-01T02:30:26.000Z</time></trkpt><trkpt lat="14.776256" lon="101.167524"><ele>170.6</ele><time>1970-01-01T02:30:27.000Z</time></trkpt><trkpt lat="14.776229" lon="101.167534"><ele>170.9</ele><time>1970-01-01T02:30:28.000Z</time></trkpt><trkpt lat="14.776201" lon="101.167545"><ele>171.2</ele><time>1970-01-01T02:30:29.000Z</time></trkpt><trkpt lat="14.776155" lon="101.167563"><ele>171.6</ele><time>1970-01-01T02:30:31.000Z</time></trkpt><trkpt lat="14.776122" lon="101.167579"><ele>171.8</ele><time>1970-01-01T02:30:33.000Z</time></trkpt><trkpt lat="14.776091" lon="101.167592"><ele>172.2</ele><time>1970-01-01T02:30:35.000Z</time></trkpt><trkpt lat="14.776063" lon="101.167606"><ele>172.5</ele><time>1970-01-01T02:30:38.000Z</time></trkpt><trkpt lat="14.776029" lon="101.167622"><ele>172.6</ele><time>1970-01-01T02:30:41.000Z</time></trkpt><trkpt lat="14.776" lon="101.167634"><ele>172.7</ele><time>1970-01-01T02:30:43.000Z</time></trkpt><trkpt lat="14.775968" lon="101.167647"><ele>172.7</ele><time>1970-01-01T02:30:45.000Z</time></trkpt><trkpt lat="14.775926" lon="101.167663"><ele>172.7</ele><time>1970-01-01T02:30:47.000Z</time></trkpt><trkpt lat="14.775897" lon="101.167677"><ele>172.6</ele><time>1970-01-01T02:30:48.000Z</time></trkpt><trkpt lat="14.77587" lon="101.167693"><ele>172.6</ele><time>1970-01-01T02:30:49.000Z</time></trkpt><trkpt lat="14.775823" lon="101.167715"><ele>172.6</ele><time>1970-01-01T02:30:51.000Z</time></trkpt><trkpt lat="14.775797" lon="101.167723"><ele>172.6</ele><time>1970-01-01T02:30:52.000Z</time></trkpt><trkpt lat="14.775769" lon="101.167735"><ele>172.6</ele><time>1970-01-01T02:30:53.000Z</time></trkpt><trkpt lat="14.77572" lon="101.167764"><ele>172.6</ele><time>1970-01-01T02:30:55.000Z</time></trkpt><trkpt lat="14.775692" lon="101.167779"><ele>172.6</ele><time>1970-01-01T02:30:56.000Z</time></trkpt><trkpt lat="14.775648" lon="101.167803"><ele>172.5</ele><time>1970-01-01T02:30:58.000Z</time></trkpt><trkpt lat="14.775617" lon="101.167832"><ele>172.5</ele><time>1970-01-01T02:31:00.000Z</time></trkpt><trkpt lat="14.775578" lon="101.167854"><ele>172.6</ele><time>1970-01-01T02:31:02.000Z</time></trkpt><trkpt lat="14.775537" lon="101.167856"><ele>172.7</ele><time>1970-01-01T02:31:04.000Z</time></trkpt><trkpt lat="14.775491" lon="101.16786"><ele>172.9</ele><time>1970-01-01T02:31:06.000Z</time></trkpt><trkpt lat="14.775441" lon="101.167874"><ele>173.2</ele><time>1970-01-01T02:31:08.000Z</time></trkpt><trkpt lat="14.775391" lon="101.167876"><ele>173.7</ele><time>1970-01-01T02:31:10.000Z</time></trkpt><trkpt lat="14.775355" lon="101.167875"><ele>174.1</ele><time>1970-01-01T02:31:12.000Z</time></trkpt><trkpt lat="14.775308" lon="101.167902"><ele>174.5</ele><time>1970-01-01T02:31:14.000Z</time></trkpt><trkpt lat="14.775271" lon="101.167947"><ele>174.9</ele><time>1970-01-01T02:31:16.000Z</time></trkpt><trkpt lat="14.775249" lon="101.167968"><ele>175.1</ele><time>1970-01-01T02:31:17.000Z</time></trkpt><trkpt lat="14.775224" lon="101.167984"><ele>175.2</ele><time>1970-01-01T02:31:18.000Z</time></trkpt><trkpt lat="14.7752" lon="101.167997"><ele>175.2</ele><time>1970-01-01T02:31:19.000Z</time></trkpt><trkpt lat="14.775175" lon="101.168011"><ele>175.2</ele><time>1970-01-01T02:31:20.000Z</time></trkpt><trkpt lat="14.775148" lon="101.168025"><ele>175.3</ele><time>1970-01-01T02:31:21.000Z</time></trkpt><trkpt lat="14.775096" lon="101.16804"><ele>175.2</ele><time>1970-01-01T02:31:23.000Z</time></trkpt><trkpt lat="14.775061" lon="101.168043"><ele>175.1</ele><time>1970-01-01T02:31:24.000Z</time></trkpt><trkpt lat="14.775023" lon="101.168047"><ele>175.1</ele><time>1970-01-01T02:31:25.000Z</time></trkpt><trkpt lat="14.77498" lon="101.168056"><ele>175.3</ele><time>1970-01-01T02:31:26.000Z</time></trkpt><trkpt lat="14.774933" lon="101.168068"><ele>175.4</ele><time>1970-01-01T02:31:27.000Z</time></trkpt><trkpt lat="14.774884" lon="101.168079"><ele>175.3</ele><time>1970-01-01T02:31:28.000Z</time></trkpt><trkpt lat="14.774833" lon="101.168087"><ele>175.1</ele><time>1970-01-01T02:31:29.000Z</time></trkpt><trkpt lat="14.77474" lon="101.168076"><ele>175.3</ele><time>1970-01-01T02:31:30.000Z</time></trkpt><trkpt lat="14.774682" lon="101.168058"><ele>175.1</ele><time>1970-01-01T02:31:31.000Z</time></trkpt><trkpt lat="14.774653" lon="101.168027"><ele>174.8</ele><time>1970-01-01T02:31:32.000Z</time></trkpt><trkpt lat="14.774678" lon="101.168061"><ele>174.6</ele><time>1970-01-01T02:31:33.000Z</time></trkpt><trkpt lat="14.774657" lon="101.168035"><ele>174.5</ele><time>1970-01-01T02:31:47.000Z</time></trkpt><trkpt lat="14.774658" lon="101.168003"><ele>174.4</ele><time>1970-01-01T02:31:50.000Z</time></trkpt><trkpt lat="14.774657" lon="101.167974"><ele>174.4</ele><time>1970-01-01T02:31:54.000Z</time></trkpt><trkpt lat="14.774629" lon="101.167967"><ele>174.4</ele><time>1970-01-01T02:32:00.000Z</time></trkpt><trkpt lat="14.774598" lon="101.16796"><ele>174.4</ele><time>1970-01-01T02:32:04.000Z</time></trkpt><trkpt lat="14.77457" lon="101.167975"><ele>174.5</ele><time>1970-01-01T02:32:10.000Z</time></trkpt><trkpt lat="14.774518" lon="101.167963"><ele>174.5</ele><time>1970-01-01T02:32:30.000Z</time></trkpt><trkpt lat="14.77448" lon="101.167956"><ele>174.5</ele><time>1970-01-01T02:32:32.000Z</time></trkpt><trkpt lat="14.77444" lon="101.16797"><ele>174.5</ele><time>1970-01-01T02:32:34.000Z</time></trkpt><trkpt lat="14.774402" lon="101.167989"><ele>174.5</ele><time>1970-01-01T02:32:36.000Z</time></trkpt><trkpt lat="14.774364" lon="101.168007"><ele>174.5</ele><time>1970-01-01T02:32:38.000Z</time></trkpt><trkpt lat="14.774334" lon="101.168025"><ele>174.6</ele><time>1970-01-01T02:32:40.000Z</time></trkpt><trkpt lat="14.774296" lon="101.168049"><ele>174.8</ele><time>1970-01-01T02:32:42.000Z</time></trkpt><trkpt lat="14.774272" lon="101.168063"><ele>175</ele><time>1970-01-01T02:32:43.000Z</time></trkpt><trkpt lat="14.774241" lon="101.168092"><ele>175.1</ele><time>1970-01-01T02:32:45.000Z</time></trkpt><trkpt lat="14.774227" lon="101.168119"><ele>175.3</ele><time>1970-01-01T02:32:47.000Z</time></trkpt><trkpt lat="14.77421" lon="101.168145"><ele>175.5</ele><time>1970-01-01T02:32:49.000Z</time></trkpt><trkpt lat="14.77417" lon="101.16817"><ele>175.7</ele><time>1970-01-01T02:32:51.000Z</time></trkpt><trkpt lat="14.77414" lon="101.168186"><ele>175.8</ele><time>1970-01-01T02:32:52.000Z</time></trkpt><trkpt lat="14.774097" lon="101.168206"><ele>176.1</ele><time>1970-01-01T02:32:54.000Z</time></trkpt><trkpt lat="14.774067" lon="101.168223"><ele>176.3</ele><time>1970-01-01T02:32:56.000Z</time></trkpt><trkpt lat="14.774042" lon="101.168237"><ele>176.6</ele><time>1970-01-01T02:32:58.000Z</time></trkpt><trkpt lat="14.774008" lon="101.168257"><ele>177</ele><time>1970-01-01T02:33:00.000Z</time></trkpt><trkpt lat="14.773973" lon="101.16829"><ele>177.5</ele><time>1970-01-01T02:33:02.000Z</time></trkpt><trkpt lat="14.773948" lon="101.168309"><ele>177.7</ele><time>1970-01-01T02:33:04.000Z</time></trkpt><trkpt lat="14.773904" lon="101.168335"><ele>178.2</ele><time>1970-01-01T02:33:06.000Z</time></trkpt><trkpt lat="14.773869" lon="101.168361"><ele>178.7</ele><time>1970-01-01T02:33:08.000Z</time></trkpt><trkpt lat="14.773827" lon="101.168383"><ele>178.9</ele><time>1970-01-01T02:33:10.000Z</time></trkpt><trkpt lat="14.77378" lon="101.168413"><ele>178.8</ele><time>1970-01-01T02:33:12.000Z</time></trkpt><trkpt lat="14.773756" lon="101.168429"><ele>178.8</ele><time>1970-01-01T02:33:13.000Z</time></trkpt><trkpt lat="14.773728" lon="101.168455"><ele>178.7</ele><time>1970-01-01T02:33:15.000Z</time></trkpt><trkpt lat="14.773696" lon="101.168481"><ele>178.6</ele><time>1970-01-01T02:33:17.000Z</time></trkpt><trkpt lat="14.773676" lon="101.168512"><ele>178.8</ele><time>1970-01-01T02:33:19.000Z</time></trkpt><trkpt lat="14.773655" lon="101.168545"><ele>178.9</ele><time>1970-01-01T02:33:21.000Z</time></trkpt><trkpt lat="14.773616" lon="101.168566"><ele>179.2</ele><time>1970-01-01T02:33:23.000Z</time></trkpt><trkpt lat="14.773579" lon="101.168583"><ele>179.5</ele><time>1970-01-01T02:33:26.000Z</time></trkpt><trkpt lat="14.773544" lon="101.168595"><ele>180</ele><time>1970-01-01T02:33:29.000Z</time></trkpt><trkpt lat="14.773514" lon="101.168599"><ele>180.4</ele><time>1970-01-01T02:33:31.000Z</time></trkpt><trkpt lat="14.773475" lon="101.168603"><ele>181</ele><time>1970-01-01T02:33:34.000Z</time></trkpt><trkpt lat="14.773444" lon="101.168608"><ele>181.4</ele><time>1970-01-01T02:33:36.000Z</time></trkpt><trkpt lat="14.773413" lon="101.168613"><ele>181.8</ele><time>1970-01-01T02:33:38.000Z</time></trkpt><trkpt lat="14.773385" lon="101.16862"><ele>182.1</ele><time>1970-01-01T02:33:40.000Z</time></trkpt><trkpt lat="14.77336" lon="101.168631"><ele>182.3</ele><time>1970-01-01T02:33:42.000Z</time></trkpt><trkpt lat="14.773334" lon="101.168637"><ele>182.5</ele><time>1970-01-01T02:33:44.000Z</time></trkpt><trkpt lat="14.773304" lon="101.16864"><ele>182.8</ele><time>1970-01-01T02:33:47.000Z</time></trkpt><trkpt lat="14.773266" lon="101.168638"><ele>183.2</ele><time>1970-01-01T02:33:50.000Z</time></trkpt><trkpt lat="14.773231" lon="101.168644"><ele>183.6</ele><time>1970-01-01T02:33:53.000Z</time></trkpt><trkpt lat="14.773204" lon="101.168655"><ele>184</ele><time>1970-01-01T02:33:55.000Z</time></trkpt><trkpt lat="14.77317" lon="101.168659"><ele>184.6</ele><time>1970-01-01T02:33:59.000Z</time></trkpt><trkpt lat="14.773144" lon="101.168668"><ele>185.1</ele><time>1970-01-01T02:34:02.000Z</time></trkpt><trkpt lat="14.773117" lon="101.168694"><ele>185.5</ele><time>1970-01-01T02:34:07.000Z</time></trkpt><trkpt lat="14.773092" lon="101.168713"><ele>185.9</ele><time>1970-01-01T02:34:14.000Z</time></trkpt><trkpt lat="14.773068" lon="101.16873"><ele>186.3</ele><time>1970-01-01T02:34:17.000Z</time></trkpt><trkpt lat="14.773039" lon="101.16874"><ele>186.8</ele><time>1970-01-01T02:34:21.000Z</time></trkpt><trkpt lat="14.773018" lon="101.16876"><ele>187.2</ele><time>1970-01-01T02:34:25.000Z</time></trkpt><trkpt lat="14.772992" lon="101.168782"><ele>187.7</ele><time>1970-01-01T02:34:29.000Z</time></trkpt><trkpt lat="14.772981" lon="101.168813"><ele>188.1</ele><time>1970-01-01T02:34:32.000Z</time></trkpt><trkpt lat="14.772982" lon="101.168843"><ele>188.4</ele><time>1970-01-01T02:34:36.000Z</time></trkpt><trkpt lat="14.77295" lon="101.168859"><ele>188.7</ele><time>1970-01-01T02:34:40.000Z</time></trkpt><trkpt lat="14.772931" lon="101.168885"><ele>189</ele><time>1970-01-01T02:34:43.000Z</time></trkpt><trkpt lat="14.772921" lon="101.168912"><ele>189.2</ele><time>1970-01-01T02:35:21.000Z</time></trkpt><trkpt lat="14.772903" lon="101.168941"><ele>189.3</ele><time>1970-01-01T02:35:23.000Z</time></trkpt><trkpt lat="14.772886" lon="101.168975"><ele>189.4</ele><time>1970-01-01T02:35:25.000Z</time></trkpt><trkpt lat="14.772864" lon="101.169004"><ele>189.4</ele><time>1970-01-01T02:35:27.000Z</time></trkpt><trkpt lat="14.772832" lon="101.169023"><ele>189.4</ele><time>1970-01-01T02:35:29.000Z</time></trkpt><trkpt lat="14.772794" lon="101.169037"><ele>189.5</ele><time>1970-01-01T02:35:31.000Z</time></trkpt><trkpt lat="14.772751" lon="101.169033"><ele>189.7</ele><time>1970-01-01T02:35:34.000Z</time></trkpt><trkpt lat="14.772718" lon="101.169036"><ele>189.7</ele><time>1970-01-01T02:35:36.000Z</time></trkpt><trkpt lat="14.772672" lon="101.169032"><ele>189.7</ele><time>1970-01-01T02:35:39.000Z</time></trkpt><trkpt lat="14.772641" lon="101.169026"><ele>190</ele><time>1970-01-01T02:35:41.000Z</time></trkpt><trkpt lat="14.772609" lon="101.169034"><ele>190.4</ele><time>1970-01-01T02:35:45.000Z</time></trkpt><trkpt lat="14.77258" lon="101.169038"><ele>191</ele><time>1970-01-01T02:35:47.000Z</time></trkpt><trkpt lat="14.772546" lon="101.169046"><ele>191.7</ele><time>1970-01-01T02:35:49.000Z</time></trkpt><trkpt lat="14.77251" lon="101.169067"><ele>192.1</ele><time>1970-01-01T02:35:54.000Z</time></trkpt><trkpt lat="14.772481" lon="101.169078"><ele>192.4</ele><time>1970-01-01T02:35:56.000Z</time></trkpt><trkpt lat="14.772437" lon="101.169097"><ele>192.8</ele><time>1970-01-01T02:35:59.000Z</time></trkpt><trkpt lat="14.772405" lon="101.169112"><ele>193.1</ele><time>1970-01-01T02:36:01.000Z</time></trkpt><trkpt lat="14.772371" lon="101.169129"><ele>193.5</ele><time>1970-01-01T02:36:03.000Z</time></trkpt><trkpt lat="14.77234" lon="101.169155"><ele>194</ele><time>1970-01-01T02:36:05.000Z</time></trkpt><trkpt lat="14.772313" lon="101.169192"><ele>194.8</ele><time>1970-01-01T02:36:07.000Z</time></trkpt><trkpt lat="14.772303" lon="101.169234"><ele>196.3</ele><time>1970-01-01T02:36:09.000Z</time></trkpt><trkpt lat="14.772293" lon="101.16927"><ele>197.5</ele><time>1970-01-01T02:36:11.000Z</time></trkpt><trkpt lat="14.772278" lon="101.169296"><ele>197.9</ele><time>1970-01-01T02:36:13.000Z</time></trkpt><trkpt lat="14.772264" lon="101.169321"><ele>198.3</ele><time>1970-01-01T02:36:16.000Z</time></trkpt><trkpt lat="14.772254" lon="101.169352"><ele>198.9</ele><time>1970-01-01T02:36:23.000Z</time></trkpt><trkpt lat="14.772245" lon="101.169378"><ele>199.5</ele><time>1970-01-01T02:36:28.000Z</time></trkpt><trkpt lat="14.772256" lon="101.169409"><ele>200.3</ele><time>1970-01-01T02:36:33.000Z</time></trkpt><trkpt lat="14.772241" lon="101.169434"><ele>200.7</ele><time>1970-01-01T02:36:37.000Z</time></trkpt><trkpt lat="14.772221" lon="101.169462"><ele>201.1</ele><time>1970-01-01T02:36:43.000Z</time></trkpt><trkpt lat="14.772206" lon="101.169494"><ele>201.4</ele><time>1970-01-01T02:36:47.000Z</time></trkpt><trkpt lat="14.772185" lon="101.169511"><ele>201.4</ele><time>1970-01-01T02:36:52.000Z</time></trkpt><trkpt lat="14.772131" lon="101.169543"><ele>201.6</ele><time>1970-01-01T02:37:27.000Z</time></trkpt><trkpt lat="14.772101" lon="101.169558"><ele>202</ele><time>1970-01-01T02:37:30.000Z</time></trkpt><trkpt lat="14.772076" lon="101.169575"><ele>202.3</ele><time>1970-01-01T02:37:36.000Z</time></trkpt><trkpt lat="14.772048" lon="101.169591"><ele>202.4</ele><time>1970-01-01T02:37:42.000Z</time></trkpt><trkpt lat="14.772019" lon="101.169617"><ele>202.4</ele><time>1970-01-01T02:37:45.000Z</time></trkpt><trkpt lat="14.771993" lon="101.169642"><ele>202.3</ele><time>1970-01-01T02:37:47.000Z</time></trkpt><trkpt lat="14.771968" lon="101.169662"><ele>201.8</ele><time>1970-01-01T02:37:49.000Z</time></trkpt><trkpt lat="14.771929" lon="101.169676"><ele>201.2</ele><time>1970-01-01T02:37:51.000Z</time></trkpt><trkpt lat="14.771902" lon="101.169683"><ele>200.9</ele><time>1970-01-01T02:37:53.000Z</time></trkpt><trkpt lat="14.77188" lon="101.169698"><ele>200.7</ele><time>1970-01-01T02:37:55.000Z</time></trkpt><trkpt lat="14.771851" lon="101.169741"><ele>200.4</ele><time>1970-01-01T02:37:57.000Z</time></trkpt><trkpt lat="14.771823" lon="101.169773"><ele>199.7</ele><time>1970-01-01T02:37:59.000Z</time></trkpt><trkpt lat="14.771799" lon="101.169797"><ele>199.2</ele><time>1970-01-01T02:38:05.000Z</time></trkpt><trkpt lat="14.771761" lon="101.169821"><ele>199.2</ele><time>1970-01-01T02:38:08.000Z</time></trkpt><trkpt lat="14.771737" lon="101.16984"><ele>199.5</ele><time>1970-01-01T02:38:09.000Z</time></trkpt><trkpt lat="14.771712" lon="101.16986"><ele>199.7</ele><time>1970-01-01T02:38:10.000Z</time></trkpt><trkpt lat="14.771684" lon="101.169885"><ele>199.5</ele><time>1970-01-01T02:38:12.000Z</time></trkpt><trkpt lat="14.771649" lon="101.169896"><ele>199.4</ele><time>1970-01-01T02:38:16.000Z</time></trkpt><trkpt lat="14.771624" lon="101.16991"><ele>199.8</ele><time>1970-01-01T02:38:26.000Z</time></trkpt><trkpt lat="14.771595" lon="101.169908"><ele>200.7</ele><time>1970-01-01T02:38:29.000Z</time></trkpt><trkpt lat="14.771563" lon="101.169915"><ele>201.4</ele><time>1970-01-01T02:38:36.000Z</time></trkpt><trkpt lat="14.771534" lon="101.169912"><ele>201.5</ele><time>1970-01-01T02:38:40.000Z</time></trkpt><trkpt lat="14.771504" lon="101.169914"><ele>201.5</ele><time>1970-01-01T02:38:44.000Z</time></trkpt><trkpt lat="14.771476" lon="101.169923"><ele>201.7</ele><time>1970-01-01T02:38:59.000Z</time></trkpt><trkpt lat="14.771446" lon="101.169914"><ele>201.9</ele><time>1970-01-01T02:39:06.000Z</time></trkpt><trkpt lat="14.771413" lon="101.169914"><ele>202.9</ele><time>1970-01-01T02:39:11.000Z</time></trkpt><trkpt lat="14.77138" lon="101.169916"><ele>203.9</ele><time>1970-01-01T02:39:15.000Z</time></trkpt><trkpt lat="14.771351" lon="101.169917"><ele>204.2</ele><time>1970-01-01T02:39:18.000Z</time></trkpt><trkpt lat="14.771318" lon="101.169921"><ele>204.6</ele><time>1970-01-01T02:39:21.000Z</time></trkpt><trkpt lat="14.771288" lon="101.169927"><ele>205</ele><time>1970-01-01T02:39:25.000Z</time></trkpt><trkpt lat="14.771259" lon="101.169944"><ele>205.7</ele><time>1970-01-01T02:39:29.000Z</time></trkpt><trkpt lat="14.771231" lon="101.169952"><ele>206.4</ele><time>1970-01-01T02:39:34.000Z</time></trkpt><trkpt lat="14.771203" lon="101.169964"><ele>206.7</ele><time>1970-01-01T02:39:51.000Z</time></trkpt><trkpt lat="14.771172" lon="101.169971"><ele>207</ele><time>1970-01-01T02:39:54.000Z</time></trkpt><trkpt lat="14.771141" lon="101.169974"><ele>207.1</ele><time>1970-01-01T02:39:57.000Z</time></trkpt><trkpt lat="14.771113" lon="101.169978"><ele>206.9</ele><time>1970-01-01T02:40:00.000Z</time></trkpt><trkpt lat="14.771081" lon="101.169974"><ele>206.6</ele><time>1970-01-01T02:40:03.000Z</time></trkpt><trkpt lat="14.771049" lon="101.169974"><ele>206.7</ele><time>1970-01-01T02:40:06.000Z</time></trkpt><trkpt lat="14.77102" lon="101.169974"><ele>206.8</ele><time>1970-01-01T02:40:10.000Z</time></trkpt><trkpt lat="14.770989" lon="101.169974"><ele>206.6</ele><time>1970-01-01T02:40:14.000Z</time></trkpt><trkpt lat="14.770956" lon="101.169973"><ele>206.2</ele><time>1970-01-01T02:40:19.000Z</time></trkpt><trkpt lat="14.770921" lon="101.169968"><ele>206</ele><time>1970-01-01T02:40:22.000Z</time></trkpt><trkpt lat="14.770891" lon="101.169962"><ele>206.2</ele><time>1970-01-01T02:40:26.000Z</time></trkpt><trkpt lat="14.770858" lon="101.169959"><ele>206.5</ele><time>1970-01-01T02:40:35.000Z</time></trkpt><trkpt lat="14.770845" lon="101.169933"><ele>206.8</ele><time>1970-01-01T02:40:43.000Z</time></trkpt><trkpt lat="14.770784" lon="101.169912"><ele>207.6</ele><time>1970-01-01T02:41:11.000Z</time></trkpt><trkpt lat="14.770756" lon="101.169904"><ele>207.8</ele><time>1970-01-01T02:41:17.000Z</time></trkpt><trkpt lat="14.770724" lon="101.169908"><ele>208.2</ele><time>1970-01-01T02:41:20.000Z</time></trkpt><trkpt lat="14.770696" lon="101.169914"><ele>208.7</ele><time>1970-01-01T02:41:23.000Z</time></trkpt><trkpt lat="14.770669" lon="101.169906"><ele>209.3</ele><time>1970-01-01T02:41:29.000Z</time></trkpt><trkpt lat="14.770642" lon="101.169898"><ele>209.9</ele><time>1970-01-01T02:41:33.000Z</time></trkpt><trkpt lat="14.770612" lon="101.169899"><ele>210.5</ele><time>1970-01-01T02:41:39.000Z</time></trkpt><trkpt lat="14.770583" lon="101.169902"><ele>211.2</ele><time>1970-01-01T02:41:45.000Z</time></trkpt><trkpt lat="14.770556" lon="101.169906"><ele>211.8</ele><time>1970-01-01T02:41:55.000Z</time></trkpt><trkpt lat="14.770556" lon="101.169869"><ele>212.6</ele><time>1970-01-01T02:42:00.000Z</time></trkpt><trkpt lat="14.770568" lon="101.16984"><ele>213.8</ele><time>1970-01-01T02:42:01.000Z</time></trkpt><trkpt lat="14.770576" lon="101.169811"><ele>214.9</ele><time>1970-01-01T02:42:02.000Z</time></trkpt><trkpt lat="14.77054" lon="101.169856"><ele>216.5</ele><time>1970-01-01T02:42:07.000Z</time></trkpt><trkpt lat="14.77052" lon="101.16988"><ele>217.4</ele><time>1970-01-01T02:42:09.000Z</time></trkpt><trkpt lat="14.770503" lon="101.169903"><ele>218.3</ele><time>1970-01-01T02:42:11.000Z</time></trkpt><trkpt lat="14.77048" lon="101.169928"><ele>220.1</ele><time>1970-01-01T02:42:16.000Z</time></trkpt><trkpt lat="14.770451" lon="101.169941"><ele>221.8</ele><time>1970-01-01T02:42:20.000Z</time></trkpt><trkpt lat="14.770428" lon="101.169954"><ele>223.2</ele><time>1970-01-01T02:42:23.000Z</time></trkpt><trkpt lat="14.770405" lon="101.16997"><ele>224.7</ele><time>1970-01-01T02:42:26.000Z</time></trkpt><trkpt lat="14.770381" lon="101.169988"><ele>226.4</ele><time>1970-01-01T02:42:29.000Z</time></trkpt><trkpt lat="14.770357" lon="101.170001"><ele>227.9</ele><time>1970-01-01T02:42:34.000Z</time></trkpt><trkpt lat="14.770328" lon="101.170008"><ele>229.5</ele><time>1970-01-01T02:42:37.000Z</time></trkpt><trkpt lat="14.770302" lon="101.170019"><ele>231</ele><time>1970-01-01T02:42:46.000Z</time></trkpt><trkpt lat="14.770277" lon="101.170036"><ele>232.6</ele><time>1970-01-01T02:42:50.000Z</time></trkpt><trkpt lat="14.770249" lon="101.170048"><ele>233.3</ele><time>1970-01-01T02:42:54.000Z</time></trkpt><trkpt lat="14.770221" lon="101.170056"><ele>234.1</ele><time>1970-01-01T02:42:58.000Z</time></trkpt><trkpt lat="14.770195" lon="101.17008"><ele>235.1</ele><time>1970-01-01T02:43:06.000Z</time></trkpt><trkpt lat="14.770172" lon="101.170105"><ele>236.3</ele><time>1970-01-01T02:43:11.000Z</time></trkpt><trkpt lat="14.770147" lon="101.170129"><ele>237.4</ele><time>1970-01-01T02:43:18.000Z</time></trkpt><trkpt lat="14.770128" lon="101.170159"><ele>238.3</ele><time>1970-01-01T02:43:22.000Z</time></trkpt><trkpt lat="14.770099" lon="101.170169"><ele>238.7</ele><time>1970-01-01T02:43:30.000Z</time></trkpt><trkpt lat="14.770062" lon="101.170253"><ele>239.5</ele><time>1970-01-01T02:45:40.000Z</time></trkpt><trkpt lat="14.770043" lon="101.170278"><ele>239.6</ele><time>1970-01-01T02:45:42.000Z</time></trkpt><trkpt lat="14.77003" lon="101.170303"><ele>239.8</ele><time>1970-01-01T02:45:44.000Z</time></trkpt><trkpt lat="14.770009" lon="101.170349"><ele>240.1</ele><time>1970-01-01T02:45:46.000Z</time></trkpt><trkpt lat="14.769995" lon="101.170377"><ele>240.2</ele><time>1970-01-01T02:45:47.000Z</time></trkpt><trkpt lat="14.769979" lon="101.170404"><ele>240.3</ele><time>1970-01-01T02:45:48.000Z</time></trkpt><trkpt lat="14.769956" lon="101.170433"><ele>239.6</ele><time>1970-01-01T02:45:49.000Z</time></trkpt><trkpt lat="14.769931" lon="101.170461"><ele>238.8</ele><time>1970-01-01T02:45:50.000Z</time></trkpt><trkpt lat="14.769909" lon="101.170479"><ele>238.6</ele><time>1970-01-01T02:45:51.000Z</time></trkpt><trkpt lat="14.76987" lon="101.170511"><ele>238.2</ele><time>1970-01-01T02:45:53.000Z</time></trkpt><trkpt lat="14.769842" lon="101.170544"><ele>237.9</ele><time>1970-01-01T02:45:55.000Z</time></trkpt><trkpt lat="14.769812" lon="101.17058"><ele>237.5</ele><time>1970-01-01T02:45:57.000Z</time></trkpt><trkpt lat="14.769797" lon="101.170618"><ele>236.9</ele><time>1970-01-01T02:45:59.000Z</time></trkpt><trkpt lat="14.769769" lon="101.170659"><ele>236.8</ele><time>1970-01-01T02:46:01.000Z</time></trkpt><trkpt lat="14.769737" lon="101.170698"><ele>238</ele><time>1970-01-01T02:46:03.000Z</time></trkpt><trkpt lat="14.769705" lon="101.170722"><ele>238.4</ele><time>1970-01-01T02:46:05.000Z</time></trkpt><trkpt lat="14.769673" lon="101.170737"><ele>238.7</ele><time>1970-01-01T02:46:07.000Z</time></trkpt><trkpt lat="14.769639" lon="101.170751"><ele>238.9</ele><time>1970-01-01T02:46:09.000Z</time></trkpt><trkpt lat="14.769613" lon="101.170771"><ele>239.1</ele><time>1970-01-01T02:46:10.000Z</time></trkpt><trkpt lat="14.769586" lon="101.170793"><ele>239.6</ele><time>1970-01-01T02:46:12.000Z</time></trkpt><trkpt lat="14.769567" lon="101.170821"><ele>240.4</ele><time>1970-01-01T02:46:15.000Z</time></trkpt><trkpt lat="14.769539" lon="101.170844"><ele>241</ele><time>1970-01-01T02:46:19.000Z</time></trkpt><trkpt lat="14.769508" lon="101.170874"><ele>240.3</ele><time>1970-01-01T02:46:22.000Z</time></trkpt><trkpt lat="14.76948" lon="101.170907"><ele>240</ele><time>1970-01-01T02:46:25.000Z</time></trkpt><trkpt lat="14.769465" lon="101.170942"><ele>240</ele><time>1970-01-01T02:46:27.000Z</time></trkpt><trkpt lat="14.769447" lon="101.170966"><ele>240.1</ele><time>1970-01-01T02:46:29.000Z</time></trkpt><trkpt lat="14.769412" lon="101.170983"><ele>240.7</ele><time>1970-01-01T02:46:31.000Z</time></trkpt><trkpt lat="14.769372" lon="101.170988"><ele>241.2</ele><time>1970-01-01T02:46:33.000Z</time></trkpt><trkpt lat="14.769346" lon="101.171"><ele>241.7</ele><time>1970-01-01T02:46:36.000Z</time></trkpt><trkpt lat="14.769316" lon="101.171007"><ele>242.2</ele><time>1970-01-01T02:46:40.000Z</time></trkpt><trkpt lat="14.76929" lon="101.17102"><ele>242.7</ele><time>1970-01-01T02:46:44.000Z</time></trkpt><trkpt lat="14.769265" lon="101.171035"><ele>242.5</ele><time>1970-01-01T02:46:46.000Z</time></trkpt><trkpt lat="14.769238" lon="101.171058"><ele>242.2</ele><time>1970-01-01T02:46:50.000Z</time></trkpt><trkpt lat="14.769232" lon="101.171091"><ele>242</ele><time>1970-01-01T02:46:54.000Z</time></trkpt><trkpt lat="14.76921" lon="101.171118"><ele>242.2</ele><time>1970-01-01T02:46:59.000Z</time></trkpt><trkpt lat="14.76917" lon="101.171163"><ele>242.2</ele><time>1970-01-01T02:47:01.000Z</time></trkpt><trkpt lat="14.769148" lon="101.171189"><ele>242</ele><time>1970-01-01T02:47:02.000Z</time></trkpt><trkpt lat="14.769129" lon="101.171215"><ele>241.8</ele><time>1970-01-01T02:47:03.000Z</time></trkpt><trkpt lat="14.769109" lon="101.171243"><ele>241.9</ele><time>1970-01-01T02:47:04.000Z</time></trkpt><trkpt lat="14.769092" lon="101.171268"><ele>242</ele><time>1970-01-01T02:47:05.000Z</time></trkpt><trkpt lat="14.76907" lon="101.171305"><ele>242.3</ele><time>1970-01-01T02:47:07.000Z</time></trkpt><trkpt lat="14.769054" lon="101.171333"><ele>242.4</ele><time>1970-01-01T02:47:09.000Z</time></trkpt><trkpt lat="14.769034" lon="101.17136"><ele>242.7</ele><time>1970-01-01T02:47:11.000Z</time></trkpt><trkpt lat="14.769014" lon="101.171391"><ele>242.4</ele><time>1970-01-01T02:47:13.000Z</time></trkpt><trkpt lat="14.768987" lon="101.171428"><ele>242</ele><time>1970-01-01T02:47:15.000Z</time></trkpt><trkpt lat="14.768956" lon="101.171465"><ele>242.1</ele><time>1970-01-01T02:47:17.000Z</time></trkpt><trkpt lat="14.768939" lon="101.171502"><ele>242.2</ele><time>1970-01-01T02:47:19.000Z</time></trkpt><trkpt lat="14.768927" lon="101.171548"><ele>242.1</ele><time>1970-01-01T02:47:21.000Z</time></trkpt><trkpt lat="14.768916" lon="101.171593"><ele>242.1</ele><time>1970-01-01T02:47:23.000Z</time></trkpt><trkpt lat="14.768897" lon="101.171637"><ele>241.9</ele><time>1970-01-01T02:47:25.000Z</time></trkpt><trkpt lat="14.768884" lon="101.171669"><ele>242</ele><time>1970-01-01T02:47:26.000Z</time></trkpt><trkpt lat="14.768873" lon="101.1717"><ele>242.1</ele><time>1970-01-01T02:47:27.000Z</time></trkpt><trkpt lat="14.76887" lon="101.171729"><ele>242.2</ele><time>1970-01-01T02:47:28.000Z</time></trkpt><trkpt lat="14.768867" lon="101.171773"><ele>242.7</ele><time>1970-01-01T02:47:30.000Z</time></trkpt><trkpt lat="14.768862" lon="101.171816"><ele>243.1</ele><time>1970-01-01T02:47:32.000Z</time></trkpt><trkpt lat="14.768843" lon="101.171867"><ele>243.4</ele><time>1970-01-01T02:47:34.000Z</time></trkpt><trkpt lat="14.768829" lon="101.171905"><ele>243.5</ele><time>1970-01-01T02:47:36.000Z</time></trkpt><trkpt lat="14.768821" lon="101.171939"><ele>243.7</ele><time>1970-01-01T02:47:38.000Z</time></trkpt><trkpt lat="14.768805" lon="101.171974"><ele>244</ele><time>1970-01-01T02:47:40.000Z</time></trkpt><trkpt lat="14.768787" lon="101.172005"><ele>244.4</ele><time>1970-01-01T02:47:42.000Z</time></trkpt><trkpt lat="14.768777" lon="101.172046"><ele>244.8</ele><time>1970-01-01T02:47:44.000Z</time></trkpt><trkpt lat="14.768775" lon="101.172074"><ele>245.2</ele><time>1970-01-01T02:47:47.000Z</time></trkpt><trkpt lat="14.76877" lon="101.172106"><ele>245.8</ele><time>1970-01-01T02:47:54.000Z</time></trkpt><trkpt lat="14.768757" lon="101.172142"><ele>246.4</ele><time>1970-01-01T02:47:57.000Z</time></trkpt><trkpt lat="14.768747" lon="101.172175"><ele>246.8</ele><time>1970-01-01T02:47:59.000Z</time></trkpt><trkpt lat="14.768732" lon="101.172212"><ele>246.7</ele><time>1970-01-01T02:48:02.000Z</time></trkpt><trkpt lat="14.768718" lon="101.172236"><ele>246.5</ele><time>1970-01-01T02:48:04.000Z</time></trkpt><trkpt lat="14.76869" lon="101.172281"><ele>246.3</ele><time>1970-01-01T02:48:06.000Z</time></trkpt><trkpt lat="14.768664" lon="101.172327"><ele>246.4</ele><time>1970-01-01T02:48:08.000Z</time></trkpt><trkpt lat="14.768649" lon="101.172357"><ele>246.3</ele><time>1970-01-01T02:48:09.000Z</time></trkpt><trkpt lat="14.768632" lon="101.172384"><ele>246.3</ele><time>1970-01-01T02:48:10.000Z</time></trkpt><trkpt lat="14.768615" lon="101.172407"><ele>246.3</ele><time>1970-01-01T02:48:11.000Z</time></trkpt><trkpt lat="14.768578" lon="101.172437"><ele>246.4</ele><time>1970-01-01T02:48:13.000Z</time></trkpt><trkpt lat="14.768548" lon="101.172457"><ele>246.5</ele><time>1970-01-01T02:48:15.000Z</time></trkpt><trkpt lat="14.768523" lon="101.172496"><ele>246.6</ele><time>1970-01-01T02:48:17.000Z</time></trkpt><trkpt lat="14.768508" lon="101.172544"><ele>246.7</ele><time>1970-01-01T02:48:19.000Z</time></trkpt><trkpt lat="14.768492" lon="101.17258"><ele>246.8</ele><time>1970-01-01T02:48:21.000Z</time></trkpt><trkpt lat="14.768467" lon="101.172607"><ele>246.9</ele><time>1970-01-01T02:48:23.000Z</time></trkpt><trkpt lat="14.76844" lon="101.172614"><ele>246.9</ele><time>1970-01-01T02:48:25.000Z</time></trkpt><trkpt lat="14.768411" lon="101.172618"><ele>247</ele><time>1970-01-01T02:48:27.000Z</time></trkpt><trkpt lat="14.768361" lon="101.172624"><ele>247</ele><time>1970-01-01T02:48:29.000Z</time></trkpt><trkpt lat="14.768315" lon="101.172623"><ele>247</ele><time>1970-01-01T02:48:31.000Z</time></trkpt><trkpt lat="14.768274" lon="101.172621"><ele>247.1</ele><time>1970-01-01T02:48:33.000Z</time></trkpt><trkpt lat="14.768239" lon="101.172623"><ele>247.2</ele><time>1970-01-01T02:48:35.000Z</time></trkpt><trkpt lat="14.768204" lon="101.172647"><ele>247.4</ele><time>1970-01-01T02:48:37.000Z</time></trkpt><trkpt lat="14.768179" lon="101.172669"><ele>247.5</ele><time>1970-01-01T02:48:39.000Z</time></trkpt><trkpt lat="14.768153" lon="101.172687"><ele>247.6</ele><time>1970-01-01T02:48:41.000Z</time></trkpt><trkpt lat="14.768123" lon="101.172699"><ele>247.8</ele><time>1970-01-01T02:48:43.000Z</time></trkpt><trkpt lat="14.768088" lon="101.172708"><ele>248</ele><time>1970-01-01T02:48:46.000Z</time></trkpt><trkpt lat="14.768055" lon="101.172725"><ele>248.2</ele><time>1970-01-01T02:48:49.000Z</time></trkpt><trkpt lat="14.768029" lon="101.172743"><ele>248.3</ele><time>1970-01-01T02:48:51.000Z</time></trkpt><trkpt lat="14.768004" lon="101.172781"><ele>248.7</ele><time>1970-01-01T02:48:53.000Z</time></trkpt><trkpt lat="14.767981" lon="101.172802"><ele>249</ele><time>1970-01-01T02:48:55.000Z</time></trkpt><trkpt lat="14.767945" lon="101.172805"><ele>249.2</ele><time>1970-01-01T02:48:57.000Z</time></trkpt><trkpt lat="14.767916" lon="101.172792"><ele>249.4</ele><time>1970-01-01T02:48:59.000Z</time></trkpt><trkpt lat="14.767883" lon="101.17278"><ele>249.6</ele><time>1970-01-01T02:49:02.000Z</time></trkpt><trkpt lat="14.767841" lon="101.172783"><ele>249.8</ele><time>1970-01-01T02:49:05.000Z</time></trkpt><trkpt lat="14.767809" lon="101.172785"><ele>250</ele><time>1970-01-01T02:49:07.000Z</time></trkpt><trkpt lat="14.767778" lon="101.172779"><ele>250.2</ele><time>1970-01-01T02:49:09.000Z</time></trkpt><trkpt lat="14.767749" lon="101.17277"><ele>250.4</ele><time>1970-01-01T02:49:11.000Z</time></trkpt><trkpt lat="14.767714" lon="101.172772"><ele>250.5</ele><time>1970-01-01T02:49:14.000Z</time></trkpt><trkpt lat="14.767682" lon="101.172761"><ele>250.7</ele><time>1970-01-01T02:49:16.000Z</time></trkpt><trkpt lat="14.767655" lon="101.172746"><ele>250.9</ele><time>1970-01-01T02:49:18.000Z</time></trkpt><trkpt lat="14.76762" lon="101.172733"><ele>251.2</ele><time>1970-01-01T02:49:21.000Z</time></trkpt><trkpt lat="14.767592" lon="101.172719"><ele>251.5</ele><time>1970-01-01T02:49:24.000Z</time></trkpt><trkpt lat="14.767553" lon="101.172713"><ele>251.8</ele><time>1970-01-01T02:49:26.000Z</time></trkpt><trkpt lat="14.76751" lon="101.172704"><ele>252.1</ele><time>1970-01-01T02:49:28.000Z</time></trkpt><trkpt lat="14.767469" lon="101.172702"><ele>252.4</ele><time>1970-01-01T02:49:30.000Z</time></trkpt><trkpt lat="14.767429" lon="101.172695"><ele>252.6</ele><time>1970-01-01T02:49:33.000Z</time></trkpt><trkpt lat="14.767399" lon="101.172682"><ele>252.7</ele><time>1970-01-01T02:49:35.000Z</time></trkpt><trkpt lat="14.767373" lon="101.172671"><ele>253.1</ele><time>1970-01-01T02:49:37.000Z</time></trkpt><trkpt lat="14.767342" lon="101.172669"><ele>253.5</ele><time>1970-01-01T02:49:39.000Z</time></trkpt><trkpt lat="14.767312" lon="101.172667"><ele>253.7</ele><time>1970-01-01T02:49:41.000Z</time></trkpt><trkpt lat="14.767275" lon="101.172672"><ele>253.8</ele><time>1970-01-01T02:49:43.000Z</time></trkpt><trkpt lat="14.767238" lon="101.172685"><ele>253.9</ele><time>1970-01-01T02:49:45.000Z</time></trkpt><trkpt lat="14.767208" lon="101.172689"><ele>254.1</ele><time>1970-01-01T02:49:46.000Z</time></trkpt><trkpt lat="14.767172" lon="101.172691"><ele>254.4</ele><time>1970-01-01T02:49:47.000Z</time></trkpt><trkpt lat="14.767142" lon="101.172691"><ele>254.6</ele><time>1970-01-01T02:49:48.000Z</time></trkpt><trkpt lat="14.767102" lon="101.172696"><ele>254.8</ele><time>1970-01-01T02:49:50.000Z</time></trkpt><trkpt lat="14.767081" lon="101.172676"><ele>254.9</ele><time>1970-01-01T02:49:56.000Z</time></trkpt><trkpt lat="14.76705" lon="101.172662"><ele>255</ele><time>1970-01-01T02:50:50.000Z</time></trkpt><trkpt lat="14.767021" lon="101.172677"><ele>255</ele><time>1970-01-01T02:50:53.000Z</time></trkpt><trkpt lat="14.766998" lon="101.172691"><ele>255</ele><time>1970-01-01T02:50:55.000Z</time></trkpt><trkpt lat="14.766966" lon="101.172706"><ele>254.9</ele><time>1970-01-01T02:50:58.000Z</time></trkpt><trkpt lat="14.766933" lon="101.172724"><ele>254.9</ele><time>1970-01-01T02:51:00.000Z</time></trkpt><trkpt lat="14.766912" lon="101.172749"><ele>255</ele><time>1970-01-01T02:51:02.000Z</time></trkpt><trkpt lat="14.766886" lon="101.172764"><ele>255.3</ele><time>1970-01-01T02:51:04.000Z</time></trkpt><trkpt lat="14.766844" lon="101.172793"><ele>256</ele><time>1970-01-01T02:51:06.000Z</time></trkpt><trkpt lat="14.766818" lon="101.172813"><ele>256.6</ele><time>1970-01-01T02:51:07.000Z</time></trkpt><trkpt lat="14.766795" lon="101.172831"><ele>257.3</ele><time>1970-01-01T02:51:08.000Z</time></trkpt><trkpt lat="14.76676" lon="101.172861"><ele>259.2</ele><time>1970-01-01T02:51:10.000Z</time></trkpt><trkpt lat="14.766738" lon="101.172882"><ele>260.5</ele><time>1970-01-01T02:51:11.000Z</time></trkpt><trkpt lat="14.766705" lon="101.172913"><ele>262</ele><time>1970-01-01T02:51:13.000Z</time></trkpt><trkpt lat="14.766688" lon="101.172938"><ele>262.9</ele><time>1970-01-01T02:51:15.000Z</time></trkpt><trkpt lat="14.766669" lon="101.17297"><ele>264.3</ele><time>1970-01-01T02:51:17.000Z</time></trkpt><trkpt lat="14.766645" lon="101.173015"><ele>266.6</ele><time>1970-01-01T02:51:19.000Z</time></trkpt><trkpt lat="14.76663" lon="101.17304"><ele>267.8</ele><time>1970-01-01T02:51:20.000Z</time></trkpt><trkpt lat="14.766615" lon="101.173068"><ele>268.9</ele><time>1970-01-01T02:51:21.000Z</time></trkpt><trkpt lat="14.766599" lon="101.173114"><ele>270.5</ele><time>1970-01-01T02:51:23.000Z</time></trkpt><trkpt lat="14.766587" lon="101.173143"><ele>271.2</ele><time>1970-01-01T02:51:25.000Z</time></trkpt><trkpt lat="14.76657" lon="101.173184"><ele>272.1</ele><time>1970-01-01T02:51:27.000Z</time></trkpt><trkpt lat="14.76654" lon="101.173231"><ele>272.8</ele><time>1970-01-01T02:51:29.000Z</time></trkpt><trkpt lat="14.76651" lon="101.17327"><ele>273.3</ele><time>1970-01-01T02:51:31.000Z</time></trkpt><trkpt lat="14.766486" lon="101.173316"><ele>273.2</ele><time>1970-01-01T02:51:33.000Z</time></trkpt><trkpt lat="14.766463" lon="101.173364"><ele>272.7</ele><time>1970-01-01T02:51:35.000Z</time></trkpt><trkpt lat="14.766434" lon="101.173395"><ele>272.1</ele><time>1970-01-01T02:51:37.000Z</time></trkpt><trkpt lat="14.766417" lon="101.173418"><ele>271.9</ele><time>1970-01-01T02:51:38.000Z</time></trkpt><trkpt lat="14.7664" lon="101.173446"><ele>271.6</ele><time>1970-01-01T02:51:39.000Z</time></trkpt><trkpt lat="14.766386" lon="101.173474"><ele>271.3</ele><time>1970-01-01T02:51:40.000Z</time></trkpt><trkpt lat="14.766366" lon="101.173522"><ele>270.3</ele><time>1970-01-01T02:51:42.000Z</time></trkpt><trkpt lat="14.766353" lon="101.173568"><ele>269.3</ele><time>1970-01-01T02:51:44.000Z</time></trkpt><trkpt lat="14.766327" lon="101.173609"><ele>268.4</ele><time>1970-01-01T02:51:46.000Z</time></trkpt><trkpt lat="14.766307" lon="101.173637"><ele>267.9</ele><time>1970-01-01T02:51:47.000Z</time></trkpt><trkpt lat="14.766283" lon="101.173669"><ele>267.7</ele><time>1970-01-01T02:51:48.000Z</time></trkpt><trkpt lat="14.766261" lon="101.1737"><ele>267.5</ele><time>1970-01-01T02:51:49.000Z</time></trkpt><trkpt lat="14.766244" lon="101.173722"><ele>267.6</ele><time>1970-01-01T02:51:50.000Z</time></trkpt><trkpt lat="14.766209" lon="101.173762"><ele>267.9</ele><time>1970-01-01T02:51:52.000Z</time></trkpt><trkpt lat="14.766182" lon="101.173802"><ele>268.2</ele><time>1970-01-01T02:51:54.000Z</time></trkpt><trkpt lat="14.766171" lon="101.173847"><ele>268.3</ele><time>1970-01-01T02:51:56.000Z</time></trkpt><trkpt lat="14.766176" lon="101.173899"><ele>268.5</ele><time>1970-01-01T02:51:58.000Z</time></trkpt><trkpt lat="14.766169" lon="101.173927"><ele>268.7</ele><time>1970-01-01T02:51:59.000Z</time></trkpt><trkpt lat="14.766151" lon="101.173969"><ele>269.1</ele><time>1970-01-01T02:52:01.000Z</time></trkpt><trkpt lat="14.766131" lon="101.174005"><ele>269.5</ele><time>1970-01-01T02:52:03.000Z</time></trkpt><trkpt lat="14.766102" lon="101.174041"><ele>270</ele><time>1970-01-01T02:52:05.000Z</time></trkpt><trkpt lat="14.766071" lon="101.174068"><ele>269.9</ele><time>1970-01-01T02:52:09.000Z</time></trkpt><trkpt lat="14.766035" lon="101.174103"><ele>269.7</ele><time>1970-01-01T02:52:11.000Z</time></trkpt><trkpt lat="14.765994" lon="101.174138"><ele>269.9</ele><time>1970-01-01T02:52:13.000Z</time></trkpt><trkpt lat="14.765971" lon="101.174159"><ele>270.1</ele><time>1970-01-01T02:52:14.000Z</time></trkpt><trkpt lat="14.765944" lon="101.174182"><ele>270.1</ele><time>1970-01-01T02:52:15.000Z</time></trkpt><trkpt lat="14.765923" lon="101.174199"><ele>270.2</ele><time>1970-01-01T02:52:16.000Z</time></trkpt><trkpt lat="14.765893" lon="101.174234"><ele>270.3</ele><time>1970-01-01T02:52:18.000Z</time></trkpt><trkpt lat="14.76587" lon="101.174266"><ele>270.3</ele><time>1970-01-01T02:52:20.000Z</time></trkpt><trkpt lat="14.765836" lon="101.174301"><ele>270.5</ele><time>1970-01-01T02:52:22.000Z</time></trkpt><trkpt lat="14.765816" lon="101.174324"><ele>270.7</ele><time>1970-01-01T02:52:23.000Z</time></trkpt><trkpt lat="14.765796" lon="101.174344"><ele>271</ele><time>1970-01-01T02:52:24.000Z</time></trkpt><trkpt lat="14.765774" lon="101.174373"><ele>271.1</ele><time>1970-01-01T02:52:26.000Z</time></trkpt><trkpt lat="14.765762" lon="101.174404"><ele>271.1</ele><time>1970-01-01T02:52:29.000Z</time></trkpt><trkpt lat="14.765737" lon="101.174423"><ele>271.2</ele><time>1970-01-01T02:52:33.000Z</time></trkpt><trkpt lat="14.765706" lon="101.174432"><ele>271.1</ele><time>1970-01-01T02:52:37.000Z</time></trkpt><trkpt lat="14.765681" lon="101.174444"><ele>271.1</ele><time>1970-01-01T02:52:40.000Z</time></trkpt><trkpt lat="14.765648" lon="101.17445"><ele>271</ele><time>1970-01-01T02:52:42.000Z</time></trkpt><trkpt lat="14.765609" lon="101.174462"><ele>270.7</ele><time>1970-01-01T02:52:44.000Z</time></trkpt><trkpt lat="14.765574" lon="101.174481"><ele>270.5</ele><time>1970-01-01T02:52:46.000Z</time></trkpt><trkpt lat="14.76554" lon="101.174508"><ele>270.9</ele><time>1970-01-01T02:52:48.000Z</time></trkpt><trkpt lat="14.76552" lon="101.174526"><ele>271.2</ele><time>1970-01-01T02:52:50.000Z</time></trkpt><trkpt lat="14.76549" lon="101.17454"><ele>271.3</ele><time>1970-01-01T02:52:52.000Z</time></trkpt><trkpt lat="14.765461" lon="101.174548"><ele>271.3</ele><time>1970-01-01T02:52:54.000Z</time></trkpt><trkpt lat="14.76543" lon="101.174563"><ele>271.2</ele><time>1970-01-01T02:52:56.000Z</time></trkpt><trkpt lat="14.765395" lon="101.17458"><ele>271.7</ele><time>1970-01-01T02:52:59.000Z</time></trkpt><trkpt lat="14.765361" lon="101.174592"><ele>272.2</ele><time>1970-01-01T02:53:01.000Z</time></trkpt><trkpt lat="14.765324" lon="101.174604"><ele>272.1</ele><time>1970-01-01T02:53:03.000Z</time></trkpt><trkpt lat="14.765295" lon="101.174612"><ele>271.8</ele><time>1970-01-01T02:53:05.000Z</time></trkpt><trkpt lat="14.765258" lon="101.174628"><ele>271.2</ele><time>1970-01-01T02:53:08.000Z</time></trkpt><trkpt lat="14.765229" lon="101.174635"><ele>270.6</ele><time>1970-01-01T02:53:10.000Z</time></trkpt><trkpt lat="14.765182" lon="101.174646"><ele>269.6</ele><time>1970-01-01T02:53:12.000Z</time></trkpt><trkpt lat="14.765142" lon="101.174679"><ele>269.5</ele><time>1970-01-01T02:53:14.000Z</time></trkpt><trkpt lat="14.765118" lon="101.174722"><ele>268.9</ele><time>1970-01-01T02:53:16.000Z</time></trkpt><trkpt lat="14.765107" lon="101.174751"><ele>268.4</ele><time>1970-01-01T02:53:17.000Z</time></trkpt><trkpt lat="14.765099" lon="101.174781"><ele>268</ele><time>1970-01-01T02:53:18.000Z</time></trkpt><trkpt lat="14.765092" lon="101.17481"><ele>268</ele><time>1970-01-01T02:53:19.000Z</time></trkpt><trkpt lat="14.76508" lon="101.174862"><ele>268</ele><time>1970-01-01T02:53:21.000Z</time></trkpt><trkpt lat="14.765072" lon="101.174907"><ele>268.2</ele><time>1970-01-01T02:53:23.000Z</time></trkpt><trkpt lat="14.765063" lon="101.174942"><ele>268.5</ele><time>1970-01-01T02:53:25.000Z</time></trkpt><trkpt lat="14.765049" lon="101.174972"><ele>268.9</ele><time>1970-01-01T02:53:27.000Z</time></trkpt><trkpt lat="14.765038" lon="101.175003"><ele>269.3</ele><time>1970-01-01T02:53:29.000Z</time></trkpt><trkpt lat="14.765033" lon="101.175043"><ele>269.7</ele><time>1970-01-01T02:53:33.000Z</time></trkpt><trkpt lat="14.765025" lon="101.175072"><ele>270</ele><time>1970-01-01T02:53:35.000Z</time></trkpt><trkpt lat="14.765015" lon="101.175102"><ele>270.1</ele><time>1970-01-01T02:53:37.000Z</time></trkpt><trkpt lat="14.765015" lon="101.175142"><ele>270.1</ele><time>1970-01-01T02:53:39.000Z</time></trkpt><trkpt lat="14.765021" lon="101.175197"><ele>273.9</ele><time>1970-01-01T02:53:41.000Z</time></trkpt><trkpt lat="14.765024" lon="101.175228"><ele>274.4</ele><time>1970-01-01T02:53:42.000Z</time></trkpt><trkpt lat="14.76503" lon="101.175261"><ele>275.1</ele><time>1970-01-01T02:53:43.000Z</time></trkpt><trkpt lat="14.765036" lon="101.175296"><ele>275.7</ele><time>1970-01-01T02:53:44.000Z</time></trkpt><trkpt lat="14.765046" lon="101.175334"><ele>276</ele><time>1970-01-01T02:53:45.000Z</time></trkpt><trkpt lat="14.76506" lon="101.175376"><ele>277</ele><time>1970-01-01T02:53:46.000Z</time></trkpt><trkpt lat="14.765076" lon="101.17542"><ele>278.5</ele><time>1970-01-01T02:53:47.000Z</time></trkpt><trkpt lat="14.765086" lon="101.17546"><ele>278.4</ele><time>1970-01-01T02:53:48.000Z</time></trkpt><trkpt lat="14.76509" lon="101.17549"><ele>278.2</ele><time>1970-01-01T02:53:49.000Z</time></trkpt><trkpt lat="14.76509" lon="101.175539"><ele>277.8</ele><time>1970-01-01T02:53:51.000Z</time></trkpt><trkpt lat="14.765084" lon="101.175577"><ele>277.5</ele><time>1970-01-01T02:53:53.000Z</time></trkpt><trkpt lat="14.765081" lon="101.175617"><ele>277.3</ele><time>1970-01-01T02:53:56.000Z</time></trkpt><trkpt lat="14.765083" lon="101.175653"><ele>277.2</ele><time>1970-01-01T02:53:58.000Z</time></trkpt><trkpt lat="14.765086" lon="101.175682"><ele>277.2</ele><time>1970-01-01T02:54:00.000Z</time></trkpt><trkpt lat="14.76509" lon="101.175721"><ele>277.3</ele><time>1970-01-01T02:54:03.000Z</time></trkpt><trkpt lat="14.765064" lon="101.175757"><ele>278</ele><time>1970-01-01T02:54:05.000Z</time></trkpt><trkpt lat="14.765043" lon="101.175792"><ele>278.7</ele><time>1970-01-01T02:54:07.000Z</time></trkpt><trkpt lat="14.765029" lon="101.175825"><ele>279.2</ele><time>1970-01-01T02:54:09.000Z</time></trkpt><trkpt lat="14.765018" lon="101.175852"><ele>279.7</ele><time>1970-01-01T02:54:11.000Z</time></trkpt><trkpt lat="14.765004" lon="101.175883"><ele>280.3</ele><time>1970-01-01T02:54:13.000Z</time></trkpt><trkpt lat="14.765006" lon="101.175922"><ele>281.5</ele><time>1970-01-01T02:54:16.000Z</time></trkpt><trkpt lat="14.765001" lon="101.175964"><ele>282.8</ele><time>1970-01-01T02:54:18.000Z</time></trkpt><trkpt lat="14.764983" lon="101.176002"><ele>283.4</ele><time>1970-01-01T02:54:20.000Z</time></trkpt><trkpt lat="14.764967" lon="101.176031"><ele>283.8</ele><time>1970-01-01T02:54:22.000Z</time></trkpt><trkpt lat="14.764951" lon="101.17606"><ele>284.3</ele><time>1970-01-01T02:54:24.000Z</time></trkpt><trkpt lat="14.764937" lon="101.176085"><ele>285.1</ele><time>1970-01-01T02:54:26.000Z</time></trkpt><trkpt lat="14.764924" lon="101.176136"><ele>286.4</ele><time>1970-01-01T02:54:29.000Z</time></trkpt><trkpt lat="14.764917" lon="101.176166"><ele>286.4</ele><time>1970-01-01T02:54:30.000Z</time></trkpt><trkpt lat="14.7649" lon="101.176194"><ele>286.5</ele><time>1970-01-01T02:54:33.000Z</time></trkpt><trkpt lat="14.764859" lon="101.176236"><ele>286.4</ele><time>1970-01-01T02:55:00.000Z</time></trkpt><trkpt lat="14.764849" lon="101.176269"><ele>286.3</ele><time>1970-01-01T02:55:02.000Z</time></trkpt><trkpt lat="14.764841" lon="101.1763"><ele>286.2</ele><time>1970-01-01T02:55:03.000Z</time></trkpt><trkpt lat="14.76481" lon="101.176414"><ele>285</ele><time>1970-01-01T02:55:04.000Z</time></trkpt><trkpt lat="14.764786" lon="101.17647"><ele>283.1</ele><time>1970-01-01T02:55:05.000Z</time></trkpt><trkpt lat="14.764758" lon="101.176542"><ele>281</ele><time>1970-01-01T02:55:06.000Z</time></trkpt><trkpt lat="14.764738" lon="101.176622"><ele>278.1</ele><time>1970-01-01T02:55:07.000Z</time></trkpt><trkpt lat="14.764707" lon="101.176694"><ele>277.1</ele><time>1970-01-01T02:55:08.000Z</time></trkpt><trkpt lat="14.764673" lon="101.17675"><ele>276.3</ele><time>1970-01-01T02:55:09.000Z</time></trkpt><trkpt lat="14.764644" lon="101.176837"><ele>274.6</ele><time>1970-01-01T02:55:10.000Z</time></trkpt><trkpt lat="14.764584" lon="101.176954"><ele>273.3</ele><time>1970-01-01T02:55:11.000Z</time></trkpt><trkpt lat="14.764528" lon="101.17701"><ele>272</ele><time>1970-01-01T02:55:12.000Z</time></trkpt><trkpt lat="14.764488" lon="101.177051"><ele>272</ele><time>1970-01-01T02:55:13.000Z</time></trkpt><trkpt lat="14.764447" lon="101.17708"><ele>271.8</ele><time>1970-01-01T02:55:14.000Z</time></trkpt><trkpt lat="14.764375" lon="101.177127"><ele>270.9</ele><time>1970-01-01T02:55:15.000Z</time></trkpt><trkpt lat="14.764332" lon="101.177169"><ele>271.5</ele><time>1970-01-01T02:55:16.000Z</time></trkpt><trkpt lat="14.764306" lon="101.177192"><ele>272.1</ele><time>1970-01-01T02:55:17.000Z</time></trkpt><trkpt lat="14.764262" lon="101.177234"><ele>273.2</ele><time>1970-01-01T02:55:19.000Z</time></trkpt><trkpt lat="14.764266" lon="101.177278"><ele>273.6</ele><time>1970-01-01T02:55:20.000Z</time></trkpt><trkpt lat="14.764257" lon="101.177327"><ele>273.8</ele><time>1970-01-01T02:55:21.000Z</time></trkpt><trkpt lat="14.764257" lon="101.177356"><ele>273.8</ele><time>1970-01-01T02:55:22.000Z</time></trkpt><trkpt lat="14.76422" lon="101.177362"><ele>273.6</ele><time>1970-01-01T02:55:25.000Z</time></trkpt><trkpt lat="14.76419" lon="101.17736"><ele>273.5</ele><time>1970-01-01T02:55:27.000Z</time></trkpt><trkpt lat="14.764138" lon="101.177361"><ele>273.5</ele><time>1970-01-01T02:55:29.000Z</time></trkpt><trkpt lat="14.764092" lon="101.177369"><ele>273.5</ele><time>1970-01-01T02:55:31.000Z</time></trkpt><trkpt lat="14.764059" lon="101.177383"><ele>273.3</ele><time>1970-01-01T02:55:33.000Z</time></trkpt><trkpt lat="14.764028" lon="101.177409"><ele>273</ele><time>1970-01-01T02:55:35.000Z</time></trkpt><trkpt lat="14.763993" lon="101.177444"><ele>273</ele><time>1970-01-01T02:55:37.000Z</time></trkpt><trkpt lat="14.763948" lon="101.177464"><ele>272.8</ele><time>1970-01-01T02:55:39.000Z</time></trkpt><trkpt lat="14.763902" lon="101.177474"><ele>272.5</ele><time>1970-01-01T02:55:41.000Z</time></trkpt><trkpt lat="14.763865" lon="101.177482"><ele>272.3</ele><time>1970-01-01T02:55:43.000Z</time></trkpt><trkpt lat="14.76383" lon="101.177491"><ele>272.1</ele><time>1970-01-01T02:55:45.000Z</time></trkpt><trkpt lat="14.763795" lon="101.177501"><ele>271.8</ele><time>1970-01-01T02:55:47.000Z</time></trkpt><trkpt lat="14.763762" lon="101.177506"><ele>271.6</ele><time>1970-01-01T02:55:49.000Z</time></trkpt><trkpt lat="14.763726" lon="101.177518"><ele>271.4</ele><time>1970-01-01T02:55:51.000Z</time></trkpt><trkpt lat="14.763692" lon="101.177524"><ele>271.3</ele><time>1970-01-01T02:55:53.000Z</time></trkpt><trkpt lat="14.763661" lon="101.177527"><ele>271.3</ele><time>1970-01-01T02:55:55.000Z</time></trkpt><trkpt lat="14.763625" lon="101.177538"><ele>271.4</ele><time>1970-01-01T02:55:57.000Z</time></trkpt><trkpt lat="14.763593" lon="101.177559"><ele>271.5</ele><time>1970-01-01T02:56:00.000Z</time></trkpt><trkpt lat="14.763572" lon="101.17759"><ele>271.3</ele><time>1970-01-01T02:56:03.000Z</time></trkpt><trkpt lat="14.763544" lon="101.177604"><ele>271.1</ele><time>1970-01-01T02:56:05.000Z</time></trkpt><trkpt lat="14.763517" lon="101.177616"><ele>271</ele><time>1970-01-01T02:56:07.000Z</time></trkpt><trkpt lat="14.763481" lon="101.177633"><ele>270.8</ele><time>1970-01-01T02:56:10.000Z</time></trkpt><trkpt lat="14.763458" lon="101.177657"><ele>270.7</ele><time>1970-01-01T02:56:12.000Z</time></trkpt><trkpt lat="14.763425" lon="101.17767"><ele>270.8</ele><time>1970-01-01T02:56:15.000Z</time></trkpt><trkpt lat="14.763378" lon="101.177663"><ele>271.3</ele><time>1970-01-01T02:56:17.000Z</time></trkpt><trkpt lat="14.763332" lon="101.177657"><ele>272.1</ele><time>1970-01-01T02:56:19.000Z</time></trkpt><trkpt lat="14.763291" lon="101.177651"><ele>273</ele><time>1970-01-01T02:56:21.000Z</time></trkpt><trkpt lat="14.763245" lon="101.177646"><ele>273.9</ele><time>1970-01-01T02:56:23.000Z</time></trkpt><trkpt lat="14.763194" lon="101.177629"><ele>274.6</ele><time>1970-01-01T02:56:25.000Z</time></trkpt><trkpt lat="14.763166" lon="101.177616"><ele>274.9</ele><time>1970-01-01T02:56:26.000Z</time></trkpt><trkpt lat="14.763141" lon="101.177604"><ele>275.2</ele><time>1970-01-01T02:56:27.000Z</time></trkpt><trkpt lat="14.763097" lon="101.177592"><ele>275.6</ele><time>1970-01-01T02:56:29.000Z</time></trkpt><trkpt lat="14.763058" lon="101.1776"><ele>275.5</ele><time>1970-01-01T02:56:31.000Z</time></trkpt><trkpt lat="14.763019" lon="101.177614"><ele>275.5</ele><time>1970-01-01T02:56:33.000Z</time></trkpt><trkpt lat="14.76298" lon="101.177633"><ele>275.1</ele><time>1970-01-01T02:56:35.000Z</time></trkpt><trkpt lat="14.762945" lon="101.177666"><ele>274.7</ele><time>1970-01-01T02:56:37.000Z</time></trkpt><trkpt lat="14.762913" lon="101.177708"><ele>274.5</ele><time>1970-01-01T02:56:39.000Z</time></trkpt><trkpt lat="14.762887" lon="101.177749"><ele>274.5</ele><time>1970-01-01T02:56:41.000Z</time></trkpt><trkpt lat="14.762864" lon="101.177772"><ele>274.6</ele><time>1970-01-01T02:56:43.000Z</time></trkpt><trkpt lat="14.762842" lon="101.17779"><ele>274.7</ele><time>1970-01-01T02:56:45.000Z</time></trkpt><trkpt lat="14.76281" lon="101.17782"><ele>274.4</ele><time>1970-01-01T02:56:47.000Z</time></trkpt><trkpt lat="14.762787" lon="101.177838"><ele>274.3</ele><time>1970-01-01T02:56:48.000Z</time></trkpt><trkpt lat="14.762761" lon="101.177855"><ele>274.4</ele><time>1970-01-01T02:56:49.000Z</time></trkpt><trkpt lat="14.762732" lon="101.177874"><ele>274.4</ele><time>1970-01-01T02:56:50.000Z</time></trkpt><trkpt lat="14.762698" lon="101.177893"><ele>274.6</ele><time>1970-01-01T02:56:51.000Z</time></trkpt><trkpt lat="14.762662" lon="101.177909"><ele>274.7</ele><time>1970-01-01T02:56:52.000Z</time></trkpt><trkpt lat="14.762624" lon="101.177923"><ele>274.8</ele><time>1970-01-01T02:56:53.000Z</time></trkpt><trkpt lat="14.762586" lon="101.17794"><ele>274.9</ele><time>1970-01-01T02:56:54.000Z</time></trkpt><trkpt lat="14.762548" lon="101.17796"><ele>275.2</ele><time>1970-01-01T02:56:55.000Z</time></trkpt><trkpt lat="14.762514" lon="101.177984"><ele>275.4</ele><time>1970-01-01T02:56:56.000Z</time></trkpt><trkpt lat="14.762485" lon="101.178008"><ele>275.3</ele><time>1970-01-01T02:56:57.000Z</time></trkpt><trkpt lat="14.762461" lon="101.178036"><ele>275.2</ele><time>1970-01-01T02:56:58.000Z</time></trkpt><trkpt lat="14.762439" lon="101.17807"><ele>274.7</ele><time>1970-01-01T02:56:59.000Z</time></trkpt><trkpt lat="14.762402" lon="101.17812"><ele>273.7</ele><time>1970-01-01T02:57:00.000Z</time></trkpt><trkpt lat="14.762393" lon="101.178163"><ele>273.3</ele><time>1970-01-01T02:57:01.000Z</time></trkpt><trkpt lat="14.762378" lon="101.178212"><ele>272.9</ele><time>1970-01-01T02:57:02.000Z</time></trkpt><trkpt lat="14.762379" lon="101.178266"><ele>272.7</ele><time>1970-01-01T02:57:03.000Z</time></trkpt><trkpt lat="14.762391" lon="101.178319"><ele>272.6</ele><time>1970-01-01T02:57:04.000Z</time></trkpt><trkpt lat="14.762396" lon="101.178366"><ele>272.8</ele><time>1970-01-01T02:57:05.000Z</time></trkpt><trkpt lat="14.762406" lon="101.178426"><ele>273.2</ele><time>1970-01-01T02:57:06.000Z</time></trkpt><trkpt lat="14.762418" lon="101.178466"><ele>273.4</ele><time>1970-01-01T02:57:07.000Z</time></trkpt><trkpt lat="14.762426" lon="101.178521"><ele>273.6</ele><time>1970-01-01T02:57:08.000Z</time></trkpt><trkpt lat="14.762443" lon="101.178584"><ele>273.7</ele><time>1970-01-01T02:57:09.000Z</time></trkpt><trkpt lat="14.762462" lon="101.178645"><ele>273.9</ele><time>1970-01-01T02:57:10.000Z</time></trkpt><trkpt lat="14.762461" lon="101.178692"><ele>273.8</ele><time>1970-01-01T02:57:11.000Z</time></trkpt><trkpt lat="14.762465" lon="101.178744"><ele>273.8</ele><time>1970-01-01T02:57:12.000Z</time></trkpt><trkpt lat="14.76245" lon="101.178804"><ele>273.9</ele><time>1970-01-01T02:57:14.000Z</time></trkpt><trkpt lat="14.762442" lon="101.178841"><ele>273.3</ele><time>1970-01-01T02:57:15.000Z</time></trkpt><trkpt lat="14.762429" lon="101.178878"><ele>272.7</ele><time>1970-01-01T02:57:17.000Z</time></trkpt><trkpt lat="14.762394" lon="101.178948"><ele>271</ele><time>1970-01-01T02:57:18.000Z</time></trkpt><trkpt lat="14.762367" lon="101.178983"><ele>270</ele><time>1970-01-01T02:57:19.000Z</time></trkpt><trkpt lat="14.762331" lon="101.179012"><ele>269</ele><time>1970-01-01T02:57:20.000Z</time></trkpt><trkpt lat="14.762281" lon="101.179027"><ele>267.5</ele><time>1970-01-01T02:57:21.000Z</time></trkpt><trkpt lat="14.762253" lon="101.179064"><ele>266.1</ele><time>1970-01-01T02:57:22.000Z</time></trkpt><trkpt lat="14.762222" lon="101.179105"><ele>264.7</ele><time>1970-01-01T02:57:23.000Z</time></trkpt><trkpt lat="14.76222" lon="101.179159"><ele>263.7</ele><time>1970-01-01T02:57:24.000Z</time></trkpt><trkpt lat="14.762217" lon="101.179215"><ele>264</ele><time>1970-01-01T02:57:25.000Z</time></trkpt><trkpt lat="14.762227" lon="101.17927"><ele>263.9</ele><time>1970-01-01T02:57:26.000Z</time></trkpt><trkpt lat="14.762242" lon="101.179322"><ele>264.1</ele><time>1970-01-01T02:57:27.000Z</time></trkpt><trkpt lat="14.762269" lon="101.17938"><ele>264.5</ele><time>1970-01-01T02:57:28.000Z</time></trkpt><trkpt lat="14.7623" lon="101.179443"><ele>264.9</ele><time>1970-01-01T02:57:29.000Z</time></trkpt><trkpt lat="14.762334" lon="101.1795"><ele>265.1</ele><time>1970-01-01T02:57:30.000Z</time></trkpt><trkpt lat="14.762367" lon="101.17956"><ele>265.3</ele><time>1970-01-01T02:57:31.000Z</time></trkpt><trkpt lat="14.76237" lon="101.179603"><ele>265.2</ele><time>1970-01-01T02:57:32.000Z</time></trkpt><trkpt lat="14.762378" lon="101.179645"><ele>265.1</ele><time>1970-01-01T02:57:33.000Z</time></trkpt><trkpt lat="14.762391" lon="101.179691"><ele>264.9</ele><time>1970-01-01T02:57:34.000Z</time></trkpt><trkpt lat="14.762404" lon="101.179726"><ele>264.7</ele><time>1970-01-01T02:57:35.000Z</time></trkpt><trkpt lat="14.76243" lon="101.17974"><ele>264.6</ele><time>1970-01-01T02:57:36.000Z</time></trkpt><trkpt lat="14.762471" lon="101.179791"><ele>264.2</ele><time>1970-01-01T02:57:37.000Z</time></trkpt><trkpt lat="14.762507" lon="101.179831"><ele>263.9</ele><time>1970-01-01T02:57:38.000Z</time></trkpt><trkpt lat="14.762563" lon="101.179862"><ele>263.6</ele><time>1970-01-01T02:57:39.000Z</time></trkpt><trkpt lat="14.762615" lon="101.179873"><ele>263.4</ele><time>1970-01-01T02:57:40.000Z</time></trkpt><trkpt lat="14.762662" lon="101.179892"><ele>263.1</ele><time>1970-01-01T02:57:41.000Z</time></trkpt><trkpt lat="14.762705" lon="101.179926"><ele>262.9</ele><time>1970-01-01T02:57:42.000Z</time></trkpt><trkpt lat="14.762739" lon="101.179978"><ele>262</ele><time>1970-01-01T02:57:43.000Z</time></trkpt><trkpt lat="14.762729" lon="101.180021"><ele>261.5</ele><time>1970-01-01T02:57:44.000Z</time></trkpt><trkpt lat="14.762736" lon="101.180055"><ele>261.2</ele><time>1970-01-01T02:57:45.000Z</time></trkpt><trkpt lat="14.762712" lon="101.180078"><ele>260.9</ele><time>1970-01-01T02:57:46.000Z</time></trkpt><trkpt lat="14.762679" lon="101.180119"><ele>260.6</ele><time>1970-01-01T02:57:48.000Z</time></trkpt><trkpt lat="14.762676" lon="101.180163"><ele>260.7</ele><time>1970-01-01T02:57:51.000Z</time></trkpt><trkpt lat="14.762661" lon="101.180198"><ele>260.8</ele><time>1970-01-01T02:57:52.000Z</time></trkpt><trkpt lat="14.762658" lon="101.180231"><ele>260.9</ele><time>1970-01-01T02:57:53.000Z</time></trkpt><trkpt lat="14.762651" lon="101.180281"><ele>261.1</ele><time>1970-01-01T02:57:55.000Z</time></trkpt><trkpt lat="14.762638" lon="101.180311"><ele>261.3</ele><time>1970-01-01T02:57:57.000Z</time></trkpt><trkpt lat="14.762622" lon="101.180335"><ele>261.5</ele><time>1970-01-01T02:57:59.000Z</time></trkpt><trkpt lat="14.762618" lon="101.180366"><ele>261.6</ele><time>1970-01-01T02:58:01.000Z</time></trkpt><trkpt lat="14.762616" lon="101.180414"><ele>261.9</ele><time>1970-01-01T02:58:03.000Z</time></trkpt><trkpt lat="14.76261" lon="101.180456"><ele>262.1</ele><time>1970-01-01T02:58:05.000Z</time></trkpt><trkpt lat="14.762611" lon="101.180493"><ele>262.6</ele><time>1970-01-01T02:58:07.000Z</time></trkpt><trkpt lat="14.762624" lon="101.180525"><ele>263</ele><time>1970-01-01T02:58:09.000Z</time></trkpt><trkpt lat="14.762633" lon="101.180567"><ele>263.6</ele><time>1970-01-01T02:58:12.000Z</time></trkpt><trkpt lat="14.762633" lon="101.180604"><ele>264.2</ele><time>1970-01-01T02:58:15.000Z</time></trkpt><trkpt lat="14.762629" lon="101.180636"><ele>264.7</ele><time>1970-01-01T02:58:18.000Z</time></trkpt><trkpt lat="14.762619" lon="101.180676"><ele>265.8</ele><time>1970-01-01T02:58:20.000Z</time></trkpt><trkpt lat="14.762622" lon="101.18071"><ele>266.7</ele><time>1970-01-01T02:58:22.000Z</time></trkpt><trkpt lat="14.762636" lon="101.180737"><ele>267.5</ele><time>1970-01-01T02:58:24.000Z</time></trkpt><trkpt lat="14.762639" lon="101.180775"><ele>268.4</ele><time>1970-01-01T02:58:27.000Z</time></trkpt><trkpt lat="14.762637" lon="101.18081"><ele>269</ele><time>1970-01-01T02:58:30.000Z</time></trkpt><trkpt lat="14.76264" lon="101.180839"><ele>269.4</ele><time>1970-01-01T02:58:32.000Z</time></trkpt><trkpt lat="14.762638" lon="101.180873"><ele>269.8</ele><time>1970-01-01T02:58:34.000Z</time></trkpt><trkpt lat="14.762636" lon="101.18091"><ele>270.1</ele><time>1970-01-01T02:58:36.000Z</time></trkpt><trkpt lat="14.762631" lon="101.180941"><ele>270.3</ele><time>1970-01-01T02:58:38.000Z</time></trkpt><trkpt lat="14.762622" lon="101.180968"><ele>270.6</ele><time>1970-01-01T02:58:40.000Z</time></trkpt><trkpt lat="14.762604" lon="101.180996"><ele>271</ele><time>1970-01-01T02:58:45.000Z</time></trkpt><trkpt lat="14.762612" lon="101.181031"><ele>271.5</ele><time>1970-01-01T02:58:48.000Z</time></trkpt><trkpt lat="14.762614" lon="101.181069"><ele>272.1</ele><time>1970-01-01T02:58:51.000Z</time></trkpt><trkpt lat="14.762605" lon="101.181098"><ele>272.4</ele><time>1970-01-01T02:58:53.000Z</time></trkpt><trkpt lat="14.762606" lon="101.181148"><ele>272.9</ele><time>1970-01-01T02:58:55.000Z</time></trkpt><trkpt lat="14.76261" lon="101.181185"><ele>273.5</ele><time>1970-01-01T02:58:57.000Z</time></trkpt><trkpt lat="14.762616" lon="101.181242"><ele>274.6</ele><time>1970-01-01T02:58:59.000Z</time></trkpt><trkpt lat="14.762619" lon="101.181286"><ele>275.5</ele><time>1970-01-01T02:59:01.000Z</time></trkpt><trkpt lat="14.762618" lon="101.181325"><ele>276.2</ele><time>1970-01-01T02:59:03.000Z</time></trkpt><trkpt lat="14.762612" lon="101.181372"><ele>276.5</ele><time>1970-01-01T02:59:05.000Z</time></trkpt><trkpt lat="14.762604" lon="101.181417"><ele>276.5</ele><time>1970-01-01T02:59:07.000Z</time></trkpt><trkpt lat="14.762601" lon="101.181463"><ele>276</ele><time>1970-01-01T02:59:09.000Z</time></trkpt><trkpt lat="14.7626" lon="101.181514"><ele>275.3</ele><time>1970-01-01T02:59:11.000Z</time></trkpt><trkpt lat="14.7626" lon="101.181554"><ele>274.7</ele><time>1970-01-01T02:59:13.000Z</time></trkpt><trkpt lat="14.762597" lon="101.181592"><ele>274.2</ele><time>1970-01-01T02:59:15.000Z</time></trkpt><trkpt lat="14.76258" lon="101.181623"><ele>274</ele><time>1970-01-01T02:59:17.000Z</time></trkpt><trkpt lat="14.762571" lon="101.181666"><ele>273.6</ele><time>1970-01-01T02:59:19.000Z</time></trkpt><trkpt lat="14.762567" lon="101.181717"><ele>272.6</ele><time>1970-01-01T02:59:21.000Z</time></trkpt><trkpt lat="14.762554" lon="101.181769"><ele>272.3</ele><time>1970-01-01T02:59:23.000Z</time></trkpt><trkpt lat="14.762544" lon="101.181802"><ele>272.5</ele><time>1970-01-01T02:59:24.000Z</time></trkpt><trkpt lat="14.762559" lon="101.181966"><ele>273.5</ele><time>1970-01-01T02:59:26.000Z</time></trkpt><trkpt lat="14.7626" lon="101.182008"><ele>274.1</ele><time>1970-01-01T02:59:27.000Z</time></trkpt><trkpt lat="14.76264" lon="101.182056"><ele>275</ele><time>1970-01-01T02:59:29.000Z</time></trkpt><trkpt lat="14.762683" lon="101.182091"><ele>275.6</ele><time>1970-01-01T02:59:30.000Z</time></trkpt><trkpt lat="14.762696" lon="101.182117"><ele>275.8</ele><time>1970-01-01T02:59:33.000Z</time></trkpt><trkpt lat="14.762695" lon="101.182147"><ele>276.1</ele><time>1970-01-01T02:59:38.000Z</time></trkpt><trkpt lat="14.7627" lon="101.182188"><ele>276.9</ele><time>1970-01-01T02:59:41.000Z</time></trkpt><trkpt lat="14.762712" lon="101.182232"><ele>277.8</ele><time>1970-01-01T02:59:43.000Z</time></trkpt><trkpt lat="14.762731" lon="101.182276"><ele>278.1</ele><time>1970-01-01T02:59:45.000Z</time></trkpt><trkpt lat="14.762758" lon="101.182314"><ele>278.4</ele><time>1970-01-01T02:59:47.000Z</time></trkpt><trkpt lat="14.762782" lon="101.182339"><ele>278.7</ele><time>1970-01-01T02:59:49.000Z</time></trkpt><trkpt lat="14.762811" lon="101.182378"><ele>279.1</ele><time>1970-01-01T02:59:51.000Z</time></trkpt><trkpt lat="14.762819" lon="101.182405"><ele>279.4</ele><time>1970-01-01T02:59:52.000Z</time></trkpt><trkpt lat="14.762826" lon="101.182437"><ele>279.7</ele><time>1970-01-01T02:59:53.000Z</time></trkpt><trkpt lat="14.762832" lon="101.182466"><ele>280</ele><time>1970-01-01T02:59:54.000Z</time></trkpt><trkpt lat="14.762844" lon="101.1825"><ele>280.1</ele><time>1970-01-01T02:59:55.000Z</time></trkpt><trkpt lat="14.762862" lon="101.182528"><ele>280</ele><time>1970-01-01T02:59:56.000Z</time></trkpt><trkpt lat="14.762889" lon="101.182567"><ele>279.9</ele><time>1970-01-01T02:59:58.000Z</time></trkpt><trkpt lat="14.762917" lon="101.182613"><ele>280.3</ele><time>1970-01-01T03:00:00.000Z</time></trkpt><trkpt lat="14.762934" lon="101.182638"><ele>280.4</ele><time>1970-01-01T03:00:01.000Z</time></trkpt><trkpt lat="14.762953" lon="101.182659"><ele>280.4</ele><time>1970-01-01T03:00:02.000Z</time></trkpt><trkpt lat="14.762973" lon="101.182682"><ele>280.3</ele><time>1970-01-01T03:00:03.000Z</time></trkpt><trkpt lat="14.762991" lon="101.182707"><ele>280.3</ele><time>1970-01-01T03:00:04.000Z</time></trkpt><trkpt lat="14.763007" lon="101.182737"><ele>280.4</ele><time>1970-01-01T03:00:05.000Z</time></trkpt><trkpt lat="14.763022" lon="101.182773"><ele>280.5</ele><time>1970-01-01T03:00:06.000Z</time></trkpt><trkpt lat="14.763037" lon="101.182803"><ele>280.7</ele><time>1970-01-01T03:00:07.000Z</time></trkpt><trkpt lat="14.763064" lon="101.182829"><ele>281</ele><time>1970-01-01T03:00:10.000Z</time></trkpt><trkpt lat="14.763091" lon="101.182871"><ele>281.5</ele><time>1970-01-01T03:00:12.000Z</time></trkpt><trkpt lat="14.763104" lon="101.182896"><ele>281.8</ele><time>1970-01-01T03:00:13.000Z</time></trkpt><trkpt lat="14.763128" lon="101.182934"><ele>282</ele><time>1970-01-01T03:00:15.000Z</time></trkpt><trkpt lat="14.763142" lon="101.182966"><ele>282</ele><time>1970-01-01T03:00:17.000Z</time></trkpt><trkpt lat="14.763128" lon="101.182996"><ele>282</ele><time>1970-01-01T03:00:19.000Z</time></trkpt><trkpt lat="14.763068" lon="101.182979"><ele>281.3</ele><time>1970-01-01T03:00:21.000Z</time></trkpt><trkpt lat="14.763028" lon="101.182956"><ele>280.3</ele><time>1970-01-01T03:00:22.000Z</time></trkpt><trkpt lat="14.762988" lon="101.182931"><ele>279.3</ele><time>1970-01-01T03:00:23.000Z</time></trkpt><trkpt lat="14.762947" lon="101.182906"><ele>278.2</ele><time>1970-01-01T03:00:24.000Z</time></trkpt><trkpt lat="14.762907" lon="101.182887"><ele>277.5</ele><time>1970-01-01T03:00:25.000Z</time></trkpt><trkpt lat="14.762873" lon="101.182872"><ele>277.1</ele><time>1970-01-01T03:00:26.000Z</time></trkpt><trkpt lat="14.762838" lon="101.182859"><ele>276.7</ele><time>1970-01-01T03:00:27.000Z</time></trkpt><trkpt lat="14.762795" lon="101.182857"><ele>276.3</ele><time>1970-01-01T03:00:28.000Z</time></trkpt><trkpt lat="14.762721" lon="101.182899"><ele>275.6</ele><time>1970-01-01T03:00:29.000Z</time></trkpt><trkpt lat="14.762666" lon="101.182921"><ele>275.2</ele><time>1970-01-01T03:00:30.000Z</time></trkpt><trkpt lat="14.762619" lon="101.182979"><ele>275.1</ele><time>1970-01-01T03:00:31.000Z</time></trkpt><trkpt lat="14.762579" lon="101.183002"><ele>275</ele><time>1970-01-01T03:00:32.000Z</time></trkpt><trkpt lat="14.762551" lon="101.183026"><ele>275</ele><time>1970-01-01T03:00:33.000Z</time></trkpt><trkpt lat="14.762519" lon="101.183042"><ele>274.9</ele><time>1970-01-01T03:00:34.000Z</time></trkpt><trkpt lat="14.762482" lon="101.183053"><ele>274.8</ele><time>1970-01-01T03:00:35.000Z</time></trkpt><trkpt lat="14.762447" lon="101.183068"><ele>274.6</ele><time>1970-01-01T03:00:36.000Z</time></trkpt><trkpt lat="14.762413" lon="101.183075"><ele>274.4</ele><time>1970-01-01T03:00:37.000Z</time></trkpt><trkpt lat="14.762379" lon="101.183091"><ele>274.1</ele><time>1970-01-01T03:00:38.000Z</time></trkpt><trkpt lat="14.762348" lon="101.18311"><ele>273.9</ele><time>1970-01-01T03:00:39.000Z</time></trkpt><trkpt lat="14.762316" lon="101.183124"><ele>274</ele><time>1970-01-01T03:00:40.000Z</time></trkpt><trkpt lat="14.76228" lon="101.183128"><ele>274.1</ele><time>1970-01-01T03:00:41.000Z</time></trkpt><trkpt lat="14.762246" lon="101.183137"><ele>274.2</ele><time>1970-01-01T03:00:42.000Z</time></trkpt><trkpt lat="14.762213" lon="101.183147"><ele>274.4</ele><time>1970-01-01T03:00:43.000Z</time></trkpt><trkpt lat="14.762179" lon="101.183159"><ele>274.6</ele><time>1970-01-01T03:00:44.000Z</time></trkpt><trkpt lat="14.762148" lon="101.183169"><ele>274.7</ele><time>1970-01-01T03:00:45.000Z</time></trkpt><trkpt lat="14.762116" lon="101.183181"><ele>274.7</ele><time>1970-01-01T03:00:46.000Z</time></trkpt><trkpt lat="14.76208" lon="101.183192"><ele>274.7</ele><time>1970-01-01T03:00:47.000Z</time></trkpt><trkpt lat="14.762045" lon="101.183202"><ele>275.1</ele><time>1970-01-01T03:00:48.000Z</time></trkpt><trkpt lat="14.762013" lon="101.183211"><ele>275.4</ele><time>1970-01-01T03:00:49.000Z</time></trkpt><trkpt lat="14.761982" lon="101.183221"><ele>275.7</ele><time>1970-01-01T03:00:50.000Z</time></trkpt><trkpt lat="14.761952" lon="101.183231"><ele>275.9</ele><time>1970-01-01T03:00:51.000Z</time></trkpt><trkpt lat="14.761922" lon="101.183242"><ele>276.1</ele><time>1970-01-01T03:00:52.000Z</time></trkpt><trkpt lat="14.761893" lon="101.183251"><ele>276.2</ele><time>1970-01-01T03:00:53.000Z</time></trkpt><trkpt lat="14.761867" lon="101.183262"><ele>276.2</ele><time>1970-01-01T03:00:54.000Z</time></trkpt><trkpt lat="14.761841" lon="101.183272"><ele>276.2</ele><time>1970-01-01T03:00:55.000Z</time></trkpt><trkpt lat="14.761815" lon="101.183284"><ele>276.2</ele><time>1970-01-01T03:00:56.000Z</time></trkpt><trkpt lat="14.761789" lon="101.183293"><ele>276.4</ele><time>1970-01-01T03:00:57.000Z</time></trkpt><trkpt lat="14.761761" lon="101.183302"><ele>276.6</ele><time>1970-01-01T03:00:58.000Z</time></trkpt><trkpt lat="14.76173" lon="101.18331"><ele>276.9</ele><time>1970-01-01T03:00:59.000Z</time></trkpt><trkpt lat="14.7617" lon="101.183317"><ele>276.9</ele><time>1970-01-01T03:01:00.000Z</time></trkpt><trkpt lat="14.761653" lon="101.183331"><ele>276.8</ele><time>1970-01-01T03:01:02.000Z</time></trkpt><trkpt lat="14.761615" lon="101.18334"><ele>276.8</ele><time>1970-01-01T03:01:04.000Z</time></trkpt><trkpt lat="14.761576" lon="101.183351"><ele>276.8</ele><time>1970-01-01T03:01:06.000Z</time></trkpt><trkpt lat="14.761521" lon="101.183355"><ele>276.9</ele><time>1970-01-01T03:01:08.000Z</time></trkpt><trkpt lat="14.761494" lon="101.183356"><ele>277</ele><time>1970-01-01T03:01:09.000Z</time></trkpt><trkpt lat="14.761465" lon="101.183359"><ele>277.1</ele><time>1970-01-01T03:01:10.000Z</time></trkpt><trkpt lat="14.761437" lon="101.183361"><ele>277.2</ele><time>1970-01-01T03:01:11.000Z</time></trkpt><trkpt lat="14.761385" lon="101.183363"><ele>277.4</ele><time>1970-01-01T03:01:13.000Z</time></trkpt><trkpt lat="14.761355" lon="101.183366"><ele>277.5</ele><time>1970-01-01T03:01:14.000Z</time></trkpt><trkpt lat="14.761321" lon="101.183373"><ele>277.5</ele><time>1970-01-01T03:01:15.000Z</time></trkpt><trkpt lat="14.761287" lon="101.18338"><ele>277.4</ele><time>1970-01-01T03:01:16.000Z</time></trkpt><trkpt lat="14.761252" lon="101.183387"><ele>277.3</ele><time>1970-01-01T03:01:17.000Z</time></trkpt><trkpt lat="14.761224" lon="101.183388"><ele>277.2</ele><time>1970-01-01T03:01:18.000Z</time></trkpt><trkpt lat="14.761174" lon="101.183384"><ele>276.9</ele><time>1970-01-01T03:01:20.000Z</time></trkpt><trkpt lat="14.761145" lon="101.183382"><ele>276.8</ele><time>1970-01-01T03:01:21.000Z</time></trkpt><trkpt lat="14.761115" lon="101.183382"><ele>276.6</ele><time>1970-01-01T03:01:22.000Z</time></trkpt><trkpt lat="14.761062" lon="101.183379"><ele>276.4</ele><time>1970-01-01T03:01:24.000Z</time></trkpt><trkpt lat="14.76101" lon="101.183385"><ele>276.2</ele><time>1970-01-01T03:01:26.000Z</time></trkpt><trkpt lat="14.760982" lon="101.183393"><ele>276.1</ele><time>1970-01-01T03:01:27.000Z</time></trkpt><trkpt lat="14.760954" lon="101.183401"><ele>276.1</ele><time>1970-01-01T03:01:28.000Z</time></trkpt><trkpt lat="14.760899" lon="101.183409"><ele>276.2</ele><time>1970-01-01T03:01:30.000Z</time></trkpt><trkpt lat="14.760859" lon="101.183407"><ele>276.5</ele><time>1970-01-01T03:01:31.000Z</time></trkpt><trkpt lat="14.760818" lon="101.183408"><ele>277</ele><time>1970-01-01T03:01:32.000Z</time></trkpt><trkpt lat="14.760781" lon="101.183405"><ele>277.5</ele><time>1970-01-01T03:01:33.000Z</time></trkpt><trkpt lat="14.760747" lon="101.183398"><ele>277.8</ele><time>1970-01-01T03:01:34.000Z</time></trkpt><trkpt lat="14.760713" lon="101.18338"><ele>278.2</ele><time>1970-01-01T03:01:35.000Z</time></trkpt><trkpt lat="14.760678" lon="101.183358"><ele>278.8</ele><time>1970-01-01T03:01:36.000Z</time></trkpt><trkpt lat="14.760644" lon="101.183339"><ele>279.9</ele><time>1970-01-01T03:01:37.000Z</time></trkpt><trkpt lat="14.760609" lon="101.183325"><ele>280.9</ele><time>1970-01-01T03:01:38.000Z</time></trkpt><trkpt lat="14.760579" lon="101.18332"><ele>281.4</ele><time>1970-01-01T03:01:39.000Z</time></trkpt><trkpt lat="14.760552" lon="101.183323"><ele>281.8</ele><time>1970-01-01T03:01:40.000Z</time></trkpt><trkpt lat="14.760513" lon="101.18334"><ele>282.5</ele><time>1970-01-01T03:01:42.000Z</time></trkpt><trkpt lat="14.760474" lon="101.183361"><ele>283.4</ele><time>1970-01-01T03:01:44.000Z</time></trkpt><trkpt lat="14.760433" lon="101.183381"><ele>284.3</ele><time>1970-01-01T03:01:46.000Z</time></trkpt><trkpt lat="14.760392" lon="101.183392"><ele>284.6</ele><time>1970-01-01T03:01:48.000Z</time></trkpt><trkpt lat="14.760352" lon="101.183403"><ele>285</ele><time>1970-01-01T03:01:50.000Z</time></trkpt><trkpt lat="14.76031" lon="101.183419"><ele>285.3</ele><time>1970-01-01T03:01:52.000Z</time></trkpt><trkpt lat="14.760267" lon="101.183433"><ele>285.6</ele><time>1970-01-01T03:01:54.000Z</time></trkpt><trkpt lat="14.760222" lon="101.183434"><ele>286</ele><time>1970-01-01T03:01:56.000Z</time></trkpt><trkpt lat="14.760177" lon="101.183438"><ele>286.5</ele><time>1970-01-01T03:01:58.000Z</time></trkpt><trkpt lat="14.760149" lon="101.183455"><ele>286.6</ele><time>1970-01-01T03:01:59.000Z</time></trkpt><trkpt lat="14.760127" lon="101.183472"><ele>286.5</ele><time>1970-01-01T03:02:00.000Z</time></trkpt><trkpt lat="14.760103" lon="101.183489"><ele>286.5</ele><time>1970-01-01T03:02:01.000Z</time></trkpt><trkpt lat="14.760076" lon="101.183507"><ele>286.4</ele><time>1970-01-01T03:02:02.000Z</time></trkpt><trkpt lat="14.760048" lon="101.183524"><ele>286.4</ele><time>1970-01-01T03:02:03.000Z</time></trkpt><trkpt lat="14.760023" lon="101.183539"><ele>286.3</ele><time>1970-01-01T03:02:04.000Z</time></trkpt><trkpt lat="14.760001" lon="101.183557"><ele>286.2</ele><time>1970-01-01T03:02:05.000Z</time></trkpt><trkpt lat="14.759979" lon="101.183576"><ele>286.2</ele><time>1970-01-01T03:02:06.000Z</time></trkpt><trkpt lat="14.759958" lon="101.183598"><ele>286.1</ele><time>1970-01-01T03:02:07.000Z</time></trkpt><trkpt lat="14.759917" lon="101.183626"><ele>286.1</ele><time>1970-01-01T03:02:09.000Z</time></trkpt><trkpt lat="14.759882" lon="101.183647"><ele>286.2</ele><time>1970-01-01T03:02:11.000Z</time></trkpt><trkpt lat="14.759854" lon="101.183664"><ele>286.1</ele><time>1970-01-01T03:02:13.000Z</time></trkpt><trkpt lat="14.759823" lon="101.183682"><ele>285.9</ele><time>1970-01-01T03:02:15.000Z</time></trkpt><trkpt lat="14.759788" lon="101.183705"><ele>285.7</ele><time>1970-01-01T03:02:17.000Z</time></trkpt><trkpt lat="14.759747" lon="101.183738"><ele>285.5</ele><time>1970-01-01T03:02:19.000Z</time></trkpt><trkpt lat="14.75971" lon="101.183772"><ele>285.2</ele><time>1970-01-01T03:02:21.000Z</time></trkpt><trkpt lat="14.759672" lon="101.183812"><ele>285.2</ele><time>1970-01-01T03:02:23.000Z</time></trkpt><trkpt lat="14.759652" lon="101.183833"><ele>285.3</ele><time>1970-01-01T03:02:24.000Z</time></trkpt><trkpt lat="14.759618" lon="101.183868"><ele>285.2</ele><time>1970-01-01T03:02:26.000Z</time></trkpt><trkpt lat="14.759585" lon="101.183897"><ele>285.1</ele><time>1970-01-01T03:02:28.000Z</time></trkpt><trkpt lat="14.759551" lon="101.183926"><ele>285.1</ele><time>1970-01-01T03:02:30.000Z</time></trkpt><trkpt lat="14.759514" lon="101.183957"><ele>285.2</ele><time>1970-01-01T03:02:32.000Z</time></trkpt><trkpt lat="14.759476" lon="101.183979"><ele>285.3</ele><time>1970-01-01T03:02:34.000Z</time></trkpt><trkpt lat="14.759429" lon="101.184007"><ele>285.5</ele><time>1970-01-01T03:02:36.000Z</time></trkpt><trkpt lat="14.759402" lon="101.184027"><ele>285.8</ele><time>1970-01-01T03:02:37.000Z</time></trkpt><trkpt lat="14.759376" lon="101.184048"><ele>286.3</ele><time>1970-01-01T03:02:38.000Z</time></trkpt><trkpt lat="14.759353" lon="101.184064"><ele>286.6</ele><time>1970-01-01T03:02:39.000Z</time></trkpt><trkpt lat="14.759315" lon="101.18408"><ele>287.2</ele><time>1970-01-01T03:02:41.000Z</time></trkpt><trkpt lat="14.759288" lon="101.184096"><ele>287.6</ele><time>1970-01-01T03:02:43.000Z</time></trkpt><trkpt lat="14.759259" lon="101.184123"><ele>288.2</ele><time>1970-01-01T03:02:45.000Z</time></trkpt><trkpt lat="14.759225" lon="101.184152"><ele>288.6</ele><time>1970-01-01T03:02:47.000Z</time></trkpt><trkpt lat="14.759191" lon="101.184177"><ele>289</ele><time>1970-01-01T03:02:49.000Z</time></trkpt><trkpt lat="14.759158" lon="101.184172"><ele>289.4</ele><time>1970-01-01T03:02:51.000Z</time></trkpt><trkpt lat="14.759117" lon="101.184144"><ele>290</ele><time>1970-01-01T03:02:53.000Z</time></trkpt><trkpt lat="14.759088" lon="101.184126"><ele>290.3</ele><time>1970-01-01T03:02:55.000Z</time></trkpt><trkpt lat="14.759051" lon="101.184129"><ele>290.6</ele><time>1970-01-01T03:02:57.000Z</time></trkpt><trkpt lat="14.759015" lon="101.184133"><ele>290.8</ele><time>1970-01-01T03:02:59.000Z</time></trkpt><trkpt lat="14.758979" lon="101.184146"><ele>290.8</ele><time>1970-01-01T03:03:02.000Z</time></trkpt><trkpt lat="14.758951" lon="101.184166"><ele>291.3</ele><time>1970-01-01T03:03:04.000Z</time></trkpt><trkpt lat="14.758913" lon="101.184176"><ele>292.1</ele><time>1970-01-01T03:03:07.000Z</time></trkpt><trkpt lat="14.758876" lon="101.184177"><ele>293</ele><time>1970-01-01T03:03:10.000Z</time></trkpt><trkpt lat="14.75884" lon="101.184188"><ele>294.1</ele><time>1970-01-01T03:03:13.000Z</time></trkpt><trkpt lat="14.758807" lon="101.18419"><ele>294.7</ele><time>1970-01-01T03:03:15.000Z</time></trkpt><trkpt lat="14.758767" lon="101.184195"><ele>294.8</ele><time>1970-01-01T03:03:17.000Z</time></trkpt><trkpt lat="14.758734" lon="101.184194"><ele>295.1</ele><time>1970-01-01T03:03:19.000Z</time></trkpt><trkpt lat="14.758698" lon="101.184189"><ele>296</ele><time>1970-01-01T03:03:21.000Z</time></trkpt><trkpt lat="14.758659" lon="101.184192"><ele>296.5</ele><time>1970-01-01T03:03:23.000Z</time></trkpt><trkpt lat="14.758619" lon="101.184198"><ele>296.6</ele><time>1970-01-01T03:03:25.000Z</time></trkpt><trkpt lat="14.758587" lon="101.184202"><ele>296.6</ele><time>1970-01-01T03:03:27.000Z</time></trkpt><trkpt lat="14.75855" lon="101.184204"><ele>296.6</ele><time>1970-01-01T03:03:29.000Z</time></trkpt><trkpt lat="14.758521" lon="101.184206"><ele>296.8</ele><time>1970-01-01T03:03:31.000Z</time></trkpt><trkpt lat="14.758494" lon="101.184214"><ele>297.1</ele><time>1970-01-01T03:03:33.000Z</time></trkpt><trkpt lat="14.758464" lon="101.184226"><ele>297.5</ele><time>1970-01-01T03:03:35.000Z</time></trkpt><trkpt lat="14.758429" lon="101.184239"><ele>298.1</ele><time>1970-01-01T03:03:38.000Z</time></trkpt><trkpt lat="14.758397" lon="101.184251"><ele>298.6</ele><time>1970-01-01T03:03:41.000Z</time></trkpt><trkpt lat="14.758361" lon="101.184252"><ele>299.3</ele><time>1970-01-01T03:03:45.000Z</time></trkpt><trkpt lat="14.758328" lon="101.184253"><ele>299.9</ele><time>1970-01-01T03:03:48.000Z</time></trkpt><trkpt lat="14.758302" lon="101.184237"><ele>300.5</ele><time>1970-01-01T03:03:51.000Z</time></trkpt><trkpt lat="14.758267" lon="101.184232"><ele>301.2</ele><time>1970-01-01T03:03:54.000Z</time></trkpt><trkpt lat="14.758236" lon="101.184233"><ele>301.8</ele><time>1970-01-01T03:03:56.000Z</time></trkpt><trkpt lat="14.758201" lon="101.184232"><ele>302.4</ele><time>1970-01-01T03:03:59.000Z</time></trkpt><trkpt lat="14.758165" lon="101.184234"><ele>303.1</ele><time>1970-01-01T03:04:02.000Z</time></trkpt><trkpt lat="14.758137" lon="101.184242"><ele>303.6</ele><time>1970-01-01T03:04:07.000Z</time></trkpt><trkpt lat="14.758109" lon="101.184235"><ele>304.1</ele><time>1970-01-01T03:04:21.000Z</time></trkpt><trkpt lat="14.758082" lon="101.184226"><ele>304.6</ele><time>1970-01-01T03:04:27.000Z</time></trkpt><trkpt lat="14.758058" lon="101.184211"><ele>305.1</ele><time>1970-01-01T03:04:35.000Z</time></trkpt><trkpt lat="14.758027" lon="101.184216"><ele>305.6</ele><time>1970-01-01T03:04:42.000Z</time></trkpt><trkpt lat="14.757997" lon="101.184227"><ele>306.2</ele><time>1970-01-01T03:04:45.000Z</time></trkpt><trkpt lat="14.757969" lon="101.18423"><ele>306.8</ele><time>1970-01-01T03:04:48.000Z</time></trkpt><trkpt lat="14.757938" lon="101.184215"><ele>307.9</ele><time>1970-01-01T03:04:53.000Z</time></trkpt><trkpt lat="14.757906" lon="101.18421"><ele>309.1</ele><time>1970-01-01T03:04:59.000Z</time></trkpt><trkpt lat="14.757875" lon="101.18421"><ele>310.1</ele><time>1970-01-01T03:05:07.000Z</time></trkpt><trkpt lat="14.757843" lon="101.184208"><ele>310.8</ele><time>1970-01-01T03:05:12.000Z</time></trkpt><trkpt lat="14.757815" lon="101.184203"><ele>311.4</ele><time>1970-01-01T03:05:15.000Z</time></trkpt><trkpt lat="14.757783" lon="101.184209"><ele>311.9</ele><time>1970-01-01T03:05:22.000Z</time></trkpt><trkpt lat="14.757751" lon="101.184216"><ele>312.2</ele><time>1970-01-01T03:05:27.000Z</time></trkpt><trkpt lat="14.757721" lon="101.184205"><ele>312.5</ele><time>1970-01-01T03:05:31.000Z</time></trkpt><trkpt lat="14.757692" lon="101.184187"><ele>312.5</ele><time>1970-01-01T03:05:34.000Z</time></trkpt><trkpt lat="14.757665" lon="101.184173"><ele>312.4</ele><time>1970-01-01T03:05:38.000Z</time></trkpt><trkpt lat="14.757629" lon="101.184163"><ele>312.4</ele><time>1970-01-01T03:05:42.000Z</time></trkpt><trkpt lat="14.757607" lon="101.184134"><ele>312.1</ele><time>1970-01-01T03:05:45.000Z</time></trkpt><trkpt lat="14.757585" lon="101.18411"><ele>311.9</ele><time>1970-01-01T03:05:49.000Z</time></trkpt><trkpt lat="14.757561" lon="101.184092"><ele>312.1</ele><time>1970-01-01T03:05:54.000Z</time></trkpt><trkpt lat="14.757534" lon="101.184076"><ele>312.2</ele><time>1970-01-01T03:05:58.000Z</time></trkpt><trkpt lat="14.757506" lon="101.184065"><ele>312.4</ele><time>1970-01-01T03:06:01.000Z</time></trkpt><trkpt lat="14.757463" lon="101.184051"><ele>313.3</ele><time>1970-01-01T03:06:03.000Z</time></trkpt><trkpt lat="14.757434" lon="101.184037"><ele>313.9</ele><time>1970-01-01T03:06:04.000Z</time></trkpt><trkpt lat="14.757405" lon="101.184021"><ele>314.4</ele><time>1970-01-01T03:06:05.000Z</time></trkpt><trkpt lat="14.757378" lon="101.184011"><ele>314.8</ele><time>1970-01-01T03:06:06.000Z</time></trkpt><trkpt lat="14.757352" lon="101.184002"><ele>315.1</ele><time>1970-01-01T03:06:07.000Z</time></trkpt><trkpt lat="14.757326" lon="101.183993"><ele>315.3</ele><time>1970-01-01T03:06:08.000Z</time></trkpt><trkpt lat="14.757299" lon="101.183989"><ele>315.3</ele><time>1970-01-01T03:06:09.000Z</time></trkpt><trkpt lat="14.757246" lon="101.183981"><ele>315.3</ele><time>1970-01-01T03:06:11.000Z</time></trkpt><trkpt lat="14.757198" lon="101.18398"><ele>314.6</ele><time>1970-01-01T03:06:13.000Z</time></trkpt><trkpt lat="14.757151" lon="101.183985"><ele>314.1</ele><time>1970-01-01T03:06:15.000Z</time></trkpt><trkpt lat="14.757104" lon="101.183984"><ele>313.8</ele><time>1970-01-01T03:06:17.000Z</time></trkpt><trkpt lat="14.757078" lon="101.183974"><ele>313.7</ele><time>1970-01-01T03:06:18.000Z</time></trkpt><trkpt lat="14.757046" lon="101.183962"><ele>313.3</ele><time>1970-01-01T03:06:19.000Z</time></trkpt><trkpt lat="14.757008" lon="101.18395"><ele>313</ele><time>1970-01-01T03:06:20.000Z</time></trkpt><trkpt lat="14.756959" lon="101.183934"><ele>312.5</ele><time>1970-01-01T03:06:21.000Z</time></trkpt><trkpt lat="14.756911" lon="101.183914"><ele>312.1</ele><time>1970-01-01T03:06:22.000Z</time></trkpt><trkpt lat="14.756863" lon="101.183888"><ele>312.3</ele><time>1970-01-01T03:06:23.000Z</time></trkpt><trkpt lat="14.756786" lon="101.183774"><ele>310.4</ele><time>1970-01-01T03:06:24.000Z</time></trkpt><trkpt lat="14.756732" lon="101.183754"><ele>309.9</ele><time>1970-01-01T03:06:25.000Z</time></trkpt><trkpt lat="14.756686" lon="101.183721"><ele>309.9</ele><time>1970-01-01T03:06:26.000Z</time></trkpt><trkpt lat="14.756665" lon="101.183672"><ele>310.1</ele><time>1970-01-01T03:06:27.000Z</time></trkpt><trkpt lat="14.756655" lon="101.183625"><ele>309.7</ele><time>1970-01-01T03:06:28.000Z</time></trkpt><trkpt lat="14.756624" lon="101.183587"><ele>309.1</ele><time>1970-01-01T03:06:29.000Z</time></trkpt><trkpt lat="14.756602" lon="101.18354"><ele>310.3</ele><time>1970-01-01T03:06:30.000Z</time></trkpt><trkpt lat="14.756584" lon="101.183503"><ele>311.3</ele><time>1970-01-01T03:06:31.000Z</time></trkpt><trkpt lat="14.756579" lon="101.183471"><ele>312.1</ele><time>1970-01-01T03:06:32.000Z</time></trkpt><trkpt lat="14.756561" lon="101.183436"><ele>312.9</ele><time>1970-01-01T03:06:33.000Z</time></trkpt><trkpt lat="14.756543" lon="101.183392"><ele>313.5</ele><time>1970-01-01T03:06:34.000Z</time></trkpt><trkpt lat="14.756531" lon="101.183348"><ele>314.2</ele><time>1970-01-01T03:06:35.000Z</time></trkpt><trkpt lat="14.75652" lon="101.183309"><ele>314.9</ele><time>1970-01-01T03:06:36.000Z</time></trkpt><trkpt lat="14.756508" lon="101.183275"><ele>315.3</ele><time>1970-01-01T03:06:37.000Z</time></trkpt><trkpt lat="14.756502" lon="101.18324"><ele>315.5</ele><time>1970-01-01T03:06:38.000Z</time></trkpt><trkpt lat="14.756497" lon="101.183203"><ele>315.5</ele><time>1970-01-01T03:06:39.000Z</time></trkpt><trkpt lat="14.756494" lon="101.183162"><ele>315.2</ele><time>1970-01-01T03:06:40.000Z</time></trkpt><trkpt lat="14.756492" lon="101.183119"><ele>315</ele><time>1970-01-01T03:06:41.000Z</time></trkpt><trkpt lat="14.756491" lon="101.183076"><ele>314.9</ele><time>1970-01-01T03:06:42.000Z</time></trkpt><trkpt lat="14.75649" lon="101.183038"><ele>314.8</ele><time>1970-01-01T03:06:43.000Z</time></trkpt><trkpt lat="14.75649" lon="101.183001"><ele>314.7</ele><time>1970-01-01T03:06:44.000Z</time></trkpt><trkpt lat="14.756494" lon="101.182962"><ele>314.5</ele><time>1970-01-01T03:06:45.000Z</time></trkpt><trkpt lat="14.756497" lon="101.182924"><ele>314.2</ele><time>1970-01-01T03:06:46.000Z</time></trkpt><trkpt lat="14.756498" lon="101.182886"><ele>313.9</ele><time>1970-01-01T03:06:47.000Z</time></trkpt><trkpt lat="14.756498" lon="101.182844"><ele>314.1</ele><time>1970-01-01T03:06:48.000Z</time></trkpt><trkpt lat="14.756496" lon="101.182803"><ele>314.3</ele><time>1970-01-01T03:06:49.000Z</time></trkpt><trkpt lat="14.756494" lon="101.182765"><ele>314.4</ele><time>1970-01-01T03:06:50.000Z</time></trkpt><trkpt lat="14.75649" lon="101.182732"><ele>314.5</ele><time>1970-01-01T03:06:51.000Z</time></trkpt><trkpt lat="14.756485" lon="101.182701"><ele>314.5</ele><time>1970-01-01T03:06:52.000Z</time></trkpt><trkpt lat="14.756477" lon="101.182664"><ele>314.3</ele><time>1970-01-01T03:06:53.000Z</time></trkpt><trkpt lat="14.756469" lon="101.182633"><ele>314.1</ele><time>1970-01-01T03:06:54.000Z</time></trkpt><trkpt lat="14.756462" lon="101.182599"><ele>314.1</ele><time>1970-01-01T03:06:55.000Z</time></trkpt><trkpt lat="14.756455" lon="101.182559"><ele>314</ele><time>1970-01-01T03:06:56.000Z</time></trkpt><trkpt lat="14.756447" lon="101.182514"><ele>314</ele><time>1970-01-01T03:06:57.000Z</time></trkpt><trkpt lat="14.756441" lon="101.182464"><ele>314</ele><time>1970-01-01T03:06:58.000Z</time></trkpt><trkpt lat="14.756462" lon="101.182374"><ele>314</ele><time>1970-01-01T03:06:59.000Z</time></trkpt><trkpt lat="14.756465" lon="101.182341"><ele>313.8</ele><time>1970-01-01T03:07:00.000Z</time></trkpt><trkpt lat="14.756433" lon="101.182303"><ele>313.5</ele><time>1970-01-01T03:07:01.000Z</time></trkpt><trkpt lat="14.75641" lon="101.182243"><ele>313.5</ele><time>1970-01-01T03:07:04.000Z</time></trkpt><trkpt lat="14.7564" lon="101.1822"><ele>313.6</ele><time>1970-01-01T03:07:05.000Z</time></trkpt><trkpt lat="14.756393" lon="101.182152"><ele>313.7</ele><time>1970-01-01T03:07:06.000Z</time></trkpt><trkpt lat="14.756386" lon="101.182119"><ele>313.7</ele><time>1970-01-01T03:07:07.000Z</time></trkpt><trkpt lat="14.756379" lon="101.182087"><ele>313.8</ele><time>1970-01-01T03:07:08.000Z</time></trkpt><trkpt lat="14.756363" lon="101.182055"><ele>314</ele><time>1970-01-01T03:07:09.000Z</time></trkpt><trkpt lat="14.756356" lon="101.182017"><ele>314</ele><time>1970-01-01T03:07:10.000Z</time></trkpt><trkpt lat="14.756354" lon="101.181977"><ele>314</ele><time>1970-01-01T03:07:11.000Z</time></trkpt><trkpt lat="14.756348" lon="101.181937"><ele>314</ele><time>1970-01-01T03:07:12.000Z</time></trkpt><trkpt lat="14.756346" lon="101.181893"><ele>313.9</ele><time>1970-01-01T03:07:13.000Z</time></trkpt><trkpt lat="14.75634" lon="101.181851"><ele>313.9</ele><time>1970-01-01T03:07:14.000Z</time></trkpt><trkpt lat="14.75633" lon="101.18181"><ele>314</ele><time>1970-01-01T03:07:15.000Z</time></trkpt><trkpt lat="14.75632" lon="101.18177"><ele>314</ele><time>1970-01-01T03:07:16.000Z</time></trkpt><trkpt lat="14.756309" lon="101.181732"><ele>314.2</ele><time>1970-01-01T03:07:17.000Z</time></trkpt><trkpt lat="14.756297" lon="101.181697"><ele>314.3</ele><time>1970-01-01T03:07:18.000Z</time></trkpt><trkpt lat="14.756288" lon="101.181663"><ele>314.5</ele><time>1970-01-01T03:07:19.000Z</time></trkpt><trkpt lat="14.756282" lon="101.181628"><ele>314.8</ele><time>1970-01-01T03:07:20.000Z</time></trkpt><trkpt lat="14.756279" lon="101.181591"><ele>315</ele><time>1970-01-01T03:07:21.000Z</time></trkpt><trkpt lat="14.756274" lon="101.181552"><ele>315.3</ele><time>1970-01-01T03:07:22.000Z</time></trkpt><trkpt lat="14.756268" lon="101.181514"><ele>315.5</ele><time>1970-01-01T03:07:23.000Z</time></trkpt><trkpt lat="14.756258" lon="101.181476"><ele>315.4</ele><time>1970-01-01T03:07:24.000Z</time></trkpt><trkpt lat="14.756244" lon="101.181435"><ele>315.3</ele><time>1970-01-01T03:07:25.000Z</time></trkpt><trkpt lat="14.756228" lon="101.181398"><ele>315.2</ele><time>1970-01-01T03:07:26.000Z</time></trkpt><trkpt lat="14.756208" lon="101.181362"><ele>315.1</ele><time>1970-01-01T03:07:27.000Z</time></trkpt><trkpt lat="14.756186" lon="101.181326"><ele>315.1</ele><time>1970-01-01T03:07:28.000Z</time></trkpt><trkpt lat="14.756164" lon="101.181291"><ele>315.1</ele><time>1970-01-01T03:07:29.000Z</time></trkpt><trkpt lat="14.756145" lon="101.181257"><ele>315.1</ele><time>1970-01-01T03:07:30.000Z</time></trkpt><trkpt lat="14.756129" lon="101.181225"><ele>315.2</ele><time>1970-01-01T03:07:31.000Z</time></trkpt><trkpt lat="14.756117" lon="101.181192"><ele>315.2</ele><time>1970-01-01T03:07:32.000Z</time></trkpt><trkpt lat="14.756107" lon="101.181159"><ele>315.1</ele><time>1970-01-01T03:07:33.000Z</time></trkpt><trkpt lat="14.756098" lon="101.181128"><ele>315.1</ele><time>1970-01-01T03:07:34.000Z</time></trkpt><trkpt lat="14.756088" lon="101.181096"><ele>315.1</ele><time>1970-01-01T03:07:35.000Z</time></trkpt><trkpt lat="14.756076" lon="101.181063"><ele>315.1</ele><time>1970-01-01T03:07:36.000Z</time></trkpt><trkpt lat="14.756063" lon="101.181031"><ele>315.1</ele><time>1970-01-01T03:07:37.000Z</time></trkpt><trkpt lat="14.75605" lon="101.180999"><ele>315.1</ele><time>1970-01-01T03:07:38.000Z</time></trkpt><trkpt lat="14.756037" lon="101.180967"><ele>315.1</ele><time>1970-01-01T03:07:39.000Z</time></trkpt><trkpt lat="14.756026" lon="101.180933"><ele>315.1</ele><time>1970-01-01T03:07:40.000Z</time></trkpt><trkpt lat="14.756014" lon="101.180897"><ele>315.1</ele><time>1970-01-01T03:07:41.000Z</time></trkpt><trkpt lat="14.756003" lon="101.180863"><ele>315.1</ele><time>1970-01-01T03:07:42.000Z</time></trkpt><trkpt lat="14.755992" lon="101.180828"><ele>315.1</ele><time>1970-01-01T03:07:43.000Z</time></trkpt><trkpt lat="14.75598" lon="101.180794"><ele>315.1</ele><time>1970-01-01T03:07:44.000Z</time></trkpt><trkpt lat="14.75597" lon="101.18076"><ele>315.1</ele><time>1970-01-01T03:07:45.000Z</time></trkpt><trkpt lat="14.755959" lon="101.180724"><ele>315.1</ele><time>1970-01-01T03:07:46.000Z</time></trkpt><trkpt lat="14.755949" lon="101.180691"><ele>315.2</ele><time>1970-01-01T03:07:47.000Z</time></trkpt><trkpt lat="14.75594" lon="101.18066"><ele>315.2</ele><time>1970-01-01T03:07:48.000Z</time></trkpt><trkpt lat="14.755932" lon="101.180632"><ele>315.3</ele><time>1970-01-01T03:07:49.000Z</time></trkpt><trkpt lat="14.755923" lon="101.180604"><ele>315.5</ele><time>1970-01-01T03:07:50.000Z</time></trkpt><trkpt lat="14.755915" lon="101.180577"><ele>315.6</ele><time>1970-01-01T03:07:51.000Z</time></trkpt><trkpt lat="14.755898" lon="101.180524"><ele>316.1</ele><time>1970-01-01T03:07:53.000Z</time></trkpt><trkpt lat="14.755892" lon="101.180497"><ele>316.5</ele><time>1970-01-01T03:07:54.000Z</time></trkpt><trkpt lat="14.75588" lon="101.180451"><ele>317.1</ele><time>1970-01-01T03:07:56.000Z</time></trkpt><trkpt lat="14.755866" lon="101.1804"><ele>317.8</ele><time>1970-01-01T03:07:58.000Z</time></trkpt><trkpt lat="14.755854" lon="101.180345"><ele>318.1</ele><time>1970-01-01T03:08:00.000Z</time></trkpt><trkpt lat="14.755847" lon="101.180317"><ele>318.2</ele><time>1970-01-01T03:08:01.000Z</time></trkpt><trkpt lat="14.75584" lon="101.180288"><ele>318.4</ele><time>1970-01-01T03:08:02.000Z</time></trkpt><trkpt lat="14.755833" lon="101.180259"><ele>318.8</ele><time>1970-01-01T03:08:03.000Z</time></trkpt><trkpt lat="14.755825" lon="101.180231"><ele>319.1</ele><time>1970-01-01T03:08:04.000Z</time></trkpt><trkpt lat="14.755818" lon="101.180204"><ele>319.2</ele><time>1970-01-01T03:08:05.000Z</time></trkpt><trkpt lat="14.755803" lon="101.180154"><ele>319.2</ele><time>1970-01-01T03:08:07.000Z</time></trkpt><trkpt lat="14.755793" lon="101.180126"><ele>319.7</ele><time>1970-01-01T03:08:08.000Z</time></trkpt><trkpt lat="14.755784" lon="101.180098"><ele>320.3</ele><time>1970-01-01T03:08:09.000Z</time></trkpt><trkpt lat="14.755774" lon="101.18007"><ele>320.8</ele><time>1970-01-01T03:08:10.000Z</time></trkpt><trkpt lat="14.755765" lon="101.180042"><ele>321.3</ele><time>1970-01-01T03:08:11.000Z</time></trkpt><trkpt lat="14.755756" lon="101.180014"><ele>321.7</ele><time>1970-01-01T03:08:12.000Z</time></trkpt><trkpt lat="14.755745" lon="101.179985"><ele>322.1</ele><time>1970-01-01T03:08:13.000Z</time></trkpt><trkpt lat="14.755722" lon="101.17994"><ele>322.9</ele><time>1970-01-01T03:08:15.000Z</time></trkpt><trkpt lat="14.755696" lon="101.179893"><ele>323.7</ele><time>1970-01-01T03:08:17.000Z</time></trkpt><trkpt lat="14.755675" lon="101.179844"><ele>324</ele><time>1970-01-01T03:08:19.000Z</time></trkpt><trkpt lat="14.755658" lon="101.179797"><ele>324.4</ele><time>1970-01-01T03:08:21.000Z</time></trkpt><trkpt lat="14.755644" lon="101.179755"><ele>324.7</ele><time>1970-01-01T03:08:23.000Z</time></trkpt><trkpt lat="14.755629" lon="101.179708"><ele>325.3</ele><time>1970-01-01T03:08:25.000Z</time></trkpt><trkpt lat="14.755611" lon="101.179663"><ele>326.2</ele><time>1970-01-01T03:08:27.000Z</time></trkpt><trkpt lat="14.755596" lon="101.179624"><ele>327.1</ele><time>1970-01-01T03:08:29.000Z</time></trkpt><trkpt lat="14.755579" lon="101.179576"><ele>328.1</ele><time>1970-01-01T03:08:31.000Z</time></trkpt><trkpt lat="14.75556" lon="101.179528"><ele>328.6</ele><time>1970-01-01T03:08:33.000Z</time></trkpt><trkpt lat="14.755549" lon="101.179502"><ele>328.9</ele><time>1970-01-01T03:08:34.000Z</time></trkpt><trkpt lat="14.755538" lon="101.179476"><ele>329.3</ele><time>1970-01-01T03:08:35.000Z</time></trkpt><trkpt lat="14.755528" lon="101.179449"><ele>329.7</ele><time>1970-01-01T03:08:36.000Z</time></trkpt><trkpt lat="14.755506" lon="101.179397"><ele>330.3</ele><time>1970-01-01T03:08:38.000Z</time></trkpt><trkpt lat="14.755496" lon="101.17937"><ele>330.5</ele><time>1970-01-01T03:08:39.000Z</time></trkpt><trkpt lat="14.755479" lon="101.179324"><ele>330.7</ele><time>1970-01-01T03:08:41.000Z</time></trkpt><trkpt lat="14.755462" lon="101.179276"><ele>330.9</ele><time>1970-01-01T03:08:43.000Z</time></trkpt><trkpt lat="14.755446" lon="101.179232"><ele>331.1</ele><time>1970-01-01T03:08:45.000Z</time></trkpt><trkpt lat="14.755429" lon="101.179198"><ele>331.3</ele><time>1970-01-01T03:08:47.000Z</time></trkpt><trkpt lat="14.755405" lon="101.179152"><ele>331.3</ele><time>1970-01-01T03:08:49.000Z</time></trkpt><trkpt lat="14.755384" lon="101.179101"><ele>331.6</ele><time>1970-01-01T03:08:51.000Z</time></trkpt><trkpt lat="14.755374" lon="101.179073"><ele>331.9</ele><time>1970-01-01T03:08:52.000Z</time></trkpt><trkpt lat="14.755364" lon="101.179043"><ele>332</ele><time>1970-01-01T03:08:53.000Z</time></trkpt><trkpt lat="14.755356" lon="101.179015"><ele>332.1</ele><time>1970-01-01T03:08:54.000Z</time></trkpt><trkpt lat="14.755345" lon="101.178964"><ele>332.3</ele><time>1970-01-01T03:08:56.000Z</time></trkpt><trkpt lat="14.755335" lon="101.178913"><ele>332.4</ele><time>1970-01-01T03:08:58.000Z</time></trkpt><trkpt lat="14.755324" lon="101.178865"><ele>332.6</ele><time>1970-01-01T03:09:00.000Z</time></trkpt><trkpt lat="14.755311" lon="101.178815"><ele>332.8</ele><time>1970-01-01T03:09:02.000Z</time></trkpt><trkpt lat="14.755297" lon="101.178765"><ele>333</ele><time>1970-01-01T03:09:04.000Z</time></trkpt><trkpt lat="14.755288" lon="101.178734"><ele>333.2</ele><time>1970-01-01T03:09:05.000Z</time></trkpt><trkpt lat="14.755279" lon="101.178699"><ele>333.4</ele><time>1970-01-01T03:09:06.000Z</time></trkpt><trkpt lat="14.75527" lon="101.178661"><ele>333.7</ele><time>1970-01-01T03:09:07.000Z</time></trkpt><trkpt lat="14.755261" lon="101.178622"><ele>334</ele><time>1970-01-01T03:09:08.000Z</time></trkpt><trkpt lat="14.755254" lon="101.178589"><ele>334.3</ele><time>1970-01-01T03:09:09.000Z</time></trkpt><trkpt lat="14.755247" lon="101.178557"><ele>334.6</ele><time>1970-01-01T03:09:10.000Z</time></trkpt><trkpt lat="14.75524" lon="101.178523"><ele>335.1</ele><time>1970-01-01T03:09:11.000Z</time></trkpt><trkpt lat="14.755233" lon="101.178489"><ele>335.5</ele><time>1970-01-01T03:09:12.000Z</time></trkpt><trkpt lat="14.755226" lon="101.178456"><ele>336.1</ele><time>1970-01-01T03:09:13.000Z</time></trkpt><trkpt lat="14.755221" lon="101.178427"><ele>336.7</ele><time>1970-01-01T03:09:14.000Z</time></trkpt><trkpt lat="14.75521" lon="101.178378"><ele>337.3</ele><time>1970-01-01T03:09:16.000Z</time></trkpt><trkpt lat="14.755196" lon="101.178327"><ele>337.9</ele><time>1970-01-01T03:09:18.000Z</time></trkpt><trkpt lat="14.755182" lon="101.178279"><ele>338.3</ele><time>1970-01-01T03:09:20.000Z</time></trkpt><trkpt lat="14.755169" lon="101.178236"><ele>338.5</ele><time>1970-01-01T03:09:22.000Z</time></trkpt><trkpt lat="14.755157" lon="101.178183"><ele>338.2</ele><time>1970-01-01T03:09:24.000Z</time></trkpt><trkpt lat="14.755146" lon="101.178135"><ele>337.8</ele><time>1970-01-01T03:09:26.000Z</time></trkpt><trkpt lat="14.755134" lon="101.178091"><ele>337.4</ele><time>1970-01-01T03:09:28.000Z</time></trkpt><trkpt lat="14.755122" lon="101.178047"><ele>337.3</ele><time>1970-01-01T03:09:30.000Z</time></trkpt><trkpt lat="14.755111" lon="101.178004"><ele>337.6</ele><time>1970-01-01T03:09:32.000Z</time></trkpt><trkpt lat="14.755103" lon="101.177947"><ele>338.1</ele><time>1970-01-01T03:09:34.000Z</time></trkpt><trkpt lat="14.755099" lon="101.177911"><ele>338.5</ele><time>1970-01-01T03:09:35.000Z</time></trkpt><trkpt lat="14.755097" lon="101.177877"><ele>339</ele><time>1970-01-01T03:09:36.000Z</time></trkpt><trkpt lat="14.755093" lon="101.177843"><ele>339.6</ele><time>1970-01-01T03:09:37.000Z</time></trkpt><trkpt lat="14.755091" lon="101.177809"><ele>340.2</ele><time>1970-01-01T03:09:38.000Z</time></trkpt><trkpt lat="14.755089" lon="101.177771"><ele>340.8</ele><time>1970-01-01T03:09:39.000Z</time></trkpt><trkpt lat="14.755088" lon="101.177735"><ele>341.4</ele><time>1970-01-01T03:09:40.000Z</time></trkpt><trkpt lat="14.755085" lon="101.177701"><ele>341.9</ele><time>1970-01-01T03:09:41.000Z</time></trkpt><trkpt lat="14.755082" lon="101.177667"><ele>342.4</ele><time>1970-01-01T03:09:42.000Z</time></trkpt><trkpt lat="14.755079" lon="101.177635"><ele>342.9</ele><time>1970-01-01T03:09:43.000Z</time></trkpt><trkpt lat="14.755078" lon="101.177604"><ele>343.2</ele><time>1970-01-01T03:09:44.000Z</time></trkpt><trkpt lat="14.755078" lon="101.177571"><ele>343.5</ele><time>1970-01-01T03:09:45.000Z</time></trkpt><trkpt lat="14.755079" lon="101.177539"><ele>343.8</ele><time>1970-01-01T03:09:46.000Z</time></trkpt><trkpt lat="14.755081" lon="101.17751"><ele>344</ele><time>1970-01-01T03:09:47.000Z</time></trkpt><trkpt lat="14.75509" lon="101.177457"><ele>344.5</ele><time>1970-01-01T03:09:49.000Z</time></trkpt><trkpt lat="14.755097" lon="101.177427"><ele>344.5</ele><time>1970-01-01T03:09:50.000Z</time></trkpt><trkpt lat="14.755103" lon="101.177398"><ele>344.5</ele><time>1970-01-01T03:09:51.000Z</time></trkpt><trkpt lat="14.75511" lon="101.17737"><ele>344.5</ele><time>1970-01-01T03:09:52.000Z</time></trkpt><trkpt lat="14.755123" lon="101.17733"><ele>344.5</ele><time>1970-01-01T03:09:54.000Z</time></trkpt><trkpt lat="14.755135" lon="101.177285"><ele>344.4</ele><time>1970-01-01T03:09:56.000Z</time></trkpt><trkpt lat="14.75514" lon="101.177257"><ele>344.2</ele><time>1970-01-01T03:09:57.000Z</time></trkpt><trkpt lat="14.755145" lon="101.177229"><ele>344.1</ele><time>1970-01-01T03:09:58.000Z</time></trkpt><trkpt lat="14.755152" lon="101.1772"><ele>344</ele><time>1970-01-01T03:09:59.000Z</time></trkpt><trkpt lat="14.755162" lon="101.177172"><ele>343.8</ele><time>1970-01-01T03:10:00.000Z</time></trkpt><trkpt lat="14.755173" lon="101.17712"><ele>343.7</ele><time>1970-01-01T03:10:02.000Z</time></trkpt><trkpt lat="14.755179" lon="101.17709"><ele>343.6</ele><time>1970-01-01T03:10:03.000Z</time></trkpt><trkpt lat="14.755181" lon="101.177061"><ele>343.6</ele><time>1970-01-01T03:10:04.000Z</time></trkpt><trkpt lat="14.755177" lon="101.177014"><ele>343.3</ele><time>1970-01-01T03:10:06.000Z</time></trkpt><trkpt lat="14.755174" lon="101.17698"><ele>343.1</ele><time>1970-01-01T03:10:07.000Z</time></trkpt><trkpt lat="14.75517" lon="101.176942"><ele>342.9</ele><time>1970-01-01T03:10:08.000Z</time></trkpt><trkpt lat="14.755164" lon="101.176902"><ele>342.7</ele><time>1970-01-01T03:10:09.000Z</time></trkpt><trkpt lat="14.755159" lon="101.176858"><ele>342.3</ele><time>1970-01-01T03:10:10.000Z</time></trkpt><trkpt lat="14.755154" lon="101.17681"><ele>341.7</ele><time>1970-01-01T03:10:11.000Z</time></trkpt><trkpt lat="14.755152" lon="101.176758"><ele>341.4</ele><time>1970-01-01T03:10:12.000Z</time></trkpt><trkpt lat="14.755151" lon="101.176708"><ele>341</ele><time>1970-01-01T03:10:13.000Z</time></trkpt><trkpt lat="14.75515" lon="101.176658"><ele>340.5</ele><time>1970-01-01T03:10:14.000Z</time></trkpt><trkpt lat="14.755146" lon="101.176609"><ele>340.1</ele><time>1970-01-01T03:10:15.000Z</time></trkpt><trkpt lat="14.755135" lon="101.176523"><ele>339.8</ele><time>1970-01-01T03:10:16.000Z</time></trkpt><trkpt lat="14.755125" lon="101.176469"><ele>340</ele><time>1970-01-01T03:10:17.000Z</time></trkpt><trkpt lat="14.755123" lon="101.17642"><ele>340.3</ele><time>1970-01-01T03:10:18.000Z</time></trkpt><trkpt lat="14.755111" lon="101.176389"><ele>340.5</ele><time>1970-01-01T03:10:19.000Z</time></trkpt><trkpt lat="14.755099" lon="101.176339"><ele>340.6</ele><time>1970-01-01T03:10:20.000Z</time></trkpt><trkpt lat="14.755092" lon="101.176276"><ele>340.4</ele><time>1970-01-01T03:10:21.000Z</time></trkpt><trkpt lat="14.755071" lon="101.176223"><ele>339.7</ele><time>1970-01-01T03:10:22.000Z</time></trkpt><trkpt lat="14.755053" lon="101.176165"><ele>339.7</ele><time>1970-01-01T03:10:23.000Z</time></trkpt><trkpt lat="14.755034" lon="101.176105"><ele>339.8</ele><time>1970-01-01T03:10:24.000Z</time></trkpt><trkpt lat="14.755011" lon="101.176051"><ele>339.8</ele><time>1970-01-01T03:10:25.000Z</time></trkpt><trkpt lat="14.754986" lon="101.176001"><ele>340</ele><time>1970-01-01T03:10:26.000Z</time></trkpt><trkpt lat="14.754953" lon="101.175965"><ele>340.1</ele><time>1970-01-01T03:10:27.000Z</time></trkpt><trkpt lat="14.754928" lon="101.17591"><ele>340.1</ele><time>1970-01-01T03:10:28.000Z</time></trkpt><trkpt lat="14.754895" lon="101.175865"><ele>339.9</ele><time>1970-01-01T03:10:29.000Z</time></trkpt><trkpt lat="14.75486" lon="101.175804"><ele>339.4</ele><time>1970-01-01T03:10:30.000Z</time></trkpt><trkpt lat="14.754839" lon="101.175745"><ele>338.7</ele><time>1970-01-01T03:10:31.000Z</time></trkpt><trkpt lat="14.754813" lon="101.175697"><ele>338.1</ele><time>1970-01-01T03:10:32.000Z</time></trkpt><trkpt lat="14.754781" lon="101.17564"><ele>337.4</ele><time>1970-01-01T03:10:33.000Z</time></trkpt><trkpt lat="14.754746" lon="101.17558"><ele>337</ele><time>1970-01-01T03:10:34.000Z</time></trkpt><trkpt lat="14.754719" lon="101.175515"><ele>337</ele><time>1970-01-01T03:10:35.000Z</time></trkpt><trkpt lat="14.754694" lon="101.175456"><ele>336.9</ele><time>1970-01-01T03:10:36.000Z</time></trkpt><trkpt lat="14.754663" lon="101.175408"><ele>336.8</ele><time>1970-01-01T03:10:37.000Z</time></trkpt><trkpt lat="14.754642" lon="101.175343"><ele>336.7</ele><time>1970-01-01T03:10:38.000Z</time></trkpt><trkpt lat="14.754612" lon="101.175285"><ele>336.3</ele><time>1970-01-01T03:10:39.000Z</time></trkpt><trkpt lat="14.754587" lon="101.175223"><ele>335.8</ele><time>1970-01-01T03:10:40.000Z</time></trkpt><trkpt lat="14.754558" lon="101.175163"><ele>335</ele><time>1970-01-01T03:10:41.000Z</time></trkpt><trkpt lat="14.754526" lon="101.175081"><ele>333.6</ele><time>1970-01-01T03:10:42.000Z</time></trkpt><trkpt lat="14.754498" lon="101.175004"><ele>332.3</ele><time>1970-01-01T03:10:43.000Z</time></trkpt><trkpt lat="14.754473" lon="101.174934"><ele>331.5</ele><time>1970-01-01T03:10:44.000Z</time></trkpt><trkpt lat="14.754439" lon="101.174854"><ele>330.5</ele><time>1970-01-01T03:10:45.000Z</time></trkpt><trkpt lat="14.754408" lon="101.174786"><ele>329.4</ele><time>1970-01-01T03:10:46.000Z</time></trkpt><trkpt lat="14.754374" lon="101.174713"><ele>328.8</ele><time>1970-01-01T03:10:47.000Z</time></trkpt><trkpt lat="14.754333" lon="101.174656"><ele>328.7</ele><time>1970-01-01T03:10:48.000Z</time></trkpt><trkpt lat="14.7543" lon="101.17458"><ele>328.8</ele><time>1970-01-01T03:10:49.000Z</time></trkpt><trkpt lat="14.754257" lon="101.174523"><ele>328.7</ele><time>1970-01-01T03:10:50.000Z</time></trkpt><trkpt lat="14.754222" lon="101.174451"><ele>328.1</ele><time>1970-01-01T03:10:51.000Z</time></trkpt><trkpt lat="14.754194" lon="101.174381"><ele>327.4</ele><time>1970-01-01T03:10:52.000Z</time></trkpt><trkpt lat="14.754168" lon="101.174309"><ele>326.9</ele><time>1970-01-01T03:10:53.000Z</time></trkpt><trkpt lat="14.754137" lon="101.174236"><ele>326.4</ele><time>1970-01-01T03:10:54.000Z</time></trkpt><trkpt lat="14.754114" lon="101.174171"><ele>326.1</ele><time>1970-01-01T03:10:55.000Z</time></trkpt><trkpt lat="14.754089" lon="101.174106"><ele>325.4</ele><time>1970-01-01T03:10:56.000Z</time></trkpt><trkpt lat="14.754054" lon="101.174054"><ele>325</ele><time>1970-01-01T03:10:57.000Z</time></trkpt><trkpt lat="14.75403" lon="101.173983"><ele>324.7</ele><time>1970-01-01T03:10:58.000Z</time></trkpt><trkpt lat="14.754014" lon="101.173908"><ele>324.5</ele><time>1970-01-01T03:10:59.000Z</time></trkpt><trkpt lat="14.75399" lon="101.173852"><ele>324.6</ele><time>1970-01-01T03:11:00.000Z</time></trkpt><trkpt lat="14.75396" lon="101.173783"><ele>324.5</ele><time>1970-01-01T03:11:01.000Z</time></trkpt><trkpt lat="14.753938" lon="101.173717"><ele>324.5</ele><time>1970-01-01T03:11:02.000Z</time></trkpt><trkpt lat="14.753926" lon="101.173669"><ele>324.7</ele><time>1970-01-01T03:11:03.000Z</time></trkpt><trkpt lat="14.753903" lon="101.173614"><ele>325.3</ele><time>1970-01-01T03:11:04.000Z</time></trkpt><trkpt lat="14.753889" lon="101.173566"><ele>325.8</ele><time>1970-01-01T03:11:05.000Z</time></trkpt><trkpt lat="14.753877" lon="101.173515"><ele>326.4</ele><time>1970-01-01T03:11:06.000Z</time></trkpt><trkpt lat="14.753871" lon="101.173466"><ele>326.8</ele><time>1970-01-01T03:11:07.000Z</time></trkpt><trkpt lat="14.753862" lon="101.173414"><ele>327.2</ele><time>1970-01-01T03:11:08.000Z</time></trkpt><trkpt lat="14.753869" lon="101.17336"><ele>327.5</ele><time>1970-01-01T03:11:09.000Z</time></trkpt><trkpt lat="14.753875" lon="101.173313"><ele>327.8</ele><time>1970-01-01T03:11:10.000Z</time></trkpt><trkpt lat="14.753896" lon="101.173268"><ele>328.2</ele><time>1970-01-01T03:11:11.000Z</time></trkpt><trkpt lat="14.753913" lon="101.173223"><ele>328.6</ele><time>1970-01-01T03:11:12.000Z</time></trkpt><trkpt lat="14.753927" lon="101.173188"><ele>328.9</ele><time>1970-01-01T03:11:13.000Z</time></trkpt><trkpt lat="14.753938" lon="101.173146"><ele>329.2</ele><time>1970-01-01T03:11:14.000Z</time></trkpt><trkpt lat="14.753956" lon="101.1731"><ele>329.3</ele><time>1970-01-01T03:11:15.000Z</time></trkpt><trkpt lat="14.753964" lon="101.173062"><ele>329.5</ele><time>1970-01-01T03:11:16.000Z</time></trkpt><trkpt lat="14.753976" lon="101.173029"><ele>330.1</ele><time>1970-01-01T03:11:17.000Z</time></trkpt><trkpt lat="14.753991" lon="101.172992"><ele>330.7</ele><time>1970-01-01T03:11:18.000Z</time></trkpt><trkpt lat="14.754009" lon="101.172953"><ele>330.8</ele><time>1970-01-01T03:11:19.000Z</time></trkpt><trkpt lat="14.754027" lon="101.172916"><ele>330.8</ele><time>1970-01-01T03:11:20.000Z</time></trkpt><trkpt lat="14.754042" lon="101.172883"><ele>330.7</ele><time>1970-01-01T03:11:21.000Z</time></trkpt><trkpt lat="14.754058" lon="101.172851"><ele>330.6</ele><time>1970-01-01T03:11:22.000Z</time></trkpt><trkpt lat="14.754072" lon="101.17282"><ele>330.6</ele><time>1970-01-01T03:11:23.000Z</time></trkpt><trkpt lat="14.754087" lon="101.172788"><ele>330.5</ele><time>1970-01-01T03:11:24.000Z</time></trkpt><trkpt lat="14.754104" lon="101.172752"><ele>330.5</ele><time>1970-01-01T03:11:25.000Z</time></trkpt><trkpt lat="14.75412" lon="101.172716"><ele>330.4</ele><time>1970-01-01T03:11:26.000Z</time></trkpt><trkpt lat="14.754137" lon="101.172681"><ele>330.2</ele><time>1970-01-01T03:11:27.000Z</time></trkpt><trkpt lat="14.754155" lon="101.172646"><ele>329.9</ele><time>1970-01-01T03:11:28.000Z</time></trkpt><trkpt lat="14.754174" lon="101.172608"><ele>329.5</ele><time>1970-01-01T03:11:29.000Z</time></trkpt><trkpt lat="14.754194" lon="101.17257"><ele>329.8</ele><time>1970-01-01T03:11:30.000Z</time></trkpt><trkpt lat="14.754218" lon="101.172536"><ele>330.2</ele><time>1970-01-01T03:11:31.000Z</time></trkpt><trkpt lat="14.754243" lon="101.172504"><ele>330.5</ele><time>1970-01-01T03:11:32.000Z</time></trkpt><trkpt lat="14.754267" lon="101.172469"><ele>330.9</ele><time>1970-01-01T03:11:33.000Z</time></trkpt><trkpt lat="14.754289" lon="101.17243"><ele>331.7</ele><time>1970-01-01T03:11:34.000Z</time></trkpt><trkpt lat="14.75431" lon="101.172389"><ele>332.6</ele><time>1970-01-01T03:11:35.000Z</time></trkpt><trkpt lat="14.75433" lon="101.172347"><ele>333.9</ele><time>1970-01-01T03:11:36.000Z</time></trkpt><trkpt lat="14.754349" lon="101.172311"><ele>335</ele><time>1970-01-01T03:11:37.000Z</time></trkpt><trkpt lat="14.754368" lon="101.172282"><ele>335.4</ele><time>1970-01-01T03:11:38.000Z</time></trkpt><trkpt lat="14.754387" lon="101.172255"><ele>335.8</ele><time>1970-01-01T03:11:39.000Z</time></trkpt><trkpt lat="14.754407" lon="101.172229"><ele>336.2</ele><time>1970-01-01T03:11:40.000Z</time></trkpt><trkpt lat="14.754427" lon="101.1722"><ele>336.6</ele><time>1970-01-01T03:11:41.000Z</time></trkpt><trkpt lat="14.754445" lon="101.172166"><ele>337</ele><time>1970-01-01T03:11:42.000Z</time></trkpt><trkpt lat="14.754464" lon="101.172133"><ele>337.3</ele><time>1970-01-01T03:11:43.000Z</time></trkpt><trkpt lat="14.754482" lon="101.172096"><ele>337.6</ele><time>1970-01-01T03:11:44.000Z</time></trkpt><trkpt lat="14.7545" lon="101.172057"><ele>337.7</ele><time>1970-01-01T03:11:45.000Z</time></trkpt><trkpt lat="14.754515" lon="101.17202"><ele>337.8</ele><time>1970-01-01T03:11:46.000Z</time></trkpt><trkpt lat="14.75453" lon="101.171981"><ele>338.1</ele><time>1970-01-01T03:11:47.000Z</time></trkpt><trkpt lat="14.754543" lon="101.171943"><ele>338.4</ele><time>1970-01-01T03:11:48.000Z</time></trkpt><trkpt lat="14.754555" lon="101.171905"><ele>338.5</ele><time>1970-01-01T03:11:49.000Z</time></trkpt><trkpt lat="14.754568" lon="101.171864"><ele>338.5</ele><time>1970-01-01T03:11:50.000Z</time></trkpt><trkpt lat="14.754578" lon="101.171824"><ele>338.4</ele><time>1970-01-01T03:11:51.000Z</time></trkpt><trkpt lat="14.754585" lon="101.171785"><ele>338.1</ele><time>1970-01-01T03:11:52.000Z</time></trkpt><trkpt lat="14.754592" lon="101.171748"><ele>337.9</ele><time>1970-01-01T03:11:53.000Z</time></trkpt><trkpt lat="14.754598" lon="101.171712"><ele>338.4</ele><time>1970-01-01T03:11:54.000Z</time></trkpt><trkpt lat="14.75461" lon="101.171675"><ele>338.9</ele><time>1970-01-01T03:11:55.000Z</time></trkpt><trkpt lat="14.754622" lon="101.171639"><ele>338.2</ele><time>1970-01-01T03:11:56.000Z</time></trkpt><trkpt lat="14.754631" lon="101.171597"><ele>337.3</ele><time>1970-01-01T03:11:57.000Z</time></trkpt><trkpt lat="14.754636" lon="101.171556"><ele>338.2</ele><time>1970-01-01T03:11:58.000Z</time></trkpt><trkpt lat="14.754636" lon="101.171511"><ele>339.1</ele><time>1970-01-01T03:11:59.000Z</time></trkpt><trkpt lat="14.754633" lon="101.171466"><ele>339</ele><time>1970-01-01T03:12:00.000Z</time></trkpt><trkpt lat="14.75463" lon="101.171427"><ele>339</ele><time>1970-01-01T03:12:01.000Z</time></trkpt><trkpt lat="14.754626" lon="101.171389"><ele>339</ele><time>1970-01-01T03:12:02.000Z</time></trkpt><trkpt lat="14.754621" lon="101.171349"><ele>339.1</ele><time>1970-01-01T03:12:03.000Z</time></trkpt><trkpt lat="14.754614" lon="101.171309"><ele>339.1</ele><time>1970-01-01T03:12:04.000Z</time></trkpt><trkpt lat="14.754606" lon="101.171271"><ele>339.3</ele><time>1970-01-01T03:12:05.000Z</time></trkpt><trkpt lat="14.754595" lon="101.17123"><ele>339.8</ele><time>1970-01-01T03:12:06.000Z</time></trkpt><trkpt lat="14.754586" lon="101.171188"><ele>339.7</ele><time>1970-01-01T03:12:07.000Z</time></trkpt><trkpt lat="14.754578" lon="101.171149"><ele>339.4</ele><time>1970-01-01T03:12:08.000Z</time></trkpt><trkpt lat="14.75457" lon="101.171109"><ele>339.3</ele><time>1970-01-01T03:12:09.000Z</time></trkpt><trkpt lat="14.754559" lon="101.171072"><ele>339.3</ele><time>1970-01-01T03:12:10.000Z</time></trkpt><trkpt lat="14.75455" lon="101.171039"><ele>339.3</ele><time>1970-01-01T03:12:11.000Z</time></trkpt><trkpt lat="14.75454" lon="101.171005"><ele>339.1</ele><time>1970-01-01T03:12:12.000Z</time></trkpt><trkpt lat="14.754527" lon="101.17097"><ele>339</ele><time>1970-01-01T03:12:13.000Z</time></trkpt><trkpt lat="14.754514" lon="101.170936"><ele>338.7</ele><time>1970-01-01T03:12:14.000Z</time></trkpt><trkpt lat="14.754498" lon="101.170904"><ele>338.5</ele><time>1970-01-01T03:12:15.000Z</time></trkpt><trkpt lat="14.75448" lon="101.170869"><ele>338.2</ele><time>1970-01-01T03:12:16.000Z</time></trkpt><trkpt lat="14.754462" lon="101.170831"><ele>337.8</ele><time>1970-01-01T03:12:17.000Z</time></trkpt><trkpt lat="14.754441" lon="101.170793"><ele>337.3</ele><time>1970-01-01T03:12:18.000Z</time></trkpt><trkpt lat="14.75442" lon="101.170754"><ele>336</ele><time>1970-01-01T03:12:19.000Z</time></trkpt><trkpt lat="14.754402" lon="101.170716"><ele>334.8</ele><time>1970-01-01T03:12:20.000Z</time></trkpt><trkpt lat="14.754379" lon="101.170683"><ele>334.5</ele><time>1970-01-01T03:12:21.000Z</time></trkpt><trkpt lat="14.754357" lon="101.170651"><ele>334.2</ele><time>1970-01-01T03:12:22.000Z</time></trkpt><trkpt lat="14.754334" lon="101.170632"><ele>334.2</ele><time>1970-01-01T03:12:23.000Z</time></trkpt><trkpt lat="14.754312" lon="101.170613"><ele>334.5</ele><time>1970-01-01T03:12:24.000Z</time></trkpt><trkpt lat="14.754286" lon="101.170588"><ele>334.8</ele><time>1970-01-01T03:12:25.000Z</time></trkpt><trkpt lat="14.754262" lon="101.170561"><ele>334.6</ele><time>1970-01-01T03:12:26.000Z</time></trkpt><trkpt lat="14.754241" lon="101.170533"><ele>334.4</ele><time>1970-01-01T03:12:27.000Z</time></trkpt><trkpt lat="14.754222" lon="101.170507"><ele>334.2</ele><time>1970-01-01T03:12:28.000Z</time></trkpt><trkpt lat="14.7542" lon="101.170477"><ele>334</ele><time>1970-01-01T03:12:29.000Z</time></trkpt><trkpt lat="14.754179" lon="101.170446"><ele>333.7</ele><time>1970-01-01T03:12:30.000Z</time></trkpt><trkpt lat="14.754161" lon="101.170417"><ele>333.6</ele><time>1970-01-01T03:12:31.000Z</time></trkpt><trkpt lat="14.754145" lon="101.170388"><ele>333.7</ele><time>1970-01-01T03:12:32.000Z</time></trkpt><trkpt lat="14.75413" lon="101.170359"><ele>333.7</ele><time>1970-01-01T03:12:33.000Z</time></trkpt><trkpt lat="14.754114" lon="101.170327"><ele>333.8</ele><time>1970-01-01T03:12:34.000Z</time></trkpt><trkpt lat="14.754097" lon="101.170292"><ele>333.9</ele><time>1970-01-01T03:12:35.000Z</time></trkpt><trkpt lat="14.754084" lon="101.170253"><ele>334.1</ele><time>1970-01-01T03:12:36.000Z</time></trkpt><trkpt lat="14.75407" lon="101.17021"><ele>334.4</ele><time>1970-01-01T03:12:37.000Z</time></trkpt><trkpt lat="14.754059" lon="101.170165"><ele>334.8</ele><time>1970-01-01T03:12:38.000Z</time></trkpt><trkpt lat="14.754049" lon="101.170125"><ele>335.3</ele><time>1970-01-01T03:12:39.000Z</time></trkpt><trkpt lat="14.754037" lon="101.170089"><ele>335.8</ele><time>1970-01-01T03:12:40.000Z</time></trkpt><trkpt lat="14.754019" lon="101.170062"><ele>336.2</ele><time>1970-01-01T03:12:41.000Z</time></trkpt><trkpt lat="14.753998" lon="101.170034"><ele>336.6</ele><time>1970-01-01T03:12:42.000Z</time></trkpt><trkpt lat="14.753977" lon="101.169999"><ele>337.1</ele><time>1970-01-01T03:12:43.000Z</time></trkpt><trkpt lat="14.753956" lon="101.169963"><ele>337.7</ele><time>1970-01-01T03:12:44.000Z</time></trkpt><trkpt lat="14.753934" lon="101.169925"><ele>338.3</ele><time>1970-01-01T03:12:45.000Z</time></trkpt><trkpt lat="14.753908" lon="101.169887"><ele>338.6</ele><time>1970-01-01T03:12:46.000Z</time></trkpt><trkpt lat="14.75388" lon="101.169851"><ele>339</ele><time>1970-01-01T03:12:47.000Z</time></trkpt><trkpt lat="14.753849" lon="101.169814"><ele>339.3</ele><time>1970-01-01T03:12:48.000Z</time></trkpt><trkpt lat="14.753784" lon="101.169781"><ele>339.3</ele><time>1970-01-01T03:12:49.000Z</time></trkpt><trkpt lat="14.753754" lon="101.169751"><ele>339.2</ele><time>1970-01-01T03:12:50.000Z</time></trkpt><trkpt lat="14.753718" lon="101.169712"><ele>339.5</ele><time>1970-01-01T03:12:51.000Z</time></trkpt><trkpt lat="14.753681" lon="101.169677"><ele>339.5</ele><time>1970-01-01T03:12:52.000Z</time></trkpt><trkpt lat="14.753647" lon="101.169649"><ele>339.4</ele><time>1970-01-01T03:12:53.000Z</time></trkpt><trkpt lat="14.753612" lon="101.169621"><ele>339.1</ele><time>1970-01-01T03:12:54.000Z</time></trkpt><trkpt lat="14.753586" lon="101.16959"><ele>338.8</ele><time>1970-01-01T03:12:55.000Z</time></trkpt><trkpt lat="14.753561" lon="101.169565"><ele>338.4</ele><time>1970-01-01T03:12:56.000Z</time></trkpt><trkpt lat="14.753533" lon="101.169538"><ele>338</ele><time>1970-01-01T03:12:57.000Z</time></trkpt><trkpt lat="14.753513" lon="101.169498"><ele>338</ele><time>1970-01-01T03:12:58.000Z</time></trkpt><trkpt lat="14.753497" lon="101.169464"><ele>338.1</ele><time>1970-01-01T03:12:59.000Z</time></trkpt><trkpt lat="14.753465" lon="101.169422"><ele>338.5</ele><time>1970-01-01T03:13:01.000Z</time></trkpt><trkpt lat="14.753438" lon="101.169407"><ele>338.8</ele><time>1970-01-01T03:13:02.000Z</time></trkpt><trkpt lat="14.753408" lon="101.169397"><ele>339</ele><time>1970-01-01T03:13:03.000Z</time></trkpt><trkpt lat="14.753367" lon="101.169401"><ele>339.1</ele><time>1970-01-01T03:13:04.000Z</time></trkpt><trkpt lat="14.753335" lon="101.169402"><ele>339.1</ele><time>1970-01-01T03:13:05.000Z</time></trkpt><trkpt lat="14.753301" lon="101.169406"><ele>339.1</ele><time>1970-01-01T03:13:06.000Z</time></trkpt><trkpt lat="14.753266" lon="101.169409"><ele>339</ele><time>1970-01-01T03:13:07.000Z</time></trkpt><trkpt lat="14.753234" lon="101.169412"><ele>338.8</ele><time>1970-01-01T03:13:08.000Z</time></trkpt><trkpt lat="14.753202" lon="101.169415"><ele>338.7</ele><time>1970-01-01T03:13:09.000Z</time></trkpt><trkpt lat="14.753171" lon="101.169415"><ele>338.5</ele><time>1970-01-01T03:13:10.000Z</time></trkpt><trkpt lat="14.753139" lon="101.169415"><ele>338.3</ele><time>1970-01-01T03:13:11.000Z</time></trkpt><trkpt lat="14.753111" lon="101.169415"><ele>338.3</ele><time>1970-01-01T03:13:12.000Z</time></trkpt><trkpt lat="14.753054" lon="101.169415"><ele>338.1</ele><time>1970-01-01T03:13:14.000Z</time></trkpt><trkpt lat="14.753019" lon="101.169417"><ele>338</ele><time>1970-01-01T03:13:15.000Z</time></trkpt><trkpt lat="14.752987" lon="101.169421"><ele>337.9</ele><time>1970-01-01T03:13:16.000Z</time></trkpt><trkpt lat="14.752959" lon="101.169426"><ele>337.9</ele><time>1970-01-01T03:13:17.000Z</time></trkpt><trkpt lat="14.752926" lon="101.169431"><ele>337.9</ele><time>1970-01-01T03:13:18.000Z</time></trkpt><trkpt lat="14.752893" lon="101.169435"><ele>338</ele><time>1970-01-01T03:13:19.000Z</time></trkpt><trkpt lat="14.752865" lon="101.169437"><ele>338.1</ele><time>1970-01-01T03:13:20.000Z</time></trkpt><trkpt lat="14.752838" lon="101.169434"><ele>338.3</ele><time>1970-01-01T03:13:21.000Z</time></trkpt><trkpt lat="14.752809" lon="101.169429"><ele>338.5</ele><time>1970-01-01T03:13:22.000Z</time></trkpt><trkpt lat="14.752758" lon="101.169423"><ele>338.8</ele><time>1970-01-01T03:13:24.000Z</time></trkpt><trkpt lat="14.752713" lon="101.169422"><ele>339.1</ele><time>1970-01-01T03:13:26.000Z</time></trkpt><trkpt lat="14.752659" lon="101.169414"><ele>339.3</ele><time>1970-01-01T03:13:28.000Z</time></trkpt><trkpt lat="14.752613" lon="101.169402"><ele>339.2</ele><time>1970-01-01T03:13:30.000Z</time></trkpt><trkpt lat="14.752585" lon="101.169394"><ele>339.2</ele><time>1970-01-01T03:13:31.000Z</time></trkpt><trkpt lat="14.752552" lon="101.169386"><ele>339.3</ele><time>1970-01-01T03:13:32.000Z</time></trkpt><trkpt lat="14.752519" lon="101.169378"><ele>339.4</ele><time>1970-01-01T03:13:33.000Z</time></trkpt><trkpt lat="14.752486" lon="101.169371"><ele>339.4</ele><time>1970-01-01T03:13:34.000Z</time></trkpt><trkpt lat="14.752456" lon="101.169363"><ele>339.4</ele><time>1970-01-01T03:13:35.000Z</time></trkpt><trkpt lat="14.752428" lon="101.169357"><ele>339.5</ele><time>1970-01-01T03:13:36.000Z</time></trkpt><trkpt lat="14.752393" lon="101.169348"><ele>339.8</ele><time>1970-01-01T03:13:37.000Z</time></trkpt><trkpt lat="14.752359" lon="101.169336"><ele>340.1</ele><time>1970-01-01T03:13:38.000Z</time></trkpt><trkpt lat="14.752327" lon="101.169324"><ele>340.1</ele><time>1970-01-01T03:13:39.000Z</time></trkpt><trkpt lat="14.752297" lon="101.169311"><ele>340.2</ele><time>1970-01-01T03:13:40.000Z</time></trkpt><trkpt lat="14.752269" lon="101.169301"><ele>340.5</ele><time>1970-01-01T03:13:41.000Z</time></trkpt><trkpt lat="14.752216" lon="101.169284"><ele>340.8</ele><time>1970-01-01T03:13:43.000Z</time></trkpt><trkpt lat="14.752185" lon="101.169275"><ele>341</ele><time>1970-01-01T03:13:44.000Z</time></trkpt><trkpt lat="14.752155" lon="101.169265"><ele>341.1</ele><time>1970-01-01T03:13:45.000Z</time></trkpt><trkpt lat="14.752125" lon="101.169258"><ele>341.5</ele><time>1970-01-01T03:13:46.000Z</time></trkpt><trkpt lat="14.752093" lon="101.169252"><ele>342</ele><time>1970-01-01T03:13:47.000Z</time></trkpt><trkpt lat="14.752056" lon="101.169247"><ele>342.4</ele><time>1970-01-01T03:13:48.000Z</time></trkpt><trkpt lat="14.752021" lon="101.169243"><ele>342.7</ele><time>1970-01-01T03:13:49.000Z</time></trkpt><trkpt lat="14.751986" lon="101.16924"><ele>343</ele><time>1970-01-01T03:13:50.000Z</time></trkpt><trkpt lat="14.751951" lon="101.169236"><ele>343.4</ele><time>1970-01-01T03:13:51.000Z</time></trkpt><trkpt lat="14.751919" lon="101.169234"><ele>343.9</ele><time>1970-01-01T03:13:52.000Z</time></trkpt><trkpt lat="14.751891" lon="101.169233"><ele>344.2</ele><time>1970-01-01T03:13:53.000Z</time></trkpt><trkpt lat="14.751859" lon="101.169228"><ele>344.3</ele><time>1970-01-01T03:13:54.000Z</time></trkpt><trkpt lat="14.751819" lon="101.169221"><ele>344.5</ele><time>1970-01-01T03:13:55.000Z</time></trkpt><trkpt lat="14.751774" lon="101.169207"><ele>344.1</ele><time>1970-01-01T03:13:56.000Z</time></trkpt><trkpt lat="14.751712" lon="101.169181"><ele>343.5</ele><time>1970-01-01T03:13:57.000Z</time></trkpt><trkpt lat="14.751673" lon="101.169157"><ele>343.3</ele><time>1970-01-01T03:13:58.000Z</time></trkpt><trkpt lat="14.751621" lon="101.1691"><ele>343.1</ele><time>1970-01-01T03:13:59.000Z</time></trkpt><trkpt lat="14.751563" lon="101.169044"><ele>343</ele><time>1970-01-01T03:14:00.000Z</time></trkpt><trkpt lat="14.751518" lon="101.169006"><ele>342.7</ele><time>1970-01-01T03:14:01.000Z</time></trkpt><trkpt lat="14.751474" lon="101.168971"><ele>342.4</ele><time>1970-01-01T03:14:02.000Z</time></trkpt><trkpt lat="14.751433" lon="101.168929"><ele>341.9</ele><time>1970-01-01T03:14:03.000Z</time></trkpt><trkpt lat="14.751395" lon="101.168869"><ele>341</ele><time>1970-01-01T03:14:04.000Z</time></trkpt><trkpt lat="14.751377" lon="101.16882"><ele>340.9</ele><time>1970-01-01T03:14:05.000Z</time></trkpt><trkpt lat="14.751349" lon="101.16878"><ele>340.9</ele><time>1970-01-01T03:14:06.000Z</time></trkpt><trkpt lat="14.751303" lon="101.168741"><ele>341</ele><time>1970-01-01T03:14:07.000Z</time></trkpt><trkpt lat="14.751259" lon="101.168699"><ele>341.3</ele><time>1970-01-01T03:14:08.000Z</time></trkpt><trkpt lat="14.751218" lon="101.168659"><ele>341.8</ele><time>1970-01-01T03:14:09.000Z</time></trkpt><trkpt lat="14.751178" lon="101.168613"><ele>342</ele><time>1970-01-01T03:14:10.000Z</time></trkpt><trkpt lat="14.751141" lon="101.168576"><ele>342</ele><time>1970-01-01T03:14:11.000Z</time></trkpt><trkpt lat="14.751108" lon="101.168513"><ele>341.8</ele><time>1970-01-01T03:14:12.000Z</time></trkpt><trkpt lat="14.751071" lon="101.168481"><ele>341.5</ele><time>1970-01-01T03:14:13.000Z</time></trkpt><trkpt lat="14.751024" lon="101.168425"><ele>340.5</ele><time>1970-01-01T03:14:14.000Z</time></trkpt><trkpt lat="14.750985" lon="101.168379"><ele>339.7</ele><time>1970-01-01T03:14:15.000Z</time></trkpt><trkpt lat="14.75094" lon="101.168322"><ele>338.8</ele><time>1970-01-01T03:14:16.000Z</time></trkpt><trkpt lat="14.750898" lon="101.168276"><ele>337.9</ele><time>1970-01-01T03:14:17.000Z</time></trkpt><trkpt lat="14.750864" lon="101.168237"><ele>337.4</ele><time>1970-01-01T03:14:18.000Z</time></trkpt><trkpt lat="14.750832" lon="101.168202"><ele>336.9</ele><time>1970-01-01T03:14:19.000Z</time></trkpt><trkpt lat="14.750789" lon="101.168165"><ele>336.2</ele><time>1970-01-01T03:14:20.000Z</time></trkpt><trkpt lat="14.750748" lon="101.168104"><ele>335.8</ele><time>1970-01-01T03:14:21.000Z</time></trkpt><trkpt lat="14.750706" lon="101.168061"><ele>335.3</ele><time>1970-01-01T03:14:22.000Z</time></trkpt><trkpt lat="14.750674" lon="101.168022"><ele>334.6</ele><time>1970-01-01T03:14:23.000Z</time></trkpt><trkpt lat="14.750626" lon="101.167968"><ele>334.2</ele><time>1970-01-01T03:14:24.000Z</time></trkpt><trkpt lat="14.750589" lon="101.167926"><ele>334</ele><time>1970-01-01T03:14:25.000Z</time></trkpt><trkpt lat="14.750554" lon="101.167894"><ele>333.9</ele><time>1970-01-01T03:14:26.000Z</time></trkpt><trkpt lat="14.750509" lon="101.167841"><ele>334.1</ele><time>1970-01-01T03:14:27.000Z</time></trkpt><trkpt lat="14.750459" lon="101.167799"><ele>334.5</ele><time>1970-01-01T03:14:28.000Z</time></trkpt><trkpt lat="14.750417" lon="101.167758"><ele>334.8</ele><time>1970-01-01T03:14:29.000Z</time></trkpt><trkpt lat="14.750266" lon="101.167586"><ele>334.4</ele><time>1970-01-01T03:14:32.000Z</time></trkpt><trkpt lat="14.75024" lon="101.16756"><ele>334.3</ele><time>1970-01-01T03:14:33.000Z</time></trkpt><trkpt lat="14.75019" lon="101.16752"><ele>334.4</ele><time>1970-01-01T03:14:34.000Z</time></trkpt><trkpt lat="14.750136" lon="101.167474"><ele>334.9</ele><time>1970-01-01T03:14:35.000Z</time></trkpt><trkpt lat="14.750079" lon="101.167448"><ele>335.3</ele><time>1970-01-01T03:14:36.000Z</time></trkpt><trkpt lat="14.750027" lon="101.167412"><ele>335.7</ele><time>1970-01-01T03:14:37.000Z</time></trkpt><trkpt lat="14.749971" lon="101.167381"><ele>336.5</ele><time>1970-01-01T03:14:38.000Z</time></trkpt><trkpt lat="14.749922" lon="101.167335"><ele>337.6</ele><time>1970-01-01T03:14:39.000Z</time></trkpt><trkpt lat="14.749872" lon="101.167286"><ele>338.5</ele><time>1970-01-01T03:14:40.000Z</time></trkpt><trkpt lat="14.749821" lon="101.167241"><ele>339</ele><time>1970-01-01T03:14:41.000Z</time></trkpt><trkpt lat="14.749787" lon="101.167232"><ele>339.3</ele><time>1970-01-01T03:14:42.000Z</time></trkpt><trkpt lat="14.749748" lon="101.167197"><ele>339.6</ele><time>1970-01-01T03:14:43.000Z</time></trkpt><trkpt lat="14.74971" lon="101.167155"><ele>340.1</ele><time>1970-01-01T03:14:44.000Z</time></trkpt><trkpt lat="14.749675" lon="101.16712"><ele>340.5</ele><time>1970-01-01T03:14:45.000Z</time></trkpt><trkpt lat="14.749644" lon="101.167082"><ele>341</ele><time>1970-01-01T03:14:46.000Z</time></trkpt><trkpt lat="14.749597" lon="101.167037"><ele>341.2</ele><time>1970-01-01T03:14:47.000Z</time></trkpt><trkpt lat="14.749562" lon="101.166994"><ele>341.2</ele><time>1970-01-01T03:14:48.000Z</time></trkpt><trkpt lat="14.749523" lon="101.166957"><ele>341</ele><time>1970-01-01T03:14:49.000Z</time></trkpt><trkpt lat="14.749486" lon="101.166911"><ele>340.7</ele><time>1970-01-01T03:14:50.000Z</time></trkpt><trkpt lat="14.749446" lon="101.166863"><ele>340.3</ele><time>1970-01-01T03:14:51.000Z</time></trkpt><trkpt lat="14.749419" lon="101.166817"><ele>340.2</ele><time>1970-01-01T03:14:52.000Z</time></trkpt><trkpt lat="14.749386" lon="101.166769"><ele>340.1</ele><time>1970-01-01T03:14:53.000Z</time></trkpt><trkpt lat="14.749356" lon="101.166754"><ele>340.1</ele><time>1970-01-01T03:14:54.000Z</time></trkpt><trkpt lat="14.749322" lon="101.166709"><ele>340.1</ele><time>1970-01-01T03:14:55.000Z</time></trkpt><trkpt lat="14.749288" lon="101.166684"><ele>340.2</ele><time>1970-01-01T03:14:56.000Z</time></trkpt><trkpt lat="14.749258" lon="101.166648"><ele>340.2</ele><time>1970-01-01T03:14:57.000Z</time></trkpt><trkpt lat="14.749229" lon="101.166609"><ele>340.2</ele><time>1970-01-01T03:14:58.000Z</time></trkpt><trkpt lat="14.749198" lon="101.166563"><ele>340.2</ele><time>1970-01-01T03:14:59.000Z</time></trkpt><trkpt lat="14.749176" lon="101.166527"><ele>340.1</ele><time>1970-01-01T03:15:00.000Z</time></trkpt><trkpt lat="14.749153" lon="101.166495"><ele>340.2</ele><time>1970-01-01T03:15:01.000Z</time></trkpt><trkpt lat="14.74913" lon="101.16646"><ele>340.3</ele><time>1970-01-01T03:15:02.000Z</time></trkpt><trkpt lat="14.749107" lon="101.166425"><ele>340.5</ele><time>1970-01-01T03:15:03.000Z</time></trkpt><trkpt lat="14.749081" lon="101.166385"><ele>340.7</ele><time>1970-01-01T03:15:04.000Z</time></trkpt><trkpt lat="14.749058" lon="101.166343"><ele>340.8</ele><time>1970-01-01T03:15:05.000Z</time></trkpt><trkpt lat="14.749033" lon="101.166303"><ele>341</ele><time>1970-01-01T03:15:06.000Z</time></trkpt><trkpt lat="14.749005" lon="101.166255"><ele>341.1</ele><time>1970-01-01T03:15:07.000Z</time></trkpt><trkpt lat="14.748982" lon="101.16622"><ele>341.1</ele><time>1970-01-01T03:15:08.000Z</time></trkpt><trkpt lat="14.748956" lon="101.166181"><ele>341</ele><time>1970-01-01T03:15:09.000Z</time></trkpt><trkpt lat="14.748924" lon="101.166148"><ele>341.2</ele><time>1970-01-01T03:15:10.000Z</time></trkpt><trkpt lat="14.748902" lon="101.166102"><ele>341.4</ele><time>1970-01-01T03:15:11.000Z</time></trkpt><trkpt lat="14.748881" lon="101.166063"><ele>341.7</ele><time>1970-01-01T03:15:12.000Z</time></trkpt><trkpt lat="14.748858" lon="101.166025"><ele>342</ele><time>1970-01-01T03:15:13.000Z</time></trkpt><trkpt lat="14.748836" lon="101.165993"><ele>342.6</ele><time>1970-01-01T03:15:14.000Z</time></trkpt><trkpt lat="14.748811" lon="101.165957"><ele>343.2</ele><time>1970-01-01T03:15:15.000Z</time></trkpt><trkpt lat="14.748785" lon="101.165915"><ele>343.8</ele><time>1970-01-01T03:15:16.000Z</time></trkpt><trkpt lat="14.748762" lon="101.165889"><ele>344.1</ele><time>1970-01-01T03:15:17.000Z</time></trkpt><trkpt lat="14.748736" lon="101.165855"><ele>344.5</ele><time>1970-01-01T03:15:18.000Z</time></trkpt><trkpt lat="14.748715" lon="101.165817"><ele>344.8</ele><time>1970-01-01T03:15:19.000Z</time></trkpt><trkpt lat="14.748696" lon="101.165778"><ele>345.1</ele><time>1970-01-01T03:15:20.000Z</time></trkpt><trkpt lat="14.748674" lon="101.165737"><ele>345.5</ele><time>1970-01-01T03:15:21.000Z</time></trkpt><trkpt lat="14.74865" lon="101.165695"><ele>345.9</ele><time>1970-01-01T03:15:22.000Z</time></trkpt><trkpt lat="14.748627" lon="101.165657"><ele>346.1</ele><time>1970-01-01T03:15:23.000Z</time></trkpt><trkpt lat="14.748605" lon="101.165624"><ele>346.2</ele><time>1970-01-01T03:15:24.000Z</time></trkpt><trkpt lat="14.748586" lon="101.165593"><ele>346.1</ele><time>1970-01-01T03:15:25.000Z</time></trkpt><trkpt lat="14.748565" lon="101.165556"><ele>346.1</ele><time>1970-01-01T03:15:26.000Z</time></trkpt><trkpt lat="14.748543" lon="101.165517"><ele>345.9</ele><time>1970-01-01T03:15:27.000Z</time></trkpt><trkpt lat="14.748521" lon="101.165478"><ele>345.7</ele><time>1970-01-01T03:15:28.000Z</time></trkpt><trkpt lat="14.748501" lon="101.165442"><ele>345.6</ele><time>1970-01-01T03:15:29.000Z</time></trkpt><trkpt lat="14.748484" lon="101.165405"><ele>345.5</ele><time>1970-01-01T03:15:30.000Z</time></trkpt><trkpt lat="14.748469" lon="101.165367"><ele>345.5</ele><time>1970-01-01T03:15:31.000Z</time></trkpt><trkpt lat="14.748454" lon="101.16533"><ele>345.3</ele><time>1970-01-01T03:15:32.000Z</time></trkpt><trkpt lat="14.74844" lon="101.165294"><ele>345.1</ele><time>1970-01-01T03:15:33.000Z</time></trkpt><trkpt lat="14.748427" lon="101.165256"><ele>345</ele><time>1970-01-01T03:15:34.000Z</time></trkpt><trkpt lat="14.748414" lon="101.165215"><ele>345</ele><time>1970-01-01T03:15:35.000Z</time></trkpt><trkpt lat="14.7484" lon="101.165176"><ele>345</ele><time>1970-01-01T03:15:36.000Z</time></trkpt><trkpt lat="14.748384" lon="101.165147"><ele>345.1</ele><time>1970-01-01T03:15:37.000Z</time></trkpt><trkpt lat="14.748367" lon="101.16512"><ele>345.2</ele><time>1970-01-01T03:15:38.000Z</time></trkpt><trkpt lat="14.748351" lon="101.165088"><ele>345.4</ele><time>1970-01-01T03:15:39.000Z</time></trkpt><trkpt lat="14.748333" lon="101.165057"><ele>345.7</ele><time>1970-01-01T03:15:40.000Z</time></trkpt><trkpt lat="14.748315" lon="101.16502"><ele>346</ele><time>1970-01-01T03:15:41.000Z</time></trkpt><trkpt lat="14.748301" lon="101.164983"><ele>346</ele><time>1970-01-01T03:15:42.000Z</time></trkpt><trkpt lat="14.748291" lon="101.164951"><ele>346.1</ele><time>1970-01-01T03:15:43.000Z</time></trkpt><trkpt lat="14.748282" lon="101.16492"><ele>346.1</ele><time>1970-01-01T03:15:44.000Z</time></trkpt><trkpt lat="14.748268" lon="101.164888"><ele>346.1</ele><time>1970-01-01T03:15:45.000Z</time></trkpt><trkpt lat="14.748251" lon="101.164856"><ele>346</ele><time>1970-01-01T03:15:46.000Z</time></trkpt><trkpt lat="14.748233" lon="101.164825"><ele>346</ele><time>1970-01-01T03:15:47.000Z</time></trkpt><trkpt lat="14.748215" lon="101.164794"><ele>346.1</ele><time>1970-01-01T03:15:48.000Z</time></trkpt><trkpt lat="14.748199" lon="101.164766"><ele>346.1</ele><time>1970-01-01T03:15:49.000Z</time></trkpt><trkpt lat="14.748178" lon="101.164788"><ele>346</ele><time>1970-01-01T03:15:54.000Z</time></trkpt><trkpt lat="14.748117" lon="101.164818"><ele>345.9</ele><time>1970-01-01T03:18:39.000Z</time></trkpt><trkpt lat="14.748087" lon="101.164845"><ele>345.9</ele><time>1970-01-01T03:18:41.000Z</time></trkpt><trkpt lat="14.748054" lon="101.164889"><ele>345.9</ele><time>1970-01-01T03:18:43.000Z</time></trkpt><trkpt lat="14.748038" lon="101.164921"><ele>345.9</ele><time>1970-01-01T03:18:44.000Z</time></trkpt><trkpt lat="14.748022" lon="101.164958"><ele>345.9</ele><time>1970-01-01T03:18:45.000Z</time></trkpt><trkpt lat="14.748007" lon="101.164998"><ele>346</ele><time>1970-01-01T03:18:46.000Z</time></trkpt><trkpt lat="14.747992" lon="101.165041"><ele>346.2</ele><time>1970-01-01T03:18:47.000Z</time></trkpt><trkpt lat="14.747979" lon="101.165082"><ele>346.4</ele><time>1970-01-01T03:18:48.000Z</time></trkpt><trkpt lat="14.747965" lon="101.165125"><ele>346.4</ele><time>1970-01-01T03:18:49.000Z</time></trkpt><trkpt lat="14.747948" lon="101.165169"><ele>346.4</ele><time>1970-01-01T03:18:50.000Z</time></trkpt><trkpt lat="14.747932" lon="101.165207"><ele>346.4</ele><time>1970-01-01T03:18:51.000Z</time></trkpt><trkpt lat="14.747916" lon="101.165237"><ele>346.2</ele><time>1970-01-01T03:18:52.000Z</time></trkpt><trkpt lat="14.747896" lon="101.16527"><ele>345.9</ele><time>1970-01-01T03:18:53.000Z</time></trkpt><trkpt lat="14.747874" lon="101.165305"><ele>345.6</ele><time>1970-01-01T03:18:54.000Z</time></trkpt><trkpt lat="14.747849" lon="101.165342"><ele>345.2</ele><time>1970-01-01T03:18:55.000Z</time></trkpt><trkpt lat="14.747806" lon="101.165399"><ele>344.3</ele><time>1970-01-01T03:18:56.000Z</time></trkpt><trkpt lat="14.74776" lon="101.165456"><ele>344.1</ele><time>1970-01-01T03:18:57.000Z</time></trkpt><trkpt lat="14.747716" lon="101.165503"><ele>344.1</ele><time>1970-01-01T03:18:58.000Z</time></trkpt><trkpt lat="14.747676" lon="101.165549"><ele>344.3</ele><time>1970-01-01T03:18:59.000Z</time></trkpt><trkpt lat="14.747632" lon="101.165585"><ele>344.7</ele><time>1970-01-01T03:19:00.000Z</time></trkpt><trkpt lat="14.747594" lon="101.165636"><ele>345.3</ele><time>1970-01-01T03:19:01.000Z</time></trkpt><trkpt lat="14.747555" lon="101.165667"><ele>346</ele><time>1970-01-01T03:19:02.000Z</time></trkpt><trkpt lat="14.747531" lon="101.165694"><ele>346.8</ele><time>1970-01-01T03:19:03.000Z</time></trkpt><trkpt lat="14.747503" lon="101.165747"><ele>348.2</ele><time>1970-01-01T03:19:04.000Z</time></trkpt><trkpt lat="14.747486" lon="101.165801"><ele>349.5</ele><time>1970-01-01T03:19:05.000Z</time></trkpt><trkpt lat="14.747465" lon="101.165851"><ele>349.5</ele><time>1970-01-01T03:19:06.000Z</time></trkpt><trkpt lat="14.747471" lon="101.165962"><ele>349.2</ele><time>1970-01-01T03:19:07.000Z</time></trkpt><trkpt lat="14.74747" lon="101.166056"><ele>350.4</ele><time>1970-01-01T03:19:08.000Z</time></trkpt><trkpt lat="14.747483" lon="101.166131"><ele>349.5</ele><time>1970-01-01T03:19:09.000Z</time></trkpt><trkpt lat="14.747465" lon="101.166245"><ele>347.6</ele><time>1970-01-01T03:19:10.000Z</time></trkpt><trkpt lat="14.747472" lon="101.16633"><ele>345.6</ele><time>1970-01-01T03:19:11.000Z</time></trkpt><trkpt lat="14.747462" lon="101.166414"><ele>343.4</ele><time>1970-01-01T03:19:12.000Z</time></trkpt><trkpt lat="14.74742" lon="101.166496"><ele>341.4</ele><time>1970-01-01T03:19:13.000Z</time></trkpt><trkpt lat="14.747381" lon="101.166584"><ele>341</ele><time>1970-01-01T03:19:14.000Z</time></trkpt><trkpt lat="14.74736" lon="101.166639"><ele>340.9</ele><time>1970-01-01T03:19:15.000Z</time></trkpt><trkpt lat="14.747334" lon="101.166709"><ele>340.6</ele><time>1970-01-01T03:19:16.000Z</time></trkpt><trkpt lat="14.747289" lon="101.166791"><ele>341</ele><time>1970-01-01T03:19:17.000Z</time></trkpt><trkpt lat="14.747223" lon="101.166867"><ele>341.1</ele><time>1970-01-01T03:19:18.000Z</time></trkpt><trkpt lat="14.747161" lon="101.166926"><ele>340.8</ele><time>1970-01-01T03:19:19.000Z</time></trkpt><trkpt lat="14.747092" lon="101.166989"><ele>341</ele><time>1970-01-01T03:19:20.000Z</time></trkpt><trkpt lat="14.747033" lon="101.167042"><ele>340.7</ele><time>1970-01-01T03:19:21.000Z</time></trkpt><trkpt lat="14.746957" lon="101.167104"><ele>340.2</ele><time>1970-01-01T03:19:22.000Z</time></trkpt><trkpt lat="14.746881" lon="101.167149"><ele>340.4</ele><time>1970-01-01T03:19:23.000Z</time></trkpt><trkpt lat="14.746809" lon="101.167206"><ele>340.1</ele><time>1970-01-01T03:19:24.000Z</time></trkpt><trkpt lat="14.746754" lon="101.167228"><ele>339.7</ele><time>1970-01-01T03:19:25.000Z</time></trkpt><trkpt lat="14.746676" lon="101.167276"><ele>338.8</ele><time>1970-01-01T03:19:26.000Z</time></trkpt><trkpt lat="14.746627" lon="101.167317"><ele>338.2</ele><time>1970-01-01T03:19:27.000Z</time></trkpt><trkpt lat="14.746579" lon="101.167357"><ele>337.8</ele><time>1970-01-01T03:19:28.000Z</time></trkpt><trkpt lat="14.746502" lon="101.167415"><ele>337.8</ele><time>1970-01-01T03:19:29.000Z</time></trkpt><trkpt lat="14.746445" lon="101.167485"><ele>337.7</ele><time>1970-01-01T03:19:30.000Z</time></trkpt><trkpt lat="14.746386" lon="101.167538"><ele>338</ele><time>1970-01-01T03:19:31.000Z</time></trkpt><trkpt lat="14.746312" lon="101.167555"><ele>338.4</ele><time>1970-01-01T03:19:32.000Z</time></trkpt><trkpt lat="14.746259" lon="101.167545"><ele>338.6</ele><time>1970-01-01T03:19:33.000Z</time></trkpt><trkpt lat="14.746182" lon="101.167547"><ele>339.3</ele><time>1970-01-01T03:19:34.000Z</time></trkpt><trkpt lat="14.746123" lon="101.16758"><ele>340.1</ele><time>1970-01-01T03:19:35.000Z</time></trkpt><trkpt lat="14.746055" lon="101.167588"><ele>340.1</ele><time>1970-01-01T03:19:36.000Z</time></trkpt><trkpt lat="14.745985" lon="101.167581"><ele>339.5</ele><time>1970-01-01T03:19:37.000Z</time></trkpt><trkpt lat="14.745915" lon="101.167559"><ele>339.4</ele><time>1970-01-01T03:19:38.000Z</time></trkpt><trkpt lat="14.745851" lon="101.167557"><ele>339.1</ele><time>1970-01-01T03:19:39.000Z</time></trkpt><trkpt lat="14.745787" lon="101.167551"><ele>339.1</ele><time>1970-01-01T03:19:40.000Z</time></trkpt><trkpt lat="14.745724" lon="101.167556"><ele>339.5</ele><time>1970-01-01T03:19:41.000Z</time></trkpt><trkpt lat="14.745665" lon="101.167556"><ele>340</ele><time>1970-01-01T03:19:42.000Z</time></trkpt><trkpt lat="14.745605" lon="101.167553"><ele>340.6</ele><time>1970-01-01T03:19:43.000Z</time></trkpt><trkpt lat="14.745546" lon="101.167556"><ele>341.3</ele><time>1970-01-01T03:19:44.000Z</time></trkpt><trkpt lat="14.745508" lon="101.167554"><ele>341.6</ele><time>1970-01-01T03:19:45.000Z</time></trkpt><trkpt lat="14.745461" lon="101.167541"><ele>342</ele><time>1970-01-01T03:19:46.000Z</time></trkpt><trkpt lat="14.745405" lon="101.167534"><ele>342.5</ele><time>1970-01-01T03:19:47.000Z</time></trkpt><trkpt lat="14.745356" lon="101.167531"><ele>343.1</ele><time>1970-01-01T03:19:48.000Z</time></trkpt><trkpt lat="14.745303" lon="101.167511"><ele>343.7</ele><time>1970-01-01T03:19:49.000Z</time></trkpt><trkpt lat="14.74525" lon="101.167505"><ele>344.2</ele><time>1970-01-01T03:19:50.000Z</time></trkpt><trkpt lat="14.745195" lon="101.167503"><ele>345</ele><time>1970-01-01T03:19:51.000Z</time></trkpt><trkpt lat="14.74515" lon="101.167511"><ele>345.3</ele><time>1970-01-01T03:19:52.000Z</time></trkpt><trkpt lat="14.745099" lon="101.16751"><ele>345.3</ele><time>1970-01-01T03:19:53.000Z</time></trkpt><trkpt lat="14.745051" lon="101.167515"><ele>345.6</ele><time>1970-01-01T03:19:54.000Z</time></trkpt><trkpt lat="14.744994" lon="101.167531"><ele>346.1</ele><time>1970-01-01T03:19:55.000Z</time></trkpt><trkpt lat="14.744945" lon="101.167527"><ele>346.6</ele><time>1970-01-01T03:19:56.000Z</time></trkpt><trkpt lat="14.744895" lon="101.167516"><ele>347.2</ele><time>1970-01-01T03:19:57.000Z</time></trkpt><trkpt lat="14.744841" lon="101.167504"><ele>347.8</ele><time>1970-01-01T03:19:58.000Z</time></trkpt><trkpt lat="14.744796" lon="101.167513"><ele>348.3</ele><time>1970-01-01T03:19:59.000Z</time></trkpt><trkpt lat="14.744748" lon="101.167523"><ele>348.6</ele><time>1970-01-01T03:20:00.000Z</time></trkpt><trkpt lat="14.744694" lon="101.167534"><ele>348.8</ele><time>1970-01-01T03:20:01.000Z</time></trkpt><trkpt lat="14.744648" lon="101.167549"><ele>348.5</ele><time>1970-01-01T03:20:02.000Z</time></trkpt><trkpt lat="14.744605" lon="101.167578"><ele>348.1</ele><time>1970-01-01T03:20:03.000Z</time></trkpt><trkpt lat="14.744568" lon="101.167629"><ele>347.7</ele><time>1970-01-01T03:20:04.000Z</time></trkpt><trkpt lat="14.744524" lon="101.167687"><ele>347.2</ele><time>1970-01-01T03:20:05.000Z</time></trkpt><trkpt lat="14.744494" lon="101.167745"><ele>346.3</ele><time>1970-01-01T03:20:06.000Z</time></trkpt><trkpt lat="14.744471" lon="101.167837"><ele>346.3</ele><time>1970-01-01T03:20:07.000Z</time></trkpt><trkpt lat="14.744465" lon="101.167913"><ele>345.5</ele><time>1970-01-01T03:20:08.000Z</time></trkpt><trkpt lat="14.744443" lon="101.168005"><ele>343.8</ele><time>1970-01-01T03:20:09.000Z</time></trkpt><trkpt lat="14.744414" lon="101.168109"><ele>341.7</ele><time>1970-01-01T03:20:10.000Z</time></trkpt><trkpt lat="14.744391" lon="101.168213"><ele>339.3</ele><time>1970-01-01T03:20:11.000Z</time></trkpt><trkpt lat="14.74437" lon="101.168271"><ele>337.9</ele><time>1970-01-01T03:20:12.000Z</time></trkpt><trkpt lat="14.744347" lon="101.168381"><ele>335.9</ele><time>1970-01-01T03:20:13.000Z</time></trkpt><trkpt lat="14.744312" lon="101.168506"><ele>334</ele><time>1970-01-01T03:20:14.000Z</time></trkpt><trkpt lat="14.744281" lon="101.168641"><ele>333.3</ele><time>1970-01-01T03:20:15.000Z</time></trkpt><trkpt lat="14.74426" lon="101.16876"><ele>332.8</ele><time>1970-01-01T03:20:16.000Z</time></trkpt><trkpt lat="14.744263" lon="101.168828"><ele>332.3</ele><time>1970-01-01T03:20:17.000Z</time></trkpt><trkpt lat="14.744245" lon="101.168962"><ele>331.7</ele><time>1970-01-01T03:20:18.000Z</time></trkpt><trkpt lat="14.744255" lon="101.169058"><ele>331.5</ele><time>1970-01-01T03:20:19.000Z</time></trkpt><trkpt lat="14.744281" lon="101.169169"><ele>331.1</ele><time>1970-01-01T03:20:20.000Z</time></trkpt><trkpt lat="14.744302" lon="101.169279"><ele>330</ele><time>1970-01-01T03:20:21.000Z</time></trkpt><trkpt lat="14.744314" lon="101.169393"><ele>328.8</ele><time>1970-01-01T03:20:22.000Z</time></trkpt><trkpt lat="14.744307" lon="101.169463"><ele>328.1</ele><time>1970-01-01T03:20:23.000Z</time></trkpt><trkpt lat="14.744289" lon="101.169546"><ele>327.6</ele><time>1970-01-01T03:20:24.000Z</time></trkpt><trkpt lat="14.744244" lon="101.169654"><ele>327</ele><time>1970-01-01T03:20:25.000Z</time></trkpt><trkpt lat="14.744208" lon="101.169748"><ele>326.6</ele><time>1970-01-01T03:20:26.000Z</time></trkpt><trkpt lat="14.744171" lon="101.169797"><ele>326.8</ele><time>1970-01-01T03:20:27.000Z</time></trkpt><trkpt lat="14.744165" lon="101.169886"><ele>327.3</ele><time>1970-01-01T03:20:28.000Z</time></trkpt><trkpt lat="14.744147" lon="101.169995"><ele>327.4</ele><time>1970-01-01T03:20:29.000Z</time></trkpt><trkpt lat="14.744162" lon="101.170083"><ele>327.3</ele><time>1970-01-01T03:20:30.000Z</time></trkpt><trkpt lat="14.744239" lon="101.170145"><ele>327</ele><time>1970-01-01T03:20:31.000Z</time></trkpt><trkpt lat="14.744266" lon="101.170214"><ele>326.7</ele><time>1970-01-01T03:20:32.000Z</time></trkpt><trkpt lat="14.744281" lon="101.170264"><ele>326.3</ele><time>1970-01-01T03:20:34.000Z</time></trkpt><trkpt lat="14.744275" lon="101.170293"><ele>326.1</ele><time>1970-01-01T03:20:36.000Z</time></trkpt><trkpt lat="14.744257" lon="101.170323"><ele>325.8</ele><time>1970-01-01T03:20:39.000Z</time></trkpt><trkpt lat="14.744269" lon="101.170291"><ele>325.6</ele><time>1970-01-01T03:20:46.000Z</time></trkpt><trkpt lat="14.744246" lon="101.170265"><ele>325.4</ele><time>1970-01-01T03:20:50.000Z</time></trkpt><trkpt lat="14.744231" lon="101.170222"><ele>325.8</ele><time>1970-01-01T03:20:52.000Z</time></trkpt><trkpt lat="14.744214" lon="101.170175"><ele>326.4</ele><time>1970-01-01T03:20:54.000Z</time></trkpt><trkpt lat="14.744196" lon="101.170133"><ele>326.9</ele><time>1970-01-01T03:20:56.000Z</time></trkpt><trkpt lat="14.744177" lon="101.170097"><ele>327.1</ele><time>1970-01-01T03:20:58.000Z</time></trkpt><trkpt lat="14.744168" lon="101.170049"><ele>327.3</ele><time>1970-01-01T03:21:00.000Z</time></trkpt><trkpt lat="14.744146" lon="101.169998"><ele>327.4</ele><time>1970-01-01T03:21:02.000Z</time></trkpt><trkpt lat="14.744121" lon="101.16998"><ele>327.4</ele><time>1970-01-01T03:21:03.000Z</time></trkpt><trkpt lat="14.744088" lon="101.169973"><ele>327.4</ele><time>1970-01-01T03:21:04.000Z</time></trkpt><trkpt lat="14.744057" lon="101.169978"><ele>327.3</ele><time>1970-01-01T03:21:05.000Z</time></trkpt><trkpt lat="14.744031" lon="101.170004"><ele>327.2</ele><time>1970-01-01T03:21:06.000Z</time></trkpt><trkpt lat="14.744011" lon="101.170047"><ele>326.8</ele><time>1970-01-01T03:21:07.000Z</time></trkpt><trkpt lat="14.743997" lon="101.17027"><ele>325.6</ele><time>1970-01-01T03:21:09.000Z</time></trkpt><trkpt lat="14.743962" lon="101.170324"><ele>325.2</ele><time>1970-01-01T03:21:10.000Z</time></trkpt><trkpt lat="14.743922" lon="101.170359"><ele>325</ele><time>1970-01-01T03:21:11.000Z</time></trkpt><trkpt lat="14.743889" lon="101.17038"><ele>324.8</ele><time>1970-01-01T03:21:12.000Z</time></trkpt><trkpt lat="14.743851" lon="101.1704"><ele>324.6</ele><time>1970-01-01T03:21:14.000Z</time></trkpt><trkpt lat="14.743826" lon="101.170414"><ele>324.6</ele><time>1970-01-01T03:21:15.000Z</time></trkpt><trkpt lat="14.743773" lon="101.170435"><ele>324.5</ele><time>1970-01-01T03:21:17.000Z</time></trkpt><trkpt lat="14.743742" lon="101.170467"><ele>324.5</ele><time>1970-01-01T03:21:18.000Z</time></trkpt><trkpt lat="14.743696" lon="101.170519"><ele>324.9</ele><time>1970-01-01T03:21:20.000Z</time></trkpt><trkpt lat="14.743653" lon="101.170558"><ele>325.9</ele><time>1970-01-01T03:21:22.000Z</time></trkpt><trkpt lat="14.743617" lon="101.1706"><ele>325.3</ele><time>1970-01-01T03:21:24.000Z</time></trkpt><trkpt lat="14.743514" lon="101.170707"><ele>323.3</ele><time>1970-01-01T03:21:26.000Z</time></trkpt><trkpt lat="14.743489" lon="101.170726"><ele>323.2</ele><time>1970-01-01T03:21:27.000Z</time></trkpt><trkpt lat="14.743471" lon="101.170761"><ele>323</ele><time>1970-01-01T03:21:28.000Z</time></trkpt><trkpt lat="14.743439" lon="101.170789"><ele>322.6</ele><time>1970-01-01T03:21:29.000Z</time></trkpt><trkpt lat="14.74338" lon="101.170847"><ele>322.8</ele><time>1970-01-01T03:21:31.000Z</time></trkpt><trkpt lat="14.743342" lon="101.170885"><ele>323.3</ele><time>1970-01-01T03:21:32.000Z</time></trkpt><trkpt lat="14.743301" lon="101.170917"><ele>323.6</ele><time>1970-01-01T03:21:33.000Z</time></trkpt><trkpt lat="14.74326" lon="101.170952"><ele>324</ele><time>1970-01-01T03:21:34.000Z</time></trkpt><trkpt lat="14.743236" lon="101.170967"><ele>324.3</ele><time>1970-01-01T03:21:35.000Z</time></trkpt><trkpt lat="14.743203" lon="101.170985"><ele>324.6</ele><time>1970-01-01T03:21:36.000Z</time></trkpt><trkpt lat="14.743164" lon="101.171015"><ele>325.1</ele><time>1970-01-01T03:21:37.000Z</time></trkpt><trkpt lat="14.743136" lon="101.171026"><ele>325.4</ele><time>1970-01-01T03:21:38.000Z</time></trkpt><trkpt lat="14.743109" lon="101.17104"><ele>325.7</ele><time>1970-01-01T03:21:39.000Z</time></trkpt><trkpt lat="14.743085" lon="101.171053"><ele>326</ele><time>1970-01-01T03:21:40.000Z</time></trkpt><trkpt lat="14.743024" lon="101.171086"><ele>326.2</ele><time>1970-01-01T03:21:42.000Z</time></trkpt><trkpt lat="14.742993" lon="101.171121"><ele>326.1</ele><time>1970-01-01T03:21:43.000Z</time></trkpt><trkpt lat="14.74296" lon="101.171132"><ele>326.4</ele><time>1970-01-01T03:21:44.000Z</time></trkpt><trkpt lat="14.742924" lon="101.171175"><ele>326.7</ele><time>1970-01-01T03:21:46.000Z</time></trkpt><trkpt lat="14.742899" lon="101.171211"><ele>327.1</ele><time>1970-01-01T03:21:47.000Z</time></trkpt><trkpt lat="14.742873" lon="101.171247"><ele>328.2</ele><time>1970-01-01T03:21:48.000Z</time></trkpt><trkpt lat="14.74285" lon="101.171283"><ele>329.2</ele><time>1970-01-01T03:21:49.000Z</time></trkpt><trkpt lat="14.742825" lon="101.171319"><ele>329</ele><time>1970-01-01T03:21:50.000Z</time></trkpt><trkpt lat="14.742802" lon="101.171353"><ele>328.8</ele><time>1970-01-01T03:21:51.000Z</time></trkpt><trkpt lat="14.742773" lon="101.171389"><ele>328.9</ele><time>1970-01-01T03:21:52.000Z</time></trkpt><trkpt lat="14.742746" lon="101.171424"><ele>328.9</ele><time>1970-01-01T03:21:53.000Z</time></trkpt><trkpt lat="14.74272" lon="101.171458"><ele>328.2</ele><time>1970-01-01T03:21:54.000Z</time></trkpt><trkpt lat="14.742702" lon="101.171489"><ele>327.6</ele><time>1970-01-01T03:21:55.000Z</time></trkpt><trkpt lat="14.742687" lon="101.171523"><ele>327</ele><time>1970-01-01T03:21:56.000Z</time></trkpt><trkpt lat="14.742675" lon="101.171556"><ele>326.4</ele><time>1970-01-01T03:21:57.000Z</time></trkpt><trkpt lat="14.742667" lon="101.171584"><ele>326</ele><time>1970-01-01T03:21:58.000Z</time></trkpt><trkpt lat="14.742659" lon="101.171612"><ele>325.7</ele><time>1970-01-01T03:21:59.000Z</time></trkpt><trkpt lat="14.742648" lon="101.171644"><ele>325.3</ele><time>1970-01-01T03:22:00.000Z</time></trkpt><trkpt lat="14.742625" lon="101.171682"><ele>324.7</ele><time>1970-01-01T03:22:01.000Z</time></trkpt><trkpt lat="14.742599" lon="101.171723"><ele>323.9</ele><time>1970-01-01T03:22:02.000Z</time></trkpt><trkpt lat="14.742573" lon="101.171764"><ele>323</ele><time>1970-01-01T03:22:03.000Z</time></trkpt><trkpt lat="14.742547" lon="101.171802"><ele>322.7</ele><time>1970-01-01T03:22:04.000Z</time></trkpt><trkpt lat="14.742519" lon="101.171842"><ele>322.6</ele><time>1970-01-01T03:22:05.000Z</time></trkpt><trkpt lat="14.742496" lon="101.171884"><ele>322.3</ele><time>1970-01-01T03:22:06.000Z</time></trkpt><trkpt lat="14.742472" lon="101.171933"><ele>321.9</ele><time>1970-01-01T03:22:07.000Z</time></trkpt><trkpt lat="14.742424" lon="101.172056"><ele>321.4</ele><time>1970-01-01T03:22:08.000Z</time></trkpt><trkpt lat="14.742387" lon="101.172111"><ele>321.3</ele><time>1970-01-01T03:22:09.000Z</time></trkpt><trkpt lat="14.742332" lon="101.172173"><ele>319.1</ele><time>1970-01-01T03:22:10.000Z</time></trkpt><trkpt lat="14.742275" lon="101.172247"><ele>317.5</ele><time>1970-01-01T03:22:11.000Z</time></trkpt><trkpt lat="14.742242" lon="101.172298"><ele>316.9</ele><time>1970-01-01T03:22:12.000Z</time></trkpt><trkpt lat="14.742237" lon="101.172366"><ele>318</ele><time>1970-01-01T03:22:13.000Z</time></trkpt><trkpt lat="14.742215" lon="101.172428"><ele>319.3</ele><time>1970-01-01T03:22:14.000Z</time></trkpt><trkpt lat="14.742178" lon="101.172477"><ele>320.5</ele><time>1970-01-01T03:22:15.000Z</time></trkpt><trkpt lat="14.742129" lon="101.172513"><ele>321.3</ele><time>1970-01-01T03:22:16.000Z</time></trkpt><trkpt lat="14.742084" lon="101.172525"><ele>321.6</ele><time>1970-01-01T03:22:17.000Z</time></trkpt><trkpt lat="14.742045" lon="101.172537"><ele>321.9</ele><time>1970-01-01T03:22:18.000Z</time></trkpt><trkpt lat="14.742005" lon="101.172531"><ele>322.5</ele><time>1970-01-01T03:22:19.000Z</time></trkpt><trkpt lat="14.741958" lon="101.172548"><ele>323.3</ele><time>1970-01-01T03:22:21.000Z</time></trkpt><trkpt lat="14.741911" lon="101.172538"><ele>324.3</ele><time>1970-01-01T03:22:23.000Z</time></trkpt><trkpt lat="14.741873" lon="101.172548"><ele>324.9</ele><time>1970-01-01T03:22:25.000Z</time></trkpt><trkpt lat="14.741826" lon="101.17254"><ele>325.6</ele><time>1970-01-01T03:22:27.000Z</time></trkpt><trkpt lat="14.7418" lon="101.172556"><ele>326.1</ele><time>1970-01-01T03:22:29.000Z</time></trkpt><trkpt lat="14.741769" lon="101.172566"><ele>326.7</ele><time>1970-01-01T03:22:31.000Z</time></trkpt><trkpt lat="14.741739" lon="101.172579"><ele>327.1</ele><time>1970-01-01T03:22:33.000Z</time></trkpt><trkpt lat="14.741711" lon="101.172585"><ele>327.4</ele><time>1970-01-01T03:22:35.000Z</time></trkpt><trkpt lat="14.741679" lon="101.172598"><ele>327.7</ele><time>1970-01-01T03:22:37.000Z</time></trkpt><trkpt lat="14.741645" lon="101.172617"><ele>328.1</ele><time>1970-01-01T03:22:39.000Z</time></trkpt><trkpt lat="14.741606" lon="101.172631"><ele>328.5</ele><time>1970-01-01T03:22:41.000Z</time></trkpt><trkpt lat="14.741573" lon="101.172635"><ele>328.8</ele><time>1970-01-01T03:22:43.000Z</time></trkpt><trkpt lat="14.741543" lon="101.172639"><ele>329.1</ele><time>1970-01-01T03:22:45.000Z</time></trkpt><trkpt lat="14.741514" lon="101.172649"><ele>329.4</ele><time>1970-01-01T03:22:47.000Z</time></trkpt><trkpt lat="14.741487" lon="101.172661"><ele>329.8</ele><time>1970-01-01T03:22:49.000Z</time></trkpt><trkpt lat="14.741444" lon="101.172674"><ele>330.3</ele><time>1970-01-01T03:22:51.000Z</time></trkpt><trkpt lat="14.741417" lon="101.172687"><ele>330.7</ele><time>1970-01-01T03:22:52.000Z</time></trkpt><trkpt lat="14.741379" lon="101.172704"><ele>331.1</ele><time>1970-01-01T03:22:54.000Z</time></trkpt><trkpt lat="14.741351" lon="101.172715"><ele>331.5</ele><time>1970-01-01T03:22:56.000Z</time></trkpt><trkpt lat="14.741306" lon="101.172717"><ele>331.8</ele><time>1970-01-01T03:22:59.000Z</time></trkpt><trkpt lat="14.741268" lon="101.172727"><ele>331.9</ele><time>1970-01-01T03:23:01.000Z</time></trkpt><trkpt lat="14.741223" lon="101.172735"><ele>332.1</ele><time>1970-01-01T03:23:03.000Z</time></trkpt><trkpt lat="14.741191" lon="101.172741"><ele>332.3</ele><time>1970-01-01T03:23:04.000Z</time></trkpt><trkpt lat="14.741161" lon="101.17273"><ele>332.4</ele><time>1970-01-01T03:23:06.000Z</time></trkpt><trkpt lat="14.741121" lon="101.172725"><ele>332.4</ele><time>1970-01-01T03:23:09.000Z</time></trkpt><trkpt lat="14.74109" lon="101.172725"><ele>332.2</ele><time>1970-01-01T03:23:11.000Z</time></trkpt><trkpt lat="14.741063" lon="101.172722"><ele>332.1</ele><time>1970-01-01T03:23:14.000Z</time></trkpt><trkpt lat="14.741026" lon="101.172734"><ele>332</ele><time>1970-01-01T03:23:18.000Z</time></trkpt><trkpt lat="14.741" lon="101.172745"><ele>332</ele><time>1970-01-01T03:23:20.000Z</time></trkpt><trkpt lat="14.740966" lon="101.17277"><ele>331.9</ele><time>1970-01-01T03:23:23.000Z</time></trkpt><trkpt lat="14.74093" lon="101.172783"><ele>331.7</ele><time>1970-01-01T03:23:25.000Z</time></trkpt><trkpt lat="14.740886" lon="101.1728"><ele>331.5</ele><time>1970-01-01T03:23:27.000Z</time></trkpt><trkpt lat="14.740846" lon="101.172804"><ele>331.3</ele><time>1970-01-01T03:23:29.000Z</time></trkpt><trkpt lat="14.740806" lon="101.172803"><ele>331.2</ele><time>1970-01-01T03:23:31.000Z</time></trkpt><trkpt lat="14.740757" lon="101.172821"><ele>331.2</ele><time>1970-01-01T03:23:33.000Z</time></trkpt><trkpt lat="14.740727" lon="101.172829"><ele>331.2</ele><time>1970-01-01T03:23:34.000Z</time></trkpt><trkpt lat="14.740698" lon="101.172832"><ele>331.2</ele><time>1970-01-01T03:23:35.000Z</time></trkpt><trkpt lat="14.740668" lon="101.172837"><ele>331.4</ele><time>1970-01-01T03:23:36.000Z</time></trkpt><trkpt lat="14.74064" lon="101.172846"><ele>331.6</ele><time>1970-01-01T03:23:37.000Z</time></trkpt><trkpt lat="14.740615" lon="101.17286"><ele>331.7</ele><time>1970-01-01T03:23:38.000Z</time></trkpt><trkpt lat="14.740588" lon="101.172879"><ele>332</ele><time>1970-01-01T03:23:39.000Z</time></trkpt><trkpt lat="14.74056" lon="101.1729"><ele>332.4</ele><time>1970-01-01T03:23:40.000Z</time></trkpt><trkpt lat="14.740536" lon="101.172914"><ele>332.7</ele><time>1970-01-01T03:23:41.000Z</time></trkpt><trkpt lat="14.74051" lon="101.172923"><ele>333</ele><time>1970-01-01T03:23:42.000Z</time></trkpt><trkpt lat="14.740479" lon="101.172931"><ele>333.5</ele><time>1970-01-01T03:23:43.000Z</time></trkpt><trkpt lat="14.740451" lon="101.172941"><ele>333.9</ele><time>1970-01-01T03:23:44.000Z</time></trkpt><trkpt lat="14.740423" lon="101.172955"><ele>334.3</ele><time>1970-01-01T03:23:45.000Z</time></trkpt><trkpt lat="14.740395" lon="101.172973"><ele>334.7</ele><time>1970-01-01T03:23:46.000Z</time></trkpt><trkpt lat="14.740369" lon="101.172991"><ele>335.1</ele><time>1970-01-01T03:23:47.000Z</time></trkpt><trkpt lat="14.740343" lon="101.17301"><ele>335.4</ele><time>1970-01-01T03:23:48.000Z</time></trkpt><trkpt lat="14.740315" lon="101.173028"><ele>335.6</ele><time>1970-01-01T03:23:49.000Z</time></trkpt><trkpt lat="14.740285" lon="101.173043"><ele>335.7</ele><time>1970-01-01T03:23:50.000Z</time></trkpt><trkpt lat="14.740253" lon="101.173057"><ele>335.8</ele><time>1970-01-01T03:23:51.000Z</time></trkpt><trkpt lat="14.740217" lon="101.173074"><ele>335.9</ele><time>1970-01-01T03:23:52.000Z</time></trkpt><trkpt lat="14.74018" lon="101.173094"><ele>335.9</ele><time>1970-01-01T03:23:53.000Z</time></trkpt><trkpt lat="14.740138" lon="101.17311"><ele>335.9</ele><time>1970-01-01T03:23:54.000Z</time></trkpt><trkpt lat="14.740093" lon="101.173121"><ele>335.8</ele><time>1970-01-01T03:23:55.000Z</time></trkpt><trkpt lat="14.740045" lon="101.173128"><ele>334.9</ele><time>1970-01-01T03:23:56.000Z</time></trkpt><trkpt lat="14.739999" lon="101.173131"><ele>334</ele><time>1970-01-01T03:23:57.000Z</time></trkpt><trkpt lat="14.739951" lon="101.173134"><ele>333.2</ele><time>1970-01-01T03:23:58.000Z</time></trkpt><trkpt lat="14.739905" lon="101.173147"><ele>332.5</ele><time>1970-01-01T03:23:59.000Z</time></trkpt><trkpt lat="14.739861" lon="101.173164"><ele>331.8</ele><time>1970-01-01T03:24:00.000Z</time></trkpt><trkpt lat="14.739822" lon="101.17318"><ele>331.3</ele><time>1970-01-01T03:24:01.000Z</time></trkpt><trkpt lat="14.739789" lon="101.173192"><ele>331.1</ele><time>1970-01-01T03:24:02.000Z</time></trkpt><trkpt lat="14.739751" lon="101.1732"><ele>330.8</ele><time>1970-01-01T03:24:03.000Z</time></trkpt><trkpt lat="14.739712" lon="101.173216"><ele>330.6</ele><time>1970-01-01T03:24:04.000Z</time></trkpt><trkpt lat="14.739674" lon="101.173234"><ele>330.3</ele><time>1970-01-01T03:24:05.000Z</time></trkpt><trkpt lat="14.739636" lon="101.173256"><ele>330.2</ele><time>1970-01-01T03:24:06.000Z</time></trkpt><trkpt lat="14.7396" lon="101.173275"><ele>330.2</ele><time>1970-01-01T03:24:07.000Z</time></trkpt><trkpt lat="14.739572" lon="101.173281"><ele>330.4</ele><time>1970-01-01T03:24:08.000Z</time></trkpt><trkpt lat="14.739523" lon="101.17329"><ele>331</ele><time>1970-01-01T03:24:10.000Z</time></trkpt><trkpt lat="14.739479" lon="101.173311"><ele>331.4</ele><time>1970-01-01T03:24:12.000Z</time></trkpt><trkpt lat="14.739432" lon="101.173337"><ele>332</ele><time>1970-01-01T03:24:14.000Z</time></trkpt><trkpt lat="14.739408" lon="101.173353"><ele>332.5</ele><time>1970-01-01T03:24:15.000Z</time></trkpt><trkpt lat="14.73936" lon="101.173381"><ele>333.5</ele><time>1970-01-01T03:24:17.000Z</time></trkpt><trkpt lat="14.739327" lon="101.173393"><ele>334.1</ele><time>1970-01-01T03:24:18.000Z</time></trkpt><trkpt lat="14.739292" lon="101.173399"><ele>334.8</ele><time>1970-01-01T03:24:19.000Z</time></trkpt><trkpt lat="14.739259" lon="101.173401"><ele>335.2</ele><time>1970-01-01T03:24:20.000Z</time></trkpt><trkpt lat="14.739226" lon="101.173395"><ele>335.6</ele><time>1970-01-01T03:24:21.000Z</time></trkpt><trkpt lat="14.739195" lon="101.173384"><ele>335.9</ele><time>1970-01-01T03:24:22.000Z</time></trkpt><trkpt lat="14.739162" lon="101.173369"><ele>336</ele><time>1970-01-01T03:24:23.000Z</time></trkpt><trkpt lat="14.739135" lon="101.173355"><ele>336.1</ele><time>1970-01-01T03:24:24.000Z</time></trkpt><trkpt lat="14.739112" lon="101.173332"><ele>336.2</ele><time>1970-01-01T03:24:25.000Z</time></trkpt><trkpt lat="14.739086" lon="101.173304"><ele>336.2</ele><time>1970-01-01T03:24:26.000Z</time></trkpt><trkpt lat="14.739056" lon="101.173277"><ele>336.3</ele><time>1970-01-01T03:24:27.000Z</time></trkpt><trkpt lat="14.739029" lon="101.173259"><ele>336.4</ele><time>1970-01-01T03:24:28.000Z</time></trkpt><trkpt lat="14.738998" lon="101.173241"><ele>336.5</ele><time>1970-01-01T03:24:29.000Z</time></trkpt><trkpt lat="14.738962" lon="101.173217"><ele>336.7</ele><time>1970-01-01T03:24:30.000Z</time></trkpt><trkpt lat="14.738928" lon="101.173199"><ele>337</ele><time>1970-01-01T03:24:31.000Z</time></trkpt><trkpt lat="14.7389" lon="101.173181"><ele>337.2</ele><time>1970-01-01T03:24:32.000Z</time></trkpt><trkpt lat="14.738862" lon="101.173158"><ele>337.5</ele><time>1970-01-01T03:24:34.000Z</time></trkpt><trkpt lat="14.738824" lon="101.173147"><ele>337.7</ele><time>1970-01-01T03:24:39.000Z</time></trkpt><trkpt lat="14.738785" lon="101.173137"><ele>337.7</ele><time>1970-01-01T03:24:41.000Z</time></trkpt><trkpt lat="14.738731" lon="101.173137"><ele>337.6</ele><time>1970-01-01T03:24:43.000Z</time></trkpt><trkpt lat="14.738702" lon="101.173145"><ele>337.5</ele><time>1970-01-01T03:24:44.000Z</time></trkpt><trkpt lat="14.738676" lon="101.173163"><ele>337.3</ele><time>1970-01-01T03:24:45.000Z</time></trkpt><trkpt lat="14.738657" lon="101.173184"><ele>336.9</ele><time>1970-01-01T03:24:46.000Z</time></trkpt><trkpt lat="14.738639" lon="101.173211"><ele>336.3</ele><time>1970-01-01T03:24:47.000Z</time></trkpt><trkpt lat="14.73862" lon="101.173241"><ele>335.9</ele><time>1970-01-01T03:24:48.000Z</time></trkpt><trkpt lat="14.738602" lon="101.173272"><ele>335.5</ele><time>1970-01-01T03:24:49.000Z</time></trkpt><trkpt lat="14.738584" lon="101.173302"><ele>335.2</ele><time>1970-01-01T03:24:50.000Z</time></trkpt><trkpt lat="14.738565" lon="101.17333"><ele>335</ele><time>1970-01-01T03:24:51.000Z</time></trkpt><trkpt lat="14.73852" lon="101.17336"><ele>334.8</ele><time>1970-01-01T03:24:53.000Z</time></trkpt><trkpt lat="14.73848" lon="101.173382"><ele>334.5</ele><time>1970-01-01T03:24:55.000Z</time></trkpt><trkpt lat="14.738443" lon="101.173402"><ele>334.2</ele><time>1970-01-01T03:24:57.000Z</time></trkpt><trkpt lat="14.738394" lon="101.173422"><ele>333.8</ele><time>1970-01-01T03:24:59.000Z</time></trkpt><trkpt lat="14.738343" lon="101.173437"><ele>333.5</ele><time>1970-01-01T03:25:01.000Z</time></trkpt><trkpt lat="14.738315" lon="101.173444"><ele>333.4</ele><time>1970-01-01T03:25:02.000Z</time></trkpt><trkpt lat="14.738277" lon="101.173447"><ele>333.2</ele><time>1970-01-01T03:25:04.000Z</time></trkpt><trkpt lat="14.738246" lon="101.173458"><ele>333.1</ele><time>1970-01-01T03:25:06.000Z</time></trkpt><trkpt lat="14.738196" lon="101.173469"><ele>333.1</ele><time>1970-01-01T03:25:08.000Z</time></trkpt><trkpt lat="14.738166" lon="101.173475"><ele>333.1</ele><time>1970-01-01T03:25:09.000Z</time></trkpt><trkpt lat="14.738137" lon="101.173473"><ele>333.1</ele><time>1970-01-01T03:25:10.000Z</time></trkpt><trkpt lat="14.738108" lon="101.173469"><ele>333.1</ele><time>1970-01-01T03:25:11.000Z</time></trkpt><trkpt lat="14.738075" lon="101.173464"><ele>333.1</ele><time>1970-01-01T03:25:12.000Z</time></trkpt><trkpt lat="14.73804" lon="101.173465"><ele>333.2</ele><time>1970-01-01T03:25:13.000Z</time></trkpt><trkpt lat="14.738006" lon="101.173467"><ele>333.1</ele><time>1970-01-01T03:25:14.000Z</time></trkpt><trkpt lat="14.737978" lon="101.173465"><ele>333.1</ele><time>1970-01-01T03:25:15.000Z</time></trkpt><trkpt lat="14.737952" lon="101.17345"><ele>333.1</ele><time>1970-01-01T03:25:16.000Z</time></trkpt><trkpt lat="14.737927" lon="101.173419"><ele>333</ele><time>1970-01-01T03:25:17.000Z</time></trkpt><trkpt lat="14.737903" lon="101.173373"><ele>332.9</ele><time>1970-01-01T03:25:18.000Z</time></trkpt><trkpt lat="14.737881" lon="101.173324"><ele>333.1</ele><time>1970-01-01T03:25:19.000Z</time></trkpt><trkpt lat="14.737868" lon="101.173288"><ele>333.3</ele><time>1970-01-01T03:25:20.000Z</time></trkpt><trkpt lat="14.737859" lon="101.173261"><ele>333.3</ele><time>1970-01-01T03:25:21.000Z</time></trkpt><trkpt lat="14.73783" lon="101.173218"><ele>333.4</ele><time>1970-01-01T03:25:23.000Z</time></trkpt><trkpt lat="14.73777" lon="101.173203"><ele>333.4</ele><time>1970-01-01T03:25:25.000Z</time></trkpt><trkpt lat="14.737732" lon="101.173186"><ele>333.4</ele><time>1970-01-01T03:25:26.000Z</time></trkpt><trkpt lat="14.737698" lon="101.173168"><ele>333.3</ele><time>1970-01-01T03:25:27.000Z</time></trkpt><trkpt lat="14.737668" lon="101.173147"><ele>333.3</ele><time>1970-01-01T03:25:28.000Z</time></trkpt><trkpt lat="14.737641" lon="101.173128"><ele>333.2</ele><time>1970-01-01T03:25:29.000Z</time></trkpt><trkpt lat="14.737613" lon="101.173111"><ele>333.2</ele><time>1970-01-01T03:25:30.000Z</time></trkpt><trkpt lat="14.737583" lon="101.173092"><ele>333.1</ele><time>1970-01-01T03:25:31.000Z</time></trkpt><trkpt lat="14.737555" lon="101.173074"><ele>333.2</ele><time>1970-01-01T03:25:32.000Z</time></trkpt><trkpt lat="14.737529" lon="101.173056"><ele>333.3</ele><time>1970-01-01T03:25:33.000Z</time></trkpt><trkpt lat="14.7375" lon="101.173039"><ele>333.4</ele><time>1970-01-01T03:25:34.000Z</time></trkpt><trkpt lat="14.73747" lon="101.173022"><ele>333.7</ele><time>1970-01-01T03:25:35.000Z</time></trkpt><trkpt lat="14.737441" lon="101.173005"><ele>334.1</ele><time>1970-01-01T03:25:36.000Z</time></trkpt><trkpt lat="14.73741" lon="101.172989"><ele>334.4</ele><time>1970-01-01T03:25:37.000Z</time></trkpt><trkpt lat="14.737383" lon="101.172975"><ele>334.6</ele><time>1970-01-01T03:25:38.000Z</time></trkpt><trkpt lat="14.737357" lon="101.172962"><ele>334.9</ele><time>1970-01-01T03:25:39.000Z</time></trkpt><trkpt lat="14.737328" lon="101.172946"><ele>335.1</ele><time>1970-01-01T03:25:40.000Z</time></trkpt><trkpt lat="14.7373" lon="101.17293"><ele>335.2</ele><time>1970-01-01T03:25:41.000Z</time></trkpt><trkpt lat="14.737274" lon="101.172914"><ele>335.4</ele><time>1970-01-01T03:25:42.000Z</time></trkpt><trkpt lat="14.737248" lon="101.172897"><ele>335.7</ele><time>1970-01-01T03:25:43.000Z</time></trkpt><trkpt lat="14.737224" lon="101.172878"><ele>336.2</ele><time>1970-01-01T03:25:44.000Z</time></trkpt><trkpt lat="14.7372" lon="101.17286"><ele>336.7</ele><time>1970-01-01T03:25:45.000Z</time></trkpt><trkpt lat="14.737177" lon="101.172837"><ele>337</ele><time>1970-01-01T03:25:46.000Z</time></trkpt><trkpt lat="14.737158" lon="101.17281"><ele>337.1</ele><time>1970-01-01T03:25:47.000Z</time></trkpt><trkpt lat="14.737141" lon="101.172781"><ele>337.2</ele><time>1970-01-01T03:25:48.000Z</time></trkpt><trkpt lat="14.737126" lon="101.172751"><ele>337.3</ele><time>1970-01-01T03:25:49.000Z</time></trkpt><trkpt lat="14.737108" lon="101.172724"><ele>337.2</ele><time>1970-01-01T03:25:50.000Z</time></trkpt><trkpt lat="14.737087" lon="101.172702"><ele>337.2</ele><time>1970-01-01T03:25:51.000Z</time></trkpt><trkpt lat="14.737042" lon="101.172677"><ele>337.1</ele><time>1970-01-01T03:25:53.000Z</time></trkpt><trkpt lat="14.737011" lon="101.172687"><ele>337.1</ele><time>1970-01-01T03:25:55.000Z</time></trkpt><trkpt lat="14.737008" lon="101.17273"><ele>337.2</ele><time>1970-01-01T03:25:57.000Z</time></trkpt><trkpt lat="14.737015" lon="101.17276"><ele>337.2</ele><time>1970-01-01T03:25:58.000Z</time></trkpt><trkpt lat="14.737023" lon="101.172788"><ele>337.2</ele><time>1970-01-01T03:25:59.000Z</time></trkpt><trkpt lat="14.737029" lon="101.172817"><ele>337.2</ele><time>1970-01-01T03:26:00.000Z</time></trkpt><trkpt lat="14.737027" lon="101.172869"><ele>337.3</ele><time>1970-01-01T03:26:02.000Z</time></trkpt><trkpt lat="14.737002" lon="101.172901"><ele>337.3</ele><time>1970-01-01T03:26:04.000Z</time></trkpt><trkpt lat="14.736964" lon="101.172916"><ele>337.4</ele><time>1970-01-01T03:26:06.000Z</time></trkpt><trkpt lat="14.736922" lon="101.172915"><ele>337.5</ele><time>1970-01-01T03:26:08.000Z</time></trkpt><trkpt lat="14.736891" lon="101.172927"><ele>337.5</ele><time>1970-01-01T03:26:10.000Z</time></trkpt><trkpt lat="14.736879" lon="101.172959"><ele>337.6</ele><time>1970-01-01T03:26:12.000Z</time></trkpt><trkpt lat="14.736878" lon="101.172989"><ele>337.7</ele><time>1970-01-01T03:26:13.000Z</time></trkpt><trkpt lat="14.736878" lon="101.17302"><ele>337.7</ele><time>1970-01-01T03:26:14.000Z</time></trkpt><trkpt lat="14.736874" lon="101.17305"><ele>337.7</ele><time>1970-01-01T03:26:15.000Z</time></trkpt><trkpt lat="14.736864" lon="101.173098"><ele>337.9</ele><time>1970-01-01T03:26:17.000Z</time></trkpt><trkpt lat="14.736862" lon="101.173129"><ele>338.1</ele><time>1970-01-01T03:26:18.000Z</time></trkpt><trkpt lat="14.736862" lon="101.173164"><ele>338.3</ele><time>1970-01-01T03:26:19.000Z</time></trkpt><trkpt lat="14.736863" lon="101.173195"><ele>338.6</ele><time>1970-01-01T03:26:20.000Z</time></trkpt><trkpt lat="14.736868" lon="101.173225"><ele>338.8</ele><time>1970-01-01T03:26:21.000Z</time></trkpt><trkpt lat="14.736878" lon="101.173261"><ele>339</ele><time>1970-01-01T03:26:22.000Z</time></trkpt><trkpt lat="14.736889" lon="101.173303"><ele>339.3</ele><time>1970-01-01T03:26:23.000Z</time></trkpt><trkpt lat="14.736897" lon="101.173352"><ele>339.5</ele><time>1970-01-01T03:26:24.000Z</time></trkpt><trkpt lat="14.736899" lon="101.173404"><ele>339.4</ele><time>1970-01-01T03:26:25.000Z</time></trkpt><trkpt lat="14.736896" lon="101.173449"><ele>339.3</ele><time>1970-01-01T03:26:26.000Z</time></trkpt><trkpt lat="14.736881" lon="101.173488"><ele>339.1</ele><time>1970-01-01T03:26:28.000Z</time></trkpt><trkpt lat="14.736857" lon="101.173521"><ele>339</ele><time>1970-01-01T03:26:30.000Z</time></trkpt><trkpt lat="14.736836" lon="101.173569"><ele>339</ele><time>1970-01-01T03:26:32.000Z</time></trkpt><trkpt lat="14.736824" lon="101.173602"><ele>338.9</ele><time>1970-01-01T03:26:33.000Z</time></trkpt><trkpt lat="14.73681" lon="101.17364"><ele>338.8</ele><time>1970-01-01T03:26:34.000Z</time></trkpt><trkpt lat="14.736796" lon="101.173678"><ele>338.7</ele><time>1970-01-01T03:26:35.000Z</time></trkpt><trkpt lat="14.73678" lon="101.173724"><ele>338.2</ele><time>1970-01-01T03:26:36.000Z</time></trkpt><trkpt lat="14.736728" lon="101.173824"><ele>337.4</ele><time>1970-01-01T03:26:37.000Z</time></trkpt><trkpt lat="14.736701" lon="101.173892"><ele>336.6</ele><time>1970-01-01T03:26:38.000Z</time></trkpt><trkpt lat="14.736682" lon="101.173941"><ele>336.1</ele><time>1970-01-01T03:26:39.000Z</time></trkpt><trkpt lat="14.736657" lon="101.174011"><ele>335.9</ele><time>1970-01-01T03:26:40.000Z</time></trkpt><trkpt lat="14.736665" lon="101.174053"><ele>336</ele><time>1970-01-01T03:26:41.000Z</time></trkpt><trkpt lat="14.736681" lon="101.174115"><ele>336.1</ele><time>1970-01-01T03:26:42.000Z</time></trkpt><trkpt lat="14.736665" lon="101.174142"><ele>336.1</ele><time>1970-01-01T03:26:45.000Z</time></trkpt><trkpt lat="14.736616" lon="101.174136"><ele>336.1</ele><time>1970-01-01T03:26:47.000Z</time></trkpt><trkpt lat="14.736588" lon="101.174152"><ele>336.1</ele><time>1970-01-01T03:26:48.000Z</time></trkpt><trkpt lat="14.736553" lon="101.174199"><ele>336</ele><time>1970-01-01T03:26:50.000Z</time></trkpt><trkpt lat="14.736532" lon="101.174224"><ele>335.9</ele><time>1970-01-01T03:26:51.000Z</time></trkpt><trkpt lat="14.736503" lon="101.174243"><ele>335.7</ele><time>1970-01-01T03:26:52.000Z</time></trkpt><trkpt lat="14.736477" lon="101.174233"><ele>335.6</ele><time>1970-01-01T03:26:53.000Z</time></trkpt><trkpt lat="14.736441" lon="101.174231"><ele>335.5</ele><time>1970-01-01T03:26:55.000Z</time></trkpt><trkpt lat="14.736394" lon="101.174242"><ele>335.4</ele><time>1970-01-01T03:26:57.000Z</time></trkpt><trkpt lat="14.736352" lon="101.174241"><ele>335.4</ele><time>1970-01-01T03:26:59.000Z</time></trkpt><trkpt lat="14.736322" lon="101.174233"><ele>335.3</ele><time>1970-01-01T03:27:00.000Z</time></trkpt><trkpt lat="14.736284" lon="101.17423"><ele>335.3</ele><time>1970-01-01T03:27:01.000Z</time></trkpt><trkpt lat="14.736239" lon="101.174228"><ele>335.3</ele><time>1970-01-01T03:27:02.000Z</time></trkpt><trkpt lat="14.736191" lon="101.174224"><ele>335.4</ele><time>1970-01-01T03:27:03.000Z</time></trkpt><trkpt lat="14.736141" lon="101.174217"><ele>335.3</ele><time>1970-01-01T03:27:04.000Z</time></trkpt><trkpt lat="14.736091" lon="101.174222"><ele>335.2</ele><time>1970-01-01T03:27:05.000Z</time></trkpt><trkpt lat="14.736027" lon="101.17434"><ele>334.6</ele><time>1970-01-01T03:27:06.000Z</time></trkpt><trkpt lat="14.735988" lon="101.174392"><ele>334.2</ele><time>1970-01-01T03:27:07.000Z</time></trkpt><trkpt lat="14.735968" lon="101.174489"><ele>334.1</ele><time>1970-01-01T03:27:08.000Z</time></trkpt><trkpt lat="14.735959" lon="101.174525"><ele>334.1</ele><time>1970-01-01T03:27:09.000Z</time></trkpt><trkpt lat="14.735945" lon="101.17458"><ele>333.9</ele><time>1970-01-01T03:27:10.000Z</time></trkpt><trkpt lat="14.73591" lon="101.174624"><ele>333.3</ele><time>1970-01-01T03:27:12.000Z</time></trkpt><trkpt lat="14.735891" lon="101.174655"><ele>333</ele><time>1970-01-01T03:27:13.000Z</time></trkpt><trkpt lat="14.735912" lon="101.174727"><ele>332.3</ele><time>1970-01-01T03:27:14.000Z</time></trkpt><trkpt lat="14.735885" lon="101.174737"><ele>331.9</ele><time>1970-01-01T03:27:20.000Z</time></trkpt><trkpt lat="14.735873" lon="101.17471"><ele>331.5</ele><time>1970-01-01T03:27:23.000Z</time></trkpt><trkpt lat="14.735849" lon="101.174724"><ele>331</ele><time>1970-01-01T03:27:33.000Z</time></trkpt><trkpt lat="14.735835" lon="101.174757"><ele>330.3</ele><time>1970-01-01T03:27:35.000Z</time></trkpt><trkpt lat="14.735831" lon="101.174792"><ele>329.6</ele><time>1970-01-01T03:27:36.000Z</time></trkpt><trkpt lat="14.735825" lon="101.174922"><ele>328.5</ele><time>1970-01-01T03:27:37.000Z</time></trkpt><trkpt lat="14.735809" lon="101.174993"><ele>328.5</ele><time>1970-01-01T03:27:38.000Z</time></trkpt><trkpt lat="14.735799" lon="101.175041"><ele>328.2</ele><time>1970-01-01T03:27:39.000Z</time></trkpt><trkpt lat="14.735782" lon="101.175114"><ele>327.4</ele><time>1970-01-01T03:27:40.000Z</time></trkpt><trkpt lat="14.735803" lon="101.175198"><ele>326.2</ele><time>1970-01-01T03:27:41.000Z</time></trkpt><trkpt lat="14.735788" lon="101.175302"><ele>324.4</ele><time>1970-01-01T03:27:42.000Z</time></trkpt><trkpt lat="14.735788" lon="101.175374"><ele>323.1</ele><time>1970-01-01T03:27:43.000Z</time></trkpt><trkpt lat="14.735767" lon="101.175449"><ele>322.3</ele><time>1970-01-01T03:27:44.000Z</time></trkpt><trkpt lat="14.735726" lon="101.175524"><ele>321.1</ele><time>1970-01-01T03:27:45.000Z</time></trkpt><trkpt lat="14.735673" lon="101.175575"><ele>320.6</ele><time>1970-01-01T03:27:46.000Z</time></trkpt><trkpt lat="14.735641" lon="101.175651"><ele>320.3</ele><time>1970-01-01T03:27:47.000Z</time></trkpt><trkpt lat="14.735637" lon="101.175758"><ele>320.3</ele><time>1970-01-01T03:27:48.000Z</time></trkpt><trkpt lat="14.735617" lon="101.175801"><ele>320.3</ele><time>1970-01-01T03:27:49.000Z</time></trkpt><trkpt lat="14.735577" lon="101.17582"><ele>320.1</ele><time>1970-01-01T03:27:50.000Z</time></trkpt><trkpt lat="14.735565" lon="101.175851"><ele>320</ele><time>1970-01-01T03:27:51.000Z</time></trkpt><trkpt lat="14.735505" lon="101.175857"><ele>319</ele><time>1970-01-01T03:27:52.000Z</time></trkpt><trkpt lat="14.735458" lon="101.175858"><ele>318.2</ele><time>1970-01-01T03:27:53.000Z</time></trkpt><trkpt lat="14.735377" lon="101.175879"><ele>317.2</ele><time>1970-01-01T03:27:54.000Z</time></trkpt><trkpt lat="14.735323" lon="101.175962"><ele>315.4</ele><time>1970-01-01T03:27:55.000Z</time></trkpt><trkpt lat="14.735235" lon="101.175977"><ele>314.5</ele><time>1970-01-01T03:27:56.000Z</time></trkpt><trkpt lat="14.735157" lon="101.176004"><ele>313.9</ele><time>1970-01-01T03:27:57.000Z</time></trkpt><trkpt lat="14.735086" lon="101.17599"><ele>313.4</ele><time>1970-01-01T03:27:58.000Z</time></trkpt><trkpt lat="14.73506" lon="101.176002"><ele>313.2</ele><time>1970-01-01T03:27:59.000Z</time></trkpt><trkpt lat="14.735012" lon="101.176028"><ele>312.6</ele><time>1970-01-01T03:28:00.000Z</time></trkpt><trkpt lat="14.734963" lon="101.176134"><ele>310.9</ele><time>1970-01-01T03:28:01.000Z</time></trkpt><trkpt lat="14.734912" lon="101.176205"><ele>309.4</ele><time>1970-01-01T03:28:02.000Z</time></trkpt><trkpt lat="14.734841" lon="101.176285"><ele>307.6</ele><time>1970-01-01T03:28:03.000Z</time></trkpt><trkpt lat="14.73479" lon="101.176258"><ele>306.8</ele><time>1970-01-01T03:28:04.000Z</time></trkpt><trkpt lat="14.734757" lon="101.176324"><ele>306.5</ele><time>1970-01-01T03:28:06.000Z</time></trkpt><trkpt lat="14.734746" lon="101.176368"><ele>306.4</ele><time>1970-01-01T03:28:07.000Z</time></trkpt><trkpt lat="14.734729" lon="101.176455"><ele>305.8</ele><time>1970-01-01T03:28:08.000Z</time></trkpt><trkpt lat="14.734674" lon="101.176481"><ele>305.5</ele><time>1970-01-01T03:28:09.000Z</time></trkpt><trkpt lat="14.734614" lon="101.176526"><ele>305.1</ele><time>1970-01-01T03:28:10.000Z</time></trkpt><trkpt lat="14.734564" lon="101.176564"><ele>304.7</ele><time>1970-01-01T03:28:11.000Z</time></trkpt><trkpt lat="14.734527" lon="101.176606"><ele>304.3</ele><time>1970-01-01T03:28:12.000Z</time></trkpt><trkpt lat="14.734462" lon="101.176659"><ele>303.4</ele><time>1970-01-01T03:28:13.000Z</time></trkpt><trkpt lat="14.734405" lon="101.176693"><ele>302.6</ele><time>1970-01-01T03:28:14.000Z</time></trkpt><trkpt lat="14.734396" lon="101.176729"><ele>302</ele><time>1970-01-01T03:28:15.000Z</time></trkpt><trkpt lat="14.734351" lon="101.176738"><ele>301.3</ele><time>1970-01-01T03:28:16.000Z</time></trkpt><trkpt lat="14.734316" lon="101.176814"><ele>299.5</ele><time>1970-01-01T03:28:17.000Z</time></trkpt><trkpt lat="14.734292" lon="101.176856"><ele>298</ele><time>1970-01-01T03:28:18.000Z</time></trkpt><trkpt lat="14.734247" lon="101.176891"><ele>296.5</ele><time>1970-01-01T03:28:19.000Z</time></trkpt><trkpt lat="14.734235" lon="101.176971"><ele>295.6</ele><time>1970-01-01T03:28:20.000Z</time></trkpt><trkpt lat="14.73421" lon="101.177029"><ele>295.7</ele><time>1970-01-01T03:28:21.000Z</time></trkpt><trkpt lat="14.734219" lon="101.177099"><ele>295.9</ele><time>1970-01-01T03:28:22.000Z</time></trkpt><trkpt lat="14.734249" lon="101.177152"><ele>296.8</ele><time>1970-01-01T03:28:23.000Z</time></trkpt><trkpt lat="14.734255" lon="101.177194"><ele>297.8</ele><time>1970-01-01T03:28:24.000Z</time></trkpt><trkpt lat="14.734307" lon="101.177277"><ele>299</ele><time>1970-01-01T03:28:25.000Z</time></trkpt><trkpt lat="14.734341" lon="101.177337"><ele>300.1</ele><time>1970-01-01T03:28:26.000Z</time></trkpt><trkpt lat="14.734356" lon="101.177408"><ele>301.5</ele><time>1970-01-01T03:28:27.000Z</time></trkpt><trkpt lat="14.734372" lon="101.177477"><ele>302.4</ele><time>1970-01-01T03:28:28.000Z</time></trkpt><trkpt lat="14.7344" lon="101.177511"><ele>302.8</ele><time>1970-01-01T03:28:29.000Z</time></trkpt><trkpt lat="14.734434" lon="101.177558"><ele>303.2</ele><time>1970-01-01T03:28:30.000Z</time></trkpt><trkpt lat="14.734457" lon="101.177581"><ele>303.4</ele><time>1970-01-01T03:28:31.000Z</time></trkpt><trkpt lat="14.734493" lon="101.177628"><ele>303.8</ele><time>1970-01-01T03:28:32.000Z</time></trkpt><trkpt lat="14.734504" lon="101.177673"><ele>304.2</ele><time>1970-01-01T03:28:34.000Z</time></trkpt><trkpt lat="14.734568" lon="101.1777"><ele>304.9</ele><time>1970-01-01T03:28:37.000Z</time></trkpt><trkpt lat="14.734604" lon="101.177727"><ele>305.6</ele><time>1970-01-01T03:28:38.000Z</time></trkpt><trkpt lat="14.734654" lon="101.177739"><ele>305.9</ele><time>1970-01-01T03:28:39.000Z</time></trkpt><trkpt lat="14.734681" lon="101.177776"><ele>305.8</ele><time>1970-01-01T03:28:41.000Z</time></trkpt><trkpt lat="14.734701" lon="101.177799"><ele>306</ele><time>1970-01-01T03:28:42.000Z</time></trkpt><trkpt lat="14.734756" lon="101.177822"><ele>306.5</ele><time>1970-01-01T03:28:44.000Z</time></trkpt><trkpt lat="14.734787" lon="101.177828"><ele>306.6</ele><time>1970-01-01T03:28:45.000Z</time></trkpt><trkpt lat="14.734825" lon="101.177836"><ele>306.6</ele><time>1970-01-01T03:28:46.000Z</time></trkpt><trkpt lat="14.73487" lon="101.177844"><ele>306.5</ele><time>1970-01-01T03:28:47.000Z</time></trkpt><trkpt lat="14.734932" lon="101.177868"><ele>305.9</ele><time>1970-01-01T03:28:48.000Z</time></trkpt><trkpt lat="14.734982" lon="101.177904"><ele>305.5</ele><time>1970-01-01T03:28:49.000Z</time></trkpt><trkpt lat="14.73503" lon="101.177962"><ele>304.8</ele><time>1970-01-01T03:28:50.000Z</time></trkpt><trkpt lat="14.735101" lon="101.178049"><ele>303.3</ele><time>1970-01-01T03:28:51.000Z</time></trkpt><trkpt lat="14.735143" lon="101.178121"><ele>302.2</ele><time>1970-01-01T03:28:52.000Z</time></trkpt><trkpt lat="14.735187" lon="101.178198"><ele>300.9</ele><time>1970-01-01T03:28:53.000Z</time></trkpt><trkpt lat="14.735229" lon="101.17829"><ele>299.2</ele><time>1970-01-01T03:28:54.000Z</time></trkpt><trkpt lat="14.735292" lon="101.178307"><ele>297.9</ele><time>1970-01-01T03:28:55.000Z</time></trkpt><trkpt lat="14.735309" lon="101.178397"><ele>296.1</ele><time>1970-01-01T03:28:56.000Z</time></trkpt><trkpt lat="14.735375" lon="101.178459"><ele>294.4</ele><time>1970-01-01T03:28:57.000Z</time></trkpt><trkpt lat="14.735431" lon="101.178518"><ele>293.2</ele><time>1970-01-01T03:28:58.000Z</time></trkpt><trkpt lat="14.735481" lon="101.178572"><ele>292.2</ele><time>1970-01-01T03:28:59.000Z</time></trkpt><trkpt lat="14.735549" lon="101.178563"><ele>291.6</ele><time>1970-01-01T03:29:00.000Z</time></trkpt><trkpt lat="14.735594" lon="101.17854"><ele>291.7</ele><time>1970-01-01T03:29:01.000Z</time></trkpt><trkpt lat="14.735561" lon="101.178529"><ele>291.6</ele><time>1970-01-01T03:29:03.000Z</time></trkpt><trkpt lat="14.735524" lon="101.178519"><ele>291.4</ele><time>1970-01-01T03:29:05.000Z</time></trkpt><trkpt lat="14.735503" lon="101.178546"><ele>291.3</ele><time>1970-01-01T03:29:08.000Z</time></trkpt><trkpt lat="14.735478" lon="101.178577"><ele>291.5</ele><time>1970-01-01T03:29:10.000Z</time></trkpt><trkpt lat="14.735481" lon="101.178631"><ele>291.7</ele><time>1970-01-01T03:29:12.000Z</time></trkpt><trkpt lat="14.735478" lon="101.178665"><ele>291.8</ele><time>1970-01-01T03:29:13.000Z</time></trkpt><trkpt lat="14.735466" lon="101.178718"><ele>291.6</ele><time>1970-01-01T03:29:15.000Z</time></trkpt><trkpt lat="14.735446" lon="101.17876"><ele>291.2</ele><time>1970-01-01T03:29:17.000Z</time></trkpt><trkpt lat="14.735417" lon="101.178785"><ele>291</ele><time>1970-01-01T03:29:20.000Z</time></trkpt><trkpt lat="14.73539" lon="101.178814"><ele>290.9</ele><time>1970-01-01T03:29:22.000Z</time></trkpt><trkpt lat="14.735362" lon="101.178841"><ele>290.8</ele><time>1970-01-01T03:29:24.000Z</time></trkpt><trkpt lat="14.735337" lon="101.178881"><ele>290.2</ele><time>1970-01-01T03:29:26.000Z</time></trkpt><trkpt lat="14.735308" lon="101.178903"><ele>289.8</ele><time>1970-01-01T03:29:28.000Z</time></trkpt><trkpt lat="14.735271" lon="101.178925"><ele>289.3</ele><time>1970-01-01T03:29:30.000Z</time></trkpt><trkpt lat="14.735229" lon="101.178944"><ele>288.9</ele><time>1970-01-01T03:29:32.000Z</time></trkpt><trkpt lat="14.735198" lon="101.178998"><ele>288.5</ele><time>1970-01-01T03:29:34.000Z</time></trkpt><trkpt lat="14.735188" lon="101.179038"><ele>288.4</ele><time>1970-01-01T03:29:35.000Z</time></trkpt><trkpt lat="14.735183" lon="101.179081"><ele>288.6</ele><time>1970-01-01T03:29:36.000Z</time></trkpt><trkpt lat="14.735179" lon="101.17913"><ele>289.2</ele><time>1970-01-01T03:29:37.000Z</time></trkpt><trkpt lat="14.734982" lon="101.179407"><ele>292.3</ele><time>1970-01-01T03:29:39.000Z</time></trkpt><trkpt lat="14.734919" lon="101.17945"><ele>291.6</ele><time>1970-01-01T03:29:40.000Z</time></trkpt><trkpt lat="14.73485" lon="101.179524"><ele>292.3</ele><time>1970-01-01T03:29:41.000Z</time></trkpt><trkpt lat="14.734798" lon="101.179578"><ele>291.9</ele><time>1970-01-01T03:29:42.000Z</time></trkpt><trkpt lat="14.734742" lon="101.179629"><ele>290.2</ele><time>1970-01-01T03:29:43.000Z</time></trkpt><trkpt lat="14.734678" lon="101.179659"><ele>289.4</ele><time>1970-01-01T03:29:44.000Z</time></trkpt><trkpt lat="14.734631" lon="101.179712"><ele>287.7</ele><time>1970-01-01T03:29:45.000Z</time></trkpt><trkpt lat="14.734581" lon="101.179759"><ele>286.5</ele><time>1970-01-01T03:29:46.000Z</time></trkpt><trkpt lat="14.73456" lon="101.179802"><ele>285.6</ele><time>1970-01-01T03:29:47.000Z</time></trkpt><trkpt lat="14.734555" lon="101.179832"><ele>284.4</ele><time>1970-01-01T03:29:48.000Z</time></trkpt><trkpt lat="14.734554" lon="101.179891"><ele>282.2</ele><time>1970-01-01T03:29:50.000Z</time></trkpt><trkpt lat="14.73454" lon="101.179866"><ele>282</ele><time>1970-01-01T03:29:51.000Z</time></trkpt><trkpt lat="14.734512" lon="101.179892"><ele>281.6</ele><time>1970-01-01T03:29:55.000Z</time></trkpt><trkpt lat="14.734501" lon="101.179922"><ele>281.3</ele><time>1970-01-01T03:29:57.000Z</time></trkpt><trkpt lat="14.734476" lon="101.179953"><ele>281</ele><time>1970-01-01T03:29:59.000Z</time></trkpt><trkpt lat="14.734452" lon="101.179984"><ele>280.6</ele><time>1970-01-01T03:30:00.000Z</time></trkpt><trkpt lat="14.734426" lon="101.180019"><ele>280</ele><time>1970-01-01T03:30:01.000Z</time></trkpt><trkpt lat="14.7344" lon="101.180051"><ele>279.5</ele><time>1970-01-01T03:30:02.000Z</time></trkpt><trkpt lat="14.734366" lon="101.180088"><ele>280.2</ele><time>1970-01-01T03:30:03.000Z</time></trkpt><trkpt lat="14.734284" lon="101.180155"><ele>281.1</ele><time>1970-01-01T03:30:04.000Z</time></trkpt><trkpt lat="14.73424" lon="101.180223"><ele>281.4</ele><time>1970-01-01T03:30:05.000Z</time></trkpt><trkpt lat="14.734182" lon="101.180274"><ele>281.6</ele><time>1970-01-01T03:30:06.000Z</time></trkpt><trkpt lat="14.734128" lon="101.180291"><ele>280.9</ele><time>1970-01-01T03:30:07.000Z</time></trkpt><trkpt lat="14.73409" lon="101.180345"><ele>280.7</ele><time>1970-01-01T03:30:08.000Z</time></trkpt><trkpt lat="14.734058" lon="101.180393"><ele>280.7</ele><time>1970-01-01T03:30:09.000Z</time></trkpt><trkpt lat="14.734026" lon="101.180421"><ele>280.5</ele><time>1970-01-01T03:30:10.000Z</time></trkpt><trkpt lat="14.733977" lon="101.180467"><ele>280</ele><time>1970-01-01T03:30:11.000Z</time></trkpt><trkpt lat="14.73395" lon="101.180507"><ele>279.3</ele><time>1970-01-01T03:30:12.000Z</time></trkpt><trkpt lat="14.733923" lon="101.180536"><ele>278.8</ele><time>1970-01-01T03:30:13.000Z</time></trkpt><trkpt lat="14.733902" lon="101.180564"><ele>278.5</ele><time>1970-01-01T03:30:14.000Z</time></trkpt><trkpt lat="14.733884" lon="101.180594"><ele>278.1</ele><time>1970-01-01T03:30:15.000Z</time></trkpt><trkpt lat="14.733878" lon="101.180644"><ele>277.8</ele><time>1970-01-01T03:30:16.000Z</time></trkpt><trkpt lat="14.733874" lon="101.180672"><ele>277.6</ele><time>1970-01-01T03:30:17.000Z</time></trkpt><trkpt lat="14.733866" lon="101.180729"><ele>277.1</ele><time>1970-01-01T03:30:18.000Z</time></trkpt><trkpt lat="14.733869" lon="101.180803"><ele>276.3</ele><time>1970-01-01T03:30:20.000Z</time></trkpt><trkpt lat="14.733881" lon="101.180856"><ele>275.5</ele><time>1970-01-01T03:30:21.000Z</time></trkpt><trkpt lat="14.733902" lon="101.180903"><ele>274.6</ele><time>1970-01-01T03:30:22.000Z</time></trkpt><trkpt lat="14.733909" lon="101.180952"><ele>273.7</ele><time>1970-01-01T03:30:23.000Z</time></trkpt><trkpt lat="14.733911" lon="101.181006"><ele>273.6</ele><time>1970-01-01T03:30:24.000Z</time></trkpt><trkpt lat="14.733906" lon="101.181059"><ele>274</ele><time>1970-01-01T03:30:25.000Z</time></trkpt><trkpt lat="14.733887" lon="101.181105"><ele>274.7</ele><time>1970-01-01T03:30:26.000Z</time></trkpt><trkpt lat="14.733827" lon="101.181212"><ele>273.3</ele><time>1970-01-01T03:30:27.000Z</time></trkpt><trkpt lat="14.73379" lon="101.181297"><ele>273.4</ele><time>1970-01-01T03:30:28.000Z</time></trkpt><trkpt lat="14.733744" lon="101.181363"><ele>273.3</ele><time>1970-01-01T03:30:29.000Z</time></trkpt><trkpt lat="14.733691" lon="101.181442"><ele>273</ele><time>1970-01-01T03:30:30.000Z</time></trkpt><trkpt lat="14.733646" lon="101.181505"><ele>273.1</ele><time>1970-01-01T03:30:31.000Z</time></trkpt><trkpt lat="14.733597" lon="101.181578"><ele>272.8</ele><time>1970-01-01T03:30:32.000Z</time></trkpt><trkpt lat="14.733536" lon="101.181708"><ele>272.7</ele><time>1970-01-01T03:30:33.000Z</time></trkpt><trkpt lat="14.733472" lon="101.18182"><ele>271.9</ele><time>1970-01-01T03:30:34.000Z</time></trkpt><trkpt lat="14.733412" lon="101.181946"><ele>270.5</ele><time>1970-01-01T03:30:35.000Z</time></trkpt><trkpt lat="14.733377" lon="101.182028"><ele>269.7</ele><time>1970-01-01T03:30:36.000Z</time></trkpt><trkpt lat="14.733338" lon="101.182102"><ele>269.1</ele><time>1970-01-01T03:30:37.000Z</time></trkpt><trkpt lat="14.73329" lon="101.182179"><ele>268.3</ele><time>1970-01-01T03:30:38.000Z</time></trkpt><trkpt lat="14.733219" lon="101.182254"><ele>267.5</ele><time>1970-01-01T03:30:39.000Z</time></trkpt><trkpt lat="14.733148" lon="101.182326"><ele>267</ele><time>1970-01-01T03:30:40.000Z</time></trkpt><trkpt lat="14.73311" lon="101.182283"><ele>266.8</ele><time>1970-01-01T03:30:41.000Z</time></trkpt><trkpt lat="14.733067" lon="101.182311"><ele>266.7</ele><time>1970-01-01T03:30:42.000Z</time></trkpt><trkpt lat="14.733001" lon="101.18232"><ele>266.6</ele><time>1970-01-01T03:30:43.000Z</time></trkpt><trkpt lat="14.732966" lon="101.182317"><ele>266.4</ele><time>1970-01-01T03:30:44.000Z</time></trkpt><trkpt lat="14.73292" lon="101.182331"><ele>266.2</ele><time>1970-01-01T03:30:45.000Z</time></trkpt><trkpt lat="14.732884" lon="101.182339"><ele>265.8</ele><time>1970-01-01T03:30:46.000Z</time></trkpt><trkpt lat="14.732821" lon="101.182371"><ele>265</ele><time>1970-01-01T03:30:47.000Z</time></trkpt><trkpt lat="14.732782" lon="101.182383"><ele>264.5</ele><time>1970-01-01T03:30:48.000Z</time></trkpt><trkpt lat="14.732726" lon="101.182432"><ele>263.4</ele><time>1970-01-01T03:30:49.000Z</time></trkpt><trkpt lat="14.732672" lon="101.182458"><ele>262.8</ele><time>1970-01-01T03:30:50.000Z</time></trkpt><trkpt lat="14.732612" lon="101.182474"><ele>262.5</ele><time>1970-01-01T03:30:51.000Z</time></trkpt><trkpt lat="14.732533" lon="101.182496"><ele>261.1</ele><time>1970-01-01T03:30:52.000Z</time></trkpt><trkpt lat="14.732451" lon="101.182536"><ele>260.8</ele><time>1970-01-01T03:30:53.000Z</time></trkpt><trkpt lat="14.732384" lon="101.18259"><ele>260.7</ele><time>1970-01-01T03:30:54.000Z</time></trkpt><trkpt lat="14.732305" lon="101.182575"><ele>260.2</ele><time>1970-01-01T03:30:55.000Z</time></trkpt><trkpt lat="14.732239" lon="101.182588"><ele>259.6</ele><time>1970-01-01T03:30:56.000Z</time></trkpt><trkpt lat="14.732173" lon="101.182488"><ele>258.5</ele><time>1970-01-01T03:30:57.000Z</time></trkpt><trkpt lat="14.732115" lon="101.182512"><ele>257.9</ele><time>1970-01-01T03:30:58.000Z</time></trkpt><trkpt lat="14.732051" lon="101.182483"><ele>257.5</ele><time>1970-01-01T03:30:59.000Z</time></trkpt><trkpt lat="14.732004" lon="101.182473"><ele>257.4</ele><time>1970-01-01T03:31:00.000Z</time></trkpt><trkpt lat="14.731947" lon="101.182448"><ele>257.2</ele><time>1970-01-01T03:31:01.000Z</time></trkpt><trkpt lat="14.731885" lon="101.182385"><ele>256.9</ele><time>1970-01-01T03:31:02.000Z</time></trkpt><trkpt lat="14.731809" lon="101.182319"><ele>256.9</ele><time>1970-01-01T03:31:03.000Z</time></trkpt><trkpt lat="14.73175" lon="101.182279"><ele>256.9</ele><time>1970-01-01T03:31:04.000Z</time></trkpt><trkpt lat="14.731686" lon="101.18226"><ele>256.4</ele><time>1970-01-01T03:31:05.000Z</time></trkpt><trkpt lat="14.731633" lon="101.182205"><ele>255.2</ele><time>1970-01-01T03:31:06.000Z</time></trkpt><trkpt lat="14.731582" lon="101.182171"><ele>254.1</ele><time>1970-01-01T03:31:07.000Z</time></trkpt><trkpt lat="14.731536" lon="101.182129"><ele>253.4</ele><time>1970-01-01T03:31:08.000Z</time></trkpt><trkpt lat="14.731488" lon="101.182098"><ele>253.2</ele><time>1970-01-01T03:31:09.000Z</time></trkpt><trkpt lat="14.731416" lon="101.182099"><ele>253.3</ele><time>1970-01-01T03:31:10.000Z</time></trkpt><trkpt lat="14.731355" lon="101.182076"><ele>254</ele><time>1970-01-01T03:31:11.000Z</time></trkpt><trkpt lat="14.731269" lon="101.182068"><ele>255.1</ele><time>1970-01-01T03:31:12.000Z</time></trkpt><trkpt lat="14.731184" lon="101.182003"><ele>254.8</ele><time>1970-01-01T03:31:13.000Z</time></trkpt><trkpt lat="14.731109" lon="101.181997"><ele>255.9</ele><time>1970-01-01T03:31:14.000Z</time></trkpt><trkpt lat="14.731037" lon="101.181951"><ele>257.8</ele><time>1970-01-01T03:31:15.000Z</time></trkpt><trkpt lat="14.730973" lon="101.181983"><ele>256.2</ele><time>1970-01-01T03:31:16.000Z</time></trkpt><trkpt lat="14.7309" lon="101.182025"><ele>254</ele><time>1970-01-01T03:31:17.000Z</time></trkpt><trkpt lat="14.730858" lon="101.182066"><ele>253.6</ele><time>1970-01-01T03:31:18.000Z</time></trkpt><trkpt lat="14.730785" lon="101.182118"><ele>253.9</ele><time>1970-01-01T03:31:19.000Z</time></trkpt><trkpt lat="14.730709" lon="101.182171"><ele>254.4</ele><time>1970-01-01T03:31:20.000Z</time></trkpt><trkpt lat="14.730626" lon="101.18224"><ele>258.5</ele><time>1970-01-01T03:31:21.000Z</time></trkpt><trkpt lat="14.730556" lon="101.18228"><ele>260.7</ele><time>1970-01-01T03:31:22.000Z</time></trkpt><trkpt lat="14.730479" lon="101.18231"><ele>263.1</ele><time>1970-01-01T03:31:23.000Z</time></trkpt><trkpt lat="14.730413" lon="101.182319"><ele>265.1</ele><time>1970-01-01T03:31:24.000Z</time></trkpt><trkpt lat="14.730364" lon="101.182341"><ele>266.6</ele><time>1970-01-01T03:31:25.000Z</time></trkpt><trkpt lat="14.730311" lon="101.182362"><ele>267.5</ele><time>1970-01-01T03:31:26.000Z</time></trkpt><trkpt lat="14.730262" lon="101.182376"><ele>269.1</ele><time>1970-01-01T03:31:27.000Z</time></trkpt><trkpt lat="14.730213" lon="101.18243"><ele>268.7</ele><time>1970-01-01T03:31:28.000Z</time></trkpt><trkpt lat="14.730157" lon="101.182499"><ele>268.5</ele><time>1970-01-01T03:31:29.000Z</time></trkpt><trkpt lat="14.7301" lon="101.182571"><ele>266.7</ele><time>1970-01-01T03:31:30.000Z</time></trkpt><trkpt lat="14.73005" lon="101.182638"><ele>267.1</ele><time>1970-01-01T03:31:31.000Z</time></trkpt><trkpt lat="14.730043" lon="101.182677"><ele>266.7</ele><time>1970-01-01T03:31:32.000Z</time></trkpt><trkpt lat="14.730081" lon="101.18274"><ele>266.3</ele><time>1970-01-01T03:31:33.000Z</time></trkpt><trkpt lat="14.730109" lon="101.182788"><ele>265.2</ele><time>1970-01-01T03:31:34.000Z</time></trkpt><trkpt lat="14.730181" lon="101.182813"><ele>262</ele><time>1970-01-01T03:31:35.000Z</time></trkpt><trkpt lat="14.730284" lon="101.182831"><ele>256</ele><time>1970-01-01T03:31:36.000Z</time></trkpt><trkpt lat="14.730383" lon="101.182859"><ele>251.5</ele><time>1970-01-01T03:31:37.000Z</time></trkpt><trkpt lat="14.730449" lon="101.182922"><ele>247.5</ele><time>1970-01-01T03:31:38.000Z</time></trkpt><trkpt lat="14.730477" lon="101.183001"><ele>243.5</ele><time>1970-01-01T03:31:39.000Z</time></trkpt><trkpt lat="14.730517" lon="101.183054"><ele>241.6</ele><time>1970-01-01T03:31:40.000Z</time></trkpt><trkpt lat="14.730555" lon="101.183073"><ele>240.9</ele><time>1970-01-01T03:31:41.000Z</time></trkpt><trkpt lat="14.730595" lon="101.183102"><ele>239.1</ele><time>1970-01-01T03:31:42.000Z</time></trkpt><trkpt lat="14.730595" lon="101.183138"><ele>238.6</ele><time>1970-01-01T03:31:43.000Z</time></trkpt><trkpt lat="14.730451" lon="101.183358"><ele>237.2</ele><time>1970-01-01T03:31:45.000Z</time></trkpt><trkpt lat="14.730385" lon="101.183433"><ele>238</ele><time>1970-01-01T03:31:46.000Z</time></trkpt><trkpt lat="14.730316" lon="101.183497"><ele>238.8</ele><time>1970-01-01T03:31:47.000Z</time></trkpt><trkpt lat="14.730257" lon="101.183557"><ele>238.4</ele><time>1970-01-01T03:31:48.000Z</time></trkpt><trkpt lat="14.730209" lon="101.183619"><ele>238.3</ele><time>1970-01-01T03:31:49.000Z</time></trkpt><trkpt lat="14.730143" lon="101.183678"><ele>237.6</ele><time>1970-01-01T03:31:50.000Z</time></trkpt><trkpt lat="14.730085" lon="101.183748"><ele>237.7</ele><time>1970-01-01T03:31:51.000Z</time></trkpt><trkpt lat="14.730047" lon="101.183786"><ele>237.9</ele><time>1970-01-01T03:31:52.000Z</time></trkpt><trkpt lat="14.730005" lon="101.183817"><ele>238.5</ele><time>1970-01-01T03:31:53.000Z</time></trkpt><trkpt lat="14.729966" lon="101.18386"><ele>239.3</ele><time>1970-01-01T03:31:54.000Z</time></trkpt><trkpt lat="14.729935" lon="101.183867"><ele>239.6</ele><time>1970-01-01T03:31:55.000Z</time></trkpt><trkpt lat="14.729872" lon="101.18386"><ele>240.4</ele><time>1970-01-01T03:31:56.000Z</time></trkpt><trkpt lat="14.729816" lon="101.183873"><ele>242</ele><time>1970-01-01T03:31:57.000Z</time></trkpt><trkpt lat="14.729761" lon="101.183955"><ele>242.4</ele><time>1970-01-01T03:31:58.000Z</time></trkpt><trkpt lat="14.729686" lon="101.183972"><ele>240.4</ele><time>1970-01-01T03:31:59.000Z</time></trkpt><trkpt lat="14.729631" lon="101.183988"><ele>239.2</ele><time>1970-01-01T03:32:00.000Z</time></trkpt><trkpt lat="14.729556" lon="101.184026"><ele>237</ele><time>1970-01-01T03:32:01.000Z</time></trkpt><trkpt lat="14.729503" lon="101.18414"><ele>235.9</ele><time>1970-01-01T03:32:02.000Z</time></trkpt><trkpt lat="14.729454" lon="101.184177"><ele>235.4</ele><time>1970-01-01T03:32:03.000Z</time></trkpt><trkpt lat="14.729404" lon="101.184189"><ele>235.2</ele><time>1970-01-01T03:32:04.000Z</time></trkpt><trkpt lat="14.729338" lon="101.184213"><ele>235.2</ele><time>1970-01-01T03:32:05.000Z</time></trkpt><trkpt lat="14.729266" lon="101.184214"><ele>235.2</ele><time>1970-01-01T03:32:06.000Z</time></trkpt><trkpt lat="14.72919" lon="101.18423"><ele>234.7</ele><time>1970-01-01T03:32:07.000Z</time></trkpt><trkpt lat="14.729078" lon="101.184186"><ele>232.2</ele><time>1970-01-01T03:32:08.000Z</time></trkpt><trkpt lat="14.729003" lon="101.184249"><ele>229.8</ele><time>1970-01-01T03:32:09.000Z</time></trkpt><trkpt lat="14.728945" lon="101.184277"><ele>227.9</ele><time>1970-01-01T03:32:10.000Z</time></trkpt><trkpt lat="14.728873" lon="101.184324"><ele>225.6</ele><time>1970-01-01T03:32:11.000Z</time></trkpt><trkpt lat="14.728791" lon="101.184368"><ele>222.8</ele><time>1970-01-01T03:32:12.000Z</time></trkpt><trkpt lat="14.728694" lon="101.184368"><ele>219.7</ele><time>1970-01-01T03:32:13.000Z</time></trkpt><trkpt lat="14.728584" lon="101.184385"><ele>217.5</ele><time>1970-01-01T03:32:14.000Z</time></trkpt><trkpt lat="14.728508" lon="101.184451"><ele>216.2</ele><time>1970-01-01T03:32:15.000Z</time></trkpt><trkpt lat="14.728352" lon="101.184474"><ele>215.9</ele><time>1970-01-01T03:32:16.000Z</time></trkpt><trkpt lat="14.728219" lon="101.184537"><ele>215.6</ele><time>1970-01-01T03:32:17.000Z</time></trkpt><trkpt lat="14.72808" lon="101.184561"><ele>214.1</ele><time>1970-01-01T03:32:18.000Z</time></trkpt><trkpt lat="14.727974" lon="101.184594"><ele>212.8</ele><time>1970-01-01T03:32:19.000Z</time></trkpt><trkpt lat="14.727856" lon="101.184635"><ele>210.3</ele><time>1970-01-01T03:32:20.000Z</time></trkpt><trkpt lat="14.727795" lon="101.184722"><ele>208.1</ele><time>1970-01-01T03:32:21.000Z</time></trkpt><trkpt lat="14.727702" lon="101.184778"><ele>205.4</ele><time>1970-01-01T03:32:22.000Z</time></trkpt><trkpt lat="14.727592" lon="101.184844"><ele>200.7</ele><time>1970-01-01T03:32:23.000Z</time></trkpt><trkpt lat="14.727481" lon="101.184888"><ele>198.5</ele><time>1970-01-01T03:32:24.000Z</time></trkpt><trkpt lat="14.727369" lon="101.184861"><ele>197.6</ele><time>1970-01-01T03:32:25.000Z</time></trkpt><trkpt lat="14.727259" lon="101.184837"><ele>196.3</ele><time>1970-01-01T03:32:26.000Z</time></trkpt><trkpt lat="14.727157" lon="101.184825"><ele>194.2</ele><time>1970-01-01T03:32:27.000Z</time></trkpt><trkpt lat="14.727045" lon="101.184803"><ele>191.8</ele><time>1970-01-01T03:32:28.000Z</time></trkpt><trkpt lat="14.72693" lon="101.18473"><ele>190.8</ele><time>1970-01-01T03:32:29.000Z</time></trkpt><trkpt lat="14.726823" lon="101.184739"><ele>191.4</ele><time>1970-01-01T03:32:30.000Z</time></trkpt><trkpt lat="14.726731" lon="101.184763"><ele>192.8</ele><time>1970-01-01T03:32:31.000Z</time></trkpt><trkpt lat="14.726627" lon="101.184755"><ele>193</ele><time>1970-01-01T03:32:32.000Z</time></trkpt><trkpt lat="14.726522" lon="101.184753"><ele>193.1</ele><time>1970-01-01T03:32:33.000Z</time></trkpt><trkpt lat="14.726416" lon="101.184735"><ele>193.3</ele><time>1970-01-01T03:32:34.000Z</time></trkpt><trkpt lat="14.726325" lon="101.184763"><ele>192.9</ele><time>1970-01-01T03:32:35.000Z</time></trkpt><trkpt lat="14.726226" lon="101.184758"><ele>191.8</ele><time>1970-01-01T03:32:36.000Z</time></trkpt><trkpt lat="14.72612" lon="101.184775"><ele>190.3</ele><time>1970-01-01T03:32:37.000Z</time></trkpt><trkpt lat="14.726026" lon="101.184767"><ele>188.3</ele><time>1970-01-01T03:32:38.000Z</time></trkpt><trkpt lat="14.725931" lon="101.184761"><ele>188.3</ele><time>1970-01-01T03:32:39.000Z</time></trkpt><trkpt lat="14.725822" lon="101.1847"><ele>187.3</ele><time>1970-01-01T03:32:40.000Z</time></trkpt><trkpt lat="14.725729" lon="101.184655"><ele>187.2</ele><time>1970-01-01T03:32:41.000Z</time></trkpt><trkpt lat="14.725643" lon="101.184622"><ele>187.4</ele><time>1970-01-01T03:32:42.000Z</time></trkpt><trkpt lat="14.725542" lon="101.184567"><ele>188.6</ele><time>1970-01-01T03:32:43.000Z</time></trkpt><trkpt lat="14.725456" lon="101.184507"><ele>187.1</ele><time>1970-01-01T03:32:44.000Z</time></trkpt><trkpt lat="14.725384" lon="101.184466"><ele>187.3</ele><time>1970-01-01T03:32:45.000Z</time></trkpt><trkpt lat="14.725304" lon="101.184434"><ele>188</ele><time>1970-01-01T03:32:46.000Z</time></trkpt><trkpt lat="14.725224" lon="101.18438"><ele>189.2</ele><time>1970-01-01T03:32:47.000Z</time></trkpt><trkpt lat="14.725148" lon="101.184323"><ele>190</ele><time>1970-01-01T03:32:48.000Z</time></trkpt><trkpt lat="14.725077" lon="101.184286"><ele>191.2</ele><time>1970-01-01T03:32:49.000Z</time></trkpt><trkpt lat="14.725001" lon="101.184247"><ele>193.1</ele><time>1970-01-01T03:32:50.000Z</time></trkpt><trkpt lat="14.724925" lon="101.184224"><ele>194.6</ele><time>1970-01-01T03:32:51.000Z</time></trkpt><trkpt lat="14.724874" lon="101.184199"><ele>194.9</ele><time>1970-01-01T03:32:52.000Z</time></trkpt><trkpt lat="14.724829" lon="101.184181"><ele>193.9</ele><time>1970-01-01T03:32:53.000Z</time></trkpt><trkpt lat="14.724773" lon="101.184167"><ele>192.5</ele><time>1970-01-01T03:32:54.000Z</time></trkpt><trkpt lat="14.724717" lon="101.184155"><ele>191.4</ele><time>1970-01-01T03:32:55.000Z</time></trkpt><trkpt lat="14.72465" lon="101.18414"><ele>192</ele><time>1970-01-01T03:32:56.000Z</time></trkpt><trkpt lat="14.724623" lon="101.184135"><ele>191.5</ele><time>1970-01-01T03:32:57.000Z</time></trkpt><trkpt lat="14.724594" lon="101.184138"><ele>190.9</ele><time>1970-01-01T03:32:58.000Z</time></trkpt><trkpt lat="14.724538" lon="101.184116"><ele>189.8</ele><time>1970-01-01T03:32:59.000Z</time></trkpt><trkpt lat="14.724447" lon="101.184117"><ele>188.7</ele><time>1970-01-01T03:33:01.000Z</time></trkpt><trkpt lat="14.724392" lon="101.184088"><ele>188.2</ele><time>1970-01-01T03:33:02.000Z</time></trkpt><trkpt lat="14.724348" lon="101.184073"><ele>187.9</ele><time>1970-01-01T03:33:03.000Z</time></trkpt><trkpt lat="14.724297" lon="101.184077"><ele>187.9</ele><time>1970-01-01T03:33:04.000Z</time></trkpt><trkpt lat="14.724261" lon="101.184085"><ele>188</ele><time>1970-01-01T03:33:06.000Z</time></trkpt><trkpt lat="14.724208" lon="101.184075"><ele>188.3</ele><time>1970-01-01T03:33:07.000Z</time></trkpt><trkpt lat="14.72416" lon="101.184066"><ele>188.5</ele><time>1970-01-01T03:33:08.000Z</time></trkpt><trkpt lat="14.724104" lon="101.184088"><ele>188.7</ele><time>1970-01-01T03:33:09.000Z</time></trkpt><trkpt lat="14.724047" lon="101.184083"><ele>188.4</ele><time>1970-01-01T03:33:10.000Z</time></trkpt><trkpt lat="14.724007" lon="101.184074"><ele>188.1</ele><time>1970-01-01T03:33:11.000Z</time></trkpt><trkpt lat="14.723974" lon="101.184055"><ele>187.8</ele><time>1970-01-01T03:33:12.000Z</time></trkpt><trkpt lat="14.72394" lon="101.18404"><ele>187.5</ele><time>1970-01-01T03:33:13.000Z</time></trkpt><trkpt lat="14.723905" lon="101.184035"><ele>187.2</ele><time>1970-01-01T03:33:14.000Z</time></trkpt><trkpt lat="14.723874" lon="101.184042"><ele>186.8</ele><time>1970-01-01T03:33:15.000Z</time></trkpt><trkpt lat="14.723846" lon="101.184059"><ele>186.5</ele><time>1970-01-01T03:33:16.000Z</time></trkpt><trkpt lat="14.723823" lon="101.184092"><ele>186.3</ele><time>1970-01-01T03:33:17.000Z</time></trkpt><trkpt lat="14.723804" lon="101.184135"><ele>186.1</ele><time>1970-01-01T03:33:18.000Z</time></trkpt><trkpt lat="14.723787" lon="101.184179"><ele>185.9</ele><time>1970-01-01T03:33:19.000Z</time></trkpt><trkpt lat="14.723777" lon="101.184225"><ele>185.2</ele><time>1970-01-01T03:33:20.000Z</time></trkpt><trkpt lat="14.72377" lon="101.184272"><ele>184.7</ele><time>1970-01-01T03:33:21.000Z</time></trkpt><trkpt lat="14.723765" lon="101.184316"><ele>184.3</ele><time>1970-01-01T03:33:22.000Z</time></trkpt><trkpt lat="14.723739" lon="101.184362"><ele>183.8</ele><time>1970-01-01T03:33:24.000Z</time></trkpt><trkpt lat="14.723708" lon="101.184378"><ele>183.5</ele><time>1970-01-01T03:33:25.000Z</time></trkpt><trkpt lat="14.723667" lon="101.184385"><ele>183.5</ele><time>1970-01-01T03:33:26.000Z</time></trkpt><trkpt lat="14.723618" lon="101.184371"><ele>183.7</ele><time>1970-01-01T03:33:27.000Z</time></trkpt><trkpt lat="14.723565" lon="101.184345"><ele>184</ele><time>1970-01-01T03:33:28.000Z</time></trkpt><trkpt lat="14.723513" lon="101.184318"><ele>184.3</ele><time>1970-01-01T03:33:29.000Z</time></trkpt><trkpt lat="14.723403" lon="101.184214"><ele>184.9</ele><time>1970-01-01T03:33:30.000Z</time></trkpt><trkpt lat="14.723352" lon="101.184197"><ele>185.2</ele><time>1970-01-01T03:33:31.000Z</time></trkpt><trkpt lat="14.723302" lon="101.184207"><ele>185.4</ele><time>1970-01-01T03:33:32.000Z</time></trkpt><trkpt lat="14.723257" lon="101.184198"><ele>185.5</ele><time>1970-01-01T03:33:33.000Z</time></trkpt><trkpt lat="14.723208" lon="101.184172"><ele>185.5</ele><time>1970-01-01T03:33:34.000Z</time></trkpt><trkpt lat="14.723173" lon="101.184177"><ele>185.5</ele><time>1970-01-01T03:33:35.000Z</time></trkpt><trkpt lat="14.723125" lon="101.184186"><ele>185.6</ele><time>1970-01-01T03:33:37.000Z</time></trkpt><trkpt lat="14.723081" lon="101.18418"><ele>185.7</ele><time>1970-01-01T03:33:38.000Z</time></trkpt><trkpt lat="14.723023" lon="101.184167"><ele>185.9</ele><time>1970-01-01T03:33:39.000Z</time></trkpt><trkpt lat="14.722987" lon="101.184163"><ele>185.8</ele><time>1970-01-01T03:33:40.000Z</time></trkpt><trkpt lat="14.722944" lon="101.184161"><ele>185.5</ele><time>1970-01-01T03:33:41.000Z</time></trkpt><trkpt lat="14.722914" lon="101.184153"><ele>185.2</ele><time>1970-01-01T03:33:42.000Z</time></trkpt><trkpt lat="14.72287" lon="101.184121"><ele>185.2</ele><time>1970-01-01T03:33:44.000Z</time></trkpt><trkpt lat="14.722852" lon="101.184145"><ele>185.2</ele><time>1970-01-01T03:33:45.000Z</time></trkpt><trkpt lat="14.722804" lon="101.184127"><ele>185.2</ele><time>1970-01-01T03:33:47.000Z</time></trkpt><trkpt lat="14.722762" lon="101.184119"><ele>185.3</ele><time>1970-01-01T03:33:49.000Z</time></trkpt><trkpt lat="14.722723" lon="101.184106"><ele>185.3</ele><time>1970-01-01T03:33:51.000Z</time></trkpt><trkpt lat="14.722697" lon="101.184108"><ele>185.2</ele><time>1970-01-01T03:33:52.000Z</time></trkpt><trkpt lat="14.722668" lon="101.184114"><ele>185.1</ele><time>1970-01-01T03:33:53.000Z</time></trkpt><trkpt lat="14.722638" lon="101.184122"><ele>185</ele><time>1970-01-01T03:33:54.000Z</time></trkpt><trkpt lat="14.722608" lon="101.18414"><ele>184.8</ele><time>1970-01-01T03:33:55.000Z</time></trkpt><trkpt lat="14.722582" lon="101.184177"><ele>184.5</ele><time>1970-01-01T03:33:56.000Z</time></trkpt><trkpt lat="14.722552" lon="101.184293"><ele>183.4</ele><time>1970-01-01T03:33:57.000Z</time></trkpt><trkpt lat="14.722523" lon="101.184335"><ele>182.6</ele><time>1970-01-01T03:33:58.000Z</time></trkpt><trkpt lat="14.722475" lon="101.184432"><ele>181.4</ele><time>1970-01-01T03:33:59.000Z</time></trkpt><trkpt lat="14.722455" lon="101.184494"><ele>180.9</ele><time>1970-01-01T03:34:00.000Z</time></trkpt><trkpt lat="14.722437" lon="101.184554"><ele>180</ele><time>1970-01-01T03:34:01.000Z</time></trkpt><trkpt lat="14.722414" lon="101.184601"><ele>179.4</ele><time>1970-01-01T03:34:02.000Z</time></trkpt><trkpt lat="14.722407" lon="101.184654"><ele>178.8</ele><time>1970-01-01T03:34:03.000Z</time></trkpt><trkpt lat="14.722393" lon="101.1847"><ele>178.8</ele><time>1970-01-01T03:34:04.000Z</time></trkpt><trkpt lat="14.722387" lon="101.184735"><ele>178.7</ele><time>1970-01-01T03:34:09.000Z</time></trkpt><trkpt lat="14.722386" lon="101.184768"><ele>178.4</ele><time>1970-01-01T03:34:10.000Z</time></trkpt><trkpt lat="14.722387" lon="101.184804"><ele>178.1</ele><time>1970-01-01T03:34:11.000Z</time></trkpt><trkpt lat="14.722388" lon="101.184847"><ele>178</ele><time>1970-01-01T03:34:12.000Z</time></trkpt><trkpt lat="14.722387" lon="101.184887"><ele>177.9</ele><time>1970-01-01T03:34:13.000Z</time></trkpt><trkpt lat="14.722387" lon="101.184927"><ele>177.8</ele><time>1970-01-01T03:34:14.000Z</time></trkpt><trkpt lat="14.722387" lon="101.184984"><ele>177.6</ele><time>1970-01-01T03:34:15.000Z</time></trkpt><trkpt lat="14.722389" lon="101.185036"><ele>177.4</ele><time>1970-01-01T03:34:16.000Z</time></trkpt><trkpt lat="14.722365" lon="101.185082"><ele>177.3</ele><time>1970-01-01T03:34:18.000Z</time></trkpt><trkpt lat="14.722363" lon="101.185132"><ele>177.1</ele><time>1970-01-01T03:34:19.000Z</time></trkpt><trkpt lat="14.722374" lon="101.185174"><ele>176.9</ele><time>1970-01-01T03:34:20.000Z</time></trkpt><trkpt lat="14.722371" lon="101.185211"><ele>176.8</ele><time>1970-01-01T03:34:21.000Z</time></trkpt><trkpt lat="14.722376" lon="101.185241"><ele>176.8</ele><time>1970-01-01T03:34:22.000Z</time></trkpt><trkpt lat="14.722341" lon="101.185246"><ele>176.8</ele><time>1970-01-01T03:34:23.000Z</time></trkpt><trkpt lat="14.722332" lon="101.185297"><ele>176.7</ele><time>1970-01-01T03:34:24.000Z</time></trkpt><trkpt lat="14.722319" lon="101.185329"><ele>176.7</ele><time>1970-01-01T03:34:25.000Z</time></trkpt><trkpt lat="14.722321" lon="101.185297"><ele>176.7</ele><time>1970-01-01T03:34:28.000Z</time></trkpt><trkpt lat="14.722306" lon="101.185343"><ele>176.6</ele><time>1970-01-01T03:34:50.000Z</time></trkpt><trkpt lat="14.722294" lon="101.185371"><ele>176.6</ele><time>1970-01-01T03:34:51.000Z</time></trkpt><trkpt lat="14.722283" lon="101.185399"><ele>176.6</ele><time>1970-01-01T03:34:52.000Z</time></trkpt><trkpt lat="14.722272" lon="101.185429"><ele>176.5</ele><time>1970-01-01T03:34:53.000Z</time></trkpt><trkpt lat="14.722266" lon="101.185462"><ele>176.5</ele><time>1970-01-01T03:34:54.000Z</time></trkpt><trkpt lat="14.722258" lon="101.185502"><ele>176.5</ele><time>1970-01-01T03:34:55.000Z</time></trkpt><trkpt lat="14.722248" lon="101.185543"><ele>176.4</ele><time>1970-01-01T03:34:56.000Z</time></trkpt><trkpt lat="14.722239" lon="101.185577"><ele>176.6</ele><time>1970-01-01T03:34:57.000Z</time></trkpt><trkpt lat="14.722231" lon="101.185609"><ele>176.9</ele><time>1970-01-01T03:34:58.000Z</time></trkpt><trkpt lat="14.722224" lon="101.185647"><ele>177.2</ele><time>1970-01-01T03:34:59.000Z</time></trkpt><trkpt lat="14.722221" lon="101.185685"><ele>177.6</ele><time>1970-01-01T03:35:00.000Z</time></trkpt><trkpt lat="14.72222" lon="101.185721"><ele>178</ele><time>1970-01-01T03:35:01.000Z</time></trkpt><trkpt lat="14.722219" lon="101.185759"><ele>178.2</ele><time>1970-01-01T03:35:02.000Z</time></trkpt><trkpt lat="14.722216" lon="101.185797"><ele>178.4</ele><time>1970-01-01T03:35:03.000Z</time></trkpt><trkpt lat="14.722214" lon="101.185835"><ele>178.6</ele><time>1970-01-01T03:35:04.000Z</time></trkpt><trkpt lat="14.722214" lon="101.185871"><ele>178.6</ele><time>1970-01-01T03:35:05.000Z</time></trkpt><trkpt lat="14.722218" lon="101.1859"><ele>178.7</ele><time>1970-01-01T03:35:06.000Z</time></trkpt><trkpt lat="14.722219" lon="101.185931"><ele>178.8</ele><time>1970-01-01T03:35:07.000Z</time></trkpt><trkpt lat="14.722218" lon="101.185963"><ele>178.9</ele><time>1970-01-01T03:35:08.000Z</time></trkpt><trkpt lat="14.722211" lon="101.186018"><ele>179.1</ele><time>1970-01-01T03:35:10.000Z</time></trkpt><trkpt lat="14.722197" lon="101.186071"><ele>179.2</ele><time>1970-01-01T03:35:12.000Z</time></trkpt><trkpt lat="14.722194" lon="101.186104"><ele>179.4</ele><time>1970-01-01T03:35:13.000Z</time></trkpt><trkpt lat="14.722195" lon="101.186138"><ele>179.6</ele><time>1970-01-01T03:35:14.000Z</time></trkpt><trkpt lat="14.722194" lon="101.186173"><ele>179.8</ele><time>1970-01-01T03:35:15.000Z</time></trkpt><trkpt lat="14.722191" lon="101.186207"><ele>180</ele><time>1970-01-01T03:35:16.000Z</time></trkpt><trkpt lat="14.72219" lon="101.186244"><ele>180.1</ele><time>1970-01-01T03:35:17.000Z</time></trkpt><trkpt lat="14.722188" lon="101.186278"><ele>180.1</ele><time>1970-01-01T03:35:18.000Z</time></trkpt><trkpt lat="14.722185" lon="101.18631"><ele>180.1</ele><time>1970-01-01T03:35:19.000Z</time></trkpt><trkpt lat="14.722181" lon="101.186342"><ele>180.1</ele><time>1970-01-01T03:35:20.000Z</time></trkpt><trkpt lat="14.72218" lon="101.186377"><ele>180.1</ele><time>1970-01-01T03:35:21.000Z</time></trkpt><trkpt lat="14.722178" lon="101.186414"><ele>180.1</ele><time>1970-01-01T03:35:22.000Z</time></trkpt><trkpt lat="14.722175" lon="101.186451"><ele>180.2</ele><time>1970-01-01T03:35:23.000Z</time></trkpt><trkpt lat="14.722169" lon="101.186488"><ele>180.3</ele><time>1970-01-01T03:35:24.000Z</time></trkpt><trkpt lat="14.722166" lon="101.186527"><ele>180.3</ele><time>1970-01-01T03:35:25.000Z</time></trkpt><trkpt lat="14.722166" lon="101.186563"><ele>180.4</ele><time>1970-01-01T03:35:26.000Z</time></trkpt><trkpt lat="14.722168" lon="101.1866"><ele>180.4</ele><time>1970-01-01T03:35:27.000Z</time></trkpt><trkpt lat="14.722171" lon="101.186634"><ele>180.4</ele><time>1970-01-01T03:35:28.000Z</time></trkpt><trkpt lat="14.722173" lon="101.186667"><ele>180.4</ele><time>1970-01-01T03:35:29.000Z</time></trkpt><trkpt lat="14.722176" lon="101.186702"><ele>180.5</ele><time>1970-01-01T03:35:30.000Z</time></trkpt><trkpt lat="14.722178" lon="101.186737"><ele>180.6</ele><time>1970-01-01T03:35:31.000Z</time></trkpt><trkpt lat="14.72218" lon="101.18677"><ele>180.7</ele><time>1970-01-01T03:35:32.000Z</time></trkpt><trkpt lat="14.722181" lon="101.186803"><ele>180.6</ele><time>1970-01-01T03:35:33.000Z</time></trkpt><trkpt lat="14.722179" lon="101.186836"><ele>180.6</ele><time>1970-01-01T03:35:34.000Z</time></trkpt><trkpt lat="14.722174" lon="101.186873"><ele>180.5</ele><time>1970-01-01T03:35:35.000Z</time></trkpt><trkpt lat="14.722169" lon="101.186909"><ele>180.5</ele><time>1970-01-01T03:35:36.000Z</time></trkpt><trkpt lat="14.722166" lon="101.186938"><ele>180.4</ele><time>1970-01-01T03:35:37.000Z</time></trkpt><trkpt lat="14.722161" lon="101.186994"><ele>180.3</ele><time>1970-01-01T03:35:39.000Z</time></trkpt><trkpt lat="14.722157" lon="101.187029"><ele>180.3</ele><time>1970-01-01T03:35:40.000Z</time></trkpt><trkpt lat="14.722152" lon="101.187059"><ele>180.3</ele><time>1970-01-01T03:35:41.000Z</time></trkpt><trkpt lat="14.722144" lon="101.187093"><ele>180.3</ele><time>1970-01-01T03:35:42.000Z</time></trkpt><trkpt lat="14.722135" lon="101.187127"><ele>180.3</ele><time>1970-01-01T03:35:43.000Z</time></trkpt><trkpt lat="14.722127" lon="101.187162"><ele>180.3</ele><time>1970-01-01T03:35:44.000Z</time></trkpt><trkpt lat="14.722119" lon="101.187201"><ele>180.2</ele><time>1970-01-01T03:35:45.000Z</time></trkpt><trkpt lat="14.722113" lon="101.187242"><ele>180.2</ele><time>1970-01-01T03:35:46.000Z</time></trkpt><trkpt lat="14.722107" lon="101.187283"><ele>179.9</ele><time>1970-01-01T03:35:47.000Z</time></trkpt><trkpt lat="14.722102" lon="101.187324"><ele>179.6</ele><time>1970-01-01T03:35:48.000Z</time></trkpt><trkpt lat="14.722097" lon="101.187364"><ele>179.4</ele><time>1970-01-01T03:35:49.000Z</time></trkpt><trkpt lat="14.722091" lon="101.187402"><ele>179.5</ele><time>1970-01-01T03:35:50.000Z</time></trkpt><trkpt lat="14.722084" lon="101.187441"><ele>179.5</ele><time>1970-01-01T03:35:51.000Z</time></trkpt><trkpt lat="14.722078" lon="101.187479"><ele>179.7</ele><time>1970-01-01T03:35:52.000Z</time></trkpt><trkpt lat="14.722066" lon="101.187529"><ele>180</ele><time>1970-01-01T03:35:53.000Z</time></trkpt><trkpt lat="14.722061" lon="101.187561"><ele>180.2</ele><time>1970-01-01T03:35:54.000Z</time></trkpt><trkpt lat="14.722057" lon="101.187605"><ele>180.5</ele><time>1970-01-01T03:35:55.000Z</time></trkpt><trkpt lat="14.722043" lon="101.187646"><ele>180.7</ele><time>1970-01-01T03:35:56.000Z</time></trkpt><trkpt lat="14.722037" lon="101.187685"><ele>181</ele><time>1970-01-01T03:35:57.000Z</time></trkpt><trkpt lat="14.722024" lon="101.187732"><ele>181.3</ele><time>1970-01-01T03:35:58.000Z</time></trkpt><trkpt lat="14.722021" lon="101.187778"><ele>181.6</ele><time>1970-01-01T03:35:59.000Z</time></trkpt><trkpt lat="14.722016" lon="101.187814"><ele>181.8</ele><time>1970-01-01T03:36:00.000Z</time></trkpt><trkpt lat="14.722007" lon="101.187857"><ele>182.1</ele><time>1970-01-01T03:36:01.000Z</time></trkpt><trkpt lat="14.721997" lon="101.187895"><ele>182.4</ele><time>1970-01-01T03:36:02.000Z</time></trkpt><trkpt lat="14.72199" lon="101.187938"><ele>182.7</ele><time>1970-01-01T03:36:03.000Z</time></trkpt><trkpt lat="14.721982" lon="101.187976"><ele>183</ele><time>1970-01-01T03:36:04.000Z</time></trkpt><trkpt lat="14.721975" lon="101.188014"><ele>183.2</ele><time>1970-01-01T03:36:05.000Z</time></trkpt><trkpt lat="14.721971" lon="101.18805"><ele>183.4</ele><time>1970-01-01T03:36:06.000Z</time></trkpt><trkpt lat="14.721967" lon="101.188087"><ele>183.5</ele><time>1970-01-01T03:36:07.000Z</time></trkpt><trkpt lat="14.721964" lon="101.188126"><ele>183.6</ele><time>1970-01-01T03:36:08.000Z</time></trkpt><trkpt lat="14.721959" lon="101.188164"><ele>183.6</ele><time>1970-01-01T03:36:09.000Z</time></trkpt><trkpt lat="14.721953" lon="101.188204"><ele>183.7</ele><time>1970-01-01T03:36:10.000Z</time></trkpt><trkpt lat="14.721946" lon="101.188243"><ele>183.8</ele><time>1970-01-01T03:36:11.000Z</time></trkpt><trkpt lat="14.721938" lon="101.18828"><ele>184</ele><time>1970-01-01T03:36:12.000Z</time></trkpt><trkpt lat="14.721931" lon="101.188315"><ele>184.1</ele><time>1970-01-01T03:36:13.000Z</time></trkpt><trkpt lat="14.721926" lon="101.188351"><ele>184.4</ele><time>1970-01-01T03:36:14.000Z</time></trkpt><trkpt lat="14.72192" lon="101.188387"><ele>184.7</ele><time>1970-01-01T03:36:15.000Z</time></trkpt><trkpt lat="14.721914" lon="101.188422"><ele>185.1</ele><time>1970-01-01T03:36:16.000Z</time></trkpt><trkpt lat="14.721907" lon="101.188455"><ele>185.5</ele><time>1970-01-01T03:36:17.000Z</time></trkpt><trkpt lat="14.721898" lon="101.188487"><ele>186</ele><time>1970-01-01T03:36:18.000Z</time></trkpt><trkpt lat="14.72189" lon="101.188516"><ele>186.3</ele><time>1970-01-01T03:36:19.000Z</time></trkpt><trkpt lat="14.721888" lon="101.188545"><ele>186.3</ele><time>1970-01-01T03:36:20.000Z</time></trkpt><trkpt lat="14.721894" lon="101.188574"><ele>186.3</ele><time>1970-01-01T03:36:21.000Z</time></trkpt><trkpt lat="14.721917" lon="101.188601"><ele>186.3</ele><time>1970-01-01T03:36:22.000Z</time></trkpt><trkpt lat="14.721947" lon="101.188621"><ele>186.3</ele><time>1970-01-01T03:36:23.000Z</time></trkpt><trkpt lat="14.721983" lon="101.188632"><ele>186.3</ele><time>1970-01-01T03:36:24.000Z</time></trkpt><trkpt lat="14.722029" lon="101.188646"><ele>186.3</ele><time>1970-01-01T03:36:25.000Z</time></trkpt><trkpt lat="14.72208" lon="101.188661"><ele>186</ele><time>1970-01-01T03:36:26.000Z</time></trkpt><trkpt lat="14.722176" lon="101.188672"><ele>185.5</ele><time>1970-01-01T03:36:27.000Z</time></trkpt><trkpt lat="14.722228" lon="101.188683"><ele>185.2</ele><time>1970-01-01T03:36:28.000Z</time></trkpt><trkpt lat="14.72228" lon="101.188579"><ele>184.9</ele><time>1970-01-01T03:36:29.000Z</time></trkpt><trkpt lat="14.722333" lon="101.18859"><ele>184.6</ele><time>1970-01-01T03:36:30.000Z</time></trkpt><trkpt lat="14.722369" lon="101.188524"><ele>184.1</ele><time>1970-01-01T03:36:31.000Z</time></trkpt><trkpt lat="14.722399" lon="101.188526"><ele>183.9</ele><time>1970-01-01T03:36:32.000Z</time></trkpt><trkpt lat="14.722425" lon="101.188502"><ele>183.6</ele><time>1970-01-01T03:36:33.000Z</time></trkpt><trkpt lat="14.722466" lon="101.18851"><ele>183.3</ele><time>1970-01-01T03:36:34.000Z</time></trkpt><trkpt lat="14.722447" lon="101.188591"><ele>184.4</ele><time>1970-01-01T03:36:35.000Z</time></trkpt><trkpt lat="14.722448" lon="101.188628"><ele>184.2</ele><time>1970-01-01T03:37:43.000Z</time></trkpt><trkpt lat="14.722452" lon="101.188661"><ele>184.9</ele><time>1970-01-01T03:37:45.000Z</time></trkpt><trkpt lat="14.722429" lon="101.188683"><ele>185.7</ele><time>1970-01-01T03:37:49.000Z</time></trkpt><trkpt lat="14.7224" lon="101.18866"><ele>185.2</ele><time>1970-01-01T03:37:52.000Z</time></trkpt><trkpt lat="14.722375" lon="101.188674"><ele>186.5</ele><time>1970-01-01T03:38:03.000Z</time></trkpt><trkpt lat="14.722337" lon="101.188653"><ele>187</ele><time>1970-01-01T03:38:05.000Z</time></trkpt><trkpt lat="14.722291" lon="101.188625"><ele>187.6</ele><time>1970-01-01T03:38:07.000Z</time></trkpt><trkpt lat="14.722263" lon="101.188616"><ele>188</ele><time>1970-01-01T03:38:08.000Z</time></trkpt><trkpt lat="14.722231" lon="101.188614"><ele>188.4</ele><time>1970-01-01T03:38:09.000Z</time></trkpt><trkpt lat="14.722196" lon="101.188615"><ele>189</ele><time>1970-01-01T03:38:10.000Z</time></trkpt><trkpt lat="14.722161" lon="101.188616"><ele>189.5</ele><time>1970-01-01T03:38:11.000Z</time></trkpt><trkpt lat="14.722129" lon="101.188615"><ele>190.1</ele><time>1970-01-01T03:38:12.000Z</time></trkpt><trkpt lat="14.722093" lon="101.188614"><ele>190.8</ele><time>1970-01-01T03:38:13.000Z</time></trkpt><trkpt lat="14.722055" lon="101.188615"><ele>191.6</ele><time>1970-01-01T03:38:14.000Z</time></trkpt><trkpt lat="14.722019" lon="101.18862"><ele>192.3</ele><time>1970-01-01T03:38:15.000Z</time></trkpt><trkpt lat="14.721982" lon="101.188622"><ele>192.9</ele><time>1970-01-01T03:38:16.000Z</time></trkpt><trkpt lat="14.72195" lon="101.188627"><ele>193.5</ele><time>1970-01-01T03:38:17.000Z</time></trkpt><trkpt lat="14.721922" lon="101.188633"><ele>193.8</ele><time>1970-01-01T03:38:18.000Z</time></trkpt><trkpt lat="14.721891" lon="101.188636"><ele>194.1</ele><time>1970-01-01T03:38:19.000Z</time></trkpt><trkpt lat="14.721857" lon="101.188637"><ele>194.3</ele><time>1970-01-01T03:38:20.000Z</time></trkpt><trkpt lat="14.72182" lon="101.188634"><ele>194</ele><time>1970-01-01T03:38:21.000Z</time></trkpt><trkpt lat="14.721784" lon="101.188629"><ele>193.7</ele><time>1970-01-01T03:38:22.000Z</time></trkpt><trkpt lat="14.721752" lon="101.188627"><ele>194</ele><time>1970-01-01T03:38:23.000Z</time></trkpt><trkpt lat="14.72172" lon="101.188622"><ele>194.4</ele><time>1970-01-01T03:38:24.000Z</time></trkpt><trkpt lat="14.721686" lon="101.188613"><ele>194.7</ele><time>1970-01-01T03:38:25.000Z</time></trkpt><trkpt lat="14.72165" lon="101.188599"><ele>194.8</ele><time>1970-01-01T03:38:26.000Z</time></trkpt><trkpt lat="14.721616" lon="101.188589"><ele>194.8</ele><time>1970-01-01T03:38:27.000Z</time></trkpt><trkpt lat="14.721582" lon="101.18858"><ele>194.8</ele><time>1970-01-01T03:38:28.000Z</time></trkpt><trkpt lat="14.721546" lon="101.188571"><ele>194.7</ele><time>1970-01-01T03:38:29.000Z</time></trkpt><trkpt lat="14.721514" lon="101.188562"><ele>194.6</ele><time>1970-01-01T03:38:30.000Z</time></trkpt><trkpt lat="14.721482" lon="101.188553"><ele>194.5</ele><time>1970-01-01T03:38:31.000Z</time></trkpt><trkpt lat="14.721446" lon="101.18854"><ele>194.4</ele><time>1970-01-01T03:38:32.000Z</time></trkpt><trkpt lat="14.721408" lon="101.188528"><ele>194.2</ele><time>1970-01-01T03:38:33.000Z</time></trkpt><trkpt lat="14.721368" lon="101.18852"><ele>194</ele><time>1970-01-01T03:38:34.000Z</time></trkpt><trkpt lat="14.721324" lon="101.188511"><ele>193.4</ele><time>1970-01-01T03:38:35.000Z</time></trkpt><trkpt lat="14.721278" lon="101.188505"><ele>192</ele><time>1970-01-01T03:38:36.000Z</time></trkpt><trkpt lat="14.721227" lon="101.188499"><ele>190.9</ele><time>1970-01-01T03:38:37.000Z</time></trkpt><trkpt lat="14.721177" lon="101.188496"><ele>190.4</ele><time>1970-01-01T03:38:38.000Z</time></trkpt><trkpt lat="14.721134" lon="101.188499"><ele>190.3</ele><time>1970-01-01T03:38:39.000Z</time></trkpt><trkpt lat="14.721092" lon="101.188504"><ele>190.6</ele><time>1970-01-01T03:38:40.000Z</time></trkpt><trkpt lat="14.721049" lon="101.188505"><ele>190.9</ele><time>1970-01-01T03:38:41.000Z</time></trkpt><trkpt lat="14.721005" lon="101.188502"><ele>191.6</ele><time>1970-01-01T03:38:42.000Z</time></trkpt><trkpt lat="14.720962" lon="101.188496"><ele>192.2</ele><time>1970-01-01T03:38:43.000Z</time></trkpt><trkpt lat="14.72091" lon="101.188499"><ele>193</ele><time>1970-01-01T03:38:44.000Z</time></trkpt><trkpt lat="14.72086" lon="101.188502"><ele>193.6</ele><time>1970-01-01T03:38:45.000Z</time></trkpt><trkpt lat="14.720811" lon="101.188502"><ele>194.1</ele><time>1970-01-01T03:38:46.000Z</time></trkpt><trkpt lat="14.720764" lon="101.188508"><ele>194.4</ele><time>1970-01-01T03:38:47.000Z</time></trkpt><trkpt lat="14.720711" lon="101.18851"><ele>194.6</ele><time>1970-01-01T03:38:48.000Z</time></trkpt><trkpt lat="14.720672" lon="101.188525"><ele>194.5</ele><time>1970-01-01T03:38:49.000Z</time></trkpt><trkpt lat="14.720622" lon="101.188535"><ele>194.3</ele><time>1970-01-01T03:38:50.000Z</time></trkpt><trkpt lat="14.720578" lon="101.18854"><ele>193.9</ele><time>1970-01-01T03:38:51.000Z</time></trkpt><trkpt lat="14.720536" lon="101.188568"><ele>193.9</ele><time>1970-01-01T03:38:52.000Z</time></trkpt><trkpt lat="14.720498" lon="101.188593"><ele>194.3</ele><time>1970-01-01T03:38:53.000Z</time></trkpt><trkpt lat="14.720469" lon="101.188618"><ele>193.8</ele><time>1970-01-01T03:38:54.000Z</time></trkpt><trkpt lat="14.720442" lon="101.188643"><ele>193.1</ele><time>1970-01-01T03:38:55.000Z</time></trkpt><trkpt lat="14.720413" lon="101.188675"><ele>192.7</ele><time>1970-01-01T03:38:56.000Z</time></trkpt><trkpt lat="14.720379" lon="101.188703"><ele>192.5</ele><time>1970-01-01T03:38:57.000Z</time></trkpt><trkpt lat="14.720347" lon="101.188729"><ele>192.5</ele><time>1970-01-01T03:38:58.000Z</time></trkpt><trkpt lat="14.720342" lon="101.188774"><ele>192.7</ele><time>1970-01-01T03:38:59.000Z</time></trkpt><trkpt lat="14.72031" lon="101.188794"><ele>192.8</ele><time>1970-01-01T03:39:00.000Z</time></trkpt><trkpt lat="14.720291" lon="101.188827"><ele>192.9</ele><time>1970-01-01T03:39:01.000Z</time></trkpt><trkpt lat="14.720267" lon="101.188855"><ele>193</ele><time>1970-01-01T03:39:02.000Z</time></trkpt><trkpt lat="14.720242" lon="101.188886"><ele>193</ele><time>1970-01-01T03:39:03.000Z</time></trkpt><trkpt lat="14.720218" lon="101.188918"><ele>192.9</ele><time>1970-01-01T03:39:04.000Z</time></trkpt><trkpt lat="14.720194" lon="101.188953"><ele>192.9</ele><time>1970-01-01T03:39:05.000Z</time></trkpt><trkpt lat="14.720167" lon="101.188987"><ele>193</ele><time>1970-01-01T03:39:06.000Z</time></trkpt><trkpt lat="14.720137" lon="101.189019"><ele>193</ele><time>1970-01-01T03:39:07.000Z</time></trkpt><trkpt lat="14.720115" lon="101.189053"><ele>193.1</ele><time>1970-01-01T03:39:08.000Z</time></trkpt><trkpt lat="14.720095" lon="101.189089"><ele>193</ele><time>1970-01-01T03:39:09.000Z</time></trkpt><trkpt lat="14.720074" lon="101.189127"><ele>192.8</ele><time>1970-01-01T03:39:10.000Z</time></trkpt><trkpt lat="14.720058" lon="101.189167"><ele>192.5</ele><time>1970-01-01T03:39:11.000Z</time></trkpt><trkpt lat="14.720035" lon="101.189202"><ele>192.2</ele><time>1970-01-01T03:39:12.000Z</time></trkpt><trkpt lat="14.720009" lon="101.189234"><ele>192</ele><time>1970-01-01T03:39:13.000Z</time></trkpt><trkpt lat="14.719981" lon="101.189261"><ele>191.8</ele><time>1970-01-01T03:39:14.000Z</time></trkpt><trkpt lat="14.719955" lon="101.189291"><ele>191.8</ele><time>1970-01-01T03:39:15.000Z</time></trkpt><trkpt lat="14.71991" lon="101.189347"><ele>190.9</ele><time>1970-01-01T03:39:16.000Z</time></trkpt><trkpt lat="14.719839" lon="101.18929"><ele>189.7</ele><time>1970-01-01T03:39:17.000Z</time></trkpt><trkpt lat="14.719818" lon="101.189334"><ele>189.3</ele><time>1970-01-01T03:39:18.000Z</time></trkpt><trkpt lat="14.719772" lon="101.189372"><ele>188.2</ele><time>1970-01-01T03:39:19.000Z</time></trkpt><trkpt lat="14.719727" lon="101.189418"><ele>187.5</ele><time>1970-01-01T03:39:20.000Z</time></trkpt><trkpt lat="14.71967" lon="101.189452"><ele>187.3</ele><time>1970-01-01T03:39:21.000Z</time></trkpt><trkpt lat="14.719631" lon="101.189482"><ele>186.2</ele><time>1970-01-01T03:39:22.000Z</time></trkpt><trkpt lat="14.71959" lon="101.189518"><ele>185.3</ele><time>1970-01-01T03:39:23.000Z</time></trkpt><trkpt lat="14.719568" lon="101.189591"><ele>184.7</ele><time>1970-01-01T03:39:24.000Z</time></trkpt><trkpt lat="14.719532" lon="101.189697"><ele>184.3</ele><time>1970-01-01T03:39:25.000Z</time></trkpt><trkpt lat="14.7195" lon="101.189767"><ele>184</ele><time>1970-01-01T03:39:26.000Z</time></trkpt><trkpt lat="14.71944" lon="101.189822"><ele>184.9</ele><time>1970-01-01T03:39:27.000Z</time></trkpt><trkpt lat="14.719365" lon="101.189821"><ele>185.4</ele><time>1970-01-01T03:39:28.000Z</time></trkpt><trkpt lat="14.719311" lon="101.189857"><ele>185.7</ele><time>1970-01-01T03:39:29.000Z</time></trkpt><trkpt lat="14.71926" lon="101.189891"><ele>186.7</ele><time>1970-01-01T03:39:30.000Z</time></trkpt><trkpt lat="14.719204" lon="101.189927"><ele>187.8</ele><time>1970-01-01T03:39:31.000Z</time></trkpt><trkpt lat="14.719164" lon="101.189936"><ele>188.3</ele><time>1970-01-01T03:39:32.000Z</time></trkpt><trkpt lat="14.719122" lon="101.189975"><ele>188.9</ele><time>1970-01-01T03:39:33.000Z</time></trkpt><trkpt lat="14.719074" lon="101.19001"><ele>189.6</ele><time>1970-01-01T03:39:34.000Z</time></trkpt><trkpt lat="14.719031" lon="101.190034"><ele>190.5</ele><time>1970-01-01T03:39:35.000Z</time></trkpt><trkpt lat="14.718985" lon="101.190054"><ele>190.9</ele><time>1970-01-01T03:39:36.000Z</time></trkpt><trkpt lat="14.718942" lon="101.190072"><ele>191</ele><time>1970-01-01T03:39:37.000Z</time></trkpt><trkpt lat="14.718904" lon="101.19009"><ele>191</ele><time>1970-01-01T03:39:38.000Z</time></trkpt><trkpt lat="14.718867" lon="101.190112"><ele>191</ele><time>1970-01-01T03:39:39.000Z</time></trkpt><trkpt lat="14.718834" lon="101.190141"><ele>190.9</ele><time>1970-01-01T03:39:40.000Z</time></trkpt><trkpt lat="14.718801" lon="101.190164"><ele>190.9</ele><time>1970-01-01T03:39:41.000Z</time></trkpt><trkpt lat="14.71878" lon="101.190183"><ele>191</ele><time>1970-01-01T03:39:42.000Z</time></trkpt><trkpt lat="14.718736" lon="101.190205"><ele>191.4</ele><time>1970-01-01T03:39:44.000Z</time></trkpt><trkpt lat="14.7187" lon="101.19023"><ele>191.6</ele><time>1970-01-01T03:39:45.000Z</time></trkpt><trkpt lat="14.71867" lon="101.190245"><ele>191.7</ele><time>1970-01-01T03:39:46.000Z</time></trkpt><trkpt lat="14.718644" lon="101.190258"><ele>191.4</ele><time>1970-01-01T03:39:47.000Z</time></trkpt><trkpt lat="14.718611" lon="101.190272"><ele>191.1</ele><time>1970-01-01T03:39:48.000Z</time></trkpt><trkpt lat="14.718583" lon="101.190293"><ele>191.1</ele><time>1970-01-01T03:39:49.000Z</time></trkpt><trkpt lat="14.71855" lon="101.190314"><ele>191.3</ele><time>1970-01-01T03:39:50.000Z</time></trkpt><trkpt lat="14.718476" lon="101.190347"><ele>191.6</ele><time>1970-01-01T03:39:51.000Z</time></trkpt><trkpt lat="14.718427" lon="101.190348"><ele>191.2</ele><time>1970-01-01T03:39:52.000Z</time></trkpt><trkpt lat="14.718361" lon="101.190351"><ele>190.8</ele><time>1970-01-01T03:39:53.000Z</time></trkpt><trkpt lat="14.7183" lon="101.190361"><ele>190.7</ele><time>1970-01-01T03:39:54.000Z</time></trkpt><trkpt lat="14.718236" lon="101.190355"><ele>190.2</ele><time>1970-01-01T03:39:55.000Z</time></trkpt><trkpt lat="14.718174" lon="101.190356"><ele>189.7</ele><time>1970-01-01T03:39:56.000Z</time></trkpt><trkpt lat="14.718119" lon="101.190382"><ele>189.1</ele><time>1970-01-01T03:39:57.000Z</time></trkpt><trkpt lat="14.718064" lon="101.190408"><ele>188.6</ele><time>1970-01-01T03:39:58.000Z</time></trkpt><trkpt lat="14.718013" lon="101.19045"><ele>188.6</ele><time>1970-01-01T03:39:59.000Z</time></trkpt><trkpt lat="14.717961" lon="101.19047"><ele>188.8</ele><time>1970-01-01T03:40:00.000Z</time></trkpt><trkpt lat="14.717908" lon="101.19047"><ele>189.2</ele><time>1970-01-01T03:40:01.000Z</time></trkpt><trkpt lat="14.717865" lon="101.190497"><ele>189.7</ele><time>1970-01-01T03:40:02.000Z</time></trkpt><trkpt lat="14.717817" lon="101.190522"><ele>190.2</ele><time>1970-01-01T03:40:03.000Z</time></trkpt><trkpt lat="14.717771" lon="101.190558"><ele>190.6</ele><time>1970-01-01T03:40:04.000Z</time></trkpt><trkpt lat="14.717736" lon="101.1906"><ele>190.8</ele><time>1970-01-01T03:40:05.000Z</time></trkpt><trkpt lat="14.71769" lon="101.190605"><ele>190.8</ele><time>1970-01-01T03:40:06.000Z</time></trkpt><trkpt lat="14.717662" lon="101.190627"><ele>190.8</ele><time>1970-01-01T03:40:07.000Z</time></trkpt><trkpt lat="14.717624" lon="101.190655"><ele>190.7</ele><time>1970-01-01T03:40:08.000Z</time></trkpt><trkpt lat="14.717594" lon="101.190691"><ele>190.7</ele><time>1970-01-01T03:40:09.000Z</time></trkpt><trkpt lat="14.717563" lon="101.190694"><ele>190.7</ele><time>1970-01-01T03:40:10.000Z</time></trkpt><trkpt lat="14.717532" lon="101.190717"><ele>190.6</ele><time>1970-01-01T03:40:11.000Z</time></trkpt><trkpt lat="14.717499" lon="101.190747"><ele>190.5</ele><time>1970-01-01T03:40:12.000Z</time></trkpt><trkpt lat="14.717459" lon="101.190765"><ele>190.4</ele><time>1970-01-01T03:40:13.000Z</time></trkpt><trkpt lat="14.717421" lon="101.190782"><ele>190.6</ele><time>1970-01-01T03:40:14.000Z</time></trkpt><trkpt lat="14.717384" lon="101.190801"><ele>190.7</ele><time>1970-01-01T03:40:15.000Z</time></trkpt><trkpt lat="14.717348" lon="101.190823"><ele>190.6</ele><time>1970-01-01T03:40:16.000Z</time></trkpt><trkpt lat="14.717321" lon="101.190819"><ele>190.7</ele><time>1970-01-01T03:40:17.000Z</time></trkpt><trkpt lat="14.717293" lon="101.190815"><ele>191</ele><time>1970-01-01T03:40:18.000Z</time></trkpt><trkpt lat="14.717262" lon="101.190813"><ele>191.4</ele><time>1970-01-01T03:40:19.000Z</time></trkpt><trkpt lat="14.717228" lon="101.190807"><ele>191.7</ele><time>1970-01-01T03:40:20.000Z</time></trkpt><trkpt lat="14.717192" lon="101.190802"><ele>192</ele><time>1970-01-01T03:40:21.000Z</time></trkpt><trkpt lat="14.717155" lon="101.190798"><ele>192.2</ele><time>1970-01-01T03:40:22.000Z</time></trkpt><trkpt lat="14.717115" lon="101.190796"><ele>192.5</ele><time>1970-01-01T03:40:23.000Z</time></trkpt><trkpt lat="14.717073" lon="101.190794"><ele>192.9</ele><time>1970-01-01T03:40:24.000Z</time></trkpt><trkpt lat="14.717029" lon="101.190792"><ele>193.5</ele><time>1970-01-01T03:40:25.000Z</time></trkpt><trkpt lat="14.716983" lon="101.190791"><ele>193.7</ele><time>1970-01-01T03:40:26.000Z</time></trkpt><trkpt lat="14.71693" lon="101.190799"><ele>194</ele><time>1970-01-01T03:40:27.000Z</time></trkpt><trkpt lat="14.716881" lon="101.190798"><ele>194.2</ele><time>1970-01-01T03:40:28.000Z</time></trkpt><trkpt lat="14.716845" lon="101.190807"><ele>194.4</ele><time>1970-01-01T03:40:29.000Z</time></trkpt><trkpt lat="14.716822" lon="101.19084"><ele>194.5</ele><time>1970-01-01T03:40:30.000Z</time></trkpt><trkpt lat="14.716786" lon="101.190848"><ele>194.4</ele><time>1970-01-01T03:40:31.000Z</time></trkpt><trkpt lat="14.71675" lon="101.190859"><ele>194.4</ele><time>1970-01-01T03:40:32.000Z</time></trkpt><trkpt lat="14.716705" lon="101.19088"><ele>194.1</ele><time>1970-01-01T03:40:33.000Z</time></trkpt><trkpt lat="14.71666" lon="101.1909"><ele>193.9</ele><time>1970-01-01T03:40:34.000Z</time></trkpt><trkpt lat="14.716628" lon="101.190904"><ele>194</ele><time>1970-01-01T03:40:35.000Z</time></trkpt><trkpt lat="14.716594" lon="101.19092"><ele>194.2</ele><time>1970-01-01T03:40:36.000Z</time></trkpt><trkpt lat="14.716572" lon="101.190939"><ele>194.1</ele><time>1970-01-01T03:40:37.000Z</time></trkpt><trkpt lat="14.716567" lon="101.190985"><ele>194</ele><time>1970-01-01T03:40:38.000Z</time></trkpt><trkpt lat="14.71654" lon="101.191026"><ele>193.9</ele><time>1970-01-01T03:40:39.000Z</time></trkpt><trkpt lat="14.716521" lon="101.191063"><ele>193.9</ele><time>1970-01-01T03:40:40.000Z</time></trkpt><trkpt lat="14.7165" lon="101.191116"><ele>193.6</ele><time>1970-01-01T03:40:42.000Z</time></trkpt><trkpt lat="14.716485" lon="101.191183"><ele>193.4</ele><time>1970-01-01T03:40:44.000Z</time></trkpt><trkpt lat="14.716474" lon="101.191215"><ele>193.4</ele><time>1970-01-01T03:40:45.000Z</time></trkpt><trkpt lat="14.716454" lon="101.191244"><ele>193.4</ele><time>1970-01-01T03:40:46.000Z</time></trkpt><trkpt lat="14.716438" lon="101.191277"><ele>193.4</ele><time>1970-01-01T03:40:47.000Z</time></trkpt><trkpt lat="14.716423" lon="101.191302"><ele>193.4</ele><time>1970-01-01T03:40:48.000Z</time></trkpt><trkpt lat="14.716409" lon="101.191331"><ele>193.4</ele><time>1970-01-01T03:40:49.000Z</time></trkpt><trkpt lat="14.716393" lon="101.191361"><ele>193.4</ele><time>1970-01-01T03:40:50.000Z</time></trkpt><trkpt lat="14.716376" lon="101.191392"><ele>193.4</ele><time>1970-01-01T03:40:51.000Z</time></trkpt><trkpt lat="14.716358" lon="101.191427"><ele>193.4</ele><time>1970-01-01T03:40:52.000Z</time></trkpt><trkpt lat="14.71634" lon="101.191462"><ele>193.4</ele><time>1970-01-01T03:40:53.000Z</time></trkpt><trkpt lat="14.716322" lon="101.191501"><ele>193.3</ele><time>1970-01-01T03:40:54.000Z</time></trkpt><trkpt lat="14.716305" lon="101.191538"><ele>193.2</ele><time>1970-01-01T03:40:55.000Z</time></trkpt><trkpt lat="14.716291" lon="101.191574"><ele>193.2</ele><time>1970-01-01T03:40:56.000Z</time></trkpt><trkpt lat="14.716276" lon="101.191608"><ele>193.1</ele><time>1970-01-01T03:40:57.000Z</time></trkpt><trkpt lat="14.71626" lon="101.191636"><ele>193.1</ele><time>1970-01-01T03:40:58.000Z</time></trkpt><trkpt lat="14.716247" lon="101.191661"><ele>193.1</ele><time>1970-01-01T03:40:59.000Z</time></trkpt><trkpt lat="14.716236" lon="101.191689"><ele>193.2</ele><time>1970-01-01T03:41:00.000Z</time></trkpt><trkpt lat="14.716227" lon="101.191722"><ele>193.3</ele><time>1970-01-01T03:41:01.000Z</time></trkpt><trkpt lat="14.71622" lon="101.191752"><ele>193.3</ele><time>1970-01-01T03:41:02.000Z</time></trkpt><trkpt lat="14.716213" lon="101.191781"><ele>193.3</ele><time>1970-01-01T03:41:03.000Z</time></trkpt><trkpt lat="14.716203" lon="101.191809"><ele>193.4</ele><time>1970-01-01T03:41:04.000Z</time></trkpt><trkpt lat="14.716192" lon="101.191838"><ele>193.4</ele><time>1970-01-01T03:41:05.000Z</time></trkpt><trkpt lat="14.716177" lon="101.191866"><ele>193.4</ele><time>1970-01-01T03:41:06.000Z</time></trkpt><trkpt lat="14.716158" lon="101.191893"><ele>193.3</ele><time>1970-01-01T03:41:07.000Z</time></trkpt><trkpt lat="14.716139" lon="101.191924"><ele>193.5</ele><time>1970-01-01T03:41:08.000Z</time></trkpt><trkpt lat="14.716119" lon="101.191954"><ele>193.6</ele><time>1970-01-01T03:41:09.000Z</time></trkpt><trkpt lat="14.716099" lon="101.191982"><ele>193.7</ele><time>1970-01-01T03:41:10.000Z</time></trkpt><trkpt lat="14.716081" lon="101.192009"><ele>193.8</ele><time>1970-01-01T03:41:11.000Z</time></trkpt><trkpt lat="14.716062" lon="101.192039"><ele>193.9</ele><time>1970-01-01T03:41:12.000Z</time></trkpt><trkpt lat="14.716044" lon="101.192071"><ele>194.1</ele><time>1970-01-01T03:41:13.000Z</time></trkpt><trkpt lat="14.716025" lon="101.192094"><ele>194.2</ele><time>1970-01-01T03:41:14.000Z</time></trkpt><trkpt lat="14.716005" lon="101.192114"><ele>194.4</ele><time>1970-01-01T03:41:15.000Z</time></trkpt><trkpt lat="14.715969" lon="101.192157"><ele>194.7</ele><time>1970-01-01T03:41:17.000Z</time></trkpt><trkpt lat="14.715953" lon="101.192185"><ele>194.8</ele><time>1970-01-01T03:41:18.000Z</time></trkpt><trkpt lat="14.715942" lon="101.192218"><ele>195.2</ele><time>1970-01-01T03:41:19.000Z</time></trkpt><trkpt lat="14.715933" lon="101.192252"><ele>195.6</ele><time>1970-01-01T03:41:20.000Z</time></trkpt><trkpt lat="14.715926" lon="101.192287"><ele>195.8</ele><time>1970-01-01T03:41:21.000Z</time></trkpt><trkpt lat="14.715916" lon="101.192322"><ele>195.8</ele><time>1970-01-01T03:41:22.000Z</time></trkpt><trkpt lat="14.715904" lon="101.192354"><ele>195.8</ele><time>1970-01-01T03:41:23.000Z</time></trkpt><trkpt lat="14.715891" lon="101.192381"><ele>195.9</ele><time>1970-01-01T03:41:24.000Z</time></trkpt><trkpt lat="14.71587" lon="101.192404"><ele>196.1</ele><time>1970-01-01T03:41:25.000Z</time></trkpt><trkpt lat="14.715842" lon="101.192427"><ele>196.2</ele><time>1970-01-01T03:41:26.000Z</time></trkpt><trkpt lat="14.715809" lon="101.19245"><ele>196.2</ele><time>1970-01-01T03:41:27.000Z</time></trkpt><trkpt lat="14.715774" lon="101.19247"><ele>196.2</ele><time>1970-01-01T03:41:28.000Z</time></trkpt><trkpt lat="14.715741" lon="101.192492"><ele>196.2</ele><time>1970-01-01T03:41:29.000Z</time></trkpt><trkpt lat="14.715703" lon="101.192511"><ele>196.1</ele><time>1970-01-01T03:41:30.000Z</time></trkpt><trkpt lat="14.715662" lon="101.192531"><ele>196.1</ele><time>1970-01-01T03:41:31.000Z</time></trkpt><trkpt lat="14.715621" lon="101.192528"><ele>196.2</ele><time>1970-01-01T03:41:32.000Z</time></trkpt><trkpt lat="14.715583" lon="101.192517"><ele>196.4</ele><time>1970-01-01T03:41:33.000Z</time></trkpt><trkpt lat="14.71555" lon="101.192504"><ele>196.6</ele><time>1970-01-01T03:41:34.000Z</time></trkpt><trkpt lat="14.715521" lon="101.192496"><ele>196.8</ele><time>1970-01-01T03:41:35.000Z</time></trkpt><trkpt lat="14.715491" lon="101.192496"><ele>196.8</ele><time>1970-01-01T03:41:36.000Z</time></trkpt><trkpt lat="14.715454" lon="101.192497"><ele>196.8</ele><time>1970-01-01T03:41:37.000Z</time></trkpt><trkpt lat="14.715417" lon="101.192496"><ele>196.8</ele><time>1970-01-01T03:41:38.000Z</time></trkpt><trkpt lat="14.715379" lon="101.192489"><ele>196.8</ele><time>1970-01-01T03:41:39.000Z</time></trkpt><trkpt lat="14.715342" lon="101.192482"><ele>196.9</ele><time>1970-01-01T03:41:40.000Z</time></trkpt><trkpt lat="14.715307" lon="101.192478"><ele>196.9</ele><time>1970-01-01T03:41:41.000Z</time></trkpt><trkpt lat="14.71527" lon="101.19248"><ele>196.9</ele><time>1970-01-01T03:41:42.000Z</time></trkpt><trkpt lat="14.715236" lon="101.192484"><ele>197</ele><time>1970-01-01T03:41:43.000Z</time></trkpt><trkpt lat="14.715201" lon="101.19248"><ele>197</ele><time>1970-01-01T03:41:44.000Z</time></trkpt><trkpt lat="14.715165" lon="101.19247"><ele>197</ele><time>1970-01-01T03:41:45.000Z</time></trkpt><trkpt lat="14.715127" lon="101.192454"><ele>196.9</ele><time>1970-01-01T03:41:46.000Z</time></trkpt><trkpt lat="14.715088" lon="101.192436"><ele>196.8</ele><time>1970-01-01T03:41:47.000Z</time></trkpt><trkpt lat="14.71504" lon="101.192411"><ele>196.8</ele><time>1970-01-01T03:41:48.000Z</time></trkpt><trkpt lat="14.714995" lon="101.192387"><ele>196.9</ele><time>1970-01-01T03:41:49.000Z</time></trkpt><trkpt lat="14.714955" lon="101.192364"><ele>197.1</ele><time>1970-01-01T03:41:50.000Z</time></trkpt><trkpt lat="14.714914" lon="101.192343"><ele>197.3</ele><time>1970-01-01T03:41:51.000Z</time></trkpt><trkpt lat="14.714871" lon="101.192322"><ele>197.6</ele><time>1970-01-01T03:41:52.000Z</time></trkpt><trkpt lat="14.714834" lon="101.1923"><ele>197.8</ele><time>1970-01-01T03:41:53.000Z</time></trkpt><trkpt lat="14.714798" lon="101.19228"><ele>197.8</ele><time>1970-01-01T03:41:54.000Z</time></trkpt><trkpt lat="14.714761" lon="101.192264"><ele>197.8</ele><time>1970-01-01T03:41:55.000Z</time></trkpt><trkpt lat="14.714723" lon="101.192246"><ele>197.7</ele><time>1970-01-01T03:41:56.000Z</time></trkpt><trkpt lat="14.714682" lon="101.192231"><ele>197.5</ele><time>1970-01-01T03:41:57.000Z</time></trkpt><trkpt lat="14.714644" lon="101.192218"><ele>197.4</ele><time>1970-01-01T03:41:58.000Z</time></trkpt><trkpt lat="14.714608" lon="101.192207"><ele>197.4</ele><time>1970-01-01T03:41:59.000Z</time></trkpt><trkpt lat="14.714573" lon="101.192196"><ele>197.4</ele><time>1970-01-01T03:42:00.000Z</time></trkpt><trkpt lat="14.714537" lon="101.192182"><ele>197.3</ele><time>1970-01-01T03:42:01.000Z</time></trkpt><trkpt lat="14.714499" lon="101.192166"><ele>197.2</ele><time>1970-01-01T03:42:02.000Z</time></trkpt><trkpt lat="14.714458" lon="101.192148"><ele>197.1</ele><time>1970-01-01T03:42:03.000Z</time></trkpt><trkpt lat="14.714419" lon="101.19213"><ele>196.9</ele><time>1970-01-01T03:42:04.000Z</time></trkpt><trkpt lat="14.714373" lon="101.192065"><ele>196.4</ele><time>1970-01-01T03:42:05.000Z</time></trkpt><trkpt lat="14.714331" lon="101.192069"><ele>196.1</ele><time>1970-01-01T03:42:06.000Z</time></trkpt><trkpt lat="14.714288" lon="101.192059"><ele>196</ele><time>1970-01-01T03:42:07.000Z</time></trkpt><trkpt lat="14.714236" lon="101.19205"><ele>195.9</ele><time>1970-01-01T03:42:08.000Z</time></trkpt><trkpt lat="14.714207" lon="101.192102"><ele>196</ele><time>1970-01-01T03:42:09.000Z</time></trkpt><trkpt lat="14.71416" lon="101.192081"><ele>196.1</ele><time>1970-01-01T03:42:10.000Z</time></trkpt><trkpt lat="14.714107" lon="101.192072"><ele>196.2</ele><time>1970-01-01T03:42:11.000Z</time></trkpt><trkpt lat="14.714058" lon="101.19205"><ele>196.5</ele><time>1970-01-01T03:42:12.000Z</time></trkpt><trkpt lat="14.714001" lon="101.192022"><ele>196.9</ele><time>1970-01-01T03:42:13.000Z</time></trkpt><trkpt lat="14.713959" lon="101.191972"><ele>197.3</ele><time>1970-01-01T03:42:14.000Z</time></trkpt><trkpt lat="14.713913" lon="101.191956"><ele>197.6</ele><time>1970-01-01T03:42:15.000Z</time></trkpt><trkpt lat="14.713859" lon="101.191951"><ele>197.8</ele><time>1970-01-01T03:42:16.000Z</time></trkpt><trkpt lat="14.713813" lon="101.191929"><ele>197.8</ele><time>1970-01-01T03:42:17.000Z</time></trkpt><trkpt lat="14.713795" lon="101.191899"><ele>197.8</ele><time>1970-01-01T03:42:18.000Z</time></trkpt><trkpt lat="14.713765" lon="101.1919"><ele>197.8</ele><time>1970-01-01T03:42:19.000Z</time></trkpt><trkpt lat="14.713714" lon="101.191887"><ele>197.9</ele><time>1970-01-01T03:42:20.000Z</time></trkpt><trkpt lat="14.713666" lon="101.191878"><ele>198</ele><time>1970-01-01T03:42:21.000Z</time></trkpt><trkpt lat="14.713616" lon="101.191862"><ele>198.1</ele><time>1970-01-01T03:42:22.000Z</time></trkpt><trkpt lat="14.713558" lon="101.191819"><ele>197.9</ele><time>1970-01-01T03:42:23.000Z</time></trkpt><trkpt lat="14.713498" lon="101.191746"><ele>197.1</ele><time>1970-01-01T03:42:24.000Z</time></trkpt><trkpt lat="14.713447" lon="101.191641"><ele>196.2</ele><time>1970-01-01T03:42:25.000Z</time></trkpt><trkpt lat="14.713394" lon="101.191567"><ele>195.3</ele><time>1970-01-01T03:42:26.000Z</time></trkpt><trkpt lat="14.713339" lon="101.191526"><ele>194.8</ele><time>1970-01-01T03:42:27.000Z</time></trkpt><trkpt lat="14.713282" lon="101.191509"><ele>194.5</ele><time>1970-01-01T03:42:28.000Z</time></trkpt><trkpt lat="14.713223" lon="101.191502"><ele>194.6</ele><time>1970-01-01T03:42:29.000Z</time></trkpt><trkpt lat="14.713167" lon="101.191483"><ele>194.6</ele><time>1970-01-01T03:42:30.000Z</time></trkpt><trkpt lat="14.713127" lon="101.191517"><ele>194.5</ele><time>1970-01-01T03:42:31.000Z</time></trkpt><trkpt lat="14.713077" lon="101.191515"><ele>194.4</ele><time>1970-01-01T03:42:32.000Z</time></trkpt><trkpt lat="14.71303" lon="101.191495"><ele>194.3</ele><time>1970-01-01T03:42:33.000Z</time></trkpt><trkpt lat="14.712976" lon="101.191494"><ele>193.4</ele><time>1970-01-01T03:42:34.000Z</time></trkpt><trkpt lat="14.71292" lon="101.191488"><ele>192.6</ele><time>1970-01-01T03:42:35.000Z</time></trkpt><trkpt lat="14.712871" lon="101.191489"><ele>192.1</ele><time>1970-01-01T03:42:36.000Z</time></trkpt><trkpt lat="14.712825" lon="101.191508"><ele>191.7</ele><time>1970-01-01T03:42:37.000Z</time></trkpt><trkpt lat="14.712768" lon="101.191541"><ele>191.4</ele><time>1970-01-01T03:42:38.000Z</time></trkpt><trkpt lat="14.712716" lon="101.191549"><ele>191.1</ele><time>1970-01-01T03:42:39.000Z</time></trkpt><trkpt lat="14.712659" lon="101.191561"><ele>190.8</ele><time>1970-01-01T03:42:40.000Z</time></trkpt><trkpt lat="14.712595" lon="101.191564"><ele>190.2</ele><time>1970-01-01T03:42:41.000Z</time></trkpt><trkpt lat="14.712537" lon="101.191571"><ele>190</ele><time>1970-01-01T03:42:42.000Z</time></trkpt><trkpt lat="14.712478" lon="101.191581"><ele>189.9</ele><time>1970-01-01T03:42:43.000Z</time></trkpt><trkpt lat="14.712418" lon="101.191572"><ele>190.2</ele><time>1970-01-01T03:42:44.000Z</time></trkpt><trkpt lat="14.712356" lon="101.191574"><ele>190.7</ele><time>1970-01-01T03:42:45.000Z</time></trkpt><trkpt lat="14.712299" lon="101.191576"><ele>191.3</ele><time>1970-01-01T03:42:46.000Z</time></trkpt><trkpt lat="14.712245" lon="101.191572"><ele>191.9</ele><time>1970-01-01T03:42:47.000Z</time></trkpt><trkpt lat="14.712197" lon="101.191572"><ele>192.4</ele><time>1970-01-01T03:42:48.000Z</time></trkpt><trkpt lat="14.712144" lon="101.191574"><ele>192.7</ele><time>1970-01-01T03:42:49.000Z</time></trkpt><trkpt lat="14.712086" lon="101.191583"><ele>192.9</ele><time>1970-01-01T03:42:50.000Z</time></trkpt><trkpt lat="14.712026" lon="101.191542"><ele>192.9</ele><time>1970-01-01T03:42:51.000Z</time></trkpt><trkpt lat="14.711965" lon="101.191521"><ele>192.6</ele><time>1970-01-01T03:42:52.000Z</time></trkpt><trkpt lat="14.711911" lon="101.191531"><ele>192.5</ele><time>1970-01-01T03:42:53.000Z</time></trkpt><trkpt lat="14.711859" lon="101.191533"><ele>192.7</ele><time>1970-01-01T03:42:54.000Z</time></trkpt><trkpt lat="14.711817" lon="101.19154"><ele>192.8</ele><time>1970-01-01T03:42:55.000Z</time></trkpt><trkpt lat="14.711774" lon="101.191524"><ele>192.8</ele><time>1970-01-01T03:42:56.000Z</time></trkpt><trkpt lat="14.711711" lon="101.191517"><ele>192.9</ele><time>1970-01-01T03:42:57.000Z</time></trkpt><trkpt lat="14.711651" lon="101.191526"><ele>192.9</ele><time>1970-01-01T03:42:58.000Z</time></trkpt><trkpt lat="14.711591" lon="101.191517"><ele>192.9</ele><time>1970-01-01T03:42:59.000Z</time></trkpt><trkpt lat="14.711538" lon="101.191538"><ele>192.9</ele><time>1970-01-01T03:43:00.000Z</time></trkpt><trkpt lat="14.711487" lon="101.191552"><ele>192.9</ele><time>1970-01-01T03:43:01.000Z</time></trkpt><trkpt lat="14.711461" lon="101.191567"><ele>192.8</ele><time>1970-01-01T03:43:02.000Z</time></trkpt><trkpt lat="14.711432" lon="101.19154"><ele>192.7</ele><time>1970-01-01T03:43:03.000Z</time></trkpt><trkpt lat="14.711381" lon="101.191551"><ele>192.7</ele><time>1970-01-01T03:43:04.000Z</time></trkpt><trkpt lat="14.711323" lon="101.19154"><ele>192.7</ele><time>1970-01-01T03:43:05.000Z</time></trkpt><trkpt lat="14.711262" lon="101.191508"><ele>192.7</ele><time>1970-01-01T03:43:06.000Z</time></trkpt><trkpt lat="14.711206" lon="101.191496"><ele>192.7</ele><time>1970-01-01T03:43:07.000Z</time></trkpt><trkpt lat="14.711158" lon="101.191483"><ele>192.6</ele><time>1970-01-01T03:43:08.000Z</time></trkpt><trkpt lat="14.711094" lon="101.19146"><ele>192.2</ele><time>1970-01-01T03:43:09.000Z</time></trkpt><trkpt lat="14.711029" lon="101.191433"><ele>191.9</ele><time>1970-01-01T03:43:10.000Z</time></trkpt><trkpt lat="14.710979" lon="101.191388"><ele>192</ele><time>1970-01-01T03:43:11.000Z</time></trkpt><trkpt lat="14.710933" lon="101.191365"><ele>192.1</ele><time>1970-01-01T03:43:12.000Z</time></trkpt><trkpt lat="14.710885" lon="101.191286"><ele>192.2</ele><time>1970-01-01T03:43:13.000Z</time></trkpt><trkpt lat="14.710824" lon="101.191252"><ele>192</ele><time>1970-01-01T03:43:14.000Z</time></trkpt><trkpt lat="14.710775" lon="101.191225"><ele>191.7</ele><time>1970-01-01T03:43:15.000Z</time></trkpt><trkpt lat="14.710726" lon="101.191157"><ele>191.3</ele><time>1970-01-01T03:43:16.000Z</time></trkpt><trkpt lat="14.71067" lon="101.191094"><ele>190.8</ele><time>1970-01-01T03:43:17.000Z</time></trkpt><trkpt lat="14.710628" lon="101.191061"><ele>190.5</ele><time>1970-01-01T03:43:18.000Z</time></trkpt><trkpt lat="14.71058" lon="101.191051"><ele>190.4</ele><time>1970-01-01T03:43:19.000Z</time></trkpt><trkpt lat="14.710527" lon="101.191032"><ele>190.3</ele><time>1970-01-01T03:43:20.000Z</time></trkpt><trkpt lat="14.710478" lon="101.191017"><ele>190.3</ele><time>1970-01-01T03:43:21.000Z</time></trkpt><trkpt lat="14.710431" lon="101.190977"><ele>190.3</ele><time>1970-01-01T03:43:22.000Z</time></trkpt><trkpt lat="14.710388" lon="101.190948"><ele>190.3</ele><time>1970-01-01T03:43:23.000Z</time></trkpt><trkpt lat="14.710333" lon="101.190917"><ele>190.1</ele><time>1970-01-01T03:43:24.000Z</time></trkpt><trkpt lat="14.710287" lon="101.190873"><ele>189.9</ele><time>1970-01-01T03:43:25.000Z</time></trkpt><trkpt lat="14.710251" lon="101.190831"><ele>189.8</ele><time>1970-01-01T03:43:26.000Z</time></trkpt><trkpt lat="14.710224" lon="101.190791"><ele>189.7</ele><time>1970-01-01T03:43:27.000Z</time></trkpt><trkpt lat="14.710186" lon="101.190807"><ele>189.7</ele><time>1970-01-01T03:43:29.000Z</time></trkpt><trkpt lat="14.710179" lon="101.190864"><ele>189.6</ele><time>1970-01-01T03:43:30.000Z</time></trkpt><trkpt lat="14.710099" lon="101.190881"><ele>189.6</ele><time>1970-01-01T03:43:32.000Z</time></trkpt><trkpt lat="14.710033" lon="101.190838"><ele>189.8</ele><time>1970-01-01T03:43:33.000Z</time></trkpt><trkpt lat="14.709976" lon="101.190756"><ele>190</ele><time>1970-01-01T03:43:34.000Z</time></trkpt><trkpt lat="14.709927" lon="101.190711"><ele>190.4</ele><time>1970-01-01T03:43:35.000Z</time></trkpt><trkpt lat="14.709883" lon="101.19069"><ele>190.6</ele><time>1970-01-01T03:43:36.000Z</time></trkpt><trkpt lat="14.709842" lon="101.190674"><ele>190.7</ele><time>1970-01-01T03:43:37.000Z</time></trkpt><trkpt lat="14.709792" lon="101.190695"><ele>190.8</ele><time>1970-01-01T03:43:38.000Z</time></trkpt><trkpt lat="14.709758" lon="101.190717"><ele>190.9</ele><time>1970-01-01T03:43:39.000Z</time></trkpt><trkpt lat="14.70972" lon="101.1908"><ele>191</ele><time>1970-01-01T03:43:40.000Z</time></trkpt><trkpt lat="14.709694" lon="101.190822"><ele>191</ele><time>1970-01-01T03:43:41.000Z</time></trkpt><trkpt lat="14.709661" lon="101.190854"><ele>191</ele><time>1970-01-01T03:43:42.000Z</time></trkpt><trkpt lat="14.709611" lon="101.190899"><ele>191</ele><time>1970-01-01T03:43:43.000Z</time></trkpt><trkpt lat="14.709598" lon="101.190944"><ele>191</ele><time>1970-01-01T03:43:44.000Z</time></trkpt><trkpt lat="14.70956" lon="101.190991"><ele>191.1</ele><time>1970-01-01T03:43:45.000Z</time></trkpt><trkpt lat="14.70953" lon="101.191019"><ele>191.2</ele><time>1970-01-01T03:43:46.000Z</time></trkpt><trkpt lat="14.709511" lon="101.191056"><ele>191.2</ele><time>1970-01-01T03:43:47.000Z</time></trkpt><trkpt lat="14.709496" lon="101.191091"><ele>191.2</ele><time>1970-01-01T03:43:48.000Z</time></trkpt><trkpt lat="14.709479" lon="101.191126"><ele>191.2</ele><time>1970-01-01T03:43:49.000Z</time></trkpt><trkpt lat="14.709461" lon="101.191163"><ele>191.1</ele><time>1970-01-01T03:43:50.000Z</time></trkpt><trkpt lat="14.709441" lon="101.191203"><ele>191.2</ele><time>1970-01-01T03:43:51.000Z</time></trkpt><trkpt lat="14.709421" lon="101.191244"><ele>191.3</ele><time>1970-01-01T03:43:52.000Z</time></trkpt><trkpt lat="14.709399" lon="101.191288"><ele>191.4</ele><time>1970-01-01T03:43:53.000Z</time></trkpt><trkpt lat="14.709377" lon="101.191333"><ele>191.5</ele><time>1970-01-01T03:43:54.000Z</time></trkpt><trkpt lat="14.709357" lon="101.191375"><ele>191.7</ele><time>1970-01-01T03:43:55.000Z</time></trkpt><trkpt lat="14.709333" lon="101.191411"><ele>191.8</ele><time>1970-01-01T03:43:56.000Z</time></trkpt><trkpt lat="14.709307" lon="101.191437"><ele>192</ele><time>1970-01-01T03:43:57.000Z</time></trkpt><trkpt lat="14.709271" lon="101.191453"><ele>192.2</ele><time>1970-01-01T03:43:58.000Z</time></trkpt><trkpt lat="14.709222" lon="101.191461"><ele>192.5</ele><time>1970-01-01T03:43:59.000Z</time></trkpt><trkpt lat="14.709167" lon="101.191459"><ele>192.6</ele><time>1970-01-01T03:44:00.000Z</time></trkpt><trkpt lat="14.709108" lon="101.19145"><ele>192.5</ele><time>1970-01-01T03:44:01.000Z</time></trkpt><trkpt lat="14.708981" lon="101.191355"><ele>192.9</ele><time>1970-01-01T03:44:02.000Z</time></trkpt><trkpt lat="14.708927" lon="101.191375"><ele>193.1</ele><time>1970-01-01T03:44:03.000Z</time></trkpt><trkpt lat="14.708906" lon="101.19132"><ele>193.1</ele><time>1970-01-01T03:44:04.000Z</time></trkpt><trkpt lat="14.708875" lon="101.191287"><ele>193.1</ele><time>1970-01-01T03:44:05.000Z</time></trkpt><trkpt lat="14.70881" lon="101.191243"><ele>193.1</ele><time>1970-01-01T03:44:06.000Z</time></trkpt><trkpt lat="14.708749" lon="101.191231"><ele>193.2</ele><time>1970-01-01T03:44:07.000Z</time></trkpt><trkpt lat="14.708685" lon="101.191206"><ele>193.3</ele><time>1970-01-01T03:44:08.000Z</time></trkpt><trkpt lat="14.708627" lon="101.191171"><ele>193.4</ele><time>1970-01-01T03:44:09.000Z</time></trkpt><trkpt lat="14.708578" lon="101.191155"><ele>193.5</ele><time>1970-01-01T03:44:10.000Z</time></trkpt><trkpt lat="14.708567" lon="101.191192"><ele>193.7</ele><time>1970-01-01T03:44:11.000Z</time></trkpt><trkpt lat="14.70855" lon="101.191246"><ele>194.2</ele><time>1970-01-01T03:44:12.000Z</time></trkpt><trkpt lat="14.708511" lon="101.191229"><ele>194.5</ele><time>1970-01-01T03:44:13.000Z</time></trkpt><trkpt lat="14.708486" lon="101.191269"><ele>194.8</ele><time>1970-01-01T03:44:14.000Z</time></trkpt><trkpt lat="14.708452" lon="101.191295"><ele>195.3</ele><time>1970-01-01T03:44:15.000Z</time></trkpt><trkpt lat="14.708417" lon="101.191327"><ele>195.6</ele><time>1970-01-01T03:44:17.000Z</time></trkpt><trkpt lat="14.708422" lon="101.191402"><ele>195.9</ele><time>1970-01-01T03:44:18.000Z</time></trkpt><trkpt lat="14.708397" lon="101.191432"><ele>196</ele><time>1970-01-01T03:44:19.000Z</time></trkpt><trkpt lat="14.708389" lon="101.191459"><ele>196</ele><time>1970-01-01T03:44:20.000Z</time></trkpt><trkpt lat="14.70838" lon="101.191494"><ele>196</ele><time>1970-01-01T03:44:21.000Z</time></trkpt><trkpt lat="14.708371" lon="101.191531"><ele>195.9</ele><time>1970-01-01T03:44:22.000Z</time></trkpt><trkpt lat="14.708361" lon="101.191561"><ele>195.8</ele><time>1970-01-01T03:44:23.000Z</time></trkpt><trkpt lat="14.708343" lon="101.191605"><ele>195.8</ele><time>1970-01-01T03:44:25.000Z</time></trkpt><trkpt lat="14.708339" lon="101.191637"><ele>195.6</ele><time>1970-01-01T03:44:26.000Z</time></trkpt><trkpt lat="14.708339" lon="101.191673"><ele>195.6</ele><time>1970-01-01T03:44:27.000Z</time></trkpt><trkpt lat="14.708342" lon="101.191706"><ele>195.4</ele><time>1970-01-01T03:44:28.000Z</time></trkpt><trkpt lat="14.708353" lon="101.191731"><ele>195.1</ele><time>1970-01-01T03:44:29.000Z</time></trkpt><trkpt lat="14.708373" lon="101.191761"><ele>194.8</ele><time>1970-01-01T03:44:30.000Z</time></trkpt><trkpt lat="14.708449" lon="101.191816"><ele>193.6</ele><time>1970-01-01T03:44:31.000Z</time></trkpt><trkpt lat="14.708485" lon="101.191858"><ele>193.2</ele><time>1970-01-01T03:44:32.000Z</time></trkpt><trkpt lat="14.708502" lon="101.191894"><ele>192.8</ele><time>1970-01-01T03:44:33.000Z</time></trkpt><trkpt lat="14.708508" lon="101.191935"><ele>192.8</ele><time>1970-01-01T03:44:34.000Z</time></trkpt><trkpt lat="14.708514" lon="101.191975"><ele>192.4</ele><time>1970-01-01T03:44:35.000Z</time></trkpt><trkpt lat="14.708477" lon="101.191987"><ele>192.2</ele><time>1970-01-01T03:44:37.000Z</time></trkpt><trkpt lat="14.708385" lon="101.191979"><ele>192.3</ele><time>1970-01-01T03:44:39.000Z</time></trkpt><trkpt lat="14.708325" lon="101.191982"><ele>192.4</ele><time>1970-01-01T03:44:40.000Z</time></trkpt><trkpt lat="14.708281" lon="101.192016"><ele>192.6</ele><time>1970-01-01T03:44:41.000Z</time></trkpt><trkpt lat="14.708236" lon="101.192007"><ele>192.6</ele><time>1970-01-01T03:44:42.000Z</time></trkpt><trkpt lat="14.708197" lon="101.192031"><ele>192.1</ele><time>1970-01-01T03:44:43.000Z</time></trkpt><trkpt lat="14.70817" lon="101.19209"><ele>191.7</ele><time>1970-01-01T03:44:45.000Z</time></trkpt><trkpt lat="14.708153" lon="101.192147"><ele>191.5</ele><time>1970-01-01T03:44:46.000Z</time></trkpt><trkpt lat="14.708117" lon="101.192177"><ele>191.6</ele><time>1970-01-01T03:44:48.000Z</time></trkpt><trkpt lat="14.708069" lon="101.192198"><ele>191.9</ele><time>1970-01-01T03:44:50.000Z</time></trkpt><trkpt lat="14.708043" lon="101.192205"><ele>192</ele><time>1970-01-01T03:44:51.000Z</time></trkpt><trkpt lat="14.708016" lon="101.192212"><ele>192.1</ele><time>1970-01-01T03:44:52.000Z</time></trkpt><trkpt lat="14.707978" lon="101.19223"><ele>192.1</ele><time>1970-01-01T03:44:54.000Z</time></trkpt><trkpt lat="14.707975" lon="101.192263"><ele>191.9</ele><time>1970-01-01T03:44:56.000Z</time></trkpt><trkpt lat="14.708008" lon="101.192214"><ele>192.1</ele><time>1970-01-01T03:44:59.000Z</time></trkpt><trkpt lat="14.708011" lon="101.192175"><ele>192.1</ele><time>1970-01-01T03:45:00.000Z</time></trkpt><trkpt lat="14.70802" lon="101.192142"><ele>192.1</ele><time>1970-01-01T03:45:02.000Z</time></trkpt></trkseg></trk></gpx>